<?xml version='1.0' encoding='UTF-8'?><gpx version="1.1" creator="JPX - https://github.com/jenetics/jpx" xmlns="http://www.topografix.com/GPX/1/1"><trk><trkseg><trkpt lat="45.61994119356538" lon="9.914482737287225"><ele>198.0</ele><time>2026-03-28T18:18:15Z</time></trkpt><trkpt lat="45.61979881106793" lon="9.915152638543427"><ele>198.0</ele><time>2026-03-28T18:18:17Z</time></trkpt><trkpt lat="45.61972319669903" lon="9.915485118248005"><ele>198.0</ele><time>2026-03-28T18:18:18Z</time></trkpt><trkpt lat="45.61964343600334" lon="9.915820820522645"><ele>198.5</ele><time>2026-03-28T18:18:19Z</time></trkpt><trkpt lat="45.61957191159017" lon="9.916157337334283"><ele>199.0</ele><time>2026-03-28T18:18:20Z</time></trkpt><trkpt lat="45.61950049131914" lon="9.916488324645243"><ele>197.0</ele><time>2026-03-28T18:18:21Z</time></trkpt><trkpt lat="45.61942709806146" lon="9.916823370430732"><ele>195.0</ele><time>2026-03-28T18:18:22Z</time></trkpt><trkpt lat="45.61935411186257" lon="9.917156413024301"><ele>195.0</ele><time>2026-03-28T18:18:23Z</time></trkpt><trkpt lat="45.61927750692653" lon="9.917493169362533"><ele>195.0</ele><time>2026-03-28T18:18:24Z</time></trkpt><trkpt lat="45.61920798474674" lon="9.917827667624492"><ele>196.5</ele><time>2026-03-28T18:18:25Z</time></trkpt><trkpt lat="45.619132695331004" lon="9.918166737423663"><ele>198.0</ele><time>2026-03-28T18:18:26Z</time></trkpt><trkpt lat="45.61905579843838" lon="9.918494111287803"><ele>198.0</ele><time>2026-03-28T18:18:27Z</time></trkpt><trkpt lat="45.618979093261174" lon="9.918821618124781"><ele>198.0</ele><time>2026-03-28T18:18:28Z</time></trkpt><trkpt lat="45.61889534268037" lon="9.919145719860516"><ele>197.5</ele><time>2026-03-28T18:18:29Z</time></trkpt><trkpt lat="45.61880723444764" lon="9.91947310660711"><ele>197.0</ele><time>2026-03-28T18:18:30Z</time></trkpt><trkpt lat="45.6187190721793" lon="9.91980216593081"><ele>196.5</ele><time>2026-03-28T18:18:31Z</time></trkpt><trkpt lat="45.61862834970713" lon="9.920120010705537"><ele>196.0</ele><time>2026-03-28T18:18:32Z</time></trkpt><trkpt lat="45.618538998242066" lon="9.920439018375609"><ele>196.0</ele><time>2026-03-28T18:18:33Z</time></trkpt><trkpt lat="45.618446734240656" lon="9.920764684411088"><ele>196.0</ele><time>2026-03-28T18:18:34Z</time></trkpt><trkpt lat="45.61835361538075" lon="9.921073021072072"><ele>195.5</ele><time>2026-03-28T18:18:35Z</time></trkpt><trkpt lat="45.618258679851024" lon="9.921378330914024"><ele>195.0</ele><time>2026-03-28T18:18:36Z</time></trkpt><trkpt lat="45.61815143901258" lon="9.921692911044161"><ele>196.5</ele><time>2026-03-28T18:18:37Z</time></trkpt><trkpt lat="45.618046604439364" lon="9.922001555224405"><ele>198.0</ele><time>2026-03-28T18:18:38Z</time></trkpt><trkpt lat="45.61793920783317" lon="9.922315037220685"><ele>198.0</ele><time>2026-03-28T18:18:39Z</time></trkpt><trkpt lat="45.61782688098475" lon="9.922622253965432"><ele>198.0</ele><time>2026-03-28T18:18:40Z</time></trkpt><trkpt lat="45.617715429612616" lon="9.922940866404083"><ele>197.5</ele><time>2026-03-28T18:18:41Z</time></trkpt><trkpt lat="45.61759961917832" lon="9.923259756769644"><ele>197.0</ele><time>2026-03-28T18:18:42Z</time></trkpt><trkpt lat="45.617478860690426" lon="9.923579464899635"><ele>197.0</ele><time>2026-03-28T18:18:43Z</time></trkpt><trkpt lat="45.61735992111926" lon="9.923907386094141"><ele>197.0</ele><time>2026-03-28T18:18:44Z</time></trkpt><trkpt lat="45.61725837358101" lon="9.924234515649706"><ele>197.5</ele><time>2026-03-28T18:18:45Z</time></trkpt><trkpt lat="45.617122493258705" lon="9.924544610681952"><ele>198.0</ele><time>2026-03-28T18:18:46Z</time></trkpt><trkpt lat="45.61699033886026" lon="9.924850298103804"><ele>197.5</ele><time>2026-03-28T18:18:47Z</time></trkpt><trkpt lat="45.61685002536064" lon="9.925160815800773"><ele>197.0</ele><time>2026-03-28T18:18:48Z</time></trkpt><trkpt lat="45.61670894399795" lon="9.925468549272685"><ele>197.0</ele><time>2026-03-28T18:18:49Z</time></trkpt><trkpt lat="45.61656559594913" lon="9.925770098942504"><ele>197.0</ele><time>2026-03-28T18:18:50Z</time></trkpt><trkpt lat="45.61642351321759" lon="9.926074524475208"><ele>197.0</ele><time>2026-03-28T18:18:51Z</time></trkpt><trkpt lat="45.616273467086074" lon="9.92637297597021"><ele>197.0</ele><time>2026-03-28T18:18:52Z</time></trkpt><trkpt lat="45.616124697703974" lon="9.926675333966246"><ele>197.0</ele><time>2026-03-28T18:18:53Z</time></trkpt><trkpt lat="45.61597416560024" lon="9.926968430283647"><ele>197.0</ele><time>2026-03-28T18:18:54Z</time></trkpt><trkpt lat="45.61581932478133" lon="9.927261835331933"><ele>197.0</ele><time>2026-03-28T18:18:55Z</time></trkpt><trkpt lat="45.61566382989676" lon="9.927556752816006"><ele>197.0</ele><time>2026-03-28T18:18:56Z</time></trkpt><trkpt lat="45.615512401619874" lon="9.927842724201708"><ele>196.5</ele><time>2026-03-28T18:18:57Z</time></trkpt><trkpt lat="45.61535713476084" lon="9.928140058447982"><ele>196.0</ele><time>2026-03-28T18:18:58Z</time></trkpt><trkpt lat="45.61519591860701" lon="9.928444819242666"><ele>197.0</ele><time>2026-03-28T18:18:59Z</time></trkpt><trkpt lat="45.61502864227636" lon="9.928722940358131"><ele>198.0</ele><time>2026-03-28T18:19:00Z</time></trkpt><trkpt lat="45.61486119455082" lon="9.92901686078279"><ele>197.5</ele><time>2026-03-28T18:19:01Z</time></trkpt><trkpt lat="45.61468813279351" lon="9.92930160650662"><ele>197.0</ele><time>2026-03-28T18:19:02Z</time></trkpt><trkpt lat="45.6145145748386" lon="9.929589462476956"><ele>197.0</ele><time>2026-03-28T18:19:03Z</time></trkpt><trkpt lat="45.61434520273718" lon="9.929883470445711"><ele>197.0</ele><time>2026-03-28T18:19:04Z</time></trkpt><trkpt lat="45.61417781756819" lon="9.93017454446176"><ele>198.0</ele><time>2026-03-28T18:19:05Z</time></trkpt><trkpt lat="45.61401112591412" lon="9.930467174463"><ele>199.0</ele><time>2026-03-28T18:19:06Z</time></trkpt><trkpt lat="45.61384107205458" lon="9.930756760017774"><ele>199.0</ele><time>2026-03-28T18:19:07Z</time></trkpt><trkpt lat="45.61367133339231" lon="9.93104547328496"><ele>199.0</ele><time>2026-03-28T18:19:08Z</time></trkpt><trkpt lat="45.613499370760586" lon="9.931335290202382"><ele>199.0</ele><time>2026-03-28T18:19:09Z</time></trkpt><trkpt lat="45.61333059015708" lon="9.931626013860607"><ele>199.0</ele><time>2026-03-28T18:19:10Z</time></trkpt><trkpt lat="45.61316289417109" lon="9.931919289150272"><ele>201.0</ele><time>2026-03-28T18:19:11Z</time></trkpt><trkpt lat="45.61300116743344" lon="9.932209319578135"><ele>203.0</ele><time>2026-03-28T18:19:12Z</time></trkpt><trkpt lat="45.6128334345172" lon="9.93249157776032"><ele>202.5</ele><time>2026-03-28T18:19:13Z</time></trkpt><trkpt lat="45.612669133508824" lon="9.932780627468636"><ele>202.0</ele><time>2026-03-28T18:19:14Z</time></trkpt><trkpt lat="45.612507653508345" lon="9.933061040515327"><ele>202.0</ele><time>2026-03-28T18:19:15Z</time></trkpt><trkpt lat="45.61234623874498" lon="9.933343528305558"><ele>202.0</ele><time>2026-03-28T18:19:16Z</time></trkpt><trkpt lat="45.61218516479034" lon="9.933619241291593"><ele>202.5</ele><time>2026-03-28T18:19:17Z</time></trkpt><trkpt lat="45.61202841587078" lon="9.933896819386243"><ele>203.0</ele><time>2026-03-28T18:19:18Z</time></trkpt><trkpt lat="45.61186853580247" lon="9.934173977250326"><ele>202.5</ele><time>2026-03-28T18:19:19Z</time></trkpt><trkpt lat="45.61170892778866" lon="9.934454645875464"><ele>202.0</ele><time>2026-03-28T18:19:20Z</time></trkpt><trkpt lat="45.61154782883599" lon="9.93473347642613"><ele>202.0</ele><time>2026-03-28T18:19:21Z</time></trkpt><trkpt lat="45.611388116112465" lon="9.935015883079034"><ele>202.0</ele><time>2026-03-28T18:19:22Z</time></trkpt><trkpt lat="45.61122894923041" lon="9.935292815908463"><ele>201.5</ele><time>2026-03-28T18:19:23Z</time></trkpt><trkpt lat="45.611070057815716" lon="9.935576929704732"><ele>201.0</ele><time>2026-03-28T18:19:24Z</time></trkpt><trkpt lat="45.610915570820744" lon="9.935853209742424"><ele>201.0</ele><time>2026-03-28T18:19:25Z</time></trkpt><trkpt lat="45.610756943403985" lon="9.93612927122887"><ele>201.0</ele><time>2026-03-28T18:19:26Z</time></trkpt><trkpt lat="45.610601990995804" lon="9.93640168445467"><ele>201.0</ele><time>2026-03-28T18:19:27Z</time></trkpt><trkpt lat="45.61044182668864" lon="9.936673344155109"><ele>201.0</ele><time>2026-03-28T18:19:28Z</time></trkpt><trkpt lat="45.610283925712" lon="9.936938689140376"><ele>201.0</ele><time>2026-03-28T18:19:29Z</time></trkpt><trkpt lat="45.610127481936466" lon="9.937211084988078"><ele>201.0</ele><time>2026-03-28T18:19:30Z</time></trkpt><trkpt lat="45.60997430100549" lon="9.93748223986807"><ele>202.5</ele><time>2026-03-28T18:19:31Z</time></trkpt><trkpt lat="45.60981471034068" lon="9.937751583358507"><ele>204.0</ele><time>2026-03-28T18:19:32Z</time></trkpt><trkpt lat="45.60966077100905" lon="9.938024270180888"><ele>204.0</ele><time>2026-03-28T18:19:33Z</time></trkpt><trkpt lat="45.60950198266235" lon="9.938294052334635"><ele>204.0</ele><time>2026-03-28T18:19:34Z</time></trkpt><trkpt lat="45.609340169268705" lon="9.938570403297497"><ele>204.0</ele><time>2026-03-28T18:19:35Z</time></trkpt><trkpt lat="45.609180148512614" lon="9.938848835606674"><ele>204.0</ele><time>2026-03-28T18:19:36Z</time></trkpt><trkpt lat="45.609019547414114" lon="9.939130682602274"><ele>204.0</ele><time>2026-03-28T18:19:37Z</time></trkpt><trkpt lat="45.60885350279626" lon="9.939416418578018"><ele>204.0</ele><time>2026-03-28T18:19:38Z</time></trkpt><trkpt lat="45.608686147181636" lon="9.939709126494481"><ele>204.0</ele><time>2026-03-28T18:19:39Z</time></trkpt><trkpt lat="45.60851603383866" lon="9.940001439337701"><ele>204.0</ele><time>2026-03-28T18:19:40Z</time></trkpt><trkpt lat="45.60834627041524" lon="9.940299322796887"><ele>204.0</ele><time>2026-03-28T18:19:41Z</time></trkpt><trkpt lat="45.60817214941613" lon="9.940588130433893"><ele>204.0</ele><time>2026-03-28T18:19:42Z</time></trkpt><trkpt lat="45.607996977188165" lon="9.94088535652991"><ele>203.5</ele><time>2026-03-28T18:19:43Z</time></trkpt><trkpt lat="45.6078269144977" lon="9.94118493648111"><ele>203.0</ele><time>2026-03-28T18:19:44Z</time></trkpt><trkpt lat="45.607654353652485" lon="9.941487822726707"><ele>204.0</ele><time>2026-03-28T18:19:45Z</time></trkpt><trkpt lat="45.607477438810115" lon="9.941788571562205"><ele>205.0</ele><time>2026-03-28T18:19:46Z</time></trkpt><trkpt lat="45.607303551017004" lon="9.942091156875799"><ele>205.0</ele><time>2026-03-28T18:19:47Z</time></trkpt><trkpt lat="45.60713038893695" lon="9.942386873887282"><ele>205.0</ele><time>2026-03-28T18:19:48Z</time></trkpt><trkpt lat="45.606955616148966" lon="9.942678031450408"><ele>205.5</ele><time>2026-03-28T18:19:49Z</time></trkpt><trkpt lat="45.60678515131" lon="9.942972891637538"><ele>206.0</ele><time>2026-03-28T18:19:50Z</time></trkpt><trkpt lat="45.60661707595543" lon="9.943268713837977"><ele>206.5</ele><time>2026-03-28T18:19:51Z</time></trkpt><trkpt lat="45.60644932389459" lon="9.94355778882423"><ele>207.0</ele><time>2026-03-28T18:19:52Z</time></trkpt><trkpt lat="45.60628123386531" lon="9.943845024827244"><ele>206.5</ele><time>2026-03-28T18:19:53Z</time></trkpt><trkpt lat="45.60611678615989" lon="9.94413293752711"><ele>206.0</ele><time>2026-03-28T18:19:54Z</time></trkpt><trkpt lat="45.60594972597539" lon="9.944417672106031"><ele>206.0</ele><time>2026-03-28T18:19:55Z</time></trkpt><trkpt lat="45.60576866000011" lon="9.944686895612136"><ele>206.0</ele><time>2026-03-28T18:19:56Z</time></trkpt><trkpt lat="45.60561784994373" lon="9.944982795733205"><ele>206.0</ele><time>2026-03-28T18:19:57Z</time></trkpt><trkpt lat="45.60546315641931" lon="9.945257062347155"><ele>206.0</ele><time>2026-03-28T18:19:58Z</time></trkpt><trkpt lat="45.60530533058068" lon="9.94553190366533"><ele>205.0</ele><time>2026-03-28T18:19:59Z</time></trkpt><trkpt lat="45.605148297967226" lon="9.945800616395923"><ele>204.0</ele><time>2026-03-28T18:20:00Z</time></trkpt><trkpt lat="45.604991928988625" lon="9.946074050430651"><ele>204.0</ele><time>2026-03-28T18:20:01Z</time></trkpt><trkpt lat="45.604826684388314" lon="9.946349799820084"><ele>204.0</ele><time>2026-03-28T18:20:02Z</time></trkpt><trkpt lat="45.60468217623776" lon="9.946613843028096"><ele>205.0</ele><time>2026-03-28T18:20:03Z</time></trkpt><trkpt lat="45.604536488014986" lon="9.946890525699358"><ele>206.0</ele><time>2026-03-28T18:20:04Z</time></trkpt><trkpt lat="45.604377162242905" lon="9.947154095331273"><ele>207.0</ele><time>2026-03-28T18:20:05Z</time></trkpt><trkpt lat="45.60422709458772" lon="9.947424001548148"><ele>208.0</ele><time>2026-03-28T18:20:06Z</time></trkpt><trkpt lat="45.60407433976931" lon="9.947684885610288"><ele>209.0</ele><time>2026-03-28T18:20:07Z</time></trkpt><trkpt lat="45.60392551472899" lon="9.947950393765245"><ele>210.0</ele><time>2026-03-28T18:20:08Z</time></trkpt><trkpt lat="45.603778044878574" lon="9.948220415834953"><ele>211.5</ele><time>2026-03-28T18:20:09Z</time></trkpt><trkpt lat="45.60361779343156" lon="9.948485780467038"><ele>213.0</ele><time>2026-03-28T18:20:10Z</time></trkpt><trkpt lat="45.60346553476424" lon="9.948756648236174"><ele>213.0</ele><time>2026-03-28T18:20:11Z</time></trkpt><trkpt lat="45.60331017737639" lon="9.949026118615317"><ele>213.0</ele><time>2026-03-28T18:20:12Z</time></trkpt><trkpt lat="45.603153740503686" lon="9.949289867173974"><ele>213.0</ele><time>2026-03-28T18:20:13Z</time></trkpt><trkpt lat="45.60300254367989" lon="9.949566068062849"><ele>213.0</ele><time>2026-03-28T18:20:14Z</time></trkpt><trkpt lat="45.60284366854019" lon="9.949834847493227"><ele>212.0</ele><time>2026-03-28T18:20:15Z</time></trkpt><trkpt lat="45.602685370229096" lon="9.950105756073324"><ele>211.0</ele><time>2026-03-28T18:20:16Z</time></trkpt><trkpt lat="45.60253044266054" lon="9.950379735140295"><ele>211.0</ele><time>2026-03-28T18:20:17Z</time></trkpt><trkpt lat="45.602373544122415" lon="9.950648672466983"><ele>211.0</ele><time>2026-03-28T18:20:18Z</time></trkpt><trkpt lat="45.60221665390605" lon="9.950922330698312"><ele>211.0</ele><time>2026-03-28T18:20:19Z</time></trkpt><trkpt lat="45.60205762589752" lon="9.951193417249714"><ele>211.0</ele><time>2026-03-28T18:20:20Z</time></trkpt><trkpt lat="45.601905635374244" lon="9.951456320820485"><ele>210.0</ele><time>2026-03-28T18:20:21Z</time></trkpt><trkpt lat="45.60175025080389" lon="9.951732457462704"><ele>209.0</ele><time>2026-03-28T18:20:22Z</time></trkpt><trkpt lat="45.601597567530376" lon="9.952006350646496"><ele>209.0</ele><time>2026-03-28T18:20:23Z</time></trkpt><trkpt lat="45.60143983171796" lon="9.952271834283769"><ele>209.0</ele><time>2026-03-28T18:20:24Z</time></trkpt><trkpt lat="45.60128536029674" lon="9.952542729242401"><ele>207.5</ele><time>2026-03-28T18:20:25Z</time></trkpt><trkpt lat="45.60113464769748" lon="9.952807504001802"><ele>206.0</ele><time>2026-03-28T18:20:26Z</time></trkpt><trkpt lat="45.60097865022486" lon="9.953077737897239"><ele>206.0</ele><time>2026-03-28T18:20:27Z</time></trkpt><trkpt lat="45.60082754590127" lon="9.953349993189814"><ele>206.0</ele><time>2026-03-28T18:20:28Z</time></trkpt><trkpt lat="45.60067797458952" lon="9.953619281813355"><ele>207.0</ele><time>2026-03-28T18:20:29Z</time></trkpt><trkpt lat="45.600520549231696" lon="9.95388705503845"><ele>208.0</ele><time>2026-03-28T18:20:30Z</time></trkpt><trkpt lat="45.60036361823075" lon="9.954153430784004"><ele>209.0</ele><time>2026-03-28T18:20:31Z</time></trkpt><trkpt lat="45.600208779409876" lon="9.954418217225607"><ele>210.0</ele><time>2026-03-28T18:20:32Z</time></trkpt><trkpt lat="45.600056360963656" lon="9.95468891337333"><ele>210.0</ele><time>2026-03-28T18:20:33Z</time></trkpt><trkpt lat="45.59990250687583" lon="9.954953923309446"><ele>210.0</ele><time>2026-03-28T18:20:34Z</time></trkpt><trkpt lat="45.59974504580048" lon="9.955218220965378"><ele>209.5</ele><time>2026-03-28T18:20:35Z</time></trkpt><trkpt lat="45.59958999755743" lon="9.955481538884946"><ele>209.0</ele><time>2026-03-28T18:20:36Z</time></trkpt><trkpt lat="45.59943637058839" lon="9.955753255798674"><ele>208.5</ele><time>2026-03-28T18:20:37Z</time></trkpt><trkpt lat="45.59928278180993" lon="9.95602366660987"><ele>208.0</ele><time>2026-03-28T18:20:38Z</time></trkpt><trkpt lat="45.599131887615464" lon="9.956292220639126"><ele>208.0</ele><time>2026-03-28T18:20:39Z</time></trkpt><trkpt lat="45.598976768498886" lon="9.956556459385773"><ele>208.0</ele><time>2026-03-28T18:20:40Z</time></trkpt><trkpt lat="45.598827598794855" lon="9.956828162587176"><ele>208.5</ele><time>2026-03-28T18:20:41Z</time></trkpt><trkpt lat="45.59866639054222" lon="9.957095420442796"><ele>209.0</ele><time>2026-03-28T18:20:42Z</time></trkpt><trkpt lat="45.598508361312355" lon="9.95736830327027"><ele>210.0</ele><time>2026-03-28T18:20:43Z</time></trkpt><trkpt lat="45.59835979275819" lon="9.957635454362682"><ele>211.0</ele><time>2026-03-28T18:20:44Z</time></trkpt><trkpt lat="45.59820636837356" lon="9.957898983103759"><ele>211.0</ele><time>2026-03-28T18:20:45Z</time></trkpt><trkpt lat="45.598056775682736" lon="9.958164359863888"><ele>211.0</ele><time>2026-03-28T18:20:46Z</time></trkpt><trkpt lat="45.5979039230615" lon="9.95842663423857"><ele>210.5</ele><time>2026-03-28T18:20:47Z</time></trkpt><trkpt lat="45.59775045470735" lon="9.958691548717773"><ele>210.0</ele><time>2026-03-28T18:20:48Z</time></trkpt><trkpt lat="45.59759706181591" lon="9.958954843933158"><ele>211.0</ele><time>2026-03-28T18:20:49Z</time></trkpt><trkpt lat="45.5974423933656" lon="9.959214633830552"><ele>212.0</ele><time>2026-03-28T18:20:50Z</time></trkpt><trkpt lat="45.59729016333863" lon="9.95947653568963"><ele>212.0</ele><time>2026-03-28T18:20:51Z</time></trkpt><trkpt lat="45.59714304469934" lon="9.959739915063645"><ele>212.0</ele><time>2026-03-28T18:20:52Z</time></trkpt><trkpt lat="45.597000643945954" lon="9.960000999401935"><ele>212.0</ele><time>2026-03-28T18:20:53Z</time></trkpt><trkpt lat="45.59684285782066" lon="9.960273350343902"><ele>212.0</ele><time>2026-03-28T18:20:54Z</time></trkpt><trkpt lat="45.59669004277094" lon="9.960543569906292"><ele>212.0</ele><time>2026-03-28T18:20:55Z</time></trkpt><trkpt lat="45.59653539224894" lon="9.960806680646035"><ele>212.0</ele><time>2026-03-28T18:20:56Z</time></trkpt><trkpt lat="45.59638432704243" lon="9.961070642695391"><ele>212.5</ele><time>2026-03-28T18:20:57Z</time></trkpt><trkpt lat="45.59623080615205" lon="9.961342392743703"><ele>213.0</ele><time>2026-03-28T18:20:58Z</time></trkpt><trkpt lat="45.596076600163215" lon="9.961608546816205"><ele>212.5</ele><time>2026-03-28T18:20:59Z</time></trkpt><trkpt lat="45.59592381645613" lon="9.961882117753875"><ele>212.0</ele><time>2026-03-28T18:21:00Z</time></trkpt><trkpt lat="45.59576790144302" lon="9.962146778568165"><ele>212.0</ele><time>2026-03-28T18:21:01Z</time></trkpt><trkpt lat="45.595613977013635" lon="9.962415841990603"><ele>212.0</ele><time>2026-03-28T18:21:02Z</time></trkpt><trkpt lat="45.595460242689065" lon="9.962686127029794"><ele>212.5</ele><time>2026-03-28T18:21:03Z</time></trkpt><trkpt lat="45.5953041148433" lon="9.962951113128241"><ele>213.0</ele><time>2026-03-28T18:21:04Z</time></trkpt><trkpt lat="45.59515321000389" lon="9.963218391913474"><ele>214.0</ele><time>2026-03-28T18:21:05Z</time></trkpt><trkpt lat="45.595000532444" lon="9.96348316107589"><ele>215.0</ele><time>2026-03-28T18:21:06Z</time></trkpt><trkpt lat="45.59484752985916" lon="9.9637441603195"><ele>215.0</ele><time>2026-03-28T18:21:07Z</time></trkpt><trkpt lat="45.59469494075019" lon="9.964012684499428"><ele>215.0</ele><time>2026-03-28T18:21:08Z</time></trkpt><trkpt lat="45.594540863911526" lon="9.964271640789889"><ele>215.0</ele><time>2026-03-28T18:21:09Z</time></trkpt><trkpt lat="45.59438731101082" lon="9.964535863251209"><ele>215.0</ele><time>2026-03-28T18:21:10Z</time></trkpt><trkpt lat="45.59423683217754" lon="9.964797519625334"><ele>215.0</ele><time>2026-03-28T18:21:11Z</time></trkpt><trkpt lat="45.59409005653245" lon="9.965054825166897"><ele>215.0</ele><time>2026-03-28T18:21:12Z</time></trkpt><trkpt lat="45.593939597187045" lon="9.965316518831882"><ele>215.0</ele><time>2026-03-28T18:21:13Z</time></trkpt><trkpt lat="45.59380480380363" lon="9.965533382565948"><ele>215.0</ele><time>2026-03-28T18:21:14Z</time></trkpt><trkpt lat="45.593649975957135" lon="9.965817406430265"><ele>214.5</ele><time>2026-03-28T18:21:15Z</time></trkpt><trkpt lat="45.593498295107665" lon="9.966081433952152"><ele>214.0</ele><time>2026-03-28T18:21:16Z</time></trkpt><trkpt lat="45.59333658854958" lon="9.966375635847191"><ele>214.0</ele><time>2026-03-28T18:21:17Z</time></trkpt><trkpt lat="45.59319573312866" lon="9.966622881122994"><ele>214.0</ele><time>2026-03-28T18:21:18Z</time></trkpt><trkpt lat="45.5930482279942" lon="9.966881664638816"><ele>213.5</ele><time>2026-03-28T18:21:19Z</time></trkpt><trkpt lat="45.59290134803422" lon="9.96713479965958"><ele>213.0</ele><time>2026-03-28T18:21:20Z</time></trkpt><trkpt lat="45.59275091431397" lon="9.967397144869123"><ele>212.5</ele><time>2026-03-28T18:21:21Z</time></trkpt><trkpt lat="45.59260104060475" lon="9.967658031465058"><ele>212.0</ele><time>2026-03-28T18:21:22Z</time></trkpt><trkpt lat="45.59244701148978" lon="9.967917019413168"><ele>212.0</ele><time>2026-03-28T18:21:23Z</time></trkpt><trkpt lat="45.59229996258405" lon="9.968180257566363"><ele>212.0</ele><time>2026-03-28T18:21:24Z</time></trkpt><trkpt lat="45.59214756813184" lon="9.96844501796252"><ele>212.0</ele><time>2026-03-28T18:21:25Z</time></trkpt><trkpt lat="45.591988828604144" lon="9.968713800564133"><ele>212.0</ele><time>2026-03-28T18:21:26Z</time></trkpt><trkpt lat="45.59183169984571" lon="9.968981787219448"><ele>212.0</ele><time>2026-03-28T18:21:27Z</time></trkpt><trkpt lat="45.591676668963515" lon="9.969252947354128"><ele>212.0</ele><time>2026-03-28T18:21:28Z</time></trkpt><trkpt lat="45.59151824068775" lon="9.969525850587617"><ele>212.0</ele><time>2026-03-28T18:21:29Z</time></trkpt><trkpt lat="45.59135932503592" lon="9.969794738988119"><ele>212.0</ele><time>2026-03-28T18:21:30Z</time></trkpt><trkpt lat="45.59119919587093" lon="9.970066659713597"><ele>211.5</ele><time>2026-03-28T18:21:31Z</time></trkpt><trkpt lat="45.59104330098409" lon="9.970341350881563"><ele>211.0</ele><time>2026-03-28T18:21:32Z</time></trkpt><trkpt lat="45.59088539263375" lon="9.970614170251627"><ele>211.5</ele><time>2026-03-28T18:21:33Z</time></trkpt><trkpt lat="45.59073091290935" lon="9.97088488481134"><ele>212.0</ele><time>2026-03-28T18:21:34Z</time></trkpt><trkpt lat="45.59057041188392" lon="9.971156116399092"><ele>212.0</ele><time>2026-03-28T18:21:35Z</time></trkpt><trkpt lat="45.59041430376924" lon="9.971430701728563"><ele>212.0</ele><time>2026-03-28T18:21:36Z</time></trkpt><trkpt lat="45.590257642160864" lon="9.971702180787833"><ele>212.5</ele><time>2026-03-28T18:21:37Z</time></trkpt><trkpt lat="45.59010337110801" lon="9.971970039336503"><ele>213.0</ele><time>2026-03-28T18:21:38Z</time></trkpt><trkpt lat="45.58995375913195" lon="9.972239384419646"><ele>213.0</ele><time>2026-03-28T18:21:39Z</time></trkpt><trkpt lat="45.58979907762996" lon="9.972508230516056"><ele>213.0</ele><time>2026-03-28T18:21:40Z</time></trkpt><trkpt lat="45.58964018249655" lon="9.97277517979495"><ele>211.5</ele><time>2026-03-28T18:21:41Z</time></trkpt><trkpt lat="45.5894853325894" lon="9.973039722799571"><ele>210.0</ele><time>2026-03-28T18:21:42.001Z</time></trkpt><trkpt lat="45.589329633280144" lon="9.97330622197047"><ele>210.0</ele><time>2026-03-28T18:21:43.001Z</time></trkpt><trkpt lat="45.58917208844884" lon="9.973576860881394"><ele>210.0</ele><time>2026-03-28T18:21:44Z</time></trkpt><trkpt lat="45.589015843355455" lon="9.973846212643114"><ele>210.0</ele><time>2026-03-28T18:21:45Z</time></trkpt><trkpt lat="45.588858238621846" lon="9.974117660081326"><ele>210.0</ele><time>2026-03-28T18:21:46Z</time></trkpt><trkpt lat="45.58870070246923" lon="9.974386782135577"><ele>210.5</ele><time>2026-03-28T18:21:47Z</time></trkpt><trkpt lat="45.588536195722945" lon="9.974664314109594"><ele>211.0</ele><time>2026-03-28T18:21:48Z</time></trkpt><trkpt lat="45.5883750866477" lon="9.97494398564272"><ele>210.5</ele><time>2026-03-28T18:21:49Z</time></trkpt><trkpt lat="45.58821243672488" lon="9.975224373906142"><ele>210.0</ele><time>2026-03-28T18:21:50Z</time></trkpt><trkpt lat="45.588057589393124" lon="9.975505150051868"><ele>210.0</ele><time>2026-03-28T18:21:51Z</time></trkpt><trkpt lat="45.58789537577849" lon="9.975788499929722"><ele>210.0</ele><time>2026-03-28T18:21:52Z</time></trkpt><trkpt lat="45.58772725414274" lon="9.9760649148483"><ele>208.5</ele><time>2026-03-28T18:21:53Z</time></trkpt><trkpt lat="45.58756469444211" lon="9.976357700653098"><ele>207.0</ele><time>2026-03-28T18:21:54Z</time></trkpt><trkpt lat="45.587403811144625" lon="9.976640056187229"><ele>207.0</ele><time>2026-03-28T18:21:55Z</time></trkpt><trkpt lat="45.58724105464101" lon="9.976920580533491"><ele>207.0</ele><time>2026-03-28T18:21:56Z</time></trkpt><trkpt lat="45.587075025105555" lon="9.977204269568377"><ele>207.5</ele><time>2026-03-28T18:21:57Z</time></trkpt><trkpt lat="45.58690962633102" lon="9.977494531261764"><ele>208.0</ele><time>2026-03-28T18:21:58Z</time></trkpt><trkpt lat="45.58674738225075" lon="9.977773763814069"><ele>208.0</ele><time>2026-03-28T18:21:59Z</time></trkpt><trkpt lat="45.58658668706628" lon="9.978052399600818"><ele>208.0</ele><time>2026-03-28T18:22:00Z</time></trkpt><trkpt lat="45.58642011521476" lon="9.978335643266123"><ele>207.5</ele><time>2026-03-28T18:22:01Z</time></trkpt><trkpt lat="45.58625639857578" lon="9.978615909972428"><ele>207.0</ele><time>2026-03-28T18:22:02Z</time></trkpt><trkpt lat="45.58609831184036" lon="9.978897674019729"><ele>206.5</ele><time>2026-03-28T18:22:03Z</time></trkpt><trkpt lat="45.58593907666863" lon="9.979181010792535"><ele>206.0</ele><time>2026-03-28T18:22:04Z</time></trkpt><trkpt lat="45.58576195578596" lon="9.979476716628325"><ele>206.0</ele><time>2026-03-28T18:22:05Z</time></trkpt><trkpt lat="45.58560659386683" lon="9.979745608803492"><ele>206.0</ele><time>2026-03-28T18:22:06Z</time></trkpt><trkpt lat="45.58544104236386" lon="9.980028208872483"><ele>204.0</ele><time>2026-03-28T18:22:07Z</time></trkpt><trkpt lat="45.58527838307279" lon="9.980312063029398"><ele>202.0</ele><time>2026-03-28T18:22:08Z</time></trkpt><trkpt lat="45.58511194572454" lon="9.980599931379201"><ele>202.5</ele><time>2026-03-28T18:22:09Z</time></trkpt><trkpt lat="45.584945691355166" lon="9.980888223158912"><ele>203.0</ele><time>2026-03-28T18:22:10Z</time></trkpt><trkpt lat="45.58478318731077" lon="9.981174419406345"><ele>203.0</ele><time>2026-03-28T18:22:11Z</time></trkpt><trkpt lat="45.584620950308874" lon="9.981463847717423"><ele>203.0</ele><time>2026-03-28T18:22:12Z</time></trkpt><trkpt lat="45.58445620653374" lon="9.981745488951494"><ele>202.5</ele><time>2026-03-28T18:22:13Z</time></trkpt><trkpt lat="45.58429487951591" lon="9.982024753232947"><ele>202.0</ele><time>2026-03-28T18:22:14Z</time></trkpt><trkpt lat="45.58412959502314" lon="9.98230763951451"><ele>202.5</ele><time>2026-03-28T18:22:15Z</time></trkpt><trkpt lat="45.583965053360686" lon="9.982585884780823"><ele>203.0</ele><time>2026-03-28T18:22:16Z</time></trkpt><trkpt lat="45.5838008962036" lon="9.982864454551178"><ele>202.0</ele><time>2026-03-28T18:22:17Z</time></trkpt><trkpt lat="45.583638851142844" lon="9.983142051465274"><ele>201.0</ele><time>2026-03-28T18:22:18Z</time></trkpt><trkpt lat="45.58347957987622" lon="9.983421222495986"><ele>201.0</ele><time>2026-03-28T18:22:19Z</time></trkpt><trkpt lat="45.58331906442255" lon="9.983697046950146"><ele>201.0</ele><time>2026-03-28T18:22:20Z</time></trkpt><trkpt lat="45.58315883477264" lon="9.983983816084114"><ele>201.0</ele><time>2026-03-28T18:22:21Z</time></trkpt><trkpt lat="45.58299587847748" lon="9.98426514899995"><ele>201.0</ele><time>2026-03-28T18:22:22Z</time></trkpt><trkpt lat="45.582838857202375" lon="9.984551676217562"><ele>201.0</ele><time>2026-03-28T18:22:23Z</time></trkpt><trkpt lat="45.582676225380006" lon="9.984846417505967"><ele>201.0</ele><time>2026-03-28T18:22:24Z</time></trkpt><trkpt lat="45.582520973182646" lon="9.985131794796553"><ele>201.0</ele><time>2026-03-28T18:22:25Z</time></trkpt><trkpt lat="45.58237039143338" lon="9.985431612208243"><ele>201.0</ele><time>2026-03-28T18:22:26Z</time></trkpt><trkpt lat="45.582213342395555" lon="9.985719329830676"><ele>200.0</ele><time>2026-03-28T18:22:27Z</time></trkpt><trkpt lat="45.58206102833317" lon="9.9860267429497"><ele>199.0</ele><time>2026-03-28T18:22:28Z</time></trkpt><trkpt lat="45.58192773381969" lon="9.986355178276572"><ele>199.0</ele><time>2026-03-28T18:22:29Z</time></trkpt><trkpt lat="45.58177538708542" lon="9.986662636912198"><ele>199.0</ele><time>2026-03-28T18:22:30Z</time></trkpt><trkpt lat="45.58161580513802" lon="9.986953006918442"><ele>201.5</ele><time>2026-03-28T18:22:31Z</time></trkpt><trkpt lat="45.58148029862238" lon="9.987283641685746"><ele>204.0</ele><time>2026-03-28T18:22:32Z</time></trkpt><trkpt lat="45.58134124166442" lon="9.987603375120456"><ele>204.0</ele><time>2026-03-28T18:22:33Z</time></trkpt><trkpt lat="45.58120873300131" lon="9.987922902501186"><ele>204.0</ele><time>2026-03-28T18:22:34Z</time></trkpt><trkpt lat="45.58107647821315" lon="9.988256289347511"><ele>204.0</ele><time>2026-03-28T18:22:35Z</time></trkpt><trkpt lat="45.580952725881474" lon="9.988586562951058"><ele>204.0</ele><time>2026-03-28T18:22:36Z</time></trkpt><trkpt lat="45.580833096349" lon="9.988918859327416"><ele>202.5</ele><time>2026-03-28T18:22:37Z</time></trkpt><trkpt lat="45.5807156573337" lon="9.98924882295211"><ele>201.0</ele><time>2026-03-28T18:22:38Z</time></trkpt><trkpt lat="45.580603722561285" lon="9.989582904365472"><ele>201.0</ele><time>2026-03-28T18:22:39Z</time></trkpt><trkpt lat="45.58049641568687" lon="9.98991207093225"><ele>201.0</ele><time>2026-03-28T18:22:40Z</time></trkpt><trkpt lat="45.58039162710923" lon="9.99024511012094"><ele>202.0</ele><time>2026-03-28T18:22:41Z</time></trkpt><trkpt lat="45.580286197246735" lon="9.990584118597104"><ele>203.0</ele><time>2026-03-28T18:22:42Z</time></trkpt><trkpt lat="45.58017884188229" lon="9.99092532104962"><ele>201.0</ele><time>2026-03-28T18:22:43Z</time></trkpt><trkpt lat="45.58007659994352" lon="9.991270944817769"><ele>199.0</ele><time>2026-03-28T18:22:44Z</time></trkpt><trkpt lat="45.57996355059605" lon="9.99154068914512"><ele>198.5</ele><time>2026-03-28T18:22:45Z</time></trkpt><trkpt lat="45.579874315934546" lon="9.991938619519336"><ele>198.0</ele><time>2026-03-28T18:22:46Z</time></trkpt><trkpt lat="45.57978552818636" lon="9.992298423576864"><ele>198.0</ele><time>2026-03-28T18:22:47Z</time></trkpt><trkpt lat="45.579702788376295" lon="9.992666833941378"><ele>198.0</ele><time>2026-03-28T18:22:48Z</time></trkpt><trkpt lat="45.57961950850692" lon="9.993032080068254"><ele>196.5</ele><time>2026-03-28T18:22:49Z</time></trkpt><trkpt lat="45.57954051215535" lon="9.993402080443637"><ele>195.0</ele><time>2026-03-28T18:22:50Z</time></trkpt><trkpt lat="45.57946831279329" lon="9.993767973336494"><ele>195.0</ele><time>2026-03-28T18:22:51Z</time></trkpt><trkpt lat="45.57939629547902" lon="9.99413399239884"><ele>195.0</ele><time>2026-03-28T18:22:52Z</time></trkpt><trkpt lat="45.579330124898235" lon="9.994501020140682"><ele>195.0</ele><time>2026-03-28T18:22:53Z</time></trkpt><trkpt lat="45.579267211173864" lon="9.99487399281099"><ele>195.0</ele><time>2026-03-28T18:22:54Z</time></trkpt><trkpt lat="45.579200813138996" lon="9.995243326309955"><ele>195.0</ele><time>2026-03-28T18:22:55Z</time></trkpt><trkpt lat="45.579133011209926" lon="9.995608469449843"><ele>195.0</ele><time>2026-03-28T18:22:56Z</time></trkpt><trkpt lat="45.57906560307" lon="9.995971351679971"><ele>194.5</ele><time>2026-03-28T18:22:57Z</time></trkpt><trkpt lat="45.5790013261946" lon="9.996339915033154"><ele>194.0</ele><time>2026-03-28T18:22:58Z</time></trkpt><trkpt lat="45.57892912090117" lon="9.99669514256929"><ele>194.0</ele><time>2026-03-28T18:22:59Z</time></trkpt><trkpt lat="45.578863863355046" lon="9.99705347147102"><ele>194.0</ele><time>2026-03-28T18:23:00Z</time></trkpt><trkpt lat="45.57879790877678" lon="9.997411955243452"><ele>193.5</ele><time>2026-03-28T18:23:01Z</time></trkpt><trkpt lat="45.57873174756355" lon="9.997760352483821"><ele>193.0</ele><time>2026-03-28T18:23:02Z</time></trkpt><trkpt lat="45.57866332659423" lon="9.998115062168305"><ele>191.5</ele><time>2026-03-28T18:23:03Z</time></trkpt><trkpt lat="45.578602165163076" lon="9.998462393676162"><ele>190.0</ele><time>2026-03-28T18:23:04Z</time></trkpt><trkpt lat="45.578541114897334" lon="9.998806475551875"><ele>190.0</ele><time>2026-03-28T18:23:05Z</time></trkpt><trkpt lat="45.57848123282975" lon="9.99915556124443"><ele>190.0</ele><time>2026-03-28T18:23:06Z</time></trkpt><trkpt lat="45.57842016333414" lon="9.999496046677894"><ele>190.0</ele><time>2026-03-28T18:23:07Z</time></trkpt><trkpt lat="45.57835626150917" lon="9.999841007938771"><ele>190.0</ele><time>2026-03-28T18:23:08Z</time></trkpt><trkpt lat="45.57829326138319" lon="10.000182330241179"><ele>190.0</ele><time>2026-03-28T18:23:09Z</time></trkpt><trkpt lat="45.5782313503379" lon="10.000521145593677"><ele>190.0</ele><time>2026-03-28T18:23:10Z</time></trkpt><trkpt lat="45.578170732095415" lon="10.000852225749952"><ele>189.5</ele><time>2026-03-28T18:23:11Z</time></trkpt><trkpt lat="45.578107911226" lon="10.001191414738557"><ele>189.0</ele><time>2026-03-28T18:23:12Z</time></trkpt><trkpt lat="45.57804572598823" lon="10.001527006186238"><ele>189.0</ele><time>2026-03-28T18:23:13Z</time></trkpt><trkpt lat="45.577983491281564" lon="10.00186298865714"><ele>189.0</ele><time>2026-03-28T18:23:14Z</time></trkpt><trkpt lat="45.577922045207316" lon="10.002209121945251"><ele>188.5</ele><time>2026-03-28T18:23:15Z</time></trkpt><trkpt lat="45.5778616251076" lon="10.002548945637894"><ele>188.0</ele><time>2026-03-28T18:23:16Z</time></trkpt><trkpt lat="45.577799993053574" lon="10.002888980325263"><ele>187.0</ele><time>2026-03-28T18:23:17Z</time></trkpt><trkpt lat="45.57774205554565" lon="10.003227715304664"><ele>186.0</ele><time>2026-03-28T18:23:18Z</time></trkpt><trkpt lat="45.57768012169959" lon="10.003570012996981"><ele>186.0</ele><time>2026-03-28T18:23:19Z</time></trkpt><trkpt lat="45.57761239781371" lon="10.003914637741863"><ele>186.0</ele><time>2026-03-28T18:23:20Z</time></trkpt><trkpt lat="45.57753916851703" lon="10.004261561990816"><ele>186.5</ele><time>2026-03-28T18:23:21Z</time></trkpt><trkpt lat="45.57747723375713" lon="10.004613422684049"><ele>187.0</ele><time>2026-03-28T18:23:22Z</time></trkpt><trkpt lat="45.577409344484806" lon="10.004963145790901"><ele>186.0</ele><time>2026-03-28T18:23:23Z</time></trkpt><trkpt lat="45.577347786416084" lon="10.005310865540393"><ele>185.0</ele><time>2026-03-28T18:23:24Z</time></trkpt><trkpt lat="45.57728435487902" lon="10.005657365430768"><ele>184.5</ele><time>2026-03-28T18:23:25Z</time></trkpt><trkpt lat="45.57722238786723" lon="10.00600265362342"><ele>184.0</ele><time>2026-03-28T18:23:26Z</time></trkpt><trkpt lat="45.57716256577617" lon="10.006328455413948"><ele>184.0</ele><time>2026-03-28T18:23:27Z</time></trkpt><trkpt lat="45.577103301269204" lon="10.006646385234017"><ele>184.0</ele><time>2026-03-28T18:23:28Z</time></trkpt><trkpt lat="45.57704486552287" lon="10.006973537840983"><ele>183.0</ele><time>2026-03-28T18:23:29Z</time></trkpt><trkpt lat="45.57698761107542" lon="10.007290318320628"><ele>182.0</ele><time>2026-03-28T18:23:30Z</time></trkpt><trkpt lat="45.57692859495581" lon="10.007623687009625"><ele>181.5</ele><time>2026-03-28T18:23:31Z</time></trkpt><trkpt lat="45.57686367060684" lon="10.007974125227014"><ele>181.0</ele><time>2026-03-28T18:23:32Z</time></trkpt><trkpt lat="45.57679865755957" lon="10.008338471828099"><ele>182.0</ele><time>2026-03-28T18:23:33Z</time></trkpt><trkpt lat="45.57673573372705" lon="10.008669378095291"><ele>183.0</ele><time>2026-03-28T18:23:34Z</time></trkpt><trkpt lat="45.576650670910944" lon="10.008974009799797"><ele>183.5</ele><time>2026-03-28T18:23:35Z</time></trkpt><trkpt lat="45.57661084414583" lon="10.009330056335557"><ele>184.0</ele><time>2026-03-28T18:23:36Z</time></trkpt><trkpt lat="45.576570215109946" lon="10.009711724772608"><ele>184.5</ele><time>2026-03-28T18:23:37Z</time></trkpt><trkpt lat="45.5765057637445" lon="10.01011877000937"><ele>185.0</ele><time>2026-03-28T18:23:38Z</time></trkpt><trkpt lat="45.57641314661188" lon="10.01055688693609"><ele>184.0</ele><time>2026-03-28T18:23:38.999Z</time></trkpt><trkpt lat="45.57634185468443" lon="10.010988780123688"><ele>183.0</ele><time>2026-03-28T18:23:39.999Z</time></trkpt><trkpt lat="45.57625214316299" lon="10.01143481791568"><ele>182.0</ele><time>2026-03-28T18:23:40.999Z</time></trkpt><trkpt lat="45.57615290565279" lon="10.011892816830414"><ele>181.0</ele><time>2026-03-28T18:23:41.999Z</time></trkpt><trkpt lat="45.57604967560556" lon="10.01236079151702"><ele>180.5</ele><time>2026-03-28T18:23:42.999Z</time></trkpt><trkpt lat="45.575952225681704" lon="10.01282744006497"><ele>180.0</ele><time>2026-03-28T18:23:43.999Z</time></trkpt><trkpt lat="45.57587823257905" lon="10.013252256957616"><ele>179.5</ele><time>2026-03-28T18:23:44.999Z</time></trkpt><trkpt lat="45.57580490330373" lon="10.013635116078284"><ele>179.0</ele><time>2026-03-28T18:23:45.999Z</time></trkpt><trkpt lat="45.57573918565432" lon="10.013992120778695"><ele>179.5</ele><time>2026-03-28T18:23:46.999Z</time></trkpt><trkpt lat="45.5756785734331" lon="10.014330423380073"><ele>180.0</ele><time>2026-03-28T18:23:48Z</time></trkpt><trkpt lat="45.57561523786212" lon="10.014666419936743"><ele>180.5</ele><time>2026-03-28T18:23:49Z</time></trkpt><trkpt lat="45.57555351643592" lon="10.015003698818523"><ele>181.0</ele><time>2026-03-28T18:23:50Z</time></trkpt><trkpt lat="45.57548900401431" lon="10.015341298521832"><ele>181.0</ele><time>2026-03-28T18:23:51Z</time></trkpt><trkpt lat="45.57542286105067" lon="10.01569203919784"><ele>181.0</ele><time>2026-03-28T18:23:52Z</time></trkpt><trkpt lat="45.57536495032559" lon="10.016030647219345"><ele>181.5</ele><time>2026-03-28T18:23:53Z</time></trkpt><trkpt lat="45.57529581511557" lon="10.016378201823747"><ele>182.0</ele><time>2026-03-28T18:23:54Z</time></trkpt><trkpt lat="45.57522099934882" lon="10.016729998454117"><ele>181.0</ele><time>2026-03-28T18:23:55Z</time></trkpt><trkpt lat="45.575147386600214" lon="10.01707989082167"><ele>180.0</ele><time>2026-03-28T18:23:56Z</time></trkpt><trkpt lat="45.575075287404076" lon="10.017421587276024"><ele>179.5</ele><time>2026-03-28T18:23:57Z</time></trkpt><trkpt lat="45.57500309337603" lon="10.017764044148388"><ele>179.0</ele><time>2026-03-28T18:23:58Z</time></trkpt><trkpt lat="45.57493071857252" lon="10.018099478463416"><ele>179.0</ele><time>2026-03-28T18:23:59Z</time></trkpt><trkpt lat="45.574858626005195" lon="10.018427023353233"><ele>179.0</ele><time>2026-03-28T18:24:00Z</time></trkpt><trkpt lat="45.574785106222194" lon="10.018749523217647"><ele>179.0</ele><time>2026-03-28T18:24:01Z</time></trkpt><trkpt lat="45.57472217022781" lon="10.019068161238224"><ele>179.0</ele><time>2026-03-28T18:24:02Z</time></trkpt><trkpt lat="45.574654301902164" lon="10.019387076376594"><ele>179.0</ele><time>2026-03-28T18:24:03Z</time></trkpt><trkpt lat="45.57458499189921" lon="10.019711529953575"><ele>179.0</ele><time>2026-03-28T18:24:04Z</time></trkpt><trkpt lat="45.57451358798445" lon="10.020031641197814"><ele>178.0</ele><time>2026-03-28T18:24:05Z</time></trkpt><trkpt lat="45.574451504542445" lon="10.02035054436176"><ele>177.0</ele><time>2026-03-28T18:24:06Z</time></trkpt><trkpt lat="45.57438736456025" lon="10.02066976757703"><ele>178.0</ele><time>2026-03-28T18:24:07Z</time></trkpt><trkpt lat="45.57432480203104" lon="10.020987206070947"><ele>179.0</ele><time>2026-03-28T18:24:08Z</time></trkpt><trkpt lat="45.57426199364321" lon="10.02130172650805"><ele>179.0</ele><time>2026-03-28T18:24:09Z</time></trkpt><trkpt lat="45.57420210604126" lon="10.021619543824025"><ele>179.0</ele><time>2026-03-28T18:24:10Z</time></trkpt><trkpt lat="45.57414204092426" lon="10.02193344346628"><ele>178.5</ele><time>2026-03-28T18:24:11Z</time></trkpt><trkpt lat="45.574081998654904" lon="10.022251857859258"><ele>178.0</ele><time>2026-03-28T18:24:12Z</time></trkpt><trkpt lat="45.57402413013819" lon="10.02256890435707"><ele>178.0</ele><time>2026-03-28T18:24:13Z</time></trkpt><trkpt lat="45.573971639953484" lon="10.022887047147142"><ele>178.0</ele><time>2026-03-28T18:24:14Z</time></trkpt><trkpt lat="45.57391514149274" lon="10.023204338486048"><ele>178.5</ele><time>2026-03-28T18:24:15Z</time></trkpt><trkpt lat="45.57385171044267" lon="10.023523592934167"><ele>179.0</ele><time>2026-03-28T18:24:16Z</time></trkpt><trkpt lat="45.573790728468104" lon="10.023853207209905"><ele>179.0</ele><time>2026-03-28T18:24:17Z</time></trkpt><trkpt lat="45.573728406301996" lon="10.024185323362719"><ele>179.0</ele><time>2026-03-28T18:24:18Z</time></trkpt><trkpt lat="45.57366288440974" lon="10.024526788714795"><ele>179.0</ele><time>2026-03-28T18:24:19Z</time></trkpt><trkpt lat="45.57359805102237" lon="10.024875369437051"><ele>179.0</ele><time>2026-03-28T18:24:20Z</time></trkpt><trkpt lat="45.5735367776646" lon="10.025220771357406"><ele>179.0</ele><time>2026-03-28T18:24:21Z</time></trkpt><trkpt lat="45.57347750178177" lon="10.025568689680524"><ele>179.0</ele><time>2026-03-28T18:24:22Z</time></trkpt><trkpt lat="45.57341383097738" lon="10.025919028163193"><ele>178.5</ele><time>2026-03-28T18:24:23Z</time></trkpt><trkpt lat="45.573350072256886" lon="10.026267119212045"><ele>178.0</ele><time>2026-03-28T18:24:24Z</time></trkpt><trkpt lat="45.57328425360894" lon="10.026615540236952"><ele>178.0</ele><time>2026-03-28T18:24:25Z</time></trkpt><trkpt lat="45.57322162907484" lon="10.026959570348495"><ele>178.0</ele><time>2026-03-28T18:24:26Z</time></trkpt><trkpt lat="45.5731604913523" lon="10.0273001123699"><ele>177.5</ele><time>2026-03-28T18:24:27Z</time></trkpt><trkpt lat="45.573095298697574" lon="10.027642533549768"><ele>177.0</ele><time>2026-03-28T18:24:28Z</time></trkpt><trkpt lat="45.57302928867943" lon="10.02797849563126"><ele>177.0</ele><time>2026-03-28T18:24:29Z</time></trkpt><trkpt lat="45.57296718254307" lon="10.028316110036764"><ele>177.0</ele><time>2026-03-28T18:24:30Z</time></trkpt><trkpt lat="45.572911035937125" lon="10.02865476352974"><ele>177.0</ele><time>2026-03-28T18:24:31Z</time></trkpt><trkpt lat="45.572831228618945" lon="10.028984652104915"><ele>177.0</ele><time>2026-03-28T18:24:32Z</time></trkpt><trkpt lat="45.57274417394952" lon="10.02942210449376"><ele>177.5</ele><time>2026-03-28T18:24:33Z</time></trkpt><trkpt lat="45.572697967168395" lon="10.029728696060122"><ele>178.0</ele><time>2026-03-28T18:24:34Z</time></trkpt><trkpt lat="45.57263506507755" lon="10.030071274135176"><ele>178.5</ele><time>2026-03-28T18:24:35Z</time></trkpt><trkpt lat="45.57257273276632" lon="10.030419590657244"><ele>179.0</ele><time>2026-03-28T18:24:36Z</time></trkpt><trkpt lat="45.57251288381554" lon="10.03076605050355"><ele>178.5</ele><time>2026-03-28T18:24:37Z</time></trkpt><trkpt lat="45.57244785019032" lon="10.0311193568027"><ele>178.0</ele><time>2026-03-28T18:24:38Z</time></trkpt><trkpt lat="45.57238485325287" lon="10.031468617265332"><ele>177.0</ele><time>2026-03-28T18:24:39Z</time></trkpt><trkpt lat="45.5723214757264" lon="10.031822295599127"><ele>176.0</ele><time>2026-03-28T18:24:40Z</time></trkpt><trkpt lat="45.57225209586746" lon="10.032168498575853"><ele>176.0</ele><time>2026-03-28T18:24:41Z</time></trkpt><trkpt lat="45.5721901565276" lon="10.032522606788445"><ele>176.0</ele><time>2026-03-28T18:24:42Z</time></trkpt><trkpt lat="45.5721253237154" lon="10.032878123493807"><ele>176.0</ele><time>2026-03-28T18:24:43Z</time></trkpt><trkpt lat="45.57205314070463" lon="10.033232805822879"><ele>176.0</ele><time>2026-03-28T18:24:44Z</time></trkpt><trkpt lat="45.57199118904921" lon="10.033586448872432"><ele>176.0</ele><time>2026-03-28T18:24:45Z</time></trkpt><trkpt lat="45.571924817233466" lon="10.033957587039161"><ele>176.0</ele><time>2026-03-28T18:24:46Z</time></trkpt><trkpt lat="45.57186552001432" lon="10.034301802994927"><ele>175.5</ele><time>2026-03-28T18:24:47Z</time></trkpt><trkpt lat="45.57179673704088" lon="10.03465217186151"><ele>175.0</ele><time>2026-03-28T18:24:48Z</time></trkpt><trkpt lat="45.57173190225504" lon="10.034999203196145"><ele>174.5</ele><time>2026-03-28T18:24:49Z</time></trkpt><trkpt lat="45.571672916473716" lon="10.035341180427844"><ele>174.0</ele><time>2026-03-28T18:24:50Z</time></trkpt><trkpt lat="45.571616194868184" lon="10.035690395734024"><ele>173.5</ele><time>2026-03-28T18:24:51Z</time></trkpt><trkpt lat="45.57155441481397" lon="10.036030568982927"><ele>173.0</ele><time>2026-03-28T18:24:52Z</time></trkpt><trkpt lat="45.57149171502986" lon="10.036370094004576"><ele>174.5</ele><time>2026-03-28T18:24:53Z</time></trkpt><trkpt lat="45.57143193743852" lon="10.036707852372897"><ele>176.0</ele><time>2026-03-28T18:24:54Z</time></trkpt><trkpt lat="45.571368609125486" lon="10.037036799895006"><ele>176.0</ele><time>2026-03-28T18:24:55Z</time></trkpt><trkpt lat="45.571307263136724" lon="10.0373642690678"><ele>176.0</ele><time>2026-03-28T18:24:56Z</time></trkpt><trkpt lat="45.571248939315915" lon="10.037692877638339"><ele>175.0</ele><time>2026-03-28T18:24:57Z</time></trkpt><trkpt lat="45.57118884340015" lon="10.038018602481445"><ele>174.0</ele><time>2026-03-28T18:24:58Z</time></trkpt><trkpt lat="45.571120084936304" lon="10.038343925537083"><ele>174.0</ele><time>2026-03-28T18:24:59Z</time></trkpt><trkpt lat="45.571056437582" lon="10.038676915798549"><ele>174.0</ele><time>2026-03-28T18:25:00Z</time></trkpt><trkpt lat="45.570997250890386" lon="10.03901670878802"><ele>175.0</ele><time>2026-03-28T18:25:01Z</time></trkpt><trkpt lat="45.57093922198061" lon="10.039360169379146"><ele>176.0</ele><time>2026-03-28T18:25:02Z</time></trkpt><trkpt lat="45.57087591333824" lon="10.039710152668636"><ele>176.0</ele><time>2026-03-28T18:25:03Z</time></trkpt><trkpt lat="45.57081219086396" lon="10.040054489851329"><ele>176.0</ele><time>2026-03-28T18:25:04Z</time></trkpt><trkpt lat="45.57075052572842" lon="10.040402960872314"><ele>176.0</ele><time>2026-03-28T18:25:05Z</time></trkpt><trkpt lat="45.57068906313676" lon="10.040739835063823"><ele>176.0</ele><time>2026-03-28T18:25:06Z</time></trkpt><trkpt lat="45.57062828920033" lon="10.0410788644583"><ele>175.5</ele><time>2026-03-28T18:25:07Z</time></trkpt><trkpt lat="45.57056204620394" lon="10.04141873590599"><ele>175.0</ele><time>2026-03-28T18:25:08Z</time></trkpt><trkpt lat="45.570498329531176" lon="10.041746033036668"><ele>174.0</ele><time>2026-03-28T18:25:09Z</time></trkpt><trkpt lat="45.57043606767304" lon="10.042074429641852"><ele>173.0</ele><time>2026-03-28T18:25:10Z</time></trkpt><trkpt lat="45.5703741615525" lon="10.042396405414866"><ele>173.5</ele><time>2026-03-28T18:25:11Z</time></trkpt><trkpt lat="45.57031217418226" lon="10.042719911714611"><ele>174.0</ele><time>2026-03-28T18:25:12Z</time></trkpt><trkpt lat="45.570245644404984" lon="10.043048634324332"><ele>173.0</ele><time>2026-03-28T18:25:13Z</time></trkpt><trkpt lat="45.57019601116153" lon="10.04336502204314"><ele>172.0</ele><time>2026-03-28T18:25:14Z</time></trkpt><trkpt lat="45.57014024581702" lon="10.043687218709511"><ele>172.0</ele><time>2026-03-28T18:25:15Z</time></trkpt><trkpt lat="45.57008475742077" lon="10.044002892861734"><ele>172.0</ele><time>2026-03-28T18:25:16Z</time></trkpt><trkpt lat="45.57003009084255" lon="10.044309559382365"><ele>172.0</ele><time>2026-03-28T18:25:17Z</time></trkpt><trkpt lat="45.56997199369546" lon="10.044625476870332"><ele>172.0</ele><time>2026-03-28T18:25:18Z</time></trkpt><trkpt lat="45.569913996624045" lon="10.044944387039207"><ele>172.0</ele><time>2026-03-28T18:25:19Z</time></trkpt><trkpt lat="45.56985998726243" lon="10.045257416087841"><ele>172.0</ele><time>2026-03-28T18:25:20Z</time></trkpt><trkpt lat="45.569797059099564" lon="10.045575230919585"><ele>172.0</ele><time>2026-03-28T18:25:21Z</time></trkpt><trkpt lat="45.56973747076634" lon="10.045892222602346"><ele>172.0</ele><time>2026-03-28T18:25:21.999Z</time></trkpt><trkpt lat="45.56967992569794" lon="10.046221961450815"><ele>172.0</ele><time>2026-03-28T18:25:22.999Z</time></trkpt><trkpt lat="45.56961746844522" lon="10.046545906914814"><ele>172.5</ele><time>2026-03-28T18:25:23.999Z</time></trkpt><trkpt lat="45.56955505556884" lon="10.046870369087298"><ele>173.0</ele><time>2026-03-28T18:25:24.999Z</time></trkpt><trkpt lat="45.56949311280808" lon="10.047201995849225"><ele>172.5</ele><time>2026-03-28T18:25:25.999Z</time></trkpt><trkpt lat="45.569428210137644" lon="10.047528318424728"><ele>172.0</ele><time>2026-03-28T18:25:26.999Z</time></trkpt><trkpt lat="45.569367071011605" lon="10.047852250345768"><ele>172.0</ele><time>2026-03-28T18:25:27.999Z</time></trkpt><trkpt lat="45.56931480027977" lon="10.048183634904676"><ele>172.0</ele><time>2026-03-28T18:25:28.999Z</time></trkpt><trkpt lat="45.56925571621458" lon="10.048522066339915"><ele>172.0</ele><time>2026-03-28T18:25:29.999Z</time></trkpt><trkpt lat="45.56919393013043" lon="10.048853705676235"><ele>172.0</ele><time>2026-03-28T18:25:30.999Z</time></trkpt><trkpt lat="45.569139169957324" lon="10.0491868491773"><ele>171.5</ele><time>2026-03-28T18:25:31.999Z</time></trkpt><trkpt lat="45.569074422374044" lon="10.049523430389476"><ele>171.0</ele><time>2026-03-28T18:25:32.999Z</time></trkpt><trkpt lat="45.56901206791818" lon="10.0498662945986"><ele>171.0</ele><time>2026-03-28T18:25:33.999Z</time></trkpt><trkpt lat="45.56894976660903" lon="10.050201073692739"><ele>171.0</ele><time>2026-03-28T18:25:34.999Z</time></trkpt><trkpt lat="45.568885344368574" lon="10.050537254624444"><ele>171.0</ele><time>2026-03-28T18:25:35.999Z</time></trkpt><trkpt lat="45.56882206029593" lon="10.050880712611024"><ele>171.0</ele><time>2026-03-28T18:25:36.999Z</time></trkpt><trkpt lat="45.5687600441282" lon="10.051226260793912"><ele>171.0</ele><time>2026-03-28T18:25:37.999Z</time></trkpt><trkpt lat="45.568699622855675" lon="10.051576248089095"><ele>171.0</ele><time>2026-03-28T18:25:38.999Z</time></trkpt><trkpt lat="45.56863552492073" lon="10.051930823641658"><ele>171.5</ele><time>2026-03-28T18:25:39.999Z</time></trkpt><trkpt lat="45.56856279665829" lon="10.05228609627267"><ele>172.0</ele><time>2026-03-28T18:25:40.999Z</time></trkpt><trkpt lat="45.568492645856146" lon="10.052650245214354"><ele>171.0</ele><time>2026-03-28T18:25:41.999Z</time></trkpt><trkpt lat="45.56842520383286" lon="10.053015935764087"><ele>170.0</ele><time>2026-03-28T18:25:42.999Z</time></trkpt><trkpt lat="45.56836196818078" lon="10.053351495336303"><ele>169.5</ele><time>2026-03-28T18:25:43.999Z</time></trkpt><trkpt lat="45.56829499297926" lon="10.053676152160742"><ele>169.0</ele><time>2026-03-28T18:25:44.999Z</time></trkpt><trkpt lat="45.56823630815191" lon="10.054005790983338"><ele>169.0</ele><time>2026-03-28T18:25:45.999Z</time></trkpt><trkpt lat="45.56817341590177" lon="10.054334195752464"><ele>169.0</ele><time>2026-03-28T18:25:46.999Z</time></trkpt><trkpt lat="45.56811793054109" lon="10.054666702704964"><ele>169.5</ele><time>2026-03-28T18:25:47.999Z</time></trkpt><trkpt lat="45.568058091806385" lon="10.05499918665557"><ele>170.0</ele><time>2026-03-28T18:25:48.999Z</time></trkpt><trkpt lat="45.56799246365658" lon="10.055337528325936"><ele>170.0</ele><time>2026-03-28T18:25:49.999Z</time></trkpt><trkpt lat="45.567930511533376" lon="10.055678897465901"><ele>170.0</ele><time>2026-03-28T18:25:50.999Z</time></trkpt><trkpt lat="45.56786812458183" lon="10.056017781575793"><ele>168.0</ele><time>2026-03-28T18:25:51.999Z</time></trkpt><trkpt lat="45.56780200567613" lon="10.056362554600188"><ele>166.0</ele><time>2026-03-28T18:25:52.999Z</time></trkpt><trkpt lat="45.5677499099942" lon="10.056709419231687"><ele>166.0</ele><time>2026-03-28T18:25:54Z</time></trkpt><trkpt lat="45.56768185472614" lon="10.05704871932137"><ele>166.0</ele><time>2026-03-28T18:25:55Z</time></trkpt><trkpt lat="45.567619066236496" lon="10.057389490591898"><ele>166.5</ele><time>2026-03-28T18:25:56Z</time></trkpt><trkpt lat="45.56755449128066" lon="10.057727132131573"><ele>167.0</ele><time>2026-03-28T18:25:57Z</time></trkpt><trkpt lat="45.567496660061906" lon="10.058056880135664"><ele>167.5</ele><time>2026-03-28T18:25:58Z</time></trkpt><trkpt lat="45.56743503402737" lon="10.058392757835856"><ele>168.0</ele><time>2026-03-28T18:25:59Z</time></trkpt><trkpt lat="45.567368347234904" lon="10.058730963040668"><ele>168.0</ele><time>2026-03-28T18:26:00Z</time></trkpt><trkpt lat="45.567292737656096" lon="10.059067633173637"><ele>168.0</ele><time>2026-03-28T18:26:01Z</time></trkpt><trkpt lat="45.56724237468389" lon="10.0594140105611"><ele>167.0</ele><time>2026-03-28T18:26:02Z</time></trkpt><trkpt lat="45.567180375078244" lon="10.059747091852117"><ele>166.0</ele><time>2026-03-28T18:26:03Z</time></trkpt><trkpt lat="45.56711776963439" lon="10.060080289287672"><ele>166.0</ele><time>2026-03-28T18:26:04Z</time></trkpt><trkpt lat="45.56705232317524" lon="10.060410964361612"><ele>166.0</ele><time>2026-03-28T18:26:05Z</time></trkpt><trkpt lat="45.56698626181164" lon="10.060740474308021"><ele>166.0</ele><time>2026-03-28T18:26:06Z</time></trkpt><trkpt lat="45.566927991669836" lon="10.061071057259166"><ele>166.0</ele><time>2026-03-28T18:26:07Z</time></trkpt><trkpt lat="45.56686980584134" lon="10.061404432677179"><ele>165.5</ele><time>2026-03-28T18:26:08Z</time></trkpt><trkpt lat="45.566808669723315" lon="10.061735088769508"><ele>165.0</ele><time>2026-03-28T18:26:09Z</time></trkpt><trkpt lat="45.56674767173952" lon="10.06205983333776"><ele>165.0</ele><time>2026-03-28T18:26:10Z</time></trkpt><trkpt lat="45.566685960024834" lon="10.062384568109952"><ele>165.0</ele><time>2026-03-28T18:26:11Z</time></trkpt><trkpt lat="45.566625124176895" lon="10.062708392299587"><ele>164.5</ele><time>2026-03-28T18:26:12Z</time></trkpt><trkpt lat="45.566560973215935" lon="10.063048517064843"><ele>164.0</ele><time>2026-03-28T18:26:13Z</time></trkpt><trkpt lat="45.56650576457713" lon="10.063370098230664"><ele>164.0</ele><time>2026-03-28T18:26:14Z</time></trkpt><trkpt lat="45.56644869529517" lon="10.06370524562057"><ele>164.0</ele><time>2026-03-28T18:26:15Z</time></trkpt><trkpt lat="45.566384833775466" lon="10.064049834336718"><ele>164.0</ele><time>2026-03-28T18:26:16Z</time></trkpt><trkpt lat="45.56632053468462" lon="10.06438625477438"><ele>164.0</ele><time>2026-03-28T18:26:17Z</time></trkpt><trkpt lat="45.56625553228041" lon="10.064733945432824"><ele>164.5</ele><time>2026-03-28T18:26:18Z</time></trkpt><trkpt lat="45.56619976189029" lon="10.065085047670957"><ele>165.0</ele><time>2026-03-28T18:26:19Z</time></trkpt><trkpt lat="45.56613531845303" lon="10.065412597826896"><ele>165.0</ele><time>2026-03-28T18:26:20Z</time></trkpt><trkpt lat="45.566093624074746" lon="10.065821646743805"><ele>165.0</ele><time>2026-03-28T18:26:21Z</time></trkpt><trkpt lat="45.566023608888884" lon="10.066111465364836"><ele>165.0</ele><time>2026-03-28T18:26:22Z</time></trkpt><trkpt lat="45.56596401652088" lon="10.06642763260353"><ele>165.0</ele><time>2026-03-28T18:26:23Z</time></trkpt><trkpt lat="45.565901983111516" lon="10.066751073503648"><ele>164.33333333333334</ele><time>2026-03-28T18:26:24Z</time></trkpt><trkpt lat="45.56584047036609" lon="10.06706396356503"><ele>163.66666666666669</ele><time>2026-03-28T18:26:25Z</time></trkpt><trkpt lat="45.56578425824089" lon="10.067367281703895"><ele>163.0</ele><time>2026-03-28T18:26:26Z</time></trkpt><trkpt lat="45.56572553038317" lon="10.067673109735205"><ele>163.0</ele><time>2026-03-28T18:26:27Z</time></trkpt><trkpt lat="45.56567660689465" lon="10.067997228976655"><ele>163.0</ele><time>2026-03-28T18:26:28Z</time></trkpt><trkpt lat="45.565626500340755" lon="10.068357469772156"><ele>163.0</ele><time>2026-03-28T18:26:29Z</time></trkpt><trkpt lat="45.565560222835856" lon="10.06874368459849"><ele>163.0</ele><time>2026-03-28T18:26:30Z</time></trkpt><trkpt lat="45.56547368739739" lon="10.069143268972487"><ele>163.5</ele><time>2026-03-28T18:26:31Z</time></trkpt><trkpt lat="45.56537545881307" lon="10.069552830991002"><ele>164.0</ele><time>2026-03-28T18:26:32Z</time></trkpt><trkpt lat="45.56530498385774" lon="10.069932816204409"><ele>163.0</ele><time>2026-03-28T18:26:33Z</time></trkpt><trkpt lat="45.56524329250233" lon="10.0702843345309"><ele>162.0</ele><time>2026-03-28T18:26:34Z</time></trkpt><trkpt lat="45.56518121939319" lon="10.070654450478632"><ele>162.0</ele><time>2026-03-28T18:26:35Z</time></trkpt><trkpt lat="45.56511795457653" lon="10.070988098097837"><ele>162.0</ele><time>2026-03-28T18:26:36Z</time></trkpt><trkpt lat="45.565054280592044" lon="10.071325326692948"><ele>162.0</ele><time>2026-03-28T18:26:37Z</time></trkpt><trkpt lat="45.56499079447831" lon="10.071663889381693"><ele>162.0</ele><time>2026-03-28T18:26:38Z</time></trkpt><trkpt lat="45.56492675921515" lon="10.072003153565499"><ele>162.0</ele><time>2026-03-28T18:26:39Z</time></trkpt><trkpt lat="45.56486176786037" lon="10.072340561755448"><ele>162.0</ele><time>2026-03-28T18:26:40Z</time></trkpt><trkpt lat="45.5647948627404" lon="10.072680264182363"><ele>161.5</ele><time>2026-03-28T18:26:41Z</time></trkpt><trkpt lat="45.56472952678531" lon="10.073020554977852"><ele>161.0</ele><time>2026-03-28T18:26:42Z</time></trkpt><trkpt lat="45.56466555398694" lon="10.073355509425484"><ele>160.5</ele><time>2026-03-28T18:26:43Z</time></trkpt><trkpt lat="45.56460110342288" lon="10.073695922207436"><ele>160.0</ele><time>2026-03-28T18:26:44Z</time></trkpt><trkpt lat="45.564543575272666" lon="10.074036608369312"><ele>160.0</ele><time>2026-03-28T18:26:45Z</time></trkpt><trkpt lat="45.564495788979634" lon="10.074375974446344"><ele>160.0</ele><time>2026-03-28T18:26:46Z</time></trkpt><trkpt lat="45.564433054381354" lon="10.074729726087051"><ele>159.5</ele><time>2026-03-28T18:26:47Z</time></trkpt><trkpt lat="45.56435355349282" lon="10.075073909200727"><ele>159.0</ele><time>2026-03-28T18:26:48Z</time></trkpt><trkpt lat="45.564287020027884" lon="10.075425240060166"><ele>158.5</ele><time>2026-03-28T18:26:49Z</time></trkpt><trkpt lat="45.56421510553099" lon="10.075779714056639"><ele>158.0</ele><time>2026-03-28T18:26:50Z</time></trkpt><trkpt lat="45.56414918391115" lon="10.076127607791992"><ele>158.0</ele><time>2026-03-28T18:26:51Z</time></trkpt><trkpt lat="45.564090716388115" lon="10.076478148427816"><ele>158.0</ele><time>2026-03-28T18:26:52Z</time></trkpt><trkpt lat="45.56402284386777" lon="10.076834137477764"><ele>159.0</ele><time>2026-03-28T18:26:53Z</time></trkpt><trkpt lat="45.563960505090435" lon="10.077166766672587"><ele>160.0</ele><time>2026-03-28T18:26:54Z</time></trkpt><trkpt lat="45.56389918361163" lon="10.077502411154267"><ele>160.0</ele><time>2026-03-28T18:26:55Z</time></trkpt><trkpt lat="45.563836118298724" lon="10.07783372948772"><ele>160.0</ele><time>2026-03-28T18:26:56Z</time></trkpt><trkpt lat="45.563777619284394" lon="10.078165478992348"><ele>159.5</ele><time>2026-03-28T18:26:57Z</time></trkpt><trkpt lat="45.563715331043596" lon="10.078494871947193"><ele>159.0</ele><time>2026-03-28T18:26:58Z</time></trkpt><trkpt lat="45.56365728548479" lon="10.078833601660424"><ele>157.0</ele><time>2026-03-28T18:26:59Z</time></trkpt><trkpt lat="45.56360102895285" lon="10.07918660162365"><ele>155.0</ele><time>2026-03-28T18:27:00Z</time></trkpt><trkpt lat="45.56353981244772" lon="10.079542894460179"><ele>155.0</ele><time>2026-03-28T18:27:01Z</time></trkpt><trkpt lat="45.563478228801124" lon="10.079910925235055"><ele>155.0</ele><time>2026-03-28T18:27:02Z</time></trkpt><trkpt lat="45.56341810127933" lon="10.08027405351847"><ele>155.0</ele><time>2026-03-28T18:27:03Z</time></trkpt><trkpt lat="45.56335685537698" lon="10.080635090444689"><ele>155.0</ele><time>2026-03-28T18:27:04Z</time></trkpt><trkpt lat="45.56328889298083" lon="10.080991843804341"><ele>155.5</ele><time>2026-03-28T18:27:05Z</time></trkpt><trkpt lat="45.56322262978108" lon="10.081338331373937"><ele>156.0</ele><time>2026-03-28T18:27:06Z</time></trkpt><trkpt lat="45.56316137930226" lon="10.081689088588169"><ele>156.0</ele><time>2026-03-28T18:27:07Z</time></trkpt><trkpt lat="45.563101755596435" lon="10.082038907961113"><ele>156.0</ele><time>2026-03-28T18:27:08Z</time></trkpt><trkpt lat="45.5630389526053" lon="10.082389983595617"><ele>157.0</ele><time>2026-03-28T18:27:09Z</time></trkpt><trkpt lat="45.56297689663532" lon="10.082731493530703"><ele>158.0</ele><time>2026-03-28T18:27:10Z</time></trkpt><trkpt lat="45.56290801696195" lon="10.083072657839317"><ele>157.5</ele><time>2026-03-28T18:27:11Z</time></trkpt><trkpt lat="45.562834246071446" lon="10.083426684831545"><ele>157.0</ele><time>2026-03-28T18:27:12Z</time></trkpt><trkpt lat="45.562757878745956" lon="10.083777165701555"><ele>156.5</ele><time>2026-03-28T18:27:13Z</time></trkpt><trkpt lat="45.56268149648467" lon="10.084128789957955"><ele>156.0</ele><time>2026-03-28T18:27:14Z</time></trkpt><trkpt lat="45.56260918905298" lon="10.084486434626411"><ele>156.0</ele><time>2026-03-28T18:27:15Z</time></trkpt><trkpt lat="45.56253196766751" lon="10.084834526536778"><ele>156.0</ele><time>2026-03-28T18:27:15.999Z</time></trkpt><trkpt lat="45.56245038313514" lon="10.085174872150075"><ele>155.0</ele><time>2026-03-28T18:27:16.999Z</time></trkpt><trkpt lat="45.562364745771255" lon="10.08551193800386"><ele>154.0</ele><time>2026-03-28T18:27:17.999Z</time></trkpt><trkpt lat="45.56228408585738" lon="10.085848008793862"><ele>152.0</ele><time>2026-03-28T18:27:18.999Z</time></trkpt><trkpt lat="45.56219827666217" lon="10.086183721704462"><ele>150.0</ele><time>2026-03-28T18:27:19.999Z</time></trkpt><trkpt lat="45.56211807646384" lon="10.086510781807634"><ele>150.5</ele><time>2026-03-28T18:27:20.999Z</time></trkpt><trkpt lat="45.56203555844531" lon="10.08683901300056"><ele>151.0</ele><time>2026-03-28T18:27:21.999Z</time></trkpt><trkpt lat="45.56194933184696" lon="10.087162243809"><ele>151.5</ele><time>2026-03-28T18:27:22.999Z</time></trkpt><trkpt lat="45.56186163339012" lon="10.087488300020127"><ele>152.0</ele><time>2026-03-28T18:27:23.999Z</time></trkpt><trkpt lat="45.56177064628979" lon="10.08780936964568"><ele>152.0</ele><time>2026-03-28T18:27:24.999Z</time></trkpt><trkpt lat="45.561675843053195" lon="10.088127772458995"><ele>152.0</ele><time>2026-03-28T18:27:25.999Z</time></trkpt><trkpt lat="45.56158324884122" lon="10.08844742358348"><ele>152.0</ele><time>2026-03-28T18:27:26.999Z</time></trkpt><trkpt lat="45.561485624839484" lon="10.088763050291405"><ele>152.0</ele><time>2026-03-28T18:27:27.999Z</time></trkpt><trkpt lat="45.56138618841411" lon="10.08908157046318"><ele>151.5</ele><time>2026-03-28T18:27:28.999Z</time></trkpt><trkpt lat="45.561286158962325" lon="10.08939188551442"><ele>151.0</ele><time>2026-03-28T18:27:29.999Z</time></trkpt><trkpt lat="45.56118510971215" lon="10.089699770006604"><ele>149.5</ele><time>2026-03-28T18:27:30.999Z</time></trkpt><trkpt lat="45.561080355052304" lon="10.090000517372946"><ele>148.0</ele><time>2026-03-28T18:27:31.999Z</time></trkpt><trkpt lat="45.56097912277429" lon="10.09029886199585"><ele>148.0</ele><time>2026-03-28T18:27:32.999Z</time></trkpt><trkpt lat="45.56086927382299" lon="10.090600891175725"><ele>148.0</ele><time>2026-03-28T18:27:33.999Z</time></trkpt><trkpt lat="45.56075991187219" lon="10.090892304708353"><ele>148.0</ele><time>2026-03-28T18:27:34.999Z</time></trkpt><trkpt lat="45.560648143325515" lon="10.091202909524862"><ele>148.0</ele><time>2026-03-28T18:27:35.999Z</time></trkpt><trkpt lat="45.5605041698452" lon="10.091518405315494"><ele>148.0</ele><time>2026-03-28T18:27:36.999Z</time></trkpt><trkpt lat="45.56040257990801" lon="10.091818554011423"><ele>148.0</ele><time>2026-03-28T18:27:37.999Z</time></trkpt><trkpt lat="45.56028688134075" lon="10.092127154760107"><ele>146.5</ele><time>2026-03-28T18:27:38.999Z</time></trkpt><trkpt lat="45.56016914604652" lon="10.092430525190395"><ele>145.0</ele><time>2026-03-28T18:27:39.999Z</time></trkpt><trkpt lat="45.560050280125026" lon="10.092735170080198"><ele>145.0</ele><time>2026-03-28T18:27:40.999Z</time></trkpt><trkpt lat="45.55992586089458" lon="10.093043933945886"><ele>145.0</ele><time>2026-03-28T18:27:41.999Z</time></trkpt><trkpt lat="45.559797782386326" lon="10.093346578906706"><ele>144.5</ele><time>2026-03-28T18:27:42.999Z</time></trkpt><trkpt lat="45.55966814728156" lon="10.093647879792318"><ele>144.0</ele><time>2026-03-28T18:27:43.999Z</time></trkpt><trkpt lat="45.55954011036921" lon="10.093942842956425"><ele>144.5</ele><time>2026-03-28T18:27:44.999Z</time></trkpt><trkpt lat="45.55940466587723" lon="10.094248566672132"><ele>145.0</ele><time>2026-03-28T18:27:45.999Z</time></trkpt><trkpt lat="45.55927345543566" lon="10.094535979834204"><ele>145.0</ele><time>2026-03-28T18:27:46.999Z</time></trkpt><trkpt lat="45.559134810990024" lon="10.094823218110498"><ele>145.0</ele><time>2026-03-28T18:27:47.999Z</time></trkpt><trkpt lat="45.55899562834848" lon="10.095110495724146"><ele>145.0</ele><time>2026-03-28T18:27:48.999Z</time></trkpt><trkpt lat="45.55885896044482" lon="10.09539068301216"><ele>145.0</ele><time>2026-03-28T18:27:49.999Z</time></trkpt><trkpt lat="45.5587187292168" lon="10.095679592469882"><ele>144.5</ele><time>2026-03-28T18:27:50.999Z</time></trkpt><trkpt lat="45.55857996618121" lon="10.095965306738558"><ele>144.0</ele><time>2026-03-28T18:27:51.999Z</time></trkpt><trkpt lat="45.558439081860605" lon="10.096244512814806"><ele>144.0</ele><time>2026-03-28T18:27:52.999Z</time></trkpt><trkpt lat="45.558302487259375" lon="10.096522165827063"><ele>144.0</ele><time>2026-03-28T18:27:53.999Z</time></trkpt><trkpt lat="45.55816598197284" lon="10.096805548925971"><ele>143.0</ele><time>2026-03-28T18:27:54.999Z</time></trkpt><trkpt lat="45.55802605110883" lon="10.097094671325781"><ele>142.0</ele><time>2026-03-28T18:27:55.999Z</time></trkpt><trkpt lat="45.55788227942821" lon="10.097391127713955"><ele>142.0</ele><time>2026-03-28T18:27:56.999Z</time></trkpt><trkpt lat="45.55773740888622" lon="10.097682460136147"><ele>142.0</ele><time>2026-03-28T18:27:57.999Z</time></trkpt><trkpt lat="45.557579429406374" lon="10.097980993003562"><ele>141.5</ele><time>2026-03-28T18:27:58.999Z</time></trkpt><trkpt lat="45.55744457555741" lon="10.098271114554986"><ele>141.0</ele><time>2026-03-28T18:28:00Z</time></trkpt><trkpt lat="45.55730535643684" lon="10.098567404690732"><ele>141.0</ele><time>2026-03-28T18:28:01Z</time></trkpt><trkpt lat="45.55716988909355" lon="10.098855567779573"><ele>141.0</ele><time>2026-03-28T18:28:02Z</time></trkpt><trkpt lat="45.55703257657354" lon="10.099140856813886"><ele>140.0</ele><time>2026-03-28T18:28:03Z</time></trkpt><trkpt lat="45.55689497560206" lon="10.09942322881389"><ele>139.0</ele><time>2026-03-28T18:28:04Z</time></trkpt><trkpt lat="45.55675299595305" lon="10.099708670667269"><ele>140.0</ele><time>2026-03-28T18:28:05Z</time></trkpt><trkpt lat="45.55661211800979" lon="10.100001183378275"><ele>141.0</ele><time>2026-03-28T18:28:06Z</time></trkpt><trkpt lat="45.55647211872729" lon="10.100292270625632"><ele>141.0</ele><time>2026-03-28T18:28:07Z</time></trkpt><trkpt lat="45.5563284102741" lon="10.100588426953504"><ele>141.0</ele><time>2026-03-28T18:28:08Z</time></trkpt><trkpt lat="45.55618792410879" lon="10.100889304101953"><ele>139.0</ele><time>2026-03-28T18:28:09Z</time></trkpt><trkpt lat="45.55603092949961" lon="10.101186126409084"><ele>137.0</ele><time>2026-03-28T18:28:10Z</time></trkpt><trkpt lat="45.55590013727688" lon="10.101476168776687"><ele>137.0</ele><time>2026-03-28T18:28:11Z</time></trkpt><trkpt lat="45.55576328580393" lon="10.101767309759845"><ele>137.0</ele><time>2026-03-28T18:28:12Z</time></trkpt><trkpt lat="45.55562309430987" lon="10.102052838865484"><ele>137.0</ele><time>2026-03-28T18:28:13Z</time></trkpt><trkpt lat="45.55548660645463" lon="10.102333018905497"><ele>137.0</ele><time>2026-03-28T18:28:14Z</time></trkpt><trkpt lat="45.55534686436572" lon="10.102615866741909"><ele>138.0</ele><time>2026-03-28T18:28:15Z</time></trkpt><trkpt lat="45.55520977289645" lon="10.102897639541256"><ele>139.0</ele><time>2026-03-28T18:28:16Z</time></trkpt><trkpt lat="45.55507322144879" lon="10.103179968402175"><ele>139.0</ele><time>2026-03-28T18:28:17Z</time></trkpt><trkpt lat="45.55493475470272" lon="10.10345274356076"><ele>139.0</ele><time>2026-03-28T18:28:18Z</time></trkpt><trkpt lat="45.5548008006873" lon="10.103736732048326"><ele>139.0</ele><time>2026-03-28T18:28:19Z</time></trkpt><trkpt lat="45.55466510275854" lon="10.104017648009613"><ele>139.0</ele><time>2026-03-28T18:28:20Z</time></trkpt><trkpt lat="45.55452612798933" lon="10.104288651936873"><ele>138.0</ele><time>2026-03-28T18:28:21Z</time></trkpt><trkpt lat="45.554396814232085" lon="10.10456184569608"><ele>137.0</ele><time>2026-03-28T18:28:22Z</time></trkpt><trkpt lat="45.55426481144155" lon="10.10482987553233"><ele>137.5</ele><time>2026-03-28T18:28:23Z</time></trkpt><trkpt lat="45.55413399841113" lon="10.105105986086933"><ele>138.0</ele><time>2026-03-28T18:28:24Z</time></trkpt><trkpt lat="45.55399942124949" lon="10.105386889450001"><ele>138.0</ele><time>2026-03-28T18:28:25Z</time></trkpt><trkpt lat="45.55386383148508" lon="10.105661591991398"><ele>138.0</ele><time>2026-03-28T18:28:26Z</time></trkpt><trkpt lat="45.5537297605092" lon="10.105940709733492"><ele>138.0</ele><time>2026-03-28T18:28:27Z</time></trkpt><trkpt lat="45.553594062864285" lon="10.106204910227833"><ele>138.0</ele><time>2026-03-28T18:28:28Z</time></trkpt><trkpt lat="45.553462385046714" lon="10.106475600985707"><ele>137.66666666666666</ele><time>2026-03-28T18:28:29Z</time></trkpt><trkpt lat="45.55333004656876" lon="10.106732503574694"><ele>137.33333333333331</ele><time>2026-03-28T18:28:30Z</time></trkpt><trkpt lat="45.553201671939135" lon="10.106984247850804"><ele>137.0</ele><time>2026-03-28T18:28:31Z</time></trkpt><trkpt lat="45.55306896267163" lon="10.107244901564684"><ele>137.0</ele><time>2026-03-28T18:28:32Z</time></trkpt><trkpt lat="45.552927845365154" lon="10.107515905685387"><ele>137.0</ele><time>2026-03-28T18:28:33Z</time></trkpt><trkpt lat="45.55278914334109" lon="10.107790611779352"><ele>137.0</ele><time>2026-03-28T18:28:34Z</time></trkpt><trkpt lat="45.552644051120865" lon="10.108077415912394"><ele>137.0</ele><time>2026-03-28T18:28:35Z</time></trkpt><trkpt lat="45.55250291963543" lon="10.10836677082492"><ele>137.5</ele><time>2026-03-28T18:28:36Z</time></trkpt><trkpt lat="45.55236407983131" lon="10.108657491406792"><ele>138.0</ele><time>2026-03-28T18:28:37Z</time></trkpt><trkpt lat="45.55222274287103" lon="10.108942413311928"><ele>138.5</ele><time>2026-03-28T18:28:38Z</time></trkpt><trkpt lat="45.552079800247114" lon="10.109224251131812"><ele>139.0</ele><time>2026-03-28T18:28:39Z</time></trkpt><trkpt lat="45.55193488602496" lon="10.109512820911519"><ele>137.5</ele><time>2026-03-28T18:28:40Z</time></trkpt><trkpt lat="45.55178920195957" lon="10.109794601323207"><ele>136.0</ele><time>2026-03-28T18:28:41Z</time></trkpt><trkpt lat="45.55164391013943" lon="10.110066623832273"><ele>136.0</ele><time>2026-03-28T18:28:42Z</time></trkpt><trkpt lat="45.55150288325828" lon="10.110345775683161"><ele>136.0</ele><time>2026-03-28T18:28:43Z</time></trkpt><trkpt lat="45.55135474759148" lon="10.110621227888593"><ele>136.0</ele><time>2026-03-28T18:28:44Z</time></trkpt><trkpt lat="45.551210914035785" lon="10.110903176466353"><ele>136.0</ele><time>2026-03-28T18:28:45Z</time></trkpt><trkpt lat="45.551073914990994" lon="10.111178285789093"><ele>135.0</ele><time>2026-03-28T18:28:46Z</time></trkpt><trkpt lat="45.5509307882615" lon="10.111457452590233"><ele>134.0</ele><time>2026-03-28T18:28:47Z</time></trkpt><trkpt lat="45.55078788971388" lon="10.111725982732484"><ele>134.0</ele><time>2026-03-28T18:28:48Z</time></trkpt><trkpt lat="45.550645402140375" lon="10.111999027206153"><ele>134.0</ele><time>2026-03-28T18:28:49Z</time></trkpt><trkpt lat="45.55050483135474" lon="10.112279926650972"><ele>134.0</ele><time>2026-03-28T18:28:50Z</time></trkpt><trkpt lat="45.550365366347926" lon="10.112556099554748"><ele>134.0</ele><time>2026-03-28T18:28:51Z</time></trkpt><trkpt lat="45.5502245509205" lon="10.112836073804754"><ele>134.0</ele><time>2026-03-28T18:28:52Z</time></trkpt><trkpt lat="45.550088740773454" lon="10.113113412956826"><ele>134.0</ele><time>2026-03-28T18:28:53Z</time></trkpt><trkpt lat="45.54994720708009" lon="10.113390097779375"><ele>134.5</ele><time>2026-03-28T18:28:54Z</time></trkpt><trkpt lat="45.54980914610897" lon="10.113670427991977"><ele>135.0</ele><time>2026-03-28T18:28:55Z</time></trkpt><trkpt lat="45.549667969805064" lon="10.113950635679489"><ele>135.0</ele><time>2026-03-28T18:28:56Z</time></trkpt><trkpt lat="45.54952127429223" lon="10.114239666713784"><ele>135.0</ele><time>2026-03-28T18:28:57Z</time></trkpt><trkpt lat="45.549370951770214" lon="10.114532825555996"><ele>135.0</ele><time>2026-03-28T18:28:58Z</time></trkpt><trkpt lat="45.54922729566025" lon="10.114810476270355"><ele>135.0</ele><time>2026-03-28T18:28:59Z</time></trkpt><trkpt lat="45.549076910794724" lon="10.115096947425751"><ele>134.5</ele><time>2026-03-28T18:29:00Z</time></trkpt><trkpt lat="45.54893151467236" lon="10.115381988366497"><ele>134.0</ele><time>2026-03-28T18:29:01Z</time></trkpt><trkpt lat="45.54878327414817" lon="10.115674744551576"><ele>133.0</ele><time>2026-03-28T18:29:02Z</time></trkpt><trkpt lat="45.548631948013565" lon="10.115962626611717"><ele>132.0</ele><time>2026-03-28T18:29:03Z</time></trkpt><trkpt lat="45.54848755598599" lon="10.116248499414878"><ele>132.0</ele><time>2026-03-28T18:29:04Z</time></trkpt><trkpt lat="45.54834353724361" lon="10.116536357572967"><ele>132.0</ele><time>2026-03-28T18:29:05Z</time></trkpt><trkpt lat="45.54819507371102" lon="10.116817114479225"><ele>133.0</ele><time>2026-03-28T18:29:06Z</time></trkpt><trkpt lat="45.548048883730296" lon="10.117104489197576"><ele>134.0</ele><time>2026-03-28T18:29:07Z</time></trkpt><trkpt lat="45.5479049137778" lon="10.11739314416674"><ele>133.5</ele><time>2026-03-28T18:29:08Z</time></trkpt><trkpt lat="45.54776412728941" lon="10.117674944793963"><ele>133.0</ele><time>2026-03-28T18:29:09Z</time></trkpt><trkpt lat="45.54762024016786" lon="10.117951478844065"><ele>133.0</ele><time>2026-03-28T18:29:10Z</time></trkpt><trkpt lat="45.547476015072924" lon="10.118233005238546"><ele>133.0</ele><time>2026-03-28T18:29:11Z</time></trkpt><trkpt lat="45.547332786819794" lon="10.118511645224086"><ele>133.5</ele><time>2026-03-28T18:29:12Z</time></trkpt><trkpt lat="45.54718922047414" lon="10.118790312595578"><ele>134.0</ele><time>2026-03-28T18:29:13Z</time></trkpt><trkpt lat="45.5470292839995" lon="10.119090110020025"><ele>132.5</ele><time>2026-03-28T18:29:14Z</time></trkpt><trkpt lat="45.54689932939266" lon="10.119353916813385"><ele>131.0</ele><time>2026-03-28T18:29:15Z</time></trkpt><trkpt lat="45.54676547353045" lon="10.119629300418731"><ele>130.5</ele><time>2026-03-28T18:29:16Z</time></trkpt><trkpt lat="45.54663287792825" lon="10.119905610506772"><ele>130.0</ele><time>2026-03-28T18:29:17Z</time></trkpt><trkpt lat="45.54650017277464" lon="10.120184201225552"><ele>130.0</ele><time>2026-03-28T18:29:17.999Z</time></trkpt><trkpt lat="45.546366278040836" lon="10.120463849239815"><ele>130.0</ele><time>2026-03-28T18:29:18.999Z</time></trkpt><trkpt lat="45.54623805156632" lon="10.12074251906735"><ele>129.0</ele><time>2026-03-28T18:29:19.999Z</time></trkpt><trkpt lat="45.54611132201277" lon="10.121021446729774"><ele>128.0</ele><time>2026-03-28T18:29:20.999Z</time></trkpt><trkpt lat="45.5459842624079" lon="10.12130397188209"><ele>127.5</ele><time>2026-03-28T18:29:21.999Z</time></trkpt><trkpt lat="45.54585675666731" lon="10.121591928370234"><ele>127.0</ele><time>2026-03-28T18:29:22.999Z</time></trkpt><trkpt lat="45.545728725635215" lon="10.121870201672545"><ele>127.0</ele><time>2026-03-28T18:29:23.999Z</time></trkpt><trkpt lat="45.545599355471076" lon="10.122152643826015"><ele>127.0</ele><time>2026-03-28T18:29:24.999Z</time></trkpt><trkpt lat="45.54546524152382" lon="10.122440447859613"><ele>127.0</ele><time>2026-03-28T18:29:25.999Z</time></trkpt><trkpt lat="45.545339375247345" lon="10.122729082829638"><ele>127.0</ele><time>2026-03-28T18:29:26.999Z</time></trkpt><trkpt lat="45.54520498209457" lon="10.123016731270969"><ele>126.0</ele><time>2026-03-28T18:29:27.999Z</time></trkpt><trkpt lat="45.54507680884537" lon="10.123311977130944"><ele>125.0</ele><time>2026-03-28T18:29:28.999Z</time></trkpt><trkpt lat="45.54494094502689" lon="10.123603763269276"><ele>125.0</ele><time>2026-03-28T18:29:29.999Z</time></trkpt><trkpt lat="45.54480923207857" lon="10.1238972918628"><ele>125.0</ele><time>2026-03-28T18:29:30.999Z</time></trkpt><trkpt lat="45.54467500882503" lon="10.12419076775195"><ele>125.0</ele><time>2026-03-28T18:29:31.999Z</time></trkpt><trkpt lat="45.54453971110522" lon="10.124481962130991"><ele>125.0</ele><time>2026-03-28T18:29:32.999Z</time></trkpt><trkpt lat="45.54440425566489" lon="10.124777941645918"><ele>124.5</ele><time>2026-03-28T18:29:33.999Z</time></trkpt><trkpt lat="45.54426743210636" lon="10.12507543269227"><ele>124.0</ele><time>2026-03-28T18:29:34.999Z</time></trkpt><trkpt lat="45.54413106304333" lon="10.12537117021431"><ele>124.0</ele><time>2026-03-28T18:29:35.999Z</time></trkpt><trkpt lat="45.543990038261725" lon="10.125659563752482"><ele>124.0</ele><time>2026-03-28T18:29:36.999Z</time></trkpt><trkpt lat="45.54384851853144" lon="10.125949462797923"><ele>125.0</ele><time>2026-03-28T18:29:37.999Z</time></trkpt><trkpt lat="45.54371024200468" lon="10.126237302212854"><ele>126.0</ele><time>2026-03-28T18:29:38.999Z</time></trkpt><trkpt lat="45.543574726516724" lon="10.126523776721738"><ele>126.0</ele><time>2026-03-28T18:29:39.999Z</time></trkpt><trkpt lat="45.54344753132977" lon="10.126813129308482"><ele>126.0</ele><time>2026-03-28T18:29:40.999Z</time></trkpt><trkpt lat="45.54330515995265" lon="10.127103477119158"><ele>126.0</ele><time>2026-03-28T18:29:41.999Z</time></trkpt><trkpt lat="45.543161549118736" lon="10.127391747226946"><ele>126.0</ele><time>2026-03-28T18:29:42.999Z</time></trkpt><trkpt lat="45.543019908045274" lon="10.127676453157886"><ele>124.0</ele><time>2026-03-28T18:29:43.999Z</time></trkpt><trkpt lat="45.542877979762686" lon="10.127964990694332"><ele>122.0</ele><time>2026-03-28T18:29:44.999Z</time></trkpt><trkpt lat="45.542733004564994" lon="10.128253529727825"><ele>122.0</ele><time>2026-03-28T18:29:45.999Z</time></trkpt><trkpt lat="45.54258628881132" lon="10.128539172859144"><ele>122.0</ele><time>2026-03-28T18:29:46.999Z</time></trkpt><trkpt lat="45.54243990038504" lon="10.128824417055695"><ele>122.5</ele><time>2026-03-28T18:29:47.999Z</time></trkpt><trkpt lat="45.542296001943086" lon="10.129108213283969"><ele>123.0</ele><time>2026-03-28T18:29:48.999Z</time></trkpt><trkpt lat="45.542156270496456" lon="10.129394972339655"><ele>123.0</ele><time>2026-03-28T18:29:49.999Z</time></trkpt><trkpt lat="45.542012138882654" lon="10.129681367956408"><ele>123.0</ele><time>2026-03-28T18:29:50.999Z</time></trkpt><trkpt lat="45.54187340638283" lon="10.129968095326248"><ele>123.0</ele><time>2026-03-28T18:29:51.999Z</time></trkpt><trkpt lat="45.541728640835224" lon="10.130253407151063"><ele>123.0</ele><time>2026-03-28T18:29:52.999Z</time></trkpt><trkpt lat="45.54159006432036" lon="10.13053233426688"><ele>122.0</ele><time>2026-03-28T18:29:53.999Z</time></trkpt><trkpt lat="45.54144999267441" lon="10.130811253079864"><ele>121.0</ele><time>2026-03-28T18:29:54.999Z</time></trkpt><trkpt lat="45.54131272618043" lon="10.131090635092821"><ele>121.0</ele><time>2026-03-28T18:29:55.999Z</time></trkpt><trkpt lat="45.54117505423865" lon="10.131373595424256"><ele>121.0</ele><time>2026-03-28T18:29:56.999Z</time></trkpt><trkpt lat="45.54104190728551" lon="10.131655836153893"><ele>122.0</ele><time>2026-03-28T18:29:57.999Z</time></trkpt><trkpt lat="45.54090807579869" lon="10.131935126281775"><ele>123.0</ele><time>2026-03-28T18:29:58.999Z</time></trkpt><trkpt lat="45.540775624433316" lon="10.13221580798804"><ele>123.0</ele><time>2026-03-28T18:29:59.999Z</time></trkpt><trkpt lat="45.54063903113525" lon="10.132487194725522"><ele>123.0</ele><time>2026-03-28T18:30:00.999Z</time></trkpt><trkpt lat="45.54050026208028" lon="10.132762464121894"><ele>122.5</ele><time>2026-03-28T18:30:01.999Z</time></trkpt><trkpt lat="45.54036377046137" lon="10.133043708677885"><ele>122.0</ele><time>2026-03-28T18:30:02.999Z</time></trkpt><trkpt lat="45.54022890108989" lon="10.133320528653405"><ele>121.5</ele><time>2026-03-28T18:30:03.999Z</time></trkpt><trkpt lat="45.54009051631512" lon="10.133600387776449"><ele>121.0</ele><time>2026-03-28T18:30:04.999Z</time></trkpt><trkpt lat="45.53995692482794" lon="10.133877975011"><ele>121.0</ele><time>2026-03-28T18:30:06Z</time></trkpt><trkpt lat="45.539822087753166" lon="10.134149918332696"><ele>121.0</ele><time>2026-03-28T18:30:07Z</time></trkpt><trkpt lat="45.53968520188016" lon="10.134424204929266"><ele>121.0</ele><time>2026-03-28T18:30:08Z</time></trkpt><trkpt lat="45.539553236071164" lon="10.134699195312638"><ele>121.0</ele><time>2026-03-28T18:30:09Z</time></trkpt><trkpt lat="45.5394161861509" lon="10.134971766067494"><ele>122.0</ele><time>2026-03-28T18:30:10Z</time></trkpt><trkpt lat="45.53928411059063" lon="10.135246698501899"><ele>123.0</ele><time>2026-03-28T18:30:11Z</time></trkpt><trkpt lat="45.539150592873646" lon="10.135521344961358"><ele>122.5</ele><time>2026-03-28T18:30:12Z</time></trkpt><trkpt lat="45.53901670166824" lon="10.135790895273416"><ele>122.0</ele><time>2026-03-28T18:30:13Z</time></trkpt><trkpt lat="45.538877209171446" lon="10.136061578279453"><ele>122.0</ele><time>2026-03-28T18:30:14Z</time></trkpt><trkpt lat="45.538743407382405" lon="10.136334929407623"><ele>122.0</ele><time>2026-03-28T18:30:15Z</time></trkpt><trkpt lat="45.53860606901716" lon="10.13661194494741"><ele>121.5</ele><time>2026-03-28T18:30:16Z</time></trkpt><trkpt lat="45.53846999824589" lon="10.13688739165435"><ele>121.0</ele><time>2026-03-28T18:30:17Z</time></trkpt><trkpt lat="45.53833905267592" lon="10.137161650564739"><ele>120.0</ele><time>2026-03-28T18:30:18Z</time></trkpt><trkpt lat="45.538197366151415" lon="10.137434980393765"><ele>119.0</ele><time>2026-03-28T18:30:19Z</time></trkpt><trkpt lat="45.53806202450111" lon="10.137714467910339"><ele>119.0</ele><time>2026-03-28T18:30:20Z</time></trkpt><trkpt lat="45.53792444064139" lon="10.137983386747928"><ele>119.0</ele><time>2026-03-28T18:30:21Z</time></trkpt><trkpt lat="45.53778729753148" lon="10.138262462038528"><ele>118.5</ele><time>2026-03-28T18:30:22Z</time></trkpt><trkpt lat="45.53764809089472" lon="10.138544561998808"><ele>118.0</ele><time>2026-03-28T18:30:23Z</time></trkpt><trkpt lat="45.537502011977175" lon="10.138834830830787"><ele>118.0</ele><time>2026-03-28T18:30:24Z</time></trkpt><trkpt lat="45.53736087391539" lon="10.139129821203898"><ele>118.0</ele><time>2026-03-28T18:30:25Z</time></trkpt><trkpt lat="45.53721118640727" lon="10.139432637957473"><ele>118.0</ele><time>2026-03-28T18:30:26Z</time></trkpt><trkpt lat="45.53706704309775" lon="10.139725059074879"><ele>118.0</ele><time>2026-03-28T18:30:27Z</time></trkpt><trkpt lat="45.536921133991896" lon="10.140018412432886"><ele>118.5</ele><time>2026-03-28T18:30:28Z</time></trkpt><trkpt lat="45.536778426045906" lon="10.140310515684133"><ele>119.0</ele><time>2026-03-28T18:30:29Z</time></trkpt><trkpt lat="45.53663271519468" lon="10.140598164473841"><ele>118.5</ele><time>2026-03-28T18:30:30Z</time></trkpt><trkpt lat="45.53648972265641" lon="10.140891036848481"><ele>118.0</ele><time>2026-03-28T18:30:31Z</time></trkpt><trkpt lat="45.53634859249243" lon="10.141178870155908"><ele>118.0</ele><time>2026-03-28T18:30:32Z</time></trkpt><trkpt lat="45.53621169720059" lon="10.141460134506378"><ele>118.0</ele><time>2026-03-28T18:30:33Z</time></trkpt><trkpt lat="45.53607128710935" lon="10.141745693108321"><ele>118.0</ele><time>2026-03-28T18:30:34Z</time></trkpt><trkpt lat="45.535922223081016" lon="10.142031346607139"><ele>118.0</ele><time>2026-03-28T18:30:35Z</time></trkpt><trkpt lat="45.535788350222695" lon="10.142308815637888"><ele>119.0</ele><time>2026-03-28T18:30:36Z</time></trkpt><trkpt lat="45.53565247269812" lon="10.142586209237026"><ele>120.0</ele><time>2026-03-28T18:30:37Z</time></trkpt><trkpt lat="45.53551403102051" lon="10.142868357754004"><ele>119.5</ele><time>2026-03-28T18:30:38Z</time></trkpt><trkpt lat="45.53537665332847" lon="10.143148122888073"><ele>119.0</ele><time>2026-03-28T18:30:39Z</time></trkpt><trkpt lat="45.53524227733366" lon="10.143425121854191"><ele>119.0</ele><time>2026-03-28T18:30:40Z</time></trkpt><trkpt lat="45.53510888660076" lon="10.143703162633244"><ele>119.0</ele><time>2026-03-28T18:30:41Z</time></trkpt><trkpt lat="45.534972879292724" lon="10.143985579486477"><ele>119.5</ele><time>2026-03-28T18:30:42Z</time></trkpt><trkpt lat="45.534838179086115" lon="10.144270877741103"><ele>120.0</ele><time>2026-03-28T18:30:43Z</time></trkpt><trkpt lat="45.53470674632348" lon="10.144557073297793"><ele>120.0</ele><time>2026-03-28T18:30:44Z</time></trkpt><trkpt lat="45.53457184471678" lon="10.144843781447186"><ele>120.0</ele><time>2026-03-28T18:30:45Z</time></trkpt><trkpt lat="45.53444022826924" lon="10.145136870682489"><ele>120.5</ele><time>2026-03-28T18:30:46Z</time></trkpt><trkpt lat="45.53430514784976" lon="10.145427330463729"><ele>121.0</ele><time>2026-03-28T18:30:47Z</time></trkpt><trkpt lat="45.53416187117807" lon="10.145719281867768"><ele>121.0</ele><time>2026-03-28T18:30:48Z</time></trkpt><trkpt lat="45.53402047188217" lon="10.14601595460272"><ele>121.0</ele><time>2026-03-28T18:30:49Z</time></trkpt><trkpt lat="45.53388364872703" lon="10.14630886473416"><ele>121.0</ele><time>2026-03-28T18:30:50Z</time></trkpt><trkpt lat="45.53374626184811" lon="10.146608712875246"><ele>121.0</ele><time>2026-03-28T18:30:51Z</time></trkpt><trkpt lat="45.5336092763099" lon="10.146907216990753"><ele>121.0</ele><time>2026-03-28T18:30:52Z</time></trkpt><trkpt lat="45.53347356444386" lon="10.147212917207183"><ele>121.0</ele><time>2026-03-28T18:30:53Z</time></trkpt><trkpt lat="45.53333671188585" lon="10.147519830714453"><ele>120.5</ele><time>2026-03-28T18:30:54Z</time></trkpt><trkpt lat="45.533202873605674" lon="10.147833202684637"><ele>120.0</ele><time>2026-03-28T18:30:55Z</time></trkpt><trkpt lat="45.53307490231132" lon="10.148138268688736"><ele>120.0</ele><time>2026-03-28T18:30:56Z</time></trkpt><trkpt lat="45.53294211050892" lon="10.148439181479993"><ele>120.0</ele><time>2026-03-28T18:30:57Z</time></trkpt><trkpt lat="45.532810533989114" lon="10.148739334311356"><ele>120.0</ele><time>2026-03-28T18:30:58Z</time></trkpt><trkpt lat="45.53267393074168" lon="10.14903841419715"><ele>120.0</ele><time>2026-03-28T18:30:59Z</time></trkpt><trkpt lat="45.53254081611471" lon="10.149331583006745"><ele>120.0</ele><time>2026-03-28T18:31:00Z</time></trkpt><trkpt lat="45.53240853282486" lon="10.14962455150387"><ele>120.0</ele><time>2026-03-28T18:31:01Z</time></trkpt><trkpt lat="45.53227872021424" lon="10.149919198663904"><ele>120.5</ele><time>2026-03-28T18:31:02Z</time></trkpt><trkpt lat="45.532150699285815" lon="10.150209917236616"><ele>121.0</ele><time>2026-03-28T18:31:03Z</time></trkpt><trkpt lat="45.532019108137256" lon="10.150497472823808"><ele>121.0</ele><time>2026-03-28T18:31:04Z</time></trkpt><trkpt lat="45.53189056767091" lon="10.150779465553951"><ele>121.0</ele><time>2026-03-28T18:31:05Z</time></trkpt><trkpt lat="45.53175923065902" lon="10.151066155748627"><ele>121.0</ele><time>2026-03-28T18:31:06Z</time></trkpt><trkpt lat="45.53162745015873" lon="10.151350560228513"><ele>121.0</ele><time>2026-03-28T18:31:07Z</time></trkpt><trkpt lat="45.531495157702935" lon="10.151642964488033"><ele>120.5</ele><time>2026-03-28T18:31:08Z</time></trkpt><trkpt lat="45.531369985205814" lon="10.151940579766737"><ele>120.0</ele><time>2026-03-28T18:31:09Z</time></trkpt><trkpt lat="45.5312362024215" lon="10.152233110420473"><ele>121.0</ele><time>2026-03-28T18:31:10Z</time></trkpt><trkpt lat="45.53110919634831" lon="10.152529459558501"><ele>122.0</ele><time>2026-03-28T18:31:11Z</time></trkpt><trkpt lat="45.53098041219689" lon="10.152828889869502"><ele>122.0</ele><time>2026-03-28T18:31:12Z</time></trkpt><trkpt lat="45.530860100097755" lon="10.153128109164848"><ele>122.0</ele><time>2026-03-28T18:31:13Z</time></trkpt><trkpt lat="45.530724096926534" lon="10.153412031876691"><ele>122.5</ele><time>2026-03-28T18:31:14Z</time></trkpt><trkpt lat="45.53058877533127" lon="10.153696980890146"><ele>123.0</ele><time>2026-03-28T18:31:15Z</time></trkpt><trkpt lat="45.530460446264975" lon="10.153976989390497"><ele>122.5</ele><time>2026-03-28T18:31:16Z</time></trkpt><trkpt lat="45.53033532593133" lon="10.154264799568802"><ele>122.0</ele><time>2026-03-28T18:31:16.999Z</time></trkpt><trkpt lat="45.53020931020726" lon="10.154554608119952"><ele>122.0</ele><time>2026-03-28T18:31:17.999Z</time></trkpt><trkpt lat="45.53008297739497" lon="10.154840112624763"><ele>122.0</ele><time>2026-03-28T18:31:18.999Z</time></trkpt><trkpt lat="45.52995561250654" lon="10.155128385608238"><ele>123.0</ele><time>2026-03-28T18:31:19.999Z</time></trkpt><trkpt lat="45.52981673138345" lon="10.155419215677222"><ele>124.0</ele><time>2026-03-28T18:31:20.999Z</time></trkpt><trkpt lat="45.529678455152656" lon="10.155714599445714"><ele>125.0</ele><time>2026-03-28T18:31:21.999Z</time></trkpt><trkpt lat="45.52954229513793" lon="10.156008307335533"><ele>126.0</ele><time>2026-03-28T18:31:22.999Z</time></trkpt><trkpt lat="45.52940925420533" lon="10.156299199247993"><ele>124.5</ele><time>2026-03-28T18:31:23.999Z</time></trkpt><trkpt lat="45.5292776645679" lon="10.15658806905712"><ele>123.0</ele><time>2026-03-28T18:31:24.999Z</time></trkpt><trkpt lat="45.52914433261287" lon="10.15687721392478"><ele>123.0</ele><time>2026-03-28T18:31:25.999Z</time></trkpt><trkpt lat="45.52901698652423" lon="10.157164078470705"><ele>123.0</ele><time>2026-03-28T18:31:26.999Z</time></trkpt><trkpt lat="45.52888829261671" lon="10.157454008171861"><ele>123.0</ele><time>2026-03-28T18:31:27.999Z</time></trkpt><trkpt lat="45.52875980529577" lon="10.157735058094342"><ele>123.0</ele><time>2026-03-28T18:31:28.999Z</time></trkpt><trkpt lat="45.52862403602334" lon="10.158013261135869"><ele>123.0</ele><time>2026-03-28T18:31:29.999Z</time></trkpt><trkpt lat="45.52850294336772" lon="10.158310249962492"><ele>123.0</ele><time>2026-03-28T18:31:30.999Z</time></trkpt><trkpt lat="45.528360257673356" lon="10.158590047322472"><ele>123.0</ele><time>2026-03-28T18:31:31.999Z</time></trkpt><trkpt lat="45.52822624373822" lon="10.158879331647638"><ele>123.0</ele><time>2026-03-28T18:31:32.999Z</time></trkpt><trkpt lat="45.528093727635" lon="10.159168605901673"><ele>122.5</ele><time>2026-03-28T18:31:33.999Z</time></trkpt><trkpt lat="45.527958067622954" lon="10.159458218143229"><ele>122.0</ele><time>2026-03-28T18:31:34.999Z</time></trkpt><trkpt lat="45.52782018126293" lon="10.159746671809483"><ele>121.0</ele><time>2026-03-28T18:31:35.999Z</time></trkpt><trkpt lat="45.527679505683096" lon="10.160036020284103"><ele>120.0</ele><time>2026-03-28T18:31:36.999Z</time></trkpt><trkpt lat="45.52754309146127" lon="10.160321228573661"><ele>120.0</ele><time>2026-03-28T18:31:37.999Z</time></trkpt><trkpt lat="45.5274087238819" lon="10.160612824524947"><ele>120.0</ele><time>2026-03-28T18:31:38.999Z</time></trkpt><trkpt lat="45.52727151014845" lon="10.160904287901714"><ele>121.0</ele><time>2026-03-28T18:31:39.999Z</time></trkpt><trkpt lat="45.52713743190209" lon="10.161207699200162"><ele>122.0</ele><time>2026-03-28T18:31:40.999Z</time></trkpt><trkpt lat="45.52700307583429" lon="10.16150281390227"><ele>122.0</ele><time>2026-03-28T18:31:41.999Z</time></trkpt><trkpt lat="45.526867485764235" lon="10.161796476489117"><ele>122.0</ele><time>2026-03-28T18:31:42.999Z</time></trkpt><trkpt lat="45.5267311368962" lon="10.162087632894401"><ele>122.5</ele><time>2026-03-28T18:31:43.999Z</time></trkpt><trkpt lat="45.52659481073593" lon="10.16237537657435"><ele>123.0</ele><time>2026-03-28T18:31:44.999Z</time></trkpt><trkpt lat="45.52645486707197" lon="10.162663865746811"><ele>123.0</ele><time>2026-03-28T18:31:45.999Z</time></trkpt><trkpt lat="45.52631262522701" lon="10.162953885254193"><ele>123.0</ele><time>2026-03-28T18:31:46.999Z</time></trkpt><trkpt lat="45.526172187664514" lon="10.163245922606086"><ele>122.5</ele><time>2026-03-28T18:31:47.999Z</time></trkpt><trkpt lat="45.52603850057238" lon="10.163541620303835"><ele>122.0</ele><time>2026-03-28T18:31:48.999Z</time></trkpt><trkpt lat="45.52590634821248" lon="10.163835889702002"><ele>122.5</ele><time>2026-03-28T18:31:49.999Z</time></trkpt><trkpt lat="45.52577649827432" lon="10.164127275775433"><ele>123.0</ele><time>2026-03-28T18:31:50.999Z</time></trkpt><trkpt lat="45.525652012080975" lon="10.164410553140245"><ele>123.0</ele><time>2026-03-28T18:31:51.999Z</time></trkpt><trkpt lat="45.52553126979489" lon="10.164688407952433"><ele>123.0</ele><time>2026-03-28T18:31:52.999Z</time></trkpt><trkpt lat="45.52540768255314" lon="10.164966846792444"><ele>122.0</ele><time>2026-03-28T18:31:53.999Z</time></trkpt><trkpt lat="45.525279327627175" lon="10.16524711738496"><ele>121.0</ele><time>2026-03-28T18:31:54.999Z</time></trkpt><trkpt lat="45.52515513710075" lon="10.16552341797048"><ele>122.0</ele><time>2026-03-28T18:31:55.999Z</time></trkpt><trkpt lat="45.52503352084535" lon="10.165810296070553"><ele>123.0</ele><time>2026-03-28T18:31:56.999Z</time></trkpt><trkpt lat="45.52491312704624" lon="10.166081864209696"><ele>123.0</ele><time>2026-03-28T18:31:57.999Z</time></trkpt><trkpt lat="45.524788684333984" lon="10.166356755993897"><ele>123.0</ele><time>2026-03-28T18:31:58.999Z</time></trkpt><trkpt lat="45.52466904136531" lon="10.166634984582137"><ele>123.0</ele><time>2026-03-28T18:31:59.999Z</time></trkpt><trkpt lat="45.52454588922191" lon="10.166912934442175"><ele>123.0</ele><time>2026-03-28T18:32:00.999Z</time></trkpt><trkpt lat="45.52442536947047" lon="10.167191989136478"><ele>123.5</ele><time>2026-03-28T18:32:01.999Z</time></trkpt><trkpt lat="45.52430149512666" lon="10.1674697173015"><ele>124.0</ele><time>2026-03-28T18:32:02.999Z</time></trkpt><trkpt lat="45.524177447533404" lon="10.167750467368368"><ele>124.0</ele><time>2026-03-28T18:32:03.999Z</time></trkpt><trkpt lat="45.524053732877356" lon="10.16803309819345"><ele>124.0</ele><time>2026-03-28T18:32:04.999Z</time></trkpt><trkpt lat="45.52393507083476" lon="10.168317233381789"><ele>123.0</ele><time>2026-03-28T18:32:05.999Z</time></trkpt><trkpt lat="45.52379250134371" lon="10.168616800065237"><ele>122.0</ele><time>2026-03-28T18:32:06.999Z</time></trkpt><trkpt lat="45.52367638772197" lon="10.1689098186201"><ele>120.5</ele><time>2026-03-28T18:32:07.999Z</time></trkpt><trkpt lat="45.52354435519249" lon="10.169210556321897"><ele>119.0</ele><time>2026-03-28T18:32:08.999Z</time></trkpt><trkpt lat="45.52341825836507" lon="10.169498437083138"><ele>119.0</ele><time>2026-03-28T18:32:09.999Z</time></trkpt><trkpt lat="45.52330665231648" lon="10.169762486001384"><ele>119.0</ele><time>2026-03-28T18:32:10.999Z</time></trkpt><trkpt lat="45.5232024071155" lon="10.170019247022953"><ele>119.0</ele><time>2026-03-28T18:32:12Z</time></trkpt><trkpt lat="45.52309548700247" lon="10.170272354881503"><ele>118.66666666666666</ele><time>2026-03-28T18:32:13Z</time></trkpt><trkpt lat="45.52298733973567" lon="10.170510223677969"><ele>118.33333333333334</ele><time>2026-03-28T18:32:14Z</time></trkpt><trkpt lat="45.52288934300367" lon="10.170732227807282"><ele>118.0</ele><time>2026-03-28T18:32:15Z</time></trkpt><trkpt lat="45.52279988807004" lon="10.170941402151389"><ele>118.0</ele><time>2026-03-28T18:32:16Z</time></trkpt><trkpt lat="45.522716786460386" lon="10.171145756409029"><ele>118.0</ele><time>2026-03-28T18:32:17Z</time></trkpt><trkpt lat="45.522632385874616" lon="10.171359936426303"><ele>118.0</ele><time>2026-03-28T18:32:18Z</time></trkpt><trkpt lat="45.52255103089755" lon="10.171590575704856"><ele>117.66666666666667</ele><time>2026-03-28T18:32:19Z</time></trkpt><trkpt lat="45.52246640977734" lon="10.171824470124214"><ele>117.33333333333334</ele><time>2026-03-28T18:32:20Z</time></trkpt><trkpt lat="45.522383690879195" lon="10.172091255555966"><ele>117.0</ele><time>2026-03-28T18:32:21Z</time></trkpt><trkpt lat="45.52229218577107" lon="10.172396302107503"><ele>117.0</ele><time>2026-03-28T18:32:22Z</time></trkpt><trkpt lat="45.522190877334936" lon="10.172731419619327"><ele>117.0</ele><time>2026-03-28T18:32:23Z</time></trkpt><trkpt lat="45.522069359337806" lon="10.173082184327228"><ele>120.5</ele><time>2026-03-28T18:32:24Z</time></trkpt><trkpt lat="45.52193819693313" lon="10.173458377603861"><ele>124.0</ele><time>2026-03-28T18:32:25Z</time></trkpt><trkpt lat="45.52181764227191" lon="10.173835526431235"><ele>123.0</ele><time>2026-03-28T18:32:26Z</time></trkpt><trkpt lat="45.521692733807505" lon="10.174228765301665"><ele>122.0</ele><time>2026-03-28T18:32:27Z</time></trkpt><trkpt lat="45.521581118866635" lon="10.174627570475494"><ele>121.5</ele><time>2026-03-28T18:32:28Z</time></trkpt><trkpt lat="45.52148236861209" lon="10.175027062224324"><ele>121.0</ele><time>2026-03-28T18:32:29Z</time></trkpt><trkpt lat="45.52138569418468" lon="10.175427043943502"><ele>121.0</ele><time>2026-03-28T18:32:30Z</time></trkpt><trkpt lat="45.521287880424225" lon="10.175816807416806"><ele>121.0</ele><time>2026-03-28T18:32:31Z</time></trkpt><trkpt lat="45.521201614539855" lon="10.176229476341131"><ele>120.5</ele><time>2026-03-28T18:32:32Z</time></trkpt><trkpt lat="45.521124461561094" lon="10.176647502167286"><ele>120.0</ele><time>2026-03-28T18:32:33Z</time></trkpt><trkpt lat="45.521044618275425" lon="10.177048323741944"><ele>119.0</ele><time>2026-03-28T18:32:34Z</time></trkpt><trkpt lat="45.52097127777993" lon="10.177441899651145"><ele>118.0</ele><time>2026-03-28T18:32:35Z</time></trkpt><trkpt lat="45.52090091057511" lon="10.177852552712407"><ele>119.0</ele><time>2026-03-28T18:32:36Z</time></trkpt><trkpt lat="45.5208392448622" lon="10.178253615679447"><ele>120.0</ele><time>2026-03-28T18:32:37Z</time></trkpt><trkpt lat="45.52078072957654" lon="10.178644616918582"><ele>120.0</ele><time>2026-03-28T18:32:38Z</time></trkpt><trkpt lat="45.52072829300051" lon="10.179011480395232"><ele>120.0</ele><time>2026-03-28T18:32:39Z</time></trkpt><trkpt lat="45.52068501096472" lon="10.179350206310263"><ele>120.5</ele><time>2026-03-28T18:32:40Z</time></trkpt><trkpt lat="45.520648438132554" lon="10.179717131763587"><ele>121.0</ele><time>2026-03-28T18:32:41Z</time></trkpt><trkpt lat="45.52061637643693" lon="10.180066374044006"><ele>121.0</ele><time>2026-03-28T18:32:42Z</time></trkpt><trkpt lat="45.52058066091833" lon="10.180420254571127"><ele>121.0</ele><time>2026-03-28T18:32:43Z</time></trkpt><trkpt lat="45.520537527523125" lon="10.180774656065292"><ele>120.0</ele><time>2026-03-28T18:32:44Z</time></trkpt><trkpt lat="45.52049594283567" lon="10.181128639065719"><ele>119.0</ele><time>2026-03-28T18:32:45Z</time></trkpt><trkpt lat="45.520458286729884" lon="10.181473864193876"><ele>120.0</ele><time>2026-03-28T18:32:46Z</time></trkpt><trkpt lat="45.52041749636078" lon="10.18180581400627"><ele>121.0</ele><time>2026-03-28T18:32:47Z</time></trkpt><trkpt lat="45.520375191137326" lon="10.182149708181875"><ele>122.0</ele><time>2026-03-28T18:32:48Z</time></trkpt><trkpt lat="45.5203367510107" lon="10.182486458453564"><ele>123.0</ele><time>2026-03-28T18:32:49Z</time></trkpt><trkpt lat="45.52030239699413" lon="10.182817506414148"><ele>123.0</ele><time>2026-03-28T18:32:50Z</time></trkpt><trkpt lat="45.520266500673465" lon="10.183153496304426"><ele>123.0</ele><time>2026-03-28T18:32:51Z</time></trkpt><trkpt lat="45.52022756426946" lon="10.183480266814351"><ele>123.0</ele><time>2026-03-28T18:32:52Z</time></trkpt><trkpt lat="45.520193772258274" lon="10.183807849405339"><ele>123.0</ele><time>2026-03-28T18:32:53Z</time></trkpt><trkpt lat="45.52016071502064" lon="10.184129044564132"><ele>122.5</ele><time>2026-03-28T18:32:54Z</time></trkpt><trkpt lat="45.52012278533044" lon="10.184453779267619"><ele>122.0</ele><time>2026-03-28T18:32:55Z</time></trkpt><trkpt lat="45.520085587608186" lon="10.18477779425356"><ele>122.5</ele><time>2026-03-28T18:32:56Z</time></trkpt><trkpt lat="45.52004473867139" lon="10.185096655571563"><ele>123.0</ele><time>2026-03-28T18:32:57Z</time></trkpt><trkpt lat="45.52001165571078" lon="10.18541672101754"><ele>122.5</ele><time>2026-03-28T18:32:58Z</time></trkpt><trkpt lat="45.519977098950086" lon="10.185736057200522"><ele>122.0</ele><time>2026-03-28T18:32:59Z</time></trkpt><trkpt lat="45.51994141810996" lon="10.186061936784577"><ele>122.0</ele><time>2026-03-28T18:33:00Z</time></trkpt><trkpt lat="45.519907070514705" lon="10.18639385895611"><ele>122.0</ele><time>2026-03-28T18:33:01Z</time></trkpt><trkpt lat="45.51986961633258" lon="10.18672932545954"><ele>122.0</ele><time>2026-03-28T18:33:02Z</time></trkpt><trkpt lat="45.51982755079121" lon="10.1870683328225"><ele>122.0</ele><time>2026-03-28T18:33:03Z</time></trkpt><trkpt lat="45.519787142168944" lon="10.187402148902416"><ele>122.5</ele><time>2026-03-28T18:33:04Z</time></trkpt><trkpt lat="45.519747365128474" lon="10.187734700338751"><ele>123.0</ele><time>2026-03-28T18:33:05Z</time></trkpt><trkpt lat="45.51971162866739" lon="10.188067780252032"><ele>122.5</ele><time>2026-03-28T18:33:06Z</time></trkpt><trkpt lat="45.51967007364005" lon="10.18841018667776"><ele>122.0</ele><time>2026-03-28T18:33:07Z</time></trkpt><trkpt lat="45.519633382770195" lon="10.188756322396625"><ele>121.5</ele><time>2026-03-28T18:33:08Z</time></trkpt><trkpt lat="45.51959458452511" lon="10.18910137884122"><ele>121.0</ele><time>2026-03-28T18:33:09Z</time></trkpt><trkpt lat="45.5195551447593" lon="10.189449887526962"><ele>120.5</ele><time>2026-03-28T18:33:10Z</time></trkpt><trkpt lat="45.51951558630635" lon="10.189802743945789"><ele>120.0</ele><time>2026-03-28T18:33:11Z</time></trkpt><trkpt lat="45.519476462108926" lon="10.190154193167919"><ele>120.0</ele><time>2026-03-28T18:33:12Z</time></trkpt><trkpt lat="45.51943704203308" lon="10.19050800956432"><ele>120.0</ele><time>2026-03-28T18:33:13Z</time></trkpt><trkpt lat="45.51939591726745" lon="10.19086336521432"><ele>121.5</ele><time>2026-03-28T18:33:14Z</time></trkpt><trkpt lat="45.519374055337806" lon="10.191232336023702"><ele>123.0</ele><time>2026-03-28T18:33:15Z</time></trkpt><trkpt lat="45.519322277495846" lon="10.191574565243199"><ele>123.0</ele><time>2026-03-28T18:33:16Z</time></trkpt><trkpt lat="45.51928033046518" lon="10.191925165986662"><ele>123.0</ele><time>2026-03-28T18:33:17Z</time></trkpt><trkpt lat="45.519244918857936" lon="10.19227967258258"><ele>122.5</ele><time>2026-03-28T18:33:18Z</time></trkpt><trkpt lat="45.519198629400584" lon="10.192633175681248"><ele>122.0</ele><time>2026-03-28T18:33:19Z</time></trkpt><trkpt lat="45.51915517928365" lon="10.192989220857433"><ele>122.5</ele><time>2026-03-28T18:33:19.999Z</time></trkpt><trkpt lat="45.51911449802399" lon="10.193342007976572"><ele>123.0</ele><time>2026-03-28T18:33:20.999Z</time></trkpt><trkpt lat="45.51907400852294" lon="10.193690097796294"><ele>123.0</ele><time>2026-03-28T18:33:21.999Z</time></trkpt><trkpt lat="45.51903466853028" lon="10.19403242366961"><ele>123.0</ele><time>2026-03-28T18:33:22.999Z</time></trkpt><trkpt lat="45.51899577557263" lon="10.194379744146799"><ele>123.0</ele><time>2026-03-28T18:33:23.999Z</time></trkpt><trkpt lat="45.51895417246572" lon="10.194708917572983"><ele>123.0</ele><time>2026-03-28T18:33:24.999Z</time></trkpt><trkpt lat="45.51892202094493" lon="10.195051394635827"><ele>122.5</ele><time>2026-03-28T18:33:25.999Z</time></trkpt><trkpt lat="45.51888161419887" lon="10.195389638371056"><ele>122.0</ele><time>2026-03-28T18:33:26.999Z</time></trkpt><trkpt lat="45.51884132478733" lon="10.19572414551845"><ele>122.0</ele><time>2026-03-28T18:33:27.999Z</time></trkpt><trkpt lat="45.51880066471731" lon="10.19605923105532"><ele>122.0</ele><time>2026-03-28T18:33:28.999Z</time></trkpt><trkpt lat="45.51876357465207" lon="10.196393210529617"><ele>123.0</ele><time>2026-03-28T18:33:29.999Z</time></trkpt><trkpt lat="45.518722810026" lon="10.196736403965428"><ele>124.0</ele><time>2026-03-28T18:33:30.999Z</time></trkpt><trkpt lat="45.51868579399912" lon="10.197074725020931"><ele>123.0</ele><time>2026-03-28T18:33:31.999Z</time></trkpt><trkpt lat="45.518641729638404" lon="10.197416225247036"><ele>122.0</ele><time>2026-03-28T18:33:32.999Z</time></trkpt><trkpt lat="45.51859378928299" lon="10.197765483449823"><ele>122.0</ele><time>2026-03-28T18:33:33.999Z</time></trkpt><trkpt lat="45.51853547064694" lon="10.19810033622688"><ele>122.0</ele><time>2026-03-28T18:33:34.999Z</time></trkpt><trkpt lat="45.5184691130425" lon="10.198429070113322"><ele>122.0</ele><time>2026-03-28T18:33:35.999Z</time></trkpt><trkpt lat="45.518395215958805" lon="10.198756654255156"><ele>122.0</ele><time>2026-03-28T18:33:36.999Z</time></trkpt><trkpt lat="45.51831755595399" lon="10.19907980600088"><ele>122.0</ele><time>2026-03-28T18:33:37.999Z</time></trkpt><trkpt lat="45.51822984607376" lon="10.199400522192548"><ele>122.0</ele><time>2026-03-28T18:33:38.999Z</time></trkpt><trkpt lat="45.51813415660388" lon="10.199719829163234"><ele>122.0</ele><time>2026-03-28T18:33:39.999Z</time></trkpt><trkpt lat="45.51803238825165" lon="10.200030389433728"><ele>122.0</ele><time>2026-03-28T18:33:40.999Z</time></trkpt><trkpt lat="45.5179306432363" lon="10.20034171590605"><ele>121.5</ele><time>2026-03-28T18:33:41.999Z</time></trkpt><trkpt lat="45.5178300283239" lon="10.200675712522672"><ele>121.0</ele><time>2026-03-28T18:33:42.999Z</time></trkpt><trkpt lat="45.51771586717098" lon="10.201017262885351"><ele>121.0</ele><time>2026-03-28T18:33:43.999Z</time></trkpt><trkpt lat="45.51759782374765" lon="10.201358158012253"><ele>121.0</ele><time>2026-03-28T18:33:44.999Z</time></trkpt><trkpt lat="45.51743923395103" lon="10.201690811339246"><ele>121.0</ele><time>2026-03-28T18:33:45.999Z</time></trkpt><trkpt lat="45.5172886233174" lon="10.201998217656369"><ele>121.0</ele><time>2026-03-28T18:33:46.999Z</time></trkpt><trkpt lat="45.51714505231303" lon="10.202289864276024"><ele>120.0</ele><time>2026-03-28T18:33:47.999Z</time></trkpt><trkpt lat="45.517004362670626" lon="10.202588624902443"><ele>119.0</ele><time>2026-03-28T18:33:48.999Z</time></trkpt><trkpt lat="45.51686173317428" lon="10.20288581829673"><ele>120.0</ele><time>2026-03-28T18:33:49.999Z</time></trkpt><trkpt lat="45.51671040125064" lon="10.20317684753228"><ele>121.0</ele><time>2026-03-28T18:33:50.999Z</time></trkpt><trkpt lat="45.516563106403424" lon="10.203476853814777"><ele>121.0</ele><time>2026-03-28T18:33:51.999Z</time></trkpt><trkpt lat="45.51642225665821" lon="10.203784775999505"><ele>121.0</ele><time>2026-03-28T18:33:52.999Z</time></trkpt><trkpt lat="45.51628761636745" lon="10.204074181614555"><ele>120.5</ele><time>2026-03-28T18:33:53.999Z</time></trkpt><trkpt lat="45.51615229765272" lon="10.204375079475852"><ele>120.0</ele><time>2026-03-28T18:33:54.999Z</time></trkpt><trkpt lat="45.51601323962225" lon="10.204662854943544"><ele>120.5</ele><time>2026-03-28T18:33:55.999Z</time></trkpt><trkpt lat="45.515884516985544" lon="10.20497356644029"><ele>121.0</ele><time>2026-03-28T18:33:56.999Z</time></trkpt><trkpt lat="45.51574506395584" lon="10.205261654123175"><ele>121.0</ele><time>2026-03-28T18:33:57.999Z</time></trkpt><trkpt lat="45.51558637829685" lon="10.205573501846208"><ele>121.0</ele><time>2026-03-28T18:33:58.999Z</time></trkpt><trkpt lat="45.515453386927696" lon="10.20586945766224"><ele>122.0</ele><time>2026-03-28T18:33:59.999Z</time></trkpt><trkpt lat="45.515313344984555" lon="10.20617041080122"><ele>123.0</ele><time>2026-03-28T18:34:00.999Z</time></trkpt><trkpt lat="45.51517505131412" lon="10.206472376568277"><ele>122.5</ele><time>2026-03-28T18:34:01.999Z</time></trkpt><trkpt lat="45.51503681500574" lon="10.206774866164505"><ele>122.0</ele><time>2026-03-28T18:34:02.999Z</time></trkpt><trkpt lat="45.514901557508864" lon="10.207072614992885"><ele>120.5</ele><time>2026-03-28T18:34:03.999Z</time></trkpt><trkpt lat="45.51475923881436" lon="10.207373320250392"><ele>119.0</ele><time>2026-03-28T18:34:04.999Z</time></trkpt><trkpt lat="45.51461714658954" lon="10.207671201695728"><ele>119.0</ele><time>2026-03-28T18:34:05.999Z</time></trkpt><trkpt lat="45.514481848044554" lon="10.207972973455886"><ele>119.0</ele><time>2026-03-28T18:34:06.999Z</time></trkpt><trkpt lat="45.51434748216215" lon="10.208267532616427"><ele>118.0</ele><time>2026-03-28T18:34:07.999Z</time></trkpt><trkpt lat="45.51422010642151" lon="10.208552698987413"><ele>117.0</ele><time>2026-03-28T18:34:08.999Z</time></trkpt><trkpt lat="45.51408146729124" lon="10.208857028190746"><ele>118.0</ele><time>2026-03-28T18:34:09.999Z</time></trkpt><trkpt lat="45.51394563286133" lon="10.209151474064438"><ele>119.0</ele><time>2026-03-28T18:34:10.999Z</time></trkpt><trkpt lat="45.513809189072084" lon="10.209443562601587"><ele>120.0</ele><time>2026-03-28T18:34:11.999Z</time></trkpt><trkpt lat="45.51367250693043" lon="10.20974095427698"><ele>121.0</ele><time>2026-03-28T18:34:12.999Z</time></trkpt><trkpt lat="45.5135370385414" lon="10.210036834219249"><ele>123.0</ele><time>2026-03-28T18:34:13.999Z</time></trkpt><trkpt lat="45.51339919285065" lon="10.21033890325092"><ele>125.0</ele><time>2026-03-28T18:34:14.999Z</time></trkpt><trkpt lat="45.51326363708459" lon="10.210636332552113"><ele>123.0</ele><time>2026-03-28T18:34:15.999Z</time></trkpt><trkpt lat="45.51312559698677" lon="10.210934693066932"><ele>121.0</ele><time>2026-03-28T18:34:16.999Z</time></trkpt><trkpt lat="45.51298908346275" lon="10.21122667956668"><ele>122.0</ele><time>2026-03-28T18:34:18Z</time></trkpt><trkpt lat="45.51285682141086" lon="10.211513377310931"><ele>123.0</ele><time>2026-03-28T18:34:19Z</time></trkpt><trkpt lat="45.51272273165619" lon="10.21180206849921"><ele>123.0</ele><time>2026-03-28T18:34:20Z</time></trkpt><trkpt lat="45.51258927622403" lon="10.212087653698877"><ele>123.0</ele><time>2026-03-28T18:34:21Z</time></trkpt><trkpt lat="45.51245373179547" lon="10.21237804869292"><ele>122.0</ele><time>2026-03-28T18:34:22Z</time></trkpt><trkpt lat="45.51231983272419" lon="10.212676181433414"><ele>121.0</ele><time>2026-03-28T18:34:23Z</time></trkpt><trkpt lat="45.51218451156092" lon="10.21297465779209"><ele>118.5</ele><time>2026-03-28T18:34:24Z</time></trkpt><trkpt lat="45.51204744349126" lon="10.213273553748483"><ele>116.0</ele><time>2026-03-28T18:34:25Z</time></trkpt><trkpt lat="45.511909258151256" lon="10.213575609816527"><ele>116.0</ele><time>2026-03-28T18:34:26Z</time></trkpt><trkpt lat="45.511762872992264" lon="10.21387084022266"><ele>116.0</ele><time>2026-03-28T18:34:27Z</time></trkpt><trkpt lat="45.51162600670304" lon="10.214178840948035"><ele>117.0</ele><time>2026-03-28T18:34:28Z</time></trkpt><trkpt lat="45.51148360705389" lon="10.21448864875311"><ele>118.0</ele><time>2026-03-28T18:34:29Z</time></trkpt><trkpt lat="45.51134086362979" lon="10.214805003797743"><ele>118.5</ele><time>2026-03-28T18:34:30Z</time></trkpt><trkpt lat="45.51119590120955" lon="10.215116318018735"><ele>119.0</ele><time>2026-03-28T18:34:31Z</time></trkpt><trkpt lat="45.511053000998665" lon="10.215428311055035"><ele>119.0</ele><time>2026-03-28T18:34:32Z</time></trkpt><trkpt lat="45.51090457026759" lon="10.215734560207459"><ele>119.0</ele><time>2026-03-28T18:34:33Z</time></trkpt><trkpt lat="45.51077136556222" lon="10.216037290178644"><ele>119.0</ele><time>2026-03-28T18:34:34Z</time></trkpt><trkpt lat="45.51063213384346" lon="10.216327339761751"><ele>119.0</ele><time>2026-03-28T18:34:35Z</time></trkpt><trkpt lat="45.51048664085388" lon="10.216619345316111"><ele>118.5</ele><time>2026-03-28T18:34:36Z</time></trkpt><trkpt lat="45.510362138017776" lon="10.216896258861407"><ele>118.0</ele><time>2026-03-28T18:34:37Z</time></trkpt><trkpt lat="45.51023349840605" lon="10.217174322054953"><ele>119.0</ele><time>2026-03-28T18:34:38Z</time></trkpt><trkpt lat="45.51010785685268" lon="10.217449014643835"><ele>120.0</ele><time>2026-03-28T18:34:39Z</time></trkpt><trkpt lat="45.509981788538596" lon="10.21773107970369"><ele>120.0</ele><time>2026-03-28T18:34:40Z</time></trkpt><trkpt lat="45.509849275855714" lon="10.218011806575332"><ele>120.0</ele><time>2026-03-28T18:34:41Z</time></trkpt><trkpt lat="45.509722919371555" lon="10.218302965301216"><ele>120.0</ele><time>2026-03-28T18:34:42Z</time></trkpt><trkpt lat="45.50959043802962" lon="10.218584044932523"><ele>120.0</ele><time>2026-03-28T18:34:43Z</time></trkpt><trkpt lat="45.5094549602056" lon="10.218879502165017"><ele>118.5</ele><time>2026-03-28T18:34:44Z</time></trkpt><trkpt lat="45.50931923602185" lon="10.219180347191221"><ele>117.0</ele><time>2026-03-28T18:34:45Z</time></trkpt><trkpt lat="45.509180588601794" lon="10.219479758828884"><ele>117.0</ele><time>2026-03-28T18:34:46Z</time></trkpt><trkpt lat="45.509043225270474" lon="10.219772669146861"><ele>117.0</ele><time>2026-03-28T18:34:47Z</time></trkpt><trkpt lat="45.50890466150621" lon="10.220071974861584"><ele>117.0</ele><time>2026-03-28T18:34:48Z</time></trkpt><trkpt lat="45.50876834798136" lon="10.22037341650126"><ele>117.0</ele><time>2026-03-28T18:34:49Z</time></trkpt><trkpt lat="45.50863705956704" lon="10.220676049609509"><ele>117.5</ele><time>2026-03-28T18:34:50Z</time></trkpt><trkpt lat="45.508490128536984" lon="10.22100128821109"><ele>118.0</ele><time>2026-03-28T18:34:51Z</time></trkpt><trkpt lat="45.50837665381507" lon="10.221288450050594"><ele>117.5</ele><time>2026-03-28T18:34:52Z</time></trkpt><trkpt lat="45.50825618017444" lon="10.221592963637141"><ele>117.0</ele><time>2026-03-28T18:34:53Z</time></trkpt><trkpt lat="45.508140599021154" lon="10.221911156841509"><ele>117.0</ele><time>2026-03-28T18:34:54Z</time></trkpt><trkpt lat="45.50802659378679" lon="10.222223329446072"><ele>117.0</ele><time>2026-03-28T18:34:55Z</time></trkpt><trkpt lat="45.50791831602962" lon="10.222522952746585"><ele>118.0</ele><time>2026-03-28T18:34:56Z</time></trkpt><trkpt lat="45.50781658870579" lon="10.222824919923648"><ele>119.0</ele><time>2026-03-28T18:34:57Z</time></trkpt><trkpt lat="45.507717050037876" lon="10.223130995593165"><ele>119.5</ele><time>2026-03-28T18:34:58Z</time></trkpt><trkpt lat="45.50761575487188" lon="10.223443348225484"><ele>120.0</ele><time>2026-03-28T18:34:59Z</time></trkpt><trkpt lat="45.507514073366146" lon="10.223757175744364"><ele>120.5</ele><time>2026-03-28T18:35:00Z</time></trkpt><trkpt lat="45.507418877699095" lon="10.22407614537575"><ele>121.0</ele><time>2026-03-28T18:35:01Z</time></trkpt><trkpt lat="45.507329586684136" lon="10.224399913744953"><ele>121.0</ele><time>2026-03-28T18:35:02Z</time></trkpt><trkpt lat="45.50724698919752" lon="10.224751873085788"><ele>121.0</ele><time>2026-03-28T18:35:03Z</time></trkpt><trkpt lat="45.507136970935846" lon="10.225111964646175"><ele>118.5</ele><time>2026-03-28T18:35:04Z</time></trkpt><trkpt lat="45.50705806496138" lon="10.225524059015168"><ele>116.0</ele><time>2026-03-28T18:35:05Z</time></trkpt><trkpt lat="45.50696837789646" lon="10.225925423511818"><ele>116.0</ele><time>2026-03-28T18:35:06Z</time></trkpt><trkpt lat="45.50688812852901" lon="10.226294049144892"><ele>116.0</ele><time>2026-03-28T18:35:07Z</time></trkpt><trkpt lat="45.506808853916404" lon="10.22663756888798"><ele>115.0</ele><time>2026-03-28T18:35:08Z</time></trkpt><trkpt lat="45.50673258719759" lon="10.226975589768719"><ele>114.0</ele><time>2026-03-28T18:35:09Z</time></trkpt><trkpt lat="45.50665158301807" lon="10.227313336470198"><ele>112.5</ele><time>2026-03-28T18:35:10Z</time></trkpt><trkpt lat="45.5065891850685" lon="10.227665647690435"><ele>111.0</ele><time>2026-03-28T18:35:11Z</time></trkpt><trkpt lat="45.50653024714265" lon="10.228019291689842"><ele>111.5</ele><time>2026-03-28T18:35:12Z</time></trkpt><trkpt lat="45.506461920935834" lon="10.22834963253803"><ele>112.0</ele><time>2026-03-28T18:35:13Z</time></trkpt><trkpt lat="45.50641498316019" lon="10.228705083846581"><ele>112.5</ele><time>2026-03-28T18:35:14Z</time></trkpt><trkpt lat="45.50637320262965" lon="10.229055638270713"><ele>113.0</ele><time>2026-03-28T18:35:15Z</time></trkpt><trkpt lat="45.50633400435224" lon="10.229399115576525"><ele>113.0</ele><time>2026-03-28T18:35:16Z</time></trkpt><trkpt lat="45.5062956836533" lon="10.229745373392767"><ele>113.0</ele><time>2026-03-28T18:35:17Z</time></trkpt><trkpt lat="45.5062514076371" lon="10.230092575597853"><ele>113.0</ele><time>2026-03-28T18:35:18Z</time></trkpt><trkpt lat="45.50621111518206" lon="10.230439308042332"><ele>113.0</ele><time>2026-03-28T18:35:19Z</time></trkpt><trkpt lat="45.506166460113114" lon="10.230788409125154"><ele>113.0</ele><time>2026-03-28T18:35:20Z</time></trkpt><trkpt lat="45.50611867383564" lon="10.23113221146158"><ele>113.0</ele><time>2026-03-28T18:35:21Z</time></trkpt><trkpt lat="45.506076624597476" lon="10.231478388877317"><ele>113.5</ele><time>2026-03-28T18:35:22Z</time></trkpt><trkpt lat="45.50603564550408" lon="10.231817792271002"><ele>114.0</ele><time>2026-03-28T18:35:23Z</time></trkpt><trkpt lat="45.50599176567934" lon="10.232159433955896"><ele>113.0</ele><time>2026-03-28T18:35:24Z</time></trkpt><trkpt lat="45.50594944707232" lon="10.232495314208304"><ele>112.0</ele><time>2026-03-28T18:35:25Z</time></trkpt><trkpt lat="45.50590542727504" lon="10.23283207970532"><ele>113.0</ele><time>2026-03-28T18:35:26Z</time></trkpt><trkpt lat="45.50585649660578" lon="10.233169423396852"><ele>114.0</ele><time>2026-03-28T18:35:27Z</time></trkpt><trkpt lat="45.50579669792851" lon="10.23350736485753"><ele>114.0</ele><time>2026-03-28T18:35:28Z</time></trkpt><trkpt lat="45.50573472067698" lon="10.233842922021084"><ele>114.0</ele><time>2026-03-28T18:35:29Z</time></trkpt><trkpt lat="45.50566830708144" lon="10.234182426059752"><ele>114.0</ele><time>2026-03-28T18:35:30Z</time></trkpt><trkpt lat="45.505607496498115" lon="10.234510109945676"><ele>114.0</ele><time>2026-03-28T18:35:30.999Z</time></trkpt><trkpt lat="45.50553727306407" lon="10.234837095433654"><ele>113.5</ele><time>2026-03-28T18:35:31.999Z</time></trkpt><trkpt lat="45.50546131252671" lon="10.235171821231175"><ele>113.0</ele><time>2026-03-28T18:35:32.999Z</time></trkpt><trkpt lat="45.50538584737169" lon="10.235498778502388"><ele>115.0</ele><time>2026-03-28T18:35:33.999Z</time></trkpt><trkpt lat="45.5053074400339" lon="10.235820452392067"><ele>117.0</ele><time>2026-03-28T18:35:34.999Z</time></trkpt><trkpt lat="45.505229194962205" lon="10.236153336636052"><ele>116.5</ele><time>2026-03-28T18:35:35.999Z</time></trkpt><trkpt lat="45.50515300452489" lon="10.23650537588217"><ele>116.0</ele><time>2026-03-28T18:35:36.999Z</time></trkpt><trkpt lat="45.50507755850499" lon="10.236836548448972"><ele>116.0</ele><time>2026-03-28T18:35:37.999Z</time></trkpt><trkpt lat="45.50500232823196" lon="10.23717331200183"><ele>116.0</ele><time>2026-03-28T18:35:38.999Z</time></trkpt><trkpt lat="45.50492506415856" lon="10.237504316365436"><ele>115.5</ele><time>2026-03-28T18:35:39.999Z</time></trkpt><trkpt lat="45.504847825118915" lon="10.237844905013253"><ele>115.0</ele><time>2026-03-28T18:35:40.999Z</time></trkpt><trkpt lat="45.504772103363536" lon="10.23818550231702"><ele>116.5</ele><time>2026-03-28T18:35:41.999Z</time></trkpt><trkpt lat="45.504697339860016" lon="10.238518506658988"><ele>118.0</ele><time>2026-03-28T18:35:42.999Z</time></trkpt><trkpt lat="45.504620246770074" lon="10.238859374918027"><ele>119.0</ele><time>2026-03-28T18:35:43.999Z</time></trkpt><trkpt lat="45.5045470421519" lon="10.239189384717854"><ele>120.0</ele><time>2026-03-28T18:35:44.999Z</time></trkpt><trkpt lat="45.50448179653717" lon="10.239525435646689"><ele>120.0</ele><time>2026-03-28T18:35:45.999Z</time></trkpt><trkpt lat="45.50441134630321" lon="10.239837811840005"><ele>120.0</ele><time>2026-03-28T18:35:46.999Z</time></trkpt><trkpt lat="45.504333158361135" lon="10.240184446955345"><ele>120.0</ele><time>2026-03-28T18:35:47.999Z</time></trkpt><trkpt lat="45.5042560599854" lon="10.240517286735404"><ele>120.0</ele><time>2026-03-28T18:35:48.999Z</time></trkpt><trkpt lat="45.50417566428621" lon="10.240842522533592"><ele>119.5</ele><time>2026-03-28T18:35:49.999Z</time></trkpt><trkpt lat="45.50409826396838" lon="10.241172699679874"><ele>119.0</ele><time>2026-03-28T18:35:50.999Z</time></trkpt><trkpt lat="45.50402483638342" lon="10.241506459697481"><ele>117.0</ele><time>2026-03-28T18:35:51.999Z</time></trkpt><trkpt lat="45.50394942731315" lon="10.241845965174694"><ele>115.0</ele><time>2026-03-28T18:35:52.999Z</time></trkpt><trkpt lat="45.50387358640629" lon="10.24217473488128"><ele>115.0</ele><time>2026-03-28T18:35:53.999Z</time></trkpt><trkpt lat="45.5037966940138" lon="10.242503276366616"><ele>115.0</ele><time>2026-03-28T18:35:54.999Z</time></trkpt><trkpt lat="45.50372043303314" lon="10.242838535170883"><ele>117.0</ele><time>2026-03-28T18:35:55.999Z</time></trkpt><trkpt lat="45.503643749450454" lon="10.243166191023661"><ele>119.0</ele><time>2026-03-28T18:35:56.999Z</time></trkpt><trkpt lat="45.50356584042535" lon="10.243505655277824"><ele>119.0</ele><time>2026-03-28T18:35:57.999Z</time></trkpt><trkpt lat="45.503488317777865" lon="10.243837256505394"><ele>119.0</ele><time>2026-03-28T18:35:58.999Z</time></trkpt><trkpt lat="45.50339351056896" lon="10.244148210710502"><ele>119.0</ele><time>2026-03-28T18:35:59.999Z</time></trkpt><trkpt lat="45.50332627259277" lon="10.244499889658169"><ele>119.0</ele><time>2026-03-28T18:36:00.999Z</time></trkpt><trkpt lat="45.5032520694357" lon="10.244834637642429"><ele>118.5</ele><time>2026-03-28T18:36:01.999Z</time></trkpt><trkpt lat="45.50317265771785" lon="10.245169335007464"><ele>118.0</ele><time>2026-03-28T18:36:02.999Z</time></trkpt><trkpt lat="45.50309460026924" lon="10.245507160612311"><ele>118.5</ele><time>2026-03-28T18:36:03.999Z</time></trkpt><trkpt lat="45.50301934036547" lon="10.245848932526085"><ele>119.0</ele><time>2026-03-28T18:36:04.999Z</time></trkpt><trkpt lat="45.502944396488786" lon="10.246185505524798"><ele>117.5</ele><time>2026-03-28T18:36:05.999Z</time></trkpt><trkpt lat="45.50286735234303" lon="10.24652877904718"><ele>116.0</ele><time>2026-03-28T18:36:06.999Z</time></trkpt><trkpt lat="45.50279348352267" lon="10.246864594367272"><ele>116.0</ele><time>2026-03-28T18:36:07.999Z</time></trkpt><trkpt lat="45.502717625085275" lon="10.247198753293006"><ele>116.0</ele><time>2026-03-28T18:36:08.999Z</time></trkpt><trkpt lat="45.502640984336004" lon="10.247531374975338"><ele>116.0</ele><time>2026-03-28T18:36:09.999Z</time></trkpt><trkpt lat="45.50256221028407" lon="10.247866473261931"><ele>116.0</ele><time>2026-03-28T18:36:10.999Z</time></trkpt><trkpt lat="45.50248460532433" lon="10.248198519484465"><ele>116.0</ele><time>2026-03-28T18:36:11.999Z</time></trkpt><trkpt lat="45.502410209789495" lon="10.248534127501655"><ele>116.0</ele><time>2026-03-28T18:36:12.999Z</time></trkpt><trkpt lat="45.50233387284476" lon="10.248866211380108"><ele>117.0</ele><time>2026-03-28T18:36:13.999Z</time></trkpt><trkpt lat="45.502256815690174" lon="10.249193261616"><ele>118.0</ele><time>2026-03-28T18:36:14.999Z</time></trkpt><trkpt lat="45.50218106536261" lon="10.249529914673236"><ele>118.0</ele><time>2026-03-28T18:36:15.999Z</time></trkpt><trkpt lat="45.50210020127006" lon="10.24987493432617"><ele>118.0</ele><time>2026-03-28T18:36:16.999Z</time></trkpt><trkpt lat="45.50201565813937" lon="10.250206653337834"><ele>118.5</ele><time>2026-03-28T18:36:17.999Z</time></trkpt><trkpt lat="45.50192406393435" lon="10.250545800069403"><ele>119.0</ele><time>2026-03-28T18:36:18.999Z</time></trkpt><trkpt lat="45.5018259105384" lon="10.250888391033092"><ele>118.0</ele><time>2026-03-28T18:36:19.999Z</time></trkpt><trkpt lat="45.5017225114415" lon="10.25122287738894"><ele>117.0</ele><time>2026-03-28T18:36:20.999Z</time></trkpt><trkpt lat="45.50162593505668" lon="10.251551087917777"><ele>117.0</ele><time>2026-03-28T18:36:21.999Z</time></trkpt><trkpt lat="45.50152968046118" lon="10.251888560199898"><ele>117.0</ele><time>2026-03-28T18:36:22.999Z</time></trkpt><trkpt lat="45.50143705533458" lon="10.252218499974083"><ele>117.0</ele><time>2026-03-28T18:36:24Z</time></trkpt><trkpt lat="45.50134515810127" lon="10.252555580092999"><ele>117.0</ele><time>2026-03-28T18:36:25Z</time></trkpt><trkpt lat="45.50125124402645" lon="10.252885485887912"><ele>116.5</ele><time>2026-03-28T18:36:26Z</time></trkpt><trkpt lat="45.50117090136013" lon="10.253229220778746"><ele>116.0</ele><time>2026-03-28T18:36:27Z</time></trkpt><trkpt lat="45.501066970519915" lon="10.253557933997149"><ele>116.0</ele><time>2026-03-28T18:36:28Z</time></trkpt><trkpt lat="45.50097613962729" lon="10.253891838283328"><ele>116.0</ele><time>2026-03-28T18:36:29Z</time></trkpt><trkpt lat="45.50088186284798" lon="10.25421990459547"><ele>116.5</ele><time>2026-03-28T18:36:30Z</time></trkpt><trkpt lat="45.500786823945454" lon="10.254554934539033"><ele>117.0</ele><time>2026-03-28T18:36:31Z</time></trkpt><trkpt lat="45.50069036124044" lon="10.25488831757989"><ele>117.5</ele><time>2026-03-28T18:36:32Z</time></trkpt><trkpt lat="45.50059450247762" lon="10.255225735838644"><ele>118.0</ele><time>2026-03-28T18:36:33Z</time></trkpt><trkpt lat="45.50050501599902" lon="10.255557539210827"><ele>117.5</ele><time>2026-03-28T18:36:34Z</time></trkpt><trkpt lat="45.500410276086136" lon="10.255881816599533"><ele>117.0</ele><time>2026-03-28T18:36:35Z</time></trkpt><trkpt lat="45.50031157544523" lon="10.256211066130694"><ele>118.5</ele><time>2026-03-28T18:36:36Z</time></trkpt><trkpt lat="45.50022629464068" lon="10.256544000123556"><ele>120.0</ele><time>2026-03-28T18:36:37Z</time></trkpt><trkpt lat="45.50013749973395" lon="10.256870556788522"><ele>120.0</ele><time>2026-03-28T18:36:38Z</time></trkpt><trkpt lat="45.50004725419896" lon="10.257196677953383"><ele>120.0</ele><time>2026-03-28T18:36:39Z</time></trkpt><trkpt lat="45.499957607100725" lon="10.257522649115717"><ele>121.0</ele><time>2026-03-28T18:36:40Z</time></trkpt><trkpt lat="45.499867211245515" lon="10.257845118306902"><ele>122.0</ele><time>2026-03-28T18:36:41Z</time></trkpt><trkpt lat="45.49978337881479" lon="10.258168692601084"><ele>122.0</ele><time>2026-03-28T18:36:42Z</time></trkpt><trkpt lat="45.49968839476437" lon="10.258493588907271"><ele>122.0</ele><time>2026-03-28T18:36:43Z</time></trkpt><trkpt lat="45.499600808806086" lon="10.258811475916085"><ele>122.0</ele><time>2026-03-28T18:36:44Z</time></trkpt><trkpt lat="45.499504523043434" lon="10.25915037977596"><ele>122.0</ele><time>2026-03-28T18:36:45Z</time></trkpt><trkpt lat="45.499414177956" lon="10.259471581713813"><ele>121.0</ele><time>2026-03-28T18:36:46Z</time></trkpt><trkpt lat="45.49931909595065" lon="10.259791278674049"><ele>120.0</ele><time>2026-03-28T18:36:47Z</time></trkpt><trkpt lat="45.49922447276673" lon="10.260116588823548"><ele>120.0</ele><time>2026-03-28T18:36:48Z</time></trkpt><trkpt lat="45.49913040707524" lon="10.260435236248798"><ele>120.0</ele><time>2026-03-28T18:36:49Z</time></trkpt><trkpt lat="45.49903756564016" lon="10.260765706848032"><ele>119.5</ele><time>2026-03-28T18:36:50Z</time></trkpt><trkpt lat="45.49894352530931" lon="10.261093459770725"><ele>119.0</ele><time>2026-03-28T18:36:51Z</time></trkpt><trkpt lat="45.49885298438579" lon="10.261422764096741"><ele>119.0</ele><time>2026-03-28T18:36:52Z</time></trkpt><trkpt lat="45.49876343766628" lon="10.261752487362257"><ele>119.0</ele><time>2026-03-28T18:36:53Z</time></trkpt><trkpt lat="45.49867415470489" lon="10.26209094007449"><ele>118.5</ele><time>2026-03-28T18:36:54Z</time></trkpt><trkpt lat="45.498578321067825" lon="10.262427025431084"><ele>118.0</ele><time>2026-03-28T18:36:55Z</time></trkpt><trkpt lat="45.498488041873955" lon="10.262764474854398"><ele>118.0</ele><time>2026-03-28T18:36:56Z</time></trkpt><trkpt lat="45.49839661609385" lon="10.263092401002586"><ele>118.0</ele><time>2026-03-28T18:36:57Z</time></trkpt><trkpt lat="45.498304091135076" lon="10.26341278648814"><ele>119.0</ele><time>2026-03-28T18:36:58Z</time></trkpt><trkpt lat="45.49821114563009" lon="10.263730022421978"><ele>120.0</ele><time>2026-03-28T18:36:59Z</time></trkpt><trkpt lat="45.498118078454496" lon="10.264049644815394"><ele>120.0</ele><time>2026-03-28T18:37:00Z</time></trkpt><trkpt lat="45.49802388482284" lon="10.264372174635795"><ele>120.0</ele><time>2026-03-28T18:37:01Z</time></trkpt><trkpt lat="45.497935075086374" lon="10.26469716716924"><ele>120.0</ele><time>2026-03-28T18:37:02Z</time></trkpt><trkpt lat="45.49784542194846" lon="10.265019972281682"><ele>120.0</ele><time>2026-03-28T18:37:03Z</time></trkpt><trkpt lat="45.497759949171446" lon="10.265335614681295"><ele>120.0</ele><time>2026-03-28T18:37:04Z</time></trkpt><trkpt lat="45.49767249764199" lon="10.265654324138005"><ele>120.0</ele><time>2026-03-28T18:37:05Z</time></trkpt><trkpt lat="45.49757847823104" lon="10.265978702400407"><ele>120.0</ele><time>2026-03-28T18:37:06Z</time></trkpt><trkpt lat="45.49748469476937" lon="10.266300636493785"><ele>120.0</ele><time>2026-03-28T18:37:07Z</time></trkpt><trkpt lat="45.497390196584576" lon="10.266620559090033"><ele>121.0</ele><time>2026-03-28T18:37:08Z</time></trkpt><trkpt lat="45.49729519540767" lon="10.2669441527909"><ele>122.0</ele><time>2026-03-28T18:37:09Z</time></trkpt><trkpt lat="45.4972072938187" lon="10.267267486430963"><ele>122.5</ele><time>2026-03-28T18:37:10Z</time></trkpt><trkpt lat="45.49712300822301" lon="10.267583129225562"><ele>123.0</ele><time>2026-03-28T18:37:11Z</time></trkpt><trkpt lat="45.49703547018143" lon="10.26789953500871"><ele>124.5</ele><time>2026-03-28T18:37:12Z</time></trkpt><trkpt lat="45.496948571859086" lon="10.26821640261333"><ele>126.0</ele><time>2026-03-28T18:37:13Z</time></trkpt><trkpt lat="45.496862329245445" lon="10.268537159787016"><ele>126.0</ele><time>2026-03-28T18:37:14Z</time></trkpt><trkpt lat="45.496772065342704" lon="10.268850805334964"><ele>126.0</ele><time>2026-03-28T18:37:15Z</time></trkpt><trkpt lat="45.496679873041565" lon="10.269173730715654"><ele>125.5</ele><time>2026-03-28T18:37:16Z</time></trkpt><trkpt lat="45.496588966092624" lon="10.269491542590726"><ele>125.0</ele><time>2026-03-28T18:37:17Z</time></trkpt><trkpt lat="45.496502253279814" lon="10.269824519926747"><ele>125.0</ele><time>2026-03-28T18:37:18Z</time></trkpt><trkpt lat="45.4964068677822" lon="10.27015228534115"><ele>125.0</ele><time>2026-03-28T18:37:19Z</time></trkpt><trkpt lat="45.49631450547582" lon="10.27047279104933"><ele>124.5</ele><time>2026-03-28T18:37:20Z</time></trkpt><trkpt lat="45.496236779981096" lon="10.270799904039926"><ele>124.0</ele><time>2026-03-28T18:37:21Z</time></trkpt><trkpt lat="45.496154183209164" lon="10.271116441781034"><ele>124.0</ele><time>2026-03-28T18:37:22Z</time></trkpt><trkpt lat="45.49605727310908" lon="10.271421836040405"><ele>124.0</ele><time>2026-03-28T18:37:23Z</time></trkpt><trkpt lat="45.49596362385251" lon="10.2717384252128"><ele>124.0</ele><time>2026-03-28T18:37:24Z</time></trkpt><trkpt lat="45.495865918603705" lon="10.2720625172477"><ele>124.0</ele><time>2026-03-28T18:37:25Z</time></trkpt><trkpt lat="45.495768333396036" lon="10.27238308979256"><ele>124.5</ele><time>2026-03-28T18:37:26Z</time></trkpt><trkpt lat="45.49567106188913" lon="10.272710278135081"><ele>125.0</ele><time>2026-03-28T18:37:27Z</time></trkpt><trkpt lat="45.49558423796891" lon="10.273034033364715"><ele>126.0</ele><time>2026-03-28T18:37:28Z</time></trkpt><trkpt lat="45.49548420750799" lon="10.273372865688193"><ele>127.0</ele><time>2026-03-28T18:37:29Z</time></trkpt><trkpt lat="45.495386559764555" lon="10.27368845248947"><ele>127.0</ele><time>2026-03-28T18:37:30Z</time></trkpt><trkpt lat="45.49529654201802" lon="10.274005931549741"><ele>127.0</ele><time>2026-03-28T18:37:31Z</time></trkpt><trkpt lat="45.495212666841226" lon="10.274333284340015"><ele>127.0</ele><time>2026-03-28T18:37:32Z</time></trkpt><trkpt lat="45.49512264209792" lon="10.274658828098747"><ele>127.0</ele><time>2026-03-28T18:37:33Z</time></trkpt><trkpt lat="45.495035804942276" lon="10.274985568713522"><ele>127.5</ele><time>2026-03-28T18:37:34Z</time></trkpt><trkpt lat="45.49493532113" lon="10.275304145017978"><ele>128.0</ele><time>2026-03-28T18:37:35Z</time></trkpt><trkpt lat="45.49483784149315" lon="10.275627151644326"><ele>128.0</ele><time>2026-03-28T18:37:36Z</time></trkpt><trkpt lat="45.49472955799319" lon="10.27594832651012"><ele>128.0</ele><time>2026-03-28T18:37:37Z</time></trkpt><trkpt lat="45.494624331829236" lon="10.2762665670307"><ele>127.5</ele><time>2026-03-28T18:37:38Z</time></trkpt><trkpt lat="45.494519196365495" lon="10.276583670868241"><ele>127.0</ele><time>2026-03-28T18:37:39Z</time></trkpt><trkpt lat="45.494414781175024" lon="10.276898699864871"><ele>127.0</ele><time>2026-03-28T18:37:40Z</time></trkpt><trkpt lat="45.49431420593134" lon="10.277213602040604"><ele>127.0</ele><time>2026-03-28T18:37:41Z</time></trkpt><trkpt lat="45.49420864898817" lon="10.277519465571102"><ele>127.5</ele><time>2026-03-28T18:37:42Z</time></trkpt><trkpt lat="45.49410560276242" lon="10.277823583255898"><ele>128.0</ele><time>2026-03-28T18:37:43Z</time></trkpt><trkpt lat="45.49400143829353" lon="10.278147247673488"><ele>128.0</ele><time>2026-03-28T18:37:44Z</time></trkpt><trkpt lat="45.49389686019763" lon="10.27846655668012"><ele>128.0</ele><time>2026-03-28T18:37:45Z</time></trkpt><trkpt lat="45.493800847087236" lon="10.27878628516005"><ele>128.0</ele><time>2026-03-28T18:37:46Z</time></trkpt><trkpt lat="45.493695426744345" lon="10.279100055973734"><ele>128.0</ele><time>2026-03-28T18:37:46.999Z</time></trkpt><trkpt lat="45.49358923048323" lon="10.2794102574803"><ele>128.0</ele><time>2026-03-28T18:37:47.999Z</time></trkpt><trkpt lat="45.493482352603216" lon="10.279732379550962"><ele>128.0</ele><time>2026-03-28T18:37:48.999Z</time></trkpt><trkpt lat="45.493376060160465" lon="10.28005216975458"><ele>128.5</ele><time>2026-03-28T18:37:49.999Z</time></trkpt><trkpt lat="45.4932718271291" lon="10.28037142603076"><ele>129.0</ele><time>2026-03-28T18:37:50.999Z</time></trkpt><trkpt lat="45.49317065091416" lon="10.280690852092654"><ele>129.0</ele><time>2026-03-28T18:37:51.999Z</time></trkpt><trkpt lat="45.49306526320395" lon="10.281006868229325"><ele>129.0</ele><time>2026-03-28T18:37:52.999Z</time></trkpt><trkpt lat="45.4929573838297" lon="10.281327167621852"><ele>129.5</ele><time>2026-03-28T18:37:53.999Z</time></trkpt><trkpt lat="45.492851173917934" lon="10.281648275404654"><ele>130.0</ele><time>2026-03-28T18:37:54.999Z</time></trkpt><trkpt lat="45.492746767841275" lon="10.281966314093445"><ele>128.5</ele><time>2026-03-28T18:37:55.999Z</time></trkpt><trkpt lat="45.49265439108483" lon="10.282295011531074"><ele>127.0</ele><time>2026-03-28T18:37:56.999Z</time></trkpt><trkpt lat="45.49254347772179" lon="10.282608585591186"><ele>127.0</ele><time>2026-03-28T18:37:57.999Z</time></trkpt><trkpt lat="45.49243514394128" lon="10.282929077545743"><ele>127.0</ele><time>2026-03-28T18:37:58.999Z</time></trkpt><trkpt lat="45.492334080602234" lon="10.283242872532837"><ele>127.0</ele><time>2026-03-28T18:37:59.999Z</time></trkpt><trkpt lat="45.49223390158067" lon="10.283550416454586"><ele>127.0</ele><time>2026-03-28T18:38:00.999Z</time></trkpt><trkpt lat="45.49213146555314" lon="10.283856447880087"><ele>127.5</ele><time>2026-03-28T18:38:01.999Z</time></trkpt><trkpt lat="45.492029887871055" lon="10.284164549256865"><ele>128.0</ele><time>2026-03-28T18:38:02.999Z</time></trkpt><trkpt lat="45.49193233019891" lon="10.28447411760118"><ele>128.0</ele><time>2026-03-28T18:38:03.999Z</time></trkpt><trkpt lat="45.49182841030779" lon="10.284782705297241"><ele>128.0</ele><time>2026-03-28T18:38:04.999Z</time></trkpt><trkpt lat="45.49172661710228" lon="10.285092656771369"><ele>128.0</ele><time>2026-03-28T18:38:05.999Z</time></trkpt><trkpt lat="45.491623144220256" lon="10.285407658511378"><ele>128.0</ele><time>2026-03-28T18:38:06.999Z</time></trkpt><trkpt lat="45.49151997374942" lon="10.28572191780919"><ele>127.5</ele><time>2026-03-28T18:38:07.999Z</time></trkpt><trkpt lat="45.491418232067176" lon="10.28603921412765"><ele>127.0</ele><time>2026-03-28T18:38:08.999Z</time></trkpt><trkpt lat="45.4913192677946" lon="10.286351920112704"><ele>127.5</ele><time>2026-03-28T18:38:09.999Z</time></trkpt><trkpt lat="45.49120042450524" lon="10.286633709547937"><ele>128.0</ele><time>2026-03-28T18:38:10.999Z</time></trkpt><trkpt lat="45.491100367669205" lon="10.286964114388123"><ele>128.5</ele><time>2026-03-28T18:38:11.999Z</time></trkpt><trkpt lat="45.491000033986175" lon="10.28728575865756"><ele>129.0</ele><time>2026-03-28T18:38:12.999Z</time></trkpt><trkpt lat="45.49089289032978" lon="10.28760533277981"><ele>129.0</ele><time>2026-03-28T18:38:13.999Z</time></trkpt><trkpt lat="45.490786045694534" lon="10.287920371137638"><ele>129.0</ele><time>2026-03-28T18:38:14.999Z</time></trkpt><trkpt lat="45.490688078290106" lon="10.2882398423175"><ele>128.5</ele><time>2026-03-28T18:38:15.999Z</time></trkpt><trkpt lat="45.49058818605259" lon="10.288558428103213"><ele>128.0</ele><time>2026-03-28T18:38:16.999Z</time></trkpt><trkpt lat="45.49048779216492" lon="10.288878918082277"><ele>130.0</ele><time>2026-03-28T18:38:17.999Z</time></trkpt><trkpt lat="45.49038591513939" lon="10.289199630090426"><ele>132.0</ele><time>2026-03-28T18:38:18.999Z</time></trkpt><trkpt lat="45.490282025726195" lon="10.289508994500176"><ele>131.0</ele><time>2026-03-28T18:38:19.999Z</time></trkpt><trkpt lat="45.49018515283539" lon="10.289831206917286"><ele>130.0</ele><time>2026-03-28T18:38:20.999Z</time></trkpt><trkpt lat="45.49008877950908" lon="10.290145911524325"><ele>130.0</ele><time>2026-03-28T18:38:21.999Z</time></trkpt><trkpt lat="45.489994521138534" lon="10.290456128660358"><ele>130.0</ele><time>2026-03-28T18:38:22.999Z</time></trkpt><trkpt lat="45.48990576901225" lon="10.290769110158188"><ele>129.5</ele><time>2026-03-28T18:38:23.999Z</time></trkpt><trkpt lat="45.48981543559746" lon="10.291086981178445"><ele>129.0</ele><time>2026-03-28T18:38:24.999Z</time></trkpt><trkpt lat="45.48973519266898" lon="10.291409516971006"><ele>129.0</ele><time>2026-03-28T18:38:25.999Z</time></trkpt><trkpt lat="45.489653725598814" lon="10.291729990209873"><ele>129.0</ele><time>2026-03-28T18:38:26.999Z</time></trkpt><trkpt lat="45.48957195026732" lon="10.292059611817695"><ele>129.0</ele><time>2026-03-28T18:38:27.999Z</time></trkpt><trkpt lat="45.48949276339019" lon="10.292375699404003"><ele>129.0</ele><time>2026-03-28T18:38:28.999Z</time></trkpt><trkpt lat="45.48941566158285" lon="10.292698402475276"><ele>129.0</ele><time>2026-03-28T18:38:30Z</time></trkpt><trkpt lat="45.48933285664406" lon="10.29303108984877"><ele>129.0</ele><time>2026-03-28T18:38:31Z</time></trkpt><trkpt lat="45.48924468199644" lon="10.293359913054157"><ele>129.5</ele><time>2026-03-28T18:38:32Z</time></trkpt><trkpt lat="45.48916101527166" lon="10.293686405525484"><ele>130.0</ele><time>2026-03-28T18:38:33Z</time></trkpt><trkpt lat="45.489075750362616" lon="10.294017150309067"><ele>130.0</ele><time>2026-03-28T18:38:34Z</time></trkpt><trkpt lat="45.488987617247" lon="10.29435038807004"><ele>130.0</ele><time>2026-03-28T18:38:35Z</time></trkpt><trkpt lat="45.48890202858879" lon="10.29468590790231"><ele>130.0</ele><time>2026-03-28T18:38:36Z</time></trkpt><trkpt lat="45.48882371781993" lon="10.295020662650433"><ele>130.0</ele><time>2026-03-28T18:38:37Z</time></trkpt><trkpt lat="45.48874247164211" lon="10.295359341273189"><ele>130.0</ele><time>2026-03-28T18:38:38Z</time></trkpt><trkpt lat="45.48866348582615" lon="10.29569767438239"><ele>130.0</ele><time>2026-03-28T18:38:39Z</time></trkpt><trkpt lat="45.488579566042816" lon="10.296033074836291"><ele>130.0</ele><time>2026-03-28T18:38:40Z</time></trkpt><trkpt lat="45.48849367918294" lon="10.296366751831274"><ele>130.0</ele><time>2026-03-28T18:38:41Z</time></trkpt><trkpt lat="45.48841382863692" lon="10.296706012827393"><ele>130.5</ele><time>2026-03-28T18:38:42Z</time></trkpt><trkpt lat="45.488324269487514" lon="10.297054014098855"><ele>131.0</ele><time>2026-03-28T18:38:43Z</time></trkpt><trkpt lat="45.48824521752819" lon="10.297396941276078"><ele>130.0</ele><time>2026-03-28T18:38:44Z</time></trkpt><trkpt lat="45.48815818529529" lon="10.297729072751945"><ele>129.0</ele><time>2026-03-28T18:38:45Z</time></trkpt><trkpt lat="45.48807521614896" lon="10.298058902002401"><ele>130.0</ele><time>2026-03-28T18:38:46Z</time></trkpt><trkpt lat="45.487997811814196" lon="10.29839319971524"><ele>131.0</ele><time>2026-03-28T18:38:47Z</time></trkpt><trkpt lat="45.48791581574854" lon="10.29872038915092"><ele>132.0</ele><time>2026-03-28T18:38:48Z</time></trkpt><trkpt lat="45.48783726774011" lon="10.299042380017882"><ele>133.0</ele><time>2026-03-28T18:38:49Z</time></trkpt><trkpt lat="45.48775040619058" lon="10.299364579333064"><ele>133.0</ele><time>2026-03-28T18:38:50Z</time></trkpt><trkpt lat="45.4876735324859" lon="10.299689546270066"><ele>133.0</ele><time>2026-03-28T18:38:51Z</time></trkpt><trkpt lat="45.48758948105611" lon="10.300010809864776"><ele>132.0</ele><time>2026-03-28T18:38:52Z</time></trkpt><trkpt lat="45.487503383608555" lon="10.300328459294574"><ele>131.0</ele><time>2026-03-28T18:38:53Z</time></trkpt><trkpt lat="45.487426046922984" lon="10.300643595982649"><ele>131.0</ele><time>2026-03-28T18:38:54Z</time></trkpt><trkpt lat="45.48734088082043" lon="10.300963462950321"><ele>131.0</ele><time>2026-03-28T18:38:55Z</time></trkpt><trkpt lat="45.487264089842164" lon="10.301286426522639"><ele>132.0</ele><time>2026-03-28T18:38:56Z</time></trkpt><trkpt lat="45.487185608387925" lon="10.301601185911464"><ele>133.0</ele><time>2026-03-28T18:38:57Z</time></trkpt><trkpt lat="45.48710676272479" lon="10.301919113167463"><ele>132.0</ele><time>2026-03-28T18:38:58Z</time></trkpt><trkpt lat="45.48702369945357" lon="10.302233098141619"><ele>131.0</ele><time>2026-03-28T18:38:59Z</time></trkpt><trkpt lat="45.48694059242778" lon="10.302547667970675"><ele>131.0</ele><time>2026-03-28T18:39:00Z</time></trkpt><trkpt lat="45.48685826221011" lon="10.302865075296367"><ele>131.0</ele><time>2026-03-28T18:39:01Z</time></trkpt><trkpt lat="45.48678121982623" lon="10.30318613292473"><ele>131.5</ele><time>2026-03-28T18:39:02Z</time></trkpt><trkpt lat="45.486702335943974" lon="10.303508162773944"><ele>132.0</ele><time>2026-03-28T18:39:03Z</time></trkpt><trkpt lat="45.48662584331223" lon="10.30382669023187"><ele>132.5</ele><time>2026-03-28T18:39:04Z</time></trkpt><trkpt lat="45.486545011317155" lon="10.30414816607792"><ele>133.0</ele><time>2026-03-28T18:39:05Z</time></trkpt><trkpt lat="45.486462135019416" lon="10.304457483288203"><ele>133.0</ele><time>2026-03-28T18:39:06Z</time></trkpt><trkpt lat="45.48637969424271" lon="10.304775188039137"><ele>133.0</ele><time>2026-03-28T18:39:07Z</time></trkpt><trkpt lat="45.48629760292861" lon="10.305098801376428"><ele>133.0</ele><time>2026-03-28T18:39:08Z</time></trkpt><trkpt lat="45.48621569547151" lon="10.305421621791806"><ele>133.0</ele><time>2026-03-28T18:39:09Z</time></trkpt><trkpt lat="45.486138036296666" lon="10.305742954933127"><ele>133.0</ele><time>2026-03-28T18:39:10Z</time></trkpt><trkpt lat="45.48605550273271" lon="10.306065994061473"><ele>133.0</ele><time>2026-03-28T18:39:11Z</time></trkpt><trkpt lat="45.48597915459157" lon="10.306388105016126"><ele>132.5</ele><time>2026-03-28T18:39:12Z</time></trkpt><trkpt lat="45.48589696639835" lon="10.306708901433446"><ele>132.0</ele><time>2026-03-28T18:39:13Z</time></trkpt><trkpt lat="45.48581570135587" lon="10.307032379922807"><ele>132.5</ele><time>2026-03-28T18:39:14Z</time></trkpt><trkpt lat="45.48573466237274" lon="10.307349961926695"><ele>133.0</ele><time>2026-03-28T18:39:15Z</time></trkpt><trkpt lat="45.485658935101974" lon="10.307670684349866"><ele>133.0</ele><time>2026-03-28T18:39:16Z</time></trkpt><trkpt lat="45.485580472760425" lon="10.307988569558095"><ele>133.0</ele><time>2026-03-28T18:39:17Z</time></trkpt><trkpt lat="45.48550499998238" lon="10.308311587652593"><ele>133.5</ele><time>2026-03-28T18:39:18Z</time></trkpt><trkpt lat="45.48542495299146" lon="10.308628336795072"><ele>134.0</ele><time>2026-03-28T18:39:19Z</time></trkpt><trkpt lat="45.485345254044056" lon="10.308953951013464"><ele>134.5</ele><time>2026-03-28T18:39:20Z</time></trkpt><trkpt lat="45.485268318337944" lon="10.30928058917155"><ele>135.0</ele><time>2026-03-28T18:39:21Z</time></trkpt><trkpt lat="45.48518876978248" lon="10.309609185050043"><ele>135.5</ele><time>2026-03-28T18:39:22Z</time></trkpt><trkpt lat="45.485104677273405" lon="10.30992129317578"><ele>136.0</ele><time>2026-03-28T18:39:23Z</time></trkpt><trkpt lat="45.48498345232669" lon="10.310185824894905"><ele>136.0</ele><time>2026-03-28T18:39:24Z</time></trkpt><trkpt lat="45.48492052254922" lon="10.310540695315677"><ele>136.0</ele><time>2026-03-28T18:39:25Z</time></trkpt><trkpt lat="45.48484640331528" lon="10.310866442712275"><ele>136.0</ele><time>2026-03-28T18:39:26Z</time></trkpt><trkpt lat="45.48476928948876" lon="10.31119730203166"><ele>136.0</ele><time>2026-03-28T18:39:27Z</time></trkpt><trkpt lat="45.48468853662511" lon="10.311529206527238"><ele>136.0</ele><time>2026-03-28T18:39:28Z</time></trkpt><trkpt lat="45.48461129788775" lon="10.311854276423666"><ele>136.0</ele><time>2026-03-28T18:39:29Z</time></trkpt><trkpt lat="45.484526016300464" lon="10.3121836717076"><ele>135.0</ele><time>2026-03-28T18:39:30Z</time></trkpt><trkpt lat="45.484444956386426" lon="10.312503749672628"><ele>134.0</ele><time>2026-03-28T18:39:31Z</time></trkpt><trkpt lat="45.48436402970977" lon="10.31282269207468"><ele>134.5</ele><time>2026-03-28T18:39:32Z</time></trkpt><trkpt lat="45.48428201806901" lon="10.313147025542472"><ele>135.0</ele><time>2026-03-28T18:39:33Z</time></trkpt><trkpt lat="45.48420249396257" lon="10.313472724495465"><ele>135.0</ele><time>2026-03-28T18:39:34Z</time></trkpt><trkpt lat="45.48412912770148" lon="10.31378928029618"><ele>135.0</ele><time>2026-03-28T18:39:35Z</time></trkpt><trkpt lat="45.48406436118067" lon="10.314092453059853"><ele>135.5</ele><time>2026-03-28T18:39:36Z</time></trkpt><trkpt lat="45.483982856553375" lon="10.314422401571033"><ele>136.0</ele><time>2026-03-28T18:39:37Z</time></trkpt><trkpt lat="45.48388971423297" lon="10.31476432529769"><ele>136.5</ele><time>2026-03-28T18:39:38Z</time></trkpt><trkpt lat="45.48381577438691" lon="10.315080720175994"><ele>137.0</ele><time>2026-03-28T18:39:39Z</time></trkpt><trkpt lat="45.48373388742095" lon="10.315406513479717"><ele>135.5</ele><time>2026-03-28T18:39:40Z</time></trkpt><trkpt lat="45.48366866399882" lon="10.315723950544804"><ele>134.0</ele><time>2026-03-28T18:39:41Z</time></trkpt><trkpt lat="45.48358751999841" lon="10.31606063251323"><ele>134.0</ele><time>2026-03-28T18:39:42Z</time></trkpt><trkpt lat="45.48351405798924" lon="10.316390726647322"><ele>134.0</ele><time>2026-03-28T18:39:43Z</time></trkpt><trkpt lat="45.4834384145677" lon="10.316726125551014"><ele>134.0</ele><time>2026-03-28T18:39:44Z</time></trkpt><trkpt lat="45.4833655312133" lon="10.317061922061677"><ele>134.0</ele><time>2026-03-28T18:39:45Z</time></trkpt><trkpt lat="45.48329469879738" lon="10.317396074287663"><ele>134.0</ele><time>2026-03-28T18:39:46Z</time></trkpt><trkpt lat="45.4832169929106" lon="10.317729791890455"><ele>134.0</ele><time>2026-03-28T18:39:47Z</time></trkpt><trkpt lat="45.483141046780744" lon="10.318057614503394"><ele>135.5</ele><time>2026-03-28T18:39:48Z</time></trkpt><trkpt lat="45.48306461363897" lon="10.318398370759764"><ele>137.0</ele><time>2026-03-28T18:39:49Z</time></trkpt><trkpt lat="45.48298830344746" lon="10.318733585195432"><ele>135.5</ele><time>2026-03-28T18:39:50Z</time></trkpt><trkpt lat="45.48292105956899" lon="10.319031592501888"><ele>134.0</ele><time>2026-03-28T18:39:51Z</time></trkpt><trkpt lat="45.48284487923436" lon="10.319375489628584"><ele>134.0</ele><time>2026-03-28T18:39:52Z</time></trkpt><trkpt lat="45.48276673931052" lon="10.319710233632955"><ele>134.0</ele><time>2026-03-28T18:39:53Z</time></trkpt><trkpt lat="45.48269092543526" lon="10.320046959927888"><ele>134.5</ele><time>2026-03-28T18:39:54Z</time></trkpt><trkpt lat="45.482615235211064" lon="10.32037458109334"><ele>135.0</ele><time>2026-03-28T18:39:55Z</time></trkpt><trkpt lat="45.482543107228175" lon="10.320711944736733"><ele>135.0</ele><time>2026-03-28T18:39:56Z</time></trkpt><trkpt lat="45.48246719494961" lon="10.321038029597728"><ele>135.0</ele><time>2026-03-28T18:39:57Z</time></trkpt><trkpt lat="45.48238651156637" lon="10.32136809210872"><ele>134.0</ele><time>2026-03-28T18:39:58Z</time></trkpt><trkpt lat="45.48231284049423" lon="10.321699901456492"><ele>133.0</ele><time>2026-03-28T18:39:59Z</time></trkpt><trkpt lat="45.48224129288518" lon="10.322025955916516"><ele>133.0</ele><time>2026-03-28T18:39:59.999Z</time></trkpt><trkpt lat="45.48216899745244" lon="10.322350017784597"><ele>133.0</ele><time>2026-03-28T18:40:00.999Z</time></trkpt><trkpt lat="45.48214114335326" lon="10.322621241134494"><ele>133.0</ele><time>2026-03-28T18:40:01.999Z</time></trkpt><trkpt lat="45.48204581133242" lon="10.322985825099527"><ele>134.0</ele><time>2026-03-28T18:40:02.999Z</time></trkpt><trkpt lat="45.481975499508025" lon="10.323316295117872"><ele>135.0</ele><time>2026-03-28T18:40:03.999Z</time></trkpt><trkpt lat="45.48187967593242" lon="10.323664599032771"><ele>135.0</ele><time>2026-03-28T18:40:04.999Z</time></trkpt><trkpt lat="45.481793030659404" lon="10.324009799775924"><ele>135.0</ele><time>2026-03-28T18:40:05.999Z</time></trkpt><trkpt lat="45.48171692716483" lon="10.324328745045802"><ele>135.0</ele><time>2026-03-28T18:40:06.999Z</time></trkpt><trkpt lat="45.48165103175796" lon="10.32461775759168"><ele>135.0</ele><time>2026-03-28T18:40:07.999Z</time></trkpt><trkpt lat="45.48158375668475" lon="10.324897110924677"><ele>135.0</ele><time>2026-03-28T18:40:08.999Z</time></trkpt><trkpt lat="45.481513530346454" lon="10.325157554468982"><ele>135.33333333333334</ele><time>2026-03-28T18:40:09.999Z</time></trkpt><trkpt lat="45.48145774432057" lon="10.325422213284046"><ele>135.66666666666669</ele><time>2026-03-28T18:40:10.999Z</time></trkpt><trkpt lat="45.481398102175696" lon="10.325653482428843"><ele>136.0</ele><time>2026-03-28T18:40:11.999Z</time></trkpt><trkpt lat="45.481319848663645" lon="10.325928293824589"><ele>136.25</ele><time>2026-03-28T18:40:12.999Z</time></trkpt><trkpt lat="45.48128543019668" lon="10.32611798695597"><ele>136.5</ele><time>2026-03-28T18:40:13.999Z</time></trkpt><trkpt lat="45.4812474096415" lon="10.326305979747236"><ele>136.75</ele><time>2026-03-28T18:40:14.999Z</time></trkpt><trkpt lat="45.48119122701876" lon="10.32647683897085"><ele>137.0</ele><time>2026-03-28T18:40:15.999Z</time></trkpt><trkpt lat="45.48111363060162" lon="10.326626651416486"><ele>136.5</ele><time>2026-03-28T18:40:16.999Z</time></trkpt><trkpt lat="45.48101468900748" lon="10.326750854259695"><ele>136.0</ele><time>2026-03-28T18:40:17.999Z</time></trkpt><trkpt lat="45.48087122334028" lon="10.32680036986926"><ele>135.5</ele><time>2026-03-28T18:40:18.999Z</time></trkpt><trkpt lat="45.48073941056914" lon="10.326841512605508"><ele>135.0</ele><time>2026-03-28T18:40:19.999Z</time></trkpt><trkpt lat="45.48060456460894" lon="10.326860820757206"><ele>135.0</ele><time>2026-03-28T18:40:20.999Z</time></trkpt><trkpt lat="45.480471736579396" lon="10.326827492156111"><ele>135.0</ele><time>2026-03-28T18:40:21.999Z</time></trkpt><trkpt lat="45.48034087767137" lon="10.326750424594476"><ele>135.0</ele><time>2026-03-28T18:40:22.999Z</time></trkpt><trkpt lat="45.48021399050425" lon="10.326638043398379"><ele>135.0</ele><time>2026-03-28T18:40:23.999Z</time></trkpt><trkpt lat="45.48010547043316" lon="10.326484848482592"><ele>134.75</ele><time>2026-03-28T18:40:24.999Z</time></trkpt><trkpt lat="45.480041094099874" lon="10.326305061208696"><ele>134.5</ele><time>2026-03-28T18:40:25.999Z</time></trkpt><trkpt lat="45.479989254034905" lon="10.326100447895334"><ele>134.25</ele><time>2026-03-28T18:40:26.999Z</time></trkpt><trkpt lat="45.47998253399226" lon="10.325905085271813"><ele>134.0</ele><time>2026-03-28T18:40:27.999Z</time></trkpt><trkpt lat="45.480007632757754" lon="10.325705139958561"><ele>134.0</ele><time>2026-03-28T18:40:28.999Z</time></trkpt><trkpt lat="45.48004118843721" lon="10.32557029902522"><ele>134.0</ele><time>2026-03-28T18:40:29.999Z</time></trkpt><trkpt lat="45.48012750528725" lon="10.325369850668103"><ele>134.0</ele><time>2026-03-28T18:40:30.999Z</time></trkpt><trkpt lat="45.480232838490565" lon="10.325212003291796"><ele>134.0</ele><time>2026-03-28T18:40:31.999Z</time></trkpt><trkpt lat="45.48037124141366" lon="10.32509772200207"><ele>134.66666666666666</ele><time>2026-03-28T18:40:32.999Z</time></trkpt><trkpt lat="45.480525276163796" lon="10.325031067180063"><ele>135.33333333333334</ele><time>2026-03-28T18:40:33.999Z</time></trkpt><trkpt lat="45.48068210228317" lon="10.325028920199433"><ele>136.0</ele><time>2026-03-28T18:40:34.999Z</time></trkpt><trkpt lat="45.480849263474184" lon="10.325074751071861"><ele>136.0</ele><time>2026-03-28T18:40:36Z</time></trkpt><trkpt lat="45.48100984148946" lon="10.325149731171193"><ele>136.0</ele><time>2026-03-28T18:40:37Z</time></trkpt><trkpt lat="45.48118883476762" lon="10.325220349309367"><ele>136.0</ele><time>2026-03-28T18:40:38Z</time></trkpt><trkpt lat="45.48136516570966" lon="10.325310555473946"><ele>136.0</ele><time>2026-03-28T18:40:39Z</time></trkpt><trkpt lat="45.48154634402394" lon="10.325412149194136"><ele>136.0</ele><time>2026-03-28T18:40:40Z</time></trkpt><trkpt lat="45.48172926435196" lon="10.325502126567017"><ele>136.0</ele><time>2026-03-28T18:40:41Z</time></trkpt><trkpt lat="45.481913062522345" lon="10.325585576455438"><ele>136.33333333333334</ele><time>2026-03-28T18:40:42Z</time></trkpt><trkpt lat="45.48208957935662" lon="10.325646161959574"><ele>136.66666666666666</ele><time>2026-03-28T18:40:43Z</time></trkpt><trkpt lat="45.482248169512616" lon="10.325677493390701"><ele>137.0</ele><time>2026-03-28T18:40:44Z</time></trkpt><trkpt lat="45.48240962220159" lon="10.325640466841186"><ele>136.66666666666666</ele><time>2026-03-28T18:40:45Z</time></trkpt><trkpt lat="45.48256894910989" lon="10.3256107200151"><ele>136.33333333333334</ele><time>2026-03-28T18:40:46Z</time></trkpt><trkpt lat="45.482732520693496" lon="10.325538970151776"><ele>136.0</ele><time>2026-03-28T18:40:47Z</time></trkpt><trkpt lat="45.48289660110943" lon="10.325442064472954"><ele>136.0</ele><time>2026-03-28T18:40:48Z</time></trkpt><trkpt lat="45.48305649363727" lon="10.325302586710608"><ele>136.0</ele><time>2026-03-28T18:40:49Z</time></trkpt><trkpt lat="45.48320419188315" lon="10.325142514358635"><ele>136.0</ele><time>2026-03-28T18:40:50Z</time></trkpt><trkpt lat="45.48332678927453" lon="10.324963798398416"><ele>136.0</ele><time>2026-03-28T18:40:51Z</time></trkpt><trkpt lat="45.483417195889025" lon="10.324783882959519"><ele>136.0</ele><time>2026-03-28T18:40:52Z</time></trkpt><trkpt lat="45.48349257527671" lon="10.324590867487384"><ele>136.0</ele><time>2026-03-28T18:40:53Z</time></trkpt><trkpt lat="45.48356348913951" lon="10.32439733313648"><ele>135.66666666666669</ele><time>2026-03-28T18:40:54Z</time></trkpt><trkpt lat="45.48362529603275" lon="10.32419956787229"><ele>135.33333333333334</ele><time>2026-03-28T18:40:55Z</time></trkpt><trkpt lat="45.48371768084839" lon="10.324016189022922"><ele>135.0</ele><time>2026-03-28T18:40:56Z</time></trkpt><trkpt lat="45.48375825938293" lon="10.323811408428842"><ele>134.75</ele><time>2026-03-28T18:40:57Z</time></trkpt><trkpt lat="45.48380895162882" lon="10.32363336453435"><ele>134.5</ele><time>2026-03-28T18:40:58Z</time></trkpt><trkpt lat="45.48384741328411" lon="10.32346932020834"><ele>134.25</ele><time>2026-03-28T18:40:59Z</time></trkpt><trkpt lat="45.4839058694714" lon="10.323321735065015"><ele>134.0</ele><time>2026-03-28T18:41:00Z</time></trkpt><trkpt lat="45.48394080692653" lon="10.323179639909466"><ele>134.33333333333331</ele><time>2026-03-28T18:41:01Z</time></trkpt><trkpt lat="45.4839701657304" lon="10.323054030270134"><ele>134.66666666666666</ele><time>2026-03-28T18:41:02Z</time></trkpt><trkpt lat="45.4839878000203" lon="10.322920078732066"><ele>135.0</ele><time>2026-03-28T18:41:03Z</time></trkpt><trkpt lat="45.48402341063492" lon="10.322819563784565"><ele>135.33333333333334</ele><time>2026-03-28T18:41:05Z</time></trkpt><trkpt lat="45.484044508939746" lon="10.322723318611292"><ele>135.66666666666669</ele><time>2026-03-28T18:41:08Z</time></trkpt><trkpt lat="45.48404307657696" lon="10.322629066825801"><ele>136.0</ele><time>2026-03-28T18:44:53Z</time></trkpt><trkpt lat="45.48406801943887" lon="10.322521569755624"><ele>136.0</ele><time>2026-03-28T18:45:01Z</time></trkpt><trkpt lat="45.48407700772849" lon="10.322409183484917"><ele>136.0</ele><time>2026-03-28T18:45:03Z</time></trkpt><trkpt lat="45.48411678971491" lon="10.322267413728692"><ele>136.0</ele><time>2026-03-28T18:45:06Z</time></trkpt><trkpt lat="45.48413105134404" lon="10.322178931855142"><ele>136.0</ele><time>2026-03-28T18:45:07Z</time></trkpt><trkpt lat="45.48414927506659" lon="10.322086520457677"><ele>136.0</ele><time>2026-03-28T18:45:08Z</time></trkpt><trkpt lat="45.48420357452938" lon="10.322000112106208"><ele>136.0</ele><time>2026-03-28T18:45:09Z</time></trkpt><trkpt lat="45.48422970889868" lon="10.321895362641506"><ele>135.83333333333334</ele><time>2026-03-28T18:45:10Z</time></trkpt><trkpt lat="45.48425753767206" lon="10.321776371501853"><ele>135.66666666666669</ele><time>2026-03-28T18:45:11Z</time></trkpt><trkpt lat="45.4842784121959" lon="10.321681267647909"><ele>135.5</ele><time>2026-03-28T18:45:12Z</time></trkpt><trkpt lat="45.48430150855431" lon="10.321567783474137"><ele>135.33333333333334</ele><time>2026-03-28T18:45:13Z</time></trkpt><trkpt lat="45.484318042401775" lon="10.321473296231828"><ele>135.16666666666666</ele><time>2026-03-28T18:45:14Z</time></trkpt><trkpt lat="45.484279734721156" lon="10.321375026927614"><ele>135.0</ele><time>2026-03-28T18:45:15Z</time></trkpt><trkpt lat="45.484309802153504" lon="10.321294191672859"><ele>135.0</ele><time>2026-03-28T18:45:16Z</time></trkpt><trkpt lat="45.48434746426256" lon="10.321214062362815"><ele>135.0</ele><time>2026-03-28T18:45:17Z</time></trkpt><trkpt lat="45.48439196725852" lon="10.321124230469652"><ele>135.0</ele><time>2026-03-28T18:45:18Z</time></trkpt><trkpt lat="45.48443760662642" lon="10.321032768494712"><ele>135.0</ele><time>2026-03-28T18:45:19Z</time></trkpt><trkpt lat="45.48449259664184" lon="10.320933051759516"><ele>135.0</ele><time>2026-03-28T18:45:20Z</time></trkpt><trkpt lat="45.484540652252605" lon="10.320823828204846"><ele>135.0</ele><time>2026-03-28T18:45:21Z</time></trkpt><trkpt lat="45.48456941118309" lon="10.320677133562127"><ele>134.83333333333334</ele><time>2026-03-28T18:45:22Z</time></trkpt><trkpt lat="45.484597705142455" lon="10.320552348345457"><ele>134.66666666666666</ele><time>2026-03-28T18:45:23Z</time></trkpt><trkpt lat="45.48463257639346" lon="10.320438845470523"><ele>134.5</ele><time>2026-03-28T18:45:24Z</time></trkpt><trkpt lat="45.48463812126118" lon="10.320325671383884"><ele>134.33333333333331</ele><time>2026-03-28T18:45:25Z</time></trkpt><trkpt lat="45.484630899421155" lon="10.320207583302263"><ele>134.16666666666666</ele><time>2026-03-28T18:45:26Z</time></trkpt><trkpt lat="45.484650795884036" lon="10.320061787071928"><ele>134.0</ele><time>2026-03-28T18:45:27Z</time></trkpt><trkpt lat="45.48468432435741" lon="10.319925956896473"><ele>134.0</ele><time>2026-03-28T18:45:28Z</time></trkpt><trkpt lat="45.4847217873628" lon="10.319771125043953"><ele>134.0</ele><time>2026-03-28T18:45:29Z</time></trkpt><trkpt lat="45.48477408924407" lon="10.319621659947169"><ele>134.0</ele><time>2026-03-28T18:45:30Z</time></trkpt><trkpt lat="45.48483997756345" lon="10.319471881628983"><ele>134.0</ele><time>2026-03-28T18:45:31Z</time></trkpt><trkpt lat="45.48492022290972" lon="10.319330813416093"><ele>134.25</ele><time>2026-03-28T18:45:32Z</time></trkpt><trkpt lat="45.485006321495135" lon="10.31919759889192"><ele>134.5</ele><time>2026-03-28T18:45:33Z</time></trkpt><trkpt lat="45.485092934475595" lon="10.31910613436738"><ele>134.75</ele><time>2026-03-28T18:45:34Z</time></trkpt><trkpt lat="45.48518388047198" lon="10.319015059863961"><ele>135.0</ele><time>2026-03-28T18:45:35Z</time></trkpt><trkpt lat="45.48528207294827" lon="10.318921388379135"><ele>135.0</ele><time>2026-03-28T18:45:36Z</time></trkpt><trkpt lat="45.48539203761741" lon="10.318844244687497"><ele>135.0</ele><time>2026-03-28T18:45:37Z</time></trkpt><trkpt lat="45.48551196439295" lon="10.318779834788247"><ele>135.0</ele><time>2026-03-28T18:45:38Z</time></trkpt><trkpt lat="45.48561447456918" lon="10.318727848676716"><ele>135.0</ele><time>2026-03-28T18:45:39Z</time></trkpt><trkpt lat="45.485782237061336" lon="10.318705237481055"><ele>135.0</ele><time>2026-03-28T18:45:40Z</time></trkpt><trkpt lat="45.48596248412849" lon="10.31867185807625"><ele>135.0</ele><time>2026-03-28T18:45:41Z</time></trkpt><trkpt lat="45.48613595029228" lon="10.318634249593085"><ele>135.0</ele><time>2026-03-28T18:45:42Z</time></trkpt><trkpt lat="45.48625959693053" lon="10.318606162881629"><ele>135.0</ele><time>2026-03-28T18:45:43Z</time></trkpt><trkpt lat="45.48642475888894" lon="10.318603270948543"><ele>135.0</ele><time>2026-03-28T18:45:44Z</time></trkpt><trkpt lat="45.486573851822435" lon="10.318535133830956"><ele>135.0</ele><time>2026-03-28T18:45:45Z</time></trkpt><trkpt lat="45.48674483442449" lon="10.31857229966887"><ele>135.0</ele><time>2026-03-28T18:45:46Z</time></trkpt><trkpt lat="45.486904061827154" lon="10.318564911294082"><ele>135.0</ele><time>2026-03-28T18:45:47Z</time></trkpt><trkpt lat="45.48704063665493" lon="10.318552925714743"><ele>135.0</ele><time>2026-03-28T18:45:48Z</time></trkpt><trkpt lat="45.48718769354377" lon="10.318524039006066"><ele>135.0</ele><time>2026-03-28T18:45:49Z</time></trkpt><trkpt lat="45.48737661539981" lon="10.318498169936564"><ele>135.33333333333334</ele><time>2026-03-28T18:45:50Z</time></trkpt><trkpt lat="45.487591440038535" lon="10.318495689237501"><ele>135.66666666666669</ele><time>2026-03-28T18:45:51Z</time></trkpt><trkpt lat="45.48777639145152" lon="10.31849067821069"><ele>136.0</ele><time>2026-03-28T18:45:52Z</time></trkpt><trkpt lat="45.48798311706228" lon="10.318482559769775"><ele>137.0</ele><time>2026-03-28T18:45:53Z</time></trkpt><trkpt lat="45.488217329433944" lon="10.318492001808426"><ele>138.0</ele><time>2026-03-28T18:45:54Z</time></trkpt><trkpt lat="45.48843264638432" lon="10.318516168300285"><ele>138.0</ele><time>2026-03-28T18:45:55Z</time></trkpt><trkpt lat="45.488724410339024" lon="10.31849421985537"><ele>138.0</ele><time>2026-03-28T18:45:56Z</time></trkpt><trkpt lat="45.48901735722585" lon="10.318484736222247"><ele>138.0</ele><time>2026-03-28T18:45:57Z</time></trkpt><trkpt lat="45.489312426550335" lon="10.31847234457629"><ele>138.0</ele><time>2026-03-28T18:45:58Z</time></trkpt><trkpt lat="45.48961387868393" lon="10.318469998184765"><ele>138.0</ele><time>2026-03-28T18:45:59Z</time></trkpt><trkpt lat="45.489877923301506" lon="10.318474544329524"><ele>138.0</ele><time>2026-03-28T18:46:00Z</time></trkpt><trkpt lat="45.49012082311474" lon="10.318473596914684"><ele>138.0</ele><time>2026-03-28T18:46:01Z</time></trkpt><trkpt lat="45.49036155562737" lon="10.318463485534338"><ele>138.0</ele><time>2026-03-28T18:46:02Z</time></trkpt><trkpt lat="45.49059930952474" lon="10.31846199229473"><ele>138.0</ele><time>2026-03-28T18:46:03Z</time></trkpt><trkpt lat="45.49084183981654" lon="10.318461031132756"><ele>138.0</ele><time>2026-03-28T18:46:04Z</time></trkpt><trkpt lat="45.49108077595934" lon="10.318458552694612"><ele>137.5</ele><time>2026-03-28T18:46:05Z</time></trkpt><trkpt lat="45.491330704568" lon="10.318456966033956"><ele>137.0</ele><time>2026-03-28T18:46:06Z</time></trkpt><trkpt lat="45.49158571741609" lon="10.318455076039834"><ele>137.0</ele><time>2026-03-28T18:46:07Z</time></trkpt><trkpt lat="45.49183407379534" lon="10.318453548432101"><ele>137.0</ele><time>2026-03-28T18:46:08Z</time></trkpt><trkpt lat="45.492086695088844" lon="10.318447196762772"><ele>138.0</ele><time>2026-03-28T18:46:09Z</time></trkpt><trkpt lat="45.49233237545105" lon="10.318437556766831"><ele>139.0</ele><time>2026-03-28T18:46:10Z</time></trkpt><trkpt lat="45.492553679689415" lon="10.318437129047336"><ele>139.0</ele><time>2026-03-28T18:46:11Z</time></trkpt><trkpt lat="45.492769740026425" lon="10.318434732282354"><ele>139.0</ele><time>2026-03-28T18:46:12Z</time></trkpt><trkpt lat="45.49298805383182" lon="10.318427187911446"><ele>139.0</ele><time>2026-03-28T18:46:13Z</time></trkpt><trkpt lat="45.49320427444038" lon="10.318422790543588"><ele>139.0</ele><time>2026-03-28T18:46:14Z</time></trkpt><trkpt lat="45.49341537099203" lon="10.318436896426757"><ele>139.0</ele><time>2026-03-28T18:46:15Z</time></trkpt><trkpt lat="45.49361878681962" lon="10.318462242849673"><ele>139.0</ele><time>2026-03-28T18:46:16Z</time></trkpt><trkpt lat="45.49381347101827" lon="10.318548236282513"><ele>139.66666666666669</ele><time>2026-03-28T18:46:17Z</time></trkpt><trkpt lat="45.494003906474596" lon="10.31866134692882"><ele>140.33333333333334</ele><time>2026-03-28T18:46:18Z</time></trkpt><trkpt lat="45.494185925638384" lon="10.318799747871871"><ele>141.0</ele><time>2026-03-28T18:46:19Z</time></trkpt><trkpt lat="45.49435736820523" lon="10.318958947672234"><ele>141.33333333333334</ele><time>2026-03-28T18:46:20Z</time></trkpt><trkpt lat="45.4945266026054" lon="10.319127200942065"><ele>141.66666666666669</ele><time>2026-03-28T18:46:21Z</time></trkpt><trkpt lat="45.49470723769888" lon="10.319287918602262"><ele>142.0</ele><time>2026-03-28T18:46:22Z</time></trkpt><trkpt lat="45.49487219746438" lon="10.319475130956217"><ele>141.66666666666669</ele><time>2026-03-28T18:46:23Z</time></trkpt><trkpt lat="45.495026656780624" lon="10.319651039513419"><ele>141.33333333333334</ele><time>2026-03-28T18:46:24Z</time></trkpt><trkpt lat="45.49517629493817" lon="10.319841435796276"><ele>141.0</ele><time>2026-03-28T18:46:25Z</time></trkpt><trkpt lat="45.49530692062088" lon="10.32005237233546"><ele>141.0</ele><time>2026-03-28T18:46:26Z</time></trkpt><trkpt lat="45.4954388334247" lon="10.32026869910086"><ele>141.0</ele><time>2026-03-28T18:46:27Z</time></trkpt><trkpt lat="45.49556582666135" lon="10.320492063960124"><ele>141.0</ele><time>2026-03-28T18:46:28Z</time></trkpt><trkpt lat="45.4956894085466" lon="10.320725282793694"><ele>140.66666666666666</ele><time>2026-03-28T18:46:29Z</time></trkpt><trkpt lat="45.49580699436149" lon="10.320978682070134"><ele>140.33333333333331</ele><time>2026-03-28T18:46:30Z</time></trkpt><trkpt lat="45.49591201163428" lon="10.321244407773147"><ele>140.0</ele><time>2026-03-28T18:46:31Z</time></trkpt><trkpt lat="45.49600373970342" lon="10.321536112656647"><ele>139.5</ele><time>2026-03-28T18:46:32Z</time></trkpt><trkpt lat="45.496087331916584" lon="10.321839816083893"><ele>139.0</ele><time>2026-03-28T18:46:33Z</time></trkpt><trkpt lat="45.49615953587231" lon="10.322155216454492"><ele>139.5</ele><time>2026-03-28T18:46:34Z</time></trkpt><trkpt lat="45.49621403457807" lon="10.322482467073142"><ele>140.0</ele><time>2026-03-28T18:46:35Z</time></trkpt><trkpt lat="45.49625069681293" lon="10.322809220698446"><ele>142.0</ele><time>2026-03-28T18:46:35.999Z</time></trkpt><trkpt lat="45.49627185942817" lon="10.323145512766038"><ele>144.0</ele><time>2026-03-28T18:46:36.999Z</time></trkpt><trkpt lat="45.49629160729151" lon="10.323495515130057"><ele>144.0</ele><time>2026-03-28T18:46:37.999Z</time></trkpt><trkpt lat="45.49630851665848" lon="10.32383751015824"><ele>144.0</ele><time>2026-03-28T18:46:38.999Z</time></trkpt><trkpt lat="45.49629634291621" lon="10.324188206576402"><ele>143.5</ele><time>2026-03-28T18:46:39.999Z</time></trkpt><trkpt lat="45.49628162855169" lon="10.324544430332725"><ele>143.0</ele><time>2026-03-28T18:46:40.999Z</time></trkpt><trkpt lat="45.49627843423738" lon="10.324894104817606"><ele>142.5</ele><time>2026-03-28T18:46:41.999Z</time></trkpt><trkpt lat="45.496269354653236" lon="10.325250231662869"><ele>142.0</ele><time>2026-03-28T18:46:42.999Z</time></trkpt><trkpt lat="45.496268366592105" lon="10.325599733148591"><ele>142.0</ele><time>2026-03-28T18:46:43.999Z</time></trkpt><trkpt lat="45.49627826247062" lon="10.325937642302916"><ele>142.0</ele><time>2026-03-28T18:46:44.999Z</time></trkpt><trkpt lat="45.49630328600798" lon="10.326273759602902"><ele>142.0</ele><time>2026-03-28T18:46:45.999Z</time></trkpt><trkpt lat="45.4963446337591" lon="10.326610575319036"><ele>142.0</ele><time>2026-03-28T18:46:46.999Z</time></trkpt><trkpt lat="45.49639580872475" lon="10.326946842270422"><ele>143.0</ele><time>2026-03-28T18:46:47.999Z</time></trkpt><trkpt lat="45.49646903571116" lon="10.327284261618482"><ele>144.0</ele><time>2026-03-28T18:46:48.999Z</time></trkpt><trkpt lat="45.4965462756202" lon="10.327620939720045"><ele>144.0</ele><time>2026-03-28T18:46:49.999Z</time></trkpt><trkpt lat="45.49664060460357" lon="10.327941933172061"><ele>144.0</ele><time>2026-03-28T18:46:50.999Z</time></trkpt><trkpt lat="45.496746193104215" lon="10.32826239109844"><ele>144.5</ele><time>2026-03-28T18:46:51.999Z</time></trkpt><trkpt lat="45.496868534847984" lon="10.328567499172863"><ele>145.0</ele><time>2026-03-28T18:46:52.999Z</time></trkpt><trkpt lat="45.49700186536975" lon="10.328861681129913"><ele>143.0</ele><time>2026-03-28T18:46:54Z</time></trkpt><trkpt lat="45.49714536804976" lon="10.329147372132853"><ele>141.0</ele><time>2026-03-28T18:46:55Z</time></trkpt><trkpt lat="45.49730005642244" lon="10.329429078135465"><ele>141.0</ele><time>2026-03-28T18:46:56Z</time></trkpt><trkpt lat="45.4974637221069" lon="10.32969707633213"><ele>141.0</ele><time>2026-03-28T18:46:57Z</time></trkpt><trkpt lat="45.497641455899895" lon="10.329944865970576"><ele>141.0</ele><time>2026-03-28T18:46:58Z</time></trkpt><trkpt lat="45.49782094316117" lon="10.330169633554185"><ele>141.0</ele><time>2026-03-28T18:46:59Z</time></trkpt><trkpt lat="45.49799211473758" lon="10.330377960970793"><ele>142.0</ele><time>2026-03-28T18:47:00Z</time></trkpt><trkpt lat="45.49816565476996" lon="10.330574189402041"><ele>143.0</ele><time>2026-03-28T18:47:01Z</time></trkpt><trkpt lat="45.498327940723506" lon="10.330778706757048"><ele>144.0</ele><time>2026-03-28T18:47:02Z</time></trkpt><trkpt lat="45.49850645938621" lon="10.330972041805968"><ele>144.0</ele><time>2026-03-28T18:47:03Z</time></trkpt><trkpt lat="45.49867779544098" lon="10.33116772893886"><ele>144.0</ele><time>2026-03-28T18:47:04Z</time></trkpt><trkpt lat="45.49884942206707" lon="10.33136842225962"><ele>144.0</ele><time>2026-03-28T18:47:05Z</time></trkpt><trkpt lat="45.49902111344772" lon="10.331574326798012"><ele>143.5</ele><time>2026-03-28T18:47:06Z</time></trkpt><trkpt lat="45.499191593432066" lon="10.331791608982867"><ele>143.0</ele><time>2026-03-28T18:47:07Z</time></trkpt><trkpt lat="45.49936877112802" lon="10.332003942981562"><ele>143.5</ele><time>2026-03-28T18:47:08Z</time></trkpt><trkpt lat="45.49954653455876" lon="10.332223745253165"><ele>144.0</ele><time>2026-03-28T18:47:09Z</time></trkpt><trkpt lat="45.49973260300263" lon="10.332431576207474"><ele>144.0</ele><time>2026-03-28T18:47:10Z</time></trkpt><trkpt lat="45.499913662531355" lon="10.332655926368396"><ele>144.0</ele><time>2026-03-28T18:47:11Z</time></trkpt><trkpt lat="45.50009657991105" lon="10.332880002283927"><ele>144.0</ele><time>2026-03-28T18:47:12Z</time></trkpt><trkpt lat="45.500277935580705" lon="10.33309853740697"><ele>144.0</ele><time>2026-03-28T18:47:13Z</time></trkpt><trkpt lat="45.500449647499934" lon="10.33331918692624"><ele>144.0</ele><time>2026-03-28T18:47:14Z</time></trkpt><trkpt lat="45.5006319575381" lon="10.333539290924508"><ele>144.0</ele><time>2026-03-28T18:47:15Z</time></trkpt><trkpt lat="45.500811735791636" lon="10.333754525091116"><ele>143.0</ele><time>2026-03-28T18:47:16Z</time></trkpt><trkpt lat="45.501006038211756" lon="10.33395761091879"><ele>142.0</ele><time>2026-03-28T18:47:17Z</time></trkpt><trkpt lat="45.501190206926424" lon="10.334169848439354"><ele>142.33333333333334</ele><time>2026-03-28T18:47:18Z</time></trkpt><trkpt lat="45.50138237145075" lon="10.334357242001357"><ele>142.66666666666666</ele><time>2026-03-28T18:47:19Z</time></trkpt><trkpt lat="45.501558134088164" lon="10.334530652024783"><ele>143.0</ele><time>2026-03-28T18:47:20Z</time></trkpt><trkpt lat="45.50173104362898" lon="10.334694691752585"><ele>143.33333333333331</ele><time>2026-03-28T18:47:21Z</time></trkpt><trkpt lat="45.501905080507676" lon="10.334879777404556"><ele>143.66666666666666</ele><time>2026-03-28T18:47:22Z</time></trkpt><trkpt lat="45.50207691922597" lon="10.335042164744133"><ele>144.0</ele><time>2026-03-28T18:47:23Z</time></trkpt><trkpt lat="45.50225284603854" lon="10.335204744274135"><ele>144.33333333333334</ele><time>2026-03-28T18:47:24Z</time></trkpt><trkpt lat="45.502431306548736" lon="10.33536064575161"><ele>144.66666666666669</ele><time>2026-03-28T18:47:25Z</time></trkpt><trkpt lat="45.50260427376479" lon="10.335517900756006"><ele>145.0</ele><time>2026-03-28T18:47:26Z</time></trkpt><trkpt lat="45.502775282041526" lon="10.335690060850471"><ele>145.33333333333334</ele><time>2026-03-28T18:47:27Z</time></trkpt><trkpt lat="45.502946473950296" lon="10.335846635402747"><ele>145.66666666666666</ele><time>2026-03-28T18:47:28Z</time></trkpt><trkpt lat="45.50312504731168" lon="10.33600098887502"><ele>146.0</ele><time>2026-03-28T18:47:29Z</time></trkpt><trkpt lat="45.50330540621796" lon="10.336174283919323"><ele>146.0</ele><time>2026-03-28T18:47:30Z</time></trkpt><trkpt lat="45.50347350292145" lon="10.336346355988498"><ele>146.0</ele><time>2026-03-28T18:47:31Z</time></trkpt><trkpt lat="45.50364229210868" lon="10.336509318189808"><ele>146.0</ele><time>2026-03-28T18:47:32Z</time></trkpt><trkpt lat="45.50381298711788" lon="10.336663721995311"><ele>146.0</ele><time>2026-03-28T18:47:33Z</time></trkpt><trkpt lat="45.50398012034165" lon="10.336831809549938"><ele>146.0</ele><time>2026-03-28T18:47:34Z</time></trkpt><trkpt lat="45.50415341813169" lon="10.336993305624336"><ele>146.0</ele><time>2026-03-28T18:47:35Z</time></trkpt><trkpt lat="45.504329326845756" lon="10.337149857185878"><ele>146.66666666666666</ele><time>2026-03-28T18:47:36Z</time></trkpt><trkpt lat="45.504491430447736" lon="10.337324506843647"><ele>147.33333333333334</ele><time>2026-03-28T18:47:37Z</time></trkpt><trkpt lat="45.5046695093207" lon="10.337487993815419"><ele>148.0</ele><time>2026-03-28T18:47:38Z</time></trkpt><trkpt lat="45.50483391428646" lon="10.337640752074785"><ele>148.0</ele><time>2026-03-28T18:47:39Z</time></trkpt><trkpt lat="45.504997645755246" lon="10.33779564849458"><ele>148.0</ele><time>2026-03-28T18:47:40Z</time></trkpt><trkpt lat="45.50516101540596" lon="10.337947015174457"><ele>148.0</ele><time>2026-03-28T18:47:41Z</time></trkpt><trkpt lat="45.50532310431079" lon="10.338112712553432"><ele>148.0</ele><time>2026-03-28T18:47:42Z</time></trkpt><trkpt lat="45.50548333770593" lon="10.338269836694005"><ele>148.0</ele><time>2026-03-28T18:47:43Z</time></trkpt><trkpt lat="45.50565202039477" lon="10.338422370574351"><ele>148.0</ele><time>2026-03-28T18:47:44Z</time></trkpt><trkpt lat="45.50581115486502" lon="10.338581723306499"><ele>148.0</ele><time>2026-03-28T18:47:45Z</time></trkpt><trkpt lat="45.50598335510411" lon="10.338743211150334"><ele>148.0</ele><time>2026-03-28T18:47:46Z</time></trkpt><trkpt lat="45.50615319467934" lon="10.338901938301307"><ele>148.0</ele><time>2026-03-28T18:47:47Z</time></trkpt><trkpt lat="45.50632183655634" lon="10.339059440040668"><ele>147.66666666666669</ele><time>2026-03-28T18:47:48Z</time></trkpt><trkpt lat="45.50649048263941" lon="10.339214980298124"><ele>147.33333333333334</ele><time>2026-03-28T18:47:49Z</time></trkpt><trkpt lat="45.50666293441226" lon="10.339374128672448"><ele>147.0</ele><time>2026-03-28T18:47:50Z</time></trkpt><trkpt lat="45.50683739153662" lon="10.339539559818752"><ele>147.0</ele><time>2026-03-28T18:47:51Z</time></trkpt><trkpt lat="45.507014586751104" lon="10.339702433558205"><ele>147.0</ele><time>2026-03-28T18:47:52Z</time></trkpt><trkpt lat="45.50719276535334" lon="10.339870320946417"><ele>147.0</ele><time>2026-03-28T18:47:53Z</time></trkpt><trkpt lat="45.50736772502364" lon="10.340046040559953"><ele>148.33333333333334</ele><time>2026-03-28T18:47:54Z</time></trkpt><trkpt lat="45.50754408937192" lon="10.340214099406376"><ele>149.66666666666669</ele><time>2026-03-28T18:47:55Z</time></trkpt><trkpt lat="45.50771684520699" lon="10.340376983130898"><ele>151.0</ele><time>2026-03-28T18:47:56Z</time></trkpt><trkpt lat="45.50790066477977" lon="10.340538853190337"><ele>149.0</ele><time>2026-03-28T18:47:57Z</time></trkpt><trkpt lat="45.508076604813965" lon="10.340717990189823"><ele>147.0</ele><time>2026-03-28T18:47:58Z</time></trkpt><trkpt lat="45.50824383016851" lon="10.340854367313359"><ele>145.0</ele><time>2026-03-28T18:47:59Z</time></trkpt><trkpt lat="45.50840582145959" lon="10.341011337638914"><ele>145.0</ele><time>2026-03-28T18:48:00Z</time></trkpt><trkpt lat="45.50856320678659" lon="10.341167371191005"><ele>145.0</ele><time>2026-03-28T18:48:01Z</time></trkpt><trkpt lat="45.508715121383894" lon="10.341333371500388"><ele>145.0</ele><time>2026-03-28T18:48:02Z</time></trkpt><trkpt lat="45.50886616611496" lon="10.341498848476943"><ele>146.0</ele><time>2026-03-28T18:48:03Z</time></trkpt><trkpt lat="45.509011029844864" lon="10.341685584970676"><ele>147.0</ele><time>2026-03-28T18:48:04Z</time></trkpt><trkpt lat="45.50912997306292" lon="10.341879773039826"><ele>148.0</ele><time>2026-03-28T18:48:05Z</time></trkpt><trkpt lat="45.50928203750126" lon="10.342071134799646"><ele>148.33333333333334</ele><time>2026-03-28T18:48:06Z</time></trkpt><trkpt lat="45.509424623428664" lon="10.342282795288687"><ele>148.66666666666666</ele><time>2026-03-28T18:48:07Z</time></trkpt><trkpt lat="45.509558029707655" lon="10.342506687138773"><ele>149.0</ele><time>2026-03-28T18:48:08Z</time></trkpt><trkpt lat="45.50968985902548" lon="10.342735366176614"><ele>149.0</ele><time>2026-03-28T18:48:09Z</time></trkpt><trkpt lat="45.50981334640602" lon="10.3429801022447"><ele>149.0</ele><time>2026-03-28T18:48:10Z</time></trkpt><trkpt lat="45.509916479947435" lon="10.343243624922852"><ele>149.0</ele><time>2026-03-28T18:48:11Z</time></trkpt><trkpt lat="45.510041401329914" lon="10.34350081518826"><ele>149.33333333333331</ele><time>2026-03-28T18:48:12Z</time></trkpt><trkpt lat="45.510147425940055" lon="10.343773237331167"><ele>149.66666666666666</ele><time>2026-03-28T18:48:13Z</time></trkpt><trkpt lat="45.51025956303083" lon="10.344041138474978"><ele>150.0</ele><time>2026-03-28T18:48:14Z</time></trkpt><trkpt lat="45.51036834477435" lon="10.34430959019304"><ele>150.0</ele><time>2026-03-28T18:48:15Z</time></trkpt><trkpt lat="45.51045586831872" lon="10.344577865910395"><ele>150.0</ele><time>2026-03-28T18:48:16Z</time></trkpt><trkpt lat="45.51054758200326" lon="10.344809206068973"><ele>150.0</ele><time>2026-03-28T18:48:17Z</time></trkpt><trkpt lat="45.51064846082111" lon="10.345063585156252"><ele>150.0</ele><time>2026-03-28T18:48:18Z</time></trkpt><trkpt lat="45.510751791394796" lon="10.345324008552224"><ele>150.0</ele><time>2026-03-28T18:48:19Z</time></trkpt><trkpt lat="45.51085477819522" lon="10.345583565563953"><ele>150.0</ele><time>2026-03-28T18:48:20Z</time></trkpt><trkpt lat="45.51095689816667" lon="10.345842878705534"><ele>150.0</ele><time>2026-03-28T18:48:21Z</time></trkpt><trkpt lat="45.511061679416464" lon="10.34611034664094"><ele>150.0</ele><time>2026-03-28T18:48:22Z</time></trkpt><trkpt lat="45.511180060088705" lon="10.346366763889208"><ele>150.0</ele><time>2026-03-28T18:48:23Z</time></trkpt><trkpt lat="45.511284919427155" lon="10.34664541277532"><ele>150.66666666666666</ele><time>2026-03-28T18:48:24Z</time></trkpt><trkpt lat="45.51139019907795" lon="10.346927701377286"><ele>151.33333333333331</ele><time>2026-03-28T18:48:25Z</time></trkpt><trkpt lat="45.51149322319128" lon="10.347208006253283"><ele>152.0</ele><time>2026-03-28T18:48:26Z</time></trkpt><trkpt lat="45.51159528410427" lon="10.34749593443273"><ele>152.0</ele><time>2026-03-28T18:48:27Z</time></trkpt><trkpt lat="45.511691627210496" lon="10.347787273285908"><ele>152.0</ele><time>2026-03-28T18:48:28Z</time></trkpt><trkpt lat="45.51178054200739" lon="10.348080694782826"><ele>152.0</ele><time>2026-03-28T18:48:29Z</time></trkpt><trkpt lat="45.51186775446815" lon="10.348368756092313"><ele>152.0</ele><time>2026-03-28T18:48:30Z</time></trkpt><trkpt lat="45.51195037462133" lon="10.34866348791996"><ele>152.0</ele><time>2026-03-28T18:48:31Z</time></trkpt><trkpt lat="45.51202714777819" lon="10.34895924183272"><ele>152.0</ele><time>2026-03-28T18:48:32Z</time></trkpt><trkpt lat="45.512097335336485" lon="10.349250677746339"><ele>152.0</ele><time>2026-03-28T18:48:33Z</time></trkpt><trkpt lat="45.512155894519495" lon="10.349522652062744"><ele>152.0</ele><time>2026-03-28T18:48:34Z</time></trkpt><trkpt lat="45.512215288327575" lon="10.349783857821578"><ele>152.0</ele><time>2026-03-28T18:48:35Z</time></trkpt><trkpt lat="45.51225544909889" lon="10.350033682871413"><ele>152.0</ele><time>2026-03-28T18:48:36Z</time></trkpt><trkpt lat="45.512294490203026" lon="10.350275895303914"><ele>152.0</ele><time>2026-03-28T18:48:37Z</time></trkpt><trkpt lat="45.512337979813154" lon="10.350530865778229"><ele>152.66666666666666</ele><time>2026-03-28T18:48:38Z</time></trkpt><trkpt lat="45.51238876742444" lon="10.350782933177763"><ele>153.33333333333334</ele><time>2026-03-28T18:48:39Z</time></trkpt><trkpt lat="45.51242460796659" lon="10.351052936184256"><ele>154.0</ele><time>2026-03-28T18:48:40Z</time></trkpt><trkpt lat="45.51246720758763" lon="10.351299746060644"><ele>153.66666666666669</ele><time>2026-03-28T18:48:41Z</time></trkpt><trkpt lat="45.51249746971163" lon="10.351576507888579"><ele>153.33333333333334</ele><time>2026-03-28T18:48:42Z</time></trkpt><trkpt lat="45.512533571574885" lon="10.351847263304336"><ele>153.0</ele><time>2026-03-28T18:48:43Z</time></trkpt><trkpt lat="45.51257272503094" lon="10.352109858967182"><ele>152.66666666666666</ele><time>2026-03-28T18:48:44Z</time></trkpt><trkpt lat="45.51260907010305" lon="10.352382880457851"><ele>152.33333333333331</ele><time>2026-03-28T18:48:45Z</time></trkpt><trkpt lat="45.51265015494921" lon="10.352641390974352"><ele>152.0</ele><time>2026-03-28T18:48:46Z</time></trkpt><trkpt lat="45.51268478996507" lon="10.35286682462719"><ele>152.0</ele><time>2026-03-28T18:48:47Z</time></trkpt><trkpt lat="45.512719913883586" lon="10.35311866314708"><ele>152.0</ele><time>2026-03-28T18:48:47.999Z</time></trkpt><trkpt lat="45.512760943308706" lon="10.353363290379676"><ele>152.0</ele><time>2026-03-28T18:48:48.999Z</time></trkpt><trkpt lat="45.51279791852293" lon="10.35360969786025"><ele>152.0</ele><time>2026-03-28T18:48:49.999Z</time></trkpt><trkpt lat="45.51284118219126" lon="10.353864577946625"><ele>152.0</ele><time>2026-03-28T18:48:50.999Z</time></trkpt><trkpt lat="45.512879878900144" lon="10.354117031744723"><ele>152.0</ele><time>2026-03-28T18:48:51.999Z</time></trkpt><trkpt lat="45.51292447016924" lon="10.354364399907478"><ele>152.33333333333331</ele><time>2026-03-28T18:48:52.999Z</time></trkpt><trkpt lat="45.512951452901106" lon="10.354601124779812"><ele>152.66666666666666</ele><time>2026-03-28T18:48:53.999Z</time></trkpt><trkpt lat="45.5129851336694" lon="10.354832365405244"><ele>153.0</ele><time>2026-03-28T18:48:54.999Z</time></trkpt><trkpt lat="45.51301437378388" lon="10.355083348920294"><ele>153.0</ele><time>2026-03-28T18:48:55.999Z</time></trkpt><trkpt lat="45.513046850729225" lon="10.355337291651118"><ele>153.0</ele><time>2026-03-28T18:48:56.999Z</time></trkpt><trkpt lat="45.51308689985054" lon="10.355592617687263"><ele>153.0</ele><time>2026-03-28T18:48:57.999Z</time></trkpt><trkpt lat="45.513129523175" lon="10.355851644566608"><ele>153.0</ele><time>2026-03-28T18:48:58.999Z</time></trkpt><trkpt lat="45.51317062031064" lon="10.35610729643717"><ele>153.0</ele><time>2026-03-28T18:49:00Z</time></trkpt><trkpt lat="45.51320876257574" lon="10.356366630190074"><ele>153.0</ele><time>2026-03-28T18:49:01Z</time></trkpt><trkpt lat="45.51323843961503" lon="10.356629256337847"><ele>153.0</ele><time>2026-03-28T18:49:02Z</time></trkpt><trkpt lat="45.513259833898275" lon="10.356873749660263"><ele>153.0</ele><time>2026-03-28T18:49:03Z</time></trkpt><trkpt lat="45.51327830132717" lon="10.357096747540968"><ele>153.0</ele><time>2026-03-28T18:49:04Z</time></trkpt><trkpt lat="45.513295656878064" lon="10.357314787681737"><ele>153.0</ele><time>2026-03-28T18:49:05Z</time></trkpt><trkpt lat="45.51331684130611" lon="10.357507735450739"><ele>153.0</ele><time>2026-03-28T18:49:06Z</time></trkpt><trkpt lat="45.513350788154305" lon="10.357697045511625"><ele>153.0</ele><time>2026-03-28T18:49:07Z</time></trkpt><trkpt lat="45.51336193617282" lon="10.357883579515931"><ele>153.0</ele><time>2026-03-28T18:49:08Z</time></trkpt><trkpt lat="45.51338273871329" lon="10.358080532472588"><ele>153.0</ele><time>2026-03-28T18:49:09Z</time></trkpt><trkpt lat="45.51340699276061" lon="10.358277448308783"><ele>153.0</ele><time>2026-03-28T18:49:10Z</time></trkpt><trkpt lat="45.51342516983761" lon="10.35848302164959"><ele>153.0</ele><time>2026-03-28T18:49:11Z</time></trkpt><trkpt lat="45.51344504385504" lon="10.35870275680894"><ele>153.0</ele><time>2026-03-28T18:49:12Z</time></trkpt><trkpt lat="45.51345226481453" lon="10.358905009224435"><ele>153.66666666666666</ele><time>2026-03-28T18:49:13Z</time></trkpt><trkpt lat="45.51348419324415" lon="10.359113915794818"><ele>154.33333333333331</ele><time>2026-03-28T18:49:14Z</time></trkpt><trkpt lat="45.51350795655787" lon="10.359329217576589"><ele>155.0</ele><time>2026-03-28T18:49:15Z</time></trkpt><trkpt lat="45.51352880810154" lon="10.35955770114001"><ele>154.0</ele><time>2026-03-28T18:49:16Z</time></trkpt><trkpt lat="45.513551149713585" lon="10.35974973606322"><ele>153.0</ele><time>2026-03-28T18:49:17Z</time></trkpt><trkpt lat="45.51357660887401" lon="10.35995589210926"><ele>152.0</ele><time>2026-03-28T18:49:18Z</time></trkpt><trkpt lat="45.51360877582191" lon="10.360148771261034"><ele>151.0</ele><time>2026-03-28T18:49:19Z</time></trkpt><trkpt lat="45.51362902579831" lon="10.36036741761525"><ele>151.66666666666669</ele><time>2026-03-28T18:49:20Z</time></trkpt><trkpt lat="45.513655508461774" lon="10.360596312415229"><ele>152.33333333333334</ele><time>2026-03-28T18:49:21Z</time></trkpt><trkpt lat="45.51368308723073" lon="10.360848377088129"><ele>153.0</ele><time>2026-03-28T18:49:22Z</time></trkpt><trkpt lat="45.51370574817844" lon="10.361116093941968"><ele>154.66666666666666</ele><time>2026-03-28T18:49:23Z</time></trkpt><trkpt lat="45.51373116841082" lon="10.361392339486736"><ele>156.33333333333331</ele><time>2026-03-28T18:49:24Z</time></trkpt><trkpt lat="45.513759147007725" lon="10.361646036510765"><ele>158.0</ele><time>2026-03-28T18:49:25Z</time></trkpt><trkpt lat="45.51378472083438" lon="10.361880875226477"><ele>158.0</ele><time>2026-03-28T18:49:26Z</time></trkpt><trkpt lat="45.51382314759122" lon="10.362097941388303"><ele>158.0</ele><time>2026-03-28T18:49:27Z</time></trkpt><trkpt lat="45.51387628512629" lon="10.362320013532905"><ele>158.0</ele><time>2026-03-28T18:49:28Z</time></trkpt><trkpt lat="45.51394294542924" lon="10.362536392094954"><ele>157.66666666666666</ele><time>2026-03-28T18:49:29Z</time></trkpt><trkpt lat="45.51401423326329" lon="10.362752590025961"><ele>157.33333333333334</ele><time>2026-03-28T18:49:30Z</time></trkpt><trkpt lat="45.514094880165366" lon="10.362961556451728"><ele>157.0</ele><time>2026-03-28T18:49:31Z</time></trkpt><trkpt lat="45.51418267489372" lon="10.36316848201178"><ele>156.33333333333334</ele><time>2026-03-28T18:49:32Z</time></trkpt><trkpt lat="45.51428392490746" lon="10.363372799200434"><ele>155.66666666666666</ele><time>2026-03-28T18:49:33Z</time></trkpt><trkpt lat="45.51439813547249" lon="10.363568125149413"><ele>155.0</ele><time>2026-03-28T18:49:34Z</time></trkpt><trkpt lat="45.51450276060072" lon="10.363739972985458"><ele>155.33333333333331</ele><time>2026-03-28T18:49:35Z</time></trkpt><trkpt lat="45.514615610379245" lon="10.363911393187927"><ele>155.66666666666666</ele><time>2026-03-28T18:49:36Z</time></trkpt><trkpt lat="45.514743795274946" lon="10.364073313070888"><ele>156.0</ele><time>2026-03-28T18:49:37Z</time></trkpt><trkpt lat="45.514886454011325" lon="10.364227885017286"><ele>156.0</ele><time>2026-03-28T18:49:38Z</time></trkpt><trkpt lat="45.51503987922444" lon="10.364375759050743"><ele>156.0</ele><time>2026-03-28T18:49:39Z</time></trkpt><trkpt lat="45.51520933442992" lon="10.36453648416416"><ele>156.0</ele><time>2026-03-28T18:49:40Z</time></trkpt><trkpt lat="45.515381016514695" lon="10.36470345588113"><ele>156.33333333333334</ele><time>2026-03-28T18:49:41Z</time></trkpt><trkpt lat="45.515551210674055" lon="10.36487881096379"><ele>156.66666666666669</ele><time>2026-03-28T18:49:42Z</time></trkpt><trkpt lat="45.51573145540905" lon="10.365054888933305"><ele>157.0</ele><time>2026-03-28T18:49:43Z</time></trkpt><trkpt lat="45.515908302011695" lon="10.36523233747749"><ele>157.0</ele><time>2026-03-28T18:49:44Z</time></trkpt><trkpt lat="45.51607741530832" lon="10.365394915164423"><ele>157.0</ele><time>2026-03-28T18:49:45Z</time></trkpt><trkpt lat="45.51622496236971" lon="10.365549315721546"><ele>157.0</ele><time>2026-03-28T18:49:46Z</time></trkpt><trkpt lat="45.51637209517018" lon="10.36570134472365"><ele>157.0</ele><time>2026-03-28T18:49:47Z</time></trkpt><trkpt lat="45.51652244286768" lon="10.365855682584733"><ele>157.0</ele><time>2026-03-28T18:49:48Z</time></trkpt><trkpt lat="45.51667841895194" lon="10.366006214710566"><ele>157.0</ele><time>2026-03-28T18:49:49Z</time></trkpt><trkpt lat="45.51683007175007" lon="10.366158984446491"><ele>157.0</ele><time>2026-03-28T18:49:50Z</time></trkpt><trkpt lat="45.51698804607993" lon="10.36631669135927"><ele>157.0</ele><time>2026-03-28T18:49:51Z</time></trkpt><trkpt lat="45.51714781296331" lon="10.366472980730116"><ele>157.0</ele><time>2026-03-28T18:49:52Z</time></trkpt><trkpt lat="45.51730886091759" lon="10.366637211620631"><ele>157.0</ele><time>2026-03-28T18:49:53Z</time></trkpt><trkpt lat="45.517475890987846" lon="10.36681593029951"><ele>157.0</ele><time>2026-03-28T18:49:54Z</time></trkpt><trkpt lat="45.51764238233966" lon="10.366987168624838"><ele>157.0</ele><time>2026-03-28T18:49:55Z</time></trkpt><trkpt lat="45.51779421" lon="10.367138963136506"><ele>157.0</ele><time>2026-03-28T18:49:56Z</time></trkpt><trkpt lat="45.51794720147383" lon="10.367301763811607"><ele>157.0</ele><time>2026-03-28T18:49:57Z</time></trkpt><trkpt lat="45.5180925782507" lon="10.367459726427269"><ele>157.0</ele><time>2026-03-28T18:49:58Z</time></trkpt><trkpt lat="45.51823565639146" lon="10.367611270561346"><ele>157.0</ele><time>2026-03-28T18:49:59Z</time></trkpt><trkpt lat="45.518355465348485" lon="10.367747537795813"><ele>157.0</ele><time>2026-03-28T18:50:00Z</time></trkpt><trkpt lat="45.51846469470967" lon="10.36787615732013"><ele>157.0</ele><time>2026-03-28T18:50:01Z</time></trkpt><trkpt lat="45.518557741320926" lon="10.367989757685693"><ele>157.0</ele><time>2026-03-28T18:50:02Z</time></trkpt><trkpt lat="45.51863687777136" lon="10.368096746682957"><ele>157.2</ele><time>2026-03-28T18:50:03Z</time></trkpt><trkpt lat="45.51871326128274" lon="10.36819736359081"><ele>157.39999999999998</ele><time>2026-03-28T18:50:04Z</time></trkpt><trkpt lat="45.518785595214034" lon="10.368298695857295"><ele>157.60000000000002</ele><time>2026-03-28T18:50:05Z</time></trkpt><trkpt lat="45.51886802351657" lon="10.368406231176502"><ele>157.8</ele><time>2026-03-28T18:50:06Z</time></trkpt><trkpt lat="45.51894345487502" lon="10.368522567893995"><ele>158.0</ele><time>2026-03-28T18:50:07Z</time></trkpt><trkpt lat="45.51902512556989" lon="10.368634738832078"><ele>158.0</ele><time>2026-03-28T18:50:08Z</time></trkpt><trkpt lat="45.51910380848723" lon="10.368749953094564"><ele>158.0</ele><time>2026-03-28T18:50:09Z</time></trkpt><trkpt lat="45.51918306751412" lon="10.368874725522328"><ele>158.0</ele><time>2026-03-28T18:50:10Z</time></trkpt><trkpt lat="45.519268332192595" lon="10.369007336670816"><ele>158.0</ele><time>2026-03-28T18:50:11Z</time></trkpt><trkpt lat="45.51935493183772" lon="10.369143084011778"><ele>158.33333333333331</ele><time>2026-03-28T18:50:12Z</time></trkpt><trkpt lat="45.51945155322155" lon="10.369288834199867"><ele>158.66666666666666</ele><time>2026-03-28T18:50:13Z</time></trkpt><trkpt lat="45.519557391109956" lon="10.369452707617233"><ele>159.0</ele><time>2026-03-28T18:50:14Z</time></trkpt><trkpt lat="45.51966553541584" lon="10.369619837604343"><ele>159.33333333333334</ele><time>2026-03-28T18:50:15Z</time></trkpt><trkpt lat="45.519783095123735" lon="10.369803186885536"><ele>159.66666666666669</ele><time>2026-03-28T18:50:16Z</time></trkpt><trkpt lat="45.51988839753279" lon="10.369969400272696"><ele>160.0</ele><time>2026-03-28T18:50:17Z</time></trkpt><trkpt lat="45.519984145585994" lon="10.37012654157427"><ele>160.0</ele><time>2026-03-28T18:50:18Z</time></trkpt><trkpt lat="45.52007426759243" lon="10.370263406926925"><ele>160.0</ele><time>2026-03-28T18:50:19Z</time></trkpt><trkpt lat="45.520163877250525" lon="10.370405172605615"><ele>160.0</ele><time>2026-03-28T18:50:20Z</time></trkpt><trkpt lat="45.52025198670238" lon="10.370539623510592"><ele>160.0</ele><time>2026-03-28T18:50:21Z</time></trkpt><trkpt lat="45.52034224697858" lon="10.370676035519619"><ele>159.66666666666669</ele><time>2026-03-28T18:50:22Z</time></trkpt><trkpt lat="45.52043881287857" lon="10.37082915611112"><ele>159.33333333333334</ele><time>2026-03-28T18:50:23Z</time></trkpt><trkpt lat="45.52054585228998" lon="10.370993406667239"><ele>159.0</ele><time>2026-03-28T18:50:24Z</time></trkpt><trkpt lat="45.52066254557995" lon="10.371171112332036"><ele>159.33333333333334</ele><time>2026-03-28T18:50:25Z</time></trkpt><trkpt lat="45.52078618825413" lon="10.371366746131205"><ele>159.66666666666669</ele><time>2026-03-28T18:50:26Z</time></trkpt><trkpt lat="45.520916748358616" lon="10.37157018298367"><ele>160.0</ele><time>2026-03-28T18:50:27Z</time></trkpt><trkpt lat="45.521021959189206" lon="10.371792122259334"><ele>160.0</ele><time>2026-03-28T18:50:28Z</time></trkpt><trkpt lat="45.52114770625202" lon="10.371989427674551"><ele>160.0</ele><time>2026-03-28T18:50:29Z</time></trkpt><trkpt lat="45.52127639951402" lon="10.372191355967907"><ele>160.0</ele><time>2026-03-28T18:50:30Z</time></trkpt><trkpt lat="45.521408237368405" lon="10.372398218201361"><ele>159.66666666666669</ele><time>2026-03-28T18:50:31Z</time></trkpt><trkpt lat="45.52155329666034" lon="10.37260016464494"><ele>159.33333333333334</ele><time>2026-03-28T18:50:32Z</time></trkpt><trkpt lat="45.521693275643955" lon="10.37282602057199"><ele>159.0</ele><time>2026-03-28T18:50:33Z</time></trkpt><trkpt lat="45.52182201078416" lon="10.373026954380064"><ele>160.0</ele><time>2026-03-28T18:50:34Z</time></trkpt><trkpt lat="45.52193679228075" lon="10.373217589227988"><ele>161.0</ele><time>2026-03-28T18:50:35Z</time></trkpt><trkpt lat="45.52205261445233" lon="10.373408616747083"><ele>162.0</ele><time>2026-03-28T18:50:36Z</time></trkpt><trkpt lat="45.522170046589075" lon="10.373598605566372"><ele>162.0</ele><time>2026-03-28T18:50:37Z</time></trkpt><trkpt lat="45.52228806062189" lon="10.37378071858123"><ele>162.0</ele><time>2026-03-28T18:50:38Z</time></trkpt><trkpt lat="45.522398719236314" lon="10.373973988910622"><ele>162.0</ele><time>2026-03-28T18:50:39Z</time></trkpt><trkpt lat="45.522510944907815" lon="10.374164025905898"><ele>161.66666666666666</ele><time>2026-03-28T18:50:39.999Z</time></trkpt><trkpt lat="45.522613421840106" lon="10.374344054413326"><ele>161.33333333333331</ele><time>2026-03-28T18:50:40.999Z</time></trkpt><trkpt lat="45.52270307937958" lon="10.374536766686576"><ele>161.0</ele><time>2026-03-28T18:50:41.999Z</time></trkpt><trkpt lat="45.52279498376341" lon="10.374735064145897"><ele>161.33333333333331</ele><time>2026-03-28T18:50:42.999Z</time></trkpt><trkpt lat="45.52288375635594" lon="10.374935044664339"><ele>161.66666666666666</ele><time>2026-03-28T18:50:43.999Z</time></trkpt><trkpt lat="45.52296992103147" lon="10.375137654314477"><ele>162.0</ele><time>2026-03-28T18:50:44.999Z</time></trkpt><trkpt lat="45.523061614722" lon="10.375346183250395"><ele>162.33333333333334</ele><time>2026-03-28T18:50:45.999Z</time></trkpt><trkpt lat="45.52314924348019" lon="10.375557600103082"><ele>162.66666666666669</ele><time>2026-03-28T18:50:46.999Z</time></trkpt><trkpt lat="45.523237010913874" lon="10.375767242248992"><ele>163.0</ele><time>2026-03-28T18:50:47.999Z</time></trkpt><trkpt lat="45.52333226855951" lon="10.375971688022464"><ele>163.0</ele><time>2026-03-28T18:50:48.999Z</time></trkpt><trkpt lat="45.52342890127338" lon="10.376177518249545"><ele>163.0</ele><time>2026-03-28T18:50:49.999Z</time></trkpt><trkpt lat="45.52351298069656" lon="10.376395988011444"><ele>163.0</ele><time>2026-03-28T18:50:50.999Z</time></trkpt><trkpt lat="45.52361556072745" lon="10.376591777975653"><ele>163.66666666666669</ele><time>2026-03-28T18:50:51.999Z</time></trkpt><trkpt lat="45.523705940967105" lon="10.376802624466503"><ele>164.33333333333334</ele><time>2026-03-28T18:50:52.999Z</time></trkpt><trkpt lat="45.52380072731352" lon="10.377012006227245"><ele>165.0</ele><time>2026-03-28T18:50:53.999Z</time></trkpt><trkpt lat="45.52389387228035" lon="10.377224539884685"><ele>163.66666666666666</ele><time>2026-03-28T18:50:54.999Z</time></trkpt><trkpt lat="45.5239950928805" lon="10.377446937083485"><ele>162.33333333333331</ele><time>2026-03-28T18:50:55.999Z</time></trkpt><trkpt lat="45.52409325505328" lon="10.377671475489421"><ele>161.0</ele><time>2026-03-28T18:50:56.999Z</time></trkpt><trkpt lat="45.52417803814253" lon="10.377875482689033"><ele>161.0</ele><time>2026-03-28T18:50:57.999Z</time></trkpt><trkpt lat="45.52426596633651" lon="10.378068868645883"><ele>161.0</ele><time>2026-03-28T18:50:58.999Z</time></trkpt><trkpt lat="45.52435241586509" lon="10.378258263022257"><ele>161.0</ele><time>2026-03-28T18:50:59.999Z</time></trkpt><trkpt lat="45.52443423766297" lon="10.378440197781867"><ele>161.0</ele><time>2026-03-28T18:51:00.999Z</time></trkpt><trkpt lat="45.52450733844732" lon="10.378606145505831"><ele>161.0</ele><time>2026-03-28T18:51:01.999Z</time></trkpt><trkpt lat="45.52458606052448" lon="10.378776677508004"><ele>161.0</ele><time>2026-03-28T18:51:02.999Z</time></trkpt><trkpt lat="45.52466337096369" lon="10.378950712266064"><ele>161.0</ele><time>2026-03-28T18:51:03.999Z</time></trkpt><trkpt lat="45.52474466070608" lon="10.379130169691713"><ele>161.66666666666666</ele><time>2026-03-28T18:51:04.999Z</time></trkpt><trkpt lat="45.52482750940065" lon="10.379305870557468"><ele>162.33333333333334</ele><time>2026-03-28T18:51:06Z</time></trkpt><trkpt lat="45.524897789013785" lon="10.379494249003265"><ele>163.0</ele><time>2026-03-28T18:51:07Z</time></trkpt><trkpt lat="45.52498068731185" lon="10.379677305506528"><ele>162.66666666666669</ele><time>2026-03-28T18:51:08Z</time></trkpt><trkpt lat="45.52506393747943" lon="10.379861167576722"><ele>162.33333333333334</ele><time>2026-03-28T18:51:09Z</time></trkpt><trkpt lat="45.52514828706738" lon="10.380047457729777"><ele>162.0</ele><time>2026-03-28T18:51:10Z</time></trkpt><trkpt lat="45.52523472621866" lon="10.380238362908726"><ele>162.0</ele><time>2026-03-28T18:51:11Z</time></trkpt><trkpt lat="45.52531699242339" lon="10.38042032554998"><ele>162.0</ele><time>2026-03-28T18:51:12Z</time></trkpt><trkpt lat="45.525401912664265" lon="10.380608218927353"><ele>162.0</ele><time>2026-03-28T18:51:13Z</time></trkpt><trkpt lat="45.52548691656702" lon="10.380796297335353"><ele>162.66666666666666</ele><time>2026-03-28T18:51:14Z</time></trkpt><trkpt lat="45.52557221244166" lon="10.380985021515562"><ele>163.33333333333331</ele><time>2026-03-28T18:51:15Z</time></trkpt><trkpt lat="45.52567019046707" lon="10.381163527045222"><ele>164.0</ele><time>2026-03-28T18:51:16Z</time></trkpt><trkpt lat="45.52575734856563" lon="10.381352592432346"><ele>164.33333333333331</ele><time>2026-03-28T18:51:17Z</time></trkpt><trkpt lat="45.52584475819632" lon="10.381555465094959"><ele>164.66666666666666</ele><time>2026-03-28T18:51:18Z</time></trkpt><trkpt lat="45.52593526384951" lon="10.381760273825481"><ele>165.0</ele><time>2026-03-28T18:51:19Z</time></trkpt><trkpt lat="45.52602622238023" lon="10.381965520863407"><ele>165.0</ele><time>2026-03-28T18:51:20Z</time></trkpt><trkpt lat="45.52611634478739" lon="10.382179144453248"><ele>165.0</ele><time>2026-03-28T18:51:21Z</time></trkpt><trkpt lat="45.52620734141833" lon="10.38240184484564"><ele>165.0</ele><time>2026-03-28T18:51:22Z</time></trkpt><trkpt lat="45.52629407584801" lon="10.382625799795644"><ele>165.0</ele><time>2026-03-28T18:51:23Z</time></trkpt><trkpt lat="45.526377038327304" lon="10.382854353298832"><ele>165.0</ele><time>2026-03-28T18:51:24Z</time></trkpt><trkpt lat="45.52644760655939" lon="10.3831001053846"><ele>165.0</ele><time>2026-03-28T18:51:25Z</time></trkpt><trkpt lat="45.52651790561217" lon="10.383323814803862"><ele>165.0</ele><time>2026-03-28T18:51:26Z</time></trkpt><trkpt lat="45.526580997383796" lon="10.38353073266161"><ele>165.0</ele><time>2026-03-28T18:51:27Z</time></trkpt><trkpt lat="45.52664215262191" lon="10.383731299442694"><ele>165.0</ele><time>2026-03-28T18:51:28Z</time></trkpt><trkpt lat="45.52670326188658" lon="10.383929417479575"><ele>165.0</ele><time>2026-03-28T18:51:29Z</time></trkpt><trkpt lat="45.52676171486992" lon="10.384118252716323"><ele>165.0</ele><time>2026-03-28T18:51:30Z</time></trkpt><trkpt lat="45.52682113946261" lon="10.38431022686091"><ele>165.0</ele><time>2026-03-28T18:51:31Z</time></trkpt><trkpt lat="45.52688351388348" lon="10.384511730456634"><ele>165.0</ele><time>2026-03-28T18:51:32Z</time></trkpt><trkpt lat="45.52694536192796" lon="10.384711533394903"><ele>165.0</ele><time>2026-03-28T18:51:33Z</time></trkpt><trkpt lat="45.527010122307715" lon="10.384920734975877"><ele>165.0</ele><time>2026-03-28T18:51:34Z</time></trkpt><trkpt lat="45.527075376824435" lon="10.38513137790465"><ele>165.0</ele><time>2026-03-28T18:51:35Z</time></trkpt><trkpt lat="45.52713661022656" lon="10.385329040702374"><ele>165.0</ele><time>2026-03-28T18:51:36Z</time></trkpt><trkpt lat="45.52719697874097" lon="10.385523911741574"><ele>165.0</ele><time>2026-03-28T18:51:37Z</time></trkpt><trkpt lat="45.52726029660082" lon="10.385728303133638"><ele>165.0</ele><time>2026-03-28T18:51:38Z</time></trkpt><trkpt lat="45.527323237279624" lon="10.385931477196403"><ele>165.0</ele><time>2026-03-28T18:51:39Z</time></trkpt><trkpt lat="45.52739219660227" lon="10.386154079467076"><ele>165.0</ele><time>2026-03-28T18:51:40Z</time></trkpt><trkpt lat="45.52745084490151" lon="10.386343433548888"><ele>165.0</ele><time>2026-03-28T18:51:41Z</time></trkpt><trkpt lat="45.52751468710017" lon="10.386550528259512"><ele>165.0</ele><time>2026-03-28T18:51:42Z</time></trkpt><trkpt lat="45.52758101407516" lon="10.386765683162425"><ele>165.0</ele><time>2026-03-28T18:51:43Z</time></trkpt><trkpt lat="45.527651847524744" lon="10.386995456643993"><ele>165.0</ele><time>2026-03-28T18:51:44Z</time></trkpt><trkpt lat="45.527724009697415" lon="10.387229802037952"><ele>165.0</ele><time>2026-03-28T18:51:45Z</time></trkpt><trkpt lat="45.5277976868235" lon="10.387469505658009"><ele>165.0</ele><time>2026-03-28T18:51:46Z</time></trkpt><trkpt lat="45.52786597844706" lon="10.387691687821468"><ele>165.0</ele><time>2026-03-28T18:51:47Z</time></trkpt><trkpt lat="45.52793061559682" lon="10.38790554615349"><ele>165.66666666666666</ele><time>2026-03-28T18:51:48Z</time></trkpt><trkpt lat="45.52801787852008" lon="10.388120515157851"><ele>166.33333333333331</ele><time>2026-03-28T18:51:49Z</time></trkpt><trkpt lat="45.528089844004334" lon="10.388341569223252"><ele>167.0</ele><time>2026-03-28T18:51:50Z</time></trkpt><trkpt lat="45.52815810441316" lon="10.388563148187053"><ele>167.0</ele><time>2026-03-28T18:51:51Z</time></trkpt><trkpt lat="45.528231217291875" lon="10.388787161618408"><ele>167.0</ele><time>2026-03-28T18:51:52Z</time></trkpt><trkpt lat="45.528284519894754" lon="10.389032984929258"><ele>167.0</ele><time>2026-03-28T18:51:53Z</time></trkpt><trkpt lat="45.52835777976072" lon="10.389256388024423"><ele>167.33333333333331</ele><time>2026-03-28T18:51:54Z</time></trkpt><trkpt lat="45.52843468759597" lon="10.389490915391374"><ele>167.66666666666666</ele><time>2026-03-28T18:51:55Z</time></trkpt><trkpt lat="45.52851051663627" lon="10.38972020349988"><ele>168.0</ele><time>2026-03-28T18:51:56Z</time></trkpt><trkpt lat="45.52858960541181" lon="10.389956077833649"><ele>168.0</ele><time>2026-03-28T18:51:57Z</time></trkpt><trkpt lat="45.52867125859621" lon="10.390197698532411"><ele>168.0</ele><time>2026-03-28T18:51:58Z</time></trkpt><trkpt lat="45.528752440785425" lon="10.390437432597503"><ele>168.0</ele><time>2026-03-28T18:51:59Z</time></trkpt><trkpt lat="45.5288352317707" lon="10.390681917444228"><ele>167.66666666666666</ele><time>2026-03-28T18:52:00Z</time></trkpt><trkpt lat="45.528914376295894" lon="10.390913760418012"><ele>167.33333333333331</ele><time>2026-03-28T18:52:01Z</time></trkpt><trkpt lat="45.52899240429927" lon="10.391142250114733"><ele>167.0</ele><time>2026-03-28T18:52:02Z</time></trkpt><trkpt lat="45.5290682314547" lon="10.391364295062463"><ele>168.0</ele><time>2026-03-28T18:52:03Z</time></trkpt><trkpt lat="45.52913803675405" lon="10.391568706153276"><ele>169.0</ele><time>2026-03-28T18:52:04Z</time></trkpt><trkpt lat="45.52920795375224" lon="10.3917734444567"><ele>170.0</ele><time>2026-03-28T18:52:05Z</time></trkpt><trkpt lat="45.529277230052486" lon="10.39197630646493"><ele>169.33333333333331</ele><time>2026-03-28T18:52:06Z</time></trkpt><trkpt lat="45.52934737284771" lon="10.392181706720283"><ele>168.66666666666666</ele><time>2026-03-28T18:52:07Z</time></trkpt><trkpt lat="45.52941658862176" lon="10.392384391410996"><ele>168.0</ele><time>2026-03-28T18:52:08Z</time></trkpt><trkpt lat="45.52948815327392" lon="10.392591885407718"><ele>168.66666666666666</ele><time>2026-03-28T18:52:09Z</time></trkpt><trkpt lat="45.52956229509554" lon="10.392806272699376"><ele>169.33333333333331</ele><time>2026-03-28T18:52:10Z</time></trkpt><trkpt lat="45.52964196456795" lon="10.393031602659923"><ele>170.0</ele><time>2026-03-28T18:52:11Z</time></trkpt><trkpt lat="45.529729408119834" lon="10.393277292772805"><ele>170.33333333333331</ele><time>2026-03-28T18:52:12Z</time></trkpt><trkpt lat="45.52981233601619" lon="10.393509947665878"><ele>170.66666666666666</ele><time>2026-03-28T18:52:13Z</time></trkpt><trkpt lat="45.52988653141495" lon="10.39371810283676"><ele>171.0</ele><time>2026-03-28T18:52:14Z</time></trkpt><trkpt lat="45.52996215630552" lon="10.393929922775769"><ele>170.33333333333334</ele><time>2026-03-28T18:52:15Z</time></trkpt><trkpt lat="45.530048135265" lon="10.394122408157257"><ele>169.66666666666669</ele><time>2026-03-28T18:52:16Z</time></trkpt><trkpt lat="45.53012040236711" lon="10.394325064490175"><ele>169.0</ele><time>2026-03-28T18:52:17Z</time></trkpt><trkpt lat="45.53019023389836" lon="10.394523467592766"><ele>169.0</ele><time>2026-03-28T18:52:18Z</time></trkpt><trkpt lat="45.53026283437485" lon="10.394722930867234"><ele>169.0</ele><time>2026-03-28T18:52:19Z</time></trkpt><trkpt lat="45.530319597692554" lon="10.394930060835438"><ele>169.0</ele><time>2026-03-28T18:52:20Z</time></trkpt><trkpt lat="45.530394305806034" lon="10.395140000549517"><ele>170.0</ele><time>2026-03-28T18:52:21Z</time></trkpt><trkpt lat="45.53047725276596" lon="10.395373092613141"><ele>171.0</ele><time>2026-03-28T18:52:22Z</time></trkpt><trkpt lat="45.53056381507738" lon="10.39561634410835"><ele>172.0</ele><time>2026-03-28T18:52:23Z</time></trkpt><trkpt lat="45.53065628911733" lon="10.395876208560523"><ele>172.0</ele><time>2026-03-28T18:52:24Z</time></trkpt><trkpt lat="45.53076671852494" lon="10.396145547671113"><ele>172.0</ele><time>2026-03-28T18:52:25Z</time></trkpt><trkpt lat="45.53086028222043" lon="10.396422182394787"><ele>172.0</ele><time>2026-03-28T18:52:26Z</time></trkpt><trkpt lat="45.53094591080741" lon="10.396674471569552"><ele>172.33333333333334</ele><time>2026-03-28T18:52:27Z</time></trkpt><trkpt lat="45.53103654688944" lon="10.396918483734131"><ele>172.66666666666666</ele><time>2026-03-28T18:52:28Z</time></trkpt><trkpt lat="45.531115003955925" lon="10.397148759063713"><ele>173.0</ele><time>2026-03-28T18:52:29Z</time></trkpt><trkpt lat="45.53119870623931" lon="10.397383077777015"><ele>172.66666666666666</ele><time>2026-03-28T18:52:30Z</time></trkpt><trkpt lat="45.53128327618158" lon="10.39762641786349"><ele>172.33333333333334</ele><time>2026-03-28T18:52:31Z</time></trkpt><trkpt lat="45.53136819903592" lon="10.3978646320906"><ele>172.0</ele><time>2026-03-28T18:52:32Z</time></trkpt><trkpt lat="45.53145306123383" lon="10.39809714704903"><ele>172.66666666666669</ele><time>2026-03-28T18:52:33Z</time></trkpt><trkpt lat="45.531543825289724" lon="10.398321185882818"><ele>173.33333333333334</ele><time>2026-03-28T18:52:34Z</time></trkpt><trkpt lat="45.53161391027283" lon="10.398566658285077"><ele>174.0</ele><time>2026-03-28T18:52:35Z</time></trkpt><trkpt lat="45.531708228563694" lon="10.398804307683335"><ele>173.66666666666666</ele><time>2026-03-28T18:52:36Z</time></trkpt><trkpt lat="45.531796378728544" lon="10.399049897616544"><ele>173.33333333333331</ele><time>2026-03-28T18:52:37Z</time></trkpt><trkpt lat="45.53188592067983" lon="10.39929523128213"><ele>173.0</ele><time>2026-03-28T18:52:38Z</time></trkpt><trkpt lat="45.531977683310195" lon="10.399537756628687"><ele>172.0</ele><time>2026-03-28T18:52:39Z</time></trkpt><trkpt lat="45.53206375966965" lon="10.399784186088622"><ele>171.0</ele><time>2026-03-28T18:52:40Z</time></trkpt><trkpt lat="45.532151650574434" lon="10.400030892881775"><ele>170.0</ele><time>2026-03-28T18:52:41Z</time></trkpt><trkpt lat="45.53221769103146" lon="10.400259698060935"><ele>170.66666666666666</ele><time>2026-03-28T18:52:41.999Z</time></trkpt><trkpt lat="45.5323164134426" lon="10.400512195115066"><ele>171.33333333333334</ele><time>2026-03-28T18:52:42.999Z</time></trkpt><trkpt lat="45.5324102623228" lon="10.400756223140185"><ele>172.0</ele><time>2026-03-28T18:52:43.999Z</time></trkpt><trkpt lat="45.5325003025129" lon="10.40100088170725"><ele>172.0</ele><time>2026-03-28T18:52:44.999Z</time></trkpt><trkpt lat="45.53258829016265" lon="10.401241001157599"><ele>172.0</ele><time>2026-03-28T18:52:45.999Z</time></trkpt><trkpt lat="45.532676988294845" lon="10.401485760091068"><ele>172.0</ele><time>2026-03-28T18:52:46.999Z</time></trkpt><trkpt lat="45.53276324344376" lon="10.401725886904222"><ele>172.66666666666669</ele><time>2026-03-28T18:52:47.999Z</time></trkpt><trkpt lat="45.53284996350287" lon="10.401972831032865"><ele>173.33333333333334</ele><time>2026-03-28T18:52:48.999Z</time></trkpt><trkpt lat="45.53294196206501" lon="10.402220574099063"><ele>174.0</ele><time>2026-03-28T18:52:49.999Z</time></trkpt><trkpt lat="45.53303480607381" lon="10.402476055857068"><ele>174.0</ele><time>2026-03-28T18:52:50.999Z</time></trkpt><trkpt lat="45.53312655078623" lon="10.402727058792324"><ele>174.0</ele><time>2026-03-28T18:52:51.999Z</time></trkpt><trkpt lat="45.53321082731927" lon="10.402957599981836"><ele>174.0</ele><time>2026-03-28T18:52:52.999Z</time></trkpt><trkpt lat="45.533296289479644" lon="10.40317828823246"><ele>174.33333333333334</ele><time>2026-03-28T18:52:53.999Z</time></trkpt><trkpt lat="45.53338125899984" lon="10.403409908971318"><ele>174.66666666666669</ele><time>2026-03-28T18:52:54.999Z</time></trkpt><trkpt lat="45.533465669721735" lon="10.403637511378253"><ele>175.0</ele><time>2026-03-28T18:52:55.999Z</time></trkpt><trkpt lat="45.533550264259134" lon="10.403860800120755"><ele>175.0</ele><time>2026-03-28T18:52:56.999Z</time></trkpt><trkpt lat="45.53363311363126" lon="10.404088492749814"><ele>175.0</ele><time>2026-03-28T18:52:57.999Z</time></trkpt><trkpt lat="45.53371676429832" lon="10.40431999362177"><ele>175.0</ele><time>2026-03-28T18:52:58.999Z</time></trkpt><trkpt lat="45.53380036948897" lon="10.404544081042811"><ele>175.33333333333334</ele><time>2026-03-28T18:52:59.999Z</time></trkpt><trkpt lat="45.533887349914636" lon="10.4047797521243"><ele>175.66666666666666</ele><time>2026-03-28T18:53:00.999Z</time></trkpt><trkpt lat="45.53397458409111" lon="10.405014247894504"><ele>176.0</ele><time>2026-03-28T18:53:01.999Z</time></trkpt><trkpt lat="45.53405974243043" lon="10.405247570106704"><ele>176.0</ele><time>2026-03-28T18:53:02.999Z</time></trkpt><trkpt lat="45.53414603316926" lon="10.405483580395112"><ele>176.0</ele><time>2026-03-28T18:53:03.999Z</time></trkpt><trkpt lat="45.534234334530716" lon="10.40571389971043"><ele>176.0</ele><time>2026-03-28T18:53:04.999Z</time></trkpt><trkpt lat="45.5343228835184" lon="10.40594475457641"><ele>176.0</ele><time>2026-03-28T18:53:05.999Z</time></trkpt><trkpt lat="45.53440239812835" lon="10.406169003836721"><ele>176.0</ele><time>2026-03-28T18:53:06.999Z</time></trkpt><trkpt lat="45.53448742891164" lon="10.406383880683109"><ele>176.0</ele><time>2026-03-28T18:53:07.999Z</time></trkpt><trkpt lat="45.53457309748378" lon="10.40659591633883"><ele>176.33333333333331</ele><time>2026-03-28T18:53:08.999Z</time></trkpt><trkpt lat="45.534647081109796" lon="10.406828653081817"><ele>176.66666666666666</ele><time>2026-03-28T18:53:09.999Z</time></trkpt><trkpt lat="45.53475412000258" lon="10.40705902072166"><ele>177.0</ele><time>2026-03-28T18:53:10.999Z</time></trkpt><trkpt lat="45.53484153157495" lon="10.407328025541485"><ele>177.0</ele><time>2026-03-28T18:53:12Z</time></trkpt><trkpt lat="45.53494929587914" lon="10.407588686375519"><ele>177.0</ele><time>2026-03-28T18:53:13Z</time></trkpt><trkpt lat="45.53507793012039" lon="10.407842219708064"><ele>177.0</ele><time>2026-03-28T18:53:14Z</time></trkpt><trkpt lat="45.535183739387" lon="10.40808891982606"><ele>177.0</ele><time>2026-03-28T18:53:15Z</time></trkpt><trkpt lat="45.53528730519828" lon="10.408317312932414"><ele>177.0</ele><time>2026-03-28T18:53:16Z</time></trkpt><trkpt lat="45.53537612285367" lon="10.408560526422994"><ele>177.0</ele><time>2026-03-28T18:53:17Z</time></trkpt><trkpt lat="45.53548722607411" lon="10.408774404100908"><ele>177.33333333333334</ele><time>2026-03-28T18:53:18Z</time></trkpt><trkpt lat="45.53558570895919" lon="10.409004204734837"><ele>177.66666666666669</ele><time>2026-03-28T18:53:19Z</time></trkpt><trkpt lat="45.53568334393196" lon="10.409236061394342"><ele>178.0</ele><time>2026-03-28T18:53:20Z</time></trkpt><trkpt lat="45.53579128229608" lon="10.409470826877735"><ele>179.0</ele><time>2026-03-28T18:53:21Z</time></trkpt><trkpt lat="45.535893684765824" lon="10.40970448189427"><ele>180.0</ele><time>2026-03-28T18:53:22Z</time></trkpt><trkpt lat="45.5359904340949" lon="10.409941968960734"><ele>181.0</ele><time>2026-03-28T18:53:23Z</time></trkpt><trkpt lat="45.53609443858953" lon="10.41017589076727"><ele>181.0</ele><time>2026-03-28T18:53:24Z</time></trkpt><trkpt lat="45.536192678958024" lon="10.410405895295462"><ele>181.0</ele><time>2026-03-28T18:53:25Z</time></trkpt><trkpt lat="45.536268755209754" lon="10.4106554800474"><ele>181.0</ele><time>2026-03-28T18:53:26Z</time></trkpt><trkpt lat="45.53636666951297" lon="10.410896599574768"><ele>180.0</ele><time>2026-03-28T18:53:27Z</time></trkpt><trkpt lat="45.536424928127516" lon="10.411159690009981"><ele>179.0</ele><time>2026-03-28T18:53:28Z</time></trkpt><trkpt lat="45.53650888022526" lon="10.411413210958566"><ele>178.0</ele><time>2026-03-28T18:53:29Z</time></trkpt><trkpt lat="45.536569358474026" lon="10.41167899792583"><ele>178.0</ele><time>2026-03-28T18:53:30Z</time></trkpt><trkpt lat="45.53662587868221" lon="10.41194685103081"><ele>178.0</ele><time>2026-03-28T18:53:31Z</time></trkpt><trkpt lat="45.53667612166161" lon="10.41221541823111"><ele>178.0</ele><time>2026-03-28T18:53:32Z</time></trkpt><trkpt lat="45.536714292379166" lon="10.412454725715676"><ele>178.66666666666669</ele><time>2026-03-28T18:53:33Z</time></trkpt><trkpt lat="45.53672825905781" lon="10.412694388616982"><ele>179.33333333333334</ele><time>2026-03-28T18:53:34Z</time></trkpt><trkpt lat="45.53675605645769" lon="10.41293411650763"><ele>180.0</ele><time>2026-03-28T18:53:35Z</time></trkpt><trkpt lat="45.53678116560732" lon="10.41316573458331"><ele>180.33333333333334</ele><time>2026-03-28T18:53:36Z</time></trkpt><trkpt lat="45.53681865501467" lon="10.413404652555121"><ele>180.66666666666669</ele><time>2026-03-28T18:53:37Z</time></trkpt><trkpt lat="45.53684193921975" lon="10.413650068651599"><ele>181.0</ele><time>2026-03-28T18:53:38Z</time></trkpt><trkpt lat="45.5368711580915" lon="10.41389882770004"><ele>181.0</ele><time>2026-03-28T18:53:39Z</time></trkpt><trkpt lat="45.53688082675247" lon="10.414156215764383"><ele>181.0</ele><time>2026-03-28T18:53:40Z</time></trkpt><trkpt lat="45.53690614635852" lon="10.414404795761017"><ele>181.0</ele><time>2026-03-28T18:53:41Z</time></trkpt><trkpt lat="45.53694653141087" lon="10.414658545400886"><ele>181.0</ele><time>2026-03-28T18:53:42Z</time></trkpt><trkpt lat="45.536972430518354" lon="10.414914044479836"><ele>181.0</ele><time>2026-03-28T18:53:43Z</time></trkpt><trkpt lat="45.53700418397813" lon="10.415172706540064"><ele>181.0</ele><time>2026-03-28T18:53:44Z</time></trkpt><trkpt lat="45.53704083424925" lon="10.415431620249821"><ele>181.33333333333334</ele><time>2026-03-28T18:53:45Z</time></trkpt><trkpt lat="45.537087405151325" lon="10.41568717106225"><ele>181.66666666666666</ele><time>2026-03-28T18:53:46Z</time></trkpt><trkpt lat="45.53715672643277" lon="10.41592677666292"><ele>182.0</ele><time>2026-03-28T18:53:47Z</time></trkpt><trkpt lat="45.53723204631806" lon="10.416160401309662"><ele>182.33333333333331</ele><time>2026-03-28T18:53:48Z</time></trkpt><trkpt lat="45.537320843053635" lon="10.416390269190206"><ele>182.66666666666666</ele><time>2026-03-28T18:53:49Z</time></trkpt><trkpt lat="45.537424997334114" lon="10.416606726418467"><ele>183.0</ele><time>2026-03-28T18:53:50Z</time></trkpt><trkpt lat="45.53753733372282" lon="10.416815994360782"><ele>183.0</ele><time>2026-03-28T18:53:51Z</time></trkpt><trkpt lat="45.537663593572255" lon="10.417008086685728"><ele>183.0</ele><time>2026-03-28T18:53:52Z</time></trkpt><trkpt lat="45.53780186229941" lon="10.417223055820646"><ele>183.0</ele><time>2026-03-28T18:53:53Z</time></trkpt><trkpt lat="45.53793047562089" lon="10.417410167522561"><ele>182.33333333333334</ele><time>2026-03-28T18:53:54Z</time></trkpt><trkpt lat="45.5380586636598" lon="10.417608055592376"><ele>181.66666666666669</ele><time>2026-03-28T18:53:55Z</time></trkpt><trkpt lat="45.53818889673317" lon="10.417803754925291"><ele>181.0</ele><time>2026-03-28T18:53:56Z</time></trkpt><trkpt lat="45.53830766441498" lon="10.417998756441703"><ele>180.66666666666669</ele><time>2026-03-28T18:53:57Z</time></trkpt><trkpt lat="45.53844630284836" lon="10.418197030440833"><ele>180.33333333333334</ele><time>2026-03-28T18:53:58Z</time></trkpt><trkpt lat="45.53857895225173" lon="10.418403263104475"><ele>180.0</ele><time>2026-03-28T18:53:59Z</time></trkpt><trkpt lat="45.538710064036536" lon="10.41860200281454"><ele>180.66666666666666</ele><time>2026-03-28T18:54:00Z</time></trkpt><trkpt lat="45.53884029612806" lon="10.418795665158825"><ele>181.33333333333331</ele><time>2026-03-28T18:54:01Z</time></trkpt><trkpt lat="45.53898081902943" lon="10.41899261687159"><ele>182.0</ele><time>2026-03-28T18:54:02Z</time></trkpt><trkpt lat="45.53911392593591" lon="10.41919241099148"><ele>182.33333333333331</ele><time>2026-03-28T18:54:03Z</time></trkpt><trkpt lat="45.53923768309375" lon="10.419371739033055"><ele>182.66666666666666</ele><time>2026-03-28T18:54:04Z</time></trkpt><trkpt lat="45.539364622464575" lon="10.419561062994173"><ele>183.0</ele><time>2026-03-28T18:54:05Z</time></trkpt><trkpt lat="45.539494119682075" lon="10.419749161701093"><ele>182.66666666666666</ele><time>2026-03-28T18:54:06Z</time></trkpt><trkpt lat="45.539628179682" lon="10.419929197064103"><ele>182.33333333333331</ele><time>2026-03-28T18:54:07Z</time></trkpt><trkpt lat="45.5397645241973" lon="10.42010795836083"><ele>182.0</ele><time>2026-03-28T18:54:08Z</time></trkpt><trkpt lat="45.53989272629736" lon="10.420264655439121"><ele>182.0</ele><time>2026-03-28T18:54:09Z</time></trkpt><trkpt lat="45.54002156469945" lon="10.42041978352076"><ele>182.0</ele><time>2026-03-28T18:54:10Z</time></trkpt><trkpt lat="45.54014942519207" lon="10.420578035008258"><ele>182.0</ele><time>2026-03-28T18:54:11Z</time></trkpt><trkpt lat="45.54027943888668" lon="10.420732471582008"><ele>182.66666666666666</ele><time>2026-03-28T18:54:12Z</time></trkpt><trkpt lat="45.54040997697493" lon="10.420887281486534"><ele>183.33333333333334</ele><time>2026-03-28T18:54:13Z</time></trkpt><trkpt lat="45.54054130047587" lon="10.421046211473689"><ele>184.0</ele><time>2026-03-28T18:54:14Z</time></trkpt><trkpt lat="45.540671772895934" lon="10.421212481741915"><ele>184.66666666666669</ele><time>2026-03-28T18:54:15Z</time></trkpt><trkpt lat="45.54080585153412" lon="10.421376934970146"><ele>185.33333333333334</ele><time>2026-03-28T18:54:16Z</time></trkpt><trkpt lat="45.54094268093867" lon="10.421541209699297"><ele>186.0</ele><time>2026-03-28T18:54:17Z</time></trkpt><trkpt lat="45.541080187964575" lon="10.421707970226118"><ele>185.0</ele><time>2026-03-28T18:54:18Z</time></trkpt><trkpt lat="45.541219884927365" lon="10.421879200555766"><ele>184.0</ele><time>2026-03-28T18:54:19Z</time></trkpt><trkpt lat="45.54134971547125" lon="10.422043728623285"><ele>183.0</ele><time>2026-03-28T18:54:20Z</time></trkpt><trkpt lat="45.54147512392602" lon="10.422200277413484"><ele>183.0</ele><time>2026-03-28T18:54:21Z</time></trkpt><trkpt lat="45.541597673368635" lon="10.422344786559583"><ele>183.0</ele><time>2026-03-28T18:54:22Z</time></trkpt><trkpt lat="45.54171750227" lon="10.422496663724447"><ele>183.0</ele><time>2026-03-28T18:54:23Z</time></trkpt><trkpt lat="45.54184034248441" lon="10.422643467909404"><ele>183.0</ele><time>2026-03-28T18:54:24Z</time></trkpt><trkpt lat="45.541969721693306" lon="10.422793683079847"><ele>183.0</ele><time>2026-03-28T18:54:25Z</time></trkpt><trkpt lat="45.542094034688226" lon="10.42294809841399"><ele>183.0</ele><time>2026-03-28T18:54:26Z</time></trkpt><trkpt lat="45.5422138514385" lon="10.423090042393415"><ele>183.25</ele><time>2026-03-28T18:54:27Z</time></trkpt><trkpt lat="45.54232635287828" lon="10.423225988722718"><ele>183.5</ele><time>2026-03-28T18:54:28Z</time></trkpt><trkpt lat="45.542433634242755" lon="10.42336213892304"><ele>183.75</ele><time>2026-03-28T18:54:29Z</time></trkpt><trkpt lat="45.54255187167714" lon="10.423502817992444"><ele>184.0</ele><time>2026-03-28T18:54:30Z</time></trkpt><trkpt lat="45.542677367584304" lon="10.423642603374802"><ele>184.0</ele><time>2026-03-28T18:54:31Z</time></trkpt><trkpt lat="45.542795160445024" lon="10.423788129519592"><ele>184.0</ele><time>2026-03-28T18:54:32Z</time></trkpt><trkpt lat="45.54291096354091" lon="10.423927672984458"><ele>184.0</ele><time>2026-03-28T18:54:33Z</time></trkpt><trkpt lat="45.543028603248544" lon="10.424066060565533"><ele>183.33333333333334</ele><time>2026-03-28T18:54:34Z</time></trkpt><trkpt lat="45.543149692961116" lon="10.424208135475961"><ele>182.66666666666666</ele><time>2026-03-28T18:54:35Z</time></trkpt><trkpt lat="45.5432708020093" lon="10.424351210041197"><ele>182.0</ele><time>2026-03-28T18:54:36Z</time></trkpt><trkpt lat="45.54338317470187" lon="10.424486840915309"><ele>182.0</ele><time>2026-03-28T18:54:37Z</time></trkpt><trkpt lat="45.543522431476006" lon="10.42462979473835"><ele>182.0</ele><time>2026-03-28T18:54:38Z</time></trkpt><trkpt lat="45.54364758130376" lon="10.424790897911944"><ele>182.0</ele><time>2026-03-28T18:54:39Z</time></trkpt><trkpt lat="45.54378428689689" lon="10.424954230656176"><ele>183.0</ele><time>2026-03-28T18:54:40Z</time></trkpt><trkpt lat="45.54392170978514" lon="10.425108686619726"><ele>184.0</ele><time>2026-03-28T18:54:41Z</time></trkpt><trkpt lat="45.54405735755044" lon="10.425260493917373"><ele>185.0</ele><time>2026-03-28T18:54:42Z</time></trkpt><trkpt lat="45.5441930005576" lon="10.42542543216568"><ele>185.0</ele><time>2026-03-28T18:54:43Z</time></trkpt><trkpt lat="45.54433349445758" lon="10.425591345985973"><ele>185.0</ele><time>2026-03-28T18:54:44Z</time></trkpt><trkpt lat="45.54446221029095" lon="10.425737789596571"><ele>185.0</ele><time>2026-03-28T18:54:45Z</time></trkpt><trkpt lat="45.544579530368104" lon="10.425873469168474"><ele>185.0</ele><time>2026-03-28T18:54:46Z</time></trkpt><trkpt lat="45.544695941225584" lon="10.42601314289875"><ele>185.0</ele><time>2026-03-28T18:54:47Z</time></trkpt><trkpt lat="45.54481867952541" lon="10.426159418694516"><ele>185.0</ele><time>2026-03-28T18:54:48Z</time></trkpt><trkpt lat="45.544946455770756" lon="10.426306396997255"><ele>185.66666666666666</ele><time>2026-03-28T18:54:49Z</time></trkpt><trkpt lat="45.5450836133222" lon="10.42645692846958"><ele>186.33333333333334</ele><time>2026-03-28T18:54:50Z</time></trkpt><trkpt lat="45.54521693649798" lon="10.426604965035967"><ele>187.0</ele><time>2026-03-28T18:54:51Z</time></trkpt><trkpt lat="45.545352138483736" lon="10.42675511970643"><ele>189.0</ele><time>2026-03-28T18:54:52.013Z</time></trkpt><trkpt lat="45.5469560379872" lon="10.428515477278518"><ele>191.0</ele><time>2026-03-28T18:54:55.077Z</time></trkpt><trkpt lat="45.54635601646169" lon="10.42785485244706"><ele>187.0</ele><time>2026-03-28T18:55:00.882Z</time></trkpt><trkpt lat="45.54815011618804" lon="10.429543676125625"><ele>187.33333333333334</ele><time>2026-03-28T18:55:11.999Z</time></trkpt><trkpt lat="45.54830467919805" lon="10.429648931459264"><ele>187.66666666666666</ele><time>2026-03-28T18:55:12.999Z</time></trkpt><trkpt lat="45.54846229629045" lon="10.42977401620749"><ele>188.0</ele><time>2026-03-28T18:55:13.999Z</time></trkpt><trkpt lat="45.54861667347783" lon="10.429892499430945"><ele>188.0</ele><time>2026-03-28T18:55:14.999Z</time></trkpt><trkpt lat="45.54876729476126" lon="10.43000831828715"><ele>188.0</ele><time>2026-03-28T18:55:15.999Z</time></trkpt><trkpt lat="45.54891412947954" lon="10.430119722804857"><ele>188.0</ele><time>2026-03-28T18:55:16.999Z</time></trkpt><trkpt lat="45.54906320586778" lon="10.430226073650575"><ele>188.0</ele><time>2026-03-28T18:55:18Z</time></trkpt><trkpt lat="45.54920415912227" lon="10.430327559814891"><ele>188.0</ele><time>2026-03-28T18:55:19Z</time></trkpt><trkpt lat="45.54934750948415" lon="10.430436231950045"><ele>188.0</ele><time>2026-03-28T18:55:20Z</time></trkpt><trkpt lat="45.54948845418293" lon="10.43054310506379"><ele>188.33333333333331</ele><time>2026-03-28T18:55:21Z</time></trkpt><trkpt lat="45.54963373888958" lon="10.430650529935173"><ele>188.66666666666666</ele><time>2026-03-28T18:55:22Z</time></trkpt><trkpt lat="45.549780520156745" lon="10.430762499378103"><ele>189.0</ele><time>2026-03-28T18:55:23Z</time></trkpt><trkpt lat="45.54993301531479" lon="10.430882291439362"><ele>189.0</ele><time>2026-03-28T18:55:24Z</time></trkpt><trkpt lat="45.55008815757115" lon="10.431004783733934"><ele>189.0</ele><time>2026-03-28T18:55:25Z</time></trkpt><trkpt lat="45.550248987967485" lon="10.4311308083345"><ele>189.0</ele><time>2026-03-28T18:55:26Z</time></trkpt><trkpt lat="45.550411224480456" lon="10.431251235921268"><ele>190.0</ele><time>2026-03-28T18:55:27Z</time></trkpt><trkpt lat="45.55057540039146" lon="10.431375362126957"><ele>191.0</ele><time>2026-03-28T18:55:28Z</time></trkpt><trkpt lat="45.55072496679171" lon="10.431481895058171"><ele>192.0</ele><time>2026-03-28T18:55:29Z</time></trkpt><trkpt lat="45.55087542021808" lon="10.431581183952385"><ele>192.0</ele><time>2026-03-28T18:55:30Z</time></trkpt><trkpt lat="45.55102854498227" lon="10.431674555087179"><ele>192.0</ele><time>2026-03-28T18:55:31Z</time></trkpt><trkpt lat="45.55117665686119" lon="10.431770381002263"><ele>192.0</ele><time>2026-03-28T18:55:32Z</time></trkpt><trkpt lat="45.55133138605568" lon="10.431869498757873"><ele>192.0</ele><time>2026-03-28T18:55:33Z</time></trkpt><trkpt lat="45.55149798897027" lon="10.431970765972357"><ele>192.0</ele><time>2026-03-28T18:55:34Z</time></trkpt><trkpt lat="45.55164761141277" lon="10.432049788305823"><ele>192.0</ele><time>2026-03-28T18:55:35Z</time></trkpt><trkpt lat="45.551814251209194" lon="10.43214067546761"><ele>192.0</ele><time>2026-03-28T18:55:36Z</time></trkpt><trkpt lat="45.551967067706364" lon="10.432223821278756"><ele>192.0</ele><time>2026-03-28T18:55:37Z</time></trkpt><trkpt lat="45.552114877052375" lon="10.432297269210256"><ele>192.0</ele><time>2026-03-28T18:55:38Z</time></trkpt><trkpt lat="45.55225566062249" lon="10.432374104489648"><ele>191.33333333333334</ele><time>2026-03-28T18:55:39Z</time></trkpt><trkpt lat="45.552399363079395" lon="10.432440642795054"><ele>190.66666666666669</ele><time>2026-03-28T18:55:40Z</time></trkpt><trkpt lat="45.55254523713595" lon="10.432520848517203"><ele>190.0</ele><time>2026-03-28T18:55:41Z</time></trkpt><trkpt lat="45.55269659667178" lon="10.432591335080206"><ele>190.0</ele><time>2026-03-28T18:55:42Z</time></trkpt><trkpt lat="45.552843408761" lon="10.432670109064953"><ele>190.0</ele><time>2026-03-28T18:55:43Z</time></trkpt><trkpt lat="45.55299549263556" lon="10.43273676707254"><ele>190.0</ele><time>2026-03-28T18:55:44Z</time></trkpt><trkpt lat="45.55314167180783" lon="10.43280359746505"><ele>190.0</ele><time>2026-03-28T18:55:45Z</time></trkpt><trkpt lat="45.55329257352427" lon="10.432864354493697"><ele>190.0</ele><time>2026-03-28T18:55:46Z</time></trkpt><trkpt lat="45.55344158650354" lon="10.432925277810467"><ele>190.0</ele><time>2026-03-28T18:55:47Z</time></trkpt><trkpt lat="45.553572488924964" lon="10.43298683779977"><ele>189.66666666666669</ele><time>2026-03-28T18:55:48Z</time></trkpt><trkpt lat="45.553715699407945" lon="10.433046156718358"><ele>189.33333333333334</ele><time>2026-03-28T18:55:49Z</time></trkpt><trkpt lat="45.5538667908086" lon="10.433113212813879"><ele>189.0</ele><time>2026-03-28T18:55:50Z</time></trkpt><trkpt lat="45.55401090192117" lon="10.433193449977065"><ele>189.0</ele><time>2026-03-28T18:55:51Z</time></trkpt><trkpt lat="45.55416994329434" lon="10.433288382743767"><ele>189.0</ele><time>2026-03-28T18:55:52Z</time></trkpt><trkpt lat="45.554330644191694" lon="10.433395123090511"><ele>189.0</ele><time>2026-03-28T18:55:53Z</time></trkpt><trkpt lat="45.55449966305449" lon="10.433496849647183"><ele>188.66666666666666</ele><time>2026-03-28T18:55:54Z</time></trkpt><trkpt lat="45.554672783835706" lon="10.433602384029582"><ele>188.33333333333331</ele><time>2026-03-28T18:55:55Z</time></trkpt><trkpt lat="45.554850568963595" lon="10.433720728447478"><ele>188.0</ele><time>2026-03-28T18:55:56Z</time></trkpt><trkpt lat="45.55502740195582" lon="10.433831473450976"><ele>188.0</ele><time>2026-03-28T18:55:57Z</time></trkpt><trkpt lat="45.555185380386604" lon="10.433931366133036"><ele>188.0</ele><time>2026-03-28T18:55:58Z</time></trkpt><trkpt lat="45.55533125949177" lon="10.434028140353284"><ele>188.0</ele><time>2026-03-28T18:55:59Z</time></trkpt><trkpt lat="45.55546411696559" lon="10.434112055146949"><ele>189.25</ele><time>2026-03-28T18:56:00Z</time></trkpt><trkpt lat="45.55559848929838" lon="10.434195512231417"><ele>190.5</ele><time>2026-03-28T18:56:01Z</time></trkpt><trkpt lat="45.5557369877593" lon="10.43428400889115"><ele>191.75</ele><time>2026-03-28T18:56:02Z</time></trkpt><trkpt lat="45.555868919685416" lon="10.434374457038743"><ele>193.0</ele><time>2026-03-28T18:56:03Z</time></trkpt><trkpt lat="45.55600581737905" lon="10.43446050638252"><ele>193.0</ele><time>2026-03-28T18:56:04Z</time></trkpt><trkpt lat="45.5561420744327" lon="10.43454005629373"><ele>193.0</ele><time>2026-03-28T18:56:05Z</time></trkpt><trkpt lat="45.556284167609256" lon="10.434630019785487"><ele>193.0</ele><time>2026-03-28T18:56:06Z</time></trkpt><trkpt lat="45.556439807814264" lon="10.434724380834647"><ele>191.33333333333331</ele><time>2026-03-28T18:56:07Z</time></trkpt><trkpt lat="45.556615026794546" lon="10.434832595828487"><ele>189.66666666666666</ele><time>2026-03-28T18:56:08Z</time></trkpt><trkpt lat="45.55680755656425" lon="10.434979921903697"><ele>188.0</ele><time>2026-03-28T18:56:09Z</time></trkpt><trkpt lat="45.55703295045226" lon="10.435105805640255"><ele>188.66666666666666</ele><time>2026-03-28T18:56:10Z</time></trkpt><trkpt lat="45.55724460299374" lon="10.435258308086762"><ele>189.33333333333334</ele><time>2026-03-28T18:56:11Z</time></trkpt><trkpt lat="45.55742974589161" lon="10.435380244179068"><ele>190.0</ele><time>2026-03-28T18:56:12Z</time></trkpt><trkpt lat="45.557611239730804" lon="10.435497833355239"><ele>190.0</ele><time>2026-03-28T18:56:13Z</time></trkpt><trkpt lat="45.55779040165339" lon="10.435615556821928"><ele>190.0</ele><time>2026-03-28T18:56:14Z</time></trkpt><trkpt lat="45.55796908459124" lon="10.43572746230261"><ele>190.0</ele><time>2026-03-28T18:56:15Z</time></trkpt><trkpt lat="45.55813793280203" lon="10.43582913770872"><ele>190.0</ele><time>2026-03-28T18:56:16Z</time></trkpt><trkpt lat="45.55829298255889" lon="10.435936315080193"><ele>190.0</ele><time>2026-03-28T18:56:17Z</time></trkpt><trkpt lat="45.55845298676322" lon="10.43604671498587"><ele>190.0</ele><time>2026-03-28T18:56:18Z</time></trkpt><trkpt lat="45.55861987572094" lon="10.436157785405026"><ele>190.0</ele><time>2026-03-28T18:56:19Z</time></trkpt><trkpt lat="45.55878793238555" lon="10.4362797517996"><ele>190.0</ele><time>2026-03-28T18:56:20Z</time></trkpt><trkpt lat="45.55895218242584" lon="10.436429625061166"><ele>190.0</ele><time>2026-03-28T18:56:21Z</time></trkpt><trkpt lat="45.559127261390714" lon="10.436569700680133"><ele>190.0</ele><time>2026-03-28T18:56:22Z</time></trkpt><trkpt lat="45.559312100046974" lon="10.436693490660623"><ele>190.0</ele><time>2026-03-28T18:56:23Z</time></trkpt><trkpt lat="45.55949267875942" lon="10.436857194235634"><ele>190.0</ele><time>2026-03-28T18:56:24Z</time></trkpt><trkpt lat="45.55967210537425" lon="10.437014710161838"><ele>190.0</ele><time>2026-03-28T18:56:25Z</time></trkpt><trkpt lat="45.55983781196309" lon="10.437157154116463"><ele>190.0</ele><time>2026-03-28T18:56:26Z</time></trkpt><trkpt lat="45.56001047515885" lon="10.437301160140573"><ele>190.0</ele><time>2026-03-28T18:56:27Z</time></trkpt><trkpt lat="45.560178287520536" lon="10.437460199287274"><ele>190.0</ele><time>2026-03-28T18:56:28Z</time></trkpt><trkpt lat="45.56034706278857" lon="10.43761830447415"><ele>190.0</ele><time>2026-03-28T18:56:29Z</time></trkpt><trkpt lat="45.560511859593525" lon="10.437781566124885"><ele>190.0</ele><time>2026-03-28T18:56:30Z</time></trkpt><trkpt lat="45.56067360940885" lon="10.437943750721628"><ele>190.33333333333334</ele><time>2026-03-28T18:56:31Z</time></trkpt><trkpt lat="45.560819558013264" lon="10.438092960073837"><ele>190.66666666666666</ele><time>2026-03-28T18:56:32Z</time></trkpt><trkpt lat="45.56096201363683" lon="10.438245305041143"><ele>191.0</ele><time>2026-03-28T18:56:33Z</time></trkpt><trkpt lat="45.56110711443867" lon="10.438394548226912"><ele>191.0</ele><time>2026-03-28T18:56:34Z</time></trkpt><trkpt lat="45.561254874921644" lon="10.438548424685719"><ele>191.0</ele><time>2026-03-28T18:56:35Z</time></trkpt><trkpt lat="45.56140577900307" lon="10.438704373751921"><ele>191.0</ele><time>2026-03-28T18:56:36Z</time></trkpt><trkpt lat="45.561556796015076" lon="10.438866563109126"><ele>191.0</ele><time>2026-03-28T18:56:37Z</time></trkpt><trkpt lat="45.56171035030878" lon="10.439030783123531"><ele>191.0</ele><time>2026-03-28T18:56:38Z</time></trkpt><trkpt lat="45.56185753413326" lon="10.439185486689823"><ele>191.0</ele><time>2026-03-28T18:56:39Z</time></trkpt><trkpt lat="45.56198820301411" lon="10.439325689655494"><ele>191.0</ele><time>2026-03-28T18:56:40Z</time></trkpt><trkpt lat="45.562123645583746" lon="10.439481832627774"><ele>191.0</ele><time>2026-03-28T18:56:41Z</time></trkpt><trkpt lat="45.56226129786384" lon="10.439629940556657"><ele>191.0</ele><time>2026-03-28T18:56:42Z</time></trkpt><trkpt lat="45.56239938232329" lon="10.439776860972959"><ele>190.66666666666666</ele><time>2026-03-28T18:56:43Z</time></trkpt><trkpt lat="45.56254498369387" lon="10.4399283716251"><ele>190.33333333333334</ele><time>2026-03-28T18:56:44Z</time></trkpt><trkpt lat="45.562678208410205" lon="10.440074312319483"><ele>190.0</ele><time>2026-03-28T18:56:45Z</time></trkpt><trkpt lat="45.56281074018443" lon="10.440211121909407"><ele>190.0</ele><time>2026-03-28T18:56:46Z</time></trkpt><trkpt lat="45.562948302867355" lon="10.440354472491789"><ele>190.0</ele><time>2026-03-28T18:56:47Z</time></trkpt><trkpt lat="45.56308027664806" lon="10.440493073116953"><ele>190.0</ele><time>2026-03-28T18:56:48Z</time></trkpt><trkpt lat="45.56321243533336" lon="10.440637416078344"><ele>190.0</ele><time>2026-03-28T18:56:49Z</time></trkpt><trkpt lat="45.56334986982705" lon="10.440776012281798"><ele>190.0</ele><time>2026-03-28T18:56:50Z</time></trkpt><trkpt lat="45.56348837493512" lon="10.440920413974188"><ele>190.0</ele><time>2026-03-28T18:56:51Z</time></trkpt><trkpt lat="45.563628109050434" lon="10.441061831649144"><ele>190.0</ele><time>2026-03-28T18:56:52Z</time></trkpt><trkpt lat="45.563771365616276" lon="10.441195918064142"><ele>190.0</ele><time>2026-03-28T18:56:53Z</time></trkpt><trkpt lat="45.563920026297225" lon="10.44131618624611"><ele>190.0</ele><time>2026-03-28T18:56:54Z</time></trkpt><trkpt lat="45.56407782026818" lon="10.441433835387151"><ele>190.33333333333334</ele><time>2026-03-28T18:56:55Z</time></trkpt><trkpt lat="45.56423918461425" lon="10.441544032052926"><ele>190.66666666666666</ele><time>2026-03-28T18:56:56Z</time></trkpt><trkpt lat="45.56440841173406" lon="10.441640987808801"><ele>191.0</ele><time>2026-03-28T18:56:57Z</time></trkpt><trkpt lat="45.56458229281117" lon="10.441727378114933"><ele>191.0</ele><time>2026-03-28T18:56:58Z</time></trkpt><trkpt lat="45.56476179896018" lon="10.441802505841327"><ele>191.0</ele><time>2026-03-28T18:56:59Z</time></trkpt><trkpt lat="45.5649453318196" lon="10.441876388472282"><ele>191.0</ele><time>2026-03-28T18:57:00Z</time></trkpt><trkpt lat="45.56512175798911" lon="10.441932399623198"><ele>191.0</ele><time>2026-03-28T18:57:01Z</time></trkpt><trkpt lat="45.565305630773274" lon="10.441974968593081"><ele>191.0</ele><time>2026-03-28T18:57:02Z</time></trkpt><trkpt lat="45.56549061699796" lon="10.44201068923823"><ele>191.0</ele><time>2026-03-28T18:57:03Z</time></trkpt><trkpt lat="45.56567323483601" lon="10.442044589915648"><ele>191.33333333333331</ele><time>2026-03-28T18:57:04Z</time></trkpt><trkpt lat="45.56586235095814" lon="10.442064109281771"><ele>191.66666666666666</ele><time>2026-03-28T18:57:05Z</time></trkpt><trkpt lat="45.566048297218884" lon="10.442074869864557"><ele>192.0</ele><time>2026-03-28T18:57:06Z</time></trkpt><trkpt lat="45.56623409900358" lon="10.44208689440283"><ele>192.0</ele><time>2026-03-28T18:57:07Z</time></trkpt><trkpt lat="45.566419026605246" lon="10.442096540741355"><ele>192.0</ele><time>2026-03-28T18:57:08Z</time></trkpt><trkpt lat="45.56660598432644" lon="10.44210527857889"><ele>192.0</ele><time>2026-03-28T18:57:09Z</time></trkpt><trkpt lat="45.56679084162573" lon="10.442119774521723"><ele>192.0</ele><time>2026-03-28T18:57:10Z</time></trkpt><trkpt lat="45.56697983617459" lon="10.442131081751677"><ele>192.0</ele><time>2026-03-28T18:57:11Z</time></trkpt><trkpt lat="45.567194423446466" lon="10.442173066049484"><ele>192.0</ele><time>2026-03-28T18:57:12Z</time></trkpt><trkpt lat="45.56737389663516" lon="10.442173198780393"><ele>191.66666666666666</ele><time>2026-03-28T18:57:13Z</time></trkpt><trkpt lat="45.56756754446195" lon="10.442190048848245"><ele>191.33333333333331</ele><time>2026-03-28T18:57:13.999Z</time></trkpt><trkpt lat="45.56776284104517" lon="10.442205763366788"><ele>191.0</ele><time>2026-03-28T18:57:14.999Z</time></trkpt><trkpt lat="45.567957281076794" lon="10.442215358270728"><ele>191.0</ele><time>2026-03-28T18:57:15.999Z</time></trkpt><trkpt lat="45.56815436493413" lon="10.442217571976483"><ele>191.0</ele><time>2026-03-28T18:57:16.999Z</time></trkpt><trkpt lat="45.56835566207424" lon="10.44221402303547"><ele>191.0</ele><time>2026-03-28T18:57:17.999Z</time></trkpt><trkpt lat="45.56855435393368" lon="10.442205697276425"><ele>191.0</ele><time>2026-03-28T18:57:18.999Z</time></trkpt><trkpt lat="45.568744602445186" lon="10.442192285280225"><ele>191.0</ele><time>2026-03-28T18:57:19.999Z</time></trkpt><trkpt lat="45.568931538868085" lon="10.442168631420262"><ele>191.0</ele><time>2026-03-28T18:57:20.999Z</time></trkpt><trkpt lat="45.56911553045653" lon="10.44213987331963"><ele>192.0</ele><time>2026-03-28T18:57:21.999Z</time></trkpt><trkpt lat="45.569305403902966" lon="10.442098220047196"><ele>193.0</ele><time>2026-03-28T18:57:22.999Z</time></trkpt><trkpt lat="45.56950269619811" lon="10.442052675184499"><ele>194.0</ele><time>2026-03-28T18:57:24Z</time></trkpt><trkpt lat="45.569686681818716" lon="10.442005689775167"><ele>194.0</ele><time>2026-03-28T18:57:25Z</time></trkpt><trkpt lat="45.5698598898301" lon="10.44195761000142"><ele>194.0</ele><time>2026-03-28T18:57:26Z</time></trkpt><trkpt lat="45.570038855605816" lon="10.44189332718507"><ele>194.0</ele><time>2026-03-28T18:57:27Z</time></trkpt><trkpt lat="45.570221881254035" lon="10.44184943152177"><ele>194.33333333333334</ele><time>2026-03-28T18:57:28Z</time></trkpt><trkpt lat="45.57040573072038" lon="10.441799705126217"><ele>194.66666666666669</ele><time>2026-03-28T18:57:29Z</time></trkpt><trkpt lat="45.57059167963851" lon="10.44174455030215"><ele>195.0</ele><time>2026-03-28T18:57:30Z</time></trkpt><trkpt lat="45.570784551101625" lon="10.44169706070941"><ele>195.0</ele><time>2026-03-28T18:57:31Z</time></trkpt><trkpt lat="45.57097366364191" lon="10.441655328514866"><ele>195.0</ele><time>2026-03-28T18:57:32Z</time></trkpt><trkpt lat="45.5711530854206" lon="10.441619937699016"><ele>195.0</ele><time>2026-03-28T18:57:33Z</time></trkpt><trkpt lat="45.57133567264569" lon="10.44159776437787"><ele>194.66666666666669</ele><time>2026-03-28T18:57:34Z</time></trkpt><trkpt lat="45.571520600504215" lon="10.441591567274356"><ele>194.33333333333334</ele><time>2026-03-28T18:57:35Z</time></trkpt><trkpt lat="45.57169979341452" lon="10.441596606128268"><ele>194.0</ele><time>2026-03-28T18:57:36Z</time></trkpt><trkpt lat="45.57188656359695" lon="10.441609383424847"><ele>193.33333333333334</ele><time>2026-03-28T18:57:37Z</time></trkpt><trkpt lat="45.57206703789306" lon="10.44163472039677"><ele>192.66666666666669</ele><time>2026-03-28T18:57:38Z</time></trkpt><trkpt lat="45.57224727217093" lon="10.441664340104033"><ele>192.0</ele><time>2026-03-28T18:57:39Z</time></trkpt><trkpt lat="45.57242433199435" lon="10.441713050891192"><ele>192.0</ele><time>2026-03-28T18:57:40Z</time></trkpt><trkpt lat="45.57259851675283" lon="10.441775260443444"><ele>192.0</ele><time>2026-03-28T18:57:41Z</time></trkpt><trkpt lat="45.57277307852057" lon="10.441844364019602"><ele>192.0</ele><time>2026-03-28T18:57:42Z</time></trkpt><trkpt lat="45.5729490989255" lon="10.441926769415591"><ele>192.0</ele><time>2026-03-28T18:57:43Z</time></trkpt><trkpt lat="45.573114043513584" lon="10.442027378503393"><ele>192.0</ele><time>2026-03-28T18:57:44Z</time></trkpt><trkpt lat="45.57327894264277" lon="10.442124677935956"><ele>192.0</ele><time>2026-03-28T18:57:45Z</time></trkpt><trkpt lat="45.57345093523765" lon="10.442235021555241"><ele>192.0</ele><time>2026-03-28T18:57:46Z</time></trkpt><trkpt lat="45.573618552281246" lon="10.442359085977355"><ele>192.0</ele><time>2026-03-28T18:57:47Z</time></trkpt><trkpt lat="45.57378261088901" lon="10.442491294668558"><ele>192.0</ele><time>2026-03-28T18:57:48Z</time></trkpt><trkpt lat="45.57395304416951" lon="10.442631067399828"><ele>192.0</ele><time>2026-03-28T18:57:49Z</time></trkpt><trkpt lat="45.57413280821784" lon="10.442751127560701"><ele>192.0</ele><time>2026-03-28T18:57:50Z</time></trkpt><trkpt lat="45.57430445031917" lon="10.442891927373024"><ele>192.0</ele><time>2026-03-28T18:57:51Z</time></trkpt><trkpt lat="45.574475531417036" lon="10.443034068345314"><ele>194.33333333333331</ele><time>2026-03-28T18:57:52Z</time></trkpt><trkpt lat="45.57464583595307" lon="10.443174543550455"><ele>196.66666666666666</ele><time>2026-03-28T18:57:53Z</time></trkpt><trkpt lat="45.57481425639953" lon="10.443317357127816"><ele>199.0</ele><time>2026-03-28T18:57:54Z</time></trkpt><trkpt lat="45.574983507641164" lon="10.443457583862394"><ele>199.0</ele><time>2026-03-28T18:57:55Z</time></trkpt><trkpt lat="45.575144135168756" lon="10.443603132135314"><ele>199.0</ele><time>2026-03-28T18:57:56Z</time></trkpt><trkpt lat="45.57529485740877" lon="10.44372665617892"><ele>199.0</ele><time>2026-03-28T18:57:57Z</time></trkpt><trkpt lat="45.575448432762265" lon="10.443853471246877"><ele>200.0</ele><time>2026-03-28T18:57:58Z</time></trkpt><trkpt lat="45.57560541612033" lon="10.44398525940842"><ele>201.0</ele><time>2026-03-28T18:57:59Z</time></trkpt><trkpt lat="45.575758736574876" lon="10.444113405562131"><ele>202.0</ele><time>2026-03-28T18:58:00Z</time></trkpt><trkpt lat="45.575916377909664" lon="10.44423740046505"><ele>202.0</ele><time>2026-03-28T18:58:01Z</time></trkpt><trkpt lat="45.57607097240344" lon="10.444372587682542"><ele>202.0</ele><time>2026-03-28T18:58:02Z</time></trkpt><trkpt lat="45.57623980690934" lon="10.44448791254716"><ele>202.0</ele><time>2026-03-28T18:58:03Z</time></trkpt><trkpt lat="45.576394793478514" lon="10.444627569364204"><ele>202.33333333333331</ele><time>2026-03-28T18:58:04Z</time></trkpt><trkpt lat="45.57655518724446" lon="10.44475848531311"><ele>202.66666666666669</ele><time>2026-03-28T18:58:05Z</time></trkpt><trkpt lat="45.57670992245028" lon="10.444878567764246"><ele>203.0</ele><time>2026-03-28T18:58:06Z</time></trkpt><trkpt lat="45.576871544471935" lon="10.44500773506917"><ele>202.66666666666669</ele><time>2026-03-28T18:58:07Z</time></trkpt><trkpt lat="45.57702698501449" lon="10.445139501842132"><ele>202.33333333333331</ele><time>2026-03-28T18:58:08Z</time></trkpt><trkpt lat="45.5771814654565" lon="10.445273441837426"><ele>202.0</ele><time>2026-03-28T18:58:09Z</time></trkpt><trkpt lat="45.57733712784747" lon="10.445401041388385"><ele>202.33333333333331</ele><time>2026-03-28T18:58:10Z</time></trkpt><trkpt lat="45.577494665989114" lon="10.44552929145526"><ele>202.66666666666669</ele><time>2026-03-28T18:58:11Z</time></trkpt><trkpt lat="45.5776475452936" lon="10.445660156712007"><ele>203.0</ele><time>2026-03-28T18:58:12Z</time></trkpt><trkpt lat="45.577805614671014" lon="10.445792752259054"><ele>203.66666666666669</ele><time>2026-03-28T18:58:13Z</time></trkpt><trkpt lat="45.57796212945154" lon="10.445917515606311"><ele>204.33333333333331</ele><time>2026-03-28T18:58:14Z</time></trkpt><trkpt lat="45.57812115938297" lon="10.44604528735965"><ele>205.0</ele><time>2026-03-28T18:58:15Z</time></trkpt><trkpt lat="45.57828130158463" lon="10.44617106786783"><ele>205.0</ele><time>2026-03-28T18:58:16Z</time></trkpt><trkpt lat="45.57843692347351" lon="10.446317076392017"><ele>205.0</ele><time>2026-03-28T18:58:17Z</time></trkpt><trkpt lat="45.578597915377216" lon="10.446448844960372"><ele>205.0</ele><time>2026-03-28T18:58:18Z</time></trkpt><trkpt lat="45.578758302773274" lon="10.446580266230596"><ele>205.0</ele><time>2026-03-28T18:58:19Z</time></trkpt><trkpt lat="45.578925637736795" lon="10.446693842585319"><ele>205.0</ele><time>2026-03-28T18:58:20Z</time></trkpt><trkpt lat="45.57907467647406" lon="10.446822272828838"><ele>205.0</ele><time>2026-03-28T18:58:21Z</time></trkpt><trkpt lat="45.57922012778363" lon="10.446942085828564"><ele>205.0</ele><time>2026-03-28T18:58:22Z</time></trkpt><trkpt lat="45.5793694863777" lon="10.447065700181016"><ele>205.0</ele><time>2026-03-28T18:58:23Z</time></trkpt><trkpt lat="45.5795166940475" lon="10.447190449434341"><ele>205.0</ele><time>2026-03-28T18:58:24Z</time></trkpt><trkpt lat="45.579667894547065" lon="10.447325371096344"><ele>205.33333333333331</ele><time>2026-03-28T18:58:25Z</time></trkpt><trkpt lat="45.5798230861084" lon="10.447457937689501"><ele>205.66666666666669</ele><time>2026-03-28T18:58:26Z</time></trkpt><trkpt lat="45.579982964642355" lon="10.44758130644049"><ele>206.0</ele><time>2026-03-28T18:58:27Z</time></trkpt><trkpt lat="45.58014128020888" lon="10.447706868864058"><ele>206.0</ele><time>2026-03-28T18:58:28Z</time></trkpt><trkpt lat="45.58030088684934" lon="10.447842094306623"><ele>206.0</ele><time>2026-03-28T18:58:29Z</time></trkpt><trkpt lat="45.58045861907486" lon="10.44796957053351"><ele>206.0</ele><time>2026-03-28T18:58:30Z</time></trkpt><trkpt lat="45.580617316374806" lon="10.448098051989412"><ele>208.0</ele><time>2026-03-28T18:58:31Z</time></trkpt><trkpt lat="45.580781153011685" lon="10.448228158981221"><ele>210.0</ele><time>2026-03-28T18:58:32Z</time></trkpt><trkpt lat="45.58094503635391" lon="10.448361038545642"><ele>212.0</ele><time>2026-03-28T18:58:33Z</time></trkpt><trkpt lat="45.58110198380279" lon="10.44850120993468"><ele>211.33333333333334</ele><time>2026-03-28T18:58:34Z</time></trkpt><trkpt lat="45.58126270199006" lon="10.448629872233719"><ele>210.66666666666669</ele><time>2026-03-28T18:58:35Z</time></trkpt><trkpt lat="45.581425927462426" lon="10.448766320358834"><ele>210.0</ele><time>2026-03-28T18:58:36Z</time></trkpt><trkpt lat="45.58158714431693" lon="10.448906005243149"><ele>211.33333333333331</ele><time>2026-03-28T18:58:37Z</time></trkpt><trkpt lat="45.58174509870573" lon="10.449038526891227"><ele>212.66666666666666</ele><time>2026-03-28T18:58:38Z</time></trkpt><trkpt lat="45.581907357663795" lon="10.449177222086156"><ele>214.0</ele><time>2026-03-28T18:58:39Z</time></trkpt><trkpt lat="45.58206261605098" lon="10.449329177600132"><ele>214.0</ele><time>2026-03-28T18:58:40Z</time></trkpt><trkpt lat="45.5822156111494" lon="10.449472952630906"><ele>214.0</ele><time>2026-03-28T18:58:41Z</time></trkpt><trkpt lat="45.58233224003126" lon="10.44963338925314"><ele>214.0</ele><time>2026-03-28T18:58:42Z</time></trkpt><trkpt lat="45.582449554665985" lon="10.449782033649681"><ele>215.33333333333331</ele><time>2026-03-28T18:58:43Z</time></trkpt><trkpt lat="45.58256806719212" lon="10.449942332885904"><ele>216.66666666666669</ele><time>2026-03-28T18:58:44Z</time></trkpt><trkpt lat="45.58268573914259" lon="10.450111128921355"><ele>218.0</ele><time>2026-03-28T18:58:45Z</time></trkpt><trkpt lat="45.582808696420244" lon="10.450293337308528"><ele>217.0</ele><time>2026-03-28T18:58:46Z</time></trkpt><trkpt lat="45.58293664882555" lon="10.450490746685208"><ele>216.0</ele><time>2026-03-28T18:58:47Z</time></trkpt><trkpt lat="45.58305259710556" lon="10.450670743507628"><ele>215.0</ele><time>2026-03-28T18:58:48Z</time></trkpt><trkpt lat="45.583160676610746" lon="10.450836620658832"><ele>215.0</ele><time>2026-03-28T18:58:49Z</time></trkpt><trkpt lat="45.58327984972185" lon="10.451019405588905"><ele>215.0</ele><time>2026-03-28T18:58:50Z</time></trkpt><trkpt lat="45.58341424630714" lon="10.451227339423678"><ele>215.0</ele><time>2026-03-28T18:58:51Z</time></trkpt><trkpt lat="45.5835669471883" lon="10.451434023797718"><ele>217.5</ele><time>2026-03-28T18:58:52Z</time></trkpt><trkpt lat="45.583706700672344" lon="10.451679712815471"><ele>220.0</ele><time>2026-03-28T18:58:53Z</time></trkpt><trkpt lat="45.58388351671349" lon="10.451917636563595"><ele>221.33333333333331</ele><time>2026-03-28T18:58:54Z</time></trkpt><trkpt lat="45.5840269763796" lon="10.452141640194641"><ele>222.66666666666669</ele><time>2026-03-28T18:58:55Z</time></trkpt><trkpt lat="45.58415681744752" lon="10.452348248672877"><ele>224.0</ele><time>2026-03-28T18:58:56Z</time></trkpt><trkpt lat="45.58427831601695" lon="10.452525301822632"><ele>224.0</ele><time>2026-03-28T18:58:57Z</time></trkpt><trkpt lat="45.584398692780574" lon="10.452698276341142"><ele>224.0</ele><time>2026-03-28T18:58:58Z</time></trkpt><trkpt lat="45.58452905049515" lon="10.452862671840244"><ele>224.0</ele><time>2026-03-28T18:58:59Z</time></trkpt><trkpt lat="45.584660072115696" lon="10.453020306537715"><ele>224.0</ele><time>2026-03-28T18:59:00Z</time></trkpt><trkpt lat="45.58480691554376" lon="10.453180674296064"><ele>224.0</ele><time>2026-03-28T18:59:01Z</time></trkpt><trkpt lat="45.58495408980314" lon="10.45333060463987"><ele>224.0</ele><time>2026-03-28T18:59:02Z</time></trkpt><trkpt lat="45.58510801046633" lon="10.453478869185046"><ele>224.0</ele><time>2026-03-28T18:59:03Z</time></trkpt><trkpt lat="45.58524823698153" lon="10.453595208184053"><ele>224.0</ele><time>2026-03-28T18:59:04Z</time></trkpt><trkpt lat="45.58538833663917" lon="10.45371050612941"><ele>224.0</ele><time>2026-03-28T18:59:05Z</time></trkpt><trkpt lat="45.58553423075611" lon="10.453816087327334"><ele>225.0</ele><time>2026-03-28T18:59:06Z</time></trkpt><trkpt lat="45.58568264293038" lon="10.453930645739096"><ele>226.0</ele><time>2026-03-28T18:59:07Z</time></trkpt><trkpt lat="45.58583735856758" lon="10.454050030368265"><ele>227.0</ele><time>2026-03-28T18:59:08Z</time></trkpt><trkpt lat="45.585990746980734" lon="10.454162922201284"><ele>227.0</ele><time>2026-03-28T18:59:09Z</time></trkpt><trkpt lat="45.58614070880594" lon="10.454316883412464"><ele>227.0</ele><time>2026-03-28T18:59:10Z</time></trkpt><trkpt lat="45.58629120729625" lon="10.45445651671149"><ele>227.0</ele><time>2026-03-28T18:59:11Z</time></trkpt><trkpt lat="45.58644368755007" lon="10.45459797138319"><ele>234.33333333333334</ele><time>2026-03-28T18:59:12.014Z</time></trkpt><trkpt lat="45.58659375195788" lon="10.454737185801028"><ele>241.66666666666669</ele><time>2026-03-28T18:59:13.012Z</time></trkpt><trkpt lat="45.586744033714915" lon="10.454876607033441"><ele>249.0</ele><time>2026-03-28T18:59:14.012Z</time></trkpt><trkpt lat="45.586894677300826" lon="10.455016363090303"><ele>257.6666666666667</ele><time>2026-03-28T18:59:15.014Z</time></trkpt><trkpt lat="45.58705269297904" lon="10.45513442603005"><ele>266.33333333333337</ele><time>2026-03-28T18:59:16.011Z</time></trkpt><trkpt lat="45.58720918402116" lon="10.455258000779915"><ele>275.0</ele><time>2026-03-28T18:59:17.011Z</time></trkpt><trkpt lat="45.5877367242291" lon="10.455511810912213"><ele>277.33333333333337</ele><time>2026-03-28T18:59:20.071Z</time></trkpt><trkpt lat="45.58789367629022" lon="10.455635705673956"><ele>279.6666666666667</ele><time>2026-03-28T18:59:21.072Z</time></trkpt><trkpt lat="45.588051220814826" lon="10.45576006811431"><ele>282.0</ele><time>2026-03-28T18:59:22.076Z</time></trkpt><trkpt lat="45.58820004745689" lon="10.455904652090435"><ele>282.0</ele><time>2026-03-28T18:59:23.076Z</time></trkpt><trkpt lat="45.588364775548946" lon="10.45600758183793"><ele>282.0</ele><time>2026-03-28T18:59:24.074Z</time></trkpt><trkpt lat="45.58851318107825" lon="10.456151833380579"><ele>282.0</ele><time>2026-03-28T18:59:25.071Z</time></trkpt><trkpt lat="45.588670539979645" lon="10.456276049314226"><ele>278.3333333333333</ele><time>2026-03-28T18:59:26.074Z</time></trkpt><trkpt lat="45.58882719643524" lon="10.456399710763618"><ele>274.66666666666663</ele><time>2026-03-28T18:59:27.073Z</time></trkpt><trkpt lat="45.588992351772035" lon="10.456502977731937"><ele>271.0</ele><time>2026-03-28T18:59:28.074Z</time></trkpt><trkpt lat="45.58914850103168" lon="10.456627253876507"><ele>271.0</ele><time>2026-03-28T18:59:29.071Z</time></trkpt><trkpt lat="45.58930584366971" lon="10.456752347506322"><ele>271.0</ele><time>2026-03-28T18:59:30.076Z</time></trkpt><trkpt lat="45.58945433327134" lon="10.456895760013571"><ele>271.0</ele><time>2026-03-28T18:59:31.071Z</time></trkpt><trkpt lat="45.58961215070546" lon="10.457019432748334"><ele>257.5</ele><time>2026-03-28T18:59:32.076Z</time></trkpt><trkpt lat="45.5897692266206" lon="10.457142559543815"><ele>244.0</ele><time>2026-03-28T18:59:33.075Z</time></trkpt><trkpt lat="45.59009771798326" lon="10.457431208352052"><ele>244.0</ele><time>2026-03-28T18:59:33.999Z</time></trkpt><trkpt lat="45.59025125952092" lon="10.457551574492866"><ele>244.0</ele><time>2026-03-28T18:59:34.999Z</time></trkpt><trkpt lat="45.5904138487583" lon="10.457698911681026"><ele>244.0</ele><time>2026-03-28T18:59:35.999Z</time></trkpt><trkpt lat="45.59054826310276" lon="10.457793570773813"><ele>243.0</ele><time>2026-03-28T18:59:36.999Z</time></trkpt><trkpt lat="45.590704589234875" lon="10.457917504042777"><ele>242.0</ele><time>2026-03-28T18:59:37.999Z</time></trkpt><trkpt lat="45.59086333477257" lon="10.45804172873819"><ele>241.0</ele><time>2026-03-28T18:59:39.015Z</time></trkpt><trkpt lat="45.59173529040589" lon="10.4587205126979"><ele>241.33333333333331</ele><time>2026-03-28T18:59:43.999Z</time></trkpt><trkpt lat="45.59190472419612" lon="10.458855277183813"><ele>241.66666666666669</ele><time>2026-03-28T18:59:45Z</time></trkpt><trkpt lat="45.59207258449288" lon="10.458990722667995"><ele>242.0</ele><time>2026-03-28T18:59:46Z</time></trkpt><trkpt lat="45.592223995068046" lon="10.459096383905122"><ele>242.0</ele><time>2026-03-28T18:59:47Z</time></trkpt><trkpt lat="45.59238485875052" lon="10.459208352036725"><ele>242.0</ele><time>2026-03-28T18:59:48Z</time></trkpt><trkpt lat="45.59255057550339" lon="10.459329970078453"><ele>242.0</ele><time>2026-03-28T18:59:49Z</time></trkpt><trkpt lat="45.592720229517454" lon="10.459448843405326"><ele>243.0</ele><time>2026-03-28T18:59:50Z</time></trkpt><trkpt lat="45.59289793333746" lon="10.45956134203"><ele>244.0</ele><time>2026-03-28T18:59:51Z</time></trkpt><trkpt lat="45.593077881541895" lon="10.459665543785258"><ele>245.0</ele><time>2026-03-28T18:59:52Z</time></trkpt><trkpt lat="45.59326160451042" lon="10.459761467580787"><ele>245.0</ele><time>2026-03-28T18:59:53Z</time></trkpt><trkpt lat="45.59345521850062" lon="10.459848302381028"><ele>245.0</ele><time>2026-03-28T18:59:54Z</time></trkpt><trkpt lat="45.593644598495636" lon="10.459905787655208"><ele>245.0</ele><time>2026-03-28T18:59:55Z</time></trkpt><trkpt lat="45.59381762610767" lon="10.45999533395021"><ele>245.66666666666669</ele><time>2026-03-28T18:59:56Z</time></trkpt><trkpt lat="45.59400984426772" lon="10.460039253657602"><ele>246.33333333333331</ele><time>2026-03-28T18:59:57Z</time></trkpt><trkpt lat="45.594209783607816" lon="10.460061223594323"><ele>247.0</ele><time>2026-03-28T18:59:58Z</time></trkpt><trkpt lat="45.59442918967508" lon="10.460050380869149"><ele>245.0</ele><time>2026-03-28T18:59:59Z</time></trkpt><trkpt lat="45.59462225366775" lon="10.46007754492912"><ele>243.0</ele><time>2026-03-28T19:00:00Z</time></trkpt><trkpt lat="45.5948223781343" lon="10.460097776722444"><ele>241.0</ele><time>2026-03-28T19:00:01Z</time></trkpt><trkpt lat="45.59502369532405" lon="10.460122695012108"><ele>239.0</ele><time>2026-03-28T19:00:02.012Z</time></trkpt><trkpt lat="45.59564869390082" lon="10.460163057167449"><ele>239.0</ele><time>2026-03-28T19:00:05.076Z</time></trkpt><trkpt lat="45.5958470815007" lon="10.46019387661072"><ele>239.0</ele><time>2026-03-28T19:00:06.075Z</time></trkpt><trkpt lat="45.59604562072802" lon="10.46022471960926"><ele>239.0</ele><time>2026-03-28T19:00:07.076Z</time></trkpt><trkpt lat="45.59624136175575" lon="10.460278978095724"><ele>237.0</ele><time>2026-03-28T19:00:08.071Z</time></trkpt><trkpt lat="45.59644188528364" lon="10.460285322111059"><ele>235.0</ele><time>2026-03-28T19:00:09.072Z</time></trkpt><trkpt lat="45.59664053704279" lon="10.460315166908279"><ele>233.0</ele><time>2026-03-28T19:00:10.072Z</time></trkpt><trkpt lat="45.597039149185264" lon="10.460438802848067"><ele>240.66666666666669</ele><time>2026-03-28T19:00:12Z</time></trkpt><trkpt lat="45.59723278564158" lon="10.460467679979207"><ele>248.33333333333331</ele><time>2026-03-28T19:00:13Z</time></trkpt><trkpt lat="45.597432023501064" lon="10.460505147192736"><ele>256.0</ele><time>2026-03-28T19:00:14Z</time></trkpt><trkpt lat="45.597614748970265" lon="10.460525682947182"><ele>256.0</ele><time>2026-03-28T19:00:15Z</time></trkpt><trkpt lat="45.597793981486724" lon="10.460545271410371"><ele>256.0</ele><time>2026-03-28T19:00:16Z</time></trkpt><trkpt lat="45.5979928349681" lon="10.460571912826314"><ele>256.0</ele><time>2026-03-28T19:00:17Z</time></trkpt><trkpt lat="45.598193973770556" lon="10.460588142982402"><ele>250.66666666666666</ele><time>2026-03-28T19:00:18Z</time></trkpt><trkpt lat="45.59840094490981" lon="10.46061510367465"><ele>245.33333333333331</ele><time>2026-03-28T19:00:19Z</time></trkpt><trkpt lat="45.59860113747127" lon="10.460642452759782"><ele>240.0</ele><time>2026-03-28T19:00:20Z</time></trkpt><trkpt lat="45.59880926402061" lon="10.460677726440142"><ele>239.66666666666669</ele><time>2026-03-28T19:00:21Z</time></trkpt><trkpt lat="45.59901200597593" lon="10.460714326856332"><ele>239.33333333333334</ele><time>2026-03-28T19:00:22Z</time></trkpt><trkpt lat="45.599218546963996" lon="10.460752202013918"><ele>239.0</ele><time>2026-03-28T19:00:23Z</time></trkpt><trkpt lat="45.59942030870038" lon="10.46079486135319"><ele>236.0</ele><time>2026-03-28T19:00:24Z</time></trkpt><trkpt lat="45.59962306887168" lon="10.460851361004066"><ele>233.0</ele><time>2026-03-28T19:00:25Z</time></trkpt><trkpt lat="45.599819789820906" lon="10.460918149960618"><ele>230.0</ele><time>2026-03-28T19:00:26Z</time></trkpt><trkpt lat="45.60000819236097" lon="10.460998839596837"><ele>230.0</ele><time>2026-03-28T19:00:27Z</time></trkpt><trkpt lat="45.6001845135644" lon="10.461079787703994"><ele>230.0</ele><time>2026-03-28T19:00:28Z</time></trkpt><trkpt lat="45.6003549124546" lon="10.461169415956038"><ele>230.0</ele><time>2026-03-28T19:00:29Z</time></trkpt><trkpt lat="45.600521601024326" lon="10.461274124505367"><ele>233.33333333333334</ele><time>2026-03-28T19:00:30Z</time></trkpt><trkpt lat="45.600688531939596" lon="10.461381282182268"><ele>236.66666666666669</ele><time>2026-03-28T19:00:31Z</time></trkpt><trkpt lat="45.600852371529484" lon="10.461496866346163"><ele>240.0</ele><time>2026-03-28T19:00:32Z</time></trkpt><trkpt lat="45.60101997776422" lon="10.461621127117347"><ele>232.66666666666669</ele><time>2026-03-28T19:00:33Z</time></trkpt><trkpt lat="45.601188364747436" lon="10.461766936426606"><ele>225.33333333333334</ele><time>2026-03-28T19:00:34Z</time></trkpt><trkpt lat="45.601352729957824" lon="10.461918371514502"><ele>218.0</ele><time>2026-03-28T19:00:35Z</time></trkpt><trkpt lat="45.601514512882424" lon="10.462082997515699"><ele>225.0</ele><time>2026-03-28T19:00:36Z</time></trkpt><trkpt lat="45.60167385067297" lon="10.462254083729801"><ele>232.0</ele><time>2026-03-28T19:00:37Z</time></trkpt><trkpt lat="45.601827169408814" lon="10.46243139101274"><ele>239.0</ele><time>2026-03-28T19:00:38Z</time></trkpt><trkpt lat="45.601983150858736" lon="10.462615369968725"><ele>239.33333333333334</ele><time>2026-03-28T19:00:39Z</time></trkpt><trkpt lat="45.602132970967865" lon="10.462806482792402"><ele>239.66666666666669</ele><time>2026-03-28T19:00:40Z</time></trkpt><trkpt lat="45.60229482414101" lon="10.463056353664781"><ele>240.0</ele><time>2026-03-28T19:00:41Z</time></trkpt><trkpt lat="45.60243195051149" lon="10.463227364398506"><ele>240.0</ele><time>2026-03-28T19:00:42Z</time></trkpt><trkpt lat="45.602545139736684" lon="10.463403756428509"><ele>240.0</ele><time>2026-03-28T19:00:43Z</time></trkpt><trkpt lat="45.602682165495985" lon="10.463586424694652"><ele>240.0</ele><time>2026-03-28T19:00:44Z</time></trkpt><trkpt lat="45.60282498406347" lon="10.4637768153852"><ele>236.0</ele><time>2026-03-28T19:00:45Z</time></trkpt><trkpt lat="45.60296407236739" lon="10.463962233235423"><ele>232.0</ele><time>2026-03-28T19:00:46Z</time></trkpt><trkpt lat="45.60309703618779" lon="10.46413972040325"><ele>228.0</ele><time>2026-03-28T19:00:47Z</time></trkpt><trkpt lat="45.6032303904624" lon="10.464319981943268"><ele>228.0</ele><time>2026-03-28T19:00:48Z</time></trkpt><trkpt lat="45.603367229056694" lon="10.46450837017612"><ele>228.0</ele><time>2026-03-28T19:00:49Z</time></trkpt><trkpt lat="45.60352648861295" lon="10.46470514808814"><ele>228.0</ele><time>2026-03-28T19:00:50Z</time></trkpt><trkpt lat="45.60367895526808" lon="10.464912938810778"><ele>229.0</ele><time>2026-03-28T19:00:51Z</time></trkpt><trkpt lat="45.603832656227354" lon="10.465120746662144"><ele>230.0</ele><time>2026-03-28T19:00:52Z</time></trkpt><trkpt lat="45.603980784249416" lon="10.465322845344227"><ele>231.0</ele><time>2026-03-28T19:00:53Z</time></trkpt><trkpt lat="45.60413697117637" lon="10.465524559204619"><ele>231.0</ele><time>2026-03-28T19:00:54Z</time></trkpt><trkpt lat="45.60430270350245" lon="10.465726134820741"><ele>231.0</ele><time>2026-03-28T19:00:55Z</time></trkpt><trkpt lat="45.604438758271776" lon="10.465923158847826"><ele>231.0</ele><time>2026-03-28T19:00:56Z</time></trkpt><trkpt lat="45.60454050665055" lon="10.46614689663829"><ele>228.33333333333331</ele><time>2026-03-28T19:00:57Z</time></trkpt><trkpt lat="45.60464425849984" lon="10.466372862506406"><ele>225.66666666666666</ele><time>2026-03-28T19:00:58Z</time></trkpt><trkpt lat="45.60472885322975" lon="10.46661715945894"><ele>223.0</ele><time>2026-03-28T19:00:59Z</time></trkpt><trkpt lat="45.60479718493692" lon="10.466867400416685"><ele>225.0</ele><time>2026-03-28T19:01:00Z</time></trkpt><trkpt lat="45.60484497386736" lon="10.467127898875495"><ele>227.0</ele><time>2026-03-28T19:01:01Z</time></trkpt><trkpt lat="45.60487668617069" lon="10.46739842304009"><ele>229.0</ele><time>2026-03-28T19:01:02Z</time></trkpt><trkpt lat="45.604891264144804" lon="10.467666439904724"><ele>229.0</ele><time>2026-03-28T19:01:03Z</time></trkpt><trkpt lat="45.60488535962665" lon="10.467943126627608"><ele>229.0</ele><time>2026-03-28T19:01:04Z</time></trkpt><trkpt lat="45.604870971844385" lon="10.468216149923492"><ele>229.0</ele><time>2026-03-28T19:01:05Z</time></trkpt><trkpt lat="45.604859034727724" lon="10.46841564268544"><ele>234.0</ele><time>2026-03-28T19:01:06Z</time></trkpt><trkpt lat="45.604845485343546" lon="10.468642079619032"><ele>239.0</ele><time>2026-03-28T19:01:07Z</time></trkpt><trkpt lat="45.604824795296395" lon="10.4689960634005"><ele>244.0</ele><time>2026-03-28T19:01:08.016Z</time></trkpt><trkpt lat="45.604632872072294" lon="10.47262936388573"><ele>296.0</ele><time>2026-03-28T19:01:12.075Z</time></trkpt><trkpt lat="45.604583724251704" lon="10.47352090432888"><ele>284.0</ele><time>2026-03-28T19:01:13.072Z</time></trkpt><trkpt lat="45.604535902408244" lon="10.474414870454652"><ele>275.0</ele><time>2026-03-28T19:01:14.071Z</time></trkpt><trkpt lat="45.60454117733487" lon="10.475315566577327"><ele>273.0</ele><time>2026-03-28T19:01:15.075Z</time></trkpt><trkpt lat="45.6046068" lon="10.4759581"><ele>201.0</ele><time>2026-03-28T19:01:16.075Z</time></trkpt><trkpt lat="45.61227365828517" lon="10.488015909385753"><ele>201.0</ele><time>2026-03-28T19:02:38.999Z</time></trkpt><trkpt lat="45.61229614936154" lon="10.488235401924154"><ele>201.0</ele><time>2026-03-28T19:02:40Z</time></trkpt><trkpt lat="45.612319057888115" lon="10.488450561890424"><ele>201.0</ele><time>2026-03-28T19:02:41Z</time></trkpt><trkpt lat="45.61234224401373" lon="10.488649090909755"><ele>201.0</ele><time>2026-03-28T19:02:42Z</time></trkpt><trkpt lat="45.61236923881023" lon="10.488837709507946"><ele>200.5</ele><time>2026-03-28T19:02:43Z</time></trkpt><trkpt lat="45.61239364110822" lon="10.48900530573633"><ele>200.0</ele><time>2026-03-28T19:02:44Z</time></trkpt><trkpt lat="45.612368555387505" lon="10.489186049591835"><ele>199.5</ele><time>2026-03-28T19:02:45Z</time></trkpt><trkpt lat="45.612356453212314" lon="10.48937281725004"><ele>199.0</ele><time>2026-03-28T19:02:46Z</time></trkpt><trkpt lat="45.612331021801644" lon="10.48955502087102"><ele>198.75</ele><time>2026-03-28T19:02:47Z</time></trkpt><trkpt lat="45.61233587923752" lon="10.489766083995077"><ele>198.5</ele><time>2026-03-28T19:02:48Z</time></trkpt><trkpt lat="45.61228746992352" lon="10.489961081033531"><ele>198.25</ele><time>2026-03-28T19:02:49Z</time></trkpt><trkpt lat="45.61223591390139" lon="10.490150043413305"><ele>198.0</ele><time>2026-03-28T19:02:50Z</time></trkpt><trkpt lat="45.61217344737985" lon="10.49032622828324"><ele>197.2</ele><time>2026-03-28T19:02:51Z</time></trkpt><trkpt lat="45.61210494473386" lon="10.49048679437366"><ele>196.4</ele><time>2026-03-28T19:02:52Z</time></trkpt><trkpt lat="45.61203444623861" lon="10.490630490616109"><ele>195.6</ele><time>2026-03-28T19:02:53Z</time></trkpt><trkpt lat="45.611946910512316" lon="10.490722630486033"><ele>194.79999999999998</ele><time>2026-03-28T19:02:54Z</time></trkpt><trkpt lat="45.611911086515335" lon="10.490804147492886"><ele>194.0</ele><time>2026-03-28T19:02:55Z</time></trkpt><trkpt lat="45.611873628224565" lon="10.49089137255718"><ele>191.33333333333334</ele><time>2026-03-28T19:02:57Z</time></trkpt><trkpt lat="45.611825986182836" lon="10.491001753584753"><ele>188.66666666666669</ele><time>2026-03-28T19:03:00Z</time></trkpt><trkpt lat="45.61179008754102" lon="10.4910849214546"><ele>186.0</ele><time>2026-03-28T19:03:01Z</time></trkpt><trkpt lat="45.61174077325262" lon="10.491198220233855"><ele>183.33333333333334</ele><time>2026-03-28T19:03:02Z</time></trkpt><trkpt lat="45.61169371982882" lon="10.491307268247807"><ele>180.66666666666669</ele><time>2026-03-28T19:03:03Z</time></trkpt><trkpt lat="45.61163896945773" lon="10.49143402549323"><ele>178.0</ele><time>2026-03-28T19:03:04Z</time></trkpt><trkpt lat="45.61157642397842" lon="10.491578831021007"><ele>178.0</ele><time>2026-03-28T19:03:05Z</time></trkpt><trkpt lat="45.61150441017378" lon="10.491745556886261"><ele>178.0</ele><time>2026-03-28T19:03:06Z</time></trkpt><trkpt lat="45.61143347016615" lon="10.491909796911138"><ele>178.0</ele><time>2026-03-28T19:03:07Z</time></trkpt><trkpt lat="45.611355214020286" lon="10.492090982465841"><ele>178.0</ele><time>2026-03-28T19:03:08Z</time></trkpt><trkpt lat="45.61128946032966" lon="10.49224322202213"><ele>178.0</ele><time>2026-03-28T19:03:09Z</time></trkpt><trkpt lat="45.611210148095836" lon="10.492426853650484"><ele>178.0</ele><time>2026-03-28T19:03:10Z</time></trkpt><trkpt lat="45.611130448231584" lon="10.49261138283263"><ele>178.0</ele><time>2026-03-28T19:03:11Z</time></trkpt><trkpt lat="45.61104674725785" lon="10.492805175567737"><ele>176.33333333333334</ele><time>2026-03-28T19:03:12Z</time></trkpt><trkpt lat="45.61095748659239" lon="10.493009969419964"><ele>174.66666666666666</ele><time>2026-03-28T19:03:13Z</time></trkpt><trkpt lat="45.61087803112659" lon="10.49319227593193"><ele>173.0</ele><time>2026-03-28T19:03:14Z</time></trkpt><trkpt lat="45.61078850285616" lon="10.493398347855697"><ele>173.0</ele><time>2026-03-28T19:03:15Z</time></trkpt><trkpt lat="45.61070152675357" lon="10.493598616618733"><ele>173.0</ele><time>2026-03-28T19:03:16Z</time></trkpt><trkpt lat="45.610617007778934" lon="10.49379322794199"><ele>173.0</ele><time>2026-03-28T19:03:17Z</time></trkpt><trkpt lat="45.610532285461794" lon="10.493988307396645"><ele>172.33333333333331</ele><time>2026-03-28T19:03:18Z</time></trkpt><trkpt lat="45.610443434542" lon="10.494193015034766"><ele>171.66666666666666</ele><time>2026-03-28T19:03:19Z</time></trkpt><trkpt lat="45.6103577416245" lon="10.494392041138747"><ele>171.0</ele><time>2026-03-28T19:03:20Z</time></trkpt><trkpt lat="45.61027101971108" lon="10.494600860841341"><ele>167.0</ele><time>2026-03-28T19:03:21Z</time></trkpt><trkpt lat="45.610192832053094" lon="10.49479893315371"><ele>163.0</ele><time>2026-03-28T19:03:22Z</time></trkpt><trkpt lat="45.610123061795115" lon="10.494999471819023"><ele>159.0</ele><time>2026-03-28T19:03:23Z</time></trkpt><trkpt lat="45.61007894025693" lon="10.495230877739216"><ele>159.66666666666666</ele><time>2026-03-28T19:03:24Z</time></trkpt><trkpt lat="45.610029484926166" lon="10.495470501140947"><ele>160.33333333333331</ele><time>2026-03-28T19:03:25Z</time></trkpt><trkpt lat="45.60997911057274" lon="10.495716314847757"><ele>161.0</ele><time>2026-03-28T19:03:26Z</time></trkpt><trkpt lat="45.60992930439897" lon="10.495978280093533"><ele>161.0</ele><time>2026-03-28T19:03:27Z</time></trkpt><trkpt lat="45.60986612413678" lon="10.49620623961855"><ele>161.0</ele><time>2026-03-28T19:03:28Z</time></trkpt><trkpt lat="45.60983219135493" lon="10.496442653118953"><ele>161.0</ele><time>2026-03-28T19:03:29Z</time></trkpt><trkpt lat="45.60976675282522" lon="10.496684399228078"><ele>161.0</ele><time>2026-03-28T19:03:30Z</time></trkpt><trkpt lat="45.60971542356459" lon="10.496937929031365"><ele>161.0</ele><time>2026-03-28T19:03:31Z</time></trkpt><trkpt lat="45.60968931722863" lon="10.497176457928543"><ele>161.0</ele><time>2026-03-28T19:03:32Z</time></trkpt><trkpt lat="45.60965697152822" lon="10.497418675301377"><ele>160.0</ele><time>2026-03-28T19:03:33Z</time></trkpt><trkpt lat="45.60964216902423" lon="10.49766367988589"><ele>159.0</ele><time>2026-03-28T19:03:34Z</time></trkpt><trkpt lat="45.609654548094376" lon="10.497922003778074"><ele>158.0</ele><time>2026-03-28T19:03:35Z</time></trkpt><trkpt lat="45.60967950815581" lon="10.498167922590127"><ele>156.66666666666666</ele><time>2026-03-28T19:03:36Z</time></trkpt><trkpt lat="45.60971475397883" lon="10.49839453917007"><ele>155.33333333333334</ele><time>2026-03-28T19:03:37Z</time></trkpt><trkpt lat="45.60976536796316" lon="10.498607259725716"><ele>154.0</ele><time>2026-03-28T19:03:38Z</time></trkpt><trkpt lat="45.60982420130469" lon="10.498799390736613"><ele>153.0</ele><time>2026-03-28T19:03:39Z</time></trkpt><trkpt lat="45.6098755378926" lon="10.498974428996013"><ele>152.0</ele><time>2026-03-28T19:03:40Z</time></trkpt><trkpt lat="45.6099274370105" lon="10.499135622058434"><ele>151.0</ele><time>2026-03-28T19:03:41Z</time></trkpt><trkpt lat="45.60998034698178" lon="10.499285883814506"><ele>150.0</ele><time>2026-03-28T19:03:42Z</time></trkpt><trkpt lat="45.61002499897749" lon="10.499427456456537"><ele>150.0</ele><time>2026-03-28T19:03:43Z</time></trkpt><trkpt lat="45.610070629931855" lon="10.499559976758825"><ele>150.0</ele><time>2026-03-28T19:03:44Z</time></trkpt><trkpt lat="45.610111996343285" lon="10.49968427793711"><ele>150.0</ele><time>2026-03-28T19:03:45Z</time></trkpt><trkpt lat="45.610154043067965" lon="10.499818996061052"><ele>150.0</ele><time>2026-03-28T19:03:46Z</time></trkpt><trkpt lat="45.610203885332" lon="10.4999490003147"><ele>150.0</ele><time>2026-03-28T19:03:47Z</time></trkpt><trkpt lat="45.61025280915213" lon="10.500067441893558"><ele>149.16666666666666</ele><time>2026-03-28T19:03:48Z</time></trkpt><trkpt lat="45.610297862620406" lon="10.500164790698046"><ele>148.33333333333334</ele><time>2026-03-28T19:03:49Z</time></trkpt><trkpt lat="45.610339019124936" lon="10.500258184959243"><ele>147.5</ele><time>2026-03-28T19:03:50Z</time></trkpt><trkpt lat="45.61039469545179" lon="10.500388468262372"><ele>146.66666666666669</ele><time>2026-03-28T19:03:52Z</time></trkpt><trkpt lat="45.61043907649345" lon="10.50050294567533"><ele>145.83333333333334</ele><time>2026-03-28T19:03:54Z</time></trkpt><trkpt lat="45.61044272352619" lon="10.500593962404187"><ele>145.0</ele><time>2026-03-28T19:03:55Z</time></trkpt><trkpt lat="45.610437560953066" lon="10.500710274346337"><ele>144.16666666666669</ele><time>2026-03-28T19:03:56Z</time></trkpt><trkpt lat="45.61044086694869" lon="10.500831908522832"><ele>143.33333333333334</ele><time>2026-03-28T19:03:57Z</time></trkpt><trkpt lat="45.61046281802732" lon="10.50093663817895"><ele>142.5</ele><time>2026-03-28T19:03:58Z</time></trkpt><trkpt lat="45.61049971124922" lon="10.501033840617819"><ele>141.66666666666666</ele><time>2026-03-28T19:03:59Z</time></trkpt><trkpt lat="45.610562211670995" lon="10.50113105552051"><ele>140.83333333333331</ele><time>2026-03-28T19:04:00Z</time></trkpt><trkpt lat="45.61062656593307" lon="10.501234182387773"><ele>140.0</ele><time>2026-03-28T19:04:01Z</time></trkpt><trkpt lat="45.61068347737663" lon="10.50135299589149"><ele>139.0</ele><time>2026-03-28T19:04:02Z</time></trkpt><trkpt lat="45.6107308957248" lon="10.50149994846848"><ele>138.0</ele><time>2026-03-28T19:04:03Z</time></trkpt><trkpt lat="45.610741057620345" lon="10.501681418464122"><ele>137.0</ele><time>2026-03-28T19:04:04Z</time></trkpt><trkpt lat="45.61076007884412" lon="10.501865444576636"><ele>136.0</ele><time>2026-03-28T19:04:05Z</time></trkpt><trkpt lat="45.610775972308055" lon="10.502054565615646"><ele>133.25</ele><time>2026-03-28T19:04:06Z</time></trkpt><trkpt lat="45.610781739915595" lon="10.502231622205105"><ele>130.5</ele><time>2026-03-28T19:04:07Z</time></trkpt><trkpt lat="45.61077112186681" lon="10.50241408086803"><ele>127.75</ele><time>2026-03-28T19:04:08Z</time></trkpt><trkpt lat="45.61075030020107" lon="10.50261274161372"><ele>125.0</ele><time>2026-03-28T19:04:09Z</time></trkpt><trkpt lat="45.61072355190987" lon="10.50282786046702"><ele>122.33333333333333</ele><time>2026-03-28T19:04:10Z</time></trkpt><trkpt lat="45.61069209669863" lon="10.50304995552712"><ele>119.66666666666666</ele><time>2026-03-28T19:04:11Z</time></trkpt><trkpt lat="45.61066411114572" lon="10.503254036041977"><ele>117.0</ele><time>2026-03-28T19:04:12Z</time></trkpt><trkpt lat="45.610652645029894" lon="10.50347085037232"><ele>117.0</ele><time>2026-03-28T19:04:13Z</time></trkpt><trkpt lat="45.6106058391621" lon="10.503689680359562"><ele>117.0</ele><time>2026-03-28T19:04:14Z</time></trkpt><trkpt lat="45.61057508416755" lon="10.503915867228587"><ele>117.0</ele><time>2026-03-28T19:04:15Z</time></trkpt><trkpt lat="45.61054110798795" lon="10.504162389523035"><ele>120.66666666666666</ele><time>2026-03-28T19:04:16Z</time></trkpt><trkpt lat="45.61050706483757" lon="10.504410414323301"><ele>124.33333333333333</ele><time>2026-03-28T19:04:17Z</time></trkpt><trkpt lat="45.61047261371847" lon="10.5046630078119"><ele>128.0</ele><time>2026-03-28T19:04:18Z</time></trkpt><trkpt lat="45.61044013403989" lon="10.504897855019399"><ele>131.66666666666666</ele><time>2026-03-28T19:04:19Z</time></trkpt><trkpt lat="45.610411391618214" lon="10.505122071734005"><ele>135.33333333333334</ele><time>2026-03-28T19:04:20Z</time></trkpt><trkpt lat="45.61039233271634" lon="10.505352013936479"><ele>139.0</ele><time>2026-03-28T19:04:21Z</time></trkpt><trkpt lat="45.61039840015717" lon="10.505589407859636"><ele>139.0</ele><time>2026-03-28T19:04:22Z</time></trkpt><trkpt lat="45.61040183107722" lon="10.505828715642352"><ele>139.0</ele><time>2026-03-28T19:04:23Z</time></trkpt><trkpt lat="45.610419183590494" lon="10.50606958017901"><ele>139.0</ele><time>2026-03-28T19:04:24Z</time></trkpt><trkpt lat="45.61045198122816" lon="10.50631113844556"><ele>135.0</ele><time>2026-03-28T19:04:25Z</time></trkpt><trkpt lat="45.61051542593976" lon="10.506546197517055"><ele>131.0</ele><time>2026-03-28T19:04:26Z</time></trkpt><trkpt lat="45.61059956489741" lon="10.506782486522628"><ele>127.0</ele><time>2026-03-28T19:04:27Z</time></trkpt><trkpt lat="45.610699476141704" lon="10.50700761053792"><ele>122.33333333333334</ele><time>2026-03-28T19:04:28Z</time></trkpt><trkpt lat="45.61079962740362" lon="10.507235593782516"><ele>117.66666666666666</ele><time>2026-03-28T19:04:29Z</time></trkpt><trkpt lat="45.610896179858834" lon="10.507441864177776"><ele>113.0</ele><time>2026-03-28T19:04:30Z</time></trkpt><trkpt lat="45.610986409102466" lon="10.507657924467846"><ele>113.0</ele><time>2026-03-28T19:04:31Z</time></trkpt><trkpt lat="45.61108145467041" lon="10.507871958468089"><ele>113.0</ele><time>2026-03-28T19:04:32Z</time></trkpt><trkpt lat="45.61116731350048" lon="10.50808935695446"><ele>113.0</ele><time>2026-03-28T19:04:33Z</time></trkpt><trkpt lat="45.61125260769274" lon="10.50828739961978"><ele>114.33333333333333</ele><time>2026-03-28T19:04:34Z</time></trkpt><trkpt lat="45.61133128851113" lon="10.508484273692757"><ele>115.66666666666666</ele><time>2026-03-28T19:04:35Z</time></trkpt><trkpt lat="45.61141231471187" lon="10.50867410513821"><ele>117.0</ele><time>2026-03-28T19:04:36Z</time></trkpt><trkpt lat="45.611481418167095" lon="10.508855682140316"><ele>117.0</ele><time>2026-03-28T19:04:37Z</time></trkpt><trkpt lat="45.61155990090607" lon="10.509037664862412"><ele>117.0</ele><time>2026-03-28T19:04:38Z</time></trkpt><trkpt lat="45.61162928517165" lon="10.509200488983751"><ele>117.0</ele><time>2026-03-28T19:04:39Z</time></trkpt><trkpt lat="45.61168547784486" lon="10.509349846703408"><ele>117.0</ele><time>2026-03-28T19:04:40Z</time></trkpt><trkpt lat="45.611728687236734" lon="10.509474161050539"><ele>116.16666666666667</ele><time>2026-03-28T19:04:41Z</time></trkpt><trkpt lat="45.61176325411569" lon="10.509590538779587"><ele>115.33333333333334</ele><time>2026-03-28T19:04:42Z</time></trkpt><trkpt lat="45.611789993907756" lon="10.509700422515516"><ele>114.5</ele><time>2026-03-28T19:04:43Z</time></trkpt><trkpt lat="45.611809320186005" lon="10.509787684921164"><ele>113.66666666666667</ele><time>2026-03-28T19:04:44Z</time></trkpt><trkpt lat="45.611814712121564" lon="10.509970337679126"><ele>112.83333333333334</ele><time>2026-03-28T19:04:46Z</time></trkpt><trkpt lat="45.61178564265283" lon="10.510079348435553"><ele>112.0</ele><time>2026-03-28T19:04:47Z</time></trkpt><trkpt lat="45.61175107384658" lon="10.51018968350115"><ele>112.0</ele><time>2026-03-28T19:04:48Z</time></trkpt><trkpt lat="45.61174181411159" lon="10.510308817219439"><ele>111.99999999999999</ele><time>2026-03-28T19:04:49Z</time></trkpt><trkpt lat="45.61176652625964" lon="10.510435256517736"><ele>111.99999999999999</ele><time>2026-03-28T19:04:50Z</time></trkpt><trkpt lat="45.61181320503012" lon="10.51054295600538"><ele>112.0</ele><time>2026-03-28T19:04:51Z</time></trkpt><trkpt lat="45.61186684850462" lon="10.510654590776358"><ele>112.0</ele><time>2026-03-28T19:04:52Z</time></trkpt><trkpt lat="45.61188731746005" lon="10.510786280272479"><ele>112.0</ele><time>2026-03-28T19:04:53Z</time></trkpt><trkpt lat="45.6119005478222" lon="10.510948322849972"><ele>112.0</ele><time>2026-03-28T19:04:54Z</time></trkpt><trkpt lat="45.61186384537919" lon="10.511112595072927"><ele>112.0</ele><time>2026-03-28T19:04:55Z</time></trkpt><trkpt lat="45.61184607429069" lon="10.511280654168695"><ele>112.0</ele><time>2026-03-28T19:04:56Z</time></trkpt><trkpt lat="45.611828793644435" lon="10.511434341802056"><ele>112.0</ele><time>2026-03-28T19:04:57Z</time></trkpt><trkpt lat="45.6118194209471" lon="10.511608677102942"><ele>112.0</ele><time>2026-03-28T19:04:58Z</time></trkpt><trkpt lat="45.61178033453924" lon="10.511784245439449"><ele>112.0</ele><time>2026-03-28T19:04:59Z</time></trkpt><trkpt lat="45.61173983596055" lon="10.511966145489833"><ele>112.0</ele><time>2026-03-28T19:05:00Z</time></trkpt><trkpt lat="45.6116964335333" lon="10.512147307205243"><ele>112.75</ele><time>2026-03-28T19:05:01Z</time></trkpt><trkpt lat="45.61165578684635" lon="10.512333399931112"><ele>113.5</ele><time>2026-03-28T19:05:02Z</time></trkpt><trkpt lat="45.61160865786309" lon="10.512513429593"><ele>114.25</ele><time>2026-03-28T19:05:03Z</time></trkpt><trkpt lat="45.61155274451225" lon="10.512696226056518"><ele>115.0</ele><time>2026-03-28T19:05:04Z</time></trkpt><trkpt lat="45.61152984261768" lon="10.512897132140974"><ele>115.33333333333334</ele><time>2026-03-28T19:05:05Z</time></trkpt><trkpt lat="45.61148622746222" lon="10.513106310980074"><ele>115.66666666666666</ele><time>2026-03-28T19:05:06Z</time></trkpt><trkpt lat="45.61144655933871" lon="10.51332932701407"><ele>116.0</ele><time>2026-03-28T19:05:07Z</time></trkpt><trkpt lat="45.61139913636964" lon="10.513560176488594"><ele>117.5</ele><time>2026-03-28T19:05:08Z</time></trkpt><trkpt lat="45.611338368703926" lon="10.513866308656315"><ele>119.0</ele><time>2026-03-28T19:05:09Z</time></trkpt><trkpt lat="45.61122470549273" lon="10.514183828249104"><ele>119.0</ele><time>2026-03-28T19:05:10Z</time></trkpt><trkpt lat="45.611186894782946" lon="10.514515673136197"><ele>119.0</ele><time>2026-03-28T19:05:11Z</time></trkpt><trkpt lat="45.61112879045759" lon="10.51479429101708"><ele>119.0</ele><time>2026-03-28T19:05:12Z</time></trkpt><trkpt lat="45.61106737517029" lon="10.515040626898928"><ele>116.66666666666666</ele><time>2026-03-28T19:05:13Z</time></trkpt><trkpt lat="45.6110030060001" lon="10.515288763065156"><ele>114.33333333333334</ele><time>2026-03-28T19:05:14Z</time></trkpt><trkpt lat="45.610945925127254" lon="10.515521252823232"><ele>112.0</ele><time>2026-03-28T19:05:15Z</time></trkpt><trkpt lat="45.61090051738911" lon="10.515735744850689"><ele>112.0</ele><time>2026-03-28T19:05:16Z</time></trkpt><trkpt lat="45.61083675216657" lon="10.515955311523708"><ele>112.0</ele><time>2026-03-28T19:05:17Z</time></trkpt><trkpt lat="45.61078499717005" lon="10.516192575772042"><ele>112.0</ele><time>2026-03-28T19:05:18Z</time></trkpt><trkpt lat="45.61074056161719" lon="10.516465627661113"><ele>113.33333333333334</ele><time>2026-03-28T19:05:19Z</time></trkpt><trkpt lat="45.61066248657461" lon="10.516754982308022"><ele>114.66666666666666</ele><time>2026-03-28T19:05:20Z</time></trkpt><trkpt lat="45.61060304968459" lon="10.517025790894065"><ele>116.0</ele><time>2026-03-28T19:05:21Z</time></trkpt><trkpt lat="45.61057070664288" lon="10.517245238108414"><ele>116.5</ele><time>2026-03-28T19:05:22Z</time></trkpt><trkpt lat="45.6105289438495" lon="10.517439295433757"><ele>117.0</ele><time>2026-03-28T19:05:23Z</time></trkpt><trkpt lat="45.61047473003589" lon="10.517611597092941"><ele>117.5</ele><time>2026-03-28T19:05:24Z</time></trkpt><trkpt lat="45.6104387334254" lon="10.517779095362503"><ele>118.0</ele><time>2026-03-28T19:05:25Z</time></trkpt><trkpt lat="45.61040345682986" lon="10.51795176225241"><ele>118.0</ele><time>2026-03-28T19:05:26Z</time></trkpt><trkpt lat="45.61036843038385" lon="10.518126287060973"><ele>118.0</ele><time>2026-03-28T19:05:27Z</time></trkpt><trkpt lat="45.610324445657476" lon="10.518302420748794"><ele>118.0</ele><time>2026-03-28T19:05:28Z</time></trkpt><trkpt lat="45.610289780982285" lon="10.518477299739843"><ele>118.0</ele><time>2026-03-28T19:05:29Z</time></trkpt><trkpt lat="45.61025542644802" lon="10.518652867220945"><ele>115.5</ele><time>2026-03-28T19:05:30Z</time></trkpt><trkpt lat="45.61020596698624" lon="10.518808962889043"><ele>113.0</ele><time>2026-03-28T19:05:31Z</time></trkpt><trkpt lat="45.61016184324109" lon="10.518968617497341"><ele>110.5</ele><time>2026-03-28T19:05:32Z</time></trkpt><trkpt lat="45.61010894138304" lon="10.519136724597166"><ele>108.0</ele><time>2026-03-28T19:05:33Z</time></trkpt><trkpt lat="45.610056441426636" lon="10.519302283248061"><ele>108.0</ele><time>2026-03-28T19:05:34Z</time></trkpt><trkpt lat="45.60998302233347" lon="10.519451932146259"><ele>108.0</ele><time>2026-03-28T19:05:35Z</time></trkpt><trkpt lat="45.60992003565126" lon="10.519622338178946"><ele>108.0</ele><time>2026-03-28T19:05:36Z</time></trkpt><trkpt lat="45.60984991238351" lon="10.519773893533555"><ele>108.0</ele><time>2026-03-28T19:05:37Z</time></trkpt><trkpt lat="45.60977576024174" lon="10.51993134503204"><ele>107.5</ele><time>2026-03-28T19:05:38Z</time></trkpt><trkpt lat="45.60969579391802" lon="10.520081980363166"><ele>107.0</ele><time>2026-03-28T19:05:39Z</time></trkpt><trkpt lat="45.60960295459712" lon="10.520224796344987"><ele>106.5</ele><time>2026-03-28T19:05:40Z</time></trkpt><trkpt lat="45.609516345168416" lon="10.520367296467146"><ele>106.0</ele><time>2026-03-28T19:05:41Z</time></trkpt><trkpt lat="45.60943506270458" lon="10.520492244252189"><ele>106.0</ele><time>2026-03-28T19:05:42Z</time></trkpt><trkpt lat="45.609334721850395" lon="10.520640373017288"><ele>106.0</ele><time>2026-03-28T19:05:43Z</time></trkpt><trkpt lat="45.609242863993366" lon="10.520774083452409"><ele>106.0</ele><time>2026-03-28T19:05:44Z</time></trkpt><trkpt lat="45.60914297792048" lon="10.520919479733038"><ele>106.0</ele><time>2026-03-28T19:05:45Z</time></trkpt><trkpt lat="45.60904502632868" lon="10.521062059782404"><ele>106.0</ele><time>2026-03-28T19:05:46Z</time></trkpt><trkpt lat="45.60894552894146" lon="10.521206890181167"><ele>106.0</ele><time>2026-03-28T19:05:47Z</time></trkpt><trkpt lat="45.60885521403504" lon="10.521338354397821"><ele>106.0</ele><time>2026-03-28T19:05:48Z</time></trkpt><trkpt lat="45.60876544581332" lon="10.521467226526328"><ele>106.0</ele><time>2026-03-28T19:05:49Z</time></trkpt><trkpt lat="45.60869154774409" lon="10.521616048944985"><ele>105.25</ele><time>2026-03-28T19:05:50Z</time></trkpt><trkpt lat="45.60860227648332" lon="10.521758662008756"><ele>104.5</ele><time>2026-03-28T19:05:51Z</time></trkpt><trkpt lat="45.6085312432471" lon="10.521908008887667"><ele>103.75</ele><time>2026-03-28T19:05:52Z</time></trkpt><trkpt lat="45.60847583172937" lon="10.522082413776621"><ele>103.0</ele><time>2026-03-28T19:05:53Z</time></trkpt><trkpt lat="45.60846691217053" lon="10.522263941674069"><ele>103.0</ele><time>2026-03-28T19:05:54Z</time></trkpt><trkpt lat="45.60847415803819" lon="10.522460214747596"><ele>103.0</ele><time>2026-03-28T19:05:55Z</time></trkpt><trkpt lat="45.60851303459681" lon="10.522655822409407"><ele>103.0</ele><time>2026-03-28T19:05:56Z</time></trkpt><trkpt lat="45.608574136211594" lon="10.522850325194062"><ele>103.0</ele><time>2026-03-28T19:05:57Z</time></trkpt><trkpt lat="45.6086385239143" lon="10.523042032563868"><ele>109.75</ele><time>2026-03-28T19:05:58Z</time></trkpt><trkpt lat="45.6086857576936" lon="10.523217967199413"><ele>116.5</ele><time>2026-03-28T19:05:59Z</time></trkpt><trkpt lat="45.608730003249995" lon="10.523387106436136"><ele>123.25</ele><time>2026-03-28T19:06:00Z</time></trkpt><trkpt lat="45.60875011871944" lon="10.523568203390177"><ele>130.0</ele><time>2026-03-28T19:06:01Z</time></trkpt><trkpt lat="45.608735934361704" lon="10.52375586239478"><ele>130.75</ele><time>2026-03-28T19:06:02Z</time></trkpt><trkpt lat="45.60873469042809" lon="10.523954344658517"><ele>131.5</ele><time>2026-03-28T19:06:03Z</time></trkpt><trkpt lat="45.608722278202926" lon="10.52415389512911"><ele>132.25</ele><time>2026-03-28T19:06:04Z</time></trkpt><trkpt lat="45.60871141447893" lon="10.524330201627228"><ele>133.0</ele><time>2026-03-28T19:06:05Z</time></trkpt><trkpt lat="45.608702572668754" lon="10.524494464679265"><ele>133.5</ele><time>2026-03-28T19:06:06Z</time></trkpt><trkpt lat="45.60869597975532" lon="10.524684944133789"><ele>134.0</ele><time>2026-03-28T19:06:07Z</time></trkpt><trkpt lat="45.608681447650206" lon="10.524880157489562"><ele>134.5</ele><time>2026-03-28T19:06:08Z</time></trkpt><trkpt lat="45.608670906458244" lon="10.525072812779017"><ele>135.0</ele><time>2026-03-28T19:06:09Z</time></trkpt><trkpt lat="45.60865127740437" lon="10.525266338400407"><ele>126.5</ele><time>2026-03-28T19:06:10Z</time></trkpt><trkpt lat="45.608640484511355" lon="10.52546913717353"><ele>118.0</ele><time>2026-03-28T19:06:11Z</time></trkpt><trkpt lat="45.6086324056681" lon="10.525668410250935"><ele>109.5</ele><time>2026-03-28T19:06:12Z</time></trkpt><trkpt lat="45.608627240752035" lon="10.525873915629282"><ele>101.0</ele><time>2026-03-28T19:06:13Z</time></trkpt><trkpt lat="45.60860891994556" lon="10.526074008267223"><ele>101.5</ele><time>2026-03-28T19:06:14Z</time></trkpt><trkpt lat="45.608604168043904" lon="10.526252404966737"><ele>102.0</ele><time>2026-03-28T19:06:15Z</time></trkpt><trkpt lat="45.60860540866488" lon="10.526431862765849"><ele>102.5</ele><time>2026-03-28T19:06:16Z</time></trkpt><trkpt lat="45.60861124796402" lon="10.526615580271104"><ele>103.0</ele><time>2026-03-28T19:06:17Z</time></trkpt><trkpt lat="45.60862836267069" lon="10.526799659367207"><ele>103.0</ele><time>2026-03-28T19:06:18Z</time></trkpt><trkpt lat="45.6086368895207" lon="10.52697258241535"><ele>103.0</ele><time>2026-03-28T19:06:19Z</time></trkpt><trkpt lat="45.608655777791846" lon="10.527154702649122"><ele>103.0</ele><time>2026-03-28T19:06:20Z</time></trkpt><trkpt lat="45.60867232935796" lon="10.527343314066268"><ele>103.0</ele><time>2026-03-28T19:06:21Z</time></trkpt><trkpt lat="45.60869269200596" lon="10.52752931428199"><ele>110.0</ele><time>2026-03-28T19:06:22Z</time></trkpt><trkpt lat="45.60871072441852" lon="10.527718921827352"><ele>117.0</ele><time>2026-03-28T19:06:23Z</time></trkpt><trkpt lat="45.60873017230869" lon="10.527916700474938"><ele>124.0</ele><time>2026-03-28T19:06:24Z</time></trkpt><trkpt lat="45.60875379812006" lon="10.528118833130911"><ele>131.0</ele><time>2026-03-28T19:06:25Z</time></trkpt><trkpt lat="45.60877564872405" lon="10.528327437862023"><ele>131.0</ele><time>2026-03-28T19:06:26Z</time></trkpt><trkpt lat="45.60878675336282" lon="10.52854127034881"><ele>131.0</ele><time>2026-03-28T19:06:27Z</time></trkpt><trkpt lat="45.608820963722394" lon="10.52874541380089"><ele>131.0</ele><time>2026-03-28T19:06:28Z</time></trkpt><trkpt lat="45.60882811255863" lon="10.52896021457318"><ele>131.0</ele><time>2026-03-28T19:06:29Z</time></trkpt><trkpt lat="45.60886791406485" lon="10.529162033250657"><ele>129.75</ele><time>2026-03-28T19:06:30Z</time></trkpt><trkpt lat="45.60889527185525" lon="10.529363501745113"><ele>128.5</ele><time>2026-03-28T19:06:31Z</time></trkpt><trkpt lat="45.608940290545526" lon="10.529565414436878"><ele>127.25</ele><time>2026-03-28T19:06:32Z</time></trkpt><trkpt lat="45.609002657222156" lon="10.52975663368487"><ele>126.0</ele><time>2026-03-28T19:06:33Z</time></trkpt><trkpt lat="45.60907168972276" lon="10.529968977571079"><ele>123.25</ele><time>2026-03-28T19:06:34Z</time></trkpt><trkpt lat="45.60913700944392" lon="10.530139139790299"><ele>120.5</ele><time>2026-03-28T19:06:35Z</time></trkpt><trkpt lat="45.60921052108567" lon="10.530324508622769"><ele>117.75</ele><time>2026-03-28T19:06:36Z</time></trkpt><trkpt lat="45.60928657023303" lon="10.530511911702442"><ele>115.0</ele><time>2026-03-28T19:06:37Z</time></trkpt><trkpt lat="45.60936792957219" lon="10.530692292468338"><ele>116.0</ele><time>2026-03-28T19:06:38Z</time></trkpt><trkpt lat="45.60944781135182" lon="10.530882374818983"><ele>117.0</ele><time>2026-03-28T19:06:39Z</time></trkpt><trkpt lat="45.60953070470669" lon="10.53104216556263"><ele>118.0</ele><time>2026-03-28T19:06:40Z</time></trkpt><trkpt lat="45.60959493936249" lon="10.531194682225774"><ele>119.0</ele><time>2026-03-28T19:06:41Z</time></trkpt><trkpt lat="45.60966427533623" lon="10.531335236005557"><ele>119.0</ele><time>2026-03-28T19:06:42Z</time></trkpt><trkpt lat="45.60972731265522" lon="10.531474039395261"><ele>119.0</ele><time>2026-03-28T19:06:43Z</time></trkpt><trkpt lat="45.60978171101949" lon="10.531617872167711"><ele>119.0</ele><time>2026-03-28T19:06:44Z</time></trkpt><trkpt lat="45.60980696774303" lon="10.531759866167251"><ele>119.0</ele><time>2026-03-28T19:06:45Z</time></trkpt><trkpt lat="45.60981498544146" lon="10.531912220663655"><ele>119.0</ele><time>2026-03-28T19:06:46Z</time></trkpt><trkpt lat="45.60980309150771" lon="10.532042960316977"><ele>119.75</ele><time>2026-03-28T19:06:47Z</time></trkpt><trkpt lat="45.60976711685799" lon="10.532170139582023"><ele>120.5</ele><time>2026-03-28T19:06:48Z</time></trkpt><trkpt lat="45.60971005790644" lon="10.532299743734487"><ele>121.25</ele><time>2026-03-28T19:06:49Z</time></trkpt><trkpt lat="45.60964099404214" lon="10.53245240798603"><ele>122.0</ele><time>2026-03-28T19:06:50Z</time></trkpt><trkpt lat="45.609577580029686" lon="10.532608088810168"><ele>122.0</ele><time>2026-03-28T19:06:51Z</time></trkpt><trkpt lat="45.609524861326975" lon="10.532770768355904"><ele>122.0</ele><time>2026-03-28T19:06:52Z</time></trkpt><trkpt lat="45.60948080774795" lon="10.532941151662504"><ele>122.0</ele><time>2026-03-28T19:06:53Z</time></trkpt><trkpt lat="45.609478624618035" lon="10.533136226605667"><ele>122.0</ele><time>2026-03-28T19:06:54Z</time></trkpt><trkpt lat="45.609493751582534" lon="10.53332031077639"><ele>123.25</ele><time>2026-03-28T19:06:55Z</time></trkpt><trkpt lat="45.60950457075357" lon="10.533508396114536"><ele>124.5</ele><time>2026-03-28T19:06:56Z</time></trkpt><trkpt lat="45.60952608083461" lon="10.533695464983293"><ele>125.75</ele><time>2026-03-28T19:06:57Z</time></trkpt><trkpt lat="45.60954747695925" lon="10.533878317738665"><ele>127.0</ele><time>2026-03-28T19:06:58Z</time></trkpt><trkpt lat="45.609587541713275" lon="10.534049671374033"><ele>124.25</ele><time>2026-03-28T19:06:59Z</time></trkpt><trkpt lat="45.6096385795397" lon="10.53422195528594"><ele>121.5</ele><time>2026-03-28T19:07:00Z</time></trkpt><trkpt lat="45.60972018233439" lon="10.534374456798496"><ele>118.75</ele><time>2026-03-28T19:07:01Z</time></trkpt><trkpt lat="45.60981682963751" lon="10.53448443214793"><ele>116.0</ele><time>2026-03-28T19:07:02Z</time></trkpt><trkpt lat="45.609900864803095" lon="10.534600050813243"><ele>111.5</ele><time>2026-03-28T19:07:03Z</time></trkpt><trkpt lat="45.60997703663413" lon="10.534708945952657"><ele>107.0</ele><time>2026-03-28T19:07:04Z</time></trkpt><trkpt lat="45.610057079273865" lon="10.534811776896069"><ele>102.5</ele><time>2026-03-28T19:07:05Z</time></trkpt><trkpt lat="45.61013414640568" lon="10.53494616197734"><ele>98.0</ele><time>2026-03-28T19:07:06Z</time></trkpt><trkpt lat="45.610173207777734" lon="10.535123462433136"><ele>98.0</ele><time>2026-03-28T19:07:07Z</time></trkpt><trkpt lat="45.610230167535484" lon="10.535308250720929"><ele>98.0</ele><time>2026-03-28T19:07:08Z</time></trkpt><trkpt lat="45.61031017176225" lon="10.535488916243752"><ele>98.0</ele><time>2026-03-28T19:07:09Z</time></trkpt><trkpt lat="45.61038807459504" lon="10.535678354649177"><ele>98.0</ele><time>2026-03-28T19:07:10Z</time></trkpt><trkpt lat="45.61047234447749" lon="10.535842680215065"><ele>99.0</ele><time>2026-03-28T19:07:11Z</time></trkpt><trkpt lat="45.610538072917045" lon="10.53600573932862"><ele>100.0</ele><time>2026-03-28T19:07:12Z</time></trkpt><trkpt lat="45.61061033072054" lon="10.536146022498277"><ele>101.0</ele><time>2026-03-28T19:07:13Z</time></trkpt><trkpt lat="45.61068468449989" lon="10.536285092711799"><ele>102.0</ele><time>2026-03-28T19:07:14Z</time></trkpt><trkpt lat="45.61075240867672" lon="10.536434385808601"><ele>102.0</ele><time>2026-03-28T19:07:15Z</time></trkpt><trkpt lat="45.610784780670635" lon="10.536599517805602"><ele>102.0</ele><time>2026-03-28T19:07:16Z</time></trkpt><trkpt lat="45.61079105773142" lon="10.53674562561465"><ele>102.0</ele><time>2026-03-28T19:07:17Z</time></trkpt><trkpt lat="45.61077338935259" lon="10.536908541938285"><ele>102.0</ele><time>2026-03-28T19:07:18Z</time></trkpt><trkpt lat="45.610749826833384" lon="10.53708439428981"><ele>99.75</ele><time>2026-03-28T19:07:19Z</time></trkpt><trkpt lat="45.61074240467475" lon="10.537236617721026"><ele>97.5</ele><time>2026-03-28T19:07:20Z</time></trkpt><trkpt lat="45.61076916655599" lon="10.537399518191565"><ele>95.25</ele><time>2026-03-28T19:07:21Z</time></trkpt><trkpt lat="45.610801139384094" lon="10.537576423754402"><ele>93.0</ele><time>2026-03-28T19:07:22Z</time></trkpt><trkpt lat="45.610844174509346" lon="10.537754324941172"><ele>90.0</ele><time>2026-03-28T19:07:23Z</time></trkpt><trkpt lat="45.61090062769526" lon="10.537947194811075"><ele>87.0</ele><time>2026-03-28T19:07:24Z</time></trkpt><trkpt lat="45.61098017650004" lon="10.538184147931013"><ele>84.0</ele><time>2026-03-28T19:07:25Z</time></trkpt><trkpt lat="45.61106977795208" lon="10.53846769812915"><ele>88.5</ele><time>2026-03-28T19:07:26Z</time></trkpt><trkpt lat="45.61118280515867" lon="10.538771484163785"><ele>93.0</ele><time>2026-03-28T19:07:27Z</time></trkpt><trkpt lat="45.61130340216723" lon="10.539093077162216"><ele>93.0</ele><time>2026-03-28T19:07:28Z</time></trkpt><trkpt lat="45.61142450091091" lon="10.539368143353842"><ele>93.0</ele><time>2026-03-28T19:07:29Z</time></trkpt><trkpt lat="45.61150747773858" lon="10.539638375305936"><ele>93.0</ele><time>2026-03-28T19:07:30Z</time></trkpt><trkpt lat="45.611600710640204" lon="10.539889380046555"><ele>90.66666666666667</ele><time>2026-03-28T19:07:31Z</time></trkpt><trkpt lat="45.611691675405325" lon="10.540133847684233"><ele>88.33333333333334</ele><time>2026-03-28T19:07:32Z</time></trkpt><trkpt lat="45.61178174123261" lon="10.540375726130772"><ele>86.0</ele><time>2026-03-28T19:07:33Z</time></trkpt><trkpt lat="45.61186503198689" lon="10.540598856941807"><ele>85.66666666666667</ele><time>2026-03-28T19:07:34Z</time></trkpt><trkpt lat="45.61194653115577" lon="10.540815335958262"><ele>85.33333333333333</ele><time>2026-03-28T19:07:35Z</time></trkpt><trkpt lat="45.61202899913876" lon="10.541034028717224"><ele>85.0</ele><time>2026-03-28T19:07:36Z</time></trkpt><trkpt lat="45.61211294589093" lon="10.541262945823792"><ele>85.0</ele><time>2026-03-28T19:07:37Z</time></trkpt><trkpt lat="45.61219303533525" lon="10.541484893756941"><ele>85.0</ele><time>2026-03-28T19:07:38Z</time></trkpt><trkpt lat="45.61226590681239" lon="10.541692297231549"><ele>85.0</ele><time>2026-03-28T19:07:39Z</time></trkpt><trkpt lat="45.61233646691189" lon="10.541890908780067"><ele>83.0</ele><time>2026-03-28T19:07:40Z</time></trkpt><trkpt lat="45.61240878869466" lon="10.542098806149836"><ele>81.0</ele><time>2026-03-28T19:07:41Z</time></trkpt><trkpt lat="45.61247771289419" lon="10.542305115897321"><ele>79.0</ele><time>2026-03-28T19:07:42Z</time></trkpt><trkpt lat="45.61254002250386" lon="10.542519872516689"><ele>79.0</ele><time>2026-03-28T19:07:43Z</time></trkpt><trkpt lat="45.61259542298249" lon="10.54273227032234"><ele>79.0</ele><time>2026-03-28T19:07:44Z</time></trkpt><trkpt lat="45.61263915072234" lon="10.542947068395177"><ele>79.0</ele><time>2026-03-28T19:07:45Z</time></trkpt><trkpt lat="45.612676647039635" lon="10.543145905156065"><ele>77.75</ele><time>2026-03-28T19:07:46Z</time></trkpt><trkpt lat="45.612711146824005" lon="10.543341090582889"><ele>76.5</ele><time>2026-03-28T19:07:47Z</time></trkpt><trkpt lat="45.61275903201266" lon="10.54352894691966"><ele>75.25</ele><time>2026-03-28T19:07:48Z</time></trkpt><trkpt lat="45.61279274135114" lon="10.543723900041826"><ele>74.0</ele><time>2026-03-28T19:07:49Z</time></trkpt><trkpt lat="45.61283775884272" lon="10.543918343764531"><ele>77.66666666666667</ele><time>2026-03-28T19:07:50Z</time></trkpt><trkpt lat="45.61289787873661" lon="10.544124926427203"><ele>81.33333333333333</ele><time>2026-03-28T19:07:51Z</time></trkpt><trkpt lat="45.61297465247215" lon="10.54434829174086"><ele>85.0</ele><time>2026-03-28T19:07:52Z</time></trkpt><trkpt lat="45.61305273907018" lon="10.544549858433536"><ele>85.0</ele><time>2026-03-28T19:07:53Z</time></trkpt><trkpt lat="45.61312997632497" lon="10.544732275464222"><ele>85.0</ele><time>2026-03-28T19:07:54Z</time></trkpt><trkpt lat="45.613201997651394" lon="10.544910733855799"><ele>85.0</ele><time>2026-03-28T19:07:55Z</time></trkpt><trkpt lat="45.613273185763035" lon="10.545086236877193"><ele>85.0</ele><time>2026-03-28T19:07:56Z</time></trkpt><trkpt lat="45.61332707671286" lon="10.545250915623184"><ele>82.0</ele><time>2026-03-28T19:07:57Z</time></trkpt><trkpt lat="45.61339016100104" lon="10.545427014799555"><ele>79.0</ele><time>2026-03-28T19:07:58Z</time></trkpt><trkpt lat="45.61342137343738" lon="10.545635244288652"><ele>76.0</ele><time>2026-03-28T19:07:59Z</time></trkpt><trkpt lat="45.61346932413965" lon="10.545868484925208"><ele>76.0</ele><time>2026-03-28T19:08:00Z</time></trkpt><trkpt lat="45.61352881402029" lon="10.546155056520947"><ele>76.0</ele><time>2026-03-28T19:08:01Z</time></trkpt><trkpt lat="45.61359501849369" lon="10.546479545830127"><ele>76.0</ele><time>2026-03-28T19:08:02Z</time></trkpt><trkpt lat="45.61364805874873" lon="10.546736492939672"><ele>77.0</ele><time>2026-03-28T19:08:03Z</time></trkpt><trkpt lat="45.61369736373041" lon="10.546979513761585"><ele>78.0</ele><time>2026-03-28T19:08:04Z</time></trkpt><trkpt lat="45.61373612699176" lon="10.547190510438519"><ele>79.0</ele><time>2026-03-28T19:08:05Z</time></trkpt><trkpt lat="45.613772470196636" lon="10.547388335491625"><ele>79.0</ele><time>2026-03-28T19:08:06Z</time></trkpt><trkpt lat="45.6138053894784" lon="10.54756279332245"><ele>79.0</ele><time>2026-03-28T19:08:07Z</time></trkpt><trkpt lat="45.613836493019654" lon="10.547728601957415"><ele>79.0</ele><time>2026-03-28T19:08:08Z</time></trkpt><trkpt lat="45.61386771718702" lon="10.547895053911528"><ele>79.0</ele><time>2026-03-28T19:08:09Z</time></trkpt><trkpt lat="45.6138993344619" lon="10.5480637700269"><ele>78.0</ele><time>2026-03-28T19:08:10Z</time></trkpt><trkpt lat="45.61393034994735" lon="10.548234721134213"><ele>77.0</ele><time>2026-03-28T19:08:11Z</time></trkpt><trkpt lat="45.6139610787368" lon="10.548404092023313"><ele>76.0</ele><time>2026-03-28T19:08:12Z</time></trkpt><trkpt lat="45.613989153793945" lon="10.548558836119934"><ele>75.0</ele><time>2026-03-28T19:08:13Z</time></trkpt><trkpt lat="45.61403576002835" lon="10.548722099313313"><ele>74.5</ele><time>2026-03-28T19:08:14Z</time></trkpt><trkpt lat="45.614064912081524" lon="10.548891087735605"><ele>74.0</ele><time>2026-03-28T19:08:15Z</time></trkpt><trkpt lat="45.614099451350576" lon="10.549064254419488"><ele>73.5</ele><time>2026-03-28T19:08:16Z</time></trkpt><trkpt lat="45.614129880895604" lon="10.54924570385476"><ele>73.0</ele><time>2026-03-28T19:08:17Z</time></trkpt><trkpt lat="45.61416522143498" lon="10.54942425111558"><ele>73.0</ele><time>2026-03-28T19:08:18Z</time></trkpt><trkpt lat="45.614181022574414" lon="10.549611358460513"><ele>73.0</ele><time>2026-03-28T19:08:19Z</time></trkpt><trkpt lat="45.61423042860435" lon="10.549788981330272"><ele>73.0</ele><time>2026-03-28T19:08:20Z</time></trkpt><trkpt lat="45.614263222356946" lon="10.549969964732941"><ele>73.0</ele><time>2026-03-28T19:08:21Z</time></trkpt><trkpt lat="45.6142820252696" lon="10.550159497335985"><ele>73.0</ele><time>2026-03-28T19:08:22Z</time></trkpt><trkpt lat="45.614313221168565" lon="10.550328796649216"><ele>73.0</ele><time>2026-03-28T19:08:23Z</time></trkpt><trkpt lat="45.61434729567201" lon="10.550504010521866"><ele>73.0</ele><time>2026-03-28T19:08:24Z</time></trkpt><trkpt lat="45.614396896247676" lon="10.550647943680852"><ele>73.0</ele><time>2026-03-28T19:08:25Z</time></trkpt><trkpt lat="45.614430107359276" lon="10.550796616543726"><ele>72.75</ele><time>2026-03-28T19:08:26Z</time></trkpt><trkpt lat="45.614474150920984" lon="10.550951164377992"><ele>72.5</ele><time>2026-03-28T19:08:27Z</time></trkpt><trkpt lat="45.614527134502914" lon="10.551110831351128"><ele>72.25</ele><time>2026-03-28T19:08:28Z</time></trkpt><trkpt lat="45.614587658813726" lon="10.551272179933243"><ele>72.0</ele><time>2026-03-28T19:08:29Z</time></trkpt><trkpt lat="45.61465203649086" lon="10.551446510837081"><ele>73.0</ele><time>2026-03-28T19:08:30Z</time></trkpt><trkpt lat="45.61471613645235" lon="10.551611229779741"><ele>74.0</ele><time>2026-03-28T19:08:31Z</time></trkpt><trkpt lat="45.614779613010754" lon="10.551770936608785"><ele>75.0</ele><time>2026-03-28T19:08:32Z</time></trkpt><trkpt lat="45.61485384986909" lon="10.551941515092384"><ele>76.0</ele><time>2026-03-28T19:08:33Z</time></trkpt><trkpt lat="45.61491971626621" lon="10.552107605631814"><ele>76.0</ele><time>2026-03-28T19:08:34Z</time></trkpt><trkpt lat="45.61497682315001" lon="10.552262558906898"><ele>76.0</ele><time>2026-03-28T19:08:35Z</time></trkpt><trkpt lat="45.615042209422796" lon="10.552414306276322"><ele>76.0</ele><time>2026-03-28T19:08:36Z</time></trkpt><trkpt lat="45.615114043977435" lon="10.55257453439362"><ele>76.0</ele><time>2026-03-28T19:08:37Z</time></trkpt><trkpt lat="45.615183470501925" lon="10.552741366654192"><ele>75.5</ele><time>2026-03-28T19:08:38Z</time></trkpt><trkpt lat="45.615250774387775" lon="10.552906129534087"><ele>75.0</ele><time>2026-03-28T19:08:39Z</time></trkpt><trkpt lat="45.61532247506795" lon="10.553066714055918"><ele>74.5</ele><time>2026-03-28T19:08:40Z</time></trkpt><trkpt lat="45.61539160225252" lon="10.553231019503896"><ele>74.0</ele><time>2026-03-28T19:08:41Z</time></trkpt><trkpt lat="45.61545958636658" lon="10.553400530077255"><ele>75.75</ele><time>2026-03-28T19:08:42Z</time></trkpt><trkpt lat="45.61553461136881" lon="10.553571924269402"><ele>77.5</ele><time>2026-03-28T19:08:43Z</time></trkpt><trkpt lat="45.61561531099037" lon="10.55373750929192"><ele>79.25</ele><time>2026-03-28T19:08:44Z</time></trkpt><trkpt lat="45.615699298697294" lon="10.553910433670104"><ele>81.0</ele><time>2026-03-28T19:08:45Z</time></trkpt><trkpt lat="45.615766247278316" lon="10.554097670020056"><ele>81.0</ele><time>2026-03-28T19:08:46Z</time></trkpt><trkpt lat="45.61585156998238" lon="10.554275999180934"><ele>81.0</ele><time>2026-03-28T19:08:47Z</time></trkpt><trkpt lat="45.61593350468545" lon="10.554446652164037"><ele>81.0</ele><time>2026-03-28T19:08:48Z</time></trkpt><trkpt lat="45.61600687157825" lon="10.554602775286616"><ele>81.0</ele><time>2026-03-28T19:08:49Z</time></trkpt><trkpt lat="45.61608187805863" lon="10.554763973799105"><ele>80.0</ele><time>2026-03-28T19:08:50Z</time></trkpt><trkpt lat="45.61616165240702" lon="10.554934967806048"><ele>79.0</ele><time>2026-03-28T19:08:51Z</time></trkpt><trkpt lat="45.61623300614774" lon="10.555083584964757"><ele>78.0</ele><time>2026-03-28T19:08:52Z</time></trkpt><trkpt lat="45.61630626136674" lon="10.555229030694173"><ele>77.0</ele><time>2026-03-28T19:08:53Z</time></trkpt><trkpt lat="45.616383855270385" lon="10.555390592487976"><ele>77.0</ele><time>2026-03-28T19:08:54Z</time></trkpt><trkpt lat="45.61646081674556" lon="10.555549561703547"><ele>77.0</ele><time>2026-03-28T19:08:55Z</time></trkpt><trkpt lat="45.616533755913785" lon="10.555687826668079"><ele>77.0</ele><time>2026-03-28T19:08:56Z</time></trkpt><trkpt lat="45.6166059899428" lon="10.555819449912898"><ele>77.0</ele><time>2026-03-28T19:08:57Z</time></trkpt><trkpt lat="45.616669998108506" lon="10.55593551223034"><ele>77.0</ele><time>2026-03-28T19:08:58Z</time></trkpt><trkpt lat="45.61673249659588" lon="10.556061120201548"><ele>77.0</ele><time>2026-03-28T19:08:59Z</time></trkpt><trkpt lat="45.61679770503736" lon="10.556178905994287"><ele>77.0</ele><time>2026-03-28T19:09:00Z</time></trkpt><trkpt lat="45.6168578576648" lon="10.556292161480679"><ele>77.0</ele><time>2026-03-28T19:09:01Z</time></trkpt><trkpt lat="45.61692733333744" lon="10.556396520186064"><ele>77.0</ele><time>2026-03-28T19:09:02Z</time></trkpt><trkpt lat="45.616979910134205" lon="10.556491718339554"><ele>77.4</ele><time>2026-03-28T19:09:03Z</time></trkpt><trkpt lat="45.61701840084439" lon="10.556604215462642"><ele>77.80000000000001</ele><time>2026-03-28T19:09:04Z</time></trkpt><trkpt lat="45.61706900756928" lon="10.556700618682546"><ele>78.2</ele><time>2026-03-28T19:09:05Z</time></trkpt><trkpt lat="45.617124968679654" lon="10.556805225887143"><ele>78.60000000000001</ele><time>2026-03-28T19:09:06Z</time></trkpt><trkpt lat="45.61719881027255" lon="10.556908215710486"><ele>79.0</ele><time>2026-03-28T19:09:07Z</time></trkpt><trkpt lat="45.61725639513916" lon="10.55703926519515"><ele>79.0</ele><time>2026-03-28T19:09:08Z</time></trkpt><trkpt lat="45.617330628929146" lon="10.55716005164099"><ele>79.0</ele><time>2026-03-28T19:09:09Z</time></trkpt><trkpt lat="45.61739940088984" lon="10.557284356697489"><ele>79.0</ele><time>2026-03-28T19:09:10Z</time></trkpt><trkpt lat="45.61745807471392" lon="10.557423438684042"><ele>79.0</ele><time>2026-03-28T19:09:11Z</time></trkpt><trkpt lat="45.61752490842004" lon="10.55755452533562"><ele>79.0</ele><time>2026-03-28T19:09:12Z</time></trkpt><trkpt lat="45.61759776478938" lon="10.557686969322935"><ele>79.0</ele><time>2026-03-28T19:09:13Z</time></trkpt><trkpt lat="45.61766624703797" lon="10.557813911412882"><ele>79.0</ele><time>2026-03-28T19:09:14Z</time></trkpt><trkpt lat="45.61772545235159" lon="10.557919432750397"><ele>79.0</ele><time>2026-03-28T19:09:15Z</time></trkpt><trkpt lat="45.61778115225121" lon="10.558030589043463"><ele>79.0</ele><time>2026-03-28T19:09:16Z</time></trkpt><trkpt lat="45.61784176014538" lon="10.558145412052651"><ele>79.4</ele><time>2026-03-28T19:09:17Z</time></trkpt><trkpt lat="45.61789851343511" lon="10.558259723193308"><ele>79.80000000000001</ele><time>2026-03-28T19:09:18Z</time></trkpt><trkpt lat="45.617942293618576" lon="10.558363450808214"><ele>80.19999999999999</ele><time>2026-03-28T19:09:19Z</time></trkpt><trkpt lat="45.61796634783583" lon="10.558493544297143"><ele>80.6</ele><time>2026-03-28T19:09:20Z</time></trkpt><trkpt lat="45.61801892754985" lon="10.55861882971278"><ele>81.0</ele><time>2026-03-28T19:09:21Z</time></trkpt><trkpt lat="45.618055168035326" lon="10.558771256185647"><ele>79.75</ele><time>2026-03-28T19:09:22Z</time></trkpt><trkpt lat="45.618086535533344" lon="10.558927004311814"><ele>78.5</ele><time>2026-03-28T19:09:23Z</time></trkpt><trkpt lat="45.61812063064204" lon="10.559095274697203"><ele>77.25</ele><time>2026-03-28T19:09:24Z</time></trkpt><trkpt lat="45.61812444816999" lon="10.559254916554858"><ele>76.0</ele><time>2026-03-28T19:09:25Z</time></trkpt><trkpt lat="45.618152848071865" lon="10.559396434341803"><ele>75.5</ele><time>2026-03-28T19:09:26Z</time></trkpt><trkpt lat="45.618180486915406" lon="10.559543583082283"><ele>75.0</ele><time>2026-03-28T19:09:27Z</time></trkpt><trkpt lat="45.61820934447962" lon="10.559697220284594"><ele>74.5</ele><time>2026-03-28T19:09:28Z</time></trkpt><trkpt lat="45.61823942744333" lon="10.55985315917932"><ele>74.0</ele><time>2026-03-28T19:09:29Z</time></trkpt><trkpt lat="45.618272596787804" lon="10.56002267323295"><ele>74.0</ele><time>2026-03-28T19:09:30Z</time></trkpt><trkpt lat="45.61830587530288" lon="10.560192745195534"><ele>74.0</ele><time>2026-03-28T19:09:31Z</time></trkpt><trkpt lat="45.618340355202484" lon="10.560369245480985"><ele>74.0</ele><time>2026-03-28T19:09:32Z</time></trkpt><trkpt lat="45.61837340196019" lon="10.56054107350022"><ele>74.0</ele><time>2026-03-28T19:09:33Z</time></trkpt><trkpt lat="45.61840657225724" lon="10.560713543828312"><ele>73.8</ele><time>2026-03-28T19:09:34Z</time></trkpt><trkpt lat="45.61843946379743" lon="10.560882570701855"><ele>73.60000000000001</ele><time>2026-03-28T19:09:35Z</time></trkpt><trkpt lat="45.61846889452365" lon="10.561033175435593"><ele>73.4</ele><time>2026-03-28T19:09:36Z</time></trkpt><trkpt lat="45.618514007443785" lon="10.561154228702401"><ele>73.2</ele><time>2026-03-28T19:09:37Z</time></trkpt><trkpt lat="45.61853707765698" lon="10.561291713606906"><ele>73.0</ele><time>2026-03-28T19:09:38Z</time></trkpt><trkpt lat="45.618562498941316" lon="10.561443584979157"><ele>72.75</ele><time>2026-03-28T19:09:39Z</time></trkpt><trkpt lat="45.618592072795074" lon="10.561601442090703"><ele>72.5</ele><time>2026-03-28T19:09:40Z</time></trkpt><trkpt lat="45.61862382653897" lon="10.561768053635921"><ele>72.25</ele><time>2026-03-28T19:09:41Z</time></trkpt><trkpt lat="45.618654870541945" lon="10.561939731334185"><ele>72.0</ele><time>2026-03-28T19:09:42Z</time></trkpt><trkpt lat="45.61868974734544" lon="10.562111588324367"><ele>74.0</ele><time>2026-03-28T19:09:43Z</time></trkpt><trkpt lat="45.61872573559396" lon="10.56228812311041"><ele>76.0</ele><time>2026-03-28T19:09:44Z</time></trkpt><trkpt lat="45.61877255735422" lon="10.56246507161213"><ele>78.0</ele><time>2026-03-28T19:09:45Z</time></trkpt><trkpt lat="45.61879856651712" lon="10.562654006679368"><ele>80.0</ele><time>2026-03-28T19:09:46Z</time></trkpt><trkpt lat="45.61883562931431" lon="10.562840032872442"><ele>79.0</ele><time>2026-03-28T19:09:47Z</time></trkpt><trkpt lat="45.61885950336629" lon="10.563032694733417"><ele>78.0</ele><time>2026-03-28T19:09:48Z</time></trkpt><trkpt lat="45.618913108041916" lon="10.563219937858479"><ele>77.0</ele><time>2026-03-28T19:09:49Z</time></trkpt><trkpt lat="45.61896447597971" lon="10.56340462868518"><ele>76.0</ele><time>2026-03-28T19:09:50Z</time></trkpt><trkpt lat="45.619025553612246" lon="10.563586809415785"><ele>75.39999999999999</ele><time>2026-03-28T19:09:51Z</time></trkpt><trkpt lat="45.61907506817244" lon="10.56374039425294"><ele>74.8</ele><time>2026-03-28T19:09:52Z</time></trkpt><trkpt lat="45.61912891288637" lon="10.563879438533313"><ele>74.19999999999999</ele><time>2026-03-28T19:09:53Z</time></trkpt><trkpt lat="45.61916242525639" lon="10.564029848267506"><ele>73.6</ele><time>2026-03-28T19:09:54Z</time></trkpt><trkpt lat="45.61921199806936" lon="10.564132156093796"><ele>73.0</ele><time>2026-03-28T19:09:55Z</time></trkpt><trkpt lat="45.61923673131423" lon="10.564261346124853"><ele>73.0</ele><time>2026-03-28T19:09:56Z</time></trkpt><trkpt lat="45.61927916807029" lon="10.564390089499542"><ele>73.0</ele><time>2026-03-28T19:09:57Z</time></trkpt><trkpt lat="45.61932233201362" lon="10.564524003668767"><ele>73.0</ele><time>2026-03-28T19:09:58Z</time></trkpt><trkpt lat="45.619374813858045" lon="10.564664491410397"><ele>73.0</ele><time>2026-03-28T19:09:59Z</time></trkpt><trkpt lat="45.61942784191933" lon="10.56480306411404"><ele>73.0</ele><time>2026-03-28T19:10:00Z</time></trkpt><trkpt lat="45.619497062564484" lon="10.564928425278291"><ele>73.5</ele><time>2026-03-28T19:10:01Z</time></trkpt><trkpt lat="45.6195835374493" lon="10.565048930203696"><ele>74.0</ele><time>2026-03-28T19:10:02Z</time></trkpt><trkpt lat="45.61966147239929" lon="10.565182792097541"><ele>74.5</ele><time>2026-03-28T19:10:03Z</time></trkpt><trkpt lat="45.619748071441215" lon="10.565310729092506"><ele>75.0</ele><time>2026-03-28T19:10:04Z</time></trkpt><trkpt lat="45.619834044131174" lon="10.565445721997435"><ele>73.5</ele><time>2026-03-28T19:10:05Z</time></trkpt><trkpt lat="45.6199216520417" lon="10.565579319325641"><ele>72.0</ele><time>2026-03-28T19:10:06Z</time></trkpt><trkpt lat="45.6200141788281" lon="10.565716055350643"><ele>70.5</ele><time>2026-03-28T19:10:07Z</time></trkpt><trkpt lat="45.620105086467525" lon="10.565846954787972"><ele>69.0</ele><time>2026-03-28T19:10:08Z</time></trkpt><trkpt lat="45.62019824488714" lon="10.565972629665456"><ele>69.0</ele><time>2026-03-28T19:10:09Z</time></trkpt><trkpt lat="45.62028991912045" lon="10.56610486186288"><ele>69.0</ele><time>2026-03-28T19:10:10Z</time></trkpt><trkpt lat="45.620377158154994" lon="10.566218864512956"><ele>69.0</ele><time>2026-03-28T19:10:11Z</time></trkpt><trkpt lat="45.62045509547303" lon="10.566347777707493"><ele>69.0</ele><time>2026-03-28T19:10:12Z</time></trkpt><trkpt lat="45.620539541766426" lon="10.566471534671926"><ele>70.5</ele><time>2026-03-28T19:10:13Z</time></trkpt><trkpt lat="45.620629056626754" lon="10.566593551548817"><ele>72.0</ele><time>2026-03-28T19:10:14Z</time></trkpt><trkpt lat="45.620709346988896" lon="10.566714723597228"><ele>73.5</ele><time>2026-03-28T19:10:15Z</time></trkpt><trkpt lat="45.62079080141296" lon="10.566839201243715"><ele>75.0</ele><time>2026-03-28T19:10:16Z</time></trkpt><trkpt lat="45.620875299615655" lon="10.566961601876342"><ele>73.0</ele><time>2026-03-28T19:10:17Z</time></trkpt><trkpt lat="45.62095838146895" lon="10.567077275725623"><ele>71.0</ele><time>2026-03-28T19:10:18Z</time></trkpt><trkpt lat="45.62104657776749" lon="10.567193285081169"><ele>69.0</ele><time>2026-03-28T19:10:19Z</time></trkpt><trkpt lat="45.62111713633367" lon="10.567318331117955"><ele>67.0</ele><time>2026-03-28T19:10:20Z</time></trkpt><trkpt lat="45.62119302914683" lon="10.567432734299283"><ele>69.25</ele><time>2026-03-28T19:10:21Z</time></trkpt><trkpt lat="45.621271785419665" lon="10.56756016340262"><ele>71.5</ele><time>2026-03-28T19:10:22Z</time></trkpt><trkpt lat="45.621363685866974" lon="10.567706829634897"><ele>73.75</ele><time>2026-03-28T19:10:23Z</time></trkpt><trkpt lat="45.62145139735405" lon="10.567849973649153"><ele>76.0</ele><time>2026-03-28T19:10:24Z</time></trkpt><trkpt lat="45.621523031202784" lon="10.56800829682493"><ele>76.0</ele><time>2026-03-28T19:10:25Z</time></trkpt><trkpt lat="45.621614845966405" lon="10.56816536417399"><ele>76.0</ele><time>2026-03-28T19:10:26Z</time></trkpt><trkpt lat="45.62168682765647" lon="10.568288503262163"><ele>76.0</ele><time>2026-03-28T19:10:27Z</time></trkpt><trkpt lat="45.621747538187726" lon="10.568395053971646"><ele>76.0</ele><time>2026-03-28T19:10:28Z</time></trkpt><trkpt lat="45.621808144181" lon="10.56850773118093"><ele>76.0</ele><time>2026-03-28T19:10:29Z</time></trkpt><trkpt lat="45.621867342528745" lon="10.56862820751025"><ele>76.0</ele><time>2026-03-28T19:10:30Z</time></trkpt><trkpt lat="45.62192198693948" lon="10.568753462474229"><ele>76.0</ele><time>2026-03-28T19:10:31Z</time></trkpt><trkpt lat="45.621975845676815" lon="10.568884290912457"><ele>76.0</ele><time>2026-03-28T19:10:32Z</time></trkpt><trkpt lat="45.62202697380027" lon="10.56901514834955"><ele>76.0</ele><time>2026-03-28T19:10:33Z</time></trkpt><trkpt lat="45.62207678415462" lon="10.56914265407791"><ele>75.8</ele><time>2026-03-28T19:10:34Z</time></trkpt><trkpt lat="45.622127720275046" lon="10.569273303673281"><ele>75.6</ele><time>2026-03-28T19:10:35Z</time></trkpt><trkpt lat="45.622180616584934" lon="10.569408980441676"><ele>75.4</ele><time>2026-03-28T19:10:36Z</time></trkpt><trkpt lat="45.6222348779813" lon="10.569543373532918"><ele>75.2</ele><time>2026-03-28T19:10:37Z</time></trkpt><trkpt lat="45.62231442835583" lon="10.569671855245188"><ele>75.0</ele><time>2026-03-28T19:10:38Z</time></trkpt><trkpt lat="45.62238181919415" lon="10.569816634291456"><ele>75.0</ele><time>2026-03-28T19:10:39Z</time></trkpt><trkpt lat="45.62245886610296" lon="10.569960691971788"><ele>75.0</ele><time>2026-03-28T19:10:40Z</time></trkpt><trkpt lat="45.62253764625776" lon="10.570112784698873"><ele>75.0</ele><time>2026-03-28T19:10:41Z</time></trkpt><trkpt lat="45.62260858851409" lon="10.570240795962421"><ele>75.0</ele><time>2026-03-28T19:10:42Z</time></trkpt><trkpt lat="45.62268477633632" lon="10.57037112514921"><ele>73.5</ele><time>2026-03-28T19:10:43Z</time></trkpt><trkpt lat="45.62276831072895" lon="10.570498681143153"><ele>72.0</ele><time>2026-03-28T19:10:44Z</time></trkpt><trkpt lat="45.62286103649244" lon="10.570618409113196"><ele>70.5</ele><time>2026-03-28T19:10:45Z</time></trkpt><trkpt lat="45.62295967585717" lon="10.570730902361243"><ele>69.0</ele><time>2026-03-28T19:10:46Z</time></trkpt><trkpt lat="45.6230708849283" lon="10.57083787503852"><ele>70.5</ele><time>2026-03-28T19:10:47Z</time></trkpt><trkpt lat="45.62317797159665" lon="10.570944947315391"><ele>72.0</ele><time>2026-03-28T19:10:48Z</time></trkpt><trkpt lat="45.623289076094785" lon="10.571048862528272"><ele>73.5</ele><time>2026-03-28T19:10:49Z</time></trkpt><trkpt lat="45.623390644489895" lon="10.571174052047576"><ele>75.0</ele><time>2026-03-28T19:10:50Z</time></trkpt><trkpt lat="45.62347229930226" lon="10.571298821955455"><ele>75.0</ele><time>2026-03-28T19:10:51Z</time></trkpt><trkpt lat="45.623537311767834" lon="10.571437924465181"><ele>75.0</ele><time>2026-03-28T19:10:52Z</time></trkpt><trkpt lat="45.62361196110346" lon="10.571573681476664"><ele>75.0</ele><time>2026-03-28T19:10:53Z</time></trkpt><trkpt lat="45.623677107267795" lon="10.571721248529062"><ele>75.0</ele><time>2026-03-28T19:10:54Z</time></trkpt><trkpt lat="45.62373517129833" lon="10.571872303534368"><ele>76.75</ele><time>2026-03-28T19:10:54.999Z</time></trkpt><trkpt lat="45.623790806860725" lon="10.572037422922888"><ele>78.5</ele><time>2026-03-28T19:10:55.999Z</time></trkpt><trkpt lat="45.6238432507604" lon="10.572196700617114"><ele>80.25</ele><time>2026-03-28T19:10:56.999Z</time></trkpt><trkpt lat="45.62388702895512" lon="10.572335523882105"><ele>82.0</ele><time>2026-03-28T19:10:57.999Z</time></trkpt><trkpt lat="45.62396677931252" lon="10.572593597158374"><ele>82.0</ele><time>2026-03-28T19:10:59.999Z</time></trkpt><trkpt lat="45.624007715743396" lon="10.57272730395085"><ele>82.0</ele><time>2026-03-28T19:11:00.999Z</time></trkpt><trkpt lat="45.62406472053622" lon="10.572857300557029"><ele>82.0</ele><time>2026-03-28T19:11:01.999Z</time></trkpt><trkpt lat="45.624110549868455" lon="10.572996213638994"><ele>82.0</ele><time>2026-03-28T19:11:02.999Z</time></trkpt><trkpt lat="45.62416102359435" lon="10.573133529893314"><ele>82.0</ele><time>2026-03-28T19:11:04Z</time></trkpt><trkpt lat="45.62422575356229" lon="10.573266843942331"><ele>82.0</ele><time>2026-03-28T19:11:05Z</time></trkpt><trkpt lat="45.624292424064826" lon="10.573408340771552"><ele>82.0</ele><time>2026-03-28T19:11:06Z</time></trkpt><trkpt lat="45.62436389505148" lon="10.57354337110231"><ele>82.0</ele><time>2026-03-28T19:11:07Z</time></trkpt><trkpt lat="45.624436806138014" lon="10.573673121872677"><ele>82.0</ele><time>2026-03-28T19:11:08Z</time></trkpt><trkpt lat="45.62451959241848" lon="10.57379519636316"><ele>82.0</ele><time>2026-03-28T19:11:09Z</time></trkpt><trkpt lat="45.62460551286555" lon="10.573906271298526"><ele>82.0</ele><time>2026-03-28T19:11:10Z</time></trkpt><trkpt lat="45.62469725330686" lon="10.574010039302484"><ele>82.0</ele><time>2026-03-28T19:11:11Z</time></trkpt><trkpt lat="45.62478903237306" lon="10.57411669690306"><ele>82.0</ele><time>2026-03-28T19:11:12Z</time></trkpt><trkpt lat="45.62488314100263" lon="10.574222003747709"><ele>82.0</ele><time>2026-03-28T19:11:13Z</time></trkpt><trkpt lat="45.624978783676134" lon="10.574323489455338"><ele>82.0</ele><time>2026-03-28T19:11:14Z</time></trkpt><trkpt lat="45.62504457078953" lon="10.574449698431547"><ele>82.0</ele><time>2026-03-28T19:11:15Z</time></trkpt><trkpt lat="45.62512084448793" lon="10.574567890447264"><ele>82.0</ele><time>2026-03-28T19:11:16Z</time></trkpt><trkpt lat="45.6251950292848" lon="10.5747001848226"><ele>79.5</ele><time>2026-03-28T19:11:17Z</time></trkpt><trkpt lat="45.625265028646524" lon="10.574833290895725"><ele>77.0</ele><time>2026-03-28T19:11:18Z</time></trkpt><trkpt lat="45.62532852240425" lon="10.574980540395758"><ele>74.5</ele><time>2026-03-28T19:11:19Z</time></trkpt><trkpt lat="45.62537226965361" lon="10.57514559831505"><ele>72.0</ele><time>2026-03-28T19:11:20Z</time></trkpt><trkpt lat="45.62543161534107" lon="10.57529749883782"><ele>75.75</ele><time>2026-03-28T19:11:21Z</time></trkpt><trkpt lat="45.62548204626304" lon="10.57545658809751"><ele>79.5</ele><time>2026-03-28T19:11:22Z</time></trkpt><trkpt lat="45.6255267681062" lon="10.575600352683788"><ele>83.25</ele><time>2026-03-28T19:11:23Z</time></trkpt><trkpt lat="45.62557058397253" lon="10.575749174225603"><ele>87.0</ele><time>2026-03-28T19:11:24Z</time></trkpt><trkpt lat="45.62561112675959" lon="10.575899689093955"><ele>87.0</ele><time>2026-03-28T19:11:25Z</time></trkpt><trkpt lat="45.6256407227353" lon="10.57606271481255"><ele>87.0</ele><time>2026-03-28T19:11:26Z</time></trkpt><trkpt lat="45.625681992421896" lon="10.576223455807517"><ele>87.0</ele><time>2026-03-28T19:11:27Z</time></trkpt><trkpt lat="45.62572195390889" lon="10.576367831567742"><ele>87.0</ele><time>2026-03-28T19:11:28Z</time></trkpt><trkpt lat="45.62575387313044" lon="10.576499479351753"><ele>87.0</ele><time>2026-03-28T19:11:29Z</time></trkpt><trkpt lat="45.6257874181866" lon="10.576625172733474"><ele>85.8</ele><time>2026-03-28T19:11:30Z</time></trkpt><trkpt lat="45.62582400645471" lon="10.576767330891657"><ele>84.6</ele><time>2026-03-28T19:11:31Z</time></trkpt><trkpt lat="45.62584123625212" lon="10.57691304599931"><ele>83.39999999999999</ele><time>2026-03-28T19:11:32Z</time></trkpt><trkpt lat="45.625874073510886" lon="10.577056860508229"><ele>82.19999999999999</ele><time>2026-03-28T19:11:33Z</time></trkpt><trkpt lat="45.625901777698616" lon="10.577204908284571"><ele>81.0</ele><time>2026-03-28T19:11:34Z</time></trkpt><trkpt lat="45.62592447088213" lon="10.577355019132604"><ele>80.39999999999999</ele><time>2026-03-28T19:11:35Z</time></trkpt><trkpt lat="45.625944103971" lon="10.577511246020618"><ele>79.8</ele><time>2026-03-28T19:11:36Z</time></trkpt><trkpt lat="45.625965909318715" lon="10.577675207956094"><ele>79.19999999999999</ele><time>2026-03-28T19:11:37Z</time></trkpt><trkpt lat="45.62598738137717" lon="10.577832733188929"><ele>78.6</ele><time>2026-03-28T19:11:38Z</time></trkpt><trkpt lat="45.62600472607847" lon="10.577975659681714"><ele>78.0</ele><time>2026-03-28T19:11:39Z</time></trkpt><trkpt lat="45.626022979233824" lon="10.578124624863378"><ele>77.2</ele><time>2026-03-28T19:11:40Z</time></trkpt><trkpt lat="45.62604087478622" lon="10.578265030735464"><ele>76.4</ele><time>2026-03-28T19:11:41Z</time></trkpt><trkpt lat="45.626057826917176" lon="10.578411080232836"><ele>75.60000000000001</ele><time>2026-03-28T19:11:42Z</time></trkpt><trkpt lat="45.626074867480234" lon="10.57856157709685"><ele>74.8</ele><time>2026-03-28T19:11:43Z</time></trkpt><trkpt lat="45.626092922993216" lon="10.578721038419598"><ele>74.0</ele><time>2026-03-28T19:11:44Z</time></trkpt><trkpt lat="45.62610918617344" lon="10.578881395113072"><ele>73.5</ele><time>2026-03-28T19:11:45Z</time></trkpt><trkpt lat="45.626123621611555" lon="10.579051345284913"><ele>73.0</ele><time>2026-03-28T19:11:46Z</time></trkpt><trkpt lat="45.62613543027683" lon="10.57922386176539"><ele>72.5</ele><time>2026-03-28T19:11:47Z</time></trkpt><trkpt lat="45.62614471242176" lon="10.579394121641053"><ele>72.0</ele><time>2026-03-28T19:11:48Z</time></trkpt><trkpt lat="45.62617989735299" lon="10.579573875589883"><ele>76.5</ele><time>2026-03-28T19:11:49Z</time></trkpt><trkpt lat="45.62619040700628" lon="10.579752471036821"><ele>81.0</ele><time>2026-03-28T19:11:50Z</time></trkpt><trkpt lat="45.62619171529731" lon="10.579919026833863"><ele>85.5</ele><time>2026-03-28T19:11:51Z</time></trkpt><trkpt lat="45.62619369757735" lon="10.58008123199778"><ele>90.0</ele><time>2026-03-28T19:11:52Z</time></trkpt><trkpt lat="45.626154888104686" lon="10.58024404313327"><ele>88.75</ele><time>2026-03-28T19:11:53Z</time></trkpt><trkpt lat="45.626199092751555" lon="10.580408323596352"><ele>87.5</ele><time>2026-03-28T19:11:54Z</time></trkpt><trkpt lat="45.626200818122555" lon="10.580571541531246"><ele>86.25</ele><time>2026-03-28T19:11:55Z</time></trkpt><trkpt lat="45.62619891321958" lon="10.580729678621633"><ele>85.0</ele><time>2026-03-28T19:11:56Z</time></trkpt><trkpt lat="45.62620275099678" lon="10.580883620085174"><ele>85.0</ele><time>2026-03-28T19:11:57Z</time></trkpt><trkpt lat="45.62615675808034" lon="10.581039772135421"><ele>85.0</ele><time>2026-03-28T19:11:58Z</time></trkpt><trkpt lat="45.62615849100012" lon="10.581199155854492"><ele>85.0</ele><time>2026-03-28T19:11:59Z</time></trkpt><trkpt lat="45.62616064869653" lon="10.581347383003777"><ele>85.0</ele><time>2026-03-28T19:12:00Z</time></trkpt><trkpt lat="45.62616241727626" lon="10.58146887910024"><ele>85.0</ele><time>2026-03-28T19:12:01Z</time></trkpt><trkpt lat="45.626164120846624" lon="10.581598466266227"><ele>85.0</ele><time>2026-03-28T19:12:02Z</time></trkpt><trkpt lat="45.62623827819447" lon="10.581738734945391"><ele>85.0</ele><time>2026-03-28T19:12:03Z</time></trkpt><trkpt lat="45.62623134550927" lon="10.58188130900252"><ele>85.0</ele><time>2026-03-28T19:12:04Z</time></trkpt><trkpt lat="45.62622900512418" lon="10.582032016148448"><ele>85.0</ele><time>2026-03-28T19:12:05Z</time></trkpt><trkpt lat="45.62622828647448" lon="10.582181676348208"><ele>85.0</ele><time>2026-03-28T19:12:06Z</time></trkpt><trkpt lat="45.62616731000472" lon="10.58233529956675"><ele>85.0</ele><time>2026-03-28T19:12:07Z</time></trkpt><trkpt lat="45.626166655979254" lon="10.582491147739217"><ele>85.0</ele><time>2026-03-28T19:12:08Z</time></trkpt><trkpt lat="45.626164498584885" lon="10.582651266283468"><ele>85.0</ele><time>2026-03-28T19:12:09Z</time></trkpt><trkpt lat="45.626158275555376" lon="10.582799727834216"><ele>85.0</ele><time>2026-03-28T19:12:10Z</time></trkpt><trkpt lat="45.62618643296981" lon="10.582949196912312"><ele>85.0</ele><time>2026-03-28T19:12:11Z</time></trkpt><trkpt lat="45.62617380781139" lon="10.583102276733205"><ele>85.5</ele><time>2026-03-28T19:12:12Z</time></trkpt><trkpt lat="45.62615001975263" lon="10.583254570912334"><ele>86.0</ele><time>2026-03-28T19:12:13Z</time></trkpt><trkpt lat="45.626122966741185" lon="10.583410339022526"><ele>86.5</ele><time>2026-03-28T19:12:14Z</time></trkpt><trkpt lat="45.626102609861846" lon="10.58356891897416"><ele>87.0</ele><time>2026-03-28T19:12:15Z</time></trkpt><trkpt lat="45.62607653539302" lon="10.583736249057095"><ele>83.75</ele><time>2026-03-28T19:12:16Z</time></trkpt><trkpt lat="45.626035694799285" lon="10.583909028677327"><ele>80.5</ele><time>2026-03-28T19:12:17Z</time></trkpt><trkpt lat="45.62603160692421" lon="10.584088984842916"><ele>77.25</ele><time>2026-03-28T19:12:18Z</time></trkpt><trkpt lat="45.626023753660725" lon="10.584272428229951"><ele>74.0</ele><time>2026-03-28T19:12:19Z</time></trkpt><trkpt lat="45.62602630473539" lon="10.584457407540134"><ele>73.75</ele><time>2026-03-28T19:12:20Z</time></trkpt><trkpt lat="45.62605012890923" lon="10.584642669760857"><ele>73.5</ele><time>2026-03-28T19:12:21Z</time></trkpt><trkpt lat="45.62609785328801" lon="10.584819778373904"><ele>73.25</ele><time>2026-03-28T19:12:22Z</time></trkpt><trkpt lat="45.626165947546525" lon="10.584994529910809"><ele>73.0</ele><time>2026-03-28T19:12:23Z</time></trkpt><trkpt lat="45.626250684254096" lon="10.585157484499112"><ele>74.25</ele><time>2026-03-28T19:12:24Z</time></trkpt><trkpt lat="45.62634280816919" lon="10.585314159033965"><ele>75.5</ele><time>2026-03-28T19:12:25Z</time></trkpt><trkpt lat="45.62643977822075" lon="10.585477798533242"><ele>76.75</ele><time>2026-03-28T19:12:26Z</time></trkpt><trkpt lat="45.626549557340326" lon="10.585588028691422"><ele>78.0</ele><time>2026-03-28T19:12:27Z</time></trkpt><trkpt lat="45.62666037748009" lon="10.58568823880339"><ele>78.0</ele><time>2026-03-28T19:12:28Z</time></trkpt><trkpt lat="45.626771129052706" lon="10.585784274917524"><ele>78.0</ele><time>2026-03-28T19:12:29Z</time></trkpt><trkpt lat="45.62688519515847" lon="10.58587783098752"><ele>78.0</ele><time>2026-03-28T19:12:30Z</time></trkpt><trkpt lat="45.626993231098076" lon="10.585976086469135"><ele>78.0</ele><time>2026-03-28T19:12:31Z</time></trkpt><trkpt lat="45.62710193509949" lon="10.586081486098955"><ele>77.5</ele><time>2026-03-28T19:12:32Z</time></trkpt><trkpt lat="45.62721304043807" lon="10.586180575552218"><ele>77.0</ele><time>2026-03-28T19:12:33Z</time></trkpt><trkpt lat="45.627329517840494" lon="10.586282740638438"><ele>76.5</ele><time>2026-03-28T19:12:34Z</time></trkpt><trkpt lat="45.62743778412051" lon="10.586382582669577"><ele>76.0</ele><time>2026-03-28T19:12:35Z</time></trkpt><trkpt lat="45.6275518150509" lon="10.586484401999533"><ele>76.0</ele><time>2026-03-28T19:12:36Z</time></trkpt><trkpt lat="45.627670710992284" lon="10.586592124874427"><ele>76.0</ele><time>2026-03-28T19:12:37Z</time></trkpt><trkpt lat="45.62779295752053" lon="10.586671575954387"><ele>76.0</ele><time>2026-03-28T19:12:38Z</time></trkpt><trkpt lat="45.627917598356404" lon="10.586710330297327"><ele>76.0</ele><time>2026-03-28T19:12:39Z</time></trkpt><trkpt lat="45.6280512317323" lon="10.586717859136396"><ele>75.75</ele><time>2026-03-28T19:12:40Z</time></trkpt><trkpt lat="45.6281893182065" lon="10.586693166239566"><ele>75.5</ele><time>2026-03-28T19:12:41Z</time></trkpt><trkpt lat="45.62831967603246" lon="10.58667581955297"><ele>75.25</ele><time>2026-03-28T19:12:42Z</time></trkpt><trkpt lat="45.6284395296195" lon="10.586668158433566"><ele>75.0</ele><time>2026-03-28T19:12:43Z</time></trkpt><trkpt lat="45.62856040225446" lon="10.586666731604122"><ele>75.4</ele><time>2026-03-28T19:12:44Z</time></trkpt><trkpt lat="45.62867805602893" lon="10.586661618369272"><ele>75.8</ele><time>2026-03-28T19:12:45Z</time></trkpt><trkpt lat="45.62879203044627" lon="10.586687467491354"><ele>76.2</ele><time>2026-03-28T19:12:46Z</time></trkpt><trkpt lat="45.62889005634877" lon="10.586661886818066"><ele>76.6</ele><time>2026-03-28T19:12:47Z</time></trkpt><trkpt lat="45.62900165474233" lon="10.586657624791236"><ele>77.0</ele><time>2026-03-28T19:12:48Z</time></trkpt><trkpt lat="45.6291101891022" lon="10.586650293958524"><ele>77.0</ele><time>2026-03-28T19:12:49Z</time></trkpt><trkpt lat="45.629224861224245" lon="10.586652018573076"><ele>77.0</ele><time>2026-03-28T19:12:50Z</time></trkpt><trkpt lat="45.629332499039556" lon="10.586665736300814"><ele>77.0</ele><time>2026-03-28T19:12:51Z</time></trkpt><trkpt lat="45.62944194786421" lon="10.5866941712481"><ele>77.0</ele><time>2026-03-28T19:12:52Z</time></trkpt><trkpt lat="45.62955060250216" lon="10.5867283435407"><ele>77.0</ele><time>2026-03-28T19:12:53Z</time></trkpt><trkpt lat="45.6296666829774" lon="10.58679665426495"><ele>77.75</ele><time>2026-03-28T19:12:54Z</time></trkpt><trkpt lat="45.62977375345044" lon="10.586882479206555"><ele>78.5</ele><time>2026-03-28T19:12:55Z</time></trkpt><trkpt lat="45.629871500086985" lon="10.587007793158728"><ele>79.25</ele><time>2026-03-28T19:12:56Z</time></trkpt><trkpt lat="45.62997573659602" lon="10.587129763451655"><ele>80.0</ele><time>2026-03-28T19:12:57Z</time></trkpt><trkpt lat="45.63007983422905" lon="10.587251825761337"><ele>80.0</ele><time>2026-03-28T19:12:58Z</time></trkpt><trkpt lat="45.630193557080524" lon="10.587387078791012"><ele>80.0</ele><time>2026-03-28T19:12:59Z</time></trkpt><trkpt lat="45.6303138572822" lon="10.587538309100061"><ele>80.0</ele><time>2026-03-28T19:13:00Z</time></trkpt><trkpt lat="45.63041847866372" lon="10.587718437046284"><ele>78.66666666666667</ele><time>2026-03-28T19:13:01Z</time></trkpt><trkpt lat="45.63053917448211" lon="10.587894529902005"><ele>77.33333333333333</ele><time>2026-03-28T19:13:02Z</time></trkpt><trkpt lat="45.63065515145094" lon="10.588063738120505"><ele>76.0</ele><time>2026-03-28T19:13:03Z</time></trkpt><trkpt lat="45.630777552811736" lon="10.588210381885984"><ele>76.0</ele><time>2026-03-28T19:13:04Z</time></trkpt><trkpt lat="45.630878591864935" lon="10.588387804858844"><ele>76.0</ele><time>2026-03-28T19:13:05Z</time></trkpt><trkpt lat="45.63099549973503" lon="10.588557324805356"><ele>76.0</ele><time>2026-03-28T19:13:06Z</time></trkpt><trkpt lat="45.631125266288905" lon="10.588745226537556"><ele>81.0</ele><time>2026-03-28T19:13:07Z</time></trkpt><trkpt lat="45.63127774843402" lon="10.58898398075018"><ele>86.0</ele><time>2026-03-28T19:13:08Z</time></trkpt><trkpt lat="45.631434500758665" lon="10.589249740085553"><ele>81.0</ele><time>2026-03-28T19:13:09Z</time></trkpt><trkpt lat="45.631603552593" lon="10.589541266971548"><ele>76.0</ele><time>2026-03-28T19:13:10Z</time></trkpt><trkpt lat="45.63176429157687" lon="10.589825931606782"><ele>76.0</ele><time>2026-03-28T19:13:11Z</time></trkpt><trkpt lat="45.63191467085922" lon="10.590104137102642"><ele>76.0</ele><time>2026-03-28T19:13:12Z</time></trkpt><trkpt lat="45.63204874553153" lon="10.590376040744308"><ele>81.0</ele><time>2026-03-28T19:13:13Z</time></trkpt><trkpt lat="45.632164969158445" lon="10.59064508630251"><ele>86.0</ele><time>2026-03-28T19:13:14Z</time></trkpt><trkpt lat="45.6322627475683" lon="10.590889188435478"><ele>91.0</ele><time>2026-03-28T19:13:15Z</time></trkpt><trkpt lat="45.632366910343265" lon="10.591134967139096"><ele>85.0</ele><time>2026-03-28T19:13:16Z</time></trkpt><trkpt lat="45.63248539279281" lon="10.59135507904304"><ele>79.0</ele><time>2026-03-28T19:13:17Z</time></trkpt><trkpt lat="45.6325910698099" lon="10.591557011887666"><ele>73.0</ele><time>2026-03-28T19:13:18Z</time></trkpt><trkpt lat="45.63270158700446" lon="10.591725577855875"><ele>73.66666666666666</ele><time>2026-03-28T19:13:19Z</time></trkpt><trkpt lat="45.63283667714061" lon="10.591866386956584"><ele>74.33333333333333</ele><time>2026-03-28T19:13:20Z</time></trkpt><trkpt lat="45.63297482266555" lon="10.591987231983738"><ele>75.0</ele><time>2026-03-28T19:13:21Z</time></trkpt><trkpt lat="45.633101325212095" lon="10.592134543930902"><ele>75.0</ele><time>2026-03-28T19:13:22Z</time></trkpt><trkpt lat="45.63325478867799" lon="10.592344471585893"><ele>75.0</ele><time>2026-03-28T19:13:23Z</time></trkpt><trkpt lat="45.633346727680674" lon="10.592494896096598"><ele>75.0</ele><time>2026-03-28T19:13:24Z</time></trkpt><trkpt lat="45.63342518282814" lon="10.592671735378868"><ele>72.75</ele><time>2026-03-28T19:13:25Z</time></trkpt><trkpt lat="45.633514645052976" lon="10.592842165439299"><ele>70.5</ele><time>2026-03-28T19:13:26Z</time></trkpt><trkpt lat="45.63360143611693" lon="10.593008658334837"><ele>68.25</ele><time>2026-03-28T19:13:27Z</time></trkpt><trkpt lat="45.63368434462427" lon="10.593167732034152"><ele>66.0</ele><time>2026-03-28T19:13:28Z</time></trkpt><trkpt lat="45.63376667547341" lon="10.593325697395995"><ele>68.75</ele><time>2026-03-28T19:13:29Z</time></trkpt><trkpt lat="45.6338427789136" lon="10.593471714417424"><ele>71.5</ele><time>2026-03-28T19:13:30Z</time></trkpt><trkpt lat="45.63391964466871" lon="10.593619194118643"><ele>74.25</ele><time>2026-03-28T19:13:31Z</time></trkpt><trkpt lat="45.63400471098762" lon="10.593782083292362"><ele>77.0</ele><time>2026-03-28T19:13:32Z</time></trkpt><trkpt lat="45.63410251593596" lon="10.593967555230098"><ele>77.0</ele><time>2026-03-28T19:13:33Z</time></trkpt><trkpt lat="45.634237523957864" lon="10.594152014758897"><ele>77.0</ele><time>2026-03-28T19:13:34Z</time></trkpt><trkpt lat="45.634349418176846" lon="10.594373412437015"><ele>77.0</ele><time>2026-03-28T19:13:35Z</time></trkpt><trkpt lat="45.63444236750557" lon="10.59457132592528"><ele>84.5</ele><time>2026-03-28T19:13:36Z</time></trkpt><trkpt lat="45.63452801474142" lon="10.594749369386511"><ele>92.0</ele><time>2026-03-28T19:13:37Z</time></trkpt><trkpt lat="45.63460348350807" lon="10.594919838817582"><ele>99.5</ele><time>2026-03-28T19:13:38Z</time></trkpt><trkpt lat="45.6346773599335" lon="10.595071508017897"><ele>107.0</ele><time>2026-03-28T19:13:39Z</time></trkpt><trkpt lat="45.6347443074688" lon="10.595223778522396"><ele>99.75</ele><time>2026-03-28T19:13:40Z</time></trkpt><trkpt lat="45.63480324696956" lon="10.595372702139182"><ele>92.5</ele><time>2026-03-28T19:13:41Z</time></trkpt><trkpt lat="45.634863252052384" lon="10.595519521879732"><ele>85.25</ele><time>2026-03-28T19:13:42Z</time></trkpt><trkpt lat="45.63488787587031" lon="10.595671691761169"><ele>78.0</ele><time>2026-03-28T19:13:43Z</time></trkpt><trkpt lat="45.63493834511402" lon="10.595806474841096"><ele>78.0</ele><time>2026-03-28T19:13:44Z</time></trkpt><trkpt lat="45.635026978235544" lon="10.595929651718215"><ele>78.0</ele><time>2026-03-28T19:13:45Z</time></trkpt><trkpt lat="45.63508220168075" lon="10.596077289421235"><ele>78.0</ele><time>2026-03-28T19:13:46Z</time></trkpt><trkpt lat="45.63514457692121" lon="10.59622894673792"><ele>78.0</ele><time>2026-03-28T19:13:47Z</time></trkpt><trkpt lat="45.63521208823887" lon="10.596379236744898"><ele>76.5</ele><time>2026-03-28T19:13:48Z</time></trkpt><trkpt lat="45.63528419242153" lon="10.596530098703552"><ele>75.0</ele><time>2026-03-28T19:13:49Z</time></trkpt><trkpt lat="45.63535154169485" lon="10.59666517663547"><ele>73.5</ele><time>2026-03-28T19:13:50Z</time></trkpt><trkpt lat="45.63541458453161" lon="10.596789807530842"><ele>72.0</ele><time>2026-03-28T19:13:51Z</time></trkpt><trkpt lat="45.6354791250586" lon="10.5969187456471"><ele>73.4</ele><time>2026-03-28T19:13:52Z</time></trkpt><trkpt lat="45.63553398198773" lon="10.59706015050835"><ele>74.80000000000001</ele><time>2026-03-28T19:13:53Z</time></trkpt><trkpt lat="45.6355764731823" lon="10.597197840361389"><ele>76.2</ele><time>2026-03-28T19:13:54Z</time></trkpt><trkpt lat="45.63562345007421" lon="10.597341179780335"><ele>77.60000000000001</ele><time>2026-03-28T19:13:55Z</time></trkpt><trkpt lat="45.63566511062091" lon="10.597477552851887"><ele>79.0</ele><time>2026-03-28T19:13:56Z</time></trkpt><trkpt lat="45.635692704549996" lon="10.597610359206397"><ele>79.0</ele><time>2026-03-28T19:13:57Z</time></trkpt><trkpt lat="45.635712667879" lon="10.597763788963361"><ele>79.0</ele><time>2026-03-28T19:13:58Z</time></trkpt><trkpt lat="45.635680701642336" lon="10.597920034889777"><ele>79.0</ele><time>2026-03-28T19:13:59Z</time></trkpt><trkpt lat="45.63569098249259" lon="10.598068553942447"><ele>79.0</ele><time>2026-03-28T19:14:00Z</time></trkpt><trkpt lat="45.63569398496277" lon="10.598210805167692"><ele>79.0</ele><time>2026-03-28T19:14:01Z</time></trkpt><trkpt lat="45.63573951964296" lon="10.598353704599276"><ele>78.0</ele><time>2026-03-28T19:14:02Z</time></trkpt><trkpt lat="45.63573812832785" lon="10.598502731819496"><ele>77.0</ele><time>2026-03-28T19:14:03Z</time></trkpt><trkpt lat="45.635735836671095" lon="10.598655123926195"><ele>76.0</ele><time>2026-03-28T19:14:04Z</time></trkpt><trkpt lat="45.63572666377896" lon="10.59879154299432"><ele>75.0</ele><time>2026-03-28T19:14:05Z</time></trkpt><trkpt lat="45.635654297273284" lon="10.598908548841907"><ele>74.0</ele><time>2026-03-28T19:14:06Z</time></trkpt><trkpt lat="45.635614993033776" lon="10.599037979307202"><ele>73.60000000000001</ele><time>2026-03-28T19:14:07Z</time></trkpt><trkpt lat="45.63556846508575" lon="10.599167396954668"><ele>73.2</ele><time>2026-03-28T19:14:08Z</time></trkpt><trkpt lat="45.6355149159044" lon="10.599276035624774"><ele>72.80000000000001</ele><time>2026-03-28T19:14:09Z</time></trkpt><trkpt lat="45.63545735296968" lon="10.599376719616021"><ele>72.4</ele><time>2026-03-28T19:14:10Z</time></trkpt><trkpt lat="45.635393145085416" lon="10.599494319465801"><ele>72.0</ele><time>2026-03-28T19:14:11Z</time></trkpt><trkpt lat="45.63532913984872" lon="10.599611345937374"><ele>72.2</ele><time>2026-03-28T19:14:12Z</time></trkpt><trkpt lat="45.63526815426845" lon="10.59973264428106"><ele>72.4</ele><time>2026-03-28T19:14:13Z</time></trkpt><trkpt lat="45.635220820357105" lon="10.599873549259543"><ele>72.6</ele><time>2026-03-28T19:14:14Z</time></trkpt><trkpt lat="45.635163038434726" lon="10.600013306915423"><ele>72.8</ele><time>2026-03-28T19:14:15Z</time></trkpt><trkpt lat="45.635111126543535" lon="10.600168268944449"><ele>73.0</ele><time>2026-03-28T19:14:16Z</time></trkpt><trkpt lat="45.635052997774864" lon="10.600319965625992"><ele>72.4</ele><time>2026-03-28T19:14:17Z</time></trkpt><trkpt lat="45.635002432837" lon="10.600471205034925"><ele>71.8</ele><time>2026-03-28T19:14:18Z</time></trkpt><trkpt lat="45.63495859572101" lon="10.600606066643419"><ele>71.2</ele><time>2026-03-28T19:14:19Z</time></trkpt><trkpt lat="45.63491343286731" lon="10.600750217873584"><ele>70.6</ele><time>2026-03-28T19:14:20Z</time></trkpt><trkpt lat="45.63488461795785" lon="10.600903569318458"><ele>70.0</ele><time>2026-03-28T19:14:21Z</time></trkpt><trkpt lat="45.63487179421667" lon="10.601051036736335"><ele>69.75</ele><time>2026-03-28T19:14:22Z</time></trkpt><trkpt lat="45.63486849227671" lon="10.601215842043269"><ele>69.5</ele><time>2026-03-28T19:14:23Z</time></trkpt><trkpt lat="45.63489205307571" lon="10.601381358994596"><ele>69.25</ele><time>2026-03-28T19:14:24Z</time></trkpt><trkpt lat="45.634928541793705" lon="10.60153613894595"><ele>69.0</ele><time>2026-03-28T19:14:25Z</time></trkpt><trkpt lat="45.63497875562539" lon="10.60168631389605"><ele>69.0</ele><time>2026-03-28T19:14:26Z</time></trkpt><trkpt lat="45.63504248549302" lon="10.601836860881598"><ele>69.0</ele><time>2026-03-28T19:14:27Z</time></trkpt><trkpt lat="45.63512545218576" lon="10.6019792787058"><ele>69.0</ele><time>2026-03-28T19:14:28Z</time></trkpt><trkpt lat="45.635211132054096" lon="10.60212184048111"><ele>69.0</ele><time>2026-03-28T19:14:29Z</time></trkpt><trkpt lat="45.63529547535626" lon="10.602261195759455"><ele>69.5</ele><time>2026-03-28T19:14:30Z</time></trkpt><trkpt lat="45.635367252680865" lon="10.602397720386538"><ele>70.0</ele><time>2026-03-28T19:14:31Z</time></trkpt><trkpt lat="45.6354426033961" lon="10.602540564721805"><ele>70.5</ele><time>2026-03-28T19:14:32Z</time></trkpt><trkpt lat="45.63551397804732" lon="10.60268447995375"><ele>71.0</ele><time>2026-03-28T19:14:33Z</time></trkpt><trkpt lat="45.63558620366052" lon="10.602822865222414"><ele>70.75</ele><time>2026-03-28T19:14:34Z</time></trkpt><trkpt lat="45.635658552307525" lon="10.602940273501321"><ele>70.5</ele><time>2026-03-28T19:14:35Z</time></trkpt><trkpt lat="45.63572830180974" lon="10.60308031199849"><ele>70.25</ele><time>2026-03-28T19:14:36Z</time></trkpt><trkpt lat="45.63580472012022" lon="10.60321993486972"><ele>70.0</ele><time>2026-03-28T19:14:37Z</time></trkpt><trkpt lat="45.63588831607907" lon="10.603373549715739"><ele>70.0</ele><time>2026-03-28T19:14:38Z</time></trkpt><trkpt lat="45.63595374228082" lon="10.603543978189007"><ele>70.0</ele><time>2026-03-28T19:14:39Z</time></trkpt><trkpt lat="45.636039341958096" lon="10.603708563011173"><ele>70.0</ele><time>2026-03-28T19:14:40Z</time></trkpt><trkpt lat="45.63617124634526" lon="10.603907794248977"><ele>71.0</ele><time>2026-03-28T19:14:41Z</time></trkpt><trkpt lat="45.636304899388435" lon="10.604148600988163"><ele>72.0</ele><time>2026-03-28T19:14:42Z</time></trkpt><trkpt lat="45.63640145782749" lon="10.604352567581628"><ele>73.0</ele><time>2026-03-28T19:14:43Z</time></trkpt><trkpt lat="45.63648073547809" lon="10.604522325233937"><ele>73.0</ele><time>2026-03-28T19:14:44Z</time></trkpt><trkpt lat="45.63655398722073" lon="10.604664788583555"><ele>73.0</ele><time>2026-03-28T19:14:45Z</time></trkpt><trkpt lat="45.63661237660973" lon="10.604789819330072"><ele>73.0</ele><time>2026-03-28T19:14:46Z</time></trkpt><trkpt lat="45.636662636628046" lon="10.604893113970299"><ele>73.0</ele><time>2026-03-28T19:14:47Z</time></trkpt><trkpt lat="45.63670042688406" lon="10.604988328222746"><ele>73.0</ele><time>2026-03-28T19:14:48Z</time></trkpt><trkpt lat="45.63672026211468" lon="10.60508405072139"><ele>73.0</ele><time>2026-03-28T19:14:49Z</time></trkpt><trkpt lat="45.636719766998354" lon="10.605188055695642"><ele>73.0</ele><time>2026-03-28T19:14:50Z</time></trkpt><trkpt lat="45.63672702200179" lon="10.605286960110568"><ele>73.0</ele><time>2026-03-28T19:14:51Z</time></trkpt><trkpt lat="45.636782431715645" lon="10.605364769439824"><ele>73.0</ele><time>2026-03-28T19:14:52Z</time></trkpt><trkpt lat="45.63687130929875" lon="10.60540244420976"><ele>73.0</ele><time>2026-03-28T19:14:53Z</time></trkpt><trkpt lat="45.63696641921454" lon="10.605484359086459"><ele>73.0</ele><time>2026-03-28T19:14:54Z</time></trkpt><trkpt lat="45.6370539678859" lon="10.605622892689867"><ele>73.5</ele><time>2026-03-28T19:14:55Z</time></trkpt><trkpt lat="45.63711266500387" lon="10.605777851458264"><ele>74.0</ele><time>2026-03-28T19:14:56Z</time></trkpt><trkpt lat="45.63719429806041" lon="10.605937728263575"><ele>74.5</ele><time>2026-03-28T19:14:57Z</time></trkpt><trkpt lat="45.63726798870194" lon="10.606063217993345"><ele>75.0</ele><time>2026-03-28T19:14:58Z</time></trkpt><trkpt lat="45.6373383243498" lon="10.606154676908767"><ele>75.4</ele><time>2026-03-28T19:14:59Z</time></trkpt><trkpt lat="45.63740786279086" lon="10.606260950368744"><ele>75.8</ele><time>2026-03-28T19:15:00Z</time></trkpt><trkpt lat="45.63748502586599" lon="10.60637259255767"><ele>76.2</ele><time>2026-03-28T19:15:01Z</time></trkpt><trkpt lat="45.63756603126544" lon="10.606487007480755"><ele>76.6</ele><time>2026-03-28T19:15:02Z</time></trkpt><trkpt lat="45.637652727505696" lon="10.6066085413085"><ele>77.0</ele><time>2026-03-28T19:15:03Z</time></trkpt><trkpt lat="45.637739459970625" lon="10.606733349060294"><ele>77.5</ele><time>2026-03-28T19:15:04Z</time></trkpt><trkpt lat="45.63783223294389" lon="10.606863163016008"><ele>78.0</ele><time>2026-03-28T19:15:05Z</time></trkpt><trkpt lat="45.6379169991848" lon="10.606991609949235"><ele>78.5</ele><time>2026-03-28T19:15:06Z</time></trkpt><trkpt lat="45.6380120740123" lon="10.607112982992048"><ele>79.0</ele><time>2026-03-28T19:15:07Z</time></trkpt><trkpt lat="45.6381176037743" lon="10.607213507085525"><ele>79.0</ele><time>2026-03-28T19:15:08Z</time></trkpt><trkpt lat="45.63822754687079" lon="10.607292369407492"><ele>79.0</ele><time>2026-03-28T19:15:09Z</time></trkpt><trkpt lat="45.638344089033474" lon="10.607366573520984"><ele>79.0</ele><time>2026-03-28T19:15:10Z</time></trkpt><trkpt lat="45.638455100967455" lon="10.6074193044262"><ele>79.0</ele><time>2026-03-28T19:15:11Z</time></trkpt><trkpt lat="45.63856277216451" lon="10.607468666440164"><ele>79.75</ele><time>2026-03-28T19:15:12Z</time></trkpt><trkpt lat="45.63867418354917" lon="10.607516566701056"><ele>80.5</ele><time>2026-03-28T19:15:13Z</time></trkpt><trkpt lat="45.638787735804435" lon="10.607567134026755"><ele>81.25</ele><time>2026-03-28T19:15:13.999Z</time></trkpt><trkpt lat="45.6389017999158" lon="10.60762772811831"><ele>82.0</ele><time>2026-03-28T19:15:14.999Z</time></trkpt><trkpt lat="45.63902718564087" lon="10.607682569269699"><ele>82.0</ele><time>2026-03-28T19:15:16Z</time></trkpt><trkpt lat="45.63916187377979" lon="10.607737278468626"><ele>82.0</ele><time>2026-03-28T19:15:17Z</time></trkpt><trkpt lat="45.63928406428727" lon="10.607800897692462"><ele>82.0</ele><time>2026-03-28T19:15:18Z</time></trkpt><trkpt lat="45.63941147436851" lon="10.607854772260465"><ele>82.0</ele><time>2026-03-28T19:15:19Z</time></trkpt><trkpt lat="45.6395454088795" lon="10.607908083046183"><ele>82.5</ele><time>2026-03-28T19:15:20Z</time></trkpt><trkpt lat="45.63967257401188" lon="10.607969177561294"><ele>83.0</ele><time>2026-03-28T19:15:21Z</time></trkpt><trkpt lat="45.6397972701928" lon="10.608046947963672"><ele>83.5</ele><time>2026-03-28T19:15:22Z</time></trkpt><trkpt lat="45.63990693952576" lon="10.608088896457256"><ele>84.0</ele><time>2026-03-28T19:15:23Z</time></trkpt><trkpt lat="45.64001600290766" lon="10.608148088235797"><ele>84.0</ele><time>2026-03-28T19:15:24Z</time></trkpt><trkpt lat="45.64012514071205" lon="10.608205866003596"><ele>84.0</ele><time>2026-03-28T19:15:25Z</time></trkpt><trkpt lat="45.64022883421945" lon="10.608253287267187"><ele>84.0</ele><time>2026-03-28T19:15:26Z</time></trkpt><trkpt lat="45.640314247001065" lon="10.608324831340544"><ele>84.0</ele><time>2026-03-28T19:15:27Z</time></trkpt><trkpt lat="45.640384462380744" lon="10.608390430019586"><ele>84.0</ele><time>2026-03-28T19:15:28Z</time></trkpt><trkpt lat="45.64043825086315" lon="10.608459513504586"><ele>83.2</ele><time>2026-03-28T19:15:29Z</time></trkpt><trkpt lat="45.6405081113781" lon="10.608522317520046"><ele>82.4</ele><time>2026-03-28T19:15:30Z</time></trkpt><trkpt lat="45.640575977779896" lon="10.608609025673578"><ele>81.6</ele><time>2026-03-28T19:15:31Z</time></trkpt><trkpt lat="45.640635487256596" lon="10.608716033443425"><ele>80.8</ele><time>2026-03-28T19:15:32Z</time></trkpt><trkpt lat="45.64069473871325" lon="10.608843132014592"><ele>80.0</ele><time>2026-03-28T19:15:33Z</time></trkpt><trkpt lat="45.64075578611386" lon="10.608947353496632"><ele>80.0</ele><time>2026-03-28T19:15:34Z</time></trkpt><trkpt lat="45.64083032399387" lon="10.609046087331615"><ele>80.0</ele><time>2026-03-28T19:15:35Z</time></trkpt><trkpt lat="45.64086744229279" lon="10.609193074065962"><ele>80.0</ele><time>2026-03-28T19:15:36Z</time></trkpt><trkpt lat="45.64092305303635" lon="10.609366761971586"><ele>80.0</ele><time>2026-03-28T19:15:37Z</time></trkpt><trkpt lat="45.64097178214335" lon="10.609517160979584"><ele>80.0</ele><time>2026-03-28T19:15:38Z</time></trkpt><trkpt lat="45.641010765582024" lon="10.609637378183223"><ele>80.0</ele><time>2026-03-28T19:15:39Z</time></trkpt><trkpt lat="45.641047127054684" lon="10.609750421079074"><ele>80.0</ele><time>2026-03-28T19:15:40Z</time></trkpt><trkpt lat="45.64110636876237" lon="10.609880430518496"><ele>80.0</ele><time>2026-03-28T19:15:41Z</time></trkpt><trkpt lat="45.641141714714735" lon="10.61005089752085"><ele>80.0</ele><time>2026-03-28T19:15:42Z</time></trkpt><trkpt lat="45.641210694920574" lon="10.61022359852756"><ele>82.0</ele><time>2026-03-28T19:15:43Z</time></trkpt><trkpt lat="45.64125261851726" lon="10.610424833556197"><ele>84.0</ele><time>2026-03-28T19:15:44Z</time></trkpt><trkpt lat="45.64130796843133" lon="10.6106034270993"><ele>86.0</ele><time>2026-03-28T19:15:45Z</time></trkpt><trkpt lat="45.641355261506355" lon="10.61075046355542"><ele>88.0</ele><time>2026-03-28T19:15:46Z</time></trkpt><trkpt lat="45.64139895417737" lon="10.610884315266489"><ele>88.0</ele><time>2026-03-28T19:15:47Z</time></trkpt><trkpt lat="45.641444685888345" lon="10.61102348182445"><ele>88.0</ele><time>2026-03-28T19:15:48Z</time></trkpt><trkpt lat="45.64148905597274" lon="10.611158504798155"><ele>88.0</ele><time>2026-03-28T19:15:49Z</time></trkpt><trkpt lat="45.64152494045409" lon="10.611267705165861"><ele>88.0</ele><time>2026-03-28T19:15:50Z</time></trkpt><trkpt lat="45.64157215959185" lon="10.611411398141708"><ele>88.0</ele><time>2026-03-28T19:15:51Z</time></trkpt><trkpt lat="45.64162743962786" lon="10.611580710990623"><ele>86.66666666666666</ele><time>2026-03-28T19:15:52Z</time></trkpt><trkpt lat="45.64170696215871" lon="10.611769100106805"><ele>85.33333333333333</ele><time>2026-03-28T19:15:53Z</time></trkpt><trkpt lat="45.64176010138174" lon="10.611986479736002"><ele>84.0</ele><time>2026-03-28T19:15:54Z</time></trkpt><trkpt lat="45.641834059044776" lon="10.61221269194149"><ele>83.0</ele><time>2026-03-28T19:15:55Z</time></trkpt><trkpt lat="45.64190734586699" lon="10.612431211954343"><ele>82.0</ele><time>2026-03-28T19:15:56Z</time></trkpt><trkpt lat="45.64196785438635" lon="10.612624157013828"><ele>81.0</ele><time>2026-03-28T19:15:57Z</time></trkpt><trkpt lat="45.64202645541674" lon="10.61281239229121"><ele>81.19999999999999</ele><time>2026-03-28T19:15:58Z</time></trkpt><trkpt lat="45.6420797541008" lon="10.612978301934483"><ele>81.39999999999999</ele><time>2026-03-28T19:15:59Z</time></trkpt><trkpt lat="45.6421323812296" lon="10.613131144949696"><ele>81.6</ele><time>2026-03-28T19:16:00Z</time></trkpt><trkpt lat="45.642160923420676" lon="10.613268237493024"><ele>81.8</ele><time>2026-03-28T19:16:01Z</time></trkpt><trkpt lat="45.642192728431375" lon="10.613388448706976"><ele>82.0</ele><time>2026-03-28T19:16:02Z</time></trkpt><trkpt lat="45.64216038430356" lon="10.613494486545529"><ele>82.0</ele><time>2026-03-28T19:16:03Z</time></trkpt><trkpt lat="45.64211667515022" lon="10.613578461888677"><ele>82.0</ele><time>2026-03-28T19:16:04Z</time></trkpt><trkpt lat="45.642106152197286" lon="10.61367264833521"><ele>82.0</ele><time>2026-03-28T19:16:05Z</time></trkpt><trkpt lat="45.642196207611235" lon="10.61378501180232"><ele>82.0</ele><time>2026-03-28T19:16:07Z</time></trkpt><trkpt lat="45.64229876197673" lon="10.613807555655399"><ele>82.0</ele><time>2026-03-28T19:16:08Z</time></trkpt><trkpt lat="45.6423966026124" lon="10.613900378251062"><ele>81.33333333333333</ele><time>2026-03-28T19:16:09Z</time></trkpt><trkpt lat="45.64245946987953" lon="10.614072388660333"><ele>80.66666666666667</ele><time>2026-03-28T19:16:10Z</time></trkpt><trkpt lat="45.64254407179504" lon="10.614259535952918"><ele>80.0</ele><time>2026-03-28T19:16:11Z</time></trkpt><trkpt lat="45.6426648231733" lon="10.614458661889094"><ele>80.0</ele><time>2026-03-28T19:16:12Z</time></trkpt><trkpt lat="45.64278133351016" lon="10.61464732711035"><ele>80.0</ele><time>2026-03-28T19:16:13Z</time></trkpt><trkpt lat="45.642903669395494" lon="10.614841000003338"><ele>80.0</ele><time>2026-03-28T19:16:14Z</time></trkpt><trkpt lat="45.64303260773346" lon="10.615018805648662"><ele>80.33333333333334</ele><time>2026-03-28T19:16:15Z</time></trkpt><trkpt lat="45.6431625275928" lon="10.615192532627892"><ele>80.66666666666667</ele><time>2026-03-28T19:16:16Z</time></trkpt><trkpt lat="45.64328277623503" lon="10.615368547407352"><ele>81.0</ele><time>2026-03-28T19:16:17Z</time></trkpt><trkpt lat="45.64339952137937" lon="10.615542849150117"><ele>81.33333333333333</ele><time>2026-03-28T19:16:18Z</time></trkpt><trkpt lat="45.643517382424776" lon="10.615718924094418"><ele>81.66666666666666</ele><time>2026-03-28T19:16:19Z</time></trkpt><trkpt lat="45.643636496459806" lon="10.615885637505844"><ele>82.0</ele><time>2026-03-28T19:16:20Z</time></trkpt><trkpt lat="45.64375694109266" lon="10.616062849673057"><ele>81.66666666666666</ele><time>2026-03-28T19:16:21Z</time></trkpt><trkpt lat="45.64387410809868" lon="10.616230796457337"><ele>81.33333333333333</ele><time>2026-03-28T19:16:22Z</time></trkpt><trkpt lat="45.6439834661933" lon="10.61639163029321"><ele>81.0</ele><time>2026-03-28T19:16:23Z</time></trkpt><trkpt lat="45.644096639014904" lon="10.616542046666934"><ele>81.0</ele><time>2026-03-28T19:16:24Z</time></trkpt><trkpt lat="45.64421193058063" lon="10.616685592077076"><ele>81.0</ele><time>2026-03-28T19:16:25Z</time></trkpt><trkpt lat="45.64433551037611" lon="10.616817276802635"><ele>81.0</ele><time>2026-03-28T19:16:26Z</time></trkpt><trkpt lat="45.64446868855798" lon="10.616941544072482"><ele>79.66666666666667</ele><time>2026-03-28T19:16:27Z</time></trkpt><trkpt lat="45.64461257530977" lon="10.61703969444532"><ele>78.33333333333334</ele><time>2026-03-28T19:16:28Z</time></trkpt><trkpt lat="45.6447668104736" lon="10.617105306672595"><ele>77.0</ele><time>2026-03-28T19:16:29Z</time></trkpt><trkpt lat="45.64489791947313" lon="10.61714584887987"><ele>77.0</ele><time>2026-03-28T19:16:30Z</time></trkpt><trkpt lat="45.645017711247995" lon="10.617182014475778"><ele>77.0</ele><time>2026-03-28T19:16:31Z</time></trkpt><trkpt lat="45.64512970339949" lon="10.617206067198294"><ele>77.0</ele><time>2026-03-28T19:16:32Z</time></trkpt><trkpt lat="45.64525677307577" lon="10.617255319292687"><ele>77.0</ele><time>2026-03-28T19:16:33Z</time></trkpt><trkpt lat="45.64538691419407" lon="10.617312221140457"><ele>80.5</ele><time>2026-03-28T19:16:34Z</time></trkpt><trkpt lat="45.64551931812357" lon="10.617359001787559"><ele>84.0</ele><time>2026-03-28T19:16:35Z</time></trkpt><trkpt lat="45.64565763413459" lon="10.617404499033253"><ele>87.5</ele><time>2026-03-28T19:16:36Z</time></trkpt><trkpt lat="45.64580687921039" lon="10.617460979227685"><ele>91.0</ele><time>2026-03-28T19:16:37Z</time></trkpt><trkpt lat="45.645929696850146" lon="10.617548043457829"><ele>91.0</ele><time>2026-03-28T19:16:38Z</time></trkpt><trkpt lat="45.64602358429921" lon="10.617664204128578"><ele>91.0</ele><time>2026-03-28T19:16:39Z</time></trkpt><trkpt lat="45.64608630079162" lon="10.617816555164422"><ele>91.0</ele><time>2026-03-28T19:16:40Z</time></trkpt><trkpt lat="45.646170722762584" lon="10.618005051047419"><ele>91.0</ele><time>2026-03-28T19:16:41Z</time></trkpt><trkpt lat="45.64626587075859" lon="10.618202499272163"><ele>88.0</ele><time>2026-03-28T19:16:42Z</time></trkpt><trkpt lat="45.64638191341543" lon="10.618404366902249"><ele>85.0</ele><time>2026-03-28T19:16:43Z</time></trkpt><trkpt lat="45.6465100117161" lon="10.618606912651536"><ele>82.0</ele><time>2026-03-28T19:16:44Z</time></trkpt><trkpt lat="45.6466451216538" lon="10.618821820208085"><ele>82.0</ele><time>2026-03-28T19:16:45Z</time></trkpt><trkpt lat="45.646786278121965" lon="10.619064740831803"><ele>82.0</ele><time>2026-03-28T19:16:46Z</time></trkpt><trkpt lat="45.64688965336488" lon="10.619283947713965"><ele>82.0</ele><time>2026-03-28T19:16:47Z</time></trkpt><trkpt lat="45.646990295990726" lon="10.619513306529871"><ele>91.33333333333333</ele><time>2026-03-28T19:16:48Z</time></trkpt><trkpt lat="45.647092596333884" lon="10.619745943968564"><ele>100.66666666666666</ele><time>2026-03-28T19:16:49Z</time></trkpt><trkpt lat="45.64719056120245" lon="10.619967992999435"><ele>110.0</ele><time>2026-03-28T19:16:50Z</time></trkpt><trkpt lat="45.64728180560758" lon="10.620172967377973"><ele>102.75</ele><time>2026-03-28T19:16:51Z</time></trkpt><trkpt lat="45.6473657330879" lon="10.620357918950113"><ele>95.5</ele><time>2026-03-28T19:16:52Z</time></trkpt><trkpt lat="45.64744748489396" lon="10.62053570023288"><ele>88.25</ele><time>2026-03-28T19:16:53Z</time></trkpt><trkpt lat="45.64752807146848" lon="10.620710847475129"><ele>81.0</ele><time>2026-03-28T19:16:54Z</time></trkpt><trkpt lat="45.64761220040198" lon="10.620893243987178"><ele>81.0</ele><time>2026-03-28T19:16:55Z</time></trkpt><trkpt lat="45.647696594268886" lon="10.621076214879535"><ele>81.0</ele><time>2026-03-28T19:16:56Z</time></trkpt><trkpt lat="45.64777657412083" lon="10.621250213603282"><ele>81.0</ele><time>2026-03-28T19:16:57Z</time></trkpt><trkpt lat="45.647852048411835" lon="10.621414595740955"><ele>81.0</ele><time>2026-03-28T19:16:58Z</time></trkpt><trkpt lat="45.64791174573677" lon="10.621543313807193"><ele>80.0</ele><time>2026-03-28T19:16:59Z</time></trkpt><trkpt lat="45.647958765839284" lon="10.621644451362421"><ele>79.0</ele><time>2026-03-28T19:17:00Z</time></trkpt><trkpt lat="45.648001318218775" lon="10.621731834286612"><ele>78.0</ele><time>2026-03-28T19:17:02Z</time></trkpt><trkpt lat="45.64807730504337" lon="10.621874365505866"><ele>77.0</ele><time>2026-03-28T19:17:05Z</time></trkpt><trkpt lat="45.64814517927401" lon="10.621989790638787"><ele>76.0</ele><time>2026-03-28T19:17:06Z</time></trkpt><trkpt lat="45.64823112125991" lon="10.622119016159228"><ele>76.0</ele><time>2026-03-28T19:17:07Z</time></trkpt><trkpt lat="45.64834233051674" lon="10.622263902685548"><ele>76.0</ele><time>2026-03-28T19:17:08Z</time></trkpt><trkpt lat="45.64849088735256" lon="10.62242998625765"><ele>76.0</ele><time>2026-03-28T19:17:09Z</time></trkpt><trkpt lat="45.64862550932073" lon="10.622645032283986"><ele>82.5</ele><time>2026-03-28T19:17:10Z</time></trkpt><trkpt lat="45.64878509300537" lon="10.62288901921637"><ele>89.0</ele><time>2026-03-28T19:17:11Z</time></trkpt><trkpt lat="45.64892500278457" lon="10.623147052991719"><ele>89.0</ele><time>2026-03-28T19:17:11.999Z</time></trkpt><trkpt lat="45.6490497015719" lon="10.623421447727267"><ele>89.0</ele><time>2026-03-28T19:17:12.999Z</time></trkpt><trkpt lat="45.649176734817054" lon="10.623724158795069"><ele>80.0</ele><time>2026-03-28T19:17:13.999Z</time></trkpt><trkpt lat="45.64931385656126" lon="10.624048526942378"><ele>71.0</ele><time>2026-03-28T19:17:14.999Z</time></trkpt><trkpt lat="45.64943806864849" lon="10.624315680683257"><ele>75.33333333333334</ele><time>2026-03-28T19:17:15.999Z</time></trkpt><trkpt lat="45.64957602586242" lon="10.624539129256307"><ele>79.66666666666667</ele><time>2026-03-28T19:17:16.999Z</time></trkpt><trkpt lat="45.64970665344037" lon="10.62477061879646"><ele>84.0</ele><time>2026-03-28T19:17:17.999Z</time></trkpt><trkpt lat="45.64985000907188" lon="10.625004024382783"><ele>84.0</ele><time>2026-03-28T19:17:18.999Z</time></trkpt><trkpt lat="45.6500132388647" lon="10.62524874509049"><ele>84.0</ele><time>2026-03-28T19:17:19.999Z</time></trkpt><trkpt lat="45.6502057394946" lon="10.625502526129523"><ele>88.5</ele><time>2026-03-28T19:17:20.999Z</time></trkpt><trkpt lat="45.65041131644617" lon="10.625776535963496"><ele>93.0</ele><time>2026-03-28T19:17:22Z</time></trkpt><trkpt lat="45.650591222540044" lon="10.626096674214724"><ele>88.0</ele><time>2026-03-28T19:17:23Z</time></trkpt><trkpt lat="45.650770891560754" lon="10.62643599342865"><ele>83.0</ele><time>2026-03-28T19:17:24Z</time></trkpt><trkpt lat="45.65092581906553" lon="10.626738497655657"><ele>81.0</ele><time>2026-03-28T19:17:25Z</time></trkpt><trkpt lat="45.651065127787064" lon="10.6270090988303"><ele>79.0</ele><time>2026-03-28T19:17:26Z</time></trkpt><trkpt lat="45.65120063207714" lon="10.627236313517654"><ele>77.0</ele><time>2026-03-28T19:17:27Z</time></trkpt><trkpt lat="45.651336570666615" lon="10.627471380012135"><ele>76.5</ele><time>2026-03-28T19:17:28Z</time></trkpt><trkpt lat="45.651497363446346" lon="10.627686174695857"><ele>76.0</ele><time>2026-03-28T19:17:29Z</time></trkpt><trkpt lat="45.65168233260578" lon="10.627881961128278"><ele>76.0</ele><time>2026-03-28T19:17:30Z</time></trkpt><trkpt lat="45.65186737658558" lon="10.628070848938274"><ele>76.0</ele><time>2026-03-28T19:17:31Z</time></trkpt><trkpt lat="45.65202995690762" lon="10.628235490899643"><ele>76.0</ele><time>2026-03-28T19:17:32Z</time></trkpt><trkpt lat="45.65219380054275" lon="10.628394234410274"><ele>75.0</ele><time>2026-03-28T19:17:33Z</time></trkpt><trkpt lat="45.65236836483893" lon="10.628533594379451"><ele>74.0</ele><time>2026-03-28T19:17:34Z</time></trkpt><trkpt lat="45.65255671835635" lon="10.628636827349048"><ele>73.0</ele><time>2026-03-28T19:17:35Z</time></trkpt><trkpt lat="45.652711658610556" lon="10.628741398894979"><ele>83.33333333333333</ele><time>2026-03-28T19:17:36Z</time></trkpt><trkpt lat="45.65284032855868" lon="10.628844660162205"><ele>93.66666666666666</ele><time>2026-03-28T19:17:37Z</time></trkpt><trkpt lat="45.6529306699673" lon="10.629014462854904"><ele>104.0</ele><time>2026-03-28T19:17:38Z</time></trkpt><trkpt lat="45.653039742665804" lon="10.629191460510741"><ele>104.0</ele><time>2026-03-28T19:17:39Z</time></trkpt><trkpt lat="45.653165127041774" lon="10.629372542629532"><ele>104.0</ele><time>2026-03-28T19:17:40Z</time></trkpt><trkpt lat="45.653258012864505" lon="10.629585822684174"><ele>104.0</ele><time>2026-03-28T19:17:41Z</time></trkpt><trkpt lat="45.653378297258385" lon="10.629812825984574"><ele>102.0</ele><time>2026-03-28T19:17:42Z</time></trkpt><trkpt lat="45.653499308275464" lon="10.630043125827337"><ele>100.0</ele><time>2026-03-28T19:17:43Z</time></trkpt><trkpt lat="45.65362055328244" lon="10.630273278349259"><ele>98.0</ele><time>2026-03-28T19:17:44Z</time></trkpt><trkpt lat="45.653746002381865" lon="10.63051623905527"><ele>98.0</ele><time>2026-03-28T19:17:45Z</time></trkpt><trkpt lat="45.65387122051386" lon="10.630785594693483"><ele>98.0</ele><time>2026-03-28T19:17:46Z</time></trkpt><trkpt lat="45.65398871782451" lon="10.63106559015789"><ele>93.0</ele><time>2026-03-28T19:17:47Z</time></trkpt><trkpt lat="45.65409436332114" lon="10.631324124294858"><ele>88.0</ele><time>2026-03-28T19:17:48Z</time></trkpt><trkpt lat="45.65419079597428" lon="10.631563216384288"><ele>83.0</ele><time>2026-03-28T19:17:49Z</time></trkpt><trkpt lat="45.654287996386145" lon="10.631808308096861"><ele>78.66666666666667</ele><time>2026-03-28T19:17:50Z</time></trkpt><trkpt lat="45.65437548062742" lon="10.63202963500374"><ele>74.33333333333333</ele><time>2026-03-28T19:17:51Z</time></trkpt><trkpt lat="45.65444902678238" lon="10.632233794154413"><ele>70.0</ele><time>2026-03-28T19:17:52Z</time></trkpt><trkpt lat="45.654511587112275" lon="10.63242484296758"><ele>75.33333333333333</ele><time>2026-03-28T19:17:53Z</time></trkpt><trkpt lat="45.654590411890986" lon="10.632638682282295"><ele>80.66666666666667</ele><time>2026-03-28T19:17:54Z</time></trkpt><trkpt lat="45.65469568570252" lon="10.632842193068468"><ele>86.0</ele><time>2026-03-28T19:17:55Z</time></trkpt><trkpt lat="45.65481385710697" lon="10.63302822519056"><ele>86.0</ele><time>2026-03-28T19:17:56Z</time></trkpt><trkpt lat="45.65494224050791" lon="10.633225375066342"><ele>86.0</ele><time>2026-03-28T19:17:57Z</time></trkpt><trkpt lat="45.655076073605414" lon="10.63343656275688"><ele>86.0</ele><time>2026-03-28T19:17:58Z</time></trkpt><trkpt lat="45.655218754184524" lon="10.633657765744045"><ele>89.66666666666667</ele><time>2026-03-28T19:17:59Z</time></trkpt><trkpt lat="45.65537280062625" lon="10.633852166440278"><ele>93.33333333333334</ele><time>2026-03-28T19:18:00Z</time></trkpt><trkpt lat="45.65550562619009" lon="10.634045008390338"><ele>97.0</ele><time>2026-03-28T19:18:01Z</time></trkpt><trkpt lat="45.65562272538476" lon="10.634260071697048"><ele>90.66666666666667</ele><time>2026-03-28T19:18:02Z</time></trkpt><trkpt lat="45.65572380836311" lon="10.634504278963727"><ele>84.33333333333334</ele><time>2026-03-28T19:18:03Z</time></trkpt><trkpt lat="45.65584438086832" lon="10.634707014669809"><ele>78.0</ele><time>2026-03-28T19:18:04Z</time></trkpt><trkpt lat="45.6559652340912" lon="10.634918519196335"><ele>78.0</ele><time>2026-03-28T19:18:05Z</time></trkpt><trkpt lat="45.656086423550114" lon="10.635169698173467"><ele>78.0</ele><time>2026-03-28T19:18:06Z</time></trkpt><trkpt lat="45.65622887157047" lon="10.635421953357056"><ele>78.0</ele><time>2026-03-28T19:18:07Z</time></trkpt><trkpt lat="45.656493677702095" lon="10.635565326645251"><ele>83.0</ele><time>2026-03-28T19:18:08Z</time></trkpt><trkpt lat="45.65669686274378" lon="10.635778124464506"><ele>88.0</ele><time>2026-03-28T19:18:09Z</time></trkpt><trkpt lat="45.656893934213976" lon="10.635936924781396"><ele>91.33333333333333</ele><time>2026-03-28T19:18:10Z</time></trkpt><trkpt lat="45.65707504613649" lon="10.636072238405804"><ele>94.66666666666666</ele><time>2026-03-28T19:18:11Z</time></trkpt><trkpt lat="45.657230910028176" lon="10.636214557401688"><ele>98.0</ele><time>2026-03-28T19:18:12Z</time></trkpt><trkpt lat="45.65738665734131" lon="10.636394279768869"><ele>88.0</ele><time>2026-03-28T19:18:13Z</time></trkpt><trkpt lat="45.6575434992402" lon="10.63661652306259"><ele>78.0</ele><time>2026-03-28T19:18:14Z</time></trkpt><trkpt lat="45.657703903418614" lon="10.636852243547644"><ele>83.0</ele><time>2026-03-28T19:18:15Z</time></trkpt><trkpt lat="45.657868497940456" lon="10.63709482759468"><ele>88.0</ele><time>2026-03-28T19:18:16Z</time></trkpt><trkpt lat="45.65803407940224" lon="10.637321749426878"><ele>88.0</ele><time>2026-03-28T19:18:17Z</time></trkpt><trkpt lat="45.65821322564762" lon="10.63751541500809"><ele>88.0</ele><time>2026-03-28T19:18:18Z</time></trkpt><trkpt lat="45.65840544042282" lon="10.637682083047137"><ele>88.0</ele><time>2026-03-28T19:18:19Z</time></trkpt><trkpt lat="45.65856764912455" lon="10.637900138469552"><ele>89.66666666666666</ele><time>2026-03-28T19:18:20Z</time></trkpt><trkpt lat="45.65870188565168" lon="10.638141230490756"><ele>91.33333333333333</ele><time>2026-03-28T19:18:21Z</time></trkpt><trkpt lat="45.65884008187052" lon="10.638366606725837"><ele>93.0</ele><time>2026-03-28T19:18:22Z</time></trkpt><trkpt lat="45.6590152502158" lon="10.638555013104362"><ele>89.66666666666667</ele><time>2026-03-28T19:18:23Z</time></trkpt><trkpt lat="45.65917226446914" lon="10.638726628522562"><ele>86.33333333333334</ele><time>2026-03-28T19:18:24Z</time></trkpt><trkpt lat="45.65931323179571" lon="10.63888850189032"><ele>83.0</ele><time>2026-03-28T19:18:25Z</time></trkpt><trkpt lat="45.65942576845614" lon="10.639050683564825"><ele>84.66666666666667</ele><time>2026-03-28T19:18:26Z</time></trkpt><trkpt lat="45.65950633240416" lon="10.639226829638732"><ele>86.33333333333333</ele><time>2026-03-28T19:18:27Z</time></trkpt><trkpt lat="45.65955945483444" lon="10.63943506961926"><ele>88.0</ele><time>2026-03-28T19:18:28Z</time></trkpt><trkpt lat="45.659629612121876" lon="10.639653520960882"><ele>88.0</ele><time>2026-03-28T19:18:29Z</time></trkpt><trkpt lat="45.65974171739862" lon="10.63987363131862"><ele>88.0</ele><time>2026-03-28T19:18:30Z</time></trkpt><trkpt lat="45.659889915952924" lon="10.640102155342626"><ele>88.0</ele><time>2026-03-28T19:18:31Z</time></trkpt><trkpt lat="45.66004371552088" lon="10.640360801355424"><ele>93.5</ele><time>2026-03-28T19:18:32Z</time></trkpt><trkpt lat="45.660197729688974" lon="10.640629296417472"><ele>99.0</ele><time>2026-03-28T19:18:33Z</time></trkpt><trkpt lat="45.66035697038418" lon="10.64089123747777"><ele>99.0</ele><time>2026-03-28T19:18:34Z</time></trkpt><trkpt lat="45.660503099551924" lon="10.641109059951477"><ele>99.0</ele><time>2026-03-28T19:18:35Z</time></trkpt><trkpt lat="45.66064070928689" lon="10.641331376558565"><ele>99.0</ele><time>2026-03-28T19:18:36Z</time></trkpt><trkpt lat="45.660781970463994" lon="10.641530919036054"><ele>96.0</ele><time>2026-03-28T19:18:37Z</time></trkpt><trkpt lat="45.66091879633502" lon="10.641747427200608"><ele>93.0</ele><time>2026-03-28T19:18:38Z</time></trkpt><trkpt lat="45.6610582616599" lon="10.641968405729875"><ele>90.0</ele><time>2026-03-28T19:18:39Z</time></trkpt><trkpt lat="45.661191991855496" lon="10.642178798716888"><ele>90.0</ele><time>2026-03-28T19:18:40Z</time></trkpt><trkpt lat="45.66132407684015" lon="10.642361199812981"><ele>90.0</ele><time>2026-03-28T19:18:41Z</time></trkpt><trkpt lat="45.661482670698696" lon="10.642545265209721"><ele>90.0</ele><time>2026-03-28T19:18:42Z</time></trkpt><trkpt lat="45.66162508880965" lon="10.642689682751897"><ele>92.33333333333334</ele><time>2026-03-28T19:18:43Z</time></trkpt><trkpt lat="45.66176160846636" lon="10.642835500197952"><ele>94.66666666666667</ele><time>2026-03-28T19:18:44Z</time></trkpt><trkpt lat="45.661897605894545" lon="10.642985447183458"><ele>97.0</ele><time>2026-03-28T19:18:45Z</time></trkpt><trkpt lat="45.66204036626289" lon="10.64313505294129"><ele>97.0</ele><time>2026-03-28T19:18:46Z</time></trkpt><trkpt lat="45.66218107414825" lon="10.643292592125576"><ele>97.0</ele><time>2026-03-28T19:18:47Z</time></trkpt><trkpt lat="45.66232360228408" lon="10.64345103293505"><ele>97.0</ele><time>2026-03-28T19:18:48Z</time></trkpt><trkpt lat="45.662483920394315" lon="10.643625811564059"><ele>100.66666666666667</ele><time>2026-03-28T19:18:49Z</time></trkpt><trkpt lat="45.662636407492755" lon="10.64379812627528"><ele>104.33333333333334</ele><time>2026-03-28T19:18:50Z</time></trkpt><trkpt lat="45.66279302592187" lon="10.64396826002407"><ele>108.0</ele><time>2026-03-28T19:18:51Z</time></trkpt><trkpt lat="45.662954705895594" lon="10.644154925892817"><ele>108.0</ele><time>2026-03-28T19:18:52Z</time></trkpt><trkpt lat="45.6631118587466" lon="10.644357809400049"><ele>108.0</ele><time>2026-03-28T19:18:53Z</time></trkpt><trkpt lat="45.66328459098053" lon="10.64457275302805"><ele>108.0</ele><time>2026-03-28T19:18:54Z</time></trkpt><trkpt lat="45.663438014979405" lon="10.644753153891036"><ele>107.0</ele><time>2026-03-28T19:18:55Z</time></trkpt><trkpt lat="45.663591006603234" lon="10.644913553286488"><ele>106.0</ele><time>2026-03-28T19:18:56Z</time></trkpt><trkpt lat="45.66376864277984" lon="10.645042928544203"><ele>105.0</ele><time>2026-03-28T19:18:57Z</time></trkpt><trkpt lat="45.66396171912772" lon="10.64516159733156"><ele>105.0</ele><time>2026-03-28T19:18:58Z</time></trkpt><trkpt lat="45.66413713825198" lon="10.645245247776344"><ele>105.0</ele><time>2026-03-28T19:18:59Z</time></trkpt><trkpt lat="45.664293354749056" lon="10.645312324460436"><ele>105.0</ele><time>2026-03-28T19:19:00Z</time></trkpt><trkpt lat="45.66444576462937" lon="10.645359041279407"><ele>102.33333333333334</ele><time>2026-03-28T19:19:01Z</time></trkpt><trkpt lat="45.66457821602642" lon="10.645503349013465"><ele>99.66666666666667</ele><time>2026-03-28T19:19:02Z</time></trkpt><trkpt lat="45.66471110139358" lon="10.645663864062378"><ele>97.0</ele><time>2026-03-28T19:19:03Z</time></trkpt><trkpt lat="45.66483403969222" lon="10.645858939945295"><ele>97.0</ele><time>2026-03-28T19:19:04Z</time></trkpt><trkpt lat="45.664962369268046" lon="10.646080535541529"><ele>97.0</ele><time>2026-03-28T19:19:05Z</time></trkpt><trkpt lat="45.6650840520898" lon="10.646333774508665"><ele>97.0</ele><time>2026-03-28T19:19:06Z</time></trkpt><trkpt lat="45.66521890978081" lon="10.646608648279544"><ele>92.66666666666667</ele><time>2026-03-28T19:19:06.999Z</time></trkpt><trkpt lat="45.665368159246526" lon="10.646822601017298"><ele>88.33333333333334</ele><time>2026-03-28T19:19:07.999Z</time></trkpt><trkpt lat="45.66553867394819" lon="10.647004390829201"><ele>84.0</ele><time>2026-03-28T19:19:08.999Z</time></trkpt><trkpt lat="45.66571511733597" lon="10.647188800568852"><ele>84.0</ele><time>2026-03-28T19:19:09.999Z</time></trkpt><trkpt lat="45.66590446040128" lon="10.647354378343698"><ele>84.0</ele><time>2026-03-28T19:19:10.999Z</time></trkpt><trkpt lat="45.666105567358855" lon="10.64750711505293"><ele>83.5</ele><time>2026-03-28T19:19:11.999Z</time></trkpt><trkpt lat="45.66631100762523" lon="10.647678337678988"><ele>83.0</ele><time>2026-03-28T19:19:12.999Z</time></trkpt><trkpt lat="45.6665024339624" lon="10.647834422878883"><ele>83.0</ele><time>2026-03-28T19:19:13.999Z</time></trkpt><trkpt lat="45.666669909416854" lon="10.64797256619884"><ele>83.0</ele><time>2026-03-28T19:19:14.999Z</time></trkpt><trkpt lat="45.666798927113334" lon="10.648079727815357"><ele>83.0</ele><time>2026-03-28T19:19:15.999Z</time></trkpt><trkpt lat="45.66699938520146" lon="10.648175973274622"><ele>81.33333333333334</ele><time>2026-03-28T19:19:16.999Z</time></trkpt><trkpt lat="45.66715292168944" lon="10.648350534538725"><ele>79.66666666666667</ele><time>2026-03-28T19:19:17.999Z</time></trkpt><trkpt lat="45.66730919737019" lon="10.648563445882317"><ele>78.0</ele><time>2026-03-28T19:19:18.999Z</time></trkpt><trkpt lat="45.66748197238508" lon="10.648771010076606"><ele>78.0</ele><time>2026-03-28T19:19:19.999Z</time></trkpt><trkpt lat="45.66764554118049" lon="10.648985933864761"><ele>78.0</ele><time>2026-03-28T19:19:20.999Z</time></trkpt><trkpt lat="45.667797939594166" lon="10.649161877535391"><ele>78.0</ele><time>2026-03-28T19:19:21.999Z</time></trkpt><trkpt lat="45.667948208790826" lon="10.649312244846946"><ele>76.0</ele><time>2026-03-28T19:19:22.999Z</time></trkpt><trkpt lat="45.668099908251406" lon="10.649425481911358"><ele>74.0</ele><time>2026-03-28T19:19:23.999Z</time></trkpt><trkpt lat="45.66826585170249" lon="10.649523226134237"><ele>72.0</ele><time>2026-03-28T19:19:24.999Z</time></trkpt><trkpt lat="45.66845094773468" lon="10.64961215921325"><ele>74.0</ele><time>2026-03-28T19:19:25.999Z</time></trkpt><trkpt lat="45.66864290752158" lon="10.649704337442278"><ele>76.0</ele><time>2026-03-28T19:19:26.999Z</time></trkpt><trkpt lat="45.668805966522456" lon="10.649789498030602"><ele>78.0</ele><time>2026-03-28T19:19:28Z</time></trkpt><trkpt lat="45.66897019077299" lon="10.649866972966796"><ele>78.0</ele><time>2026-03-28T19:19:29Z</time></trkpt><trkpt lat="45.669133410024685" lon="10.649950987635044"><ele>78.0</ele><time>2026-03-28T19:19:30Z</time></trkpt><trkpt lat="45.66927888488557" lon="10.65002842023315"><ele>78.0</ele><time>2026-03-28T19:19:31Z</time></trkpt><trkpt lat="45.66941426774677" lon="10.650097132657034"><ele>78.33333333333333</ele><time>2026-03-28T19:19:32Z</time></trkpt><trkpt lat="45.66956454925653" lon="10.65017158952529"><ele>78.66666666666666</ele><time>2026-03-28T19:19:33Z</time></trkpt><trkpt lat="45.66970043570824" lon="10.650250484812032"><ele>79.0</ele><time>2026-03-28T19:19:34Z</time></trkpt><trkpt lat="45.669850480794345" lon="10.650336661321807"><ele>79.0</ele><time>2026-03-28T19:19:35Z</time></trkpt><trkpt lat="45.669981484219846" lon="10.65046054735915"><ele>79.0</ele><time>2026-03-28T19:19:36Z</time></trkpt><trkpt lat="45.670116416462896" lon="10.650594507959148"><ele>79.0</ele><time>2026-03-28T19:19:37Z</time></trkpt><trkpt lat="45.670235113901" lon="10.650738074045995"><ele>78.0</ele><time>2026-03-28T19:19:38Z</time></trkpt><trkpt lat="45.67036398436902" lon="10.650898830617034"><ele>77.0</ele><time>2026-03-28T19:19:39Z</time></trkpt><trkpt lat="45.67049318104017" lon="10.65106049462992"><ele>76.0</ele><time>2026-03-28T19:19:40Z</time></trkpt><trkpt lat="45.67065395925182" lon="10.651210977577746"><ele>76.0</ele><time>2026-03-28T19:19:41Z</time></trkpt><trkpt lat="45.67079820352805" lon="10.651341384670385"><ele>76.0</ele><time>2026-03-28T19:19:42Z</time></trkpt><trkpt lat="45.67094933754489" lon="10.651427517409873"><ele>76.0</ele><time>2026-03-28T19:19:43Z</time></trkpt><trkpt lat="45.67111589042984" lon="10.651499483846441"><ele>76.33333333333333</ele><time>2026-03-28T19:19:44Z</time></trkpt><trkpt lat="45.67129226782875" lon="10.651563364096733"><ele>76.66666666666667</ele><time>2026-03-28T19:19:45Z</time></trkpt><trkpt lat="45.67148068008943" lon="10.651606539723064"><ele>77.0</ele><time>2026-03-28T19:19:46Z</time></trkpt><trkpt lat="45.671673672987765" lon="10.651617913754121"><ele>77.0</ele><time>2026-03-28T19:19:47Z</time></trkpt><trkpt lat="45.67186932656634" lon="10.651597203363725"><ele>77.0</ele><time>2026-03-28T19:19:48Z</time></trkpt><trkpt lat="45.67204632092888" lon="10.651558266686612"><ele>77.0</ele><time>2026-03-28T19:19:49Z</time></trkpt><trkpt lat="45.67222060579394" lon="10.651491140916809"><ele>76.0</ele><time>2026-03-28T19:19:50Z</time></trkpt><trkpt lat="45.6723924855308" lon="10.651385122039413"><ele>75.0</ele><time>2026-03-28T19:19:51Z</time></trkpt><trkpt lat="45.672560775428344" lon="10.65127248327659"><ele>74.0</ele><time>2026-03-28T19:19:52Z</time></trkpt><trkpt lat="45.67270912236944" lon="10.65118305793105"><ele>74.5</ele><time>2026-03-28T19:19:53Z</time></trkpt><trkpt lat="45.67283870131149" lon="10.65110782389372"><ele>75.0</ele><time>2026-03-28T19:19:54Z</time></trkpt><trkpt lat="45.67295129944937" lon="10.65104106975408"><ele>75.5</ele><time>2026-03-28T19:19:55Z</time></trkpt><trkpt lat="45.6730592603559" lon="10.650989542992372"><ele>76.0</ele><time>2026-03-28T19:19:56Z</time></trkpt><trkpt lat="45.67315832541845" lon="10.650939345778548"><ele>76.0</ele><time>2026-03-28T19:19:57Z</time></trkpt><trkpt lat="45.673268299947075" lon="10.650878181407919"><ele>76.0</ele><time>2026-03-28T19:19:58Z</time></trkpt><trkpt lat="45.67338759871901" lon="10.650818104564063"><ele>76.0</ele><time>2026-03-28T19:19:59Z</time></trkpt><trkpt lat="45.673505585409266" lon="10.650753280813198"><ele>76.0</ele><time>2026-03-28T19:20:00Z</time></trkpt><trkpt lat="45.67362552863048" lon="10.650679246871762"><ele>75.75</ele><time>2026-03-28T19:20:01Z</time></trkpt><trkpt lat="45.67374818330908" lon="10.65061210376347"><ele>75.5</ele><time>2026-03-28T19:20:02Z</time></trkpt><trkpt lat="45.673866473938695" lon="10.650543907984229"><ele>75.25</ele><time>2026-03-28T19:20:03Z</time></trkpt><trkpt lat="45.673984795367595" lon="10.650483965408615"><ele>75.0</ele><time>2026-03-28T19:20:04Z</time></trkpt><trkpt lat="45.67408566769585" lon="10.650437549355328"><ele>75.0</ele><time>2026-03-28T19:20:05Z</time></trkpt><trkpt lat="45.674173585200585" lon="10.650407880453486"><ele>75.0</ele><time>2026-03-28T19:20:06Z</time></trkpt><trkpt lat="45.674242313616205" lon="10.65039399639215"><ele>75.0</ele><time>2026-03-28T19:20:07Z</time></trkpt><trkpt lat="45.674385693548444" lon="10.65040576012331"><ele>75.0</ele><time>2026-03-28T19:20:09Z</time></trkpt><trkpt lat="45.674503950201725" lon="10.650428979288614"><ele>75.0</ele><time>2026-03-28T19:20:10Z</time></trkpt><trkpt lat="45.67460688480148" lon="10.650435358079395"><ele>75.6</ele><time>2026-03-28T19:20:11Z</time></trkpt><trkpt lat="45.67471668560137" lon="10.650475589450803"><ele>76.2</ele><time>2026-03-28T19:20:12Z</time></trkpt><trkpt lat="45.67480630553726" lon="10.650516867239324"><ele>76.8</ele><time>2026-03-28T19:20:13Z</time></trkpt><trkpt lat="45.67490061254189" lon="10.65057380779153"><ele>77.4</ele><time>2026-03-28T19:20:14Z</time></trkpt><trkpt lat="45.67499400506389" lon="10.650649251020377"><ele>78.0</ele><time>2026-03-28T19:20:15Z</time></trkpt><trkpt lat="45.675086826251224" lon="10.65074421485038"><ele>78.0</ele><time>2026-03-28T19:20:16Z</time></trkpt><trkpt lat="45.675185074872836" lon="10.650847384233543"><ele>78.0</ele><time>2026-03-28T19:20:17Z</time></trkpt><trkpt lat="45.67526821581086" lon="10.65096024593114"><ele>78.0</ele><time>2026-03-28T19:20:18Z</time></trkpt><trkpt lat="45.675379782602086" lon="10.651097700634233"><ele>78.0</ele><time>2026-03-28T19:20:19Z</time></trkpt><trkpt lat="45.67552420750526" lon="10.651276367574381"><ele>77.33333333333333</ele><time>2026-03-28T19:20:20Z</time></trkpt><trkpt lat="45.67567932758506" lon="10.651468397272158"><ele>76.66666666666666</ele><time>2026-03-28T19:20:21Z</time></trkpt><trkpt lat="45.67584894734564" lon="10.651678451877016"><ele>76.0</ele><time>2026-03-28T19:20:22Z</time></trkpt><trkpt lat="45.67598590762895" lon="10.651848061625964"><ele>75.33333333333333</ele><time>2026-03-28T19:20:23Z</time></trkpt><trkpt lat="45.67611037247473" lon="10.65200411356392"><ele>74.66666666666667</ele><time>2026-03-28T19:20:24Z</time></trkpt><trkpt lat="45.676235683521895" lon="10.652162625408744"><ele>74.0</ele><time>2026-03-28T19:20:25Z</time></trkpt><trkpt lat="45.67635694243688" lon="10.652314184216545"><ele>74.0</ele><time>2026-03-28T19:20:26Z</time></trkpt><trkpt lat="45.67647327935303" lon="10.652433310205977"><ele>74.0</ele><time>2026-03-28T19:20:27Z</time></trkpt><trkpt lat="45.67657664668229" lon="10.652557609698619"><ele>74.0</ele><time>2026-03-28T19:20:28Z</time></trkpt><trkpt lat="45.67668884977598" lon="10.6526791136955"><ele>74.0</ele><time>2026-03-28T19:20:29Z</time></trkpt><trkpt lat="45.67681009429911" lon="10.652777434069435"><ele>73.0</ele><time>2026-03-28T19:20:30Z</time></trkpt><trkpt lat="45.67693980427012" lon="10.652861753325986"><ele>72.0</ele><time>2026-03-28T19:20:31Z</time></trkpt><trkpt lat="45.67706383355601" lon="10.65297613990664"><ele>71.0</ele><time>2026-03-28T19:20:32Z</time></trkpt><trkpt lat="45.677191552766445" lon="10.653067925380272"><ele>70.0</ele><time>2026-03-28T19:20:33Z</time></trkpt><trkpt lat="45.67732106729523" lon="10.653168359604878"><ele>70.0</ele><time>2026-03-28T19:20:34Z</time></trkpt><trkpt lat="45.67743557015071" lon="10.653285968543122"><ele>70.0</ele><time>2026-03-28T19:20:35Z</time></trkpt><trkpt lat="45.67755434074757" lon="10.653394478490577"><ele>70.0</ele><time>2026-03-28T19:20:36Z</time></trkpt><trkpt lat="45.677678491904516" lon="10.653456333564378"><ele>70.0</ele><time>2026-03-28T19:20:37Z</time></trkpt><trkpt lat="45.677809877580955" lon="10.65353257266048"><ele>70.5</ele><time>2026-03-28T19:20:38Z</time></trkpt><trkpt lat="45.677945937636146" lon="10.653590715757728"><ele>71.0</ele><time>2026-03-28T19:20:39Z</time></trkpt><trkpt lat="45.67808168807189" lon="10.65366477828657"><ele>71.5</ele><time>2026-03-28T19:20:40Z</time></trkpt><trkpt lat="45.67820877798541" lon="10.653703394681543"><ele>72.0</ele><time>2026-03-28T19:20:41Z</time></trkpt><trkpt lat="45.678336356171435" lon="10.653734741814374"><ele>70.75</ele><time>2026-03-28T19:20:42Z</time></trkpt><trkpt lat="45.67846721109776" lon="10.653768479612623"><ele>69.5</ele><time>2026-03-28T19:20:43Z</time></trkpt><trkpt lat="45.67859887060711" lon="10.653813919242701"><ele>68.25</ele><time>2026-03-28T19:20:44Z</time></trkpt><trkpt lat="45.6787377466859" lon="10.653834910347975"><ele>67.0</ele><time>2026-03-28T19:20:45Z</time></trkpt><trkpt lat="45.6788838370945" lon="10.653859667460702"><ele>67.0</ele><time>2026-03-28T19:20:46Z</time></trkpt><trkpt lat="45.67904331795057" lon="10.653892289902346"><ele>67.0</ele><time>2026-03-28T19:20:47Z</time></trkpt><trkpt lat="45.67920031190512" lon="10.653924664162854"><ele>67.0</ele><time>2026-03-28T19:20:48Z</time></trkpt><trkpt lat="45.67935546978034" lon="10.653963113636523"><ele>68.0</ele><time>2026-03-28T19:20:49Z</time></trkpt><trkpt lat="45.67950939972175" lon="10.65399735691599"><ele>69.0</ele><time>2026-03-28T19:20:50Z</time></trkpt><trkpt lat="45.67965680059569" lon="10.654022886769122"><ele>70.0</ele><time>2026-03-28T19:20:51Z</time></trkpt><trkpt lat="45.679828196768" lon="10.654051912035422"><ele>70.0</ele><time>2026-03-28T19:20:52Z</time></trkpt><trkpt lat="45.679979814894544" lon="10.65408410328506"><ele>70.0</ele><time>2026-03-28T19:20:53Z</time></trkpt><trkpt lat="45.680140117194966" lon="10.654123692374482"><ele>70.0</ele><time>2026-03-28T19:20:54Z</time></trkpt><trkpt lat="45.68029735468249" lon="10.654150630241773"><ele>71.66666666666666</ele><time>2026-03-28T19:20:55Z</time></trkpt><trkpt lat="45.68044784567263" lon="10.65418329877048"><ele>73.33333333333333</ele><time>2026-03-28T19:20:56Z</time></trkpt><trkpt lat="45.68059789514268" lon="10.654214886175954"><ele>75.0</ele><time>2026-03-28T19:20:57Z</time></trkpt><trkpt lat="45.68074779380143" lon="10.65424983467376"><ele>75.0</ele><time>2026-03-28T19:20:58Z</time></trkpt><trkpt lat="45.680886903767316" lon="10.654307310443691"><ele>75.0</ele><time>2026-03-28T19:20:59Z</time></trkpt><trkpt lat="45.681044644505654" lon="10.654349039319854"><ele>75.0</ele><time>2026-03-28T19:21:00Z</time></trkpt><trkpt lat="45.681191064927305" lon="10.654415793649317"><ele>74.66666666666667</ele><time>2026-03-28T19:21:01Z</time></trkpt><trkpt lat="45.681345408921665" lon="10.654494695185"><ele>74.33333333333334</ele><time>2026-03-28T19:21:02Z</time></trkpt><trkpt lat="45.6815036773041" lon="10.654616848607935"><ele>74.0</ele><time>2026-03-28T19:21:03Z</time></trkpt><trkpt lat="45.68165465841887" lon="10.654668021862237"><ele>74.0</ele><time>2026-03-28T19:21:04Z</time></trkpt><trkpt lat="45.68178899052476" lon="10.654800555471253"><ele>74.0</ele><time>2026-03-28T19:21:05Z</time></trkpt><trkpt lat="45.68188332974765" lon="10.65500830997493"><ele>74.0</ele><time>2026-03-28T19:21:06Z</time></trkpt><trkpt lat="45.68200039013432" lon="10.655164009701506"><ele>75.66666666666667</ele><time>2026-03-28T19:21:07Z</time></trkpt><trkpt lat="45.68211821000072" lon="10.655335527048388"><ele>77.33333333333333</ele><time>2026-03-28T19:21:08Z</time></trkpt><trkpt lat="45.68223462570306" lon="10.655499662141917"><ele>79.0</ele><time>2026-03-28T19:21:09Z</time></trkpt><trkpt lat="45.682358802998316" lon="10.655674740088148"><ele>79.0</ele><time>2026-03-28T19:21:10Z</time></trkpt><trkpt lat="45.68248460594178" lon="10.655852677891515"><ele>79.0</ele><time>2026-03-28T19:21:11Z</time></trkpt><trkpt lat="45.682609197648866" lon="10.656029322299228"><ele>79.0</ele><time>2026-03-28T19:21:12Z</time></trkpt><trkpt lat="45.68272667115393" lon="10.656195874275122"><ele>80.0</ele><time>2026-03-28T19:21:13Z</time></trkpt><trkpt lat="45.682829491224446" lon="10.656341651176716"><ele>81.0</ele><time>2026-03-28T19:21:14Z</time></trkpt><trkpt lat="45.682933773088415" lon="10.656489500532002"><ele>82.0</ele><time>2026-03-28T19:21:14.999Z</time></trkpt><trkpt lat="45.68303756957919" lon="10.656636660413428"><ele>83.0</ele><time>2026-03-28T19:21:15.999Z</time></trkpt><trkpt lat="45.683150971711015" lon="10.656766474000475"><ele>83.0</ele><time>2026-03-28T19:21:16.999Z</time></trkpt><trkpt lat="45.683246986879354" lon="10.656929272401795"><ele>83.0</ele><time>2026-03-28T19:21:17.999Z</time></trkpt><trkpt lat="45.68335055878362" lon="10.657075356600657"><ele>83.0</ele><time>2026-03-28T19:21:18.999Z</time></trkpt><trkpt lat="45.68346477873859" lon="10.65721206802096"><ele>83.0</ele><time>2026-03-28T19:21:19.999Z</time></trkpt><trkpt lat="45.68356610236872" lon="10.657371769328865"><ele>84.33333333333334</ele><time>2026-03-28T19:21:20.999Z</time></trkpt><trkpt lat="45.683678527984604" lon="10.657516095006189"><ele>85.66666666666667</ele><time>2026-03-28T19:21:21.999Z</time></trkpt><trkpt lat="45.68380399419509" lon="10.657646047057398"><ele>87.0</ele><time>2026-03-28T19:21:22.999Z</time></trkpt><trkpt lat="45.68393641839973" lon="10.657774792953274"><ele>82.33333333333333</ele><time>2026-03-28T19:21:23.999Z</time></trkpt><trkpt lat="45.68407597998236" lon="10.657902216398519"><ele>77.66666666666666</ele><time>2026-03-28T19:21:24.999Z</time></trkpt><trkpt lat="45.68420760991539" lon="10.658030247856397"><ele>73.0</ele><time>2026-03-28T19:21:25.999Z</time></trkpt><trkpt lat="45.684334157414696" lon="10.658154522854925"><ele>78.33333333333333</ele><time>2026-03-28T19:21:26.999Z</time></trkpt><trkpt lat="45.68446321294148" lon="10.658278244439"><ele>83.66666666666667</ele><time>2026-03-28T19:21:27.999Z</time></trkpt><trkpt lat="45.6845983326455" lon="10.658398286371558"><ele>89.0</ele><time>2026-03-28T19:21:28.999Z</time></trkpt><trkpt lat="45.68472780566623" lon="10.6585220508653"><ele>84.0</ele><time>2026-03-28T19:21:29.999Z</time></trkpt><trkpt lat="45.68486250568947" lon="10.658643713784112"><ele>79.0</ele><time>2026-03-28T19:21:30.999Z</time></trkpt><trkpt lat="45.68499414151115" lon="10.658768560542564"><ele>74.0</ele><time>2026-03-28T19:21:31.999Z</time></trkpt><trkpt lat="45.685127495193086" lon="10.658893329843592"><ele>74.0</ele><time>2026-03-28T19:21:32.999Z</time></trkpt><trkpt lat="45.685253427679605" lon="10.659016545984592"><ele>74.0</ele><time>2026-03-28T19:21:34Z</time></trkpt><trkpt lat="45.68538125435009" lon="10.659143328015757"><ele>74.0</ele><time>2026-03-28T19:21:35Z</time></trkpt><trkpt lat="45.68551020228035" lon="10.65927510048818"><ele>73.33333333333334</ele><time>2026-03-28T19:21:36Z</time></trkpt><trkpt lat="45.68564239262361" lon="10.659401694669304"><ele>72.66666666666667</ele><time>2026-03-28T19:21:37Z</time></trkpt><trkpt lat="45.685772599238014" lon="10.659521627827875"><ele>72.0</ele><time>2026-03-28T19:21:38Z</time></trkpt><trkpt lat="45.685888432428726" lon="10.659645395859505"><ele>72.0</ele><time>2026-03-28T19:21:39Z</time></trkpt><trkpt lat="45.686011064489136" lon="10.659761522525342"><ele>72.0</ele><time>2026-03-28T19:21:40Z</time></trkpt><trkpt lat="45.68614400953066" lon="10.659883775177029"><ele>72.0</ele><time>2026-03-28T19:21:41Z</time></trkpt><trkpt lat="45.686283776594735" lon="10.659995606008259"><ele>76.0</ele><time>2026-03-28T19:21:42Z</time></trkpt><trkpt lat="45.68642839340061" lon="10.660093586071019"><ele>80.0</ele><time>2026-03-28T19:21:43Z</time></trkpt><trkpt lat="45.686578424141" lon="10.660194296143587"><ele>84.0</ele><time>2026-03-28T19:21:44Z</time></trkpt><trkpt lat="45.6867186145649" lon="10.660281374743834"><ele>83.0</ele><time>2026-03-28T19:21:45Z</time></trkpt><trkpt lat="45.68684269847049" lon="10.660368934346927"><ele>82.0</ele><time>2026-03-28T19:21:46Z</time></trkpt><trkpt lat="45.68697004290288" lon="10.66045337256155"><ele>81.0</ele><time>2026-03-28T19:21:47Z</time></trkpt><trkpt lat="45.68710653162153" lon="10.660532041980495"><ele>80.0</ele><time>2026-03-28T19:21:48Z</time></trkpt><trkpt lat="45.6872411928712" lon="10.660608232916843"><ele>80.0</ele><time>2026-03-28T19:21:49Z</time></trkpt><trkpt lat="45.68737497543865" lon="10.660689592061367"><ele>80.0</ele><time>2026-03-28T19:21:50Z</time></trkpt><trkpt lat="45.687510936199516" lon="10.660773782349152"><ele>80.0</ele><time>2026-03-28T19:21:51Z</time></trkpt><trkpt lat="45.68764086059956" lon="10.660865222278549"><ele>80.0</ele><time>2026-03-28T19:21:52Z</time></trkpt><trkpt lat="45.68777229233284" lon="10.660961481329789"><ele>82.66666666666667</ele><time>2026-03-28T19:21:53Z</time></trkpt><trkpt lat="45.68790088176201" lon="10.661079385066111"><ele>85.33333333333333</ele><time>2026-03-28T19:21:54Z</time></trkpt><trkpt lat="45.688015040244494" lon="10.661217353746467"><ele>88.0</ele><time>2026-03-28T19:21:55Z</time></trkpt><trkpt lat="45.688135672073145" lon="10.661363450861787"><ele>88.0</ele><time>2026-03-28T19:21:56Z</time></trkpt><trkpt lat="45.688261659091914" lon="10.66151044200754"><ele>88.0</ele><time>2026-03-28T19:21:57Z</time></trkpt><trkpt lat="45.68837836151903" lon="10.661686380699155"><ele>88.0</ele><time>2026-03-28T19:21:58Z</time></trkpt><trkpt lat="45.6884943369166" lon="10.661859485175796"><ele>89.25</ele><time>2026-03-28T19:21:59Z</time></trkpt><trkpt lat="45.688584186771415" lon="10.662031110624605"><ele>90.5</ele><time>2026-03-28T19:22:00Z</time></trkpt><trkpt lat="45.688665945173604" lon="10.662173689512317"><ele>91.75</ele><time>2026-03-28T19:22:01Z</time></trkpt><trkpt lat="45.68874789106002" lon="10.662322457706606"><ele>93.0</ele><time>2026-03-28T19:22:02Z</time></trkpt><trkpt lat="45.68881889613332" lon="10.66245952406926"><ele>93.0</ele><time>2026-03-28T19:22:03Z</time></trkpt><trkpt lat="45.688895412120935" lon="10.662610180929505"><ele>93.0</ele><time>2026-03-28T19:22:04Z</time></trkpt><trkpt lat="45.68897112147427" lon="10.662759188292508"><ele>93.0</ele><time>2026-03-28T19:22:05Z</time></trkpt><trkpt lat="45.6890488903178" lon="10.662915940281435"><ele>93.0</ele><time>2026-03-28T19:22:06Z</time></trkpt><trkpt lat="45.68913103148838" lon="10.663081584816275"><ele>91.5</ele><time>2026-03-28T19:22:07Z</time></trkpt><trkpt lat="45.689212236145934" lon="10.66324524110862"><ele>90.0</ele><time>2026-03-28T19:22:08Z</time></trkpt><trkpt lat="45.68929546775969" lon="10.663412545482174"><ele>88.5</ele><time>2026-03-28T19:22:09Z</time></trkpt><trkpt lat="45.68938487904676" lon="10.663584936600056"><ele>87.0</ele><time>2026-03-28T19:22:10Z</time></trkpt><trkpt lat="45.689487330965285" lon="10.663748785122289"><ele>90.0</ele><time>2026-03-28T19:22:11Z</time></trkpt><trkpt lat="45.68958769028364" lon="10.663912434338053"><ele>93.0</ele><time>2026-03-28T19:22:12Z</time></trkpt><trkpt lat="45.6896978943392" lon="10.664028415794904"><ele>96.0</ele><time>2026-03-28T19:22:13Z</time></trkpt><trkpt lat="45.6897958915283" lon="10.664142340245816"><ele>99.0</ele><time>2026-03-28T19:22:14Z</time></trkpt><trkpt lat="45.68993511638848" lon="10.664189479344286"><ele>99.0</ele><time>2026-03-28T19:22:15Z</time></trkpt><trkpt lat="45.69005740682596" lon="10.66421992399598"><ele>99.0</ele><time>2026-03-28T19:22:16Z</time></trkpt><trkpt lat="45.69015793659174" lon="10.664230750844242"><ele>99.0</ele><time>2026-03-28T19:22:17Z</time></trkpt><trkpt lat="45.69023811780566" lon="10.664245211932956"><ele>99.0</ele><time>2026-03-28T19:22:18Z</time></trkpt><trkpt lat="45.690346224380036" lon="10.664275851961987"><ele>99.0</ele><time>2026-03-28T19:22:20Z</time></trkpt><trkpt lat="45.69042134719178" lon="10.664293241979097"><ele>99.25</ele><time>2026-03-28T19:22:22Z</time></trkpt><trkpt lat="45.69054613899855" lon="10.664386451168738"><ele>99.5</ele><time>2026-03-28T19:22:46Z</time></trkpt><trkpt lat="45.690638664079295" lon="10.664449561539998"><ele>99.75</ele><time>2026-03-28T19:22:47Z</time></trkpt><trkpt lat="45.69071911888508" lon="10.664552642023224"><ele>100.0</ele><time>2026-03-28T19:22:48Z</time></trkpt><trkpt lat="45.69079184503304" lon="10.664672470431283"><ele>100.0</ele><time>2026-03-28T19:22:49Z</time></trkpt><trkpt lat="45.690871576382456" lon="10.664785263951329"><ele>100.0</ele><time>2026-03-28T19:22:50Z</time></trkpt><trkpt lat="45.690925236926695" lon="10.664935502782885"><ele>100.0</ele><time>2026-03-28T19:22:51Z</time></trkpt><trkpt lat="45.69100864551305" lon="10.66504866192375"><ele>100.0</ele><time>2026-03-28T19:22:52Z</time></trkpt><trkpt lat="45.69109735731065" lon="10.665164228189376"><ele>102.66666666666667</ele><time>2026-03-28T19:22:53Z</time></trkpt><trkpt lat="45.69118488232231" lon="10.665290426334588"><ele>105.33333333333334</ele><time>2026-03-28T19:22:54Z</time></trkpt><trkpt lat="45.69129195396486" lon="10.665467654742008"><ele>108.0</ele><time>2026-03-28T19:22:55Z</time></trkpt><trkpt lat="45.69143388145758" lon="10.665696889071677"><ele>108.0</ele><time>2026-03-28T19:22:56Z</time></trkpt><trkpt lat="45.691584539864635" lon="10.665941164985766"><ele>108.0</ele><time>2026-03-28T19:22:57Z</time></trkpt><trkpt lat="45.69173388003047" lon="10.666179165640102"><ele>109.66666666666666</ele><time>2026-03-28T19:22:58Z</time></trkpt><trkpt lat="45.691852722107384" lon="10.666368118855837"><ele>111.33333333333333</ele><time>2026-03-28T19:22:59Z</time></trkpt><trkpt lat="45.69195540642401" lon="10.666541455641307"><ele>113.0</ele><time>2026-03-28T19:23:00Z</time></trkpt><trkpt lat="45.69206096459122" lon="10.666702144593318"><ele>113.0</ele><time>2026-03-28T19:23:01Z</time></trkpt><trkpt lat="45.692151377300405" lon="10.666855902874058"><ele>113.0</ele><time>2026-03-28T19:23:02Z</time></trkpt><trkpt lat="45.69223477206795" lon="10.666981765051757"><ele>113.0</ele><time>2026-03-28T19:23:03Z</time></trkpt><trkpt lat="45.69232424176116" lon="10.667071626367782"><ele>113.0</ele><time>2026-03-28T19:23:04Z</time></trkpt><trkpt lat="45.692424089869945" lon="10.66713501656982"><ele>112.2</ele><time>2026-03-28T19:23:05Z</time></trkpt><trkpt lat="45.692524423005075" lon="10.667181782333438"><ele>111.4</ele><time>2026-03-28T19:23:06Z</time></trkpt><trkpt lat="45.69263276971418" lon="10.667195254181532"><ele>110.60000000000001</ele><time>2026-03-28T19:23:07Z</time></trkpt><trkpt lat="45.69273225588516" lon="10.667204185412603"><ele>109.80000000000001</ele><time>2026-03-28T19:23:08Z</time></trkpt><trkpt lat="45.692846823895316" lon="10.667211754791301"><ele>109.0</ele><time>2026-03-28T19:23:09Z</time></trkpt><trkpt lat="45.692957919759564" lon="10.667218476862475"><ele>109.0</ele><time>2026-03-28T19:23:10Z</time></trkpt><trkpt lat="45.69307377017119" lon="10.667228500721857"><ele>109.0</ele><time>2026-03-28T19:23:11Z</time></trkpt><trkpt lat="45.69318888460528" lon="10.667258921275202"><ele>109.0</ele><time>2026-03-28T19:23:12Z</time></trkpt><trkpt lat="45.69331344297687" lon="10.667287948313247"><ele>109.0</ele><time>2026-03-28T19:23:13Z</time></trkpt><trkpt lat="45.69344162569404" lon="10.667318588611593"><ele>109.0</ele><time>2026-03-28T19:23:14Z</time></trkpt><trkpt lat="45.6935516005836" lon="10.667372751051339"><ele>109.0</ele><time>2026-03-28T19:23:15Z</time></trkpt><trkpt lat="45.693640467585745" lon="10.66748760654802"><ele>109.0</ele><time>2026-03-28T19:23:16Z</time></trkpt><trkpt lat="45.69374005243251" lon="10.667619036363082"><ele>109.0</ele><time>2026-03-28T19:23:16.999Z</time></trkpt><trkpt lat="45.69385181144028" lon="10.6677749953376"><ele>108.0</ele><time>2026-03-28T19:23:17.999Z</time></trkpt><trkpt lat="45.69399684564666" lon="10.66792730181416"><ele>107.0</ele><time>2026-03-28T19:23:18.999Z</time></trkpt><trkpt lat="45.69417416069995" lon="10.668072466604265"><ele>106.0</ele><time>2026-03-28T19:23:19.999Z</time></trkpt><trkpt lat="45.694390275820645" lon="10.668173497174738"><ele>113.66666666666667</ele><time>2026-03-28T19:23:20.999Z</time></trkpt><trkpt lat="45.69460257032606" lon="10.668251556347878"><ele>121.33333333333334</ele><time>2026-03-28T19:23:21.999Z</time></trkpt><trkpt lat="45.69477335192841" lon="10.668324372263047"><ele>129.0</ele><time>2026-03-28T19:23:22.999Z</time></trkpt><trkpt lat="45.69488897632039" lon="10.668464766647853"><ele>123.33333333333334</ele><time>2026-03-28T19:23:23.999Z</time></trkpt><trkpt lat="45.69499371188783" lon="10.668635761772755"><ele>117.66666666666667</ele><time>2026-03-28T19:23:24.999Z</time></trkpt><trkpt lat="45.695075699484605" lon="10.668830251657425"><ele>112.0</ele><time>2026-03-28T19:23:25.999Z</time></trkpt><trkpt lat="45.69517194534737" lon="10.669060491505263"><ele>121.5</ele><time>2026-03-28T19:23:26.999Z</time></trkpt><trkpt lat="45.69528606797399" lon="10.669332258791078"><ele>131.0</ele><time>2026-03-28T19:23:27.999Z</time></trkpt><trkpt lat="45.69540770797356" lon="10.669621927643847"><ele>131.0</ele><time>2026-03-28T19:23:28.999Z</time></trkpt><trkpt lat="45.69553711001953" lon="10.669929037659061"><ele>131.0</ele><time>2026-03-28T19:23:29.999Z</time></trkpt><trkpt lat="45.69565731409333" lon="10.67021391803027"><ele>128.33333333333331</ele><time>2026-03-28T19:23:30.999Z</time></trkpt><trkpt lat="45.695758844100595" lon="10.670463668480528"><ele>125.66666666666666</ele><time>2026-03-28T19:23:31.999Z</time></trkpt><trkpt lat="45.695826714481385" lon="10.670684974076122"><ele>123.0</ele><time>2026-03-28T19:23:32.999Z</time></trkpt><trkpt lat="45.69589517813356" lon="10.67092146044794"><ele>119.66666666666666</ele><time>2026-03-28T19:23:33.999Z</time></trkpt><trkpt lat="45.69597901161136" lon="10.671134132600988"><ele>116.33333333333333</ele><time>2026-03-28T19:23:34.999Z</time></trkpt><trkpt lat="45.69600035514308" lon="10.671346674560077"><ele>113.0</ele><time>2026-03-28T19:23:35.999Z</time></trkpt><trkpt lat="45.696219782454754" lon="10.671472516736333"><ele>115.33333333333333</ele><time>2026-03-28T19:23:36.999Z</time></trkpt><trkpt lat="45.69638189505636" lon="10.67166264797953"><ele>117.66666666666666</ele><time>2026-03-28T19:23:37.999Z</time></trkpt><trkpt lat="45.69654146437516" lon="10.67189123201967"><ele>120.0</ele><time>2026-03-28T19:23:38.999Z</time></trkpt><trkpt lat="45.69673029124876" lon="10.672110502702207"><ele>120.0</ele><time>2026-03-28T19:23:40Z</time></trkpt><trkpt lat="45.6968872013649" lon="10.672322462570177"><ele>120.0</ele><time>2026-03-28T19:23:41Z</time></trkpt><trkpt lat="45.6970332070296" lon="10.672508415603817"><ele>120.0</ele><time>2026-03-28T19:23:42Z</time></trkpt><trkpt lat="45.69715227062072" lon="10.672698263401346"><ele>123.66666666666666</ele><time>2026-03-28T19:23:43Z</time></trkpt><trkpt lat="45.6972565095516" lon="10.672899741493223"><ele>127.33333333333333</ele><time>2026-03-28T19:23:44Z</time></trkpt><trkpt lat="45.69737764023663" lon="10.673146287538996"><ele>131.0</ele><time>2026-03-28T19:23:45Z</time></trkpt><trkpt lat="45.697509147593685" lon="10.673412650466043"><ele>126.0</ele><time>2026-03-28T19:23:46Z</time></trkpt><trkpt lat="45.69766299216752" lon="10.673709467727509"><ele>121.0</ele><time>2026-03-28T19:23:47Z</time></trkpt><trkpt lat="45.69785312061216" lon="10.67394804602229"><ele>126.5</ele><time>2026-03-28T19:23:48Z</time></trkpt><trkpt lat="45.69804879171566" lon="10.674217650858782"><ele>132.0</ele><time>2026-03-28T19:23:49Z</time></trkpt><trkpt lat="45.69824541729492" lon="10.674503150287961"><ele>132.0</ele><time>2026-03-28T19:23:50Z</time></trkpt><trkpt lat="45.69843441176296" lon="10.674794256920228"><ele>132.0</ele><time>2026-03-28T19:23:51Z</time></trkpt><trkpt lat="45.69862282376661" lon="10.675112073370322"><ele>137.5</ele><time>2026-03-28T19:23:52Z</time></trkpt><trkpt lat="45.69882233572033" lon="10.675362025230557"><ele>143.0</ele><time>2026-03-28T19:23:53Z</time></trkpt><trkpt lat="45.69898272837798" lon="10.675612098429644"><ele>143.0</ele><time>2026-03-28T19:23:54Z</time></trkpt><trkpt lat="45.699138453957744" lon="10.675822401347187"><ele>143.0</ele><time>2026-03-28T19:23:55Z</time></trkpt><trkpt lat="45.69927601371067" lon="10.676018726808394"><ele>143.0</ele><time>2026-03-28T19:23:56Z</time></trkpt><trkpt lat="45.69934814314408" lon="10.676264733416737"><ele>142.66666666666666</ele><time>2026-03-28T19:23:57Z</time></trkpt><trkpt lat="45.699451504485225" lon="10.676493854123676"><ele>142.33333333333334</ele><time>2026-03-28T19:23:58Z</time></trkpt><trkpt lat="45.69956696434592" lon="10.676738723193834"><ele>142.0</ele><time>2026-03-28T19:23:59Z</time></trkpt><trkpt lat="45.699684042294976" lon="10.676955178846272"><ele>142.0</ele><time>2026-03-28T19:24:00Z</time></trkpt><trkpt lat="45.69982703906297" lon="10.677180699884426"><ele>142.0</ele><time>2026-03-28T19:24:01Z</time></trkpt><trkpt lat="45.699975471622885" lon="10.677411016348625"><ele>142.0</ele><time>2026-03-28T19:24:02Z</time></trkpt><trkpt lat="45.700488818687305" lon="10.677457656019445"><ele>159.0</ele><time>2026-03-28T19:24:04Z</time></trkpt><trkpt lat="45.70069937615282" lon="10.677520055165976"><ele>176.0</ele><time>2026-03-28T19:24:05Z</time></trkpt><trkpt lat="45.70100887692843" lon="10.677659509709223"><ele>172.66666666666666</ele><time>2026-03-28T19:24:06Z</time></trkpt><trkpt lat="45.70121086761361" lon="10.6777631030332"><ele>169.33333333333334</ele><time>2026-03-28T19:24:07Z</time></trkpt><trkpt lat="45.70140795281809" lon="10.677890781562095"><ele>166.0</ele><time>2026-03-28T19:24:08Z</time></trkpt><trkpt lat="45.70144188496921" lon="10.678782133045384"><ele>166.0</ele><time>2026-03-28T19:24:09Z</time></trkpt><trkpt lat="45.70160330556738" lon="10.678982651549338"><ele>166.0</ele><time>2026-03-28T19:24:10Z</time></trkpt><trkpt lat="45.701740755046735" lon="10.679205493207219"><ele>166.0</ele><time>2026-03-28T19:24:11Z</time></trkpt><trkpt lat="45.70186437666577" lon="10.679446973054654"><ele>171.66666666666669</ele><time>2026-03-28T19:24:12Z</time></trkpt><trkpt lat="45.7020000171678" lon="10.679725068937088"><ele>177.33333333333334</ele><time>2026-03-28T19:24:13Z</time></trkpt><trkpt lat="45.70211636194466" lon="10.679969661860842"><ele>183.0</ele><time>2026-03-28T19:24:14Z</time></trkpt><trkpt lat="45.70221923162062" lon="10.680165204203503"><ele>175.75</ele><time>2026-03-28T19:24:15Z</time></trkpt><trkpt lat="45.70232836574899" lon="10.680327692634629"><ele>168.5</ele><time>2026-03-28T19:24:16Z</time></trkpt><trkpt lat="45.70244670000792" lon="10.680434774433182"><ele>161.25</ele><time>2026-03-28T19:24:17Z</time></trkpt><trkpt lat="45.702557841633464" lon="10.680503542694044"><ele>154.0</ele><time>2026-03-28T19:24:18Z</time></trkpt><trkpt lat="45.70266598540556" lon="10.680551692585446"><ele>164.75</ele><time>2026-03-28T19:24:19Z</time></trkpt><trkpt lat="45.70276955584724" lon="10.680622496385277"><ele>175.5</ele><time>2026-03-28T19:24:20Z</time></trkpt><trkpt lat="45.70285917311263" lon="10.680722344279756"><ele>186.25</ele><time>2026-03-28T19:24:21Z</time></trkpt><trkpt lat="45.70293636761668" lon="10.680858610313797"><ele>197.0</ele><time>2026-03-28T19:24:22Z</time></trkpt><trkpt lat="45.7030100832206" lon="10.680994905299304"><ele>190.0</ele><time>2026-03-28T19:24:23Z</time></trkpt><trkpt lat="45.70305767090611" lon="10.681134548638553"><ele>183.0</ele><time>2026-03-28T19:24:24Z</time></trkpt><trkpt lat="45.70311223500955" lon="10.681254990508835"><ele>176.0</ele><time>2026-03-28T19:24:25Z</time></trkpt><trkpt lat="45.703161353255034" lon="10.681377423265491"><ele>169.0</ele><time>2026-03-28T19:24:26Z</time></trkpt><trkpt lat="45.70321290493679" lon="10.681498807206285"><ele>162.0</ele><time>2026-03-28T19:24:27Z</time></trkpt><trkpt lat="45.70324942862546" lon="10.681636456277207"><ele>162.0</ele><time>2026-03-28T19:24:28Z</time></trkpt><trkpt lat="45.70328777257954" lon="10.68178033464191"><ele>162.0</ele><time>2026-03-28T19:24:29Z</time></trkpt><trkpt lat="45.70333583057758" lon="10.68191921702442"><ele>162.0</ele><time>2026-03-28T19:24:30Z</time></trkpt><trkpt lat="45.7033749940085" lon="10.682127606148399"><ele>162.0</ele><time>2026-03-28T19:24:31Z</time></trkpt><trkpt lat="45.703421294332095" lon="10.682254608939305"><ele>160.75</ele><time>2026-03-28T19:24:32Z</time></trkpt><trkpt lat="45.70346076437383" lon="10.68237446063937"><ele>159.5</ele><time>2026-03-28T19:24:33Z</time></trkpt><trkpt lat="45.70350295194492" lon="10.682504809282918"><ele>158.25</ele><time>2026-03-28T19:24:34Z</time></trkpt><trkpt lat="45.703545504233304" lon="10.682637459471254"><ele>157.0</ele><time>2026-03-28T19:24:35.013Z</time></trkpt><trkpt lat="45.70405398390879" lon="10.68425427562183"><ele>159.0</ele><time>2026-03-28T19:24:49.258Z</time></trkpt><trkpt lat="45.7041330132364" lon="10.684500638175574"><ele>161.0</ele><time>2026-03-28T19:24:51.912Z</time></trkpt><trkpt lat="45.70422262563358" lon="10.684901372368776"><ele>161.0</ele><time>2026-03-28T19:24:56.38Z</time></trkpt><trkpt lat="45.704308246904354" lon="10.685090543586147"><ele>161.0</ele><time>2026-03-28T19:24:58.924Z</time></trkpt><trkpt lat="45.704435467083265" lon="10.685542960571686"><ele>158.5</ele><time>2026-03-28T19:25:04.995Z</time></trkpt><trkpt lat="45.70453626468523" lon="10.686163538317148"><ele>156.0</ele><time>2026-03-28T19:25:14.216Z</time></trkpt><trkpt lat="45.70827454798455" lon="10.69195535034937"><ele>170.5</ele><time>2026-03-28T19:25:31.999Z</time></trkpt><trkpt lat="45.70832504971224" lon="10.692190883754025"><ele>185.0</ele><time>2026-03-28T19:25:32.999Z</time></trkpt><trkpt lat="45.708358797368156" lon="10.692383547184539"><ele>199.5</ele><time>2026-03-28T19:25:33.999Z</time></trkpt><trkpt lat="45.70836652582328" lon="10.692555961957435"><ele>214.0</ele><time>2026-03-28T19:25:34.999Z</time></trkpt><trkpt lat="45.70838768686563" lon="10.692717871170549"><ele>214.0</ele><time>2026-03-28T19:25:35.999Z</time></trkpt><trkpt lat="45.708470709665704" lon="10.692974295328165"><ele>214.0</ele><time>2026-03-28T19:25:37.011Z</time></trkpt><trkpt lat="45.70855504161685" lon="10.693350043815594"><ele>228.75</ele><time>2026-03-28T19:25:38.999Z</time></trkpt><trkpt lat="45.70858180361016" lon="10.693525423062132"><ele>243.5</ele><time>2026-03-28T19:25:39.999Z</time></trkpt><trkpt lat="45.70859491284622" lon="10.69373078179261"><ele>258.25</ele><time>2026-03-28T19:25:40.999Z</time></trkpt><trkpt lat="45.70864653761602" lon="10.693922319945068"><ele>273.0</ele><time>2026-03-28T19:25:41.999Z</time></trkpt><trkpt lat="45.70872045265375" lon="10.69409195676064"><ele>273.0</ele><time>2026-03-28T19:25:42.999Z</time></trkpt><trkpt lat="45.708781246591386" lon="10.69429318526107"><ele>273.0</ele><time>2026-03-28T19:25:43.999Z</time></trkpt><trkpt lat="45.708832052193415" lon="10.694480081065391"><ele>273.0</ele><time>2026-03-28T19:25:44.999Z</time></trkpt><trkpt lat="45.708922113745196" lon="10.694625090605962"><ele>273.0</ele><time>2026-03-28T19:25:46.016Z</time></trkpt><trkpt lat="45.70900439619322" lon="10.694773615086492"><ele>273.0</ele><time>2026-03-28T19:25:47.015Z</time></trkpt><trkpt lat="45.70926485006262" lon="10.695236160215622"><ele>273.0</ele><time>2026-03-28T19:25:50.067Z</time></trkpt><trkpt lat="45.709355283698464" lon="10.695399718193165"><ele>282.0</ele><time>2026-03-28T19:25:51.067Z</time></trkpt><trkpt lat="45.709264042224646" lon="10.695836707559078"><ele>291.0</ele><time>2026-03-28T19:25:52.063Z</time></trkpt><trkpt lat="45.710416324289916" lon="10.696874775630219"><ele>276.75</ele><time>2026-03-28T19:25:53.066Z</time></trkpt><trkpt lat="45.710597919734475" lon="10.69703385352395"><ele>262.5</ele><time>2026-03-28T19:25:54.063Z</time></trkpt><trkpt lat="45.7106634269586" lon="10.697105216810542"><ele>248.25</ele><time>2026-03-28T19:25:55.067Z</time></trkpt><trkpt lat="45.71072723950336" lon="10.697182350537025"><ele>234.0</ele><time>2026-03-28T19:25:56.065Z</time></trkpt><trkpt lat="45.71080472073723" lon="10.697277433840776"><ele>234.0</ele><time>2026-03-28T19:25:57.063Z</time></trkpt><trkpt lat="45.71088427330872" lon="10.69738184319539"><ele>234.0</ele><time>2026-03-28T19:25:58.067Z</time></trkpt><trkpt lat="45.71097651173037" lon="10.697519113127864"><ele>234.0</ele><time>2026-03-28T19:25:59.067Z</time></trkpt><trkpt lat="45.71101172253373" lon="10.697703196428073"><ele>234.0</ele><time>2026-03-28T19:26:00.066Z</time></trkpt><trkpt lat="45.71102596190161" lon="10.697858215555806"><ele>234.0</ele><time>2026-03-28T19:26:02.064Z</time></trkpt><trkpt lat="45.71050438976881" lon="10.69730149627325"><ele>185.0</ele><time>2026-03-28T19:26:04.067Z</time></trkpt><trkpt lat="45.71094121588934" lon="10.697962478631911"><ele>185.0</ele><time>2026-03-28T19:26:05.067Z</time></trkpt><trkpt lat="45.71098793908383" lon="10.698043875581398"><ele>185.0</ele><time>2026-03-28T19:26:09.063Z</time></trkpt><trkpt lat="45.711034708724306" lon="10.698114291431505"><ele>185.0</ele><time>2026-03-28T19:26:12.063Z</time></trkpt><trkpt lat="45.71108929849912" lon="10.698181511894322"><ele>185.0</ele><time>2026-03-28T19:26:15.067Z</time></trkpt><trkpt lat="45.71114247035571" lon="10.698262173524707"><ele>185.0</ele><time>2026-03-28T19:26:18.067Z</time></trkpt><trkpt lat="45.71118662101577" lon="10.698331065472525"><ele>185.0</ele><time>2026-03-28T19:26:20Z</time></trkpt><trkpt lat="45.71262969233256" lon="10.700446835867533"><ele>183.8</ele><time>2026-03-28T19:26:22Z</time></trkpt><trkpt lat="45.712710731734234" lon="10.7005368375175"><ele>182.6</ele><time>2026-03-28T19:26:23Z</time></trkpt><trkpt lat="45.712803832294476" lon="10.700580722029995"><ele>181.39999999999998</ele><time>2026-03-28T19:26:24Z</time></trkpt><trkpt lat="45.712922142019046" lon="10.700626521000862"><ele>180.2</ele><time>2026-03-28T19:26:25Z</time></trkpt><trkpt lat="45.713018410465054" lon="10.700711639565508"><ele>179.0</ele><time>2026-03-28T19:26:26Z</time></trkpt><trkpt lat="45.71313419536466" lon="10.700782384152772"><ele>179.0</ele><time>2026-03-28T19:26:27Z</time></trkpt><trkpt lat="45.71324175762816" lon="10.700850595163706"><ele>179.0</ele><time>2026-03-28T19:26:28Z</time></trkpt><trkpt lat="45.713350834737234" lon="10.700910744196344"><ele>179.0</ele><time>2026-03-28T19:26:29Z</time></trkpt><trkpt lat="45.71345725475819" lon="10.700974148273668"><ele>179.0</ele><time>2026-03-28T19:26:30Z</time></trkpt><trkpt lat="45.71356574158078" lon="10.701036766106164"><ele>176.6</ele><time>2026-03-28T19:26:31Z</time></trkpt><trkpt lat="45.71367456456744" lon="10.7011068069703"><ele>174.2</ele><time>2026-03-28T19:26:32Z</time></trkpt><trkpt lat="45.71377800306856" lon="10.701172464462726"><ele>171.79999999999998</ele><time>2026-03-28T19:26:33Z</time></trkpt><trkpt lat="45.71387781916217" lon="10.701234954908115"><ele>169.39999999999998</ele><time>2026-03-28T19:26:34Z</time></trkpt><trkpt lat="45.71396845753445" lon="10.701294888084934"><ele>167.0</ele><time>2026-03-28T19:26:35Z</time></trkpt><trkpt lat="45.7140532077827" lon="10.70134792691074"><ele>167.0</ele><time>2026-03-28T19:26:36Z</time></trkpt><trkpt lat="45.714120393631134" lon="10.701397564053826"><ele>167.0</ele><time>2026-03-28T19:26:37Z</time></trkpt><trkpt lat="45.71418446961465" lon="10.701456803594882"><ele>167.0</ele><time>2026-03-28T19:26:38Z</time></trkpt><trkpt lat="45.71425167376247" lon="10.701519870535753"><ele>167.0</ele><time>2026-03-28T19:26:39Z</time></trkpt><trkpt lat="45.71432095159587" lon="10.701606042417472"><ele>167.0</ele><time>2026-03-28T19:26:40Z</time></trkpt><trkpt lat="45.71439481796474" lon="10.701734933218653"><ele>167.0</ele><time>2026-03-28T19:26:41Z</time></trkpt><trkpt lat="45.71448786393681" lon="10.701863870079084"><ele>166.0</ele><time>2026-03-28T19:26:42Z</time></trkpt><trkpt lat="45.71459607558597" lon="10.70201308474989"><ele>165.0</ele><time>2026-03-28T19:26:43Z</time></trkpt><trkpt lat="45.71470961431915" lon="10.702176676147976"><ele>164.0</ele><time>2026-03-28T19:26:44Z</time></trkpt><trkpt lat="45.71484061085288" lon="10.702351040073523"><ele>164.0</ele><time>2026-03-28T19:26:45Z</time></trkpt><trkpt lat="45.71498699637519" lon="10.702532085033315"><ele>164.0</ele><time>2026-03-28T19:26:46Z</time></trkpt><trkpt lat="45.71514181067815" lon="10.702684977173158"><ele>164.0</ele><time>2026-03-28T19:26:47Z</time></trkpt><trkpt lat="45.71529588669821" lon="10.702829547103454"><ele>163.66666666666666</ele><time>2026-03-28T19:26:48Z</time></trkpt><trkpt lat="45.715460093099004" lon="10.702992945348413"><ele>163.33333333333334</ele><time>2026-03-28T19:26:49Z</time></trkpt><trkpt lat="45.715628518503074" lon="10.703165305322592"><ele>163.0</ele><time>2026-03-28T19:26:50Z</time></trkpt><trkpt lat="45.715803253059306" lon="10.703344550982312"><ele>163.0</ele><time>2026-03-28T19:26:51Z</time></trkpt><trkpt lat="45.71597807677842" lon="10.7035175108362"><ele>163.0</ele><time>2026-03-28T19:26:52Z</time></trkpt><trkpt lat="45.71613581071314" lon="10.70368271168751"><ele>163.0</ele><time>2026-03-28T19:26:53Z</time></trkpt><trkpt lat="45.71628928033699" lon="10.703840044229345"><ele>162.66666666666669</ele><time>2026-03-28T19:26:54Z</time></trkpt><trkpt lat="45.71644245951239" lon="10.703985527779814"><ele>162.33333333333334</ele><time>2026-03-28T19:26:55Z</time></trkpt><trkpt lat="45.71657863661902" lon="10.704133201690812"><ele>162.0</ele><time>2026-03-28T19:26:56Z</time></trkpt><trkpt lat="45.71670512898391" lon="10.70432127025819"><ele>164.33333333333334</ele><time>2026-03-28T19:26:57Z</time></trkpt><trkpt lat="45.7168168474752" lon="10.704546491169989"><ele>166.66666666666669</ele><time>2026-03-28T19:26:58Z</time></trkpt><trkpt lat="45.7169453831281" lon="10.704743903063424"><ele>169.0</ele><time>2026-03-28T19:26:59Z</time></trkpt><trkpt lat="45.717071948272924" lon="10.70497251791449"><ele>169.0</ele><time>2026-03-28T19:27:00Z</time></trkpt><trkpt lat="45.71719082738206" lon="10.705170373150144"><ele>169.0</ele><time>2026-03-28T19:27:01Z</time></trkpt><trkpt lat="45.7173158358189" lon="10.705355641576412"><ele>169.0</ele><time>2026-03-28T19:27:02Z</time></trkpt><trkpt lat="45.71744889565929" lon="10.705547213592155"><ele>166.66666666666669</ele><time>2026-03-28T19:27:03Z</time></trkpt><trkpt lat="45.71758463967638" lon="10.705744199979113"><ele>164.33333333333334</ele><time>2026-03-28T19:27:04Z</time></trkpt><trkpt lat="45.71771951533021" lon="10.705933356885966"><ele>162.0</ele><time>2026-03-28T19:27:05Z</time></trkpt><trkpt lat="45.71786109024329" lon="10.706110718144917"><ele>162.0</ele><time>2026-03-28T19:27:06Z</time></trkpt><trkpt lat="45.718012095749536" lon="10.706268585796911"><ele>162.0</ele><time>2026-03-28T19:27:07Z</time></trkpt><trkpt lat="45.71815628693001" lon="10.706400182366131"><ele>162.0</ele><time>2026-03-28T19:27:08Z</time></trkpt><trkpt lat="45.718293343077974" lon="10.706529751482243"><ele>162.0</ele><time>2026-03-28T19:27:09Z</time></trkpt><trkpt lat="45.71843041250406" lon="10.706653760519151"><ele>162.0</ele><time>2026-03-28T19:27:10Z</time></trkpt><trkpt lat="45.718558715449575" lon="10.706768804104952"><ele>162.0</ele><time>2026-03-28T19:27:11Z</time></trkpt><trkpt lat="45.718683564081246" lon="10.706878081313427"><ele>165.5</ele><time>2026-03-28T19:27:12Z</time></trkpt><trkpt lat="45.71881137582042" lon="10.706978006822204"><ele>169.0</ele><time>2026-03-28T19:27:13Z</time></trkpt><trkpt lat="45.71892922997334" lon="10.707074770785185"><ele>172.5</ele><time>2026-03-28T19:27:14Z</time></trkpt><trkpt lat="45.71904947179642" lon="10.70717623339812"><ele>176.0</ele><time>2026-03-28T19:27:15Z</time></trkpt><trkpt lat="45.719171391342186" lon="10.707279111598103"><ele>176.0</ele><time>2026-03-28T19:27:16.014Z</time></trkpt><trkpt lat="45.71929193826592" lon="10.707380832470719"><ele>176.0</ele><time>2026-03-28T19:27:17.016Z</time></trkpt><trkpt lat="45.7194120624412" lon="10.707482195752503"><ele>176.0</ele><time>2026-03-28T19:27:18.015Z</time></trkpt><trkpt lat="45.719532587476955" lon="10.707583858376307"><ele>176.0</ele><time>2026-03-28T19:27:19.017Z</time></trkpt><trkpt lat="45.71965375470974" lon="10.70768457470606"><ele>192.5</ele><time>2026-03-28T19:27:20.018Z</time></trkpt><trkpt lat="45.71991890315701" lon="10.707847502910905"><ele>209.0</ele><time>2026-03-28T19:27:21.013Z</time></trkpt><trkpt lat="45.72007075623041" lon="10.707962284153453"><ele>231.0</ele><time>2026-03-28T19:27:22.015Z</time></trkpt><trkpt lat="45.72190954872885" lon="10.70876391259163"><ele>231.0</ele><time>2026-03-28T19:27:25.067Z</time></trkpt><trkpt lat="45.72248969090484" lon="10.709109024050537"><ele>219.0</ele><time>2026-03-28T19:27:26.067Z</time></trkpt><trkpt lat="45.72297662068941" lon="10.709670934311443"><ele>167.0</ele><time>2026-03-28T19:27:27.063Z</time></trkpt><trkpt lat="45.723440043252545" lon="10.710283322286191"><ele>272.0</ele><time>2026-03-28T19:27:28.066Z</time></trkpt><trkpt lat="45.72390180301178" lon="10.710891260662628"><ele>284.0</ele><time>2026-03-28T19:27:29.063Z</time></trkpt><trkpt lat="45.724366174468024" lon="10.711501315868187"><ele>286.0</ele><time>2026-03-28T19:27:30.065Z</time></trkpt><trkpt lat="45.7244945" lon="10.7116699"><ele>288.0</ele><time>2026-03-28T19:27:31.067Z</time></trkpt><trkpt lat="45.727917052638325" lon="10.719636907351111"><ele>235.75</ele><time>2026-03-28T19:28:20.999Z</time></trkpt><trkpt lat="45.72799690065551" lon="10.719800794131011"><ele>183.5</ele><time>2026-03-28T19:28:22Z</time></trkpt><trkpt lat="45.72808647765332" lon="10.719970945870891"><ele>131.25</ele><time>2026-03-28T19:28:23Z</time></trkpt><trkpt lat="45.728199956034835" lon="10.720100178131105"><ele>79.0</ele><time>2026-03-28T19:28:24Z</time></trkpt><trkpt lat="45.728333481011205" lon="10.720210177821718"><ele>77.33333333333333</ele><time>2026-03-28T19:28:25Z</time></trkpt><trkpt lat="45.72847845556147" lon="10.720271028298864"><ele>75.66666666666667</ele><time>2026-03-28T19:28:26Z</time></trkpt><trkpt lat="45.728630631927906" lon="10.720318350531741"><ele>74.0</ele><time>2026-03-28T19:28:27Z</time></trkpt><trkpt lat="45.72880466406487" lon="10.720373603406768"><ele>82.0</ele><time>2026-03-28T19:28:28Z</time></trkpt><trkpt lat="45.728971036476615" lon="10.720466161658724"><ele>90.0</ele><time>2026-03-28T19:28:29Z</time></trkpt><trkpt lat="45.72911209995379" lon="10.720570373859907"><ele>98.0</ele><time>2026-03-28T19:28:30Z</time></trkpt><trkpt lat="45.729218916195286" lon="10.720689237273332"><ele>98.0</ele><time>2026-03-28T19:28:31Z</time></trkpt><trkpt lat="45.729335526567304" lon="10.720837995022087"><ele>98.0</ele><time>2026-03-28T19:28:32Z</time></trkpt><trkpt lat="45.729429544166734" lon="10.720989248760445"><ele>98.0</ele><time>2026-03-28T19:28:33.017Z</time></trkpt><trkpt lat="45.7296553760023" lon="10.721431958383421"><ele>86.0</ele><time>2026-03-28T19:28:35.821Z</time></trkpt><trkpt lat="45.72990069181874" lon="10.721917115542634"><ele>74.0</ele><time>2026-03-28T19:28:37Z</time></trkpt><trkpt lat="45.73002497091492" lon="10.722162934720533"><ele>74.0</ele><time>2026-03-28T19:28:38Z</time></trkpt><trkpt lat="45.73015201056219" lon="10.722414703811342"><ele>74.0</ele><time>2026-03-28T19:28:39Z</time></trkpt><trkpt lat="45.73029287110801" lon="10.722665767293277"><ele>74.0</ele><time>2026-03-28T19:28:40Z</time></trkpt><trkpt lat="45.73040411498715" lon="10.722918360760552"><ele>75.66666666666667</ele><time>2026-03-28T19:28:41Z</time></trkpt><trkpt lat="45.73051206953484" lon="10.723133783271741"><ele>77.33333333333333</ele><time>2026-03-28T19:28:42Z</time></trkpt><trkpt lat="45.73061291667716" lon="10.723343488895368"><ele>79.0</ele><time>2026-03-28T19:28:43Z</time></trkpt><trkpt lat="45.7307123446756" lon="10.723569140488044"><ele>79.66666666666666</ele><time>2026-03-28T19:28:44Z</time></trkpt><trkpt lat="45.730810006468666" lon="10.723798959979154"><ele>80.33333333333333</ele><time>2026-03-28T19:28:45Z</time></trkpt><trkpt lat="45.730905100747336" lon="10.724029545242391"><ele>81.0</ele><time>2026-03-28T19:28:46Z</time></trkpt><trkpt lat="45.73099659321458" lon="10.724274163027783"><ele>90.0</ele><time>2026-03-28T19:28:47Z</time></trkpt><trkpt lat="45.731074789512824" lon="10.724499228510096"><ele>99.0</ele><time>2026-03-28T19:28:48Z</time></trkpt><trkpt lat="45.73114632622012" lon="10.724710176965866"><ele>108.0</ele><time>2026-03-28T19:28:49Z</time></trkpt><trkpt lat="45.731215821834994" lon="10.724928950712355"><ele>108.0</ele><time>2026-03-28T19:28:50Z</time></trkpt><trkpt lat="45.73128802575121" lon="10.725153719279167"><ele>108.0</ele><time>2026-03-28T19:28:51Z</time></trkpt><trkpt lat="45.73137832349285" lon="10.725362395793615"><ele>108.0</ele><time>2026-03-28T19:28:52Z</time></trkpt><trkpt lat="45.73146370115336" lon="10.725564929268069"><ele>103.66666666666667</ele><time>2026-03-28T19:28:53Z</time></trkpt><trkpt lat="45.73155832288068" lon="10.725781142755059"><ele>99.33333333333334</ele><time>2026-03-28T19:28:54Z</time></trkpt><trkpt lat="45.73165391434229" lon="10.726005995564224"><ele>95.0</ele><time>2026-03-28T19:28:55Z</time></trkpt><trkpt lat="45.7317652453528" lon="10.726221322945444"><ele>95.66666666666667</ele><time>2026-03-28T19:28:56Z</time></trkpt><trkpt lat="45.73188948834079" lon="10.726438710970262"><ele>96.33333333333334</ele><time>2026-03-28T19:28:57Z</time></trkpt><trkpt lat="45.732005031128175" lon="10.726671271837143"><ele>97.0</ele><time>2026-03-28T19:28:58Z</time></trkpt><trkpt lat="45.7321238361121" lon="10.726902410069615"><ele>97.0</ele><time>2026-03-28T19:28:59Z</time></trkpt><trkpt lat="45.73223628018678" lon="10.727139174801517"><ele>97.0</ele><time>2026-03-28T19:29:00Z</time></trkpt><trkpt lat="45.73235719472744" lon="10.727374336326653"><ele>97.0</ele><time>2026-03-28T19:29:01Z</time></trkpt><trkpt lat="45.732465958657045" lon="10.72762457858414"><ele>91.0</ele><time>2026-03-28T19:29:02Z</time></trkpt><trkpt lat="45.73259925006498" lon="10.72783993774796"><ele>85.0</ele><time>2026-03-28T19:29:03Z</time></trkpt><trkpt lat="45.73272591593747" lon="10.728035695879905"><ele>79.0</ele><time>2026-03-28T19:29:04Z</time></trkpt><trkpt lat="45.732862940455455" lon="10.728225236469216"><ele>83.0</ele><time>2026-03-28T19:29:05Z</time></trkpt><trkpt lat="45.733000953029894" lon="10.728409469532"><ele>87.0</ele><time>2026-03-28T19:29:06Z</time></trkpt><trkpt lat="45.733126083018135" lon="10.728610160319045"><ele>91.0</ele><time>2026-03-28T19:29:07Z</time></trkpt><trkpt lat="45.733218104899514" lon="10.728807607543846"><ele>91.0</ele><time>2026-03-28T19:29:08Z</time></trkpt><trkpt lat="45.733314034470574" lon="10.729011424304899"><ele>91.0</ele><time>2026-03-28T19:29:09Z</time></trkpt><trkpt lat="45.73340008692425" lon="10.72923250933417"><ele>91.0</ele><time>2026-03-28T19:29:10Z</time></trkpt><trkpt lat="45.7334795485781" lon="10.729481394751012"><ele>98.0</ele><time>2026-03-28T19:29:11Z</time></trkpt><trkpt lat="45.73356509023281" lon="10.729739883765145"><ele>105.0</ele><time>2026-03-28T19:29:12Z</time></trkpt><trkpt lat="45.73365813250569" lon="10.72995573923258"><ele>112.0</ele><time>2026-03-28T19:29:13Z</time></trkpt><trkpt lat="45.73378107838836" lon="10.730149782895868"><ele>103.0</ele><time>2026-03-28T19:29:14Z</time></trkpt><trkpt lat="45.73391021633059" lon="10.730359944612893"><ele>94.0</ele><time>2026-03-28T19:29:15Z</time></trkpt><trkpt lat="45.73405987437088" lon="10.730571474850159"><ele>85.0</ele><time>2026-03-28T19:29:16Z</time></trkpt><trkpt lat="45.73421328392469" lon="10.730792296360253"><ele>85.0</ele><time>2026-03-28T19:29:17Z</time></trkpt><trkpt lat="45.73436601170307" lon="10.731010988584291"><ele>85.0</ele><time>2026-03-28T19:29:18Z</time></trkpt><trkpt lat="45.73450468932571" lon="10.731221321338097"><ele>85.0</ele><time>2026-03-28T19:29:19Z</time></trkpt><trkpt lat="45.73465115743611" lon="10.731423655478286"><ele>84.0</ele><time>2026-03-28T19:29:20Z</time></trkpt><trkpt lat="45.73477096507836" lon="10.731598518956412"><ele>83.0</ele><time>2026-03-28T19:29:21Z</time></trkpt><trkpt lat="45.7349132561044" lon="10.731789966618894"><ele>82.0</ele><time>2026-03-28T19:29:22Z</time></trkpt><trkpt lat="45.73505055502865" lon="10.731980997835892"><ele>82.0</ele><time>2026-03-28T19:29:23Z</time></trkpt><trkpt lat="45.735164894642544" lon="10.732153583259857"><ele>82.0</ele><time>2026-03-28T19:29:24.013Z</time></trkpt><trkpt lat="45.73546472779423" lon="10.732557266588266"><ele>86.25</ele><time>2026-03-28T19:29:26.016Z</time></trkpt><trkpt lat="45.73553161852606" lon="10.732727440467544"><ele>90.5</ele><time>2026-03-28T19:29:27Z</time></trkpt><trkpt lat="45.73556400937969" lon="10.732818991795662"><ele>94.75</ele><time>2026-03-28T19:29:28Z</time></trkpt><trkpt lat="45.73560311738998" lon="10.73299681215588"><ele>99.0</ele><time>2026-03-28T19:29:29Z</time></trkpt><trkpt lat="45.735617069431854" lon="10.733176801744069"><ele>99.0</ele><time>2026-03-28T19:29:30Z</time></trkpt><trkpt lat="45.73563140436997" lon="10.733419602561877"><ele>99.0</ele><time>2026-03-28T19:29:31Z</time></trkpt><trkpt lat="45.73565141821424" lon="10.73367200835274"><ele>99.0</ele><time>2026-03-28T19:29:32Z</time></trkpt><trkpt lat="45.73568786208482" lon="10.733912358464524"><ele>96.0</ele><time>2026-03-28T19:29:33Z</time></trkpt><trkpt lat="45.73573540122584" lon="10.734124655003361"><ele>93.0</ele><time>2026-03-28T19:29:34Z</time></trkpt><trkpt lat="45.73581222860266" lon="10.734325100029238"><ele>90.0</ele><time>2026-03-28T19:29:35Z</time></trkpt><trkpt lat="45.735889536849704" lon="10.734513359244408"><ele>87.0</ele><time>2026-03-28T19:29:36Z</time></trkpt><trkpt lat="45.7359733373401" lon="10.734677117814279"><ele>84.0</ele><time>2026-03-28T19:29:37Z</time></trkpt><trkpt lat="45.736083121438085" lon="10.734843604735158"><ele>81.0</ele><time>2026-03-28T19:29:38Z</time></trkpt><trkpt lat="45.736213460306296" lon="10.735000675592287"><ele>81.33333333333333</ele><time>2026-03-28T19:29:39Z</time></trkpt><trkpt lat="45.73636289977277" lon="10.735133411477175"><ele>81.66666666666666</ele><time>2026-03-28T19:29:40Z</time></trkpt><trkpt lat="45.73652199751881" lon="10.735252960373414"><ele>82.0</ele><time>2026-03-28T19:29:41Z</time></trkpt><trkpt lat="45.7367080579535" lon="10.735384372728612"><ele>84.33333333333333</ele><time>2026-03-28T19:29:42Z</time></trkpt><trkpt lat="45.73688664226901" lon="10.735495013726052"><ele>86.66666666666667</ele><time>2026-03-28T19:29:43Z</time></trkpt><trkpt lat="45.73703881388665" lon="10.735599653767903"><ele>89.0</ele><time>2026-03-28T19:29:44Z</time></trkpt><trkpt lat="45.73717704508789" lon="10.735675939066128"><ele>89.0</ele><time>2026-03-28T19:29:45Z</time></trkpt><trkpt lat="45.73730991923623" lon="10.73572465842429"><ele>89.0</ele><time>2026-03-28T19:29:46Z</time></trkpt><trkpt lat="45.73745552526165" lon="10.735745327856183"><ele>89.0</ele><time>2026-03-28T19:29:47Z</time></trkpt><trkpt lat="45.73760644337886" lon="10.735748297575983"><ele>89.0</ele><time>2026-03-28T19:29:48Z</time></trkpt><trkpt lat="45.737760113652065" lon="10.735769821788296"><ele>96.33333333333334</ele><time>2026-03-28T19:29:49Z</time></trkpt><trkpt lat="45.737921115369964" lon="10.735776947671594"><ele>103.66666666666667</ele><time>2026-03-28T19:29:50Z</time></trkpt><trkpt lat="45.738076704612155" lon="10.735789399676085"><ele>111.0</ele><time>2026-03-28T19:29:51Z</time></trkpt><trkpt lat="45.73827515553562" lon="10.735794380739097"><ele>111.0</ele><time>2026-03-28T19:29:52Z</time></trkpt><trkpt lat="45.73844789545199" lon="10.73580563647619"><ele>111.0</ele><time>2026-03-28T19:29:53.016Z</time></trkpt><trkpt lat="45.740191433385256" lon="10.736830417954344"><ele>263.0</ele><time>2026-03-28T19:29:56.061Z</time></trkpt><trkpt lat="45.74117012393597" lon="10.736535443319722"><ele>263.0</ele><time>2026-03-28T19:30:08.478Z</time></trkpt><trkpt lat="45.741823050821196" lon="10.736595749301244"><ele>159.0</ele><time>2026-03-28T19:30:13.683Z</time></trkpt><trkpt lat="45.74310014484512" lon="10.7400122845224"><ele>156.0</ele><time>2026-03-28T19:30:20.013Z</time></trkpt><trkpt lat="45.743241647844485" lon="10.740284987442108"><ele>153.0</ele><time>2026-03-28T19:30:21.016Z</time></trkpt><trkpt lat="45.743386575925896" lon="10.740494464637433"><ele>150.0</ele><time>2026-03-28T19:30:22.015Z</time></trkpt><trkpt lat="45.74361441095164" lon="10.740555256382326"><ele>150.0</ele><time>2026-03-28T19:30:23.013Z</time></trkpt><trkpt lat="45.74377964985627" lon="10.740735381491493"><ele>150.0</ele><time>2026-03-28T19:30:24.012Z</time></trkpt><trkpt lat="45.74371451048556" lon="10.74133594405685"><ele>192.0</ele><time>2026-03-28T19:30:25.012Z</time></trkpt><trkpt lat="45.74526737786392" lon="10.742945896827255"><ele>192.0</ele><time>2026-03-28T19:30:28.062Z</time></trkpt><trkpt lat="45.745803890746735" lon="10.743417235785413"><ele>274.0</ele><time>2026-03-28T19:30:29.062Z</time></trkpt><trkpt lat="45.74634305808531" lon="10.743888947463297"><ele>274.0</ele><time>2026-03-28T19:30:30.066Z</time></trkpt><trkpt lat="45.74685780921634" lon="10.744400967497066"><ele>274.0</ele><time>2026-03-28T19:30:31.062Z</time></trkpt><trkpt lat="45.7470719" lon="10.7446289"><ele>274.0</ele><time>2026-03-28T19:30:32.066Z</time></trkpt><trkpt lat="45.746739415176314" lon="10.744320578717494"><ele>274.0</ele><time>2026-03-28T19:30:36.062Z</time></trkpt><trkpt lat="45.7465348219263" lon="10.74395065997576"><ele>274.0</ele><time>2026-03-28T19:30:37.066Z</time></trkpt><trkpt lat="45.74676852159543" lon="10.74424578367754"><ele>274.0</ele><time>2026-03-28T19:30:38.066Z</time></trkpt><trkpt lat="45.74682663932029" lon="10.74431917368413"><ele>274.0</ele><time>2026-03-28T19:30:41.066Z</time></trkpt><trkpt lat="45.74688218403005" lon="10.744389318064137"><ele>274.0</ele><time>2026-03-28T19:30:44.066Z</time></trkpt><trkpt lat="45.74693229442513" lon="10.744448859699844"><ele>274.0</ele><time>2026-03-28T19:30:47.066Z</time></trkpt><trkpt lat="45.74698333905224" lon="10.74451468866111"><ele>274.0</ele><time>2026-03-28T19:30:52.066Z</time></trkpt><trkpt lat="45.74703173732126" lon="10.744573331941709"><ele>274.0</ele><time>2026-03-28T19:31:00.066Z</time></trkpt><trkpt lat="45.762746920384146" lon="10.754991179252231"><ele>314.0</ele><time>2026-03-28T19:32:18.999Z</time></trkpt><trkpt lat="45.7628288546866" lon="10.755242412747322"><ele>354.0</ele><time>2026-03-28T19:32:20Z</time></trkpt><trkpt lat="45.76291297455796" lon="10.755506369710162"><ele>394.0</ele><time>2026-03-28T19:32:21Z</time></trkpt><trkpt lat="45.7629536790959" lon="10.755812370211984"><ele>389.6666666666667</ele><time>2026-03-28T19:32:22Z</time></trkpt><trkpt lat="45.76308719766663" lon="10.756074745895923"><ele>385.33333333333337</ele><time>2026-03-28T19:32:23Z</time></trkpt><trkpt lat="45.76322991230034" lon="10.756308712474617"><ele>381.0</ele><time>2026-03-28T19:32:24Z</time></trkpt><trkpt lat="45.763387245350685" lon="10.756544159669579"><ele>391.5</ele><time>2026-03-28T19:32:25Z</time></trkpt><trkpt lat="45.7635514290206" lon="10.756777741752432"><ele>402.0</ele><time>2026-03-28T19:32:26Z</time></trkpt><trkpt lat="45.76372523116971" lon="10.757024194692159"><ele>402.0</ele><time>2026-03-28T19:32:27Z</time></trkpt><trkpt lat="45.76388083198375" lon="10.757258801598686"><ele>402.0</ele><time>2026-03-28T19:32:28Z</time></trkpt><trkpt lat="45.76399891808981" lon="10.757490483178831"><ele>402.0</ele><time>2026-03-28T19:32:29Z</time></trkpt><trkpt lat="45.76411022179888" lon="10.757737399775767"><ele>401.33333333333337</ele><time>2026-03-28T19:32:30Z</time></trkpt><trkpt lat="45.76421753619304" lon="10.757958114271643"><ele>400.6666666666667</ele><time>2026-03-28T19:32:31Z</time></trkpt><trkpt lat="45.76434972383801" lon="10.75812023546758"><ele>400.0</ele><time>2026-03-28T19:32:32Z</time></trkpt><trkpt lat="45.764483408876536" lon="10.758299402865422"><ele>399.0</ele><time>2026-03-28T19:32:33Z</time></trkpt><trkpt lat="45.764639626979815" lon="10.75845975726527"><ele>398.0</ele><time>2026-03-28T19:32:34Z</time></trkpt><trkpt lat="45.7647717422438" lon="10.758610585772026"><ele>397.0</ele><time>2026-03-28T19:32:35Z</time></trkpt><trkpt lat="45.76491058372964" lon="10.758727811742771"><ele>397.0</ele><time>2026-03-28T19:32:36Z</time></trkpt><trkpt lat="45.76506112341333" lon="10.758805410449565"><ele>397.0</ele><time>2026-03-28T19:32:37Z</time></trkpt><trkpt lat="45.76523350003515" lon="10.75884898603276"><ele>397.0</ele><time>2026-03-28T19:32:38Z</time></trkpt><trkpt lat="45.76541702188614" lon="10.758911375490246"><ele>409.33333333333337</ele><time>2026-03-28T19:32:39Z</time></trkpt><trkpt lat="45.765544174069284" lon="10.759016271917707"><ele>421.66666666666663</ele><time>2026-03-28T19:32:40Z</time></trkpt><trkpt lat="45.76564602313704" lon="10.759180341625267"><ele>434.0</ele><time>2026-03-28T19:32:41Z</time></trkpt><trkpt lat="45.765781027144875" lon="10.759335614624343"><ele>439.0</ele><time>2026-03-28T19:32:42Z</time></trkpt><trkpt lat="45.76592982707445" lon="10.759486597675208"><ele>444.0</ele><time>2026-03-28T19:32:43Z</time></trkpt><trkpt lat="45.76610856920989" lon="10.759606192530699"><ele>449.0</ele><time>2026-03-28T19:32:44Z</time></trkpt><trkpt lat="45.766251557207454" lon="10.759738463865322"><ele>449.0</ele><time>2026-03-28T19:32:45Z</time></trkpt><trkpt lat="45.76635218985081" lon="10.75992268397286"><ele>449.0</ele><time>2026-03-28T19:32:46Z</time></trkpt><trkpt lat="45.76648509089946" lon="10.760088407381312"><ele>449.0</ele><time>2026-03-28T19:32:47Z</time></trkpt><trkpt lat="45.766640598398574" lon="10.760230372387655"><ele>448.0</ele><time>2026-03-28T19:32:48Z</time></trkpt><trkpt lat="45.76675768746427" lon="10.760351657307787"><ele>447.0</ele><time>2026-03-28T19:32:49Z</time></trkpt><trkpt lat="45.76695239340798" lon="10.760487018397713"><ele>446.0</ele><time>2026-03-28T19:32:50Z</time></trkpt><trkpt lat="45.767124354988795" lon="10.760669915898603"><ele>446.0</ele><time>2026-03-28T19:32:51Z</time></trkpt><trkpt lat="45.76727716696949" lon="10.7608268690309"><ele>446.0</ele><time>2026-03-28T19:32:52Z</time></trkpt><trkpt lat="45.76742889835086" lon="10.760948359708243"><ele>446.0</ele><time>2026-03-28T19:32:53Z</time></trkpt><trkpt lat="45.76756992759168" lon="10.761058586456073"><ele>415.3333333333333</ele><time>2026-03-28T19:32:54Z</time></trkpt><trkpt lat="45.76768529807126" lon="10.761190957204212"><ele>384.66666666666663</ele><time>2026-03-28T19:32:55Z</time></trkpt><trkpt lat="45.767787467454134" lon="10.761349203835163"><ele>354.0</ele><time>2026-03-28T19:32:56Z</time></trkpt><trkpt lat="45.76790900671139" lon="10.761525703356076"><ele>354.0</ele><time>2026-03-28T19:32:57Z</time></trkpt><trkpt lat="45.76802786429277" lon="10.761708458131189"><ele>354.0</ele><time>2026-03-28T19:32:58Z</time></trkpt><trkpt lat="45.76815484733765" lon="10.761828887159881"><ele>354.0</ele><time>2026-03-28T19:32:59Z</time></trkpt><trkpt lat="45.7682808815884" lon="10.761936890636086"><ele>354.0</ele><time>2026-03-28T19:33:00Z</time></trkpt><trkpt lat="45.76841735640007" lon="10.76205474957057"><ele>354.0</ele><time>2026-03-28T19:33:01Z</time></trkpt><trkpt lat="45.7685486825377" lon="10.762185360277307"><ele>354.0</ele><time>2026-03-28T19:33:02Z</time></trkpt><trkpt lat="45.768660286195114" lon="10.762363190045367"><ele>366.66666666666663</ele><time>2026-03-28T19:33:03Z</time></trkpt><trkpt lat="45.76879044874333" lon="10.762469185681883"><ele>379.3333333333333</ele><time>2026-03-28T19:33:04Z</time></trkpt><trkpt lat="45.76892081562703" lon="10.762601289432778"><ele>392.0</ele><time>2026-03-28T19:33:05Z</time></trkpt><trkpt lat="45.76905934313403" lon="10.76274428752573"><ele>392.0</ele><time>2026-03-28T19:33:06Z</time></trkpt><trkpt lat="45.769205726061855" lon="10.762883778100466"><ele>392.0</ele><time>2026-03-28T19:33:07Z</time></trkpt><trkpt lat="45.769349264966024" lon="10.763029747358276"><ele>392.0</ele><time>2026-03-28T19:33:08Z</time></trkpt><trkpt lat="45.76948945745312" lon="10.76317539210079"><ele>389.66666666666663</ele><time>2026-03-28T19:33:09Z</time></trkpt><trkpt lat="45.769634418258725" lon="10.763321950029379"><ele>387.33333333333337</ele><time>2026-03-28T19:33:10Z</time></trkpt><trkpt lat="45.769782167337915" lon="10.76346254359699"><ele>385.0</ele><time>2026-03-28T19:33:11Z</time></trkpt><trkpt lat="45.76992562553094" lon="10.763627220718421"><ele>385.0</ele><time>2026-03-28T19:33:12Z</time></trkpt><trkpt lat="45.770066160186275" lon="10.76378495688543"><ele>385.0</ele><time>2026-03-28T19:33:13Z</time></trkpt><trkpt lat="45.77020501308088" lon="10.763942581846003"><ele>385.0</ele><time>2026-03-28T19:33:14Z</time></trkpt><trkpt lat="45.77034855392988" lon="10.764100032772111"><ele>361.33333333333337</ele><time>2026-03-28T19:33:15Z</time></trkpt><trkpt lat="45.770489969659906" lon="10.764257732347607"><ele>337.6666666666667</ele><time>2026-03-28T19:33:16Z</time></trkpt><trkpt lat="45.77066808512917" lon="10.764282012843369"><ele>314.0</ele><time>2026-03-28T19:33:17.015Z</time></trkpt><trkpt lat="45.7724945295079" lon="10.765141249677969"><ele>285.0</ele><time>2026-03-28T19:33:20.065Z</time></trkpt><trkpt lat="45.7730828294673" lon="10.76545881607307"><ele>299.0</ele><time>2026-03-28T19:33:21.063Z</time></trkpt><trkpt lat="45.77365976621404" lon="10.765811314974835"><ele>288.0</ele><time>2026-03-28T19:33:22.06Z</time></trkpt><trkpt lat="45.7741796" lon="10.7662622"><ele>288.0</ele><time>2026-03-28T19:33:23.06Z</time></trkpt><trkpt lat="45.77742310277768" lon="10.769840772137925"><ele>288.0</ele><time>2026-03-28T19:33:56Z</time></trkpt><trkpt lat="45.77759872655722" lon="10.769977604907846"><ele>288.0</ele><time>2026-03-28T19:33:57Z</time></trkpt><trkpt lat="45.77749868424781" lon="10.770709602440323"><ele>239.33333333333334</ele><time>2026-03-28T19:33:58Z</time></trkpt><trkpt lat="45.77766004568033" lon="10.770661197727526"><ele>190.66666666666669</ele><time>2026-03-28T19:33:59Z</time></trkpt><trkpt lat="45.77781328834645" lon="10.770876249866946"><ele>142.0</ele><time>2026-03-28T19:34:00Z</time></trkpt><trkpt lat="45.7779846109763" lon="10.77100790467615"><ele>124.33333333333334</ele><time>2026-03-28T19:34:01Z</time></trkpt><trkpt lat="45.77812332032633" lon="10.771221031658095"><ele>106.66666666666667</ele><time>2026-03-28T19:34:02Z</time></trkpt><trkpt lat="45.77827367857771" lon="10.771431581073818"><ele>89.0</ele><time>2026-03-28T19:34:03Z</time></trkpt><trkpt lat="45.778423980151935" lon="10.771642086020144"><ele>92.33333333333334</ele><time>2026-03-28T19:34:04Z</time></trkpt><trkpt lat="45.77857238805753" lon="10.771849939493965"><ele>95.66666666666667</ele><time>2026-03-28T19:34:05Z</time></trkpt><trkpt lat="45.7787204359858" lon="10.772055996314295"><ele>99.0</ele><time>2026-03-28T19:34:05.999Z</time></trkpt><trkpt lat="45.778863878131475" lon="10.772255183900338"><ele>99.0</ele><time>2026-03-28T19:34:06.999Z</time></trkpt><trkpt lat="45.77900370459607" lon="10.772450127398255"><ele>99.0</ele><time>2026-03-28T19:34:07.999Z</time></trkpt><trkpt lat="45.779143402293805" lon="10.772645403554863"><ele>99.0</ele><time>2026-03-28T19:34:08.999Z</time></trkpt><trkpt lat="45.77928479787203" lon="10.77284305326999"><ele>102.66666666666666</ele><time>2026-03-28T19:34:09.999Z</time></trkpt><trkpt lat="45.77942727169901" lon="10.773040782417672"><ele>106.33333333333333</ele><time>2026-03-28T19:34:10.999Z</time></trkpt><trkpt lat="45.779579530915285" lon="10.773221446506382"><ele>110.0</ele><time>2026-03-28T19:34:11.999Z</time></trkpt><trkpt lat="45.779705133525496" lon="10.773419477622289"><ele>101.66666666666666</ele><time>2026-03-28T19:34:12.999Z</time></trkpt><trkpt lat="45.77981301539672" lon="10.773620086928673"><ele>93.33333333333333</ele><time>2026-03-28T19:34:13.999Z</time></trkpt><trkpt lat="45.77994824827315" lon="10.773737361473799"><ele>85.0</ele><time>2026-03-28T19:34:14.999Z</time></trkpt><trkpt lat="45.78008812149563" lon="10.773844559096895"><ele>93.66666666666666</ele><time>2026-03-28T19:34:15.999Z</time></trkpt><trkpt lat="45.78024604102893" lon="10.773963226639278"><ele>102.33333333333333</ele><time>2026-03-28T19:34:16.999Z</time></trkpt><trkpt lat="45.78041714042281" lon="10.774076856058578"><ele>111.0</ele><time>2026-03-28T19:34:17.999Z</time></trkpt><trkpt lat="45.78058394045313" lon="10.774201375355478"><ele>111.0</ele><time>2026-03-28T19:34:18.999Z</time></trkpt><trkpt lat="45.780736023051304" lon="10.774282543457693"><ele>111.0</ele><time>2026-03-28T19:34:19.999Z</time></trkpt><trkpt lat="45.780840534283556" lon="10.77434727369644"><ele>111.0</ele><time>2026-03-28T19:34:20.999Z</time></trkpt><trkpt lat="45.78089438704181" lon="10.774488344944352"><ele>111.0</ele><time>2026-03-28T19:34:21.999Z</time></trkpt><trkpt lat="45.7809886319725" lon="10.774721763792815"><ele>115.0</ele><time>2026-03-28T19:34:22.999Z</time></trkpt><trkpt lat="45.78109778071337" lon="10.775040544468508"><ele>119.0</ele><time>2026-03-28T19:34:23.999Z</time></trkpt><trkpt lat="45.78120816557018" lon="10.775438546213906"><ele>119.0</ele><time>2026-03-28T19:34:24.999Z</time></trkpt><trkpt lat="45.78128067665768" lon="10.775775605617113"><ele>119.0</ele><time>2026-03-28T19:34:26Z</time></trkpt><trkpt lat="45.78133864675276" lon="10.776056771171286"><ele>106.5</ele><time>2026-03-28T19:34:27Z</time></trkpt><trkpt lat="45.78140932070729" lon="10.776364751596107"><ele>94.0</ele><time>2026-03-28T19:34:28Z</time></trkpt><trkpt lat="45.781535947260345" lon="10.776663978883025"><ele>94.0</ele><time>2026-03-28T19:34:29Z</time></trkpt><trkpt lat="45.78162423766344" lon="10.776803317449215"><ele>94.0</ele><time>2026-03-28T19:34:30Z</time></trkpt><trkpt lat="45.781663318831164" lon="10.776887528178937"><ele>94.0</ele><time>2026-03-28T19:34:31Z</time></trkpt><trkpt lat="45.78175019278717" lon="10.77706046469011"><ele>94.0</ele><time>2026-03-28T19:34:32Z</time></trkpt><trkpt lat="45.781921683751385" lon="10.777180143431185"><ele>89.5</ele><time>2026-03-28T19:34:33Z</time></trkpt><trkpt lat="45.78210864811783" lon="10.777260537409367"><ele>85.0</ele><time>2026-03-28T19:34:34Z</time></trkpt><trkpt lat="45.782440469089565" lon="10.777268974988647"><ele>85.0</ele><time>2026-03-28T19:34:35Z</time></trkpt><trkpt lat="45.78262422666682" lon="10.777398024516058"><ele>85.0</ele><time>2026-03-28T19:34:36Z</time></trkpt><trkpt lat="45.78281643507401" lon="10.777479110498481"><ele>85.0</ele><time>2026-03-28T19:34:37Z</time></trkpt><trkpt lat="45.783004771348466" lon="10.777550183598429"><ele>86.33333333333333</ele><time>2026-03-28T19:34:38Z</time></trkpt><trkpt lat="45.78312370381029" lon="10.777687144493406"><ele>87.66666666666667</ele><time>2026-03-28T19:34:39Z</time></trkpt><trkpt lat="45.78328321670874" lon="10.777697519094486"><ele>89.0</ele><time>2026-03-28T19:34:40Z</time></trkpt><trkpt lat="45.78343988922253" lon="10.77766605705852"><ele>90.5</ele><time>2026-03-28T19:34:41Z</time></trkpt><trkpt lat="45.783595049585976" lon="10.777663328410524"><ele>92.0</ele><time>2026-03-28T19:34:42Z</time></trkpt><trkpt lat="45.783744165139126" lon="10.777693223686345"><ele>93.5</ele><time>2026-03-28T19:34:43Z</time></trkpt><trkpt lat="45.783887025365885" lon="10.777708770375817"><ele>95.0</ele><time>2026-03-28T19:34:44Z</time></trkpt><trkpt lat="45.78403063196513" lon="10.777702595595917"><ele>95.0</ele><time>2026-03-28T19:34:45Z</time></trkpt><trkpt lat="45.784166487652065" lon="10.777673617865368"><ele>95.0</ele><time>2026-03-28T19:34:46Z</time></trkpt><trkpt lat="45.78430944792478" lon="10.77760515630632"><ele>95.0</ele><time>2026-03-28T19:34:47Z</time></trkpt><trkpt lat="45.78445373674564" lon="10.777529817019374"><ele>95.0</ele><time>2026-03-28T19:34:48Z</time></trkpt><trkpt lat="45.784596932414054" lon="10.777409954143112"><ele>95.0</ele><time>2026-03-28T19:34:49Z</time></trkpt><trkpt lat="45.78474218862369" lon="10.777333775354972"><ele>95.0</ele><time>2026-03-28T19:34:50Z</time></trkpt><trkpt lat="45.78488690135426" lon="10.777268018039381"><ele>95.0</ele><time>2026-03-28T19:34:51Z</time></trkpt><trkpt lat="45.78503757123865" lon="10.777218038359678"><ele>222.5</ele><time>2026-03-28T19:34:52Z</time></trkpt><trkpt lat="45.78518660222796" lon="10.777152336499595"><ele>350.0</ele><time>2026-03-28T19:34:53.012Z</time></trkpt><trkpt lat="45.78705926785584" lon="10.776732787100977"><ele>350.0</ele><time>2026-03-28T19:34:56.063Z</time></trkpt><trkpt lat="45.787658404228154" lon="10.776995085774994"><ele>286.0</ele><time>2026-03-28T19:34:57.059Z</time></trkpt><trkpt lat="45.788249846516834" lon="10.77731506871969"><ele>262.0</ele><time>2026-03-28T19:34:58.063Z</time></trkpt><trkpt lat="45.7887549" lon="10.7775879"><ele>262.0</ele><time>2026-03-28T19:34:59.064Z</time></trkpt><trkpt lat="45.79559300335584" lon="10.782481968308096"><ele>262.0</ele><time>2026-03-28T19:35:45Z</time></trkpt><trkpt lat="45.79577811557709" lon="10.78260595062274"><ele>262.0</ele><time>2026-03-28T19:35:46Z</time></trkpt><trkpt lat="45.79596288222001" lon="10.782717903017302"><ele>262.0</ele><time>2026-03-28T19:35:47Z</time></trkpt><trkpt lat="45.7961083900362" lon="10.782824392357515"><ele>262.0</ele><time>2026-03-28T19:35:48Z</time></trkpt><trkpt lat="45.796253528629414" lon="10.782924247067596"><ele>262.0</ele><time>2026-03-28T19:35:49Z</time></trkpt><trkpt lat="45.79638819041405" lon="10.78291064316904"><ele>262.0</ele><time>2026-03-28T19:35:50Z</time></trkpt><trkpt lat="45.796530296474735" lon="10.782916519351176"><ele>262.0</ele><time>2026-03-28T19:35:51Z</time></trkpt><trkpt lat="45.79671678976888" lon="10.782862231447327"><ele>262.0</ele><time>2026-03-28T19:35:52Z</time></trkpt><trkpt lat="45.79697038323514" lon="10.78285561314384"><ele>262.0</ele><time>2026-03-28T19:35:53Z</time></trkpt><trkpt lat="45.79715734014418" lon="10.782866853430267"><ele>262.0</ele><time>2026-03-28T19:35:54Z</time></trkpt><trkpt lat="45.79733446873425" lon="10.782889686081168"><ele>200.66666666666666</ele><time>2026-03-28T19:35:55Z</time></trkpt><trkpt lat="45.797525408069674" lon="10.782915919637365"><ele>139.33333333333331</ele><time>2026-03-28T19:35:56Z</time></trkpt><trkpt lat="45.79771876947654" lon="10.782910963802403"><ele>78.0</ele><time>2026-03-28T19:35:57Z</time></trkpt><trkpt lat="45.79780616817614" lon="10.782949231049411"><ele>78.0</ele><time>2026-03-28T19:35:59Z</time></trkpt><trkpt lat="45.79790858580401" lon="10.782924035972473"><ele>78.0</ele><time>2026-03-28T19:36:00Z</time></trkpt><trkpt lat="45.797990992419535" lon="10.782909157370517"><ele>78.0</ele><time>2026-03-28T19:36:01Z</time></trkpt><trkpt lat="45.79808247770356" lon="10.782896512830261"><ele>78.0</ele><time>2026-03-28T19:36:02Z</time></trkpt><trkpt lat="45.798185248313764" lon="10.78290949168009"><ele>78.0</ele><time>2026-03-28T19:36:03Z</time></trkpt><trkpt lat="45.798286493202696" lon="10.782946683364608"><ele>78.0</ele><time>2026-03-28T19:36:04Z</time></trkpt><trkpt lat="45.79838558251572" lon="10.782995246923667"><ele>78.0</ele><time>2026-03-28T19:36:04.999Z</time></trkpt><trkpt lat="45.79848141017308" lon="10.783043946775088"><ele>78.0</ele><time>2026-03-28T19:36:05.999Z</time></trkpt><trkpt lat="45.798563328619316" lon="10.783089514166013"><ele>78.0</ele><time>2026-03-28T19:36:06.999Z</time></trkpt><trkpt lat="45.798643719925145" lon="10.783135415298736"><ele>78.0</ele><time>2026-03-28T19:36:07.999Z</time></trkpt><trkpt lat="45.79872807277528" lon="10.783179990990845"><ele>78.2</ele><time>2026-03-28T19:36:08.999Z</time></trkpt><trkpt lat="45.79879127058943" lon="10.783227360796623"><ele>78.4</ele><time>2026-03-28T19:36:09.999Z</time></trkpt><trkpt lat="45.7988531337719" lon="10.783254531182571"><ele>78.60000000000001</ele><time>2026-03-28T19:36:10.999Z</time></trkpt><trkpt lat="45.79898578725509" lon="10.783361444228023"><ele>78.8</ele><time>2026-03-28T19:36:12.999Z</time></trkpt><trkpt lat="45.79909187434833" lon="10.783432621280086"><ele>79.0</ele><time>2026-03-28T19:36:13.999Z</time></trkpt><trkpt lat="45.79920171907499" lon="10.78342956769114"><ele>79.0</ele><time>2026-03-28T19:36:14.999Z</time></trkpt><trkpt lat="45.79930652371469" lon="10.783381971443095"><ele>79.0</ele><time>2026-03-28T19:36:16.014Z</time></trkpt><trkpt lat="45.799403814167924" lon="10.78338684799063"><ele>79.0</ele><time>2026-03-28T19:36:17.014Z</time></trkpt><trkpt lat="45.799501221528786" lon="10.783392285614772"><ele>79.0</ele><time>2026-03-28T19:36:18.015Z</time></trkpt><trkpt lat="45.79959853567291" lon="10.783397754763856"><ele>79.0</ele><time>2026-03-28T19:36:19.016Z</time></trkpt><trkpt lat="45.79969593801554" lon="10.783403232548478"><ele>89.66666666666666</ele><time>2026-03-28T19:36:20.017Z</time></trkpt><trkpt lat="45.799990629314856" lon="10.783412127570005"><ele>100.33333333333333</ele><time>2026-03-28T19:36:22.999Z</time></trkpt><trkpt lat="45.80008552871803" lon="10.78343864634298"><ele>111.0</ele><time>2026-03-28T19:36:23.999Z</time></trkpt><trkpt lat="45.800157006535024" lon="10.783483597633177"><ele>106.25</ele><time>2026-03-28T19:36:24.999Z</time></trkpt><trkpt lat="45.80026124491784" lon="10.783600486002342"><ele>101.5</ele><time>2026-03-28T19:36:25.999Z</time></trkpt><trkpt lat="45.8003392230082" lon="10.783750965343753"><ele>96.75</ele><time>2026-03-28T19:36:26.999Z</time></trkpt><trkpt lat="45.800399094251894" lon="10.783922890649205"><ele>92.0</ele><time>2026-03-28T19:36:27.999Z</time></trkpt><trkpt lat="45.800461119828306" lon="10.784133801742492"><ele>92.0</ele><time>2026-03-28T19:36:28.999Z</time></trkpt><trkpt lat="45.800518332525044" lon="10.784330222200419"><ele>92.0</ele><time>2026-03-28T19:36:29.999Z</time></trkpt><trkpt lat="45.8005690511858" lon="10.784504348138244"><ele>92.0</ele><time>2026-03-28T19:36:30.999Z</time></trkpt><trkpt lat="45.800621521086924" lon="10.784684486106173"><ele>92.0</ele><time>2026-03-28T19:36:32Z</time></trkpt><trkpt lat="45.800674956454976" lon="10.784866326883542"><ele>89.5</ele><time>2026-03-28T19:36:33Z</time></trkpt><trkpt lat="45.8007412141685" lon="10.78502261002824"><ele>87.0</ele><time>2026-03-28T19:36:34Z</time></trkpt><trkpt lat="45.80078677670607" lon="10.785174011647642"><ele>84.5</ele><time>2026-03-28T19:36:35Z</time></trkpt><trkpt lat="45.800850559583814" lon="10.785308900192938"><ele>82.0</ele><time>2026-03-28T19:36:36Z</time></trkpt><trkpt lat="45.80092073537603" lon="10.785436466658657"><ele>82.75</ele><time>2026-03-28T19:36:37Z</time></trkpt><trkpt lat="45.80097622604766" lon="10.785580990852948"><ele>83.5</ele><time>2026-03-28T19:36:38Z</time></trkpt><trkpt lat="45.80107370062692" lon="10.78568865613063"><ele>84.25</ele><time>2026-03-28T19:36:39Z</time></trkpt><trkpt lat="45.80117135872528" lon="10.785792458337353"><ele>85.0</ele><time>2026-03-28T19:36:40Z</time></trkpt><trkpt lat="45.801272649783876" lon="10.785887116071427"><ele>85.0</ele><time>2026-03-28T19:36:41Z</time></trkpt><trkpt lat="45.80136704238367" lon="10.785989438322416"><ele>85.0</ele><time>2026-03-28T19:36:42Z</time></trkpt><trkpt lat="45.801464709072" lon="10.786085482357779"><ele>85.0</ele><time>2026-03-28T19:36:43Z</time></trkpt><trkpt lat="45.80156169809214" lon="10.78618318525919"><ele>85.0</ele><time>2026-03-28T19:36:44Z</time></trkpt><trkpt lat="45.80166184528479" lon="10.786275470336397"><ele>85.0</ele><time>2026-03-28T19:36:45Z</time></trkpt><trkpt lat="45.80175456532696" lon="10.786363943276536"><ele>85.0</ele><time>2026-03-28T19:36:46Z</time></trkpt><trkpt lat="45.80186555032551" lon="10.786452535561125"><ele>85.0</ele><time>2026-03-28T19:36:47Z</time></trkpt><trkpt lat="45.801974352089395" lon="10.786538031079692"><ele>85.0</ele><time>2026-03-28T19:36:48Z</time></trkpt><trkpt lat="45.80210636412015" lon="10.786616524575592"><ele>85.0</ele><time>2026-03-28T19:36:49Z</time></trkpt><trkpt lat="45.80225985356861" lon="10.786702064240256"><ele>85.0</ele><time>2026-03-28T19:36:50Z</time></trkpt><trkpt lat="45.80244398569165" lon="10.78679417791226"><ele>85.0</ele><time>2026-03-28T19:36:51Z</time></trkpt><trkpt lat="45.80266182131361" lon="10.78688445131697"><ele>83.66666666666666</ele><time>2026-03-28T19:36:52Z</time></trkpt><trkpt lat="45.80288993429639" lon="10.786963679770713"><ele>82.33333333333333</ele><time>2026-03-28T19:36:53Z</time></trkpt><trkpt lat="45.80307668609963" lon="10.787046526560987"><ele>81.0</ele><time>2026-03-28T19:36:54Z</time></trkpt><trkpt lat="45.80324544543997" lon="10.787117858981292"><ele>81.0</ele><time>2026-03-28T19:36:55Z</time></trkpt><trkpt lat="45.803399854633426" lon="10.78718809146782"><ele>81.0</ele><time>2026-03-28T19:36:56Z</time></trkpt><trkpt lat="45.80356878916641" lon="10.7872576715543"><ele>81.0</ele><time>2026-03-28T19:36:57Z</time></trkpt><trkpt lat="45.80371309766822" lon="10.787315260603135"><ele>82.33333333333333</ele><time>2026-03-28T19:36:58Z</time></trkpt><trkpt lat="45.803861021979245" lon="10.787365386266128"><ele>83.66666666666666</ele><time>2026-03-28T19:36:59Z</time></trkpt><trkpt lat="45.80401521380323" lon="10.78740856809938"><ele>85.0</ele><time>2026-03-28T19:37:00Z</time></trkpt><trkpt lat="45.80416902450069" lon="10.787439441082114"><ele>85.0</ele><time>2026-03-28T19:37:01Z</time></trkpt><trkpt lat="45.804325154924335" lon="10.787454346525278"><ele>85.0</ele><time>2026-03-28T19:37:02Z</time></trkpt><trkpt lat="45.80448270976133" lon="10.787459324755726"><ele>85.0</ele><time>2026-03-28T19:37:03Z</time></trkpt><trkpt lat="45.80462179888603" lon="10.78744787813619"><ele>85.25</ele><time>2026-03-28T19:37:04Z</time></trkpt><trkpt lat="45.804766710918535" lon="10.787449034841384"><ele>85.5</ele><time>2026-03-28T19:37:05Z</time></trkpt><trkpt lat="45.80490386684246" lon="10.787437101169717"><ele>85.75</ele><time>2026-03-28T19:37:06Z</time></trkpt><trkpt lat="45.80504459781736" lon="10.787420334729678"><ele>86.0</ele><time>2026-03-28T19:37:07Z</time></trkpt><trkpt lat="45.80518432541756" lon="10.787405970385615"><ele>86.25</ele><time>2026-03-28T19:37:08Z</time></trkpt><trkpt lat="45.80532360350685" lon="10.787388672384925"><ele>86.5</ele><time>2026-03-28T19:37:09Z</time></trkpt><trkpt lat="45.805454130830384" lon="10.787367160226335"><ele>86.75</ele><time>2026-03-28T19:37:10Z</time></trkpt><trkpt lat="45.80557694390447" lon="10.787356672723055"><ele>87.0</ele><time>2026-03-28T19:37:11Z</time></trkpt><trkpt lat="45.80570309113287" lon="10.787348158831406"><ele>87.0</ele><time>2026-03-28T19:37:12Z</time></trkpt><trkpt lat="45.80583181396434" lon="10.787372097093181"><ele>87.0</ele><time>2026-03-28T19:37:13Z</time></trkpt><trkpt lat="45.80596139170271" lon="10.787374382843215"><ele>87.0</ele><time>2026-03-28T19:37:14Z</time></trkpt><trkpt lat="45.80609622043948" lon="10.787382118783528"><ele>87.0</ele><time>2026-03-28T19:37:15Z</time></trkpt><trkpt lat="45.80622221331462" lon="10.787393966772123"><ele>87.75</ele><time>2026-03-28T19:37:16Z</time></trkpt><trkpt lat="45.80635323970414" lon="10.787414499260843"><ele>88.5</ele><time>2026-03-28T19:37:17Z</time></trkpt><trkpt lat="45.806489253222" lon="10.78744147547664"><ele>89.25</ele><time>2026-03-28T19:37:18Z</time></trkpt><trkpt lat="45.8066177451194" lon="10.787473471194883"><ele>90.0</ele><time>2026-03-28T19:37:19Z</time></trkpt><trkpt lat="45.806742236107794" lon="10.787509261849172"><ele>91.25</ele><time>2026-03-28T19:37:20Z</time></trkpt><trkpt lat="45.80686855350381" lon="10.787551433294293"><ele>92.5</ele><time>2026-03-28T19:37:21Z</time></trkpt><trkpt lat="45.80699600469129" lon="10.78759675210939"><ele>93.75</ele><time>2026-03-28T19:37:22Z</time></trkpt><trkpt lat="45.80712173635595" lon="10.7876455303135"><ele>95.0</ele><time>2026-03-28T19:37:23Z</time></trkpt><trkpt lat="45.80723530061153" lon="10.787692931984665"><ele>94.6</ele><time>2026-03-28T19:37:24Z</time></trkpt><trkpt lat="45.80733369506426" lon="10.787745771306861"><ele>94.2</ele><time>2026-03-28T19:37:25Z</time></trkpt><trkpt lat="45.80743504128043" lon="10.787809894540015"><ele>93.80000000000001</ele><time>2026-03-28T19:37:26Z</time></trkpt><trkpt lat="45.80753778842166" lon="10.787886146105535"><ele>93.4</ele><time>2026-03-28T19:37:27Z</time></trkpt><trkpt lat="45.80763634562014" lon="10.787967417250472"><ele>93.0</ele><time>2026-03-28T19:37:28Z</time></trkpt><trkpt lat="45.807728153432606" lon="10.788055733717222"><ele>93.0</ele><time>2026-03-28T19:37:29Z</time></trkpt><trkpt lat="45.80781319114639" lon="10.78815471438814"><ele>93.0</ele><time>2026-03-28T19:37:30Z</time></trkpt><trkpt lat="45.80789179272425" lon="10.788256539803067"><ele>93.0</ele><time>2026-03-28T19:37:31Z</time></trkpt><trkpt lat="45.80796997352304" lon="10.788365322246081"><ele>93.0</ele><time>2026-03-28T19:37:32Z</time></trkpt><trkpt lat="45.808041624508725" lon="10.788482302176575"><ele>93.0</ele><time>2026-03-28T19:37:33Z</time></trkpt><trkpt lat="45.80810789678271" lon="10.788608961287318"><ele>92.4</ele><time>2026-03-28T19:37:34Z</time></trkpt><trkpt lat="45.80820049278086" lon="10.78871309126393"><ele>91.80000000000001</ele><time>2026-03-28T19:37:35Z</time></trkpt><trkpt lat="45.80825088484854" lon="10.788832499608338"><ele>91.2</ele><time>2026-03-28T19:37:36Z</time></trkpt><trkpt lat="45.80829721927946" lon="10.788946875394325"><ele>90.6</ele><time>2026-03-28T19:37:37Z</time></trkpt><trkpt lat="45.808330213093484" lon="10.789070539371606"><ele>90.0</ele><time>2026-03-28T19:37:38Z</time></trkpt><trkpt lat="45.8083793763238" lon="10.789173557392594"><ele>90.0</ele><time>2026-03-28T19:37:39Z</time></trkpt><trkpt lat="45.80841274301504" lon="10.78928353760733"><ele>90.0</ele><time>2026-03-28T19:37:40Z</time></trkpt><trkpt lat="45.80845231763893" lon="10.789359833973046"><ele>90.0</ele><time>2026-03-28T19:37:41Z</time></trkpt><trkpt lat="45.80851306060305" lon="10.789469593063114"><ele>90.0</ele><time>2026-03-28T19:37:43Z</time></trkpt><trkpt lat="45.80856939415834" lon="10.78956301202202"><ele>90.0</ele><time>2026-03-28T19:37:45Z</time></trkpt><trkpt lat="45.808653541210056" lon="10.78968631886545"><ele>90.0</ele><time>2026-03-28T19:37:47Z</time></trkpt><trkpt lat="45.808711090775304" lon="10.789777001749284"><ele>90.0</ele><time>2026-03-28T19:37:48Z</time></trkpt><trkpt lat="45.808783327048275" lon="10.789881075530127"><ele>90.0</ele><time>2026-03-28T19:37:49Z</time></trkpt><trkpt lat="45.80885953226214" lon="10.789981227957169"><ele>90.0</ele><time>2026-03-28T19:37:50Z</time></trkpt><trkpt lat="45.80894658182847" lon="10.79009259948151"><ele>90.0</ele><time>2026-03-28T19:37:51Z</time></trkpt><trkpt lat="45.80904997093437" lon="10.790204884146084"><ele>90.0</ele><time>2026-03-28T19:37:52Z</time></trkpt><trkpt lat="45.80915713463491" lon="10.79030753862238"><ele>90.0</ele><time>2026-03-28T19:37:53Z</time></trkpt><trkpt lat="45.809261244320574" lon="10.790394062253005"><ele>90.0</ele><time>2026-03-28T19:37:54Z</time></trkpt><trkpt lat="45.809375365465286" lon="10.79048479661429"><ele>90.0</ele><time>2026-03-28T19:37:55Z</time></trkpt><trkpt lat="45.809490143008034" lon="10.790577685415224"><ele>91.0</ele><time>2026-03-28T19:37:56Z</time></trkpt><trkpt lat="45.80960089713783" lon="10.790673543733876"><ele>92.0</ele><time>2026-03-28T19:37:57Z</time></trkpt><trkpt lat="45.80971467090371" lon="10.790769746995956"><ele>93.0</ele><time>2026-03-28T19:37:58Z</time></trkpt><trkpt lat="45.809840002249985" lon="10.790863005809241"><ele>94.0</ele><time>2026-03-28T19:37:59Z</time></trkpt><trkpt lat="45.809963648363684" lon="10.790961588446164"><ele>94.5</ele><time>2026-03-28T19:38:00Z</time></trkpt><trkpt lat="45.81009499450183" lon="10.79106988519195"><ele>95.0</ele><time>2026-03-28T19:38:01Z</time></trkpt><trkpt lat="45.810225842917646" lon="10.791172512286547"><ele>95.5</ele><time>2026-03-28T19:38:02Z</time></trkpt><trkpt lat="45.810339745906326" lon="10.79127623394617"><ele>96.0</ele><time>2026-03-28T19:38:03Z</time></trkpt><trkpt lat="45.81045104095071" lon="10.791373899518339"><ele>96.0</ele><time>2026-03-28T19:38:04Z</time></trkpt><trkpt lat="45.81055596785006" lon="10.79148740316914"><ele>96.0</ele><time>2026-03-28T19:38:05Z</time></trkpt><trkpt lat="45.81067099665645" lon="10.791599421495972"><ele>96.0</ele><time>2026-03-28T19:38:06Z</time></trkpt><trkpt lat="45.81078828318738" lon="10.791706540879124"><ele>96.0</ele><time>2026-03-28T19:38:07Z</time></trkpt><trkpt lat="45.810901875273416" lon="10.791820532390927"><ele>95.33333333333333</ele><time>2026-03-28T19:38:08Z</time></trkpt><trkpt lat="45.81103202018071" lon="10.791914518063676"><ele>94.66666666666666</ele><time>2026-03-28T19:38:08.999Z</time></trkpt><trkpt lat="45.81117038817135" lon="10.792006392769633"><ele>94.0</ele><time>2026-03-28T19:38:09.999Z</time></trkpt><trkpt lat="45.81134352841238" lon="10.792071108449555"><ele>94.0</ele><time>2026-03-28T19:38:10.999Z</time></trkpt><trkpt lat="45.81153556071681" lon="10.792127659116113"><ele>94.0</ele><time>2026-03-28T19:38:11.999Z</time></trkpt><trkpt lat="45.811710489368686" lon="10.792178718722669"><ele>94.0</ele><time>2026-03-28T19:38:12.999Z</time></trkpt><trkpt lat="45.811867982936874" lon="10.792222119392164"><ele>94.66666666666666</ele><time>2026-03-28T19:38:13.999Z</time></trkpt><trkpt lat="45.81203335349227" lon="10.792262936535066"><ele>95.33333333333333</ele><time>2026-03-28T19:38:14.999Z</time></trkpt><trkpt lat="45.81219686445182" lon="10.792301360283519"><ele>96.0</ele><time>2026-03-28T19:38:15.999Z</time></trkpt><trkpt lat="45.812361568225924" lon="10.792325505725952"><ele>96.0</ele><time>2026-03-28T19:38:16.999Z</time></trkpt><trkpt lat="45.81252849145442" lon="10.792326968204389"><ele>96.0</ele><time>2026-03-28T19:38:17.999Z</time></trkpt><trkpt lat="45.81271258972391" lon="10.792315797097052"><ele>96.0</ele><time>2026-03-28T19:38:18.999Z</time></trkpt><trkpt lat="45.81290138939782" lon="10.79228546728727"><ele>95.0</ele><time>2026-03-28T19:38:19.999Z</time></trkpt><trkpt lat="45.81307101683467" lon="10.792244021401991"><ele>94.0</ele><time>2026-03-28T19:38:20.999Z</time></trkpt><trkpt lat="45.81324840422513" lon="10.792166193626862"><ele>93.0</ele><time>2026-03-28T19:38:21.999Z</time></trkpt><trkpt lat="45.813407613996574" lon="10.792084089187583"><ele>91.0</ele><time>2026-03-28T19:38:22.999Z</time></trkpt><trkpt lat="45.813555295301306" lon="10.792007326323999"><ele>89.0</ele><time>2026-03-28T19:38:23.999Z</time></trkpt><trkpt lat="45.81370759746275" lon="10.791919309703673"><ele>87.0</ele><time>2026-03-28T19:38:24.999Z</time></trkpt><trkpt lat="45.81385680534486" lon="10.791843614299259"><ele>90.0</ele><time>2026-03-28T19:38:25.999Z</time></trkpt><trkpt lat="45.81400005812034" lon="10.791770255389563"><ele>93.0</ele><time>2026-03-28T19:38:26.999Z</time></trkpt><trkpt lat="45.81414027106477" lon="10.79169355469116"><ele>96.0</ele><time>2026-03-28T19:38:27.999Z</time></trkpt><trkpt lat="45.81426668342391" lon="10.791628653751479"><ele>99.0</ele><time>2026-03-28T19:38:28.999Z</time></trkpt><trkpt lat="45.814405617145134" lon="10.791568442006964"><ele>99.33333333333334</ele><time>2026-03-28T19:38:29.999Z</time></trkpt><trkpt lat="45.81455247022746" lon="10.791494477606065"><ele>99.66666666666667</ele><time>2026-03-28T19:38:30.999Z</time></trkpt><trkpt lat="45.81471046166529" lon="10.79146513730382"><ele>100.0</ele><time>2026-03-28T19:38:31.999Z</time></trkpt><trkpt lat="45.81486482741322" lon="10.791441873378137"><ele>100.0</ele><time>2026-03-28T19:38:32.999Z</time></trkpt><trkpt lat="45.8149989491596" lon="10.791434801175859"><ele>100.0</ele><time>2026-03-28T19:38:33.999Z</time></trkpt><trkpt lat="45.81514447493784" lon="10.791435558166404"><ele>100.0</ele><time>2026-03-28T19:38:34.999Z</time></trkpt><trkpt lat="45.81529743590266" lon="10.791438847642384"><ele>100.0</ele><time>2026-03-28T19:38:35.999Z</time></trkpt><trkpt lat="45.81545359905512" lon="10.791456675629714"><ele>107.66666666666667</ele><time>2026-03-28T19:38:36.999Z</time></trkpt><trkpt lat="45.815608890508244" lon="10.791502739439299"><ele>115.33333333333334</ele><time>2026-03-28T19:38:38Z</time></trkpt><trkpt lat="45.81575739621193" lon="10.791574617889816"><ele>123.0</ele><time>2026-03-28T19:38:39Z</time></trkpt><trkpt lat="45.81588953624493" lon="10.791662632268123"><ele>125.75</ele><time>2026-03-28T19:38:40Z</time></trkpt><trkpt lat="45.816022592706815" lon="10.791764235314993"><ele>128.5</ele><time>2026-03-28T19:38:41.016Z</time></trkpt><trkpt lat="45.81615192926659" lon="10.79186850544688"><ele>131.25</ele><time>2026-03-28T19:38:42.017Z</time></trkpt><trkpt lat="45.816272743214526" lon="10.791975053322203"><ele>134.0</ele><time>2026-03-28T19:38:43.017Z</time></trkpt><trkpt lat="45.81638010955539" lon="10.792082874948406"><ele>134.0</ele><time>2026-03-28T19:38:44.016Z</time></trkpt><trkpt lat="45.81647022416054" lon="10.792189712413691"><ele>134.0</ele><time>2026-03-28T19:38:45.013Z</time></trkpt><trkpt lat="45.816565383608776" lon="10.792306594535379"><ele>134.0</ele><time>2026-03-28T19:38:46.015Z</time></trkpt><trkpt lat="45.81715894867276" lon="10.793426502506057"><ele>128.0</ele><time>2026-03-28T19:38:51Z</time></trkpt><trkpt lat="45.81724606508817" lon="10.793640273101342"><ele>122.0</ele><time>2026-03-28T19:38:52Z</time></trkpt><trkpt lat="45.81731507881507" lon="10.794047001890146"><ele>122.0</ele><time>2026-03-28T19:38:53Z</time></trkpt><trkpt lat="45.817383288544264" lon="10.79424598529583"><ele>122.0</ele><time>2026-03-28T19:38:54Z</time></trkpt><trkpt lat="45.81746719659377" lon="10.794434722283963"><ele>122.0</ele><time>2026-03-28T19:38:55Z</time></trkpt><trkpt lat="45.8175603008756" lon="10.794620585381068"><ele>123.0</ele><time>2026-03-28T19:38:56Z</time></trkpt><trkpt lat="45.81766796682124" lon="10.794815887246019"><ele>124.0</ele><time>2026-03-28T19:38:57Z</time></trkpt><trkpt lat="45.81780341010274" lon="10.795035546314253"><ele>125.0</ele><time>2026-03-28T19:38:58Z</time></trkpt><trkpt lat="45.81794044971385" lon="10.795230629228401"><ele>117.0</ele><time>2026-03-28T19:38:59Z</time></trkpt><trkpt lat="45.81805075558285" lon="10.79544659692979"><ele>109.0</ele><time>2026-03-28T19:39:00Z</time></trkpt><trkpt lat="45.8181707534161" lon="10.795608118084266"><ele>101.0</ele><time>2026-03-28T19:39:01Z</time></trkpt><trkpt lat="45.81825699173464" lon="10.795755708885453"><ele>101.0</ele><time>2026-03-28T19:39:02Z</time></trkpt><trkpt lat="45.81836879485401" lon="10.795923026407516"><ele>101.0</ele><time>2026-03-28T19:39:03Z</time></trkpt><trkpt lat="45.81850197594939" lon="10.796051563917386"><ele>101.0</ele><time>2026-03-28T19:39:04Z</time></trkpt><trkpt lat="45.81864485932696" lon="10.796178380670222"><ele>105.66666666666666</ele><time>2026-03-28T19:39:05Z</time></trkpt><trkpt lat="45.81878933336813" lon="10.7963125979154"><ele>110.33333333333334</ele><time>2026-03-28T19:39:06Z</time></trkpt><trkpt lat="45.81895356794134" lon="10.796458629067795"><ele>115.0</ele><time>2026-03-28T19:39:07Z</time></trkpt><trkpt lat="45.81910128599412" lon="10.796601460129187"><ele>115.0</ele><time>2026-03-28T19:39:08Z</time></trkpt><trkpt lat="45.81922649466171" lon="10.79677182133674"><ele>115.0</ele><time>2026-03-28T19:39:09Z</time></trkpt><trkpt lat="45.819319789174436" lon="10.796932477971755"><ele>115.0</ele><time>2026-03-28T19:39:10Z</time></trkpt><trkpt lat="45.819433289519765" lon="10.797131686126813"><ele>115.33333333333334</ele><time>2026-03-28T19:39:11Z</time></trkpt><trkpt lat="45.819519349928704" lon="10.797345388387923"><ele>115.66666666666666</ele><time>2026-03-28T19:39:12Z</time></trkpt><trkpt lat="45.819611761979935" lon="10.797533866203288"><ele>116.0</ele><time>2026-03-28T19:39:13Z</time></trkpt><trkpt lat="45.81969748642427" lon="10.797709057091287"><ele>116.0</ele><time>2026-03-28T19:39:14Z</time></trkpt><trkpt lat="45.81978296425653" lon="10.797883253990223"><ele>116.0</ele><time>2026-03-28T19:39:15Z</time></trkpt><trkpt lat="45.81987109804639" lon="10.798063031570905"><ele>116.0</ele><time>2026-03-28T19:39:16Z</time></trkpt><trkpt lat="45.81996084077831" lon="10.798246509339497"><ele>116.0</ele><time>2026-03-28T19:39:17Z</time></trkpt><trkpt lat="45.82006333311475" lon="10.79845607063509"><ele>116.0</ele><time>2026-03-28T19:39:18Z</time></trkpt><trkpt lat="45.82016037031523" lon="10.798654477333438"><ele>116.0</ele><time>2026-03-28T19:39:19Z</time></trkpt><trkpt lat="45.82025907683427" lon="10.798856311319547"><ele>97.0</ele><time>2026-03-28T19:39:20.017Z</time></trkpt><trkpt lat="45.82068781372702" lon="10.79968283885233"><ele>97.0</ele><time>2026-03-28T19:39:26Z</time></trkpt><trkpt lat="45.82076530726554" lon="10.79981959303365"><ele>97.0</ele><time>2026-03-28T19:39:27Z</time></trkpt><trkpt lat="45.82091414535325" lon="10.799789260200834"><ele>97.0</ele><time>2026-03-28T19:39:28Z</time></trkpt><trkpt lat="45.82098732228664" lon="10.799862628646817"><ele>97.0</ele><time>2026-03-28T19:39:29Z</time></trkpt><trkpt lat="45.82108803472245" lon="10.799937801679546"><ele>101.0</ele><time>2026-03-28T19:39:30Z</time></trkpt><trkpt lat="45.82118259731648" lon="10.800025943086146"><ele>105.0</ele><time>2026-03-28T19:39:31Z</time></trkpt><trkpt lat="45.821256213508065" lon="10.800153668230928"><ele>109.0</ele><time>2026-03-28T19:39:32Z</time></trkpt><trkpt lat="45.82133100665177" lon="10.800273446941452"><ele>113.0</ele><time>2026-03-28T19:39:33Z</time></trkpt><trkpt lat="45.82139702948098" lon="10.800406768323422"><ele>113.0</ele><time>2026-03-28T19:39:34Z</time></trkpt><trkpt lat="45.8214575737211" lon="10.800557397945873"><ele>113.00000000000001</ele><time>2026-03-28T19:39:35Z</time></trkpt><trkpt lat="45.82151252872313" lon="10.800713387482988"><ele>113.00000000000001</ele><time>2026-03-28T19:39:36Z</time></trkpt><trkpt lat="45.821555147588214" lon="10.80084895342955"><ele>113.0</ele><time>2026-03-28T19:39:37Z</time></trkpt><trkpt lat="45.821588958320966" lon="10.80097394596816"><ele>113.0</ele><time>2026-03-28T19:39:38Z</time></trkpt><trkpt lat="45.821621072985835" lon="10.801114379380047"><ele>113.0</ele><time>2026-03-28T19:39:39Z</time></trkpt><trkpt lat="45.82164232470101" lon="10.801252534486697"><ele>113.00000000000001</ele><time>2026-03-28T19:39:40Z</time></trkpt><trkpt lat="45.82165694607743" lon="10.80140176010086"><ele>113.00000000000001</ele><time>2026-03-28T19:39:41Z</time></trkpt><trkpt lat="45.82166354063621" lon="10.801551624380624"><ele>113.0</ele><time>2026-03-28T19:39:42Z</time></trkpt><trkpt lat="45.821661977933736" lon="10.801706681944461"><ele>113.0</ele><time>2026-03-28T19:39:43Z</time></trkpt><trkpt lat="45.82165178701575" lon="10.80186304730103"><ele>113.25</ele><time>2026-03-28T19:39:44Z</time></trkpt><trkpt lat="45.8216385539087" lon="10.802030738363674"><ele>113.5</ele><time>2026-03-28T19:39:45Z</time></trkpt><trkpt lat="45.82162911994882" lon="10.80220380584947"><ele>113.75</ele><time>2026-03-28T19:39:46Z</time></trkpt><trkpt lat="45.82162685579174" lon="10.8023751074944"><ele>114.0</ele><time>2026-03-28T19:39:47Z</time></trkpt><trkpt lat="45.821650494401815" lon="10.802552383915392"><ele>113.0</ele><time>2026-03-28T19:39:48Z</time></trkpt><trkpt lat="45.821660277156" lon="10.802710169326977"><ele>112.0</ele><time>2026-03-28T19:39:49Z</time></trkpt><trkpt lat="45.82169365180513" lon="10.802895666299225"><ele>111.0</ele><time>2026-03-28T19:39:50Z</time></trkpt><trkpt lat="45.82174134465089" lon="10.80306791939352"><ele>110.0</ele><time>2026-03-28T19:39:51Z</time></trkpt><trkpt lat="45.82179412907888" lon="10.803244148048194"><ele>116.75</ele><time>2026-03-28T19:39:52Z</time></trkpt><trkpt lat="45.82185159535729" lon="10.803412533696909"><ele>123.5</ele><time>2026-03-28T19:39:53Z</time></trkpt><trkpt lat="45.821917472881495" lon="10.80357878729632"><ele>130.25</ele><time>2026-03-28T19:39:54Z</time></trkpt><trkpt lat="45.82196959428983" lon="10.803726750582051"><ele>137.0</ele><time>2026-03-28T19:39:55Z</time></trkpt><trkpt lat="45.82202562981658" lon="10.80387937424071"><ele>137.0</ele><time>2026-03-28T19:39:56Z</time></trkpt><trkpt lat="45.822058460920175" lon="10.804009660543635"><ele>137.0</ele><time>2026-03-28T19:39:57Z</time></trkpt><trkpt lat="45.8221140344592" lon="10.804150519486464"><ele>137.0</ele><time>2026-03-28T19:39:58Z</time></trkpt><trkpt lat="45.82217339010932" lon="10.804287629809133"><ele>137.0</ele><time>2026-03-28T19:39:59Z</time></trkpt><trkpt lat="45.82222474754125" lon="10.804402030977672"><ele>137.0</ele><time>2026-03-28T19:40:00Z</time></trkpt><trkpt lat="45.82228114958188" lon="10.804516598912855"><ele>133.6</ele><time>2026-03-28T19:40:01Z</time></trkpt><trkpt lat="45.82234324191846" lon="10.80463805637974"><ele>130.2</ele><time>2026-03-28T19:40:02Z</time></trkpt><trkpt lat="45.82242642939071" lon="10.804750305107811"><ele>126.8</ele><time>2026-03-28T19:40:03Z</time></trkpt><trkpt lat="45.8225090515733" lon="10.804863599095006"><ele>123.4</ele><time>2026-03-28T19:40:04Z</time></trkpt><trkpt lat="45.82254870708275" lon="10.805016965049902"><ele>120.0</ele><time>2026-03-28T19:40:05Z</time></trkpt><trkpt lat="45.822603622329275" lon="10.805157710608562"><ele>137.75</ele><time>2026-03-28T19:40:06Z</time></trkpt><trkpt lat="45.82267641827277" lon="10.805314643431982"><ele>155.5</ele><time>2026-03-28T19:40:06.999Z</time></trkpt><trkpt lat="45.822740971145976" lon="10.805466415444876"><ele>173.25</ele><time>2026-03-28T19:40:07.999Z</time></trkpt><trkpt lat="45.82274617846784" lon="10.80567203177267"><ele>191.0</ele><time>2026-03-28T19:40:08.999Z</time></trkpt><trkpt lat="45.82280093932641" lon="10.80582440411653"><ele>185.75</ele><time>2026-03-28T19:40:09.999Z</time></trkpt><trkpt lat="45.822842174289065" lon="10.80600735698172"><ele>180.5</ele><time>2026-03-28T19:40:10.999Z</time></trkpt><trkpt lat="45.82288212745445" lon="10.806194777126006"><ele>175.25</ele><time>2026-03-28T19:40:11.999Z</time></trkpt><trkpt lat="45.82291911726041" lon="10.806375227592001"><ele>170.0</ele><time>2026-03-28T19:40:12.999Z</time></trkpt><trkpt lat="45.822959375370544" lon="10.806556979348843"><ele>170.0</ele><time>2026-03-28T19:40:14.015Z</time></trkpt><trkpt lat="45.8229984081375" lon="10.806736369107808"><ele>170.0</ele><time>2026-03-28T19:40:15.015Z</time></trkpt><trkpt lat="45.82303739030784" lon="10.806915799266461"><ele>170.0</ele><time>2026-03-28T19:40:16.016Z</time></trkpt><trkpt lat="45.82307168094821" lon="10.807095340876996"><ele>170.0</ele><time>2026-03-28T19:40:17.015Z</time></trkpt><trkpt lat="45.823841335989535" lon="10.808808265526746"><ele>124.0</ele><time>2026-03-28T19:40:28.999Z</time></trkpt><trkpt lat="45.82419444610012" lon="10.809298207445817"><ele>120.80000000000001</ele><time>2026-03-28T19:40:33.999Z</time></trkpt><trkpt lat="45.82420877078916" lon="10.80943286930528"><ele>117.60000000000001</ele><time>2026-03-28T19:40:34.999Z</time></trkpt><trkpt lat="45.824214416839425" lon="10.809570617789245"><ele>114.4</ele><time>2026-03-28T19:40:35.999Z</time></trkpt><trkpt lat="45.82422043685637" lon="10.809700882019525"><ele>111.2</ele><time>2026-03-28T19:40:36.999Z</time></trkpt><trkpt lat="45.82420238333944" lon="10.8098387174672"><ele>108.0</ele><time>2026-03-28T19:40:37.999Z</time></trkpt><trkpt lat="45.82419165571827" lon="10.809976616554072"><ele>108.0</ele><time>2026-03-28T19:40:38.999Z</time></trkpt><trkpt lat="45.82419545767872" lon="10.810122810018234"><ele>108.0</ele><time>2026-03-28T19:40:39.999Z</time></trkpt><trkpt lat="45.824187828068865" lon="10.81027631337428"><ele>108.0</ele><time>2026-03-28T19:40:40.999Z</time></trkpt><trkpt lat="45.82418615391729" lon="10.81045525167605"><ele>108.0</ele><time>2026-03-28T19:40:41.999Z</time></trkpt><trkpt lat="45.824194365311605" lon="10.810624303308332"><ele>107.75</ele><time>2026-03-28T19:40:42.999Z</time></trkpt><trkpt lat="45.82420731763306" lon="10.810771429448577"><ele>107.5</ele><time>2026-03-28T19:40:44Z</time></trkpt><trkpt lat="45.82424947497414" lon="10.810935900500954"><ele>107.25</ele><time>2026-03-28T19:40:45Z</time></trkpt><trkpt lat="45.824292966386125" lon="10.811168179560134"><ele>107.0</ele><time>2026-03-28T19:40:46Z</time></trkpt><trkpt lat="45.82436412665358" lon="10.811436762592537"><ele>118.0</ele><time>2026-03-28T19:40:47Z</time></trkpt><trkpt lat="45.82444114788192" lon="10.811752013233141"><ele>129.0</ele><time>2026-03-28T19:40:48Z</time></trkpt><trkpt lat="45.824511423584994" lon="10.812096003508836"><ele>129.0</ele><time>2026-03-28T19:40:49Z</time></trkpt><trkpt lat="45.824542054327466" lon="10.812489432913786"><ele>129.0</ele><time>2026-03-28T19:40:50Z</time></trkpt><trkpt lat="45.82462886508481" lon="10.812749547057459"><ele>126.33333333333334</ele><time>2026-03-28T19:40:51Z</time></trkpt><trkpt lat="45.82470225254203" lon="10.81299177786329"><ele>123.66666666666667</ele><time>2026-03-28T19:40:52Z</time></trkpt><trkpt lat="45.82478823785763" lon="10.813209476040914"><ele>121.0</ele><time>2026-03-28T19:40:53Z</time></trkpt><trkpt lat="45.82490379341139" lon="10.813408921040645"><ele>123.33333333333334</ele><time>2026-03-28T19:40:54Z</time></trkpt><trkpt lat="45.8250386267122" lon="10.813594209890649"><ele>125.66666666666666</ele><time>2026-03-28T19:40:55Z</time></trkpt><trkpt lat="45.82520397128525" lon="10.813759277947176"><ele>128.0</ele><time>2026-03-28T19:40:56Z</time></trkpt><trkpt lat="45.825385392154836" lon="10.813935118124665"><ele>128.0</ele><time>2026-03-28T19:40:57Z</time></trkpt><trkpt lat="45.82555728340475" lon="10.814145979111553"><ele>128.0</ele><time>2026-03-28T19:40:58Z</time></trkpt><trkpt lat="45.825699125692836" lon="10.814422747081679"><ele>117.0</ele><time>2026-03-28T19:40:59Z</time></trkpt><trkpt lat="45.82584176535067" lon="10.81470380152448"><ele>106.0</ele><time>2026-03-28T19:41:00Z</time></trkpt><trkpt lat="45.82595098622635" lon="10.814972627728144"><ele>109.0</ele><time>2026-03-28T19:41:01Z</time></trkpt><trkpt lat="45.826071525317225" lon="10.81519964298592"><ele>112.0</ele><time>2026-03-28T19:41:02Z</time></trkpt><trkpt lat="45.82618058912839" lon="10.815390648160932"><ele>115.0</ele><time>2026-03-28T19:41:03Z</time></trkpt><trkpt lat="45.82631810266666" lon="10.815584226918872"><ele>115.0</ele><time>2026-03-28T19:41:04Z</time></trkpt><trkpt lat="45.826491297329" lon="10.81575786962684"><ele>115.0</ele><time>2026-03-28T19:41:05Z</time></trkpt><trkpt lat="45.826696351443466" lon="10.815928855458473"><ele>115.0</ele><time>2026-03-28T19:41:06Z</time></trkpt><trkpt lat="45.82690305250887" lon="10.81608897459521"><ele>119.66666666666667</ele><time>2026-03-28T19:41:07Z</time></trkpt><trkpt lat="45.82708169851555" lon="10.816239308583777"><ele>124.33333333333334</ele><time>2026-03-28T19:41:08Z</time></trkpt><trkpt lat="45.82722586556074" lon="10.81644626693551"><ele>129.0</ele><time>2026-03-28T19:41:09Z</time></trkpt><trkpt lat="45.82735892146919" lon="10.816666995427115"><ele>122.33333333333334</ele><time>2026-03-28T19:41:10Z</time></trkpt><trkpt lat="45.82747168061193" lon="10.816899830667097"><ele>115.66666666666667</ele><time>2026-03-28T19:41:11Z</time></trkpt><trkpt lat="45.82756770633512" lon="10.817139992708698"><ele>109.0</ele><time>2026-03-28T19:41:12Z</time></trkpt><trkpt lat="45.82763391207519" lon="10.817368054492292"><ele>120.0</ele><time>2026-03-28T19:41:13Z</time></trkpt><trkpt lat="45.82767824586945" lon="10.817601362295138"><ele>131.0</ele><time>2026-03-28T19:41:14Z</time></trkpt><trkpt lat="45.827703548572096" lon="10.81785277911825"><ele>142.0</ele><time>2026-03-28T19:41:15Z</time></trkpt><trkpt lat="45.82770487583968" lon="10.818110229371383"><ele>142.0</ele><time>2026-03-28T19:41:16Z</time></trkpt><trkpt lat="45.827697427362445" lon="10.818387354735806"><ele>142.0</ele><time>2026-03-28T19:41:17Z</time></trkpt><trkpt lat="45.82769023600825" lon="10.8186973309323"><ele>142.0</ele><time>2026-03-28T19:41:18Z</time></trkpt><trkpt lat="45.82768580259153" lon="10.818986831723485"><ele>140.0</ele><time>2026-03-28T19:41:19Z</time></trkpt><trkpt lat="45.82768954476962" lon="10.819244808530586"><ele>138.0</ele><time>2026-03-28T19:41:20Z</time></trkpt><trkpt lat="45.82772087802103" lon="10.819511763531352"><ele>136.0</ele><time>2026-03-28T19:41:21Z</time></trkpt><trkpt lat="45.82777903299015" lon="10.819767668457565"><ele>132.33333333333334</ele><time>2026-03-28T19:41:22Z</time></trkpt><trkpt lat="45.82783893682236" lon="10.820024465699696"><ele>128.66666666666666</ele><time>2026-03-28T19:41:23Z</time></trkpt><trkpt lat="45.827912818575406" lon="10.820267080058857"><ele>125.0</ele><time>2026-03-28T19:41:24Z</time></trkpt><trkpt lat="45.828002288104535" lon="10.820500963884452"><ele>117.0</ele><time>2026-03-28T19:41:25Z</time></trkpt><trkpt lat="45.828105107800916" lon="10.820724903962322"><ele>109.0</ele><time>2026-03-28T19:41:26Z</time></trkpt><trkpt lat="45.828238280829275" lon="10.820932772095855"><ele>101.0</ele><time>2026-03-28T19:41:27Z</time></trkpt><trkpt lat="45.82838783556127" lon="10.821117457349288"><ele>104.66666666666666</ele><time>2026-03-28T19:41:28Z</time></trkpt><trkpt lat="45.82855314547144" lon="10.821291272387668"><ele>108.33333333333334</ele><time>2026-03-28T19:41:29Z</time></trkpt><trkpt lat="45.82874249579034" lon="10.821467642425498"><ele>112.0</ele><time>2026-03-28T19:41:30Z</time></trkpt><trkpt lat="45.82890743041208" lon="10.821661591488988"><ele>110.33333333333334</ele><time>2026-03-28T19:41:31Z</time></trkpt><trkpt lat="45.82904623742946" lon="10.821851596349587"><ele>108.66666666666666</ele><time>2026-03-28T19:41:32Z</time></trkpt><trkpt lat="45.82917967094766" lon="10.822031422605415"><ele>107.0</ele><time>2026-03-28T19:41:33Z</time></trkpt><trkpt lat="45.82931792814413" lon="10.822215364043224"><ele>107.0</ele><time>2026-03-28T19:41:34Z</time></trkpt><trkpt lat="45.82945795012156" lon="10.822401334737345"><ele>107.0</ele><time>2026-03-28T19:41:35.011Z</time></trkpt><trkpt lat="45.82976619991694" lon="10.822650386802483"><ele>101.0</ele><time>2026-03-28T19:41:37Z</time></trkpt><trkpt lat="45.82990392689705" lon="10.822653196779157"><ele>95.0</ele><time>2026-03-28T19:41:38Z</time></trkpt><trkpt lat="45.8300898155941" lon="10.822735050553543"><ele>89.0</ele><time>2026-03-28T19:41:39Z</time></trkpt><trkpt lat="45.830303070630926" lon="10.82282225541447"><ele>89.0</ele><time>2026-03-28T19:41:40Z</time></trkpt><trkpt lat="45.8304885915875" lon="10.822940006432457"><ele>89.0</ele><time>2026-03-28T19:41:41Z</time></trkpt><trkpt lat="45.83069917600121" lon="10.823034613636828"><ele>89.0</ele><time>2026-03-28T19:41:42Z</time></trkpt><trkpt lat="45.830878817431774" lon="10.823112637370437"><ele>89.33333333333334</ele><time>2026-03-28T19:41:43Z</time></trkpt><trkpt lat="45.83104404673221" lon="10.823220842673194"><ele>89.66666666666667</ele><time>2026-03-28T19:41:44Z</time></trkpt><trkpt lat="45.83119064259785" lon="10.823392204153853"><ele>90.0</ele><time>2026-03-28T19:41:45Z</time></trkpt><trkpt lat="45.8313281606879" lon="10.823580149805872"><ele>90.0</ele><time>2026-03-28T19:41:46Z</time></trkpt><trkpt lat="45.83146568847978" lon="10.823786905738492"><ele>90.0</ele><time>2026-03-28T19:41:47Z</time></trkpt><trkpt lat="45.83162205520321" lon="10.8240230209597"><ele>90.0</ele><time>2026-03-28T19:41:48Z</time></trkpt><trkpt lat="45.831792361481476" lon="10.824280883211499"><ele>89.66666666666667</ele><time>2026-03-28T19:41:49Z</time></trkpt><trkpt lat="45.83194485491313" lon="10.824504187794536"><ele>89.33333333333334</ele><time>2026-03-28T19:41:50Z</time></trkpt><trkpt lat="45.832089502070005" lon="10.824662108439792"><ele>89.0</ele><time>2026-03-28T19:41:51Z</time></trkpt><trkpt lat="45.832212534694946" lon="10.824806002197006"><ele>89.0</ele><time>2026-03-28T19:41:52Z</time></trkpt><trkpt lat="45.832360058448565" lon="10.824916603184654"><ele>89.0</ele><time>2026-03-28T19:41:53Z</time></trkpt><trkpt lat="45.832537745090576" lon="10.825011856630157"><ele>89.0</ele><time>2026-03-28T19:41:54Z</time></trkpt><trkpt lat="45.83269392563102" lon="10.82511066014271"><ele>81.0</ele><time>2026-03-28T19:41:55Z</time></trkpt><trkpt lat="45.83285056597242" lon="10.82521343333873"><ele>73.0</ele><time>2026-03-28T19:41:56Z</time></trkpt><trkpt lat="45.83304050568078" lon="10.82532049443592"><ele>65.0</ele><time>2026-03-28T19:41:57Z</time></trkpt><trkpt lat="45.83326083009577" lon="10.825362990660295"><ele>63.5</ele><time>2026-03-28T19:41:58Z</time></trkpt><trkpt lat="45.83349983881028" lon="10.825437802265672"><ele>62.0</ele><time>2026-03-28T19:41:59Z</time></trkpt><trkpt lat="45.83370694370521" lon="10.825496593269097"><ele>62.0</ele><time>2026-03-28T19:42:00Z</time></trkpt><trkpt lat="45.83388368852229" lon="10.825550211300065"><ele>62.0</ele><time>2026-03-28T19:42:01Z</time></trkpt><trkpt lat="45.83405872745712" lon="10.825563174805636"><ele>62.0</ele><time>2026-03-28T19:42:02Z</time></trkpt><trkpt lat="45.834254643313976" lon="10.825546809328282"><ele>62.0</ele><time>2026-03-28T19:42:03Z</time></trkpt><trkpt lat="45.834422257019426" lon="10.825497898958707"><ele>62.0</ele><time>2026-03-28T19:42:04Z</time></trkpt><trkpt lat="45.834572099317626" lon="10.825483521694913"><ele>62.0</ele><time>2026-03-28T19:42:05Z</time></trkpt><trkpt lat="45.83473528867832" lon="10.825464208216172"><ele>62.0</ele><time>2026-03-28T19:42:06.013Z</time></trkpt><trkpt lat="45.83609129757634" lon="10.825167775985612"><ele>62.0</ele><time>2026-03-28T19:42:09.062Z</time></trkpt><trkpt lat="45.8365401953957" lon="10.825184441076635"><ele>62.0</ele><time>2026-03-28T19:42:10.062Z</time></trkpt><trkpt lat="45.83715316797871" lon="10.82538137053612"><ele>95.0</ele><time>2026-03-28T19:42:11.06Z</time></trkpt><trkpt lat="45.838997857705905" lon="10.825954552105802"><ele>62.0</ele><time>2026-03-28T19:42:14.06Z</time></trkpt><trkpt lat="45.83652871481011" lon="10.825243670650606"><ele>62.0</ele><time>2026-03-28T19:42:17.015Z</time></trkpt><trkpt lat="45.837154973999155" lon="10.825406694689983"><ele>62.0</ele><time>2026-03-28T19:42:21.015Z</time></trkpt><trkpt lat="45.83730488336828" lon="10.825465186535238"><ele>62.0</ele><time>2026-03-28T19:42:22.015Z</time></trkpt><trkpt lat="45.837770702814005" lon="10.825650281021094"><ele>62.0</ele><time>2026-03-28T19:42:24.999Z</time></trkpt><trkpt lat="45.83800376938537" lon="10.825804392563578"><ele>62.0</ele><time>2026-03-28T19:42:25.999Z</time></trkpt><trkpt lat="45.838160662679016" lon="10.825775178228344"><ele>62.0</ele><time>2026-03-28T19:42:26.999Z</time></trkpt><trkpt lat="45.838344057244655" lon="10.825800979367644"><ele>73.0</ele><time>2026-03-28T19:42:27.999Z</time></trkpt><trkpt lat="45.83852428413653" lon="10.82585678726098"><ele>84.0</ele><time>2026-03-28T19:42:28.999Z</time></trkpt><trkpt lat="45.83873687303648" lon="10.825911239172195"><ele>95.0</ele><time>2026-03-28T19:42:29.999Z</time></trkpt><trkpt lat="45.838942111962716" lon="10.825964329590372"><ele>84.0</ele><time>2026-03-28T19:42:30.999Z</time></trkpt><trkpt lat="45.83913806030686" lon="10.826012333322408"><ele>73.0</ele><time>2026-03-28T19:42:31.999Z</time></trkpt><trkpt lat="45.839338665222954" lon="10.826049155077829"><ele>62.0</ele><time>2026-03-28T19:42:32.999Z</time></trkpt><trkpt lat="45.83953877029782" lon="10.826065750310143"><ele>62.0</ele><time>2026-03-28T19:42:33.999Z</time></trkpt><trkpt lat="45.83962779434343" lon="10.82606738489415"><ele>62.0</ele><time>2026-03-28T19:42:34.999Z</time></trkpt><trkpt lat="45.8398193021557" lon="10.826059576167644"><ele>62.0</ele><time>2026-03-28T19:42:35.999Z</time></trkpt><trkpt lat="45.84002941771274" lon="10.826024630359138"><ele>69.0</ele><time>2026-03-28T19:42:36.999Z</time></trkpt><trkpt lat="45.84024256380701" lon="10.825950540627765"><ele>76.0</ele><time>2026-03-28T19:42:37.999Z</time></trkpt><trkpt lat="45.84044724976308" lon="10.825887736477837"><ele>83.0</ele><time>2026-03-28T19:42:38.999Z</time></trkpt><trkpt lat="45.840621616279364" lon="10.825821898494015"><ele>83.0</ele><time>2026-03-28T19:42:39.999Z</time></trkpt><trkpt lat="45.840785248814136" lon="10.825773236685391"><ele>83.0</ele><time>2026-03-28T19:42:40.999Z</time></trkpt><trkpt lat="45.84094767031975" lon="10.82578201362516"><ele>83.0</ele><time>2026-03-28T19:42:41.999Z</time></trkpt><trkpt lat="45.84112143966622" lon="10.82579787072978"><ele>86.0</ele><time>2026-03-28T19:42:42.999Z</time></trkpt><trkpt lat="45.84130649295049" lon="10.825825747839211"><ele>89.0</ele><time>2026-03-28T19:42:43.999Z</time></trkpt><trkpt lat="45.84152075731902" lon="10.825867535353318"><ele>92.0</ele><time>2026-03-28T19:42:44.999Z</time></trkpt><trkpt lat="45.84168740308503" lon="10.82589899151516"><ele>85.33333333333334</ele><time>2026-03-28T19:42:45.999Z</time></trkpt><trkpt lat="45.84189074150677" lon="10.826037579526961"><ele>78.66666666666667</ele><time>2026-03-28T19:42:46.999Z</time></trkpt><trkpt lat="45.84206767632412" lon="10.826178963090786"><ele>72.0</ele><time>2026-03-28T19:42:47.999Z</time></trkpt><trkpt lat="45.84224089022838" lon="10.826310856357932"><ele>72.0</ele><time>2026-03-28T19:42:48.999Z</time></trkpt><trkpt lat="45.84241819340965" lon="10.826414330934744"><ele>72.0</ele><time>2026-03-28T19:42:50Z</time></trkpt><trkpt lat="45.842622675192594" lon="10.82650968685704"><ele>72.0</ele><time>2026-03-28T19:42:51Z</time></trkpt><trkpt lat="45.842861630018724" lon="10.826571894292348"><ele>69.5</ele><time>2026-03-28T19:42:52Z</time></trkpt><trkpt lat="45.84310934250805" lon="10.826684500032671"><ele>67.0</ele><time>2026-03-28T19:42:53Z</time></trkpt><trkpt lat="45.8433541547231" lon="10.82681507716209"><ele>73.0</ele><time>2026-03-28T19:42:54Z</time></trkpt><trkpt lat="45.84354126369616" lon="10.826946464922871"><ele>79.0</ele><time>2026-03-28T19:42:55Z</time></trkpt><trkpt lat="45.84370077508911" lon="10.827080849059266"><ele>85.0</ele><time>2026-03-28T19:42:56Z</time></trkpt><trkpt lat="45.84384961360866" lon="10.827244598094039"><ele>85.0</ele><time>2026-03-28T19:42:57Z</time></trkpt><trkpt lat="45.84398096036049" lon="10.827418590158972"><ele>85.0</ele><time>2026-03-28T19:42:58Z</time></trkpt><trkpt lat="45.844102207395565" lon="10.82760604699995"><ele>85.0</ele><time>2026-03-28T19:42:59Z</time></trkpt><trkpt lat="45.84423404988435" lon="10.827811610630622"><ele>84.66666666666666</ele><time>2026-03-28T19:43:00Z</time></trkpt><trkpt lat="45.84438519576068" lon="10.828031666126236"><ele>84.33333333333333</ele><time>2026-03-28T19:43:01Z</time></trkpt><trkpt lat="45.84453813794693" lon="10.828211253706748"><ele>84.0</ele><time>2026-03-28T19:43:02Z</time></trkpt><trkpt lat="45.844711472598476" lon="10.828357208723911"><ele>77.0</ele><time>2026-03-28T19:43:03Z</time></trkpt><trkpt lat="45.8448998798051" lon="10.828519585544635"><ele>70.0</ele><time>2026-03-28T19:43:04Z</time></trkpt><trkpt lat="45.84510525347454" lon="10.82868570344764"><ele>83.0</ele><time>2026-03-28T19:43:05Z</time></trkpt><trkpt lat="45.84526836238124" lon="10.828865175275427"><ele>96.0</ele><time>2026-03-28T19:43:06Z</time></trkpt><trkpt lat="45.84540193337102" lon="10.829041946731875"><ele>109.0</ele><time>2026-03-28T19:43:07Z</time></trkpt><trkpt lat="45.84551910875451" lon="10.829252917109592"><ele>98.33333333333334</ele><time>2026-03-28T19:43:08Z</time></trkpt><trkpt lat="45.84564590792595" lon="10.829485251588855"><ele>87.66666666666667</ele><time>2026-03-28T19:43:09Z</time></trkpt><trkpt lat="45.84577814001233" lon="10.829720151289091"><ele>77.0</ele><time>2026-03-28T19:43:10Z</time></trkpt><trkpt lat="45.84590445799738" lon="10.829923755939758"><ele>73.0</ele><time>2026-03-28T19:43:11Z</time></trkpt><trkpt lat="45.8460500163183" lon="10.830070277337255"><ele>69.0</ele><time>2026-03-28T19:43:12Z</time></trkpt><trkpt lat="45.846181351212294" lon="10.83018947187001"><ele>65.0</ele><time>2026-03-28T19:43:13Z</time></trkpt><trkpt lat="45.846330746798145" lon="10.830223679966958"><ele>65.0</ele><time>2026-03-28T19:43:14Z</time></trkpt><trkpt lat="45.846482918058314" lon="10.830263651737607"><ele>65.0</ele><time>2026-03-28T19:43:15Z</time></trkpt><trkpt lat="45.846675442687236" lon="10.830326354210138"><ele>65.0</ele><time>2026-03-28T19:43:16Z</time></trkpt><trkpt lat="45.84686375914051" lon="10.83038854917707"><ele>65.33333333333334</ele><time>2026-03-28T19:43:17Z</time></trkpt><trkpt lat="45.84706966996164" lon="10.83045641026521"><ele>65.66666666666667</ele><time>2026-03-28T19:43:18Z</time></trkpt><trkpt lat="45.847289952700045" lon="10.830501561536886"><ele>66.0</ele><time>2026-03-28T19:43:19Z</time></trkpt><trkpt lat="45.847510477577536" lon="10.830568012160688"><ele>70.0</ele><time>2026-03-28T19:43:20Z</time></trkpt><trkpt lat="45.84777348517551" lon="10.830565470337167"><ele>74.0</ele><time>2026-03-28T19:43:21Z</time></trkpt><trkpt lat="45.84799826926724" lon="10.830581812156046"><ele>74.0</ele><time>2026-03-28T19:43:22Z</time></trkpt><trkpt lat="45.848195434204015" lon="10.830606686298827"><ele>74.0</ele><time>2026-03-28T19:43:23Z</time></trkpt><trkpt lat="45.848381283618764" lon="10.830696431044965"><ele>74.0</ele><time>2026-03-28T19:43:24Z</time></trkpt><trkpt lat="45.84859412747515" lon="10.830800759439065"><ele>68.5</ele><time>2026-03-28T19:43:25Z</time></trkpt><trkpt lat="45.84882981674547" lon="10.830892001740514"><ele>63.0</ele><time>2026-03-28T19:43:26Z</time></trkpt><trkpt lat="45.849063137909255" lon="10.83102106952301"><ele>63.0</ele><time>2026-03-28T19:43:27Z</time></trkpt><trkpt lat="45.84927426072213" lon="10.831121065523961"><ele>63.0</ele><time>2026-03-28T19:43:28Z</time></trkpt><trkpt lat="45.84948050919527" lon="10.831232188121465"><ele>63.0</ele><time>2026-03-28T19:43:29Z</time></trkpt><trkpt lat="45.84968425710136" lon="10.831374085441212"><ele>68.5</ele><time>2026-03-28T19:43:30Z</time></trkpt><trkpt lat="45.84990989238842" lon="10.831540080394056"><ele>74.0</ele><time>2026-03-28T19:43:31Z</time></trkpt><trkpt lat="45.85011987914001" lon="10.831688833835134"><ele>75.0</ele><time>2026-03-28T19:43:32Z</time></trkpt><trkpt lat="45.85033615703256" lon="10.831802804822617"><ele>76.0</ele><time>2026-03-28T19:43:33Z</time></trkpt><trkpt lat="45.85055237791069" lon="10.831882445757415"><ele>76.0</ele><time>2026-03-28T19:43:34Z</time></trkpt><trkpt lat="45.850773781823285" lon="10.831945326035948"><ele>76.0</ele><time>2026-03-28T19:43:35Z</time></trkpt><trkpt lat="45.850999943746196" lon="10.831999667929505"><ele>78.5</ele><time>2026-03-28T19:43:36Z</time></trkpt><trkpt lat="45.85122513444975" lon="10.83208607439984"><ele>81.0</ele><time>2026-03-28T19:43:37Z</time></trkpt><trkpt lat="45.85144721713371" lon="10.832203768987348"><ele>81.0</ele><time>2026-03-28T19:43:38Z</time></trkpt><trkpt lat="45.8516129035772" lon="10.832248504106277"><ele>81.0</ele><time>2026-03-28T19:43:39Z</time></trkpt><trkpt lat="45.851830879301936" lon="10.83237178336292"><ele>81.0</ele><time>2026-03-28T19:43:40Z</time></trkpt><trkpt lat="45.85200221908604" lon="10.832290657937278"><ele>87.66666666666666</ele><time>2026-03-28T19:43:41Z</time></trkpt><trkpt lat="45.85216320067774" lon="10.832385424463098"><ele>94.33333333333333</ele><time>2026-03-28T19:43:42Z</time></trkpt><trkpt lat="45.852318161184726" lon="10.832492340833996"><ele>101.0</ele><time>2026-03-28T19:43:43Z</time></trkpt><trkpt lat="45.85248341308828" lon="10.832593917777492"><ele>85.0</ele><time>2026-03-28T19:43:44.012Z</time></trkpt><trkpt lat="45.853985883025274" lon="10.833548288654614"><ele>83.0</ele><time>2026-03-28T19:43:47.059Z</time></trkpt><trkpt lat="45.85447323562262" lon="10.833884508681582"><ele>83.0</ele><time>2026-03-28T19:43:48.061Z</time></trkpt><trkpt lat="45.85499612242586" lon="10.834065588544508"><ele>71.0</ele><time>2026-03-28T19:43:49.061Z</time></trkpt><trkpt lat="45.8555325810491" lon="10.834017867927006"><ele>62.0</ele><time>2026-03-28T19:43:50.061Z</time></trkpt><trkpt lat="45.856036061715" lon="10.833755536025333"><ele>85.0</ele><time>2026-03-28T19:43:51.057Z</time></trkpt><trkpt lat="45.854139379760916" lon="10.833684003612557"><ele>84.0</ele><time>2026-03-28T19:43:54Z</time></trkpt><trkpt lat="45.85432046089346" lon="10.833809746775563"><ele>83.0</ele><time>2026-03-28T19:43:55Z</time></trkpt><trkpt lat="45.8546847177148" lon="10.834010824091008"><ele>83.0</ele><time>2026-03-28T19:43:57Z</time></trkpt><trkpt lat="45.85487823988114" lon="10.834067189610941"><ele>83.0</ele><time>2026-03-28T19:43:58Z</time></trkpt><trkpt lat="45.85505535268096" lon="10.834097775162727"><ele>83.0</ele><time>2026-03-28T19:43:59Z</time></trkpt><trkpt lat="45.855274788603275" lon="10.834095745084666"><ele>79.0</ele><time>2026-03-28T19:44:00Z</time></trkpt><trkpt lat="45.855486338437004" lon="10.834056686359093"><ele>75.0</ele><time>2026-03-28T19:44:01Z</time></trkpt><trkpt lat="45.855685832814665" lon="10.833987019397213"><ele>71.0</ele><time>2026-03-28T19:44:02Z</time></trkpt><trkpt lat="45.85585854770391" lon="10.83389826156911"><ele>66.5</ele><time>2026-03-28T19:44:03Z</time></trkpt><trkpt lat="45.8560127444605" lon="10.833798521459178"><ele>62.0</ele><time>2026-03-28T19:44:04Z</time></trkpt><trkpt lat="45.85631784970018" lon="10.83369815315705"><ele>62.0</ele><time>2026-03-28T19:44:06Z</time></trkpt><trkpt lat="45.85649993719452" lon="10.833565067148001"><ele>62.0</ele><time>2026-03-28T19:44:07Z</time></trkpt><trkpt lat="45.856845911736315" lon="10.833329341353068"><ele>62.0</ele><time>2026-03-28T19:44:08.012Z</time></trkpt><trkpt lat="45.85835084789047" lon="10.832731593410328"><ele>62.0</ele><time>2026-03-28T19:44:16Z</time></trkpt><trkpt lat="45.85853818842887" lon="10.832652052152024"><ele>62.0</ele><time>2026-03-28T19:44:17Z</time></trkpt><trkpt lat="45.858762251521036" lon="10.832595101256103"><ele>62.0</ele><time>2026-03-28T19:44:18Z</time></trkpt><trkpt lat="45.85886356972623" lon="10.832559535438998"><ele>62.0</ele><time>2026-03-28T19:44:19Z</time></trkpt><trkpt lat="45.85898394055266" lon="10.832556472746724"><ele>62.0</ele><time>2026-03-28T19:44:20Z</time></trkpt><trkpt lat="45.85916206410859" lon="10.832605692247157"><ele>62.0</ele><time>2026-03-28T19:44:21Z</time></trkpt><trkpt lat="45.8593478181433" lon="10.832664280536822"><ele>62.0</ele><time>2026-03-28T19:44:22Z</time></trkpt><trkpt lat="45.85952898568513" lon="10.832704456506631"><ele>62.0</ele><time>2026-03-28T19:44:23Z</time></trkpt><trkpt lat="45.85968688328695" lon="10.832707607429267"><ele>62.0</ele><time>2026-03-28T19:44:24Z</time></trkpt><trkpt lat="45.85983990433262" lon="10.832737693169651"><ele>62.0</ele><time>2026-03-28T19:44:25Z</time></trkpt><trkpt lat="45.860012741443114" lon="10.832753535201398"><ele>62.0</ele><time>2026-03-28T19:44:26Z</time></trkpt><trkpt lat="45.86017350267662" lon="10.832747779718428"><ele>62.0</ele><time>2026-03-28T19:44:26.999Z</time></trkpt><trkpt lat="45.86033319322921" lon="10.832718391401642"><ele>62.0</ele><time>2026-03-28T19:44:28.015Z</time></trkpt><trkpt lat="45.86163496347744" lon="10.832854003776465"><ele>62.0</ele><time>2026-03-28T19:44:31.058Z</time></trkpt><trkpt lat="45.86226338549941" lon="10.832998298261677"><ele>62.0</ele><time>2026-03-28T19:44:32.061Z</time></trkpt><trkpt lat="45.862846942191545" lon="10.833334944266095"><ele>62.0</ele><time>2026-03-28T19:44:33.061Z</time></trkpt><trkpt lat="45.86127265360752" lon="10.832735784361914"><ele>62.0</ele><time>2026-03-28T19:44:33.999Z</time></trkpt><trkpt lat="45.86139898230698" lon="10.832805531434829"><ele>62.0</ele><time>2026-03-28T19:44:34.999Z</time></trkpt><trkpt lat="45.86153471920077" lon="10.83284846543062"><ele>62.0</ele><time>2026-03-28T19:44:35.999Z</time></trkpt><trkpt lat="45.8616723735603" lon="10.8328957254688"><ele>62.0</ele><time>2026-03-28T19:44:36.999Z</time></trkpt><trkpt lat="45.86181069416654" lon="10.83294246440134"><ele>62.0</ele><time>2026-03-28T19:44:37.999Z</time></trkpt><trkpt lat="45.8619524979562" lon="10.832997742275795"><ele>62.0</ele><time>2026-03-28T19:44:39.015Z</time></trkpt><trkpt lat="45.86352445837129" lon="10.833606495891978"><ele>62.0</ele><time>2026-03-28T19:44:52.343Z</time></trkpt><trkpt lat="45.86363263225947" lon="10.833651690062432"><ele>62.0</ele><time>2026-03-28T19:44:53.478Z</time></trkpt><trkpt lat="45.865472033862005" lon="10.834193515314684"><ele>62.0</ele><time>2026-03-28T19:45:01.016Z</time></trkpt><trkpt lat="45.86563522060801" lon="10.8342502944206"><ele>62.0</ele><time>2026-03-28T19:45:02.013Z</time></trkpt><trkpt lat="45.86989684321853" lon="10.83506181909124"><ele>62.0</ele><time>2026-03-28T19:45:27.017Z</time></trkpt><trkpt lat="45.87006981792441" lon="10.835272901893257"><ele>62.0</ele><time>2026-03-28T19:45:28.017Z</time></trkpt><trkpt lat="45.87024089137817" lon="10.835382950509993"><ele>62.0</ele><time>2026-03-28T19:45:29.018Z</time></trkpt><trkpt lat="45.870379316528975" lon="10.835503510007419"><ele>62.0</ele><time>2026-03-28T19:45:30.015Z</time></trkpt><trkpt lat="45.87051222171326" lon="10.835714697031333"><ele>62.0</ele><time>2026-03-28T19:45:31.015Z</time></trkpt><trkpt lat="45.87066972093658" lon="10.835833329960304"><ele>62.0</ele><time>2026-03-28T19:45:32.012Z</time></trkpt><trkpt lat="45.870817048024065" lon="10.83595250062793"><ele>62.0</ele><time>2026-03-28T19:45:33.012Z</time></trkpt><trkpt lat="45.87123598898629" lon="10.836305893673913"><ele>62.0</ele><time>2026-03-28T19:45:36.011Z</time></trkpt><trkpt lat="45.87263093174622" lon="10.837475866948408"><ele>62.0</ele><time>2026-03-28T19:45:48.162Z</time></trkpt><trkpt lat="45.8728765322334" lon="10.837684630765539"><ele>62.0</ele><time>2026-03-28T19:45:51.342Z</time></trkpt><trkpt lat="45.87293244072611" lon="10.837731759962672"><ele>62.0</ele><time>2026-03-28T19:45:52.092Z</time></trkpt><trkpt lat="45.87309426406602" lon="10.837864698300132"><ele>62.0</ele><time>2026-03-28T19:45:54.259Z</time></trkpt><trkpt lat="45.87319673627505" lon="10.83795727701836"><ele>62.0</ele><time>2026-03-28T19:45:55.743Z</time></trkpt><trkpt lat="45.87332943816632" lon="10.83806914110872"><ele>62.0</ele><time>2026-03-28T19:45:57.677Z</time></trkpt><trkpt lat="45.87996452439292" lon="10.837829200471223"><ele>63.75</ele><time>2026-03-28T19:46:26.019Z</time></trkpt><trkpt lat="45.88010506752629" lon="10.837853690166957"><ele>65.5</ele><time>2026-03-28T19:46:26.999Z</time></trkpt><trkpt lat="45.88024163204232" lon="10.837877127299034"><ele>67.25</ele><time>2026-03-28T19:46:27.999Z</time></trkpt><trkpt lat="45.88038330148671" lon="10.837912263993308"><ele>69.0</ele><time>2026-03-28T19:46:28.999Z</time></trkpt><trkpt lat="45.880560215330995" lon="10.837957185983687"><ele>69.0</ele><time>2026-03-28T19:46:29.999Z</time></trkpt><trkpt lat="45.88068893425811" lon="10.83797896263373"><ele>69.0</ele><time>2026-03-28T19:46:30.999Z</time></trkpt><trkpt lat="45.88084281223295" lon="10.837994444967771"><ele>69.0</ele><time>2026-03-28T19:46:31.999Z</time></trkpt><trkpt lat="45.88097708782378" lon="10.838021811495592"><ele>69.0</ele><time>2026-03-28T19:46:33Z</time></trkpt><trkpt lat="45.881108784305546" lon="10.838052290768443"><ele>71.25</ele><time>2026-03-28T19:46:34Z</time></trkpt><trkpt lat="45.881243079915855" lon="10.83807460147909"><ele>73.5</ele><time>2026-03-28T19:46:35Z</time></trkpt><trkpt lat="45.88137913828386" lon="10.838100206098584"><ele>75.75</ele><time>2026-03-28T19:46:36Z</time></trkpt><trkpt lat="45.88151596169166" lon="10.83812151383893"><ele>78.0</ele><time>2026-03-28T19:46:37Z</time></trkpt><trkpt lat="45.88166262215179" lon="10.838139172268047"><ele>76.75</ele><time>2026-03-28T19:46:38Z</time></trkpt><trkpt lat="45.88180701522772" lon="10.838151428651985"><ele>75.5</ele><time>2026-03-28T19:46:39Z</time></trkpt><trkpt lat="45.881935262242514" lon="10.838162517204537"><ele>74.25</ele><time>2026-03-28T19:46:40Z</time></trkpt><trkpt lat="45.88205928921944" lon="10.838174040399105"><ele>73.0</ele><time>2026-03-28T19:46:41Z</time></trkpt><trkpt lat="45.882194132182846" lon="10.838197239404517"><ele>73.0</ele><time>2026-03-28T19:46:42Z</time></trkpt><trkpt lat="45.88231020874976" lon="10.838211938528978"><ele>73.0</ele><time>2026-03-28T19:46:43Z</time></trkpt><trkpt lat="45.88243090743764" lon="10.838261714457952"><ele>73.0</ele><time>2026-03-28T19:46:44Z</time></trkpt><trkpt lat="45.88254414257298" lon="10.838298162869524"><ele>73.0</ele><time>2026-03-28T19:46:45Z</time></trkpt><trkpt lat="45.882640299484976" lon="10.838327216544222"><ele>73.4</ele><time>2026-03-28T19:46:46Z</time></trkpt><trkpt lat="45.882730147669264" lon="10.838354367635452"><ele>73.8</ele><time>2026-03-28T19:46:47Z</time></trkpt><trkpt lat="45.882847003962745" lon="10.838391767852295"><ele>74.2</ele><time>2026-03-28T19:46:48Z</time></trkpt><trkpt lat="45.88296707983578" lon="10.83843263020514"><ele>74.6</ele><time>2026-03-28T19:46:49Z</time></trkpt><trkpt lat="45.88307327712718" lon="10.838471683007123"><ele>75.0</ele><time>2026-03-28T19:46:50Z</time></trkpt><trkpt lat="45.88317631720402" lon="10.83846660529299"><ele>73.8</ele><time>2026-03-28T19:46:51Z</time></trkpt><trkpt lat="45.88328014945663" lon="10.838510820242945"><ele>72.6</ele><time>2026-03-28T19:46:52Z</time></trkpt><trkpt lat="45.88338245200324" lon="10.838537966223145"><ele>71.4</ele><time>2026-03-28T19:46:53Z</time></trkpt><trkpt lat="45.88347421600843" lon="10.838563194762008"><ele>70.2</ele><time>2026-03-28T19:46:54Z</time></trkpt><trkpt lat="45.88356831687598" lon="10.838594339976238"><ele>69.0</ele><time>2026-03-28T19:46:55Z</time></trkpt><trkpt lat="45.88366985508411" lon="10.838618891819698"><ele>69.0</ele><time>2026-03-28T19:46:56Z</time></trkpt><trkpt lat="45.88377158176375" lon="10.838612036631767"><ele>69.0</ele><time>2026-03-28T19:46:57Z</time></trkpt><trkpt lat="45.88387338493203" lon="10.838587278020245"><ele>69.0</ele><time>2026-03-28T19:46:58Z</time></trkpt><trkpt lat="45.883967457248396" lon="10.838532708406566"><ele>69.0</ele><time>2026-03-28T19:46:59Z</time></trkpt><trkpt lat="45.88405947557026" lon="10.838468905958313"><ele>69.0</ele><time>2026-03-28T19:47:00Z</time></trkpt><trkpt lat="45.88414292186052" lon="10.838392093138989"><ele>70.4</ele><time>2026-03-28T19:47:01Z</time></trkpt><trkpt lat="45.88423153991151" lon="10.838319183298944"><ele>71.80000000000001</ele><time>2026-03-28T19:47:02Z</time></trkpt><trkpt lat="45.88431820531264" lon="10.838248581759899"><ele>73.19999999999999</ele><time>2026-03-28T19:47:03Z</time></trkpt><trkpt lat="45.884413905104125" lon="10.838176965331499"><ele>74.6</ele><time>2026-03-28T19:47:04Z</time></trkpt><trkpt lat="45.884524202187414" lon="10.838088461134824"><ele>76.0</ele><time>2026-03-28T19:47:05Z</time></trkpt><trkpt lat="45.884646051055455" lon="10.837987345149834"><ele>76.5</ele><time>2026-03-28T19:47:06Z</time></trkpt><trkpt lat="45.88476581835822" lon="10.837958710602587"><ele>77.0</ele><time>2026-03-28T19:47:07Z</time></trkpt><trkpt lat="45.88488455885866" lon="10.83795429023297"><ele>77.5</ele><time>2026-03-28T19:47:08Z</time></trkpt><trkpt lat="45.88501676954123" lon="10.837945584281174"><ele>78.0</ele><time>2026-03-28T19:47:09Z</time></trkpt><trkpt lat="45.885153272815295" lon="10.837937000766257"><ele>79.0</ele><time>2026-03-28T19:47:10Z</time></trkpt><trkpt lat="45.88527126688961" lon="10.837930270822138"><ele>80.0</ele><time>2026-03-28T19:47:11Z</time></trkpt><trkpt lat="45.885392502110676" lon="10.837923598987805"><ele>81.0</ele><time>2026-03-28T19:47:12Z</time></trkpt><trkpt lat="45.885501446603264" lon="10.8379177764203"><ele>82.0</ele><time>2026-03-28T19:47:13Z</time></trkpt><trkpt lat="45.88559006629966" lon="10.837913040113488"><ele>83.0</ele><time>2026-03-28T19:47:14Z</time></trkpt><trkpt lat="45.88567027058095" lon="10.83790875357263"><ele>83.0</ele><time>2026-03-28T19:47:15Z</time></trkpt><trkpt lat="45.88574899233123" lon="10.837904546262891"><ele>83.0</ele><time>2026-03-28T19:47:16Z</time></trkpt><trkpt lat="45.88583954954558" lon="10.837900603971521"><ele>83.0</ele><time>2026-03-28T19:47:17Z</time></trkpt><trkpt lat="45.88593510172319" lon="10.837896880166726"><ele>83.0</ele><time>2026-03-28T19:47:18Z</time></trkpt><trkpt lat="45.88603172754765" lon="10.837893114523263"><ele>83.0</ele><time>2026-03-28T19:47:19Z</time></trkpt><trkpt lat="45.88610674881727" lon="10.837890190839309"><ele>83.0</ele><time>2026-03-28T19:47:20Z</time></trkpt><trkpt lat="45.88620155025926" lon="10.837886496271002"><ele>83.60000000000001</ele><time>2026-03-28T19:47:21Z</time></trkpt><trkpt lat="45.88630697246763" lon="10.837878486768673"><ele>84.2</ele><time>2026-03-28T19:47:22Z</time></trkpt><trkpt lat="45.886388843246756" lon="10.837873197297515"><ele>84.8</ele><time>2026-03-28T19:47:23Z</time></trkpt><trkpt lat="45.88653070203397" lon="10.837864712837275"><ele>85.4</ele><time>2026-03-28T19:47:24Z</time></trkpt><trkpt lat="45.8866441337608" lon="10.837860737939934"><ele>86.0</ele><time>2026-03-28T19:47:25Z</time></trkpt><trkpt lat="45.886736002088384" lon="10.837861736700459"><ele>86.0</ele><time>2026-03-28T19:47:26Z</time></trkpt><trkpt lat="45.88681737283954" lon="10.83787414305721"><ele>86.0</ele><time>2026-03-28T19:47:27Z</time></trkpt><trkpt lat="45.886896897014076" lon="10.837899609456027"><ele>86.0</ele><time>2026-03-28T19:47:28Z</time></trkpt><trkpt lat="45.88696043013877" lon="10.837918742279824"><ele>86.0</ele><time>2026-03-28T19:47:29Z</time></trkpt><trkpt lat="45.88704646277936" lon="10.83793346693052"><ele>86.0</ele><time>2026-03-28T19:47:31Z</time></trkpt><trkpt lat="45.88716859237962" lon="10.838015879162972"><ele>86.0</ele><time>2026-03-28T19:47:33Z</time></trkpt><trkpt lat="45.88722892331867" lon="10.838075476053543"><ele>86.0</ele><time>2026-03-28T19:47:34Z</time></trkpt><trkpt lat="45.88729625419263" lon="10.838114177862384"><ele>86.0</ele><time>2026-03-28T19:47:35Z</time></trkpt><trkpt lat="45.88736481022758" lon="10.838105838479972"><ele>86.0</ele><time>2026-03-28T19:47:36Z</time></trkpt><trkpt lat="45.887414619628885" lon="10.838044299066157"><ele>86.0</ele><time>2026-03-28T19:47:37Z</time></trkpt><trkpt lat="45.88745109325969" lon="10.837948715618563"><ele>86.0</ele><time>2026-03-28T19:47:38Z</time></trkpt><trkpt lat="45.887468495211074" lon="10.837807465948343"><ele>86.0</ele><time>2026-03-28T19:47:39Z</time></trkpt><trkpt lat="45.88754913931653" lon="10.837688157605072"><ele>86.0</ele><time>2026-03-28T19:47:40Z</time></trkpt><trkpt lat="45.887613075480544" lon="10.837555455761894"><ele>86.0</ele><time>2026-03-28T19:47:41Z</time></trkpt><trkpt lat="45.88767964113239" lon="10.837437157318966"><ele>86.0</ele><time>2026-03-28T19:47:42Z</time></trkpt><trkpt lat="45.887738898826036" lon="10.837313459159253"><ele>86.0</ele><time>2026-03-28T19:47:43.012Z</time></trkpt><trkpt lat="45.887792565304096" lon="10.837190015569343"><ele>89.6</ele><time>2026-03-28T19:47:44.016Z</time></trkpt><trkpt lat="45.88784591189084" lon="10.837064307173668"><ele>93.19999999999999</ele><time>2026-03-28T19:47:45.016Z</time></trkpt><trkpt lat="45.88790043641552" lon="10.836938751195822"><ele>96.80000000000001</ele><time>2026-03-28T19:47:46.015Z</time></trkpt><trkpt lat="45.88795077339071" lon="10.836812174300896"><ele>100.4</ele><time>2026-03-28T19:47:47.014Z</time></trkpt><trkpt lat="45.88800547318975" lon="10.83668924200651"><ele>104.0</ele><time>2026-03-28T19:47:48.017Z</time></trkpt><trkpt lat="45.88805938655506" lon="10.836564531160635"><ele>112.33333333333333</ele><time>2026-03-28T19:47:49.015Z</time></trkpt><trkpt lat="45.88824744869635" lon="10.83621770359116"><ele>120.66666666666666</ele><time>2026-03-28T19:47:52.059Z</time></trkpt><trkpt lat="45.88830583315425" lon="10.836094625867903"><ele>129.0</ele><time>2026-03-28T19:47:53.059Z</time></trkpt><trkpt lat="45.88839105951713" lon="10.836011213677526"><ele>133.0</ele><time>2026-03-28T19:47:54.056Z</time></trkpt><trkpt lat="45.88845706831821" lon="10.835896896687744"><ele>137.0</ele><time>2026-03-28T19:47:55.056Z</time></trkpt><trkpt lat="45.88853699695062" lon="10.835803902348971"><ele>141.0</ele><time>2026-03-28T19:47:56.059Z</time></trkpt><trkpt lat="45.88861934984575" lon="10.8357162807759"><ele>145.0</ele><time>2026-03-28T19:47:57.059Z</time></trkpt><trkpt lat="45.88870528187613" lon="10.835636789923655"><ele>149.0</ele><time>2026-03-28T19:47:58.056Z</time></trkpt><trkpt lat="45.88879453418465" lon="10.835563477397157"><ele>149.0</ele><time>2026-03-28T19:47:59.059Z</time></trkpt><trkpt lat="45.888884507801" lon="10.835492800884001"><ele>149.0</ele><time>2026-03-28T19:48:00.059Z</time></trkpt><trkpt lat="45.88897636949441" lon="10.835427300476207"><ele>149.0</ele><time>2026-03-28T19:48:01.059Z</time></trkpt><trkpt lat="45.88907122649939" lon="10.835371305160344"><ele>149.0</ele><time>2026-03-28T19:48:02.059Z</time></trkpt><trkpt lat="45.889167628609876" lon="10.835323189154249"><ele>149.0</ele><time>2026-03-28T19:48:03.054Z</time></trkpt><trkpt lat="45.88926513835571" lon="10.835276788932564"><ele>147.6</ele><time>2026-03-28T19:48:04.056Z</time></trkpt><trkpt lat="45.8893639194876" lon="10.835236441680054"><ele>146.2</ele><time>2026-03-28T19:48:05.057Z</time></trkpt><trkpt lat="45.88946439189357" lon="10.835204707169005"><ele>144.79999999999998</ele><time>2026-03-28T19:48:06.059Z</time></trkpt><trkpt lat="45.889565407212764" lon="10.835178819259985"><ele>143.4</ele><time>2026-03-28T19:48:07.059Z</time></trkpt><trkpt lat="45.88966735076082" lon="10.8351625064143"><ele>142.0</ele><time>2026-03-28T19:48:08.059Z</time></trkpt><trkpt lat="45.889769548383086" lon="10.835151918545924"><ele>142.0</ele><time>2026-03-28T19:48:09.058Z</time></trkpt><trkpt lat="45.88987199006779" lon="10.835143880990893"><ele>142.0</ele><time>2026-03-28T19:48:10.058Z</time></trkpt><trkpt lat="45.8899747464695" lon="10.835144962394217"><ele>142.0</ele><time>2026-03-28T19:48:11.059Z</time></trkpt><trkpt lat="45.890077048200894" lon="10.835156097208072"><ele>142.0</ele><time>2026-03-28T19:48:12.059Z</time></trkpt><trkpt lat="45.89017916987007" lon="10.835170675285108"><ele>142.0</ele><time>2026-03-28T19:48:13.059Z</time></trkpt><trkpt lat="45.89028094096144" lon="10.83518914201749"><ele>145.4</ele><time>2026-03-28T19:48:14.059Z</time></trkpt><trkpt lat="45.8903817644531" lon="10.835216330851098"><ele>148.79999999999998</ele><time>2026-03-28T19:48:15.059Z</time></trkpt><trkpt lat="45.890481037770556" lon="10.83525122807209"><ele>152.2</ele><time>2026-03-28T19:48:16.055Z</time></trkpt><trkpt lat="45.890579588735775" lon="10.835293495104379"><ele>155.6</ele><time>2026-03-28T19:48:17.058Z</time></trkpt><trkpt lat="45.89067664863593" lon="10.835341715852053"><ele>159.0</ele><time>2026-03-28T19:48:18.059Z</time></trkpt><trkpt lat="45.890772577134975" lon="10.835393723592452"><ele>159.0</ele><time>2026-03-28T19:48:19.059Z</time></trkpt><trkpt lat="45.8908664829733" lon="10.835452939759405"><ele>159.0</ele><time>2026-03-28T19:48:20.059Z</time></trkpt><trkpt lat="45.89095732840302" lon="10.835520257106815"><ele>159.0</ele><time>2026-03-28T19:48:21.056Z</time></trkpt><trkpt lat="45.89251150381369" lon="10.836981385956365"><ele>145.0</ele><time>2026-03-28T19:48:21.999Z</time></trkpt><trkpt lat="45.892622164348516" lon="10.837091549233552"><ele>131.0</ele><time>2026-03-28T19:48:22.999Z</time></trkpt><trkpt lat="45.89273073286127" lon="10.837210198091874"><ele>117.0</ele><time>2026-03-28T19:48:23.999Z</time></trkpt><trkpt lat="45.89282813651544" lon="10.83732226791004"><ele>103.0</ele><time>2026-03-28T19:48:24.999Z</time></trkpt><trkpt lat="45.89292721061755" lon="10.837415475389179"><ele>103.0</ele><time>2026-03-28T19:48:25.999Z</time></trkpt><trkpt lat="45.89304613110847" lon="10.837557938302623"><ele>103.0</ele><time>2026-03-28T19:48:27.012Z</time></trkpt><trkpt lat="45.89374543500396" lon="10.838310853089906"><ele>97.0</ele><time>2026-03-28T19:48:34.084Z</time></trkpt><trkpt lat="45.894224907091456" lon="10.838258370659865"><ele>98.33333333333334</ele><time>2026-03-28T19:48:35.999Z</time></trkpt><trkpt lat="45.89438081131689" lon="10.838297329012162"><ele>99.66666666666666</ele><time>2026-03-28T19:48:36.999Z</time></trkpt><trkpt lat="45.89454049182206" lon="10.838329737983301"><ele>101.0</ele><time>2026-03-28T19:48:37.999Z</time></trkpt><trkpt lat="45.89469883697689" lon="10.83836837338612"><ele>101.0</ele><time>2026-03-28T19:48:38.999Z</time></trkpt><trkpt lat="45.89485667185625" lon="10.83840054396222"><ele>101.0</ele><time>2026-03-28T19:48:39.999Z</time></trkpt><trkpt lat="45.89500477392678" lon="10.838424889565232"><ele>101.0</ele><time>2026-03-28T19:48:40.999Z</time></trkpt><trkpt lat="45.895137555029805" lon="10.838433201644389"><ele>101.0</ele><time>2026-03-28T19:48:42Z</time></trkpt><trkpt lat="45.89526239730793" lon="10.838430600020217"><ele>101.5</ele><time>2026-03-28T19:48:43Z</time></trkpt><trkpt lat="45.89538195876101" lon="10.838425106549993"><ele>102.0</ele><time>2026-03-28T19:48:44Z</time></trkpt><trkpt lat="45.89550213789327" lon="10.83841641454228"><ele>102.5</ele><time>2026-03-28T19:48:45Z</time></trkpt><trkpt lat="45.89562491175391" lon="10.8383917667832"><ele>103.0</ele><time>2026-03-28T19:48:46Z</time></trkpt><trkpt lat="45.89574115825846" lon="10.838350996445637"><ele>103.0</ele><time>2026-03-28T19:48:47Z</time></trkpt><trkpt lat="45.89584705768196" lon="10.838305263856975"><ele>103.0</ele><time>2026-03-28T19:48:48Z</time></trkpt><trkpt lat="45.895949137811044" lon="10.838252639369669"><ele>103.0</ele><time>2026-03-28T19:48:49Z</time></trkpt><trkpt lat="45.89604621456699" lon="10.83821172343721"><ele>103.0</ele><time>2026-03-28T19:48:50Z</time></trkpt><trkpt lat="45.896116227968946" lon="10.83816542838534"><ele>103.0</ele><time>2026-03-28T19:48:51Z</time></trkpt><trkpt lat="45.896185910284714" lon="10.838143510842832"><ele>102.80000000000001</ele><time>2026-03-28T19:48:52Z</time></trkpt><trkpt lat="45.89629601533137" lon="10.838178300549634"><ele>102.6</ele><time>2026-03-28T19:48:54Z</time></trkpt><trkpt lat="45.896343351093634" lon="10.838247440107963"><ele>102.4</ele><time>2026-03-28T19:48:55Z</time></trkpt><trkpt lat="45.896370184035526" lon="10.838375024038527"><ele>102.19999999999999</ele><time>2026-03-28T19:48:56Z</time></trkpt><trkpt lat="45.89642284165255" lon="10.838439229926482"><ele>102.0</ele><time>2026-03-28T19:48:57Z</time></trkpt><trkpt lat="45.89646512731585" lon="10.838600682321674"><ele>101.19999999999999</ele><time>2026-03-28T19:48:59Z</time></trkpt><trkpt lat="45.896460721242576" lon="10.838721028155016"><ele>100.4</ele><time>2026-03-28T19:49:00Z</time></trkpt><trkpt lat="45.896453541748464" lon="10.838860481957576"><ele>99.6</ele><time>2026-03-28T19:49:01Z</time></trkpt><trkpt lat="45.8964462365008" lon="10.83900341529628"><ele>98.80000000000001</ele><time>2026-03-28T19:49:02Z</time></trkpt><trkpt lat="45.896439078074536" lon="10.839149889586977"><ele>98.0</ele><time>2026-03-28T19:49:03Z</time></trkpt><trkpt lat="45.89643283760529" lon="10.839304985643416"><ele>97.5</ele><time>2026-03-28T19:49:04Z</time></trkpt><trkpt lat="45.89641479721289" lon="10.839462809560047"><ele>97.0</ele><time>2026-03-28T19:49:05Z</time></trkpt><trkpt lat="45.89638822314104" lon="10.839627950714982"><ele>96.5</ele><time>2026-03-28T19:49:06Z</time></trkpt><trkpt lat="45.89635364123304" lon="10.839789863414232"><ele>96.0</ele><time>2026-03-28T19:49:07Z</time></trkpt><trkpt lat="45.8963055566712" lon="10.839958140096362"><ele>96.0</ele><time>2026-03-28T19:49:08Z</time></trkpt><trkpt lat="45.89624751286302" lon="10.840117862423586"><ele>96.0</ele><time>2026-03-28T19:49:09Z</time></trkpt><trkpt lat="45.89617828728231" lon="10.840272083257524"><ele>96.0</ele><time>2026-03-28T19:49:10Z</time></trkpt><trkpt lat="45.89609479153479" lon="10.840420572531995"><ele>96.0</ele><time>2026-03-28T19:49:11Z</time></trkpt><trkpt lat="45.89600625759431" lon="10.840552071224385"><ele>95.5</ele><time>2026-03-28T19:49:12Z</time></trkpt><trkpt lat="45.89591927351599" lon="10.84068652277111"><ele>95.0</ele><time>2026-03-28T19:49:13Z</time></trkpt><trkpt lat="45.895823080740335" lon="10.8408105136957"><ele>94.5</ele><time>2026-03-28T19:49:14Z</time></trkpt><trkpt lat="45.89573177111764" lon="10.840928179086589"><ele>94.0</ele><time>2026-03-28T19:49:15Z</time></trkpt><trkpt lat="45.895647844334455" lon="10.841033652062027"><ele>93.5</ele><time>2026-03-28T19:49:16Z</time></trkpt><trkpt lat="45.89554795060914" lon="10.841139335058108"><ele>93.0</ele><time>2026-03-28T19:49:17Z</time></trkpt><trkpt lat="45.89546242580865" lon="10.841252062741358"><ele>92.5</ele><time>2026-03-28T19:49:18Z</time></trkpt><trkpt lat="45.895371486195934" lon="10.84136209417806"><ele>92.0</ele><time>2026-03-28T19:49:19Z</time></trkpt><trkpt lat="45.8952817921275" lon="10.841476567900523"><ele>92.0</ele><time>2026-03-28T19:49:20Z</time></trkpt><trkpt lat="45.895194715268" lon="10.841597638290715"><ele>92.0</ele><time>2026-03-28T19:49:21Z</time></trkpt><trkpt lat="45.89511514091747" lon="10.841735345225263"><ele>92.0</ele><time>2026-03-28T19:49:22Z</time></trkpt><trkpt lat="45.89504469995747" lon="10.841887397340624"><ele>92.0</ele><time>2026-03-28T19:49:23Z</time></trkpt><trkpt lat="45.89498249934065" lon="10.842053441879134"><ele>92.0</ele><time>2026-03-28T19:49:24Z</time></trkpt><trkpt lat="45.894920977929324" lon="10.842219756147934"><ele>92.0</ele><time>2026-03-28T19:49:25Z</time></trkpt><trkpt lat="45.8948701983881" lon="10.842375395941806"><ele>92.0</ele><time>2026-03-28T19:49:26Z</time></trkpt><trkpt lat="45.89482606869361" lon="10.84251359122415"><ele>92.0</ele><time>2026-03-28T19:49:27Z</time></trkpt><trkpt lat="45.894785231127884" lon="10.842639940429784"><ele>91.83333333333334</ele><time>2026-03-28T19:49:28Z</time></trkpt><trkpt lat="45.894748834106515" lon="10.842746606138768"><ele>91.66666666666667</ele><time>2026-03-28T19:49:29Z</time></trkpt><trkpt lat="45.894712057183504" lon="10.842854424484463"><ele>91.5</ele><time>2026-03-28T19:49:30Z</time></trkpt><trkpt lat="45.894672962246666" lon="10.842962011050028"><ele>91.33333333333333</ele><time>2026-03-28T19:49:31Z</time></trkpt><trkpt lat="45.89463508611562" lon="10.843069912268342"><ele>91.16666666666666</ele><time>2026-03-28T19:49:32Z</time></trkpt><trkpt lat="45.89460068525607" lon="10.843147278805967"><ele>91.0</ele><time>2026-03-28T19:49:33Z</time></trkpt><trkpt lat="45.8945215363715" lon="10.84324052883875"><ele>91.0</ele><time>2026-03-28T19:49:35Z</time></trkpt><trkpt lat="45.89440368736376" lon="10.843247922951306"><ele>91.0</ele><time>2026-03-28T19:49:37Z</time></trkpt><trkpt lat="45.8943244930413" lon="10.843238409167185"><ele>91.0</ele><time>2026-03-28T19:49:38Z</time></trkpt><trkpt lat="45.89423660767048" lon="10.843249017931853"><ele>91.0</ele><time>2026-03-28T19:49:39Z</time></trkpt><trkpt lat="45.89415674850192" lon="10.843231534353643"><ele>91.0</ele><time>2026-03-28T19:49:40Z</time></trkpt><trkpt lat="45.894090764238825" lon="10.843257888320467"><ele>91.0</ele><time>2026-03-28T19:49:41Z</time></trkpt><trkpt lat="45.894016480028185" lon="10.8432367411406"><ele>90.19999999999999</ele><time>2026-03-28T19:49:42Z</time></trkpt><trkpt lat="45.893935760860444" lon="10.843200022381707"><ele>89.39999999999999</ele><time>2026-03-28T19:49:43Z</time></trkpt><trkpt lat="45.89384753174717" lon="10.843158028652192"><ele>88.6</ele><time>2026-03-28T19:49:44Z</time></trkpt><trkpt lat="45.89376142150516" lon="10.843108615155797"><ele>87.8</ele><time>2026-03-28T19:49:45Z</time></trkpt><trkpt lat="45.893670565729636" lon="10.843053476218241"><ele>87.0</ele><time>2026-03-28T19:49:46Z</time></trkpt><trkpt lat="45.89357838488891" lon="10.84300467959457"><ele>87.0</ele><time>2026-03-28T19:49:47Z</time></trkpt><trkpt lat="45.893485956953555" lon="10.842963319813544"><ele>87.0</ele><time>2026-03-28T19:49:48Z</time></trkpt><trkpt lat="45.8934046354607" lon="10.842938525613201"><ele>87.0</ele><time>2026-03-28T19:49:49Z</time></trkpt><trkpt lat="45.8933257672681" lon="10.842914218923"><ele>87.0</ele><time>2026-03-28T19:49:50Z</time></trkpt><trkpt lat="45.89324293322286" lon="10.842910424628483"><ele>87.0</ele><time>2026-03-28T19:49:51Z</time></trkpt><trkpt lat="45.89315205813314" lon="10.842916132746959"><ele>87.0</ele><time>2026-03-28T19:49:52Z</time></trkpt><trkpt lat="45.893065778372" lon="10.842933392200202"><ele>86.83333333333333</ele><time>2026-03-28T19:49:53Z</time></trkpt><trkpt lat="45.89296971295885" lon="10.842927090674303"><ele>86.66666666666667</ele><time>2026-03-28T19:49:54Z</time></trkpt><trkpt lat="45.89287340993745" lon="10.842928433322285"><ele>86.5</ele><time>2026-03-28T19:49:55Z</time></trkpt><trkpt lat="45.89279995724337" lon="10.84292384959651"><ele>86.33333333333334</ele><time>2026-03-28T19:49:56Z</time></trkpt><trkpt lat="45.892724255325305" lon="10.842916306339022"><ele>86.16666666666667</ele><time>2026-03-28T19:49:57Z</time></trkpt><trkpt lat="45.892642232342766" lon="10.842926408574826"><ele>86.0</ele><time>2026-03-28T19:49:58Z</time></trkpt><trkpt lat="45.892553728141195" lon="10.84290640348796"><ele>86.33333333333334</ele><time>2026-03-28T19:49:59Z</time></trkpt><trkpt lat="45.89245870392264" lon="10.84292275621783"><ele>86.66666666666667</ele><time>2026-03-28T19:50:00Z</time></trkpt><trkpt lat="45.89237047344801" lon="10.842925034529625"><ele>87.0</ele><time>2026-03-28T19:50:01Z</time></trkpt><trkpt lat="45.89228972623057" lon="10.842932708640268"><ele>87.33333333333333</ele><time>2026-03-28T19:50:02Z</time></trkpt><trkpt lat="45.89220551305622" lon="10.842922171474463"><ele>87.66666666666666</ele><time>2026-03-28T19:50:03Z</time></trkpt><trkpt lat="45.89212592991779" lon="10.842924691111897"><ele>88.0</ele><time>2026-03-28T19:50:04Z</time></trkpt><trkpt lat="45.89205406671844" lon="10.84293037779329"><ele>88.0</ele><time>2026-03-28T19:50:05Z</time></trkpt><trkpt lat="45.89196376757887" lon="10.842927053219563"><ele>88.0</ele><time>2026-03-28T19:50:06Z</time></trkpt><trkpt lat="45.89188607272438" lon="10.842932540422305"><ele>88.0</ele><time>2026-03-28T19:50:07Z</time></trkpt><trkpt lat="45.8918058908014" lon="10.84295117366138"><ele>88.0</ele><time>2026-03-28T19:50:08Z</time></trkpt><trkpt lat="45.8917157061014" lon="10.842933121027961"><ele>88.0</ele><time>2026-03-28T19:50:09Z</time></trkpt><trkpt lat="45.891616186775046" lon="10.84293612128662"><ele>88.0</ele><time>2026-03-28T19:50:10Z</time></trkpt><trkpt lat="45.89150017712709" lon="10.842939618687872"><ele>87.0</ele><time>2026-03-28T19:50:11Z</time></trkpt><trkpt lat="45.89136430579077" lon="10.842944255169332"><ele>86.0</ele><time>2026-03-28T19:50:12Z</time></trkpt><trkpt lat="45.89119185100149" lon="10.842950248464037"><ele>85.0</ele><time>2026-03-28T19:50:13Z</time></trkpt><trkpt lat="45.89097069625323" lon="10.842957931654668"><ele>84.0</ele><time>2026-03-28T19:50:13.999Z</time></trkpt><trkpt lat="45.89075464315629" lon="10.842965437566475"><ele>83.0</ele><time>2026-03-28T19:50:14.999Z</time></trkpt><trkpt lat="45.8905546435734" lon="10.84299306147959"><ele>82.0</ele><time>2026-03-28T19:50:15.999Z</time></trkpt><trkpt lat="45.89038133602684" lon="10.842989838004021"><ele>82.0</ele><time>2026-03-28T19:50:16.999Z</time></trkpt><trkpt lat="45.890217896652345" lon="10.842992121135318"><ele>82.0</ele><time>2026-03-28T19:50:17.999Z</time></trkpt><trkpt lat="45.89007448096598" lon="10.842988808413939"><ele>82.0</ele><time>2026-03-28T19:50:18.999Z</time></trkpt><trkpt lat="45.88993698974892" lon="10.842991875269393"><ele>82.0</ele><time>2026-03-28T19:50:19.999Z</time></trkpt><trkpt lat="45.88981083865427" lon="10.843012354159208"><ele>81.66666666666666</ele><time>2026-03-28T19:50:20.999Z</time></trkpt><trkpt lat="45.889705991057056" lon="10.843009613737845"><ele>81.33333333333333</ele><time>2026-03-28T19:50:21.999Z</time></trkpt><trkpt lat="45.88961666194004" lon="10.84301809201829"><ele>81.0</ele><time>2026-03-28T19:50:22.999Z</time></trkpt><trkpt lat="45.889533100168634" lon="10.843012647063443"><ele>80.66666666666667</ele><time>2026-03-28T19:50:23.999Z</time></trkpt><trkpt lat="45.88946134063578" lon="10.843010517214323"><ele>80.33333333333334</ele><time>2026-03-28T19:50:24.999Z</time></trkpt><trkpt lat="45.88939257625333" lon="10.843020534406445"><ele>80.0</ele><time>2026-03-28T19:50:25.999Z</time></trkpt><trkpt lat="45.88932126347195" lon="10.842987701086312"><ele>79.66666666666667</ele><time>2026-03-28T19:50:26.999Z</time></trkpt><trkpt lat="45.889222006844406" lon="10.842941270680804"><ele>79.33333333333334</ele><time>2026-03-28T19:50:27.999Z</time></trkpt><trkpt lat="45.88914533411549" lon="10.842917302974307"><ele>79.0</ele><time>2026-03-28T19:50:28.999Z</time></trkpt><trkpt lat="45.88907986522167" lon="10.842948407088354"><ele>78.66666666666667</ele><time>2026-03-28T19:50:29.999Z</time></trkpt><trkpt lat="45.889049358303154" lon="10.84303883119616"><ele>78.33333333333333</ele><time>2026-03-28T19:50:30.999Z</time></trkpt><trkpt lat="45.88905940674313" lon="10.843151796629291"><ele>78.0</ele><time>2026-03-28T19:50:31.999Z</time></trkpt><trkpt lat="45.8891134838839" lon="10.843237335340339"><ele>78.0</ele><time>2026-03-28T19:50:32.999Z</time></trkpt><trkpt lat="45.88916162773778" lon="10.843397156061346"><ele>78.0</ele><time>2026-03-28T19:50:33.999Z</time></trkpt><trkpt lat="45.88925006685133" lon="10.843472689928713"><ele>78.0</ele><time>2026-03-28T19:50:34.999Z</time></trkpt><trkpt lat="45.88927634434686" lon="10.843643396136057"><ele>78.0</ele><time>2026-03-28T19:50:36.999Z</time></trkpt><trkpt lat="45.88922330457877" lon="10.843767580537271"><ele>78.0</ele><time>2026-03-28T19:50:37.999Z</time></trkpt><trkpt lat="45.889151748454985" lon="10.843909419546883"><ele>77.75</ele><time>2026-03-28T19:50:38.999Z</time></trkpt><trkpt lat="45.88908619270936" lon="10.844070704538728"><ele>77.5</ele><time>2026-03-28T19:50:39.999Z</time></trkpt><trkpt lat="45.88901898717657" lon="10.84422820552554"><ele>77.25</ele><time>2026-03-28T19:50:40.999Z</time></trkpt><trkpt lat="45.88896766699544" lon="10.844361664655965"><ele>77.0</ele><time>2026-03-28T19:50:41.999Z</time></trkpt><trkpt lat="45.888926227926156" lon="10.844471636953324"><ele>76.8</ele><time>2026-03-28T19:50:42.999Z</time></trkpt><trkpt lat="45.88888423606898" lon="10.844555344594465"><ele>76.6</ele><time>2026-03-28T19:50:43.999Z</time></trkpt><trkpt lat="45.88883215833453" lon="10.844609318419545"><ele>76.39999999999999</ele><time>2026-03-28T19:50:44.999Z</time></trkpt><trkpt lat="45.88869296568651" lon="10.844559033463698"><ele>76.2</ele><time>2026-03-28T19:50:46.999Z</time></trkpt><trkpt lat="45.88858119689031" lon="10.844514614651649"><ele>76.0</ele><time>2026-03-28T19:50:48Z</time></trkpt><trkpt lat="45.88846763149125" lon="10.84447159833146"><ele>75.25</ele><time>2026-03-28T19:50:49Z</time></trkpt><trkpt lat="45.88834439504285" lon="10.8444341801011"><ele>74.5</ele><time>2026-03-28T19:50:50Z</time></trkpt><trkpt lat="45.88822669290649" lon="10.844390143871863"><ele>73.75</ele><time>2026-03-28T19:50:51Z</time></trkpt><trkpt lat="45.888121057987775" lon="10.844339720461798"><ele>73.0</ele><time>2026-03-28T19:50:52Z</time></trkpt><trkpt lat="45.88801789077061" lon="10.844302596398505"><ele>73.0</ele><time>2026-03-28T19:50:53Z</time></trkpt><trkpt lat="45.88791817780732" lon="10.844267873444833"><ele>73.0</ele><time>2026-03-28T19:50:54Z</time></trkpt><trkpt lat="45.887815055646165" lon="10.844228489259553"><ele>73.0</ele><time>2026-03-28T19:50:55Z</time></trkpt><trkpt lat="45.88770861026318" lon="10.844183532012723"><ele>73.0</ele><time>2026-03-28T19:50:56Z</time></trkpt><trkpt lat="45.88760230746049" lon="10.844137433634431"><ele>73.0</ele><time>2026-03-28T19:50:57Z</time></trkpt><trkpt lat="45.887489563040674" lon="10.844086905931082"><ele>73.0</ele><time>2026-03-28T19:50:58Z</time></trkpt><trkpt lat="45.88737545038006" lon="10.844045203179107"><ele>73.0</ele><time>2026-03-28T19:50:59Z</time></trkpt><trkpt lat="45.88726932835419" lon="10.844000589935606"><ele>73.0</ele><time>2026-03-28T19:51:00Z</time></trkpt><trkpt lat="45.88716842934687" lon="10.843957464520269"><ele>73.0</ele><time>2026-03-28T19:51:01Z</time></trkpt><trkpt lat="45.88705991359875" lon="10.843910967520294"><ele>73.0</ele><time>2026-03-28T19:51:02Z</time></trkpt><trkpt lat="45.88694359782064" lon="10.843866653621498"><ele>73.0</ele><time>2026-03-28T19:51:03Z</time></trkpt><trkpt lat="45.886829662472856" lon="10.843826640896728"><ele>73.0</ele><time>2026-03-28T19:51:04Z</time></trkpt><trkpt lat="45.88673291922926" lon="10.843790180164545"><ele>73.0</ele><time>2026-03-28T19:51:05Z</time></trkpt><trkpt lat="45.88665064896363" lon="10.843756394392466"><ele>73.0</ele><time>2026-03-28T19:51:06Z</time></trkpt><trkpt lat="45.88656768175249" lon="10.843724897355079"><ele>73.0</ele><time>2026-03-28T19:51:07Z</time></trkpt><trkpt lat="45.8864958226463" lon="10.843697696229247"><ele>72.83333333333333</ele><time>2026-03-28T19:51:08Z</time></trkpt><trkpt lat="45.88642497537091" lon="10.843667410566352"><ele>72.66666666666666</ele><time>2026-03-28T19:51:09Z</time></trkpt><trkpt lat="45.886355055601804" lon="10.843640934075493"><ele>72.5</ele><time>2026-03-28T19:51:10Z</time></trkpt><trkpt lat="45.88626184572506" lon="10.84360781658942"><ele>72.33333333333333</ele><time>2026-03-28T19:51:12Z</time></trkpt><trkpt lat="45.88624210520951" lon="10.843774826303974"><ele>72.16666666666667</ele><time>2026-03-28T19:51:13Z</time></trkpt><trkpt lat="45.88622855487629" lon="10.8438852375607"><ele>72.0</ele><time>2026-03-28T19:51:14Z</time></trkpt><trkpt lat="45.88621153367914" lon="10.844010831839027"><ele>72.0</ele><time>2026-03-28T19:51:15Z</time></trkpt><trkpt lat="45.88621015975903" lon="10.84414256432438"><ele>72.0</ele><time>2026-03-28T19:51:16Z</time></trkpt><trkpt lat="45.88619827335927" lon="10.844279819915538"><ele>72.0</ele><time>2026-03-28T19:51:17Z</time></trkpt><trkpt lat="45.886181886877004" lon="10.84443384023075"><ele>72.0</ele><time>2026-03-28T19:51:18Z</time></trkpt><trkpt lat="45.886164577453144" lon="10.844556788351438"><ele>72.0</ele><time>2026-03-28T19:51:19Z</time></trkpt><trkpt lat="45.88614646678299" lon="10.844672980583827"><ele>71.83333333333333</ele><time>2026-03-28T19:51:20Z</time></trkpt><trkpt lat="45.88613396891757" lon="10.844772783774392"><ele>71.66666666666667</ele><time>2026-03-28T19:51:21Z</time></trkpt><trkpt lat="45.88611449343286" lon="10.844864303486634"><ele>71.5</ele><time>2026-03-28T19:51:22Z</time></trkpt><trkpt lat="45.88608456592265" lon="10.844953499765364"><ele>71.33333333333334</ele><time>2026-03-28T19:51:23Z</time></trkpt><trkpt lat="45.885989243072295" lon="10.845060167176316"><ele>71.16666666666667</ele><time>2026-03-28T19:51:25Z</time></trkpt><trkpt lat="45.88592669048812" lon="10.84511989253053"><ele>71.0</ele><time>2026-03-28T19:51:26Z</time></trkpt><trkpt lat="45.88589486126077" lon="10.845239604112786"><ele>71.0</ele><time>2026-03-28T19:51:27Z</time></trkpt><trkpt lat="45.885879046157044" lon="10.845386438703189"><ele>71.0</ele><time>2026-03-28T19:51:28Z</time></trkpt><trkpt lat="45.88586855164308" lon="10.845513740579591"><ele>71.0</ele><time>2026-03-28T19:51:29Z</time></trkpt><trkpt lat="45.88587710475663" lon="10.845649123482856"><ele>71.0</ele><time>2026-03-28T19:51:30Z</time></trkpt><trkpt lat="45.88590679347307" lon="10.845819739748704"><ele>71.0</ele><time>2026-03-28T19:51:31Z</time></trkpt><trkpt lat="45.88584855405761" lon="10.845968557106952"><ele>71.0</ele><time>2026-03-28T19:51:32Z</time></trkpt><trkpt lat="45.88580619368661" lon="10.846126545649406"><ele>71.0</ele><time>2026-03-28T19:51:33Z</time></trkpt><trkpt lat="45.885769485825925" lon="10.846263226311185"><ele>71.0</ele><time>2026-03-28T19:51:34Z</time></trkpt><trkpt lat="45.88573628704007" lon="10.846387888071206"><ele>71.0</ele><time>2026-03-28T19:51:35Z</time></trkpt><trkpt lat="45.88571007927436" lon="10.846487573697317"><ele>71.0</ele><time>2026-03-28T19:51:36Z</time></trkpt><trkpt lat="45.88568725200153" lon="10.846574401197763"><ele>71.0</ele><time>2026-03-28T19:51:37Z</time></trkpt><trkpt lat="45.88566119920172" lon="10.846673497379474"><ele>71.0</ele><time>2026-03-28T19:51:38Z</time></trkpt><trkpt lat="45.88563273013205" lon="10.846781784219214"><ele>71.0</ele><time>2026-03-28T19:51:39Z</time></trkpt><trkpt lat="45.88559761636908" lon="10.846915345417562"><ele>71.0</ele><time>2026-03-28T19:51:40Z</time></trkpt><trkpt lat="45.88557523994887" lon="10.847066101955432"><ele>71.0</ele><time>2026-03-28T19:51:41Z</time></trkpt><trkpt lat="45.8855341797702" lon="10.847216196070795"><ele>71.0</ele><time>2026-03-28T19:51:42Z</time></trkpt><trkpt lat="45.885467512745194" lon="10.847409938266415"><ele>71.0</ele><time>2026-03-28T19:51:43Z</time></trkpt><trkpt lat="45.88540652295865" lon="10.847689970096653"><ele>71.0</ele><time>2026-03-28T19:51:44Z</time></trkpt><trkpt lat="45.885333128607456" lon="10.847969158562007"><ele>71.0</ele><time>2026-03-28T19:51:45Z</time></trkpt><trkpt lat="45.88526946582611" lon="10.848208804354362"><ele>71.0</ele><time>2026-03-28T19:51:46Z</time></trkpt><trkpt lat="45.88520963086373" lon="10.848410437547875"><ele>71.0</ele><time>2026-03-28T19:51:47Z</time></trkpt><trkpt lat="45.88515152113838" lon="10.848581617163793"><ele>71.0</ele><time>2026-03-28T19:51:48Z</time></trkpt><trkpt lat="45.88508613429703" lon="10.848749762898978"><ele>71.0</ele><time>2026-03-28T19:51:49Z</time></trkpt><trkpt lat="45.88502397704291" lon="10.848898784561985"><ele>71.0</ele><time>2026-03-28T19:51:50Z</time></trkpt><trkpt lat="45.88496247740356" lon="10.849056002984272"><ele>71.0</ele><time>2026-03-28T19:51:51Z</time></trkpt><trkpt lat="45.884895438645636" lon="10.849235142824288"><ele>71.25</ele><time>2026-03-28T19:51:52Z</time></trkpt><trkpt lat="45.884828158426586" lon="10.84940640773665"><ele>71.5</ele><time>2026-03-28T19:51:53Z</time></trkpt><trkpt lat="45.88475504105005" lon="10.849572943713975"><ele>71.75</ele><time>2026-03-28T19:51:54Z</time></trkpt><trkpt lat="45.88467571007281" lon="10.849744521615719"><ele>72.0</ele><time>2026-03-28T19:51:55Z</time></trkpt><trkpt lat="45.8846037148659" lon="10.84990779322344"><ele>72.0</ele><time>2026-03-28T19:51:56Z</time></trkpt><trkpt lat="45.88452766227266" lon="10.8500666239459"><ele>72.0</ele><time>2026-03-28T19:51:57Z</time></trkpt><trkpt lat="45.8844476268391" lon="10.85022421594671"><ele>72.0</ele><time>2026-03-28T19:51:58Z</time></trkpt><trkpt lat="45.884359902959034" lon="10.850389984402266"><ele>72.0</ele><time>2026-03-28T19:51:59Z</time></trkpt><trkpt lat="45.88427022160726" lon="10.850556362981399"><ele>71.5</ele><time>2026-03-28T19:52:00Z</time></trkpt><trkpt lat="45.88418912720295" lon="10.850715138762617"><ele>71.0</ele><time>2026-03-28T19:52:01Z</time></trkpt><trkpt lat="45.88411137092835" lon="10.85085488389964"><ele>70.5</ele><time>2026-03-28T19:52:02Z</time></trkpt><trkpt lat="45.884042592583526" lon="10.85098432513683"><ele>70.0</ele><time>2026-03-28T19:52:03Z</time></trkpt><trkpt lat="45.883968267792824" lon="10.851130143792728"><ele>70.0</ele><time>2026-03-28T19:52:04Z</time></trkpt><trkpt lat="45.883868935857166" lon="10.851277674121043"><ele>70.0</ele><time>2026-03-28T19:52:05Z</time></trkpt><trkpt lat="45.883782769129624" lon="10.851463045011903"><ele>70.0</ele><time>2026-03-28T19:52:06Z</time></trkpt><trkpt lat="45.88369993023439" lon="10.851615046112046"><ele>70.0</ele><time>2026-03-28T19:52:07Z</time></trkpt><trkpt lat="45.8836123943663" lon="10.85176734461916"><ele>70.0</ele><time>2026-03-28T19:52:08Z</time></trkpt><trkpt lat="45.88350788070783" lon="10.851950688195162"><ele>70.0</ele><time>2026-03-28T19:52:09Z</time></trkpt><trkpt lat="45.8834210860158" lon="10.852100285996796"><ele>70.0</ele><time>2026-03-28T19:52:10Z</time></trkpt><trkpt lat="45.88334360117893" lon="10.852251552827587"><ele>70.0</ele><time>2026-03-28T19:52:11Z</time></trkpt><trkpt lat="45.88326460610084" lon="10.852390437517125"><ele>69.25</ele><time>2026-03-28T19:52:12Z</time></trkpt><trkpt lat="45.883191653584255" lon="10.852524722687951"><ele>68.5</ele><time>2026-03-28T19:52:13Z</time></trkpt><trkpt lat="45.8831155333219" lon="10.852647514104817"><ele>67.75</ele><time>2026-03-28T19:52:14Z</time></trkpt><trkpt lat="45.88304815463001" lon="10.852772239213351"><ele>67.0</ele><time>2026-03-28T19:52:14.999Z</time></trkpt><trkpt lat="45.88297993338795" lon="10.852898601868494"><ele>67.0</ele><time>2026-03-28T19:52:15.999Z</time></trkpt><trkpt lat="45.88290762438703" lon="10.853011463287054"><ele>67.0</ele><time>2026-03-28T19:52:16.999Z</time></trkpt><trkpt lat="45.88283932707688" lon="10.853137217989936"><ele>67.0</ele><time>2026-03-28T19:52:17.999Z</time></trkpt><trkpt lat="45.882754597594506" lon="10.853262454127385"><ele>67.0</ele><time>2026-03-28T19:52:18.999Z</time></trkpt><trkpt lat="45.88266810081507" lon="10.853365040064752"><ele>66.8</ele><time>2026-03-28T19:52:19.999Z</time></trkpt><trkpt lat="45.882589661406314" lon="10.853477415518952"><ele>66.6</ele><time>2026-03-28T19:52:20.999Z</time></trkpt><trkpt lat="45.88250693622192" lon="10.85356630374713"><ele>66.39999999999999</ele><time>2026-03-28T19:52:21.999Z</time></trkpt><trkpt lat="45.88244330420689" lon="10.853648162063159"><ele>66.2</ele><time>2026-03-28T19:52:22.999Z</time></trkpt><trkpt lat="45.88238304827308" lon="10.853741203411424"><ele>66.0</ele><time>2026-03-28T19:52:23.999Z</time></trkpt><trkpt lat="45.88232343015487" lon="10.853818868065321"><ele>66.0</ele><time>2026-03-28T19:52:24.999Z</time></trkpt><trkpt lat="45.882266801500364" lon="10.853919631585693"><ele>66.0</ele><time>2026-03-28T19:52:25.999Z</time></trkpt><trkpt lat="45.88219972258068" lon="10.85400458851158"><ele>66.0</ele><time>2026-03-28T19:52:26.999Z</time></trkpt><trkpt lat="45.88214014258315" lon="10.854058048927842"><ele>66.0</ele><time>2026-03-28T19:52:27.999Z</time></trkpt><trkpt lat="45.88207433536606" lon="10.854099020575449"><ele>66.0</ele><time>2026-03-28T19:52:28.999Z</time></trkpt><trkpt lat="45.88199460773264" lon="10.854144310476693"><ele>66.0</ele><time>2026-03-28T19:52:29.999Z</time></trkpt><trkpt lat="45.88188797462392" lon="10.854241763981118"><ele>66.0</ele><time>2026-03-28T19:52:30.999Z</time></trkpt><trkpt lat="45.88177131067595" lon="10.854374065768573"><ele>66.0</ele><time>2026-03-28T19:52:31.999Z</time></trkpt><trkpt lat="45.88163926929222" lon="10.85448958419114"><ele>66.0</ele><time>2026-03-28T19:52:32.999Z</time></trkpt><trkpt lat="45.88153010231735" lon="10.8546038124462"><ele>66.0</ele><time>2026-03-28T19:52:33.999Z</time></trkpt><trkpt lat="45.88142927427246" lon="10.854709977748684"><ele>66.0</ele><time>2026-03-28T19:52:34.999Z</time></trkpt><trkpt lat="45.88131530072146" lon="10.854829983855229"><ele>66.0</ele><time>2026-03-28T19:52:35.999Z</time></trkpt><trkpt lat="45.8812051971392" lon="10.854945917119279"><ele>66.0</ele><time>2026-03-28T19:52:36.999Z</time></trkpt><trkpt lat="45.88110871151289" lon="10.855047509854904"><ele>66.0</ele><time>2026-03-28T19:52:37.999Z</time></trkpt><trkpt lat="45.88101327094093" lon="10.855145956836449"><ele>66.0</ele><time>2026-03-28T19:52:38.999Z</time></trkpt><trkpt lat="45.88094395564108" lon="10.855288921983618"><ele>66.0</ele><time>2026-03-28T19:52:39.999Z</time></trkpt><trkpt lat="45.88084459614046" lon="10.855387277357588"><ele>66.0</ele><time>2026-03-28T19:52:40.999Z</time></trkpt><trkpt lat="45.88074709195405" lon="10.855493489184301"><ele>66.0</ele><time>2026-03-28T19:52:41.999Z</time></trkpt><trkpt lat="45.8806369023675" lon="10.855588115584501"><ele>66.75</ele><time>2026-03-28T19:52:42.999Z</time></trkpt><trkpt lat="45.88051943529842" lon="10.855667765194893"><ele>67.5</ele><time>2026-03-28T19:52:43.999Z</time></trkpt><trkpt lat="45.880415726758535" lon="10.855776711667724"><ele>68.25</ele><time>2026-03-28T19:52:44.999Z</time></trkpt><trkpt lat="45.880322687461714" lon="10.855903054392677"><ele>69.0</ele><time>2026-03-28T19:52:45.999Z</time></trkpt><trkpt lat="45.880212669585276" lon="10.855988708837325"><ele>69.0</ele><time>2026-03-28T19:52:46.999Z</time></trkpt><trkpt lat="45.880104460263084" lon="10.856101325199457"><ele>69.0</ele><time>2026-03-28T19:52:47.999Z</time></trkpt><trkpt lat="45.88000540994442" lon="10.856226552119486"><ele>69.0</ele><time>2026-03-28T19:52:48.999Z</time></trkpt><trkpt lat="45.879897358500585" lon="10.856345105521578"><ele>69.0</ele><time>2026-03-28T19:52:49.999Z</time></trkpt><trkpt lat="45.87978256971342" lon="10.856458955977269"><ele>68.75</ele><time>2026-03-28T19:52:50.999Z</time></trkpt><trkpt lat="45.87966806853425" lon="10.856575650553053"><ele>68.5</ele><time>2026-03-28T19:52:51.999Z</time></trkpt><trkpt lat="45.879553688023094" lon="10.856688515157135"><ele>68.25</ele><time>2026-03-28T19:52:52.999Z</time></trkpt><trkpt lat="45.87944340423296" lon="10.856809854925856"><ele>68.0</ele><time>2026-03-28T19:52:54Z</time></trkpt><trkpt lat="45.8793290927597" lon="10.85692369753201"><ele>68.25</ele><time>2026-03-28T19:52:55Z</time></trkpt><trkpt lat="45.87922537210381" lon="10.85701786117753"><ele>68.5</ele><time>2026-03-28T19:52:56Z</time></trkpt><trkpt lat="45.87912289601102" lon="10.857114806667248"><ele>68.75</ele><time>2026-03-28T19:52:57Z</time></trkpt><trkpt lat="45.879010882516994" lon="10.857198784656768"><ele>69.0</ele><time>2026-03-28T19:52:58Z</time></trkpt><trkpt lat="45.878893265457606" lon="10.857269621005743"><ele>69.0</ele><time>2026-03-28T19:52:59Z</time></trkpt><trkpt lat="45.878785269969796" lon="10.85732785410544"><ele>69.0</ele><time>2026-03-28T19:53:00Z</time></trkpt><trkpt lat="45.878688028943785" lon="10.857374934464659"><ele>69.0</ele><time>2026-03-28T19:53:01Z</time></trkpt><trkpt lat="45.878575266500945" lon="10.857416250728534"><ele>69.0</ele><time>2026-03-28T19:53:02Z</time></trkpt><trkpt lat="45.87845019886733" lon="10.857465655330254"><ele>68.66666666666667</ele><time>2026-03-28T19:53:03Z</time></trkpt><trkpt lat="45.87831203770177" lon="10.85752087841739"><ele>68.33333333333334</ele><time>2026-03-28T19:53:04Z</time></trkpt><trkpt lat="45.87816047526139" lon="10.857576067965566"><ele>68.0</ele><time>2026-03-28T19:53:05Z</time></trkpt><trkpt lat="45.878009626890886" lon="10.857636897915091"><ele>68.75</ele><time>2026-03-28T19:53:06Z</time></trkpt><trkpt lat="45.87788262355297" lon="10.857699215411289"><ele>69.5</ele><time>2026-03-28T19:53:07Z</time></trkpt><trkpt lat="45.877769727556" lon="10.85773943197325"><ele>70.25</ele><time>2026-03-28T19:53:08Z</time></trkpt><trkpt lat="45.87765124110192" lon="10.857802935581075"><ele>71.0</ele><time>2026-03-28T19:53:09Z</time></trkpt><trkpt lat="45.877510261154995" lon="10.85786943508351"><ele>74.66666666666667</ele><time>2026-03-28T19:53:10Z</time></trkpt><trkpt lat="45.87735673825614" lon="10.857928342245009"><ele>78.33333333333333</ele><time>2026-03-28T19:53:11Z</time></trkpt><trkpt lat="45.87721133367147" lon="10.857987229879928"><ele>82.0</ele><time>2026-03-28T19:53:12Z</time></trkpt><trkpt lat="45.87706834269437" lon="10.858036676397466"><ele>81.0</ele><time>2026-03-28T19:53:13.014Z</time></trkpt><trkpt lat="45.87647926476859" lon="10.858501933466746"><ele>81.0</ele><time>2026-03-28T19:53:17Z</time></trkpt><trkpt lat="45.87637752831715" lon="10.858654643674598"><ele>81.0</ele><time>2026-03-28T19:53:18Z</time></trkpt><trkpt lat="45.876353174209086" lon="10.858977666322662"><ele>81.0</ele><time>2026-03-28T19:53:19Z</time></trkpt><trkpt lat="45.87634475586674" lon="10.859199261101045"><ele>83.33333333333333</ele><time>2026-03-28T19:53:20Z</time></trkpt><trkpt lat="45.87638831600088" lon="10.859412569295955"><ele>85.66666666666666</ele><time>2026-03-28T19:53:21Z</time></trkpt><trkpt lat="45.87641887235249" lon="10.859636480136842"><ele>88.0</ele><time>2026-03-28T19:53:22Z</time></trkpt><trkpt lat="45.87641180837365" lon="10.859845529847275"><ele>88.0</ele><time>2026-03-28T19:53:23Z</time></trkpt><trkpt lat="45.876471088149685" lon="10.860100058027317"><ele>88.0</ele><time>2026-03-28T19:53:24Z</time></trkpt><trkpt lat="45.87652783460187" lon="10.860338604012991"><ele>88.0</ele><time>2026-03-28T19:53:25Z</time></trkpt><trkpt lat="45.876578626821" lon="10.860551301944692"><ele>86.0</ele><time>2026-03-28T19:53:26Z</time></trkpt><trkpt lat="45.876620212120535" lon="10.860788508232739"><ele>84.0</ele><time>2026-03-28T19:53:27Z</time></trkpt><trkpt lat="45.876648901705686" lon="10.8610335030021"><ele>82.0</ele><time>2026-03-28T19:53:28Z</time></trkpt><trkpt lat="45.87667532862524" lon="10.86127961721948"><ele>85.33333333333333</ele><time>2026-03-28T19:53:29Z</time></trkpt><trkpt lat="45.876701906564875" lon="10.861534371978326"><ele>88.66666666666667</ele><time>2026-03-28T19:53:30Z</time></trkpt><trkpt lat="45.87672251913187" lon="10.861788349654697"><ele>92.0</ele><time>2026-03-28T19:53:31Z</time></trkpt><trkpt lat="45.87673454444769" lon="10.862049268076463"><ele>92.0</ele><time>2026-03-28T19:53:32Z</time></trkpt><trkpt lat="45.87676421226836" lon="10.862309517712937"><ele>92.0</ele><time>2026-03-28T19:53:33Z</time></trkpt><trkpt lat="45.87678971908829" lon="10.862594066099252"><ele>92.0</ele><time>2026-03-28T19:53:34Z</time></trkpt><trkpt lat="45.87681570005199" lon="10.862849621483369"><ele>100.66666666666667</ele><time>2026-03-28T19:53:35Z</time></trkpt><trkpt lat="45.87683500842682" lon="10.863093703953343"><ele>109.33333333333334</ele><time>2026-03-28T19:53:36Z</time></trkpt><trkpt lat="45.87688267048774" lon="10.863297065245721"><ele>118.0</ele><time>2026-03-28T19:53:37Z</time></trkpt><trkpt lat="45.876943749204784" lon="10.863519833174463"><ele>118.0</ele><time>2026-03-28T19:53:38Z</time></trkpt><trkpt lat="45.8770085733367" lon="10.863732130227703"><ele>118.0</ele><time>2026-03-28T19:53:39Z</time></trkpt><trkpt lat="45.877065969974254" lon="10.863920501729153"><ele>118.0</ele><time>2026-03-28T19:53:40Z</time></trkpt><trkpt lat="45.87711683090969" lon="10.864112375046366"><ele>118.0</ele><time>2026-03-28T19:53:41Z</time></trkpt><trkpt lat="45.87717318036755" lon="10.864295151153103"><ele>118.0</ele><time>2026-03-28T19:53:42Z</time></trkpt><trkpt lat="45.87722091210914" lon="10.864525682258522"><ele>118.0</ele><time>2026-03-28T19:53:43Z</time></trkpt><trkpt lat="45.87726915441779" lon="10.864735143325213"><ele>118.0</ele><time>2026-03-28T19:53:44Z</time></trkpt><trkpt lat="45.877285535766205" lon="10.864952564762012"><ele>108.66666666666667</ele><time>2026-03-28T19:53:45Z</time></trkpt><trkpt lat="45.87731620063893" lon="10.865168022152291"><ele>99.33333333333334</ele><time>2026-03-28T19:53:46Z</time></trkpt><trkpt lat="45.87734798912948" lon="10.865382648724358"><ele>90.0</ele><time>2026-03-28T19:53:47Z</time></trkpt><trkpt lat="45.877378936789135" lon="10.865596404706974"><ele>90.0</ele><time>2026-03-28T19:53:48Z</time></trkpt><trkpt lat="45.87740940855905" lon="10.865811274970437"><ele>90.0</ele><time>2026-03-28T19:53:49Z</time></trkpt><trkpt lat="45.877440195388914" lon="10.8660269758494"><ele>90.0</ele><time>2026-03-28T19:53:50Z</time></trkpt><trkpt lat="45.877471775286644" lon="10.86624152266682"><ele>87.0</ele><time>2026-03-28T19:53:51Z</time></trkpt><trkpt lat="45.877503416435154" lon="10.866456483234103"><ele>84.0</ele><time>2026-03-28T19:53:52Z</time></trkpt><trkpt lat="45.877533404546185" lon="10.866669019585686"><ele>81.0</ele><time>2026-03-28T19:53:53Z</time></trkpt><trkpt lat="45.87755849939423" lon="10.866877124171294"><ele>80.66666666666667</ele><time>2026-03-28T19:53:54Z</time></trkpt><trkpt lat="45.877584788701874" lon="10.86724910309796"><ele>80.33333333333334</ele><time>2026-03-28T19:53:55Z</time></trkpt><trkpt lat="45.877549595797646" lon="10.867493997703024"><ele>80.0</ele><time>2026-03-28T19:53:56Z</time></trkpt><trkpt lat="45.87744964746415" lon="10.867791558196505"><ele>75.66666666666667</ele><time>2026-03-28T19:53:57Z</time></trkpt><trkpt lat="45.8773935873516" lon="10.86802351316672"><ele>71.33333333333333</ele><time>2026-03-28T19:53:58Z</time></trkpt><trkpt lat="45.877302490023965" lon="10.868254604071703"><ele>67.0</ele><time>2026-03-28T19:53:59Z</time></trkpt><trkpt lat="45.87723016698991" lon="10.868486975359755"><ele>66.33333333333333</ele><time>2026-03-28T19:54:00Z</time></trkpt><trkpt lat="45.87715552659814" lon="10.868731874122947"><ele>65.66666666666667</ele><time>2026-03-28T19:54:01Z</time></trkpt><trkpt lat="45.877092031362274" lon="10.86895225559837"><ele>65.0</ele><time>2026-03-28T19:54:02Z</time></trkpt><trkpt lat="45.87702052305488" lon="10.869170149148173"><ele>65.66666666666667</ele><time>2026-03-28T19:54:03Z</time></trkpt><trkpt lat="45.87694825495315" lon="10.869391415810222"><ele>66.33333333333333</ele><time>2026-03-28T19:54:04Z</time></trkpt><trkpt lat="45.87687100161518" lon="10.869608878237337"><ele>67.0</ele><time>2026-03-28T19:54:05Z</time></trkpt><trkpt lat="45.876805896224546" lon="10.869793500580858"><ele>66.75</ele><time>2026-03-28T19:54:06Z</time></trkpt><trkpt lat="45.876715833619706" lon="10.869963035371317"><ele>66.5</ele><time>2026-03-28T19:54:07Z</time></trkpt><trkpt lat="45.87662902813529" lon="10.870129355214909"><ele>66.25</ele><time>2026-03-28T19:54:08Z</time></trkpt><trkpt lat="45.87655616882028" lon="10.870281425029537"><ele>66.0</ele><time>2026-03-28T19:54:09Z</time></trkpt><trkpt lat="45.876523014121005" lon="10.870435482748377"><ele>65.75</ele><time>2026-03-28T19:54:10Z</time></trkpt><trkpt lat="45.87644420071409" lon="10.870562723208131"><ele>65.5</ele><time>2026-03-28T19:54:11Z</time></trkpt><trkpt lat="45.87633600424021" lon="10.870669897957516"><ele>65.25</ele><time>2026-03-28T19:54:12Z</time></trkpt><trkpt lat="45.8762291990164" lon="10.870801090232092"><ele>65.0</ele><time>2026-03-28T19:54:13Z</time></trkpt><trkpt lat="45.87608272610966" lon="10.870977096845149"><ele>65.0</ele><time>2026-03-28T19:54:14Z</time></trkpt><trkpt lat="45.875946537406236" lon="10.871117608610284"><ele>65.0</ele><time>2026-03-28T19:54:15Z</time></trkpt><trkpt lat="45.87583554229497" lon="10.871260193092217"><ele>65.0</ele><time>2026-03-28T19:54:16Z</time></trkpt><trkpt lat="45.87573148737333" lon="10.871416482294629"><ele>65.25</ele><time>2026-03-28T19:54:17Z</time></trkpt><trkpt lat="45.875637380267854" lon="10.871569939543589"><ele>65.5</ele><time>2026-03-28T19:54:18Z</time></trkpt><trkpt lat="45.875550801742634" lon="10.87172319390723"><ele>65.75</ele><time>2026-03-28T19:54:19Z</time></trkpt><trkpt lat="45.875463573709084" lon="10.871876883422457"><ele>66.0</ele><time>2026-03-28T19:54:20Z</time></trkpt><trkpt lat="45.87537529515306" lon="10.872040528976884"><ele>66.0</ele><time>2026-03-28T19:54:21Z</time></trkpt><trkpt lat="45.875287887496384" lon="10.872196190445813"><ele>66.0</ele><time>2026-03-28T19:54:22Z</time></trkpt><trkpt lat="45.8751936554091" lon="10.87236450412515"><ele>66.0</ele><time>2026-03-28T19:54:23Z</time></trkpt><trkpt lat="45.87508988789324" lon="10.872524960428246"><ele>66.0</ele><time>2026-03-28T19:54:24Z</time></trkpt><trkpt lat="45.87497421015818" lon="10.872682107241081"><ele>66.25</ele><time>2026-03-28T19:54:25Z</time></trkpt><trkpt lat="45.87485558988748" lon="10.87283022015418"><ele>66.5</ele><time>2026-03-28T19:54:25.999Z</time></trkpt><trkpt lat="45.87474484800969" lon="10.872952163787714"><ele>66.75</ele><time>2026-03-28T19:54:26.999Z</time></trkpt><trkpt lat="45.8746195370201" lon="10.873076131744531"><ele>67.0</ele><time>2026-03-28T19:54:27.999Z</time></trkpt><trkpt lat="45.87449898422384" lon="10.87320244348561"><ele>67.0</ele><time>2026-03-28T19:54:28.999Z</time></trkpt><trkpt lat="45.87438166237259" lon="10.873291969571351"><ele>67.0</ele><time>2026-03-28T19:54:29.999Z</time></trkpt><trkpt lat="45.87428788246842" lon="10.873382391470086"><ele>67.0</ele><time>2026-03-28T19:54:30.999Z</time></trkpt><trkpt lat="45.874185423096435" lon="10.873474916886998"><ele>67.0</ele><time>2026-03-28T19:54:31.999Z</time></trkpt><trkpt lat="45.87406983753316" lon="10.873570204490289"><ele>67.0</ele><time>2026-03-28T19:54:32.999Z</time></trkpt><trkpt lat="45.87394303644179" lon="10.873659774574763"><ele>67.0</ele><time>2026-03-28T19:54:33.999Z</time></trkpt><trkpt lat="45.87380203233271" lon="10.873744960457199"><ele>67.0</ele><time>2026-03-28T19:54:34.999Z</time></trkpt><trkpt lat="45.87368050541749" lon="10.873814258856026"><ele>67.0</ele><time>2026-03-28T19:54:35.999Z</time></trkpt><trkpt lat="45.87356516472493" lon="10.873879637985953"><ele>67.0</ele><time>2026-03-28T19:54:36.999Z</time></trkpt><trkpt lat="45.873455529778404" lon="10.87394178291058"><ele>67.0</ele><time>2026-03-28T19:54:37.999Z</time></trkpt><trkpt lat="45.87334559992338" lon="10.874003932884536"><ele>67.0</ele><time>2026-03-28T19:54:38.999Z</time></trkpt><trkpt lat="45.87323371865551" lon="10.874062862894695"><ele>67.0</ele><time>2026-03-28T19:54:39.999Z</time></trkpt><trkpt lat="45.87312843054973" lon="10.874145476499061"><ele>67.0</ele><time>2026-03-28T19:54:40.999Z</time></trkpt><trkpt lat="45.87301119862731" lon="10.874183755408032"><ele>67.0</ele><time>2026-03-28T19:54:41.999Z</time></trkpt><trkpt lat="45.8729083450676" lon="10.87426427926166"><ele>67.0</ele><time>2026-03-28T19:54:42.999Z</time></trkpt><trkpt lat="45.87279898892298" lon="10.874340964361036"><ele>67.0</ele><time>2026-03-28T19:54:43.999Z</time></trkpt><trkpt lat="45.87269661137682" lon="10.874413316186237"><ele>66.8</ele><time>2026-03-28T19:54:44.999Z</time></trkpt><trkpt lat="45.87258817927531" lon="10.874496825700996"><ele>66.6</ele><time>2026-03-28T19:54:45.999Z</time></trkpt><trkpt lat="45.87250370536384" lon="10.874563413962335"><ele>66.39999999999999</ele><time>2026-03-28T19:54:46.999Z</time></trkpt><trkpt lat="45.87242991193807" lon="10.874623339413734"><ele>66.2</ele><time>2026-03-28T19:54:47.999Z</time></trkpt><trkpt lat="45.87237088519815" lon="10.87467408346328"><ele>66.0</ele><time>2026-03-28T19:54:48.999Z</time></trkpt><trkpt lat="45.87229836464543" lon="10.87473620042675"><ele>66.0</ele><time>2026-03-28T19:54:50.999Z</time></trkpt><trkpt lat="45.87223444315209" lon="10.874776406244095"><ele>66.0</ele><time>2026-03-28T19:54:52.999Z</time></trkpt><trkpt lat="45.87216928203406" lon="10.874795352190935"><ele>66.0</ele><time>2026-03-28T19:54:53.999Z</time></trkpt><trkpt lat="45.872110169611695" lon="10.874913625986599"><ele>66.0</ele><time>2026-03-28T19:54:55.999Z</time></trkpt><trkpt lat="45.87215143242031" lon="10.875038490032793"><ele>66.0</ele><time>2026-03-28T19:54:57.999Z</time></trkpt><trkpt lat="45.8722151559829" lon="10.875114870050522"><ele>66.0</ele><time>2026-03-28T19:54:58.999Z</time></trkpt><trkpt lat="45.872280580606834" lon="10.875194143689688"><ele>65.8</ele><time>2026-03-28T19:55:00Z</time></trkpt><trkpt lat="45.872358055897266" lon="10.875253526160035"><ele>65.6</ele><time>2026-03-28T19:55:01Z</time></trkpt><trkpt lat="45.872447881343945" lon="10.875299070909108"><ele>65.4</ele><time>2026-03-28T19:55:02Z</time></trkpt><trkpt lat="45.87254183641251" lon="10.875337564009302"><ele>65.2</ele><time>2026-03-28T19:55:03Z</time></trkpt><trkpt lat="45.87263515998541" lon="10.87538862653463"><ele>65.0</ele><time>2026-03-28T19:55:04Z</time></trkpt><trkpt lat="45.87272059154213" lon="10.875439307980901"><ele>65.33333333333334</ele><time>2026-03-28T19:55:05Z</time></trkpt><trkpt lat="45.872790076299594" lon="10.875476597395371"><ele>65.66666666666667</ele><time>2026-03-28T19:55:06Z</time></trkpt><trkpt lat="45.872866952533826" lon="10.875516558173805"><ele>66.0</ele><time>2026-03-28T19:55:07Z</time></trkpt><trkpt lat="45.87294715661598" lon="10.875554955334701"><ele>66.33333333333333</ele><time>2026-03-28T19:55:08Z</time></trkpt><trkpt lat="45.873018640050375" lon="10.875587829590273"><ele>66.66666666666666</ele><time>2026-03-28T19:55:09Z</time></trkpt><trkpt lat="45.87310444005381" lon="10.875622058455239"><ele>67.0</ele><time>2026-03-28T19:55:10Z</time></trkpt><trkpt lat="45.87319822860184" lon="10.875653089818133"><ele>67.0</ele><time>2026-03-28T19:55:11Z</time></trkpt><trkpt lat="45.873294224624665" lon="10.875692577392536"><ele>67.0</ele><time>2026-03-28T19:55:12Z</time></trkpt><trkpt lat="45.87339193221236" lon="10.875738201841603"><ele>67.0</ele><time>2026-03-28T19:55:13Z</time></trkpt><trkpt lat="45.87349818926788" lon="10.875810514338625"><ele>67.0</ele><time>2026-03-28T19:55:14Z</time></trkpt><trkpt lat="45.87360060810441" lon="10.875936026408977"><ele>67.0</ele><time>2026-03-28T19:55:15Z</time></trkpt><trkpt lat="45.873719335046225" lon="10.8760226583408"><ele>67.0</ele><time>2026-03-28T19:55:16Z</time></trkpt><trkpt lat="45.87380992892054" lon="10.87609751594099"><ele>67.0</ele><time>2026-03-28T19:55:17Z</time></trkpt><trkpt lat="45.87389990204176" lon="10.876168821872623"><ele>67.0</ele><time>2026-03-28T19:55:18Z</time></trkpt><trkpt lat="45.873994130915065" lon="10.876239551915079"><ele>67.0</ele><time>2026-03-28T19:55:19Z</time></trkpt><trkpt lat="45.87408071773682" lon="10.876314520784499"><ele>67.0</ele><time>2026-03-28T19:55:20Z</time></trkpt><trkpt lat="45.87414485696373" lon="10.876368924021426"><ele>67.0</ele><time>2026-03-28T19:55:21Z</time></trkpt><trkpt lat="45.874228669171636" lon="10.876427558967025"><ele>67.0</ele><time>2026-03-28T19:55:23Z</time></trkpt><trkpt lat="45.87429171876484" lon="10.876476150534048"><ele>67.0</ele><time>2026-03-28T19:55:25Z</time></trkpt><trkpt lat="45.874336294535276" lon="10.876543562870344"><ele>67.0</ele><time>2026-03-28T19:55:28Z</time></trkpt><trkpt lat="45.87430239795866" lon="10.87664759143427"><ele>67.0</ele><time>2026-03-28T19:55:32Z</time></trkpt><trkpt lat="45.87426889522694" lon="10.87673204743538"><ele>67.0</ele><time>2026-03-28T19:55:35Z</time></trkpt><trkpt lat="45.874215729898374" lon="10.87679611450827"><ele>67.0</ele><time>2026-03-28T19:55:38Z</time></trkpt></trkseg><trkseg><trkpt lat="45.87408252068072" lon="10.876802891931781"><ele>67.0</ele><time>2026-03-29T07:10:37Z</time></trkpt><trkpt lat="45.874163667082925" lon="10.87672152355283"><ele>67.0</ele><time>2026-03-29T07:10:39Z</time></trkpt><trkpt lat="45.87421918518212" lon="10.87665302316258"><ele>67.0</ele><time>2026-03-29T07:10:41Z</time></trkpt><trkpt lat="45.87425182382716" lon="10.876572971326794"><ele>67.0</ele><time>2026-03-29T07:10:43Z</time></trkpt><trkpt lat="45.87422217031289" lon="10.87646974022266"><ele>67.0</ele><time>2026-03-29T07:11:22Z</time></trkpt><trkpt lat="45.87411660647775" lon="10.876374947865603"><ele>67.0</ele><time>2026-03-29T07:11:24Z</time></trkpt><trkpt lat="45.87403586982639" lon="10.876307280622111"><ele>67.0</ele><time>2026-03-29T07:11:26Z</time></trkpt><trkpt lat="45.87395944369555" lon="10.876242773203735"><ele>67.0</ele><time>2026-03-29T07:11:28Z</time></trkpt><trkpt lat="45.873854480467095" lon="10.87614458049982"><ele>67.0</ele><time>2026-03-29T07:11:29.999Z</time></trkpt><trkpt lat="45.8737711621025" lon="10.876072489567134"><ele>67.0</ele><time>2026-03-29T07:11:31.999Z</time></trkpt><trkpt lat="45.87368488652581" lon="10.87600658038811"><ele>67.0</ele><time>2026-03-29T07:11:33.999Z</time></trkpt><trkpt lat="45.87360713925718" lon="10.875883396742003"><ele>67.0</ele><time>2026-03-29T07:11:35.999Z</time></trkpt><trkpt lat="45.873500395249074" lon="10.875783508526819"><ele>67.0</ele><time>2026-03-29T07:11:37.999Z</time></trkpt><trkpt lat="45.87343914489408" lon="10.875726192072852"><ele>67.0</ele><time>2026-03-29T07:11:38.999Z</time></trkpt><trkpt lat="45.8733672921703" lon="10.875672789673835"><ele>67.0</ele><time>2026-03-29T07:11:39.999Z</time></trkpt><trkpt lat="45.873284157161" lon="10.875629450390091"><ele>67.0</ele><time>2026-03-29T07:11:40.999Z</time></trkpt><trkpt lat="45.87318707726554" lon="10.87559814681925"><ele>67.0</ele><time>2026-03-29T07:11:41.999Z</time></trkpt><trkpt lat="45.87309456703415" lon="10.875567627704177"><ele>67.0</ele><time>2026-03-29T07:11:42.999Z</time></trkpt><trkpt lat="45.87300021984096" lon="10.87553431357074"><ele>67.0</ele><time>2026-03-29T07:11:43.999Z</time></trkpt><trkpt lat="45.8729277434346" lon="10.875506600847048"><ele>67.0</ele><time>2026-03-29T07:11:44.999Z</time></trkpt><trkpt lat="45.87285703212586" lon="10.875472370278947"><ele>67.0</ele><time>2026-03-29T07:11:45.999Z</time></trkpt><trkpt lat="45.87278516116677" lon="10.875431868967302"><ele>67.0</ele><time>2026-03-29T07:11:46.999Z</time></trkpt><trkpt lat="45.87270531658724" lon="10.87543820721729"><ele>67.0</ele><time>2026-03-29T07:11:47.999Z</time></trkpt><trkpt lat="45.87263780537511" lon="10.875395142162096"><ele>67.0</ele><time>2026-03-29T07:11:48.999Z</time></trkpt><trkpt lat="45.87256769102852" lon="10.875349126141389"><ele>67.0</ele><time>2026-03-29T07:11:49.999Z</time></trkpt><trkpt lat="45.87249513959583" lon="10.875307373190012"><ele>67.0</ele><time>2026-03-29T07:11:50.999Z</time></trkpt><trkpt lat="45.8724307685823" lon="10.875228292070283"><ele>67.0</ele><time>2026-03-29T07:11:51.999Z</time></trkpt><trkpt lat="45.872361112660236" lon="10.875185963438602"><ele>67.0</ele><time>2026-03-29T07:11:52.999Z</time></trkpt><trkpt lat="45.872260780133175" lon="10.875110421484464"><ele>66.8</ele><time>2026-03-29T07:11:54.999Z</time></trkpt><trkpt lat="45.872218212015504" lon="10.875020098980537"><ele>66.6</ele><time>2026-03-29T07:11:56.999Z</time></trkpt><trkpt lat="45.87225170875409" lon="10.874878301415725"><ele>66.39999999999999</ele><time>2026-03-29T07:11:59.999Z</time></trkpt><trkpt lat="45.87215565236638" lon="10.874754341669691"><ele>66.2</ele><time>2026-03-29T07:12:01.999Z</time></trkpt><trkpt lat="45.872083234262796" lon="10.874825930519828"><ele>66.0</ele><time>2026-03-29T07:12:02.999Z</time></trkpt><trkpt lat="45.87202853415479" lon="10.874896589838063"><ele>66.0</ele><time>2026-03-29T07:12:03.999Z</time></trkpt><trkpt lat="45.87195422455223" lon="10.874968419540185"><ele>66.0</ele><time>2026-03-29T07:12:04.999Z</time></trkpt><trkpt lat="45.87185997643914" lon="10.875020133297829"><ele>66.0</ele><time>2026-03-29T07:12:05.999Z</time></trkpt><trkpt lat="45.871763326572676" lon="10.875063643164003"><ele>66.0</ele><time>2026-03-29T07:12:06.999Z</time></trkpt><trkpt lat="45.871663681129576" lon="10.87510712790521"><ele>66.0</ele><time>2026-03-29T07:12:07.999Z</time></trkpt><trkpt lat="45.871570860812824" lon="10.8751390729648"><ele>66.16666666666667</ele><time>2026-03-29T07:12:08.999Z</time></trkpt><trkpt lat="45.87149543146455" lon="10.875164831570665"><ele>66.33333333333333</ele><time>2026-03-29T07:12:09.999Z</time></trkpt><trkpt lat="45.87142787599439" lon="10.875192022089076"><ele>66.5</ele><time>2026-03-29T07:12:10.999Z</time></trkpt><trkpt lat="45.87135329480496" lon="10.875222670600014"><ele>66.66666666666666</ele><time>2026-03-29T07:12:11.999Z</time></trkpt><trkpt lat="45.8712730951256" lon="10.875243840777264"><ele>66.83333333333333</ele><time>2026-03-29T07:12:12.999Z</time></trkpt><trkpt lat="45.87120288364497" lon="10.87534401540869"><ele>67.0</ele><time>2026-03-29T07:12:13.999Z</time></trkpt><trkpt lat="45.87114192445034" lon="10.875429838544814"><ele>67.0</ele><time>2026-03-29T07:12:14.999Z</time></trkpt><trkpt lat="45.87109929407446" lon="10.875516434138836"><ele>67.0</ele><time>2026-03-29T07:12:15.999Z</time></trkpt><trkpt lat="45.871052549289" lon="10.875601207995748"><ele>67.0</ele><time>2026-03-29T07:12:16.999Z</time></trkpt><trkpt lat="45.87098941140374" lon="10.875712098310101"><ele>67.0</ele><time>2026-03-29T07:12:18.999Z</time></trkpt><trkpt lat="45.87093369263379" lon="10.875808623899013"><ele>67.0</ele><time>2026-03-29T07:12:20.999Z</time></trkpt><trkpt lat="45.87086959694164" lon="10.875903466533645"><ele>67.0</ele><time>2026-03-29T07:12:22.999Z</time></trkpt><trkpt lat="45.87081849578771" lon="10.875960675611223"><ele>68.0</ele><time>2026-03-29T07:12:25Z</time></trkpt><trkpt lat="45.87071869545843" lon="10.876039230616017"><ele>69.0</ele><time>2026-03-29T07:12:27Z</time></trkpt><trkpt lat="45.870638802358" lon="10.876072060744905"><ele>70.0</ele><time>2026-03-29T07:12:29Z</time></trkpt><trkpt lat="45.87065483313804" lon="10.876237049268685"><ele>71.0</ele><time>2026-03-29T07:12:30Z</time></trkpt><trkpt lat="45.87074014879126" lon="10.876362427906981"><ele>72.0</ele><time>2026-03-29T07:12:32Z</time></trkpt><trkpt lat="45.87078945788851" lon="10.876439183863617"><ele>72.0</ele><time>2026-03-29T07:12:33Z</time></trkpt><trkpt lat="45.87085819137429" lon="10.876535823135349"><ele>72.0</ele><time>2026-03-29T07:12:34Z</time></trkpt><trkpt lat="45.87094245136089" lon="10.87664465928363"><ele>72.0</ele><time>2026-03-29T07:12:35Z</time></trkpt><trkpt lat="45.871031053076564" lon="10.876766682260923"><ele>72.0</ele><time>2026-03-29T07:12:36Z</time></trkpt><trkpt lat="45.871125078449865" lon="10.876891335658634"><ele>72.5</ele><time>2026-03-29T07:12:37Z</time></trkpt><trkpt lat="45.87122178574096" lon="10.87702224684567"><ele>73.0</ele><time>2026-03-29T07:12:38Z</time></trkpt><trkpt lat="45.871322054168324" lon="10.877158299063412"><ele>73.5</ele><time>2026-03-29T07:12:39Z</time></trkpt><trkpt lat="45.87141461427734" lon="10.877292310546014"><ele>74.0</ele><time>2026-03-29T07:12:40Z</time></trkpt><trkpt lat="45.87150783047328" lon="10.877423577480224"><ele>74.0</ele><time>2026-03-29T07:12:41Z</time></trkpt><trkpt lat="45.8715950242759" lon="10.877552929070806"><ele>74.0</ele><time>2026-03-29T07:12:42Z</time></trkpt><trkpt lat="45.87168561444284" lon="10.877675333585708"><ele>74.0</ele><time>2026-03-29T07:12:43Z</time></trkpt><trkpt lat="45.871779387760895" lon="10.877800124946521"><ele>74.0</ele><time>2026-03-29T07:12:44Z</time></trkpt><trkpt lat="45.87188116042981" lon="10.877938263332622"><ele>74.33333333333334</ele><time>2026-03-29T07:12:45Z</time></trkpt><trkpt lat="45.87201253812143" lon="10.878106009115106"><ele>74.66666666666667</ele><time>2026-03-29T07:12:46Z</time></trkpt><trkpt lat="45.872156741540216" lon="10.878303262115674"><ele>75.0</ele><time>2026-03-29T07:12:47Z</time></trkpt><trkpt lat="45.87230216363469" lon="10.878528991668855"><ele>76.0</ele><time>2026-03-29T07:12:48Z</time></trkpt><trkpt lat="45.87246114258036" lon="10.878757709730593"><ele>77.0</ele><time>2026-03-29T07:12:49Z</time></trkpt><trkpt lat="45.87260237203507" lon="10.878962839268254"><ele>78.0</ele><time>2026-03-29T07:12:50Z</time></trkpt><trkpt lat="45.8727269962089" lon="10.879133598142356"><ele>86.33333333333334</ele><time>2026-03-29T07:12:51Z</time></trkpt><trkpt lat="45.872851779092734" lon="10.879299877167265"><ele>94.66666666666667</ele><time>2026-03-29T07:12:52Z</time></trkpt><trkpt lat="45.87297126930681" lon="10.8794650299254"><ele>103.0</ele><time>2026-03-29T07:12:53Z</time></trkpt><trkpt lat="45.87307238657036" lon="10.879603210430075"><ele>103.0</ele><time>2026-03-29T07:12:54Z</time></trkpt><trkpt lat="45.87317656554317" lon="10.87974917227576"><ele>103.0</ele><time>2026-03-29T07:12:55Z</time></trkpt><trkpt lat="45.87328298011631" lon="10.879896857554542"><ele>103.0</ele><time>2026-03-29T07:12:56Z</time></trkpt><trkpt lat="45.87339233409499" lon="10.880043626420303"><ele>103.0</ele><time>2026-03-29T07:12:57Z</time></trkpt><trkpt lat="45.87349986590617" lon="10.880196249115741"><ele>102.0</ele><time>2026-03-29T07:12:58Z</time></trkpt><trkpt lat="45.87360374276382" lon="10.88034813297046"><ele>101.0</ele><time>2026-03-29T07:12:59Z</time></trkpt><trkpt lat="45.87371439483198" lon="10.880506188877943"><ele>100.0</ele><time>2026-03-29T07:13:00Z</time></trkpt><trkpt lat="45.87383073487747" lon="10.88066770415608"><ele>100.0</ele><time>2026-03-29T07:13:01Z</time></trkpt><trkpt lat="45.87394786451231" lon="10.88083341000927"><ele>100.0</ele><time>2026-03-29T07:13:02Z</time></trkpt><trkpt lat="45.87406922610836" lon="10.881002999188"><ele>100.0</ele><time>2026-03-29T07:13:03Z</time></trkpt><trkpt lat="45.874193037212365" lon="10.881180448084718"><ele>101.66666666666667</ele><time>2026-03-29T07:13:04Z</time></trkpt><trkpt lat="45.87432524480781" lon="10.881359797407374"><ele>103.33333333333334</ele><time>2026-03-29T07:13:05Z</time></trkpt><trkpt lat="45.87446149287269" lon="10.881545648806956"><ele>105.0</ele><time>2026-03-29T07:13:06Z</time></trkpt><trkpt lat="45.874607720382684" lon="10.881723680894645"><ele>114.33333333333334</ele><time>2026-03-29T07:13:07Z</time></trkpt><trkpt lat="45.87475914611627" lon="10.881898300686498"><ele>123.66666666666667</ele><time>2026-03-29T07:13:08Z</time></trkpt><trkpt lat="45.87491469562447" lon="10.882084554599333"><ele>133.0</ele><time>2026-03-29T07:13:09Z</time></trkpt><trkpt lat="45.87508991301227" lon="10.882259133903597"><ele>136.0</ele><time>2026-03-29T07:13:10Z</time></trkpt><trkpt lat="45.87526173383552" lon="10.88243405253481"><ele>139.0</ele><time>2026-03-29T07:13:11Z</time></trkpt><trkpt lat="45.87543729742817" lon="10.88260373333848"><ele>142.0</ele><time>2026-03-29T07:13:12Z</time></trkpt><trkpt lat="45.87561601204531" lon="10.882771614770597"><ele>142.0</ele><time>2026-03-29T07:13:13Z</time></trkpt><trkpt lat="45.87579768084663" lon="10.88294243374211"><ele>142.0</ele><time>2026-03-29T07:13:14Z</time></trkpt><trkpt lat="45.87598018353099" lon="10.883106946792083"><ele>142.0</ele><time>2026-03-29T07:13:15Z</time></trkpt><trkpt lat="45.87616713571252" lon="10.88328543533413"><ele>146.5</ele><time>2026-03-29T07:13:16Z</time></trkpt><trkpt lat="45.87636049088654" lon="10.883476698127245"><ele>151.0</ele><time>2026-03-29T07:13:17Z</time></trkpt><trkpt lat="45.87656266630168" lon="10.88366509895305"><ele>151.0</ele><time>2026-03-29T07:13:18Z</time></trkpt><trkpt lat="45.87672879027681" lon="10.883826089506828"><ele>151.0</ele><time>2026-03-29T07:13:19Z</time></trkpt><trkpt lat="45.876890613849866" lon="10.883978556871453"><ele>151.0</ele><time>2026-03-29T07:13:20Z</time></trkpt><trkpt lat="45.87705750019659" lon="10.884136253233383"><ele>154.33333333333334</ele><time>2026-03-29T07:13:21Z</time></trkpt><trkpt lat="45.87722414665266" lon="10.884287712198422"><ele>157.66666666666666</ele><time>2026-03-29T07:13:22Z</time></trkpt><trkpt lat="45.877388137566086" lon="10.884445611218158"><ele>161.0</ele><time>2026-03-29T07:13:23Z</time></trkpt><trkpt lat="45.8775506160905" lon="10.884597220683885"><ele>153.33333333333331</ele><time>2026-03-29T07:13:24Z</time></trkpt><trkpt lat="45.87771093270862" lon="10.884751505872392"><ele>145.66666666666666</ele><time>2026-03-29T07:13:25Z</time></trkpt><trkpt lat="45.8778553555057" lon="10.884880139638737"><ele>138.0</ele><time>2026-03-29T07:13:26Z</time></trkpt><trkpt lat="45.8779884316098" lon="10.885019451240968"><ele>147.33333333333334</ele><time>2026-03-29T07:13:27Z</time></trkpt><trkpt lat="45.87809879049862" lon="10.885148833995352"><ele>156.66666666666669</ele><time>2026-03-29T07:13:28Z</time></trkpt><trkpt lat="45.87820243975827" lon="10.885320919604323"><ele>166.0</ele><time>2026-03-29T07:13:29Z</time></trkpt><trkpt lat="45.87829525127198" lon="10.885505728187924"><ele>166.0</ele><time>2026-03-29T07:13:30Z</time></trkpt><trkpt lat="45.87836342553994" lon="10.88569442471733"><ele>166.0</ele><time>2026-03-29T07:13:30.999Z</time></trkpt><trkpt lat="45.87844223151493" lon="10.885893589077153"><ele>166.0</ele><time>2026-03-29T07:13:31.999Z</time></trkpt><trkpt lat="45.87853588323256" lon="10.88612888230683"><ele>167.25</ele><time>2026-03-29T07:13:32.999Z</time></trkpt><trkpt lat="45.878609556786884" lon="10.886302989055467"><ele>168.5</ele><time>2026-03-29T07:13:33.999Z</time></trkpt><trkpt lat="45.878681464976644" lon="10.886485370900278"><ele>169.75</ele><time>2026-03-29T07:13:34.999Z</time></trkpt><trkpt lat="45.87877788780117" lon="10.886609476777972"><ele>171.0</ele><time>2026-03-29T07:13:35.999Z</time></trkpt><trkpt lat="45.87890193947959" lon="10.886682326677594"><ele>171.0</ele><time>2026-03-29T07:13:36.999Z</time></trkpt><trkpt lat="45.879045124972066" lon="10.886713825285188"><ele>171.0</ele><time>2026-03-29T07:13:37.999Z</time></trkpt><trkpt lat="45.8791935713634" lon="10.886682552567125"><ele>171.0</ele><time>2026-03-29T07:13:38.999Z</time></trkpt><trkpt lat="45.879341461815535" lon="10.886594406987562"><ele>180.33333333333331</ele><time>2026-03-29T07:13:39.999Z</time></trkpt><trkpt lat="45.87945267220172" lon="10.88642448389716"><ele>189.66666666666666</ele><time>2026-03-29T07:13:40.999Z</time></trkpt><trkpt lat="45.87954398660216" lon="10.886215697456018"><ele>199.0</ele><time>2026-03-29T07:13:41.999Z</time></trkpt><trkpt lat="45.87963241022413" lon="10.885995360859697"><ele>192.33333333333331</ele><time>2026-03-29T07:13:42.999Z</time></trkpt><trkpt lat="45.87974032690933" lon="10.885774973281139"><ele>185.66666666666666</ele><time>2026-03-29T07:13:43.999Z</time></trkpt><trkpt lat="45.87984346258218" lon="10.88556100456276"><ele>179.0</ele><time>2026-03-29T07:13:44.999Z</time></trkpt><trkpt lat="45.879928676544615" lon="10.885387073536847"><ele>179.0</ele><time>2026-03-29T07:13:45.999Z</time></trkpt><trkpt lat="45.88001739036137" lon="10.885213080001412"><ele>179.0</ele><time>2026-03-29T07:13:46.999Z</time></trkpt><trkpt lat="45.88009369869952" lon="10.885066594094898"><ele>179.0</ele><time>2026-03-29T07:13:47.999Z</time></trkpt><trkpt lat="45.88015867060633" lon="10.884952836023837"><ele>179.0</ele><time>2026-03-29T07:13:48.999Z</time></trkpt><trkpt lat="45.88023407475648" lon="10.884863865664897"><ele>177.2</ele><time>2026-03-29T07:13:49.999Z</time></trkpt><trkpt lat="45.88032901993843" lon="10.884829686813207"><ele>175.39999999999998</ele><time>2026-03-29T07:13:50.999Z</time></trkpt><trkpt lat="45.880432231145186" lon="10.88484155134132"><ele>173.6</ele><time>2026-03-29T07:13:51.999Z</time></trkpt><trkpt lat="45.880517507622706" lon="10.88495571558693"><ele>171.8</ele><time>2026-03-29T07:13:52.999Z</time></trkpt><trkpt lat="45.88057833181787" lon="10.88507192956767"><ele>170.0</ele><time>2026-03-29T07:13:53.999Z</time></trkpt><trkpt lat="45.88058382180324" lon="10.885210239925078"><ele>176.75</ele><time>2026-03-29T07:13:54.999Z</time></trkpt><trkpt lat="45.88056895834068" lon="10.885356382762872"><ele>183.5</ele><time>2026-03-29T07:13:55.999Z</time></trkpt><trkpt lat="45.88049483188902" lon="10.885492577584307"><ele>190.25</ele><time>2026-03-29T07:13:56.999Z</time></trkpt><trkpt lat="45.880391508423266" lon="10.885651856483607"><ele>197.0</ele><time>2026-03-29T07:13:57.999Z</time></trkpt><trkpt lat="45.880278597509076" lon="10.885822285279989"><ele>197.66666666666669</ele><time>2026-03-29T07:13:58.999Z</time></trkpt><trkpt lat="45.88014975476839" lon="10.886014873646253"><ele>198.33333333333331</ele><time>2026-03-29T07:13:59.999Z</time></trkpt><trkpt lat="45.880021014437546" lon="10.886215196810337"><ele>199.0</ele><time>2026-03-29T07:14:00.999Z</time></trkpt><trkpt lat="45.87991186658404" lon="10.886449753459642"><ele>199.0</ele><time>2026-03-29T07:14:01.999Z</time></trkpt><trkpt lat="45.87981476067652" lon="10.886706744995593"><ele>199.0</ele><time>2026-03-29T07:14:02.999Z</time></trkpt><trkpt lat="45.87975025477006" lon="10.886980326022591"><ele>199.0</ele><time>2026-03-29T07:14:03.999Z</time></trkpt><trkpt lat="45.87970950516073" lon="10.887215036134458"><ele>203.5</ele><time>2026-03-29T07:14:04.999Z</time></trkpt><trkpt lat="45.87963352133381" lon="10.887410671442135"><ele>208.0</ele><time>2026-03-29T07:14:05.999Z</time></trkpt><trkpt lat="45.87954197667266" lon="10.88753449394992"><ele>212.5</ele><time>2026-03-29T07:14:06.999Z</time></trkpt><trkpt lat="45.87944514955786" lon="10.88754513396917"><ele>217.0</ele><time>2026-03-29T07:14:07.999Z</time></trkpt><trkpt lat="45.879362290071306" lon="10.887543103996974"><ele>213.0</ele><time>2026-03-29T07:14:08.999Z</time></trkpt><trkpt lat="45.87925642972339" lon="10.887529020446076"><ele>209.0</ele><time>2026-03-29T07:14:09.999Z</time></trkpt><trkpt lat="45.87913296158025" lon="10.88750615538588"><ele>205.0</ele><time>2026-03-29T07:14:10.999Z</time></trkpt><trkpt lat="45.8789930131843" lon="10.88748677845059"><ele>201.0</ele><time>2026-03-29T07:14:11.999Z</time></trkpt><trkpt lat="45.878841303780206" lon="10.887506822214853"><ele>206.33333333333331</ele><time>2026-03-29T07:14:12.999Z</time></trkpt><trkpt lat="45.87869932868359" lon="10.887593758951486"><ele>211.66666666666666</ele><time>2026-03-29T07:14:13.999Z</time></trkpt><trkpt lat="45.878562434207815" lon="10.887695051755108"><ele>217.0</ele><time>2026-03-29T07:14:14.999Z</time></trkpt><trkpt lat="45.87845637868015" lon="10.887866938378869"><ele>217.0</ele><time>2026-03-29T07:14:15.999Z</time></trkpt><trkpt lat="45.87840139222" lon="10.888043288042939"><ele>217.0</ele><time>2026-03-29T07:14:16.999Z</time></trkpt><trkpt lat="45.87838124313966" lon="10.888207190195779"><ele>217.0</ele><time>2026-03-29T07:14:17.999Z</time></trkpt><trkpt lat="45.87845037787337" lon="10.888387674263369"><ele>217.0</ele><time>2026-03-29T07:14:18.999Z</time></trkpt><trkpt lat="45.878422050461836" lon="10.888490758851043"><ele>216.8</ele><time>2026-03-29T07:14:19.999Z</time></trkpt><trkpt lat="45.87839672420992" lon="10.888641748423812"><ele>216.6</ele><time>2026-03-29T07:14:20.999Z</time></trkpt><trkpt lat="45.878396803664295" lon="10.888813927681296"><ele>216.40000000000003</ele><time>2026-03-29T07:14:21.999Z</time></trkpt><trkpt lat="45.8783997280408" lon="10.888969660124129"><ele>216.20000000000002</ele><time>2026-03-29T07:14:22.999Z</time></trkpt><trkpt lat="45.87839804565051" lon="10.889094301022302"><ele>216.0</ele><time>2026-03-29T07:14:23.999Z</time></trkpt><trkpt lat="45.8784027644301" lon="10.889195713788268"><ele>216.0</ele><time>2026-03-29T07:14:24.999Z</time></trkpt><trkpt lat="45.878404369104" lon="10.88928879195775"><ele>216.0</ele><time>2026-03-29T07:14:25.999Z</time></trkpt><trkpt lat="45.87841196163346" lon="10.889419884181788"><ele>216.0</ele><time>2026-03-29T07:14:27.999Z</time></trkpt><trkpt lat="45.87841039537416" lon="10.88951569731531"><ele>216.0</ele><time>2026-03-29T07:14:28.999Z</time></trkpt><trkpt lat="45.87840685967683" lon="10.889627045859536"><ele>216.0</ele><time>2026-03-29T07:14:29.999Z</time></trkpt><trkpt lat="45.878419753794574" lon="10.889744397633885"><ele>216.0</ele><time>2026-03-29T07:14:31Z</time></trkpt><trkpt lat="45.87843516517318" lon="10.889901327165619"><ele>222.0</ele><time>2026-03-29T07:14:33Z</time></trkpt><trkpt lat="45.878555772074826" lon="10.88991323559348"><ele>222.0</ele><time>2026-03-29T07:14:36Z</time></trkpt><trkpt lat="45.87858454376085" lon="10.88978221064693"><ele>222.0</ele><time>2026-03-29T07:14:38Z</time></trkpt><trkpt lat="45.87858454375819" lon="10.889681315838976"><ele>222.0</ele><time>2026-03-29T07:14:41Z</time></trkpt></trkseg><trkseg><trkpt lat="45.87861126547281" lon="10.889546241201417"><ele>222.0</ele><time>2026-03-29T07:25:21Z</time></trkpt><trkpt lat="45.87856115795218" lon="10.889475091541895"><ele>222.0</ele><time>2026-03-29T07:25:23Z</time></trkpt><trkpt lat="45.87850270116488" lon="10.889379549289595"><ele>222.0</ele><time>2026-03-29T07:25:26Z</time></trkpt><trkpt lat="45.87847104868379" lon="10.889289187773285"><ele>222.0</ele><time>2026-03-29T07:25:28Z</time></trkpt><trkpt lat="45.87848146559469" lon="10.889181363148445"><ele>222.0</ele><time>2026-03-29T07:25:30Z</time></trkpt><trkpt lat="45.87851912139219" lon="10.889075537787217"><ele>222.0</ele><time>2026-03-29T07:25:32Z</time></trkpt><trkpt lat="45.87856624034113" lon="10.889003951404334"><ele>221.33333333333334</ele><time>2026-03-29T07:25:33Z</time></trkpt><trkpt lat="45.87861645388577" lon="10.888939922461935"><ele>220.66666666666669</ele><time>2026-03-29T07:25:34Z</time></trkpt><trkpt lat="45.878666865690136" lon="10.888873380213647"><ele>220.0</ele><time>2026-03-29T07:25:35Z</time></trkpt><trkpt lat="45.87869825837791" lon="10.888773288160447"><ele>219.33333333333334</ele><time>2026-03-29T07:25:36Z</time></trkpt><trkpt lat="45.878709993617484" lon="10.888663093694438"><ele>218.66666666666669</ele><time>2026-03-29T07:25:37Z</time></trkpt><trkpt lat="45.87869423717473" lon="10.8885346362349"><ele>218.0</ele><time>2026-03-29T07:25:38Z</time></trkpt><trkpt lat="45.87867017713959" lon="10.888404810105088"><ele>217.8</ele><time>2026-03-29T07:25:39Z</time></trkpt><trkpt lat="45.87864268857603" lon="10.888272005915555"><ele>217.60000000000002</ele><time>2026-03-29T07:25:40Z</time></trkpt><trkpt lat="45.878606383374006" lon="10.888149216500947"><ele>217.39999999999998</ele><time>2026-03-29T07:25:41Z</time></trkpt><trkpt lat="45.87858132351631" lon="10.888041138755185"><ele>217.2</ele><time>2026-03-29T07:25:42Z</time></trkpt><trkpt lat="45.8786184579465" lon="10.887899688054109"><ele>217.0</ele><time>2026-03-29T07:25:44Z</time></trkpt><trkpt lat="45.87867608601769" lon="10.887806973828281"><ele>217.0</ele><time>2026-03-29T07:25:45Z</time></trkpt><trkpt lat="45.87875810189197" lon="10.887717228746823"><ele>217.0</ele><time>2026-03-29T07:25:46Z</time></trkpt><trkpt lat="45.8788520202022" lon="10.887650200072597"><ele>217.0</ele><time>2026-03-29T07:25:47Z</time></trkpt><trkpt lat="45.87896712224586" lon="10.88761998886064"><ele>217.0</ele><time>2026-03-29T07:25:48Z</time></trkpt><trkpt lat="45.879093663616864" lon="10.887653021706372"><ele>217.0</ele><time>2026-03-29T07:25:49Z</time></trkpt><trkpt lat="45.87923845027788" lon="10.887736814171214"><ele>217.0</ele><time>2026-03-29T07:25:50Z</time></trkpt><trkpt lat="45.87937964222961" lon="10.887817398919607"><ele>217.0</ele><time>2026-03-29T07:25:51Z</time></trkpt><trkpt lat="45.87950530968894" lon="10.887841941350587"><ele>217.0</ele><time>2026-03-29T07:25:52Z</time></trkpt><trkpt lat="45.87961627068187" lon="10.887817653559482"><ele>217.0</ele><time>2026-03-29T07:25:53Z</time></trkpt><trkpt lat="45.87971438509039" lon="10.887746282599096"><ele>217.0</ele><time>2026-03-29T07:25:54Z</time></trkpt><trkpt lat="45.87980145705978" lon="10.887646646118576"><ele>217.0</ele><time>2026-03-29T07:25:55Z</time></trkpt><trkpt lat="45.879861931982184" lon="10.887487788078026"><ele>217.0</ele><time>2026-03-29T07:25:56Z</time></trkpt><trkpt lat="45.87991313922144" lon="10.887314865990326"><ele>217.0</ele><time>2026-03-29T07:25:57Z</time></trkpt><trkpt lat="45.879953426932275" lon="10.887128596161366"><ele>217.0</ele><time>2026-03-29T07:25:58Z</time></trkpt><trkpt lat="45.8799935977378" lon="10.8869423757019"><ele>217.0</ele><time>2026-03-29T07:25:59Z</time></trkpt><trkpt lat="45.88005689410129" lon="10.886750621854615"><ele>217.0</ele><time>2026-03-29T07:26:00Z</time></trkpt><trkpt lat="45.88014447252445" lon="10.886566197794796"><ele>220.0</ele><time>2026-03-29T07:26:01Z</time></trkpt><trkpt lat="45.88025673689709" lon="10.886397603321983"><ele>223.0</ele><time>2026-03-29T07:26:02Z</time></trkpt><trkpt lat="45.880390839882786" lon="10.886262364396773"><ele>226.0</ele><time>2026-03-29T07:26:03Z</time></trkpt><trkpt lat="45.880555913366784" lon="10.886194808497457"><ele>226.0</ele><time>2026-03-29T07:26:04Z</time></trkpt><trkpt lat="45.88070913732288" lon="10.886121515335795"><ele>226.0</ele><time>2026-03-29T07:26:05Z</time></trkpt><trkpt lat="45.88087961692042" lon="10.886051628805385"><ele>226.0</ele><time>2026-03-29T07:26:06Z</time></trkpt><trkpt lat="45.88105651177001" lon="10.885975608549089"><ele>219.0</ele><time>2026-03-29T07:26:07Z</time></trkpt><trkpt lat="45.8812564835184" lon="10.885892757885376"><ele>212.0</ele><time>2026-03-29T07:26:08Z</time></trkpt><trkpt lat="45.881472264062715" lon="10.885785602752426"><ele>205.0</ele><time>2026-03-29T07:26:09Z</time></trkpt><trkpt lat="45.881683816141404" lon="10.885715684094857"><ele>205.33333333333331</ele><time>2026-03-29T07:26:10Z</time></trkpt><trkpt lat="45.88186887379997" lon="10.885638289548012"><ele>205.66666666666669</ele><time>2026-03-29T07:26:11Z</time></trkpt><trkpt lat="45.88204127130941" lon="10.885566189704907"><ele>206.0</ele><time>2026-03-29T07:26:11.999Z</time></trkpt><trkpt lat="45.88220367231672" lon="10.885513876143545"><ele>206.0</ele><time>2026-03-29T07:26:12.999Z</time></trkpt><trkpt lat="45.88235532163004" lon="10.885494475761908"><ele>206.0</ele><time>2026-03-29T07:26:13.999Z</time></trkpt><trkpt lat="45.882500332714265" lon="10.88549122948496"><ele>206.0</ele><time>2026-03-29T07:26:14.999Z</time></trkpt><trkpt lat="45.88265547211022" lon="10.885505068458821"><ele>202.0</ele><time>2026-03-29T07:26:15.999Z</time></trkpt><trkpt lat="45.88281019299355" lon="10.885540923857237"><ele>198.0</ele><time>2026-03-29T07:26:16.999Z</time></trkpt><trkpt lat="45.88296755435689" lon="10.885579367998053"><ele>194.0</ele><time>2026-03-29T07:26:17.999Z</time></trkpt><trkpt lat="45.88312996286112" lon="10.885600672747847"><ele>194.0</ele><time>2026-03-29T07:26:18.999Z</time></trkpt><trkpt lat="45.88328727506564" lon="10.885671835837492"><ele>194.0</ele><time>2026-03-29T07:26:19.999Z</time></trkpt><trkpt lat="45.88343445983027" lon="10.885774478323109"><ele>194.0</ele><time>2026-03-29T07:26:20.999Z</time></trkpt><trkpt lat="45.883575344125425" lon="10.885908411434768"><ele>200.0</ele><time>2026-03-29T07:26:21.999Z</time></trkpt><trkpt lat="45.88371862951677" lon="10.88603722586028"><ele>206.0</ele><time>2026-03-29T07:26:22.999Z</time></trkpt><trkpt lat="45.883869674625345" lon="10.886138870862057"><ele>212.0</ele><time>2026-03-29T07:26:23.999Z</time></trkpt><trkpt lat="45.88403795320891" lon="10.886202423047369"><ele>212.0</ele><time>2026-03-29T07:26:24.999Z</time></trkpt><trkpt lat="45.88421445522525" lon="10.886223796387046"><ele>212.0</ele><time>2026-03-29T07:26:25.999Z</time></trkpt><trkpt lat="45.884398080770154" lon="10.88624042504423"><ele>212.0</ele><time>2026-03-29T07:26:26.999Z</time></trkpt><trkpt lat="45.88457761684604" lon="10.886266668600518"><ele>208.33333333333334</ele><time>2026-03-29T07:26:27.999Z</time></trkpt><trkpt lat="45.88476011065874" lon="10.886294218060055"><ele>204.66666666666669</ele><time>2026-03-29T07:26:28.999Z</time></trkpt><trkpt lat="45.88494545661001" lon="10.88632225226413"><ele>201.0</ele><time>2026-03-29T07:26:29.999Z</time></trkpt><trkpt lat="45.88512965829448" lon="10.886349087813716"><ele>198.33333333333331</ele><time>2026-03-29T07:26:30.999Z</time></trkpt><trkpt lat="45.8853123812434" lon="10.886365586216977"><ele>195.66666666666666</ele><time>2026-03-29T07:26:31.999Z</time></trkpt><trkpt lat="45.88549576816123" lon="10.886385707190017"><ele>193.0</ele><time>2026-03-29T07:26:32.999Z</time></trkpt><trkpt lat="45.88568152928446" lon="10.88639390715963"><ele>193.0</ele><time>2026-03-29T07:26:33.999Z</time></trkpt><trkpt lat="45.88586880425111" lon="10.886429358731922"><ele>193.0</ele><time>2026-03-29T07:26:34.999Z</time></trkpt><trkpt lat="45.886057285778904" lon="10.886483658593937"><ele>193.0</ele><time>2026-03-29T07:26:35.999Z</time></trkpt><trkpt lat="45.8862461303548" lon="10.886565965635679"><ele>192.33333333333331</ele><time>2026-03-29T07:26:36.999Z</time></trkpt><trkpt lat="45.88643516040389" lon="10.886611293978618"><ele>191.66666666666666</ele><time>2026-03-29T07:26:37.999Z</time></trkpt><trkpt lat="45.88662071074001" lon="10.886631926395225"><ele>191.0</ele><time>2026-03-29T07:26:38.999Z</time></trkpt><trkpt lat="45.88679328980191" lon="10.886606312583"><ele>191.0</ele><time>2026-03-29T07:26:39.999Z</time></trkpt><trkpt lat="45.88694620521377" lon="10.886563418387393"><ele>191.0</ele><time>2026-03-29T07:26:40.999Z</time></trkpt><trkpt lat="45.887092769768905" lon="10.886522997061936"><ele>191.0</ele><time>2026-03-29T07:26:41.999Z</time></trkpt><trkpt lat="45.887240738956166" lon="10.886486508028531"><ele>191.0</ele><time>2026-03-29T07:26:42.999Z</time></trkpt><trkpt lat="45.887381835823895" lon="10.886453980080903"><ele>191.0</ele><time>2026-03-29T07:26:43.999Z</time></trkpt><trkpt lat="45.887511292619905" lon="10.886426627851584"><ele>191.0</ele><time>2026-03-29T07:26:44.999Z</time></trkpt><trkpt lat="45.887635938746946" lon="10.886417565905685"><ele>191.0</ele><time>2026-03-29T07:26:45.999Z</time></trkpt><trkpt lat="45.88775580168068" lon="10.88640912935431"><ele>187.75</ele><time>2026-03-29T07:26:46.999Z</time></trkpt><trkpt lat="45.88787764987981" lon="10.886424033416167"><ele>184.5</ele><time>2026-03-29T07:26:47.999Z</time></trkpt><trkpt lat="45.887989512817924" lon="10.886477143337373"><ele>181.25</ele><time>2026-03-29T07:26:48.999Z</time></trkpt><trkpt lat="45.888100333737356" lon="10.886529992545125"><ele>178.0</ele><time>2026-03-29T07:26:49.999Z</time></trkpt><trkpt lat="45.88820909839495" lon="10.886573531174081"><ele>178.0</ele><time>2026-03-29T07:26:50.999Z</time></trkpt><trkpt lat="45.88831601859276" lon="10.886617410270372"><ele>178.0</ele><time>2026-03-29T07:26:51.999Z</time></trkpt><trkpt lat="45.888414256324204" lon="10.88666368537094"><ele>178.0</ele><time>2026-03-29T07:26:52.999Z</time></trkpt><trkpt lat="45.888510269244364" lon="10.886704009189083"><ele>178.0</ele><time>2026-03-29T07:26:53.999Z</time></trkpt><trkpt lat="45.8886056454965" lon="10.886746094425408"><ele>178.0</ele><time>2026-03-29T07:26:54.999Z</time></trkpt><trkpt lat="45.88870131803063" lon="10.886791052428864"><ele>181.4</ele><time>2026-03-29T07:26:55.999Z</time></trkpt><trkpt lat="45.88879766137787" lon="10.88685191584021"><ele>184.8</ele><time>2026-03-29T07:26:56.999Z</time></trkpt><trkpt lat="45.88888933929522" lon="10.886906987818405"><ele>188.2</ele><time>2026-03-29T07:26:57.999Z</time></trkpt><trkpt lat="45.888976041085364" lon="10.886966807884184"><ele>191.6</ele><time>2026-03-29T07:26:58.999Z</time></trkpt><trkpt lat="45.88905741613044" lon="10.8870223408384"><ele>195.0</ele><time>2026-03-29T07:26:59.999Z</time></trkpt><trkpt lat="45.88914429939797" lon="10.887076179729686"><ele>195.0</ele><time>2026-03-29T07:27:00.999Z</time></trkpt><trkpt lat="45.88923066506288" lon="10.88713456294038"><ele>195.0</ele><time>2026-03-29T07:27:01.999Z</time></trkpt><trkpt lat="45.8893217500755" lon="10.887185778438182"><ele>195.0</ele><time>2026-03-29T07:27:02.999Z</time></trkpt><trkpt lat="45.889413544501366" lon="10.887243483188943"><ele>195.0</ele><time>2026-03-29T07:27:03.999Z</time></trkpt><trkpt lat="45.88950996343458" lon="10.887299975601083"><ele>195.0</ele><time>2026-03-29T07:27:04.999Z</time></trkpt><trkpt lat="45.88960550759159" lon="10.887358454107975"><ele>195.2</ele><time>2026-03-29T07:27:05.999Z</time></trkpt><trkpt lat="45.88969326187023" lon="10.887410725443118"><ele>195.4</ele><time>2026-03-29T07:27:07Z</time></trkpt><trkpt lat="45.88978075816024" lon="10.887467606374212"><ele>195.60000000000002</ele><time>2026-03-29T07:27:08Z</time></trkpt><trkpt lat="45.88986574497146" lon="10.887514962970226"><ele>195.8</ele><time>2026-03-29T07:27:09Z</time></trkpt><trkpt lat="45.88995113484682" lon="10.88757078934106"><ele>196.0</ele><time>2026-03-29T07:27:10Z</time></trkpt><trkpt lat="45.89003654870704" lon="10.887629334847002"><ele>189.8</ele><time>2026-03-29T07:27:11Z</time></trkpt><trkpt lat="45.89012007946286" lon="10.887690148108831"><ele>183.60000000000002</ele><time>2026-03-29T07:27:12Z</time></trkpt><trkpt lat="45.89020174397506" lon="10.887761786655032"><ele>177.4</ele><time>2026-03-29T07:27:13Z</time></trkpt><trkpt lat="45.89028423174565" lon="10.887838104015648"><ele>171.2</ele><time>2026-03-29T07:27:14Z</time></trkpt><trkpt lat="45.89037273314388" lon="10.887921234748617"><ele>165.0</ele><time>2026-03-29T07:27:15Z</time></trkpt><trkpt lat="45.890462323946075" lon="10.888016674950702"><ele>165.0</ele><time>2026-03-29T07:27:16Z</time></trkpt><trkpt lat="45.89054665552328" lon="10.888110265551044"><ele>165.0</ele><time>2026-03-29T07:27:17Z</time></trkpt><trkpt lat="45.89062954769268" lon="10.88820819035744"><ele>165.0</ele><time>2026-03-29T07:27:18Z</time></trkpt><trkpt lat="45.89071366708019" lon="10.88830668438929"><ele>165.0</ele><time>2026-03-29T07:27:19Z</time></trkpt><trkpt lat="45.8907836908034" lon="10.888417470519594"><ele>165.0</ele><time>2026-03-29T07:27:20Z</time></trkpt><trkpt lat="45.89085008593242" lon="10.888512389067376"><ele>168.4</ele><time>2026-03-29T07:27:21Z</time></trkpt><trkpt lat="45.89090999009226" lon="10.88861470100111"><ele>171.8</ele><time>2026-03-29T07:27:22Z</time></trkpt><trkpt lat="45.890972373455924" lon="10.888720429569139"><ele>175.2</ele><time>2026-03-29T07:27:23Z</time></trkpt><trkpt lat="45.89103268738524" lon="10.88882671500404"><ele>178.6</ele><time>2026-03-29T07:27:24Z</time></trkpt><trkpt lat="45.891088381288895" lon="10.888938820933854"><ele>182.0</ele><time>2026-03-29T07:27:25Z</time></trkpt><trkpt lat="45.89114232202776" lon="10.889045985970872"><ele>177.33333333333331</ele><time>2026-03-29T07:27:26Z</time></trkpt><trkpt lat="45.89119419881184" lon="10.88915754658026"><ele>172.66666666666666</ele><time>2026-03-29T07:27:27Z</time></trkpt><trkpt lat="45.891235865680144" lon="10.889260665505876"><ele>168.0</ele><time>2026-03-29T07:27:28Z</time></trkpt><trkpt lat="45.89127367892378" lon="10.88936280168359"><ele>163.33333333333334</ele><time>2026-03-29T07:27:29Z</time></trkpt><trkpt lat="45.891297348869" lon="10.88948305520946"><ele>158.66666666666669</ele><time>2026-03-29T07:27:30Z</time></trkpt><trkpt lat="45.89129753598906" lon="10.889587188433712"><ele>154.0</ele><time>2026-03-29T07:27:31Z</time></trkpt><trkpt lat="45.89129133155512" lon="10.889680931755873"><ele>154.0</ele><time>2026-03-29T07:27:32Z</time></trkpt><trkpt lat="45.89127633851577" lon="10.88977862630877"><ele>154.0</ele><time>2026-03-29T07:27:33Z</time></trkpt><trkpt lat="45.89122960652493" lon="10.88985658724061"><ele>154.0</ele><time>2026-03-29T07:27:34Z</time></trkpt><trkpt lat="45.89118829459898" lon="10.88994135258413"><ele>154.0</ele><time>2026-03-29T07:27:35Z</time></trkpt><trkpt lat="45.89114586813945" lon="10.890035859125247"><ele>154.0</ele><time>2026-03-29T07:27:36Z</time></trkpt><trkpt lat="45.8911022641108" lon="10.890132911775286"><ele>154.0</ele><time>2026-03-29T07:27:37Z</time></trkpt><trkpt lat="45.89105904622194" lon="10.890233326741127"><ele>154.33333333333334</ele><time>2026-03-29T07:27:38Z</time></trkpt><trkpt lat="45.891020355570234" lon="10.890333787566778"><ele>154.66666666666669</ele><time>2026-03-29T07:27:39Z</time></trkpt><trkpt lat="45.89102889795846" lon="10.89046688604898"><ele>155.0</ele><time>2026-03-29T07:27:40Z</time></trkpt><trkpt lat="45.89102312122442" lon="10.890577434568373"><ele>155.33333333333334</ele><time>2026-03-29T07:27:41Z</time></trkpt><trkpt lat="45.89103686384668" lon="10.890697073813419"><ele>155.66666666666666</ele><time>2026-03-29T07:27:42Z</time></trkpt><trkpt lat="45.891064542954894" lon="10.890821942382706"><ele>156.0</ele><time>2026-03-29T07:27:43Z</time></trkpt><trkpt lat="45.891118550320854" lon="10.890946402632633"><ele>158.0</ele><time>2026-03-29T07:27:44Z</time></trkpt><trkpt lat="45.89118257955082" lon="10.891075321198135"><ele>160.0</ele><time>2026-03-29T07:27:45Z</time></trkpt><trkpt lat="45.89125703376912" lon="10.891226092899725"><ele>162.0</ele><time>2026-03-29T07:27:46Z</time></trkpt><trkpt lat="45.89133887027882" lon="10.891384734898432"><ele>164.0</ele><time>2026-03-29T07:27:47Z</time></trkpt><trkpt lat="45.891429345688394" lon="10.89153283271127"><ele>164.0</ele><time>2026-03-29T07:27:48Z</time></trkpt><trkpt lat="45.891530993297785" lon="10.891676367944852"><ele>164.0</ele><time>2026-03-29T07:27:49Z</time></trkpt><trkpt lat="45.891629094895286" lon="10.891828712658388"><ele>164.0</ele><time>2026-03-29T07:27:50Z</time></trkpt><trkpt lat="45.89171782071686" lon="10.891965440283407"><ele>164.0</ele><time>2026-03-29T07:27:51Z</time></trkpt><trkpt lat="45.89180226186072" lon="10.892094080822483"><ele>163.75</ele><time>2026-03-29T07:27:52Z</time></trkpt><trkpt lat="45.891889540933235" lon="10.892234614178859"><ele>163.5</ele><time>2026-03-29T07:27:53Z</time></trkpt><trkpt lat="45.891967015335105" lon="10.892383980398751"><ele>163.25</ele><time>2026-03-29T07:27:54Z</time></trkpt><trkpt lat="45.89204264662155" lon="10.892543487350256"><ele>163.0</ele><time>2026-03-29T07:27:55Z</time></trkpt><trkpt lat="45.89211536889515" lon="10.892696524178662"><ele>163.0</ele><time>2026-03-29T07:27:56Z</time></trkpt><trkpt lat="45.89219096792254" lon="10.89284639416821"><ele>163.0</ele><time>2026-03-29T07:27:57Z</time></trkpt><trkpt lat="45.89226357554255" lon="10.893013434177192"><ele>163.0</ele><time>2026-03-29T07:27:58Z</time></trkpt><trkpt lat="45.8923276018314" lon="10.89319679237262"><ele>163.0</ele><time>2026-03-29T07:27:59Z</time></trkpt><trkpt lat="45.892394934506754" lon="10.893350474447912"><ele>165.83333333333334</ele><time>2026-03-29T07:28:00Z</time></trkpt><trkpt lat="45.89244385380349" lon="10.893452454693046"><ele>168.66666666666669</ele><time>2026-03-29T07:28:01Z</time></trkpt><trkpt lat="45.89247971923803" lon="10.893535307440976"><ele>171.5</ele><time>2026-03-29T07:28:02Z</time></trkpt><trkpt lat="45.892521868715065" lon="10.89362566901392"><ele>174.33333333333334</ele><time>2026-03-29T07:28:03Z</time></trkpt><trkpt lat="45.89257211834799" lon="10.893733737356182"><ele>177.16666666666666</ele><time>2026-03-29T07:28:04Z</time></trkpt><trkpt lat="45.892618693196155" lon="10.893844436765123"><ele>180.0</ele><time>2026-03-29T07:28:05Z</time></trkpt><trkpt lat="45.89266103270821" lon="10.893948104342087"><ele>179.0</ele><time>2026-03-29T07:28:06Z</time></trkpt><trkpt lat="45.89271043632322" lon="10.894050344771872"><ele>178.0</ele><time>2026-03-29T07:28:07Z</time></trkpt><trkpt lat="45.892752975134655" lon="10.894153339759749"><ele>177.0</ele><time>2026-03-29T07:28:08Z</time></trkpt><trkpt lat="45.8928064163357" lon="10.89424797567867"><ele>176.0</ele><time>2026-03-29T07:28:09Z</time></trkpt><trkpt lat="45.89287450030868" lon="10.894333115115113"><ele>175.0</ele><time>2026-03-29T07:28:10Z</time></trkpt><trkpt lat="45.89294779238391" lon="10.894412451328925"><ele>174.0</ele><time>2026-03-29T07:28:11Z</time></trkpt><trkpt lat="45.89302383871347" lon="10.894475057834885"><ele>174.0</ele><time>2026-03-29T07:28:12Z</time></trkpt><trkpt lat="45.893116020515116" lon="10.89452655951439"><ele>174.0</ele><time>2026-03-29T07:28:13Z</time></trkpt><trkpt lat="45.893223721672165" lon="10.894582785312213"><ele>174.0</ele><time>2026-03-29T07:28:14Z</time></trkpt><trkpt lat="45.893336330664134" lon="10.894661487586216"><ele>174.0</ele><time>2026-03-29T07:28:15Z</time></trkpt><trkpt lat="45.8935043298464" lon="10.894755698471563"><ele>168.33333333333334</ele><time>2026-03-29T07:28:16Z</time></trkpt><trkpt lat="45.893709744246685" lon="10.894832720065224"><ele>162.66666666666669</ele><time>2026-03-29T07:28:17Z</time></trkpt><trkpt lat="45.89387088833846" lon="10.894900624169342"><ele>157.0</ele><time>2026-03-29T07:28:18Z</time></trkpt><trkpt lat="45.89401276912374" lon="10.894958168292694"><ele>157.0</ele><time>2026-03-29T07:28:19Z</time></trkpt><trkpt lat="45.8941347087946" lon="10.895005075337874"><ele>157.0</ele><time>2026-03-29T07:28:19.999Z</time></trkpt><trkpt lat="45.8942428472043" lon="10.895049010992654"><ele>157.0</ele><time>2026-03-29T07:28:20.999Z</time></trkpt><trkpt lat="45.89435500298046" lon="10.895090956401125"><ele>157.0</ele><time>2026-03-29T07:28:21.999Z</time></trkpt><trkpt lat="45.8944731740826" lon="10.895141125599618"><ele>159.6</ele><time>2026-03-29T07:28:22.999Z</time></trkpt><trkpt lat="45.89457637403279" lon="10.895183138542857"><ele>162.2</ele><time>2026-03-29T07:28:23.999Z</time></trkpt><trkpt lat="45.89467205673817" lon="10.895222628912421"><ele>164.8</ele><time>2026-03-29T07:28:24.999Z</time></trkpt><trkpt lat="45.894773485987066" lon="10.895266383541447"><ele>167.4</ele><time>2026-03-29T07:28:25.999Z</time></trkpt><trkpt lat="45.894882252521406" lon="10.895323214682811"><ele>170.0</ele><time>2026-03-29T07:28:26.999Z</time></trkpt><trkpt lat="45.89499651559328" lon="10.895388775303795"><ele>164.5</ele><time>2026-03-29T07:28:27.999Z</time></trkpt><trkpt lat="45.89510368805094" lon="10.89547402434708"><ele>159.0</ele><time>2026-03-29T07:28:28.999Z</time></trkpt><trkpt lat="45.89520131027518" lon="10.895539506621558"><ele>153.5</ele><time>2026-03-29T07:28:29.999Z</time></trkpt><trkpt lat="45.89530053876718" lon="10.895603336815835"><ele>148.0</ele><time>2026-03-29T07:28:30.999Z</time></trkpt><trkpt lat="45.89540604471278" lon="10.895675522680094"><ele>148.0</ele><time>2026-03-29T07:28:31.999Z</time></trkpt><trkpt lat="45.8955112026549" lon="10.895741785711333"><ele>148.0</ele><time>2026-03-29T07:28:32.999Z</time></trkpt><trkpt lat="45.895622473970676" lon="10.895794149298098"><ele>148.0</ele><time>2026-03-29T07:28:33.999Z</time></trkpt><trkpt lat="45.89574176589581" lon="10.895850373157275"><ele>148.0</ele><time>2026-03-29T07:28:34.999Z</time></trkpt><trkpt lat="45.895863508594246" lon="10.895902169249135"><ele>150.20000000000002</ele><time>2026-03-29T07:28:35.999Z</time></trkpt><trkpt lat="45.89598046914593" lon="10.895950540902417"><ele>152.4</ele><time>2026-03-29T07:28:36.999Z</time></trkpt><trkpt lat="45.8960838364908" lon="10.895995368091327"><ele>154.60000000000002</ele><time>2026-03-29T07:28:37.999Z</time></trkpt><trkpt lat="45.89617367885398" lon="10.896040602528398"><ele>156.8</ele><time>2026-03-29T07:28:38.999Z</time></trkpt><trkpt lat="45.89624983337461" lon="10.89607895011645"><ele>159.0</ele><time>2026-03-29T07:28:39.999Z</time></trkpt><trkpt lat="45.89632407521881" lon="10.896112829022174"><ele>159.0</ele><time>2026-03-29T07:28:40.999Z</time></trkpt><trkpt lat="45.89639710561412" lon="10.89614745419757"><ele>159.0</ele><time>2026-03-29T07:28:41.999Z</time></trkpt><trkpt lat="45.89648578431677" lon="10.896202204636081"><ele>159.0</ele><time>2026-03-29T07:28:42.999Z</time></trkpt><trkpt lat="45.89657683033024" lon="10.896258845819009"><ele>159.0</ele><time>2026-03-29T07:28:43.999Z</time></trkpt><trkpt lat="45.89667443677859" lon="10.896332649133893"><ele>159.0</ele><time>2026-03-29T07:28:44.999Z</time></trkpt><trkpt lat="45.896764880452906" lon="10.896428344372147"><ele>160.4</ele><time>2026-03-29T07:28:45.999Z</time></trkpt><trkpt lat="45.89686043547988" lon="10.8965214432681"><ele>161.8</ele><time>2026-03-29T07:28:46.999Z</time></trkpt><trkpt lat="45.89695940671195" lon="10.896611701825591"><ele>163.20000000000002</ele><time>2026-03-29T07:28:47.999Z</time></trkpt><trkpt lat="45.8970545914446" lon="10.896686604366012"><ele>164.60000000000002</ele><time>2026-03-29T07:28:48.999Z</time></trkpt><trkpt lat="45.897143223121404" lon="10.896747972065745"><ele>166.0</ele><time>2026-03-29T07:28:49.999Z</time></trkpt><trkpt lat="45.89724035963684" lon="10.896812522019156"><ele>166.0</ele><time>2026-03-29T07:28:50.999Z</time></trkpt><trkpt lat="45.897341647443746" lon="10.89686048951116"><ele>166.0</ele><time>2026-03-29T07:28:51.999Z</time></trkpt><trkpt lat="45.89743729661155" lon="10.896901120735704"><ele>166.0</ele><time>2026-03-29T07:28:52.999Z</time></trkpt><trkpt lat="45.89753338380479" lon="10.896931788250596"><ele>166.0</ele><time>2026-03-29T07:28:53.999Z</time></trkpt><trkpt lat="45.89763218687413" lon="10.8969641068759"><ele>166.0</ele><time>2026-03-29T07:28:54.999Z</time></trkpt><trkpt lat="45.897727729992" lon="10.897000143196207"><ele>161.4</ele><time>2026-03-29T07:28:55.999Z</time></trkpt><trkpt lat="45.89782167533114" lon="10.897041442993482"><ele>156.8</ele><time>2026-03-29T07:28:56.999Z</time></trkpt><trkpt lat="45.89790221793134" lon="10.897080294249383"><ele>152.20000000000002</ele><time>2026-03-29T07:28:57.999Z</time></trkpt><trkpt lat="45.89798494643426" lon="10.897126455432739"><ele>147.60000000000002</ele><time>2026-03-29T07:28:58.999Z</time></trkpt><trkpt lat="45.89806461698346" lon="10.897202014878143"><ele>143.0</ele><time>2026-03-29T07:28:59.999Z</time></trkpt><trkpt lat="45.89815013454932" lon="10.897275142579245"><ele>143.0</ele><time>2026-03-29T07:29:00.999Z</time></trkpt><trkpt lat="45.89823912046721" lon="10.897356962355557"><ele>143.0</ele><time>2026-03-29T07:29:01.999Z</time></trkpt><trkpt lat="45.898326561200925" lon="10.897431114283714"><ele>143.0</ele><time>2026-03-29T07:29:02.999Z</time></trkpt><trkpt lat="45.898419687880455" lon="10.89750512928039"><ele>143.0</ele><time>2026-03-29T07:29:03.999Z</time></trkpt><trkpt lat="45.898508983481626" lon="10.897583451713999"><ele>143.0</ele><time>2026-03-29T07:29:04.999Z</time></trkpt><trkpt lat="45.898595868382145" lon="10.89766209405934"><ele>142.6</ele><time>2026-03-29T07:29:05.999Z</time></trkpt><trkpt lat="45.89868507386413" lon="10.897745447128964"><ele>142.20000000000002</ele><time>2026-03-29T07:29:06.999Z</time></trkpt><trkpt lat="45.89877022464479" lon="10.89782482801009"><ele>141.8</ele><time>2026-03-29T07:29:07.999Z</time></trkpt><trkpt lat="45.89885541355502" lon="10.89790914372825"><ele>141.4</ele><time>2026-03-29T07:29:08.999Z</time></trkpt><trkpt lat="45.898939058798845" lon="10.898001316938114"><ele>141.0</ele><time>2026-03-29T07:29:09.999Z</time></trkpt><trkpt lat="45.899025619725506" lon="10.898099481034599"><ele>141.0</ele><time>2026-03-29T07:29:10.999Z</time></trkpt><trkpt lat="45.899111742678095" lon="10.89820349563856"><ele>141.0</ele><time>2026-03-29T07:29:11.999Z</time></trkpt><trkpt lat="45.89920279222429" lon="10.898308358238415"><ele>141.0</ele><time>2026-03-29T07:29:13Z</time></trkpt><trkpt lat="45.89929509606396" lon="10.898412999035898"><ele>141.0</ele><time>2026-03-29T07:29:14Z</time></trkpt><trkpt lat="45.899386610651106" lon="10.898519068016514"><ele>142.8</ele><time>2026-03-29T07:29:15Z</time></trkpt><trkpt lat="45.89948083951127" lon="10.89862123933945"><ele>144.6</ele><time>2026-03-29T07:29:16Z</time></trkpt><trkpt lat="45.899576557460335" lon="10.898719395331156"><ele>146.4</ele><time>2026-03-29T07:29:17Z</time></trkpt><trkpt lat="45.899665116177815" lon="10.898798896266774"><ele>148.2</ele><time>2026-03-29T07:29:18Z</time></trkpt><trkpt lat="45.899762978090045" lon="10.898864029259551"><ele>150.0</ele><time>2026-03-29T07:29:19Z</time></trkpt><trkpt lat="45.89986717695976" lon="10.898908905273728"><ele>150.0</ele><time>2026-03-29T07:29:20Z</time></trkpt><trkpt lat="45.89998048874791" lon="10.898939053668014"><ele>150.0</ele><time>2026-03-29T07:29:21Z</time></trkpt><trkpt lat="45.90008562961218" lon="10.898970727526212"><ele>150.0</ele><time>2026-03-29T07:29:22Z</time></trkpt><trkpt lat="45.90019092558856" lon="10.899002845361466"><ele>150.0</ele><time>2026-03-29T07:29:23Z</time></trkpt><trkpt lat="45.900295310003244" lon="10.899035319549087"><ele>150.0</ele><time>2026-03-29T07:29:24Z</time></trkpt><trkpt lat="45.90040397950617" lon="10.89906870974324"><ele>146.2</ele><time>2026-03-29T07:29:25Z</time></trkpt><trkpt lat="45.900504830858544" lon="10.899103984231257"><ele>142.4</ele><time>2026-03-29T07:29:26Z</time></trkpt><trkpt lat="45.90060111789371" lon="10.899134399532674"><ele>138.6</ele><time>2026-03-29T07:29:27Z</time></trkpt><trkpt lat="45.90069669570062" lon="10.89916357091497"><ele>134.8</ele><time>2026-03-29T07:29:28Z</time></trkpt><trkpt lat="45.900795711429154" lon="10.899200511264514"><ele>131.0</ele><time>2026-03-29T07:29:29Z</time></trkpt><trkpt lat="45.90088208072752" lon="10.899226454629535"><ele>133.4</ele><time>2026-03-29T07:29:30Z</time></trkpt><trkpt lat="45.90096540327133" lon="10.899256424273037"><ele>135.8</ele><time>2026-03-29T07:29:31Z</time></trkpt><trkpt lat="45.901048969222344" lon="10.899293481065447"><ele>138.20000000000002</ele><time>2026-03-29T07:29:32Z</time></trkpt><trkpt lat="45.9011330696966" lon="10.899337140522718"><ele>140.6</ele><time>2026-03-29T07:29:33Z</time></trkpt><trkpt lat="45.90121449682352" lon="10.899398933422624"><ele>143.0</ele><time>2026-03-29T07:29:34Z</time></trkpt><trkpt lat="45.901293712562584" lon="10.89947486935927"><ele>143.0</ele><time>2026-03-29T07:29:35Z</time></trkpt><trkpt lat="45.901380530519056" lon="10.899548774119225"><ele>143.0</ele><time>2026-03-29T07:29:36Z</time></trkpt><trkpt lat="45.90147188987571" lon="10.899627303585213"><ele>143.0</ele><time>2026-03-29T07:29:37Z</time></trkpt><trkpt lat="45.90156671476908" lon="10.899702486506197"><ele>143.0</ele><time>2026-03-29T07:29:38Z</time></trkpt><trkpt lat="45.901665328626514" lon="10.899779207816627"><ele>143.0</ele><time>2026-03-29T07:29:39Z</time></trkpt><trkpt lat="45.901768647496525" lon="10.899850681446882"><ele>139.5</ele><time>2026-03-29T07:29:40Z</time></trkpt><trkpt lat="45.90187727029298" lon="10.899913999952803"><ele>136.0</ele><time>2026-03-29T07:29:41Z</time></trkpt><trkpt lat="45.90199377772415" lon="10.899947103427401"><ele>132.5</ele><time>2026-03-29T07:29:42Z</time></trkpt><trkpt lat="45.90211311761755" lon="10.899980060604586"><ele>129.0</ele><time>2026-03-29T07:29:43Z</time></trkpt><trkpt lat="45.90222602346726" lon="10.9000045008965"><ele>129.0</ele><time>2026-03-29T07:29:44Z</time></trkpt><trkpt lat="45.90233344927881" lon="10.90003251160324"><ele>129.0</ele><time>2026-03-29T07:29:45Z</time></trkpt><trkpt lat="45.902441482347854" lon="10.90006310281615"><ele>129.0</ele><time>2026-03-29T07:29:46Z</time></trkpt><trkpt lat="45.902552653663044" lon="10.900097901278889"><ele>129.0</ele><time>2026-03-29T07:29:47Z</time></trkpt><trkpt lat="45.90266680016015" lon="10.900127155105801"><ele>129.0</ele><time>2026-03-29T07:29:48Z</time></trkpt><trkpt lat="45.90277540848558" lon="10.900157422209356"><ele>132.8</ele><time>2026-03-29T07:29:49Z</time></trkpt><trkpt lat="45.90287304368101" lon="10.900183551795454"><ele>136.60000000000002</ele><time>2026-03-29T07:29:50Z</time></trkpt><trkpt lat="45.90296552510505" lon="10.900213022076366"><ele>140.4</ele><time>2026-03-29T07:29:51Z</time></trkpt><trkpt lat="45.90305405409008" lon="10.900230898325908"><ele>144.20000000000002</ele><time>2026-03-29T07:29:52Z</time></trkpt><trkpt lat="45.90314147200325" lon="10.90026541426377"><ele>148.0</ele><time>2026-03-29T07:29:53Z</time></trkpt><trkpt lat="45.90323726203115" lon="10.900316424942902"><ele>148.0</ele><time>2026-03-29T07:29:54Z</time></trkpt><trkpt lat="45.903324340993635" lon="10.900355395267388"><ele>148.0</ele><time>2026-03-29T07:29:55Z</time></trkpt><trkpt lat="45.90342418818681" lon="10.90040893635111"><ele>148.0</ele><time>2026-03-29T07:29:56Z</time></trkpt><trkpt lat="45.9035155914679" lon="10.900466506874674"><ele>148.0</ele><time>2026-03-29T07:29:57Z</time></trkpt><trkpt lat="45.903605873021675" lon="10.900522399220508"><ele>148.0</ele><time>2026-03-29T07:29:58Z</time></trkpt><trkpt lat="45.903688270463654" lon="10.900566251773817"><ele>143.83333333333334</ele><time>2026-03-29T07:29:59Z</time></trkpt><trkpt lat="45.90376997961238" lon="10.900605934556555"><ele>139.66666666666669</ele><time>2026-03-29T07:30:00Z</time></trkpt><trkpt lat="45.90385394804464" lon="10.900652035324429"><ele>135.5</ele><time>2026-03-29T07:30:01Z</time></trkpt><trkpt lat="45.903931871955386" lon="10.900694222248374"><ele>131.33333333333334</ele><time>2026-03-29T07:30:02Z</time></trkpt><trkpt lat="45.90401153148036" lon="10.900746235853475"><ele>127.16666666666667</ele><time>2026-03-29T07:30:03Z</time></trkpt><trkpt lat="45.90408105442116" lon="10.900823772436508"><ele>123.0</ele><time>2026-03-29T07:30:04Z</time></trkpt><trkpt lat="45.90415293397734" lon="10.900901263981483"><ele>124.4</ele><time>2026-03-29T07:30:05Z</time></trkpt><trkpt lat="45.90423418781309" lon="10.90098697328852"><ele>125.80000000000001</ele><time>2026-03-29T07:30:06Z</time></trkpt><trkpt lat="45.904319854768524" lon="10.901072968242635"><ele>127.2</ele><time>2026-03-29T07:30:07Z</time></trkpt><trkpt lat="45.90441387862721" lon="10.90116437657195"><ele>128.6</ele><time>2026-03-29T07:30:08Z</time></trkpt><trkpt lat="45.904512988215686" lon="10.90127351324928"><ele>130.0</ele><time>2026-03-29T07:30:09Z</time></trkpt><trkpt lat="45.904608504206" lon="10.90136933294273"><ele>130.0</ele><time>2026-03-29T07:30:10Z</time></trkpt><trkpt lat="45.90470463883965" lon="10.90146017976712"><ele>130.0</ele><time>2026-03-29T07:30:11Z</time></trkpt><trkpt lat="45.90478900546465" lon="10.901531715466172"><ele>130.0</ele><time>2026-03-29T07:30:12Z</time></trkpt><trkpt lat="45.904883198574254" lon="10.901597094035358"><ele>130.0</ele><time>2026-03-29T07:30:13Z</time></trkpt><trkpt lat="45.90498167131515" lon="10.90164156082439"><ele>130.0</ele><time>2026-03-29T07:30:14Z</time></trkpt><trkpt lat="45.90508528769722" lon="10.901678485387333"><ele>132.8</ele><time>2026-03-29T07:30:15Z</time></trkpt><trkpt lat="45.905181155832665" lon="10.901722222433621"><ele>135.6</ele><time>2026-03-29T07:30:16Z</time></trkpt><trkpt lat="45.90528123744362" lon="10.901771420935585"><ele>138.4</ele><time>2026-03-29T07:30:17Z</time></trkpt><trkpt lat="45.90537356201811" lon="10.9018152798603"><ele>141.2</ele><time>2026-03-29T07:30:18Z</time></trkpt><trkpt lat="45.90546582638381" lon="10.901862420362674"><ele>144.0</ele><time>2026-03-29T07:30:19Z</time></trkpt><trkpt lat="45.90556218188653" lon="10.901909516907843"><ele>144.0</ele><time>2026-03-29T07:30:20Z</time></trkpt><trkpt lat="45.90565926036279" lon="10.901960815680868"><ele>144.0</ele><time>2026-03-29T07:30:21Z</time></trkpt><trkpt lat="45.90575609578939" lon="10.902020916654047"><ele>144.0</ele><time>2026-03-29T07:30:22Z</time></trkpt><trkpt lat="45.90586616954938" lon="10.902084734034398"><ele>144.0</ele><time>2026-03-29T07:30:23Z</time></trkpt><trkpt lat="45.905973191492265" lon="10.9021503714182"><ele>144.0</ele><time>2026-03-29T07:30:24Z</time></trkpt><trkpt lat="45.90608945214821" lon="10.902213898238097"><ele>139.2</ele><time>2026-03-29T07:30:25Z</time></trkpt><trkpt lat="45.90620594082256" lon="10.902284002164183"><ele>134.4</ele><time>2026-03-29T07:30:25.999Z</time></trkpt><trkpt lat="45.9063189195302" lon="10.902344377154972"><ele>129.6</ele><time>2026-03-29T07:30:26.999Z</time></trkpt><trkpt lat="45.90641672517746" lon="10.902398417486095"><ele>124.8</ele><time>2026-03-29T07:30:27.999Z</time></trkpt><trkpt lat="45.906506677206956" lon="10.902436980537784"><ele>120.0</ele><time>2026-03-29T07:30:28.999Z</time></trkpt><trkpt lat="45.90658807209792" lon="10.902456551837172"><ele>120.0</ele><time>2026-03-29T07:30:29.999Z</time></trkpt><trkpt lat="45.90667264670945" lon="10.902481542651294"><ele>120.0</ele><time>2026-03-29T07:30:30.999Z</time></trkpt><trkpt lat="45.90675744336346" lon="10.902489079841713"><ele>120.0</ele><time>2026-03-29T07:30:31.999Z</time></trkpt><trkpt lat="45.906844041842845" lon="10.902492197029085"><ele>120.0</ele><time>2026-03-29T07:30:32.999Z</time></trkpt><trkpt lat="45.9069425350182" lon="10.9024941942297"><ele>120.0</ele><time>2026-03-29T07:30:33.999Z</time></trkpt><trkpt lat="45.90704080811391" lon="10.902492334444828"><ele>119.4</ele><time>2026-03-29T07:30:34.999Z</time></trkpt><trkpt lat="45.90713928483826" lon="10.902478656308443"><ele>118.8</ele><time>2026-03-29T07:30:35.999Z</time></trkpt><trkpt lat="45.90724023443392" lon="10.902451132227233"><ele>118.19999999999999</ele><time>2026-03-29T07:30:36.999Z</time></trkpt><trkpt lat="45.90734293067116" lon="10.902423800516619"><ele>117.6</ele><time>2026-03-29T07:30:37.999Z</time></trkpt><trkpt lat="45.907443949045664" lon="10.902384118945387"><ele>117.0</ele><time>2026-03-29T07:30:38.999Z</time></trkpt><trkpt lat="45.90758042903421" lon="10.902336614718143"><ele>117.0</ele><time>2026-03-29T07:30:39.999Z</time></trkpt><trkpt lat="45.907737912274875" lon="10.902254106076034"><ele>117.0</ele><time>2026-03-29T07:30:40.999Z</time></trkpt><trkpt lat="45.90788691472129" lon="10.902166109426329"><ele>117.0</ele><time>2026-03-29T07:30:41.999Z</time></trkpt><trkpt lat="45.90801937200258" lon="10.902089354245225"><ele>117.0</ele><time>2026-03-29T07:30:42.999Z</time></trkpt><trkpt lat="45.90816670317091" lon="10.902029835495178"><ele>117.0</ele><time>2026-03-29T07:30:43.999Z</time></trkpt><trkpt lat="45.90831184301359" lon="10.901955356498977"><ele>117.0</ele><time>2026-03-29T07:30:44.999Z</time></trkpt><trkpt lat="45.90844238567108" lon="10.901888398027458"><ele>117.0</ele><time>2026-03-29T07:30:45.999Z</time></trkpt><trkpt lat="45.90855623538009" lon="10.901828460158692"><ele>117.19999999999999</ele><time>2026-03-29T07:30:46.999Z</time></trkpt><trkpt lat="45.90864586036466" lon="10.901750912948005"><ele>117.39999999999999</ele><time>2026-03-29T07:30:47.999Z</time></trkpt><trkpt lat="45.90873434539638" lon="10.90170802025866"><ele>117.60000000000001</ele><time>2026-03-29T07:30:48.999Z</time></trkpt><trkpt lat="45.90881985489351" lon="10.901662127651033"><ele>117.80000000000001</ele><time>2026-03-29T07:30:49.999Z</time></trkpt><trkpt lat="45.908909935003464" lon="10.90163975812723"><ele>118.0</ele><time>2026-03-29T07:30:50.999Z</time></trkpt><trkpt lat="45.908996138368046" lon="10.901594321424824"><ele>117.4</ele><time>2026-03-29T07:30:51.999Z</time></trkpt><trkpt lat="45.90908249690539" lon="10.901540436802906"><ele>116.80000000000001</ele><time>2026-03-29T07:30:52.999Z</time></trkpt><trkpt lat="45.90916875659342" lon="10.901494963262321"><ele>116.2</ele><time>2026-03-29T07:30:53.999Z</time></trkpt><trkpt lat="45.90925273330217" lon="10.901449546065844"><ele>115.6</ele><time>2026-03-29T07:30:54.999Z</time></trkpt><trkpt lat="45.90934735610041" lon="10.901401002027193"><ele>115.0</ele><time>2026-03-29T07:30:55.999Z</time></trkpt><trkpt lat="45.90943624147511" lon="10.901352059487337"><ele>114.8</ele><time>2026-03-29T07:30:56.999Z</time></trkpt><trkpt lat="45.90951796655151" lon="10.901309248070977"><ele>114.6</ele><time>2026-03-29T07:30:57.999Z</time></trkpt><trkpt lat="45.90960745013931" lon="10.901268798710266"><ele>114.4</ele><time>2026-03-29T07:30:58.999Z</time></trkpt><trkpt lat="45.90969538625185" lon="10.901223176656224"><ele>114.2</ele><time>2026-03-29T07:30:59.999Z</time></trkpt><trkpt lat="45.909790519645114" lon="10.901184484013045"><ele>114.0</ele><time>2026-03-29T07:31:00.999Z</time></trkpt><trkpt lat="45.90988874053809" lon="10.901136564186425"><ele>114.0</ele><time>2026-03-29T07:31:01.999Z</time></trkpt><trkpt lat="45.90999063650563" lon="10.901081792575528"><ele>114.0</ele><time>2026-03-29T07:31:02.999Z</time></trkpt><trkpt lat="45.91009892660692" lon="10.901023157300939"><ele>114.0</ele><time>2026-03-29T07:31:03.999Z</time></trkpt><trkpt lat="45.910194603184486" lon="10.900970087268878"><ele>114.0</ele><time>2026-03-29T07:31:04.999Z</time></trkpt><trkpt lat="45.91028322212492" lon="10.900919379163545"><ele>114.0</ele><time>2026-03-29T07:31:05.999Z</time></trkpt><trkpt lat="45.910383198049864" lon="10.900864303630806"><ele>113.80000000000001</ele><time>2026-03-29T07:31:06.999Z</time></trkpt><trkpt lat="45.910469231754284" lon="10.900822305417417"><ele>113.60000000000001</ele><time>2026-03-29T07:31:07.999Z</time></trkpt><trkpt lat="45.91053990735947" lon="10.900790247220849"><ele>113.4</ele><time>2026-03-29T07:31:08.999Z</time></trkpt><trkpt lat="45.910602885070716" lon="10.900801244694843"><ele>113.2</ele><time>2026-03-29T07:31:09.999Z</time></trkpt><trkpt lat="45.91073524814369" lon="10.900965992839803"><ele>113.0</ele><time>2026-03-29T07:31:11.999Z</time></trkpt><trkpt lat="45.91082171846124" lon="10.901040050718127"><ele>114.5</ele><time>2026-03-29T07:31:12.999Z</time></trkpt><trkpt lat="45.91092088499167" lon="10.90109016615526"><ele>116.0</ele><time>2026-03-29T07:31:13.999Z</time></trkpt><trkpt lat="45.911015495523536" lon="10.90116760081863"><ele>117.5</ele><time>2026-03-29T07:31:14.999Z</time></trkpt><trkpt lat="45.91112283923576" lon="10.901249543453499"><ele>119.0</ele><time>2026-03-29T07:31:15.999Z</time></trkpt><trkpt lat="45.91123992769949" lon="10.901338922861688"><ele>119.0</ele><time>2026-03-29T07:31:16.999Z</time></trkpt><trkpt lat="45.91135541405338" lon="10.901425023841687"><ele>119.0</ele><time>2026-03-29T07:31:17.999Z</time></trkpt><trkpt lat="45.91147127312505" lon="10.901514030782288"><ele>119.0</ele><time>2026-03-29T07:31:19Z</time></trkpt><trkpt lat="45.91159396340788" lon="10.901602014287782"><ele>119.0</ele><time>2026-03-29T07:31:20Z</time></trkpt><trkpt lat="45.91171144149566" lon="10.901691157102865"><ele>120.75</ele><time>2026-03-29T07:31:21Z</time></trkpt><trkpt lat="45.911813363274945" lon="10.9017719094564"><ele>122.5</ele><time>2026-03-29T07:31:22Z</time></trkpt><trkpt lat="45.91192698544677" lon="10.901852408240204"><ele>124.25</ele><time>2026-03-29T07:31:23Z</time></trkpt><trkpt lat="45.91203969348651" lon="10.901932964271996"><ele>126.0</ele><time>2026-03-29T07:31:24Z</time></trkpt><trkpt lat="45.912157502970025" lon="10.902016298808244"><ele>126.0</ele><time>2026-03-29T07:31:25Z</time></trkpt><trkpt lat="45.91227794411704" lon="10.902107781714271"><ele>126.0</ele><time>2026-03-29T07:31:26Z</time></trkpt><trkpt lat="45.91240082705889" lon="10.902197535709456"><ele>126.0</ele><time>2026-03-29T07:31:27Z</time></trkpt><trkpt lat="45.91252459772646" lon="10.902288655052176"><ele>126.0</ele><time>2026-03-29T07:31:28Z</time></trkpt><trkpt lat="45.91265177129216" lon="10.902384102852322"><ele>126.25</ele><time>2026-03-29T07:31:29Z</time></trkpt><trkpt lat="45.91277905074503" lon="10.902478622267003"><ele>126.5</ele><time>2026-03-29T07:31:30Z</time></trkpt><trkpt lat="45.91288057770403" lon="10.90256159316732"><ele>126.75</ele><time>2026-03-29T07:31:31Z</time></trkpt><trkpt lat="45.91297978524228" lon="10.90262512542039"><ele>127.0</ele><time>2026-03-29T07:31:32Z</time></trkpt><trkpt lat="45.91307529591982" lon="10.90269269955516"><ele>127.83333333333334</ele><time>2026-03-29T07:31:33Z</time></trkpt><trkpt lat="45.913151475543685" lon="10.902754291110638"><ele>128.66666666666669</ele><time>2026-03-29T07:31:34Z</time></trkpt><trkpt lat="45.913214452456636" lon="10.902815620060206"><ele>129.5</ele><time>2026-03-29T07:31:35Z</time></trkpt><trkpt lat="45.91326055608267" lon="10.902883427504692"><ele>130.33333333333334</ele><time>2026-03-29T07:31:36Z</time></trkpt><trkpt lat="45.91320843582817" lon="10.903045644939548"><ele>131.16666666666666</ele><time>2026-03-29T07:31:37Z</time></trkpt><trkpt lat="45.91317950632513" lon="10.903166422898929"><ele>132.0</ele><time>2026-03-29T07:31:38Z</time></trkpt><trkpt lat="45.91313733201366" lon="10.903291897460155"><ele>133.0</ele><time>2026-03-29T07:31:39Z</time></trkpt><trkpt lat="45.91309519009678" lon="10.903440706383696"><ele>134.0</ele><time>2026-03-29T07:31:40Z</time></trkpt><trkpt lat="45.913063664410856" lon="10.90354851611092"><ele>135.0</ele><time>2026-03-29T07:31:41Z</time></trkpt><trkpt lat="45.91302812381002" lon="10.903626051104292"><ele>136.0</ele><time>2026-03-29T07:31:42Z</time></trkpt><trkpt lat="45.9129013478544" lon="10.903626955331159"><ele>137.0</ele><time>2026-03-29T07:31:44Z</time></trkpt><trkpt lat="45.912804223580885" lon="10.903588355867125"><ele>137.0</ele><time>2026-03-29T07:31:45Z</time></trkpt><trkpt lat="45.91267769504841" lon="10.903582685831678"><ele>137.0</ele><time>2026-03-29T07:31:46Z</time></trkpt><trkpt lat="45.91257231717917" lon="10.903563052736299"><ele>137.0</ele><time>2026-03-29T07:31:47Z</time></trkpt><trkpt lat="45.91249563795745" lon="10.903567649819005"><ele>137.0</ele><time>2026-03-29T07:31:48Z</time></trkpt><trkpt lat="45.91242307265246" lon="10.903712522977218"><ele>137.0</ele><time>2026-03-29T07:31:50Z</time></trkpt><trkpt lat="45.91240633662318" lon="10.903848048059196"><ele>137.25</ele><time>2026-03-29T07:31:51Z</time></trkpt><trkpt lat="45.912387082465536" lon="10.903996217734123"><ele>137.5</ele><time>2026-03-29T07:31:52Z</time></trkpt><trkpt lat="45.91234668183768" lon="10.904162650921284"><ele>137.75</ele><time>2026-03-29T07:31:53Z</time></trkpt><trkpt lat="45.91229303092012" lon="10.904357020035686"><ele>138.0</ele><time>2026-03-29T07:31:54Z</time></trkpt><trkpt lat="45.91221057414046" lon="10.90454827668361"><ele>139.66666666666666</ele><time>2026-03-29T07:31:55Z</time></trkpt><trkpt lat="45.91211520653365" lon="10.904734520703968"><ele>141.33333333333331</ele><time>2026-03-29T07:31:56Z</time></trkpt><trkpt lat="45.91201812355787" lon="10.904938352573968"><ele>143.0</ele><time>2026-03-29T07:31:57Z</time></trkpt><trkpt lat="45.911914998964605" lon="10.905154869834446"><ele>144.66666666666666</ele><time>2026-03-29T07:31:58Z</time></trkpt><trkpt lat="45.91180960798994" lon="10.905376144886837"><ele>146.33333333333334</ele><time>2026-03-29T07:31:59Z</time></trkpt><trkpt lat="45.91172245368655" lon="10.90555913571064"><ele>148.0</ele><time>2026-03-29T07:32:00Z</time></trkpt><trkpt lat="45.91165725366923" lon="10.905733962680333"><ele>148.25</ele><time>2026-03-29T07:32:01Z</time></trkpt><trkpt lat="45.91158526054279" lon="10.905886783447906"><ele>148.5</ele><time>2026-03-29T07:32:02Z</time></trkpt><trkpt lat="45.91152799563134" lon="10.906050853866596"><ele>148.75</ele><time>2026-03-29T07:32:03Z</time></trkpt><trkpt lat="45.911513902858275" lon="10.906233949034062"><ele>149.0</ele><time>2026-03-29T07:32:04Z</time></trkpt><trkpt lat="45.911568745107914" lon="10.90640813266164"><ele>151.0</ele><time>2026-03-29T07:32:05Z</time></trkpt><trkpt lat="45.911632030876106" lon="10.90658403711499"><ele>153.0</ele><time>2026-03-29T07:32:06Z</time></trkpt><trkpt lat="45.911732598652286" lon="10.906716814897623"><ele>155.0</ele><time>2026-03-29T07:32:07Z</time></trkpt><trkpt lat="45.91186750235487" lon="10.90682403301002"><ele>157.0</ele><time>2026-03-29T07:32:08Z</time></trkpt><trkpt lat="45.912007685135485" lon="10.906943083492365"><ele>158.0</ele><time>2026-03-29T07:32:09Z</time></trkpt><trkpt lat="45.91215820934535" lon="10.907047857597455"><ele>159.0</ele><time>2026-03-29T07:32:10Z</time></trkpt><trkpt lat="45.912302403667475" lon="10.907154210737273"><ele>160.0</ele><time>2026-03-29T07:32:11Z</time></trkpt><trkpt lat="45.912435270504155" lon="10.90728602773301"><ele>160.0</ele><time>2026-03-29T07:32:12Z</time></trkpt><trkpt lat="45.91256371601176" lon="10.907435638675901"><ele>160.0</ele><time>2026-03-29T07:32:13Z</time></trkpt><trkpt lat="45.91269025028567" lon="10.907592535264897"><ele>160.0</ele><time>2026-03-29T07:32:14Z</time></trkpt><trkpt lat="45.91282508324809" lon="10.907757128400828"><ele>162.33333333333334</ele><time>2026-03-29T07:32:15Z</time></trkpt><trkpt lat="45.912963660640564" lon="10.907921834414239"><ele>164.66666666666666</ele><time>2026-03-29T07:32:16Z</time></trkpt><trkpt lat="45.91310565104066" lon="10.908092333028026"><ele>167.0</ele><time>2026-03-29T07:32:17Z</time></trkpt><trkpt lat="45.91324919361828" lon="10.90826605982465"><ele>169.33333333333331</ele><time>2026-03-29T07:32:18Z</time></trkpt><trkpt lat="45.913388782454106" lon="10.908442453572397"><ele>171.66666666666666</ele><time>2026-03-29T07:32:19Z</time></trkpt><trkpt lat="45.91352453633108" lon="10.908608843869594"><ele>174.0</ele><time>2026-03-29T07:32:20Z</time></trkpt><trkpt lat="45.91363515909562" lon="10.908757721490366"><ele>174.0</ele><time>2026-03-29T07:32:21Z</time></trkpt><trkpt lat="45.91369938198933" lon="10.908912577960216"><ele>174.0</ele><time>2026-03-29T07:32:22Z</time></trkpt><trkpt lat="45.91368153259948" lon="10.909082874625872"><ele>174.0</ele><time>2026-03-29T07:32:23Z</time></trkpt><trkpt lat="45.91367413062816" lon="10.909257328841534"><ele>174.0</ele><time>2026-03-29T07:32:24Z</time></trkpt><trkpt lat="45.91362639863846" lon="10.909434181593312"><ele>177.0</ele><time>2026-03-29T07:32:24.999Z</time></trkpt><trkpt lat="45.913580481312664" lon="10.909636543286988"><ele>180.0</ele><time>2026-03-29T07:32:25.999Z</time></trkpt><trkpt lat="45.91352959886254" lon="10.909854445456789"><ele>183.0</ele><time>2026-03-29T07:32:26.999Z</time></trkpt><trkpt lat="45.9134799960031" lon="10.910063490726841"><ele>185.0</ele><time>2026-03-29T07:32:27.999Z</time></trkpt><trkpt lat="45.913440173419325" lon="10.910235128407187"><ele>187.0</ele><time>2026-03-29T07:32:28.999Z</time></trkpt><trkpt lat="45.913392649615105" lon="10.910389545558804"><ele>189.0</ele><time>2026-03-29T07:32:29.999Z</time></trkpt><trkpt lat="45.913331513287126" lon="10.910525652940185"><ele>191.0</ele><time>2026-03-29T07:32:30.999Z</time></trkpt><trkpt lat="45.913246785239735" lon="10.910633265571276"><ele>191.20000000000002</ele><time>2026-03-29T07:32:31.999Z</time></trkpt><trkpt lat="45.91315521916919" lon="10.910747624353355"><ele>191.4</ele><time>2026-03-29T07:32:32.999Z</time></trkpt><trkpt lat="45.91305854773654" lon="10.910849564988377"><ele>191.6</ele><time>2026-03-29T07:32:33.999Z</time></trkpt><trkpt lat="45.912966502894996" lon="10.910904462509166"><ele>191.8</ele><time>2026-03-29T07:32:34.999Z</time></trkpt><trkpt lat="45.912863629194554" lon="10.910886647443457"><ele>192.0</ele><time>2026-03-29T07:32:35.999Z</time></trkpt><trkpt lat="45.91272996070316" lon="10.910894180737074"><ele>192.0</ele><time>2026-03-29T07:32:36.999Z</time></trkpt><trkpt lat="45.91257406521586" lon="10.910902332127296"><ele>192.0</ele><time>2026-03-29T07:32:37.999Z</time></trkpt><trkpt lat="45.91240117676509" lon="10.910921989936869"><ele>192.0</ele><time>2026-03-29T07:32:38.999Z</time></trkpt><trkpt lat="45.91222998511814" lon="10.911002946418574"><ele>196.5</ele><time>2026-03-29T07:32:39.999Z</time></trkpt><trkpt lat="45.91207898756714" lon="10.911077736511528"><ele>201.0</ele><time>2026-03-29T07:32:40.999Z</time></trkpt><trkpt lat="45.911964681646865" lon="10.911162207780679"><ele>205.5</ele><time>2026-03-29T07:32:41.999Z</time></trkpt><trkpt lat="45.91187640707052" lon="10.911243554552884"><ele>210.0</ele><time>2026-03-29T07:32:42.999Z</time></trkpt><trkpt lat="45.91182578206992" lon="10.911315881836806"><ele>210.0</ele><time>2026-03-29T07:32:43.999Z</time></trkpt><trkpt lat="45.91179812332689" lon="10.911472775253518"><ele>210.0</ele><time>2026-03-29T07:32:45.999Z</time></trkpt><trkpt lat="45.911834585515365" lon="10.91155388931859"><ele>210.0</ele><time>2026-03-29T07:32:46.999Z</time></trkpt><trkpt lat="45.91190147577177" lon="10.911620658965612"><ele>210.0</ele><time>2026-03-29T07:32:47.999Z</time></trkpt><trkpt lat="45.91199473692703" lon="10.91167152299378"><ele>210.0</ele><time>2026-03-29T07:32:48.999Z</time></trkpt><trkpt lat="45.91207938025383" lon="10.911747344615714"><ele>212.83333333333334</ele><time>2026-03-29T07:32:49.999Z</time></trkpt><trkpt lat="45.91212473232846" lon="10.911832509221101"><ele>215.66666666666669</ele><time>2026-03-29T07:32:50.999Z</time></trkpt><trkpt lat="45.91216097531243" lon="10.91193234486805"><ele>218.5</ele><time>2026-03-29T07:32:51.999Z</time></trkpt><trkpt lat="45.91218353626131" lon="10.91204439854538"><ele>221.33333333333334</ele><time>2026-03-29T07:32:52.999Z</time></trkpt><trkpt lat="45.912210213042286" lon="10.912126882258175"><ele>224.16666666666669</ele><time>2026-03-29T07:32:53.999Z</time></trkpt><trkpt lat="45.91229015359361" lon="10.912231207398609"><ele>227.0</ele><time>2026-03-29T07:32:55.999Z</time></trkpt><trkpt lat="45.912353209010426" lon="10.912230070098065"><ele>227.00000000000003</ele><time>2026-03-29T07:32:56.999Z</time></trkpt><trkpt lat="45.91242695229408" lon="10.912201830847744"><ele>227.0</ele><time>2026-03-29T07:32:57.999Z</time></trkpt><trkpt lat="45.91249929265867" lon="10.912148251645096"><ele>227.0</ele><time>2026-03-29T07:32:58.999Z</time></trkpt><trkpt lat="45.91258146282289" lon="10.912115381829674"><ele>227.0</ele><time>2026-03-29T07:32:59.999Z</time></trkpt><trkpt lat="45.91266751264916" lon="10.91214493181795"><ele>227.00000000000003</ele><time>2026-03-29T07:33:00.999Z</time></trkpt><trkpt lat="45.91275694165925" lon="10.912212482820497"><ele>227.0</ele><time>2026-03-29T07:33:01.999Z</time></trkpt><trkpt lat="45.912848654643966" lon="10.91229523599828"><ele>226.66666666666669</ele><time>2026-03-29T07:33:02.999Z</time></trkpt><trkpt lat="45.912924512002334" lon="10.912376638185862"><ele>226.33333333333334</ele><time>2026-03-29T07:33:03.999Z</time></trkpt><trkpt lat="45.91297829789607" lon="10.912437103543224"><ele>226.0</ele><time>2026-03-29T07:33:04.999Z</time></trkpt><trkpt lat="45.913037603464666" lon="10.912480772545548"><ele>225.66666666666669</ele><time>2026-03-29T07:33:05.999Z</time></trkpt><trkpt lat="45.91312702347172" lon="10.912573225092734"><ele>225.33333333333334</ele><time>2026-03-29T07:33:07.999Z</time></trkpt><trkpt lat="45.91317141816937" lon="10.912639470499858"><ele>225.0</ele><time>2026-03-29T07:33:09.999Z</time></trkpt><trkpt lat="45.91318136497033" lon="10.912761298122064"><ele>225.0</ele><time>2026-03-29T07:33:11.999Z</time></trkpt><trkpt lat="45.91306771318853" lon="10.912797689950908"><ele>225.0</ele><time>2026-03-29T07:33:13.999Z</time></trkpt><trkpt lat="45.91301439715262" lon="10.912736133530212"><ele>225.0</ele><time>2026-03-29T07:33:14.999Z</time></trkpt><trkpt lat="45.91295766132202" lon="10.912643635088527"><ele>225.0</ele><time>2026-03-29T07:33:15.999Z</time></trkpt><trkpt lat="45.912871950837264" lon="10.912561914912326"><ele>225.0</ele><time>2026-03-29T07:33:16.999Z</time></trkpt><trkpt lat="45.91278167212006" lon="10.912561074505925"><ele>225.0</ele><time>2026-03-29T07:33:17.999Z</time></trkpt><trkpt lat="45.912680235729006" lon="10.912554690321048"><ele>225.0</ele><time>2026-03-29T07:33:18.999Z</time></trkpt><trkpt lat="45.912580391321136" lon="10.912559381853347"><ele>225.0</ele><time>2026-03-29T07:33:19.999Z</time></trkpt><trkpt lat="45.912507796805556" lon="10.912569295248765"><ele>225.0</ele><time>2026-03-29T07:33:20.999Z</time></trkpt><trkpt lat="45.91241082142344" lon="10.912642691056405"><ele>225.0</ele><time>2026-03-29T07:33:22.999Z</time></trkpt><trkpt lat="45.9124250867812" lon="10.912810994853398"><ele>228.2</ele><time>2026-03-29T07:33:25Z</time></trkpt><trkpt lat="45.91250939400705" lon="10.912852469723555"><ele>231.4</ele><time>2026-03-29T07:33:26Z</time></trkpt><trkpt lat="45.912589333505046" lon="10.912848836711337"><ele>234.60000000000002</ele><time>2026-03-29T07:33:27Z</time></trkpt><trkpt lat="45.91267478157638" lon="10.912826140669072"><ele>237.8</ele><time>2026-03-29T07:33:28Z</time></trkpt><trkpt lat="45.912798942519274" lon="10.912856807008474"><ele>241.0</ele><time>2026-03-29T07:33:30Z</time></trkpt><trkpt lat="45.912844128419415" lon="10.912931356432972"><ele>240.99999999999997</ele><time>2026-03-29T07:33:31Z</time></trkpt><trkpt lat="45.91286843152364" lon="10.913043742817417"><ele>241.0</ele><time>2026-03-29T07:33:32Z</time></trkpt><trkpt lat="45.912878198699495" lon="10.91317293518708"><ele>241.0</ele><time>2026-03-29T07:33:33Z</time></trkpt><trkpt lat="45.912886131138286" lon="10.913301596334975"><ele>241.0</ele><time>2026-03-29T07:33:34Z</time></trkpt><trkpt lat="45.912895590343574" lon="10.913422955060435"><ele>240.99999999999997</ele><time>2026-03-29T07:33:35Z</time></trkpt><trkpt lat="45.91292579607237" lon="10.913517311290454"><ele>241.0</ele><time>2026-03-29T07:33:36Z</time></trkpt><trkpt lat="45.91299372563646" lon="10.913611291733375"><ele>247.0</ele><time>2026-03-29T07:33:37Z</time></trkpt><trkpt lat="45.91309376340303" lon="10.913705043248665"><ele>253.0</ele><time>2026-03-29T07:33:38Z</time></trkpt><trkpt lat="45.91321486651849" lon="10.913856244232166"><ele>259.0</ele><time>2026-03-29T07:33:39Z</time></trkpt><trkpt lat="45.91334467976365" lon="10.914046789081649"><ele>258.3333333333333</ele><time>2026-03-29T07:33:40Z</time></trkpt><trkpt lat="45.913474752934434" lon="10.914206885815133"><ele>257.6666666666667</ele><time>2026-03-29T07:33:41Z</time></trkpt><trkpt lat="45.91362055512464" lon="10.914282291749158"><ele>257.0</ele><time>2026-03-29T07:33:42Z</time></trkpt><trkpt lat="45.91378271002676" lon="10.914328639498589"><ele>263.6666666666667</ele><time>2026-03-29T07:33:43Z</time></trkpt><trkpt lat="45.91396141338202" lon="10.914374071450943"><ele>270.3333333333333</ele><time>2026-03-29T07:33:44Z</time></trkpt><trkpt lat="45.9141165730315" lon="10.914378796290878"><ele>277.0</ele><time>2026-03-29T07:33:45Z</time></trkpt><trkpt lat="45.91425632179178" lon="10.914413549204657"><ele>278.0</ele><time>2026-03-29T07:33:46Z</time></trkpt><trkpt lat="45.91437181972566" lon="10.914470623949267"><ele>279.0</ele><time>2026-03-29T07:33:47Z</time></trkpt><trkpt lat="45.91448163302911" lon="10.914430187536281"><ele>280.0</ele><time>2026-03-29T07:33:48Z</time></trkpt><trkpt lat="45.91456588676165" lon="10.91444186866279"><ele>281.0</ele><time>2026-03-29T07:33:49Z</time></trkpt><trkpt lat="45.914625645548625" lon="10.91440225296564"><ele>282.0</ele><time>2026-03-29T07:33:50Z</time></trkpt><trkpt lat="45.91468473857746" lon="10.914517747650327"><ele>282.0</ele><time>2026-03-29T07:33:52Z</time></trkpt><trkpt lat="45.914559893765116" lon="10.914661261979951"><ele>282.0</ele><time>2026-03-29T07:33:54Z</time></trkpt><trkpt lat="45.91446887080435" lon="10.914583307712467"><ele>282.0</ele><time>2026-03-29T07:33:55Z</time></trkpt><trkpt lat="45.914351770244615" lon="10.914562473921736"><ele>282.0</ele><time>2026-03-29T07:33:56Z</time></trkpt><trkpt lat="45.914228531980015" lon="10.914606213772457"><ele>280.3333333333333</ele><time>2026-03-29T07:33:57Z</time></trkpt><trkpt lat="45.91408993743544" lon="10.914690995837399"><ele>278.66666666666663</ele><time>2026-03-29T07:33:58Z</time></trkpt><trkpt lat="45.913940692694965" lon="10.914803844659827"><ele>277.0</ele><time>2026-03-29T07:33:59Z</time></trkpt><trkpt lat="45.913797189488136" lon="10.914843582056431"><ele>277.0</ele><time>2026-03-29T07:34:00Z</time></trkpt><trkpt lat="45.91368054217159" lon="10.914900159518314"><ele>277.0</ele><time>2026-03-29T07:34:01Z</time></trkpt><trkpt lat="45.913592796328246" lon="10.914926559561245"><ele>277.0</ele><time>2026-03-29T07:34:02Z</time></trkpt><trkpt lat="45.91356479958445" lon="10.915086714798841"><ele>277.0</ele><time>2026-03-29T07:34:04Z</time></trkpt><trkpt lat="45.91361859230909" lon="10.915142006207855"><ele>277.0</ele><time>2026-03-29T07:34:05Z</time></trkpt><trkpt lat="45.91371901832821" lon="10.915142756515799"><ele>277.0</ele><time>2026-03-29T07:34:06Z</time></trkpt><trkpt lat="45.913841558701854" lon="10.91510753739335"><ele>277.0</ele><time>2026-03-29T07:34:07Z</time></trkpt><trkpt lat="45.914000506850584" lon="10.915048068007692"><ele>277.0</ele><time>2026-03-29T07:34:08Z</time></trkpt><trkpt lat="45.91418057146579" lon="10.915016951391179"><ele>278.66666666666663</ele><time>2026-03-29T07:34:09Z</time></trkpt><trkpt lat="45.914368563317446" lon="10.915034032805906"><ele>280.3333333333333</ele><time>2026-03-29T07:34:10Z</time></trkpt><trkpt lat="45.914569879374596" lon="10.915030174442636"><ele>282.0</ele><time>2026-03-29T07:34:11Z</time></trkpt><trkpt lat="45.91473220692718" lon="10.915048922734055"><ele>282.0</ele><time>2026-03-29T07:34:12Z</time></trkpt><trkpt lat="45.91485887337079" lon="10.915042607476915"><ele>282.0</ele><time>2026-03-29T07:34:13Z</time></trkpt><trkpt lat="45.91493786934366" lon="10.91504817935794"><ele>282.0</ele><time>2026-03-29T07:34:14Z</time></trkpt><trkpt lat="45.91491901144601" lon="10.915201311159208"><ele>282.0</ele><time>2026-03-29T07:34:16Z</time></trkpt><trkpt lat="45.91480386876883" lon="10.91528638386534"><ele>282.0</ele><time>2026-03-29T07:34:18Z</time></trkpt><trkpt lat="45.91469894943571" lon="10.915257526210706"><ele>286.0</ele><time>2026-03-29T07:34:19Z</time></trkpt><trkpt lat="45.91455816562547" lon="10.915295691614176"><ele>290.0</ele><time>2026-03-29T07:34:20Z</time></trkpt><trkpt lat="45.91439530918386" lon="10.915385521443012"><ele>294.0</ele><time>2026-03-29T07:34:21Z</time></trkpt><trkpt lat="45.91423858512793" lon="10.915525362746147"><ele>295.0</ele><time>2026-03-29T07:34:22Z</time></trkpt><trkpt lat="45.91404059128861" lon="10.915632335343371"><ele>296.0</ele><time>2026-03-29T07:34:23Z</time></trkpt><trkpt lat="45.91385062443933" lon="10.915723755908536"><ele>297.0</ele><time>2026-03-29T07:34:24Z</time></trkpt><trkpt lat="45.91364869602109" lon="10.915794758028591"><ele>297.0</ele><time>2026-03-29T07:34:25Z</time></trkpt><trkpt lat="45.91343731587218" lon="10.915862873010854"><ele>297.0</ele><time>2026-03-29T07:34:26Z</time></trkpt><trkpt lat="45.91325980377668" lon="10.915916726069327"><ele>297.0</ele><time>2026-03-29T07:34:27Z</time></trkpt><trkpt lat="45.913112196426674" lon="10.915918859591315"><ele>298.25</ele><time>2026-03-29T07:34:28Z</time></trkpt><trkpt lat="45.912991264482" lon="10.915856304689619"><ele>299.5</ele><time>2026-03-29T07:34:29Z</time></trkpt><trkpt lat="45.912853509884414" lon="10.915793523608182"><ele>300.75</ele><time>2026-03-29T07:34:30Z</time></trkpt><trkpt lat="45.91270844841814" lon="10.915749492947915"><ele>302.0</ele><time>2026-03-29T07:34:31Z</time></trkpt><trkpt lat="45.91255386290535" lon="10.915756292656031"><ele>303.25</ele><time>2026-03-29T07:34:32Z</time></trkpt><trkpt lat="45.91240573385997" lon="10.915755185234135"><ele>304.5</ele><time>2026-03-29T07:34:32.999Z</time></trkpt><trkpt lat="45.912283855900235" lon="10.915825264366509"><ele>305.75</ele><time>2026-03-29T07:34:33.999Z</time></trkpt><trkpt lat="45.91216749978953" lon="10.91592904993516"><ele>307.0</ele><time>2026-03-29T07:34:34.999Z</time></trkpt><trkpt lat="45.912039636320515" lon="10.916087684290558"><ele>313.66666666666663</ele><time>2026-03-29T07:34:35.999Z</time></trkpt><trkpt lat="45.91193537527961" lon="10.916288508157454"><ele>320.3333333333333</ele><time>2026-03-29T07:34:36.999Z</time></trkpt><trkpt lat="45.911842698774095" lon="10.916507782365104"><ele>327.0</ele><time>2026-03-29T07:34:37.999Z</time></trkpt><trkpt lat="45.911795338525124" lon="10.916707381810962"><ele>330.0</ele><time>2026-03-29T07:34:38.999Z</time></trkpt><trkpt lat="45.91175801351354" lon="10.916857442639838"><ele>333.0</ele><time>2026-03-29T07:34:39.999Z</time></trkpt><trkpt lat="45.911696822655045" lon="10.916961585001385"><ele>336.0</ele><time>2026-03-29T07:34:40.999Z</time></trkpt><trkpt lat="45.91159790070499" lon="10.91695762521979"><ele>339.0</ele><time>2026-03-29T07:34:41.999Z</time></trkpt><trkpt lat="45.91151442918311" lon="10.916903056463427"><ele>342.0</ele><time>2026-03-29T07:34:42.999Z</time></trkpt><trkpt lat="45.911413474759236" lon="10.916903056468925"><ele>342.6</ele><time>2026-03-29T07:34:43.999Z</time></trkpt><trkpt lat="45.91133959436314" lon="10.916974046783325"><ele>343.20000000000005</ele><time>2026-03-29T07:34:44.999Z</time></trkpt><trkpt lat="45.91136132325348" lon="10.917137786637012"><ele>343.8</ele><time>2026-03-29T07:34:46.999Z</time></trkpt><trkpt lat="45.91143141078138" lon="10.917215197283568"><ele>344.4</ele><time>2026-03-29T07:34:47.999Z</time></trkpt><trkpt lat="45.91153779289021" lon="10.917232937523494"><ele>345.0</ele><time>2026-03-29T07:34:48.999Z</time></trkpt><trkpt lat="45.9116869037747" lon="10.9172173199413"><ele>344.0</ele><time>2026-03-29T07:34:49.999Z</time></trkpt><trkpt lat="45.91186771036814" lon="10.917205899946595"><ele>343.0</ele><time>2026-03-29T07:34:50.999Z</time></trkpt><trkpt lat="45.91205080927265" lon="10.917205903964765"><ele>342.0</ele><time>2026-03-29T07:34:51.999Z</time></trkpt><trkpt lat="45.91223059444005" lon="10.917193571691527"><ele>342.0</ele><time>2026-03-29T07:34:52.999Z</time></trkpt><trkpt lat="45.91235668545101" lon="10.917164532276466"><ele>342.0</ele><time>2026-03-29T07:34:53.999Z</time></trkpt><trkpt lat="45.91244780664675" lon="10.917148479904506"><ele>342.0</ele><time>2026-03-29T07:34:54.999Z</time></trkpt><trkpt lat="45.912504367267594" lon="10.917198721966708"><ele>342.0</ele><time>2026-03-29T07:34:55.999Z</time></trkpt><trkpt lat="45.91250098477124" lon="10.917345199530427"><ele>342.0</ele><time>2026-03-29T07:34:57.999Z</time></trkpt><trkpt lat="45.912461736896454" lon="10.917425086932194"><ele>342.0</ele><time>2026-03-29T07:34:58.999Z</time></trkpt><trkpt lat="45.912375131086606" lon="10.917460230253209"><ele>342.0</ele><time>2026-03-29T07:34:59.999Z</time></trkpt><trkpt lat="45.912270041355605" lon="10.91752315300779"><ele>342.0</ele><time>2026-03-29T07:35:00.999Z</time></trkpt><trkpt lat="45.91215920567081" lon="10.917617990869031"><ele>342.0</ele><time>2026-03-29T07:35:01.999Z</time></trkpt><trkpt lat="45.91206704092361" lon="10.917683087127045"><ele>342.0</ele><time>2026-03-29T07:35:02.999Z</time></trkpt><trkpt lat="45.912014901201466" lon="10.917761605584836"><ele>345.1666666666667</ele><time>2026-03-29T07:35:03.999Z</time></trkpt><trkpt lat="45.912012832361484" lon="10.91787162471108"><ele>348.3333333333333</ele><time>2026-03-29T07:35:04.999Z</time></trkpt><trkpt lat="45.912053170731824" lon="10.917960414525584"><ele>351.5</ele><time>2026-03-29T07:35:05.999Z</time></trkpt><trkpt lat="45.91213376036402" lon="10.917992798423898"><ele>354.66666666666663</ele><time>2026-03-29T07:35:06.999Z</time></trkpt><trkpt lat="45.91222494722368" lon="10.917962876789959"><ele>357.8333333333333</ele><time>2026-03-29T07:35:07.999Z</time></trkpt><trkpt lat="45.91231546074885" lon="10.917873331552961"><ele>361.0</ele><time>2026-03-29T07:35:08.999Z</time></trkpt><trkpt lat="45.91239583998507" lon="10.917860143340699"><ele>361.0</ele><time>2026-03-29T07:35:09.999Z</time></trkpt><trkpt lat="45.91247613628963" lon="10.91790337845768"><ele>361.0</ele><time>2026-03-29T07:35:10.999Z</time></trkpt><trkpt lat="45.91254516900273" lon="10.918025937185405"><ele>361.0</ele><time>2026-03-29T07:35:11.999Z</time></trkpt><trkpt lat="45.912646168810134" lon="10.918149764086406"><ele>361.0</ele><time>2026-03-29T07:35:12.999Z</time></trkpt><trkpt lat="45.91276984336944" lon="10.918265664221659"><ele>359.66666666666663</ele><time>2026-03-29T07:35:13.999Z</time></trkpt><trkpt lat="45.912939675266536" lon="10.918371867701417"><ele>358.3333333333333</ele><time>2026-03-29T07:35:14.999Z</time></trkpt><trkpt lat="45.91311558442481" lon="10.918477626758209"><ele>357.0</ele><time>2026-03-29T07:35:15.999Z</time></trkpt><trkpt lat="45.91330010203131" lon="10.918588999760084"><ele>366.0</ele><time>2026-03-29T07:35:16.999Z</time></trkpt><trkpt lat="45.91345404678827" lon="10.918703118289448"><ele>375.0</ele><time>2026-03-29T07:35:17.999Z</time></trkpt><trkpt lat="45.91359175672018" lon="10.918762554861559"><ele>384.0</ele><time>2026-03-29T07:35:18.999Z</time></trkpt><trkpt lat="45.913707032923675" lon="10.91875739814237"><ele>393.0</ele><time>2026-03-29T07:35:19.999Z</time></trkpt><trkpt lat="45.91380030582556" lon="10.918684937610923"><ele>393.0</ele><time>2026-03-29T07:35:20.999Z</time></trkpt><trkpt lat="45.91387596980629" lon="10.918563396246167"><ele>393.0</ele><time>2026-03-29T07:35:21.999Z</time></trkpt><trkpt lat="45.913940188006" lon="10.918496254727588"><ele>393.0</ele><time>2026-03-29T07:35:22.999Z</time></trkpt><trkpt lat="45.91401957668568" lon="10.918540685549214"><ele>393.0</ele><time>2026-03-29T07:35:24.999Z</time></trkpt><trkpt lat="45.91397411576742" lon="10.918629604445849"><ele>393.0</ele><time>2026-03-29T07:35:25.999Z</time></trkpt><trkpt lat="45.913924308442496" lon="10.918702305046061"><ele>393.0</ele><time>2026-03-29T07:35:26.999Z</time></trkpt><trkpt lat="45.913833064788065" lon="10.918769357609486"><ele>393.0</ele><time>2026-03-29T07:35:27.999Z</time></trkpt><trkpt lat="45.91371785436706" lon="10.9188760987905"><ele>393.0</ele><time>2026-03-29T07:35:28.999Z</time></trkpt><trkpt lat="45.91358042129096" lon="10.918989690703906"><ele>393.0</ele><time>2026-03-29T07:35:29.999Z</time></trkpt><trkpt lat="45.91344577087971" lon="10.9190403623976"><ele>393.0</ele><time>2026-03-29T07:35:31Z</time></trkpt><trkpt lat="45.91329754729932" lon="10.919044468548902"><ele>389.3333333333333</ele><time>2026-03-29T07:35:32Z</time></trkpt><trkpt lat="45.91313574616466" lon="10.91905458107723"><ele>385.66666666666663</ele><time>2026-03-29T07:35:33Z</time></trkpt><trkpt lat="45.91294453621786" lon="10.91906383207797"><ele>382.0</ele><time>2026-03-29T07:35:34Z</time></trkpt><trkpt lat="45.912730465064385" lon="10.919076875395596"><ele>384.0</ele><time>2026-03-29T07:35:35Z</time></trkpt><trkpt lat="45.91251410350029" lon="10.919142421769603"><ele>386.0</ele><time>2026-03-29T07:35:36Z</time></trkpt><trkpt lat="45.912354466231534" lon="10.919183149749122"><ele>388.0</ele><time>2026-03-29T07:35:37Z</time></trkpt><trkpt lat="45.91222070278714" lon="10.919171628246302"><ele>388.0</ele><time>2026-03-29T07:35:38Z</time></trkpt><trkpt lat="45.91212097314227" lon="10.919092929449826"><ele>388.0</ele><time>2026-03-29T07:35:39Z</time></trkpt><trkpt lat="45.912038857040194" lon="10.91906210072031"><ele>388.0</ele><time>2026-03-29T07:35:40Z</time></trkpt><trkpt lat="45.91192547315017" lon="10.919163219615164"><ele>388.0</ele><time>2026-03-29T07:35:42Z</time></trkpt><trkpt lat="45.91198657140044" lon="10.919325233015403"><ele>394.5</ele><time>2026-03-29T07:35:44Z</time></trkpt><trkpt lat="45.91208271748448" lon="10.919358729838507"><ele>401.0</ele><time>2026-03-29T07:35:45Z</time></trkpt><trkpt lat="45.912223969627206" lon="10.919395466894926"><ele>407.5</ele><time>2026-03-29T07:35:46Z</time></trkpt><trkpt lat="45.9123723029959" lon="10.919424968681092"><ele>414.0</ele><time>2026-03-29T07:35:47Z</time></trkpt><trkpt lat="45.91253835807557" lon="10.919440118413055"><ele>413.25</ele><time>2026-03-29T07:35:48Z</time></trkpt><trkpt lat="45.912671249679285" lon="10.919490638389846"><ele>412.5</ele><time>2026-03-29T07:35:49Z</time></trkpt><trkpt lat="45.91277490884594" lon="10.919626878241328"><ele>411.75</ele><time>2026-03-29T07:35:50Z</time></trkpt><trkpt lat="45.912929084814834" lon="10.919727467265634"><ele>411.0</ele><time>2026-03-29T07:35:51Z</time></trkpt><trkpt lat="45.913096851511426" lon="10.919803877407249"><ele>411.0</ele><time>2026-03-29T07:35:52Z</time></trkpt><trkpt lat="45.913278212341474" lon="10.91983302949663"><ele>411.0</ele><time>2026-03-29T07:35:53Z</time></trkpt><trkpt lat="45.91341392576065" lon="10.919929534906538"><ele>411.0</ele><time>2026-03-29T07:35:54Z</time></trkpt><trkpt lat="45.91354751857245" lon="10.920002723313399"><ele>414.0</ele><time>2026-03-29T07:35:55Z</time></trkpt><trkpt lat="45.91365416189698" lon="10.92005184444139"><ele>417.0</ele><time>2026-03-29T07:35:56Z</time></trkpt><trkpt lat="45.913766000862964" lon="10.920033999178532"><ele>420.0</ele><time>2026-03-29T07:35:57Z</time></trkpt><trkpt lat="45.91389961996346" lon="10.919977579808853"><ele>423.0</ele><time>2026-03-29T07:35:58Z</time></trkpt><trkpt lat="45.91402281760777" lon="10.919867446601327"><ele>423.0</ele><time>2026-03-29T07:35:59Z</time></trkpt><trkpt lat="45.91417658461771" lon="10.919813655531211"><ele>423.0</ele><time>2026-03-29T07:36:00Z</time></trkpt><trkpt lat="45.9143343784244" lon="10.919795035549027"><ele>423.0</ele><time>2026-03-29T07:36:01Z</time></trkpt><trkpt lat="45.91453028363513" lon="10.919774773270479"><ele>424.5</ele><time>2026-03-29T07:36:02Z</time></trkpt><trkpt lat="45.914687312212166" lon="10.919768770279179"><ele>426.0</ele><time>2026-03-29T07:36:03Z</time></trkpt><trkpt lat="45.91482028914866" lon="10.919791455835588"><ele>427.5</ele><time>2026-03-29T07:36:04Z</time></trkpt><trkpt lat="45.91490502925288" lon="10.919857251740087"><ele>429.0</ele><time>2026-03-29T07:36:05Z</time></trkpt><trkpt lat="45.914992123642264" lon="10.919948067038115"><ele>430.0</ele><time>2026-03-29T07:36:06Z</time></trkpt><trkpt lat="45.91510377922914" lon="10.920055343897978"><ele>431.0</ele><time>2026-03-29T07:36:07Z</time></trkpt><trkpt lat="45.91522774010389" lon="10.920184116396008"><ele>432.0</ele><time>2026-03-29T07:36:08Z</time></trkpt><trkpt lat="45.91534519795416" lon="10.920349299051987"><ele>432.0</ele><time>2026-03-29T07:36:09Z</time></trkpt><trkpt lat="45.91544375530032" lon="10.920544330079917"><ele>432.0</ele><time>2026-03-29T07:36:10Z</time></trkpt><trkpt lat="45.91554642833606" lon="10.920785022879405"><ele>432.0</ele><time>2026-03-29T07:36:11Z</time></trkpt><trkpt lat="45.915654841953824" lon="10.921036338958178"><ele>435.5</ele><time>2026-03-29T07:36:12Z</time></trkpt><trkpt lat="45.91577512926651" lon="10.921319966450536"><ele>439.0</ele><time>2026-03-29T07:36:13Z</time></trkpt><trkpt lat="45.915904512020454" lon="10.921625040184296"><ele>444.6666666666667</ele><time>2026-03-29T07:36:14Z</time></trkpt><trkpt lat="45.91602110783132" lon="10.921871317738633"><ele>450.33333333333337</ele><time>2026-03-29T07:36:15Z</time></trkpt><trkpt lat="45.916131354789385" lon="10.92208041874304"><ele>456.0</ele><time>2026-03-29T07:36:16Z</time></trkpt><trkpt lat="45.91623327821025" lon="10.922273839501349"><ele>456.0</ele><time>2026-03-29T07:36:17Z</time></trkpt><trkpt lat="45.91633932899813" lon="10.922470132903138"><ele>456.0</ele><time>2026-03-29T07:36:18Z</time></trkpt><trkpt lat="45.91642583628159" lon="10.922614119151888"><ele>456.0</ele><time>2026-03-29T07:36:19Z</time></trkpt><trkpt lat="45.91649908642162" lon="10.922716147427966"><ele>456.0</ele><time>2026-03-29T07:36:20Z</time></trkpt><trkpt lat="45.91657601838955" lon="10.922785074701965"><ele>458.6666666666667</ele><time>2026-03-29T07:36:21Z</time></trkpt><trkpt lat="45.91665587913596" lon="10.922845277311033"><ele>461.33333333333337</ele><time>2026-03-29T07:36:22Z</time></trkpt><trkpt lat="45.916725095878064" lon="10.922887961061893"><ele>464.0</ele><time>2026-03-29T07:36:23Z</time></trkpt><trkpt lat="45.91672520529968" lon="10.923032436362433"><ele>466.6666666666667</ele><time>2026-03-29T07:36:25Z</time></trkpt><trkpt lat="45.916637421083976" lon="10.92303713625501"><ele>469.33333333333337</ele><time>2026-03-29T07:36:26Z</time></trkpt><trkpt lat="45.91657678754728" lon="10.923012195359158"><ele>472.0</ele><time>2026-03-29T07:36:27Z</time></trkpt><trkpt lat="45.916518215905356" lon="10.922910918272635"><ele>472.0</ele><time>2026-03-29T07:36:28Z</time></trkpt><trkpt lat="45.91639802143785" lon="10.922797623134985"><ele>472.0</ele><time>2026-03-29T07:36:29Z</time></trkpt><trkpt lat="45.91624376340796" lon="10.9226911619111"><ele>472.0</ele><time>2026-03-29T07:36:30Z</time></trkpt><trkpt lat="45.916082831124164" lon="10.922577618221725"><ele>473.6666666666667</ele><time>2026-03-29T07:36:31Z</time></trkpt><trkpt lat="45.91589447745069" lon="10.922432111775457"><ele>475.33333333333337</ele><time>2026-03-29T07:36:32Z</time></trkpt><trkpt lat="45.91572705882433" lon="10.922283236419057"><ele>477.0</ele><time>2026-03-29T07:36:33Z</time></trkpt><trkpt lat="45.91560740799499" lon="10.922117745239733"><ele>477.0</ele><time>2026-03-29T07:36:34Z</time></trkpt><trkpt lat="45.91547467070152" lon="10.922035588052129"><ele>477.0</ele><time>2026-03-29T07:36:35Z</time></trkpt><trkpt lat="45.91533128721661" lon="10.921949302633216"><ele>477.0</ele><time>2026-03-29T07:36:36Z</time></trkpt><trkpt lat="45.915165694806156" lon="10.921833358140162"><ele>479.0</ele><time>2026-03-29T07:36:37Z</time></trkpt><trkpt lat="45.91503735643945" lon="10.921694109153128"><ele>481.0</ele><time>2026-03-29T07:36:38Z</time></trkpt><trkpt lat="45.9149182540127" lon="10.921499579097132"><ele>483.0</ele><time>2026-03-29T07:36:39Z</time></trkpt><trkpt lat="45.91480518795584" lon="10.921382916096022"><ele>483.0</ele><time>2026-03-29T07:36:40Z</time></trkpt><trkpt lat="45.914680496723626" lon="10.921259773923268"><ele>482.99999999999994</ele><time>2026-03-29T07:36:41Z</time></trkpt><trkpt lat="45.91456808183606" lon="10.921171038074124"><ele>482.99999999999994</ele><time>2026-03-29T07:36:42Z</time></trkpt><trkpt lat="45.91449154316952" lon="10.921112186624764"><ele>483.0</ele><time>2026-03-29T07:36:43Z</time></trkpt><trkpt lat="45.91441896488435" lon="10.921124583005973"><ele>483.0</ele><time>2026-03-29T07:36:44Z</time></trkpt><trkpt lat="45.91436288031837" lon="10.921180974089067"><ele>483.0</ele><time>2026-03-29T07:36:45Z</time></trkpt><trkpt lat="45.91435189915056" lon="10.921294584583809"><ele>483.0</ele><time>2026-03-29T07:36:45.999Z</time></trkpt><trkpt lat="45.91432342282796" lon="10.921440254292309"><ele>483.0</ele><time>2026-03-29T07:36:46.999Z</time></trkpt><trkpt lat="45.91425912596318" lon="10.921607707190692"><ele>483.0</ele><time>2026-03-29T07:36:47.999Z</time></trkpt><trkpt lat="45.914175114107486" lon="10.921760661815922"><ele>492.0</ele><time>2026-03-29T07:36:48.999Z</time></trkpt><trkpt lat="45.914097530004" lon="10.921882736176684"><ele>500.99999999999994</ele><time>2026-03-29T07:36:49.999Z</time></trkpt><trkpt lat="45.91400359702005" lon="10.921950809624317"><ele>509.99999999999994</ele><time>2026-03-29T07:36:50.999Z</time></trkpt><trkpt lat="45.91392189231251" lon="10.921969406366008"><ele>519.0</ele><time>2026-03-29T07:36:51.999Z</time></trkpt><trkpt lat="45.91381793890441" lon="10.92203038530904"><ele>528.0</ele><time>2026-03-29T07:36:52.999Z</time></trkpt><trkpt lat="45.91374207398169" lon="10.922102704667175"><ele>528.0</ele><time>2026-03-29T07:36:53.999Z</time></trkpt><trkpt lat="45.913650880437224" lon="10.92221444447626"><ele>528.0</ele><time>2026-03-29T07:36:54.999Z</time></trkpt><trkpt lat="45.91354891017569" lon="10.922356002627991"><ele>528.0</ele><time>2026-03-29T07:36:55.999Z</time></trkpt><trkpt lat="45.913402118311716" lon="10.922466642306183"><ele>528.0</ele><time>2026-03-29T07:36:56.999Z</time></trkpt><trkpt lat="45.913227361679894" lon="10.922553547371347"><ele>524.25</ele><time>2026-03-29T07:36:57.999Z</time></trkpt><trkpt lat="45.91308816074808" lon="10.92257778678034"><ele>520.5</ele><time>2026-03-29T07:36:58.999Z</time></trkpt><trkpt lat="45.912981909581774" lon="10.92256137509401"><ele>516.75</ele><time>2026-03-29T07:36:59.999Z</time></trkpt><trkpt lat="45.91285885073289" lon="10.922534822744469"><ele>513.0</ele><time>2026-03-29T07:37:00.999Z</time></trkpt><trkpt lat="45.912732017086626" lon="10.922540697403537"><ele>531.0</ele><time>2026-03-29T07:37:01.999Z</time></trkpt><trkpt lat="45.91261080934385" lon="10.922608270218317"><ele>549.0</ele><time>2026-03-29T07:37:02.999Z</time></trkpt><trkpt lat="45.91246422762803" lon="10.92263780806489"><ele>567.0</ele><time>2026-03-29T07:37:03.999Z</time></trkpt><trkpt lat="45.91227582652262" lon="10.922619353311497"><ele>567.5</ele><time>2026-03-29T07:37:04.999Z</time></trkpt><trkpt lat="45.91211393193584" lon="10.922603560733334"><ele>568.0</ele><time>2026-03-29T07:37:05.999Z</time></trkpt><trkpt lat="45.911971120368676" lon="10.922588755485242"><ele>568.5</ele><time>2026-03-29T07:37:06.999Z</time></trkpt><trkpt lat="45.911857261859254" lon="10.922556587158818"><ele>569.0</ele><time>2026-03-29T07:37:07.999Z</time></trkpt><trkpt lat="45.911768119583215" lon="10.922485916742568"><ele>561.2</ele><time>2026-03-29T07:37:08.999Z</time></trkpt><trkpt lat="45.91169865224986" lon="10.92241234587174"><ele>553.4</ele><time>2026-03-29T07:37:09.999Z</time></trkpt><trkpt lat="45.91158938534816" lon="10.922338807369954"><ele>545.6</ele><time>2026-03-29T07:37:10.999Z</time></trkpt><trkpt lat="45.91148928843727" lon="10.922300999051586"><ele>537.8</ele><time>2026-03-29T07:37:11.999Z</time></trkpt><trkpt lat="45.91140609147592" lon="10.922298098875213"><ele>530.0</ele><time>2026-03-29T07:37:12.999Z</time></trkpt><trkpt lat="45.91134348876137" lon="10.922336431585984"><ele>530.0</ele><time>2026-03-29T07:37:13.999Z</time></trkpt><trkpt lat="45.91133354375239" lon="10.922488791944536"><ele>530.0</ele><time>2026-03-29T07:37:15.999Z</time></trkpt><trkpt lat="45.91140879609174" lon="10.922524824738044"><ele>530.0</ele><time>2026-03-29T07:37:16.999Z</time></trkpt><trkpt lat="45.911499287975396" lon="10.922517385931654"><ele>530.0</ele><time>2026-03-29T07:37:17.999Z</time></trkpt><trkpt lat="45.9115916430684" lon="10.92251687225082"><ele>530.0</ele><time>2026-03-29T07:37:18.999Z</time></trkpt><trkpt lat="45.91166307693193" lon="10.922597315027659"><ele>538.25</ele><time>2026-03-29T07:37:19.999Z</time></trkpt><trkpt lat="45.91171858200754" lon="10.922713399636475"><ele>546.5</ele><time>2026-03-29T07:37:20.999Z</time></trkpt><trkpt lat="45.91180816560706" lon="10.922845906132423"><ele>554.75</ele><time>2026-03-29T07:37:21.999Z</time></trkpt><trkpt lat="45.91192367507442" lon="10.922970676102997"><ele>563.0</ele><time>2026-03-29T07:37:22.999Z</time></trkpt><trkpt lat="45.91205407467006" lon="10.923051694474154"><ele>565.0</ele><time>2026-03-29T07:37:23.999Z</time></trkpt><trkpt lat="45.91220997726465" lon="10.923110357418757"><ele>567.0</ele><time>2026-03-29T07:37:24.999Z</time></trkpt><trkpt lat="45.91237603656808" lon="10.923142471107601"><ele>569.0</ele><time>2026-03-29T07:37:25.999Z</time></trkpt><trkpt lat="45.91255512768401" lon="10.923134296775245"><ele>568.6</ele><time>2026-03-29T07:37:26.999Z</time></trkpt><trkpt lat="45.91269758808725" lon="10.923141235057198"><ele>568.2</ele><time>2026-03-29T07:37:27.999Z</time></trkpt><trkpt lat="45.912798364967145" lon="10.923143129558424"><ele>567.8000000000001</ele><time>2026-03-29T07:37:28.999Z</time></trkpt><trkpt lat="45.91288073942984" lon="10.923156667191344"><ele>567.4</ele><time>2026-03-29T07:37:29.999Z</time></trkpt><trkpt lat="45.912982258721755" lon="10.923241660147932"><ele>567.0</ele><time>2026-03-29T07:37:30.999Z</time></trkpt><trkpt lat="45.91310081014829" lon="10.923300038218976"><ele>567.0</ele><time>2026-03-29T07:37:31.999Z</time></trkpt><trkpt lat="45.91323956247456" lon="10.923335607370118"><ele>567.0</ele><time>2026-03-29T07:37:32.999Z</time></trkpt><trkpt lat="45.91338843192039" lon="10.923381011637415"><ele>567.0</ele><time>2026-03-29T07:37:33.999Z</time></trkpt><trkpt lat="45.913526680502876" lon="10.92343059937945"><ele>567.0</ele><time>2026-03-29T07:37:34.999Z</time></trkpt><trkpt lat="45.913646600067516" lon="10.923425739810067"><ele>567.1666666666666</ele><time>2026-03-29T07:37:35.999Z</time></trkpt><trkpt lat="45.91374394078261" lon="10.923408186824997"><ele>567.3333333333334</ele><time>2026-03-29T07:37:37Z</time></trkpt><trkpt lat="45.91382516766781" lon="10.923361311022877"><ele>567.5</ele><time>2026-03-29T07:37:38Z</time></trkpt><trkpt lat="45.91388740045637" lon="10.9233007385546"><ele>567.6666666666667</ele><time>2026-03-29T07:37:39Z</time></trkpt><trkpt lat="45.913951873668836" lon="10.92330884008806"><ele>567.8333333333334</ele><time>2026-03-29T07:37:40Z</time></trkpt><trkpt lat="45.91402563439844" lon="10.923366878557278"><ele>568.0</ele><time>2026-03-29T07:37:41Z</time></trkpt><trkpt lat="45.91409552406076" lon="10.923489364856282"><ele>571.4</ele><time>2026-03-29T07:37:42Z</time></trkpt><trkpt lat="45.91419954541916" lon="10.923573153184588"><ele>574.8</ele><time>2026-03-29T07:37:43Z</time></trkpt><trkpt lat="45.91428708497661" lon="10.923660276421456"><ele>578.2</ele><time>2026-03-29T07:37:44Z</time></trkpt><trkpt lat="45.914365508477374" lon="10.923684511893164"><ele>581.6</ele><time>2026-03-29T07:37:45Z</time></trkpt><trkpt lat="45.91443549817646" lon="10.923635460825595"><ele>585.0</ele><time>2026-03-29T07:37:46Z</time></trkpt><trkpt lat="45.91449949102538" lon="10.92352970730994"><ele>585.0</ele><time>2026-03-29T07:37:47Z</time></trkpt><trkpt lat="45.91457598208761" lon="10.923410702297224"><ele>585.0</ele><time>2026-03-29T07:37:48Z</time></trkpt><trkpt lat="45.914667812958065" lon="10.923412692665915"><ele>585.0</ele><time>2026-03-29T07:37:49Z</time></trkpt><trkpt lat="45.91474467510796" lon="10.92351600967321"><ele>585.0</ele><time>2026-03-29T07:37:51Z</time></trkpt><trkpt lat="45.914724640059234" lon="10.9236185486094"><ele>585.0</ele><time>2026-03-29T07:37:52Z</time></trkpt><trkpt lat="45.91463866764297" lon="10.923674195407614"><ele>585.0</ele><time>2026-03-29T07:37:53Z</time></trkpt><trkpt lat="45.914548057178116" lon="10.923687750767169"><ele>585.0</ele><time>2026-03-29T07:37:54Z</time></trkpt><trkpt lat="45.91444022591367" lon="10.92374961903112"><ele>585.0</ele><time>2026-03-29T07:37:55Z</time></trkpt><trkpt lat="45.91432014653387" lon="10.923810168937958"><ele>585.0</ele><time>2026-03-29T07:37:56Z</time></trkpt><trkpt lat="45.9141986164418" lon="10.92381455738395"><ele>588.25</ele><time>2026-03-29T07:37:57Z</time></trkpt><trkpt lat="45.9140818731257" lon="10.923762819802484"><ele>591.5</ele><time>2026-03-29T07:37:58Z</time></trkpt><trkpt lat="45.91393815020042" lon="10.923709940984935"><ele>594.75</ele><time>2026-03-29T07:37:59Z</time></trkpt><trkpt lat="45.91376623836969" lon="10.923649247691197"><ele>598.0</ele><time>2026-03-29T07:38:00Z</time></trkpt><trkpt lat="45.91363510933538" lon="10.923625590952065"><ele>598.0</ele><time>2026-03-29T07:38:01Z</time></trkpt><trkpt lat="45.913520293962485" lon="10.923631276066734"><ele>598.0</ele><time>2026-03-29T07:38:02Z</time></trkpt><trkpt lat="45.913381824420256" lon="10.923670884094422"><ele>598.0</ele><time>2026-03-29T07:38:03Z</time></trkpt><trkpt lat="45.913238534752736" lon="10.923704657844329"><ele>598.0</ele><time>2026-03-29T07:38:04Z</time></trkpt><trkpt lat="45.91310265307474" lon="10.923754245166046"><ele>600.25</ele><time>2026-03-29T07:38:05Z</time></trkpt><trkpt lat="45.91298046752151" lon="10.923812151430756"><ele>602.5</ele><time>2026-03-29T07:38:06Z</time></trkpt><trkpt lat="45.91285888495765" lon="10.923882468056682"><ele>604.75</ele><time>2026-03-29T07:38:07Z</time></trkpt><trkpt lat="45.91274308033809" lon="10.92399143348685"><ele>607.0</ele><time>2026-03-29T07:38:08Z</time></trkpt><trkpt lat="45.91260897518137" lon="10.92402427065375"><ele>606.25</ele><time>2026-03-29T07:38:09Z</time></trkpt><trkpt lat="45.912473117885455" lon="10.924048655796062"><ele>605.5</ele><time>2026-03-29T07:38:10Z</time></trkpt><trkpt lat="45.91233158257242" lon="10.924031459100856"><ele>604.75</ele><time>2026-03-29T07:38:11Z</time></trkpt><trkpt lat="45.912219234734664" lon="10.923941149747993"><ele>604.0</ele><time>2026-03-29T07:38:12Z</time></trkpt><trkpt lat="45.91210684475584" lon="10.923916881682523"><ele>604.0</ele><time>2026-03-29T07:38:13Z</time></trkpt><trkpt lat="45.91201458386999" lon="10.923948050694683"><ele>604.0</ele><time>2026-03-29T07:38:14Z</time></trkpt><trkpt lat="45.91193024583271" lon="10.924024552568971"><ele>604.0</ele><time>2026-03-29T07:38:15Z</time></trkpt><trkpt lat="45.91183790727398" lon="10.92415041369265"><ele>604.0</ele><time>2026-03-29T07:38:16Z</time></trkpt><trkpt lat="45.911711859937526" lon="10.924273963634446"><ele>608.6</ele><time>2026-03-29T07:38:17Z</time></trkpt><trkpt lat="45.911619724165405" lon="10.92435751151478"><ele>613.2</ele><time>2026-03-29T07:38:18Z</time></trkpt><trkpt lat="45.9115474221145" lon="10.924430600407602"><ele>617.8000000000001</ele><time>2026-03-29T07:38:19Z</time></trkpt><trkpt lat="45.91151891977669" lon="10.924562708535454"><ele>622.4</ele><time>2026-03-29T07:38:20Z</time></trkpt><trkpt lat="45.91147693503991" lon="10.924719120886987"><ele>627.0</ele><time>2026-03-29T07:38:21Z</time></trkpt><trkpt lat="45.91143147400827" lon="10.92489255373725"><ele>627.0</ele><time>2026-03-29T07:38:22Z</time></trkpt><trkpt lat="45.91135453306094" lon="10.92505432712754"><ele>627.0</ele><time>2026-03-29T07:38:23Z</time></trkpt><trkpt lat="45.91127264679924" lon="10.925156882007665"><ele>627.0</ele><time>2026-03-29T07:38:24Z</time></trkpt><trkpt lat="45.9112053575434" lon="10.925226747409141"><ele>627.0</ele><time>2026-03-29T07:38:25Z</time></trkpt><trkpt lat="45.91111998757996" lon="10.925224166833816"><ele>627.0</ele><time>2026-03-29T07:38:26Z</time></trkpt><trkpt lat="45.91103177628291" lon="10.925198507005433"><ele>632.75</ele><time>2026-03-29T07:38:27Z</time></trkpt><trkpt lat="45.9109281735057" lon="10.92514430786454"><ele>638.5</ele><time>2026-03-29T07:38:28Z</time></trkpt><trkpt lat="45.910802854968644" lon="10.925094151825114"><ele>644.25</ele><time>2026-03-29T07:38:29Z</time></trkpt><trkpt lat="45.91070407971099" lon="10.925100857559698"><ele>650.0</ele><time>2026-03-29T07:38:30Z</time></trkpt><trkpt lat="45.910589453345324" lon="10.925244377868117"><ele>650.0</ele><time>2026-03-29T07:38:31Z</time></trkpt><trkpt lat="45.91046960247278" lon="10.925334496928347"><ele>650.0</ele><time>2026-03-29T07:38:32Z</time></trkpt><trkpt lat="45.91037112603787" lon="10.925314222415839"><ele>650.0</ele><time>2026-03-29T07:38:33Z</time></trkpt><trkpt lat="45.91027732998357" lon="10.92529948308258"><ele>650.0</ele><time>2026-03-29T07:38:34Z</time></trkpt><trkpt lat="45.91019331842641" lon="10.925277922318733"><ele>650.0</ele><time>2026-03-29T07:38:35Z</time></trkpt><trkpt lat="45.91009272711328" lon="10.925159847430546"><ele>648.25</ele><time>2026-03-29T07:38:37Z</time></trkpt><trkpt lat="45.910057903056085" lon="10.92503762449679"><ele>646.5</ele><time>2026-03-29T07:38:38Z</time></trkpt><trkpt lat="45.91000190310323" lon="10.92488266126724"><ele>644.75</ele><time>2026-03-29T07:38:39Z</time></trkpt><trkpt lat="45.909950120967146" lon="10.924709666547622"><ele>643.0</ele><time>2026-03-29T07:38:40Z</time></trkpt><trkpt lat="45.90991539067584" lon="10.924490380400492"><ele>643.0</ele><time>2026-03-29T07:38:41Z</time></trkpt><trkpt lat="45.90987807399862" lon="10.924358085645206"><ele>643.0</ele><time>2026-03-29T07:38:42Z</time></trkpt><trkpt lat="45.90982776417755" lon="10.924234404185734"><ele>643.0</ele><time>2026-03-29T07:38:43Z</time></trkpt><trkpt lat="45.909774822441534" lon="10.924144235818167"><ele>643.0</ele><time>2026-03-29T07:38:44Z</time></trkpt><trkpt lat="45.90966925167782" lon="10.924105468330433"><ele>643.0</ele><time>2026-03-29T07:38:45Z</time></trkpt><trkpt lat="45.90957401616169" lon="10.924086564748585"><ele>646.75</ele><time>2026-03-29T07:38:46Z</time></trkpt><trkpt lat="45.9094656456498" lon="10.924066419602983"><ele>650.5</ele><time>2026-03-29T07:38:47Z</time></trkpt><trkpt lat="45.90934079935227" lon="10.924058361760967"><ele>654.25</ele><time>2026-03-29T07:38:48Z</time></trkpt><trkpt lat="45.90926642540933" lon="10.923948503890808"><ele>658.0</ele><time>2026-03-29T07:38:48.999Z</time></trkpt><trkpt lat="45.909177267898" lon="10.92384821284658"><ele>658.0</ele><time>2026-03-29T07:38:49.999Z</time></trkpt><trkpt lat="45.9090679078373" lon="10.923721865367517"><ele>658.0</ele><time>2026-03-29T07:38:50.999Z</time></trkpt><trkpt lat="45.908951015273125" lon="10.923576101780192"><ele>658.0</ele><time>2026-03-29T07:38:51.999Z</time></trkpt><trkpt lat="45.908837896203224" lon="10.92342377446008"><ele>650.0</ele><time>2026-03-29T07:38:52.999Z</time></trkpt><trkpt lat="45.90872327557968" lon="10.923249413690515"><ele>642.0</ele><time>2026-03-29T07:38:53.999Z</time></trkpt><trkpt lat="45.90860005442959" lon="10.923068454229501"><ele>634.0</ele><time>2026-03-29T07:38:54.999Z</time></trkpt><trkpt lat="45.90847034429025" lon="10.922887884992239"><ele>638.0</ele><time>2026-03-29T07:38:55.999Z</time></trkpt><trkpt lat="45.90832381968069" lon="10.92272480876793"><ele>642.0</ele><time>2026-03-29T07:38:56.999Z</time></trkpt><trkpt lat="45.90816478669312" lon="10.92258272465201"><ele>646.0</ele><time>2026-03-29T07:38:57.999Z</time></trkpt><trkpt lat="45.90802433187185" lon="10.922402418842362"><ele>646.0</ele><time>2026-03-29T07:38:58.999Z</time></trkpt><trkpt lat="45.90786294674116" lon="10.92226388513494"><ele>646.0</ele><time>2026-03-29T07:38:59.999Z</time></trkpt><trkpt lat="45.90771493026605" lon="10.922076970786947"><ele>646.0</ele><time>2026-03-29T07:39:00.999Z</time></trkpt><trkpt lat="45.90754205668343" lon="10.921943248735987"><ele>649.3333333333334</ele><time>2026-03-29T07:39:01.999Z</time></trkpt><trkpt lat="45.90736985689176" lon="10.921798337051678"><ele>652.6666666666666</ele><time>2026-03-29T07:39:02.999Z</time></trkpt><trkpt lat="45.907224265193314" lon="10.921642818777912"><ele>656.0</ele><time>2026-03-29T07:39:03.999Z</time></trkpt><trkpt lat="45.90709084227406" lon="10.921524479701862"><ele>656.0</ele><time>2026-03-29T07:39:04.999Z</time></trkpt><trkpt lat="45.90693859086498" lon="10.92143117469691"><ele>656.0</ele><time>2026-03-29T07:39:05.999Z</time></trkpt><trkpt lat="45.90679037741175" lon="10.921307131278827"><ele>656.0</ele><time>2026-03-29T07:39:06.999Z</time></trkpt><trkpt lat="45.90661887455907" lon="10.921228469981735"><ele>657.6666666666666</ele><time>2026-03-29T07:39:07.999Z</time></trkpt><trkpt lat="45.906483758225946" lon="10.921060558691117"><ele>659.3333333333334</ele><time>2026-03-29T07:39:08.999Z</time></trkpt><trkpt lat="45.906347949659754" lon="10.920925904894654"><ele>661.0</ele><time>2026-03-29T07:39:09.999Z</time></trkpt><trkpt lat="45.90616660158888" lon="10.920762657468378"><ele>661.0</ele><time>2026-03-29T07:39:10.999Z</time></trkpt><trkpt lat="45.905985698813645" lon="10.920623436720538"><ele>661.0</ele><time>2026-03-29T07:39:11.999Z</time></trkpt><trkpt lat="45.90580412948968" lon="10.920483788274986"><ele>661.0</ele><time>2026-03-29T07:39:12.999Z</time></trkpt><trkpt lat="45.905659419796415" lon="10.920371815019253"><ele>669.75</ele><time>2026-03-29T07:39:13.999Z</time></trkpt><trkpt lat="45.905533910806696" lon="10.920300865121707"><ele>678.5</ele><time>2026-03-29T07:39:14.999Z</time></trkpt><trkpt lat="45.90544038947548" lon="10.920232757846629"><ele>687.25</ele><time>2026-03-29T07:39:15.999Z</time></trkpt><trkpt lat="45.90534079517037" lon="10.920205318060884"><ele>696.0</ele><time>2026-03-29T07:39:16.999Z</time></trkpt><trkpt lat="45.90521547825722" lon="10.920232477609494"><ele>701.8</ele><time>2026-03-29T07:39:17.999Z</time></trkpt><trkpt lat="45.905067013175056" lon="10.920243670370823"><ele>707.5999999999999</ele><time>2026-03-29T07:39:18.999Z</time></trkpt><trkpt lat="45.90495269904386" lon="10.920250628754326"><ele>713.4</ele><time>2026-03-29T07:39:19.999Z</time></trkpt><trkpt lat="45.90486500901367" lon="10.920280441772896"><ele>719.2</ele><time>2026-03-29T07:39:20.999Z</time></trkpt><trkpt lat="45.904798157583684" lon="10.920285947420771"><ele>725.0</ele><time>2026-03-29T07:39:21.999Z</time></trkpt><trkpt lat="45.904748931651724" lon="10.9201996395051"><ele>725.0</ele><time>2026-03-29T07:39:22.999Z</time></trkpt><trkpt lat="45.90475066566402" lon="10.920089563603783"><ele>725.0</ele><time>2026-03-29T07:39:23.999Z</time></trkpt><trkpt lat="45.90472472804874" lon="10.919965872747001"><ele>725.0</ele><time>2026-03-29T07:39:24.999Z</time></trkpt><trkpt lat="45.904680435036184" lon="10.919822287176736"><ele>725.0</ele><time>2026-03-29T07:39:25.999Z</time></trkpt><trkpt lat="45.904638123371" lon="10.919656811652132"><ele>725.0</ele><time>2026-03-29T07:39:26.999Z</time></trkpt><trkpt lat="45.90458976176523" lon="10.919537715686184"><ele>720.5</ele><time>2026-03-29T07:39:27.999Z</time></trkpt><trkpt lat="45.904496545063104" lon="10.919466611574462"><ele>716.0</ele><time>2026-03-29T07:39:28.999Z</time></trkpt><trkpt lat="45.90441024294033" lon="10.919356793391877"><ele>711.5</ele><time>2026-03-29T07:39:29.999Z</time></trkpt><trkpt lat="45.90430621877301" lon="10.919265054534732"><ele>707.0</ele><time>2026-03-29T07:39:30.999Z</time></trkpt><trkpt lat="45.90417886273759" lon="10.919161207748374"><ele>707.0</ele><time>2026-03-29T07:39:31.999Z</time></trkpt><trkpt lat="45.90404900244729" lon="10.919060745627377"><ele>707.0</ele><time>2026-03-29T07:39:32.999Z</time></trkpt><trkpt lat="45.90391409330856" lon="10.918945838643825"><ele>707.0</ele><time>2026-03-29T07:39:33.999Z</time></trkpt><trkpt lat="45.90376394341586" lon="10.918828788529789"><ele>707.0</ele><time>2026-03-29T07:39:34.999Z</time></trkpt><trkpt lat="45.90360801178459" lon="10.91872900392479"><ele>707.0</ele><time>2026-03-29T07:39:35.999Z</time></trkpt><trkpt lat="45.90343792705154" lon="10.918628834734811"><ele>707.0</ele><time>2026-03-29T07:39:36.999Z</time></trkpt><trkpt lat="45.90328769926443" lon="10.918499039715869"><ele>707.25</ele><time>2026-03-29T07:39:37.999Z</time></trkpt><trkpt lat="45.90315545735512" lon="10.918425557003099"><ele>707.5</ele><time>2026-03-29T07:39:38.999Z</time></trkpt><trkpt lat="45.90302113473002" lon="10.918335770816826"><ele>707.75</ele><time>2026-03-29T07:39:39.999Z</time></trkpt><trkpt lat="45.902877090827005" lon="10.918274727922253"><ele>708.0</ele><time>2026-03-29T07:39:40.999Z</time></trkpt><trkpt lat="45.90273152714974" lon="10.918216399763477"><ele>708.0</ele><time>2026-03-29T07:39:41.999Z</time></trkpt><trkpt lat="45.90260472222433" lon="10.918174334639895"><ele>708.0</ele><time>2026-03-29T07:39:43Z</time></trkpt><trkpt lat="45.90250604836429" lon="10.918139433067196"><ele>708.0</ele><time>2026-03-29T07:39:44Z</time></trkpt><trkpt lat="45.90243135698676" lon="10.918117885220806"><ele>708.0</ele><time>2026-03-29T07:39:45Z</time></trkpt><trkpt lat="45.90232975441289" lon="10.918182982270633"><ele>708.0</ele><time>2026-03-29T07:39:47Z</time></trkpt><trkpt lat="45.90236712730538" lon="10.918331146031665"><ele>714.75</ele><time>2026-03-29T07:39:48Z</time></trkpt><trkpt lat="45.90243498985097" lon="10.918395650801624"><ele>721.5</ele><time>2026-03-29T07:39:49Z</time></trkpt><trkpt lat="45.90254477517797" lon="10.918428179973377"><ele>728.25</ele><time>2026-03-29T07:39:50Z</time></trkpt><trkpt lat="45.90266709015582" lon="10.918467309255043"><ele>735.0</ele><time>2026-03-29T07:39:51Z</time></trkpt><trkpt lat="45.90280149626898" lon="10.918559892069231"><ele>736.6666666666666</ele><time>2026-03-29T07:39:52Z</time></trkpt><trkpt lat="45.90294276111222" lon="10.91868127955875"><ele>738.3333333333333</ele><time>2026-03-29T07:39:53Z</time></trkpt><trkpt lat="45.90309528467353" lon="10.918792018744867"><ele>740.0</ele><time>2026-03-29T07:39:54Z</time></trkpt><trkpt lat="45.90322511200941" lon="10.91892509486004"><ele>740.0</ele><time>2026-03-29T07:39:55Z</time></trkpt><trkpt lat="45.90336529367341" lon="10.919116704487143"><ele>740.0</ele><time>2026-03-29T07:39:56Z</time></trkpt><trkpt lat="45.90351956104751" lon="10.919325018522148"><ele>740.0</ele><time>2026-03-29T07:39:57Z</time></trkpt><trkpt lat="45.903658264145086" lon="10.919506038762577"><ele>740.0</ele><time>2026-03-29T07:39:58Z</time></trkpt><trkpt lat="45.903770101271725" lon="10.919657401963315"><ele>740.0</ele><time>2026-03-29T07:39:59Z</time></trkpt><trkpt lat="45.903870269808735" lon="10.919819932275304"><ele>740.0</ele><time>2026-03-29T07:40:00Z</time></trkpt><trkpt lat="45.903938293143604" lon="10.920021717564577"><ele>748.6666666666666</ele><time>2026-03-29T07:40:01Z</time></trkpt><trkpt lat="45.904026594580614" lon="10.920225363385777"><ele>757.3333333333334</ele><time>2026-03-29T07:40:02Z</time></trkpt><trkpt lat="45.904134251629074" lon="10.9204370278069"><ele>766.0</ele><time>2026-03-29T07:40:03Z</time></trkpt><trkpt lat="45.90422426874534" lon="10.92067307723046"><ele>764.6666666666667</ele><time>2026-03-29T07:40:04Z</time></trkpt><trkpt lat="45.90429342970245" lon="10.92094611505895"><ele>763.3333333333334</ele><time>2026-03-29T07:40:05Z</time></trkpt><trkpt lat="45.90437582368979" lon="10.92115457884591"><ele>762.0</ele><time>2026-03-29T07:40:06Z</time></trkpt><trkpt lat="45.90445270092018" lon="10.921316346293898"><ele>762.0</ele><time>2026-03-29T07:40:07Z</time></trkpt><trkpt lat="45.904529955325984" lon="10.92144316067502"><ele>762.0</ele><time>2026-03-29T07:40:08Z</time></trkpt><trkpt lat="45.90458607429501" lon="10.921547558801443"><ele>762.0</ele><time>2026-03-29T07:40:09Z</time></trkpt><trkpt lat="45.9046513806398" lon="10.921602598485256"><ele>762.0</ele><time>2026-03-29T07:40:10Z</time></trkpt><trkpt lat="45.90472893363197" lon="10.921566324003514"><ele>762.0</ele><time>2026-03-29T07:40:11Z</time></trkpt><trkpt lat="45.904818802939836" lon="10.921576920531974"><ele>762.0</ele><time>2026-03-29T07:40:12Z</time></trkpt><trkpt lat="45.9048967721336" lon="10.921658360898371"><ele>762.0</ele><time>2026-03-29T07:40:13Z</time></trkpt><trkpt lat="45.904967927788526" lon="10.921780095700365"><ele>762.0</ele><time>2026-03-29T07:40:14Z</time></trkpt><trkpt lat="45.90505840039761" lon="10.92191080038115"><ele>762.0</ele><time>2026-03-29T07:40:15Z</time></trkpt><trkpt lat="45.905179166116746" lon="10.922014415420017"><ele>760.75</ele><time>2026-03-29T07:40:16Z</time></trkpt><trkpt lat="45.905245899695295" lon="10.922130638756592"><ele>759.5</ele><time>2026-03-29T07:40:17Z</time></trkpt><trkpt lat="45.905321013677394" lon="10.922292400102041"><ele>758.25</ele><time>2026-03-29T07:40:18Z</time></trkpt><trkpt lat="45.90540410792779" lon="10.922499294658985"><ele>757.0</ele><time>2026-03-29T07:40:19Z</time></trkpt><trkpt lat="45.90547157674632" lon="10.922716322790114"><ele>766.3333333333334</ele><time>2026-03-29T07:40:20Z</time></trkpt><trkpt lat="45.90556245370223" lon="10.922926101276563"><ele>775.6666666666667</ele><time>2026-03-29T07:40:21Z</time></trkpt><trkpt lat="45.9056386420576" lon="10.923110042781502"><ele>785.0</ele><time>2026-03-29T07:40:22Z</time></trkpt><trkpt lat="45.90574948158451" lon="10.923286045572874"><ele>781.0</ele><time>2026-03-29T07:40:23Z</time></trkpt><trkpt lat="45.90588382095819" lon="10.923452461397442"><ele>777.0</ele><time>2026-03-29T07:40:24Z</time></trkpt><trkpt lat="45.90599821781118" lon="10.92357362542564"><ele>773.0</ele><time>2026-03-29T07:40:25Z</time></trkpt><trkpt lat="45.90614376105466" lon="10.9236923293187"><ele>773.0</ele><time>2026-03-29T07:40:26Z</time></trkpt><trkpt lat="45.906194718488905" lon="10.923804444690624"><ele>773.0</ele><time>2026-03-29T07:40:27Z</time></trkpt><trkpt lat="45.90625337458375" lon="10.923962392722611"><ele>773.0</ele><time>2026-03-29T07:40:28Z</time></trkpt><trkpt lat="45.906322434681066" lon="10.924142837216289"><ele>773.0</ele><time>2026-03-29T07:40:29Z</time></trkpt><trkpt lat="45.90640616270148" lon="10.924352633622513"><ele>781.3333333333334</ele><time>2026-03-29T07:40:30Z</time></trkpt><trkpt lat="45.90650512891059" lon="10.924613824520296"><ele>789.6666666666667</ele><time>2026-03-29T07:40:31Z</time></trkpt><trkpt lat="45.90661004655383" lon="10.924886317855846"><ele>798.0</ele><time>2026-03-29T07:40:32Z</time></trkpt><trkpt lat="45.90672688512102" lon="10.925177520820643"><ele>790.5</ele><time>2026-03-29T07:40:33Z</time></trkpt><trkpt lat="45.906852358576785" lon="10.925460944128869"><ele>783.0</ele><time>2026-03-29T07:40:34Z</time></trkpt><trkpt lat="45.90696060858208" lon="10.925764966918157"><ele>790.0</ele><time>2026-03-29T07:40:35Z</time></trkpt><trkpt lat="45.90704641206826" lon="10.926016070959175"><ele>797.0</ele><time>2026-03-29T07:40:36Z</time></trkpt><trkpt lat="45.907124832507265" lon="10.926250835636166"><ele>804.0</ele><time>2026-03-29T07:40:37Z</time></trkpt><trkpt lat="45.90719756260625" lon="10.92643895972117"><ele>804.0</ele><time>2026-03-29T07:40:38Z</time></trkpt><trkpt lat="45.90725247615082" lon="10.926583669725753"><ele>804.0</ele><time>2026-03-29T07:40:39Z</time></trkpt><trkpt lat="45.90731149292643" lon="10.926748473363892"><ele>804.0</ele><time>2026-03-29T07:40:40Z</time></trkpt><trkpt lat="45.90735493767032" lon="10.926894348292546"><ele>804.0</ele><time>2026-03-29T07:40:41Z</time></trkpt><trkpt lat="45.90737614858291" lon="10.927055346597035"><ele>808.0</ele><time>2026-03-29T07:40:42Z</time></trkpt><trkpt lat="45.907391929048295" lon="10.927248778960273"><ele>812.0</ele><time>2026-03-29T07:40:43Z</time></trkpt><trkpt lat="45.90738875991613" lon="10.927475719536185"><ele>816.0</ele><time>2026-03-29T07:40:44Z</time></trkpt><trkpt lat="45.907410226221856" lon="10.9276246600356"><ele>820.0</ele><time>2026-03-29T07:40:45Z</time></trkpt><trkpt lat="45.9074922965321" lon="10.927784866417209"><ele>818.0</ele><time>2026-03-29T07:40:46Z</time></trkpt><trkpt lat="45.90754984482878" lon="10.927994890796743"><ele>816.0</ele><time>2026-03-29T07:40:47Z</time></trkpt><trkpt lat="45.90761859227289" lon="10.92819173570694"><ele>814.0</ele><time>2026-03-29T07:40:48Z</time></trkpt><trkpt lat="45.90769836408942" lon="10.928411723168104"><ele>814.0</ele><time>2026-03-29T07:40:49Z</time></trkpt><trkpt lat="45.907797526130786" lon="10.928612043184353"><ele>814.0</ele><time>2026-03-29T07:40:50Z</time></trkpt><trkpt lat="45.9078991576209" lon="10.928804542966532"><ele>814.0</ele><time>2026-03-29T07:40:51Z</time></trkpt><trkpt lat="45.90794998142317" lon="10.928993587052002"><ele>814.0</ele><time>2026-03-29T07:40:52Z</time></trkpt><trkpt lat="45.908025840325564" lon="10.929134792265696"><ele>814.0</ele><time>2026-03-29T07:40:53Z</time></trkpt><trkpt lat="45.90807503222453" lon="10.929256200839825"><ele>814.0</ele><time>2026-03-29T07:40:54Z</time></trkpt><trkpt lat="45.908093739309564" lon="10.929399655065449"><ele>814.0</ele><time>2026-03-29T07:40:55.999Z</time></trkpt><trkpt lat="45.908009818341235" lon="10.929381649414053"><ele>814.0</ele><time>2026-03-29T07:40:57.999Z</time></trkpt><trkpt lat="45.90795886088528" lon="10.929200067505894"><ele>814.0</ele><time>2026-03-29T07:40:59.999Z</time></trkpt><trkpt lat="45.90790659825948" lon="10.929058836438303"><ele>814.0</ele><time>2026-03-29T07:41:00.999Z</time></trkpt><trkpt lat="45.90782411928832" lon="10.928901336837333"><ele>814.0</ele><time>2026-03-29T07:41:01.999Z</time></trkpt><trkpt lat="45.907703620886345" lon="10.928749947117701"><ele>814.0</ele><time>2026-03-29T07:41:02.999Z</time></trkpt><trkpt lat="45.907562737375954" lon="10.928570767241146"><ele>821.3333333333333</ele><time>2026-03-29T07:41:03.999Z</time></trkpt><trkpt lat="45.907442846482624" lon="10.928334079809366"><ele>828.6666666666667</ele><time>2026-03-29T07:41:04.999Z</time></trkpt><trkpt lat="45.90729949926553" lon="10.928121275712105"><ele>836.0</ele><time>2026-03-29T07:41:05.999Z</time></trkpt><trkpt lat="45.90716972375371" lon="10.927850490298828"><ele>836.0</ele><time>2026-03-29T07:41:06.999Z</time></trkpt><trkpt lat="45.90706833496033" lon="10.927605744439369"><ele>836.0</ele><time>2026-03-29T07:41:07.999Z</time></trkpt><trkpt lat="45.90696642654409" lon="10.927348915417516"><ele>836.0</ele><time>2026-03-29T07:41:08.999Z</time></trkpt><trkpt lat="45.90685561476575" lon="10.927150724497693"><ele>840.6666666666667</ele><time>2026-03-29T07:41:09.999Z</time></trkpt><trkpt lat="45.90672459773792" lon="10.926944049429924"><ele>845.3333333333333</ele><time>2026-03-29T07:41:10.999Z</time></trkpt><trkpt lat="45.90659930836486" lon="10.926735650027588"><ele>850.0</ele><time>2026-03-29T07:41:11.999Z</time></trkpt><trkpt lat="45.906451390012684" lon="10.926540586231074"><ele>850.0</ele><time>2026-03-29T07:41:12.999Z</time></trkpt><trkpt lat="45.90632883327999" lon="10.926320472077585"><ele>850.0</ele><time>2026-03-29T07:41:13.999Z</time></trkpt><trkpt lat="45.90620239387474" lon="10.926082006330311"><ele>850.0</ele><time>2026-03-29T07:41:14.999Z</time></trkpt><trkpt lat="45.906073791778795" lon="10.925890984345733"><ele>857.3333333333333</ele><time>2026-03-29T07:41:15.999Z</time></trkpt><trkpt lat="45.905969593560066" lon="10.9257040203143"><ele>864.6666666666667</ele><time>2026-03-29T07:41:16.999Z</time></trkpt><trkpt lat="45.90586646440889" lon="10.925524029585498"><ele>872.0</ele><time>2026-03-29T07:41:17.999Z</time></trkpt><trkpt lat="45.90576696992015" lon="10.925328227509118"><ele>872.0</ele><time>2026-03-29T07:41:18.999Z</time></trkpt><trkpt lat="45.905621983238525" lon="10.925127382230615"><ele>872.0</ele><time>2026-03-29T07:41:19.999Z</time></trkpt><trkpt lat="45.90549718829602" lon="10.924908501037805"><ele>872.0</ele><time>2026-03-29T07:41:20.999Z</time></trkpt><trkpt lat="45.905378230439815" lon="10.924774680762381"><ele>878.3333333333334</ele><time>2026-03-29T07:41:21.999Z</time></trkpt><trkpt lat="45.90527772432859" lon="10.92462155893784"><ele>884.6666666666667</ele><time>2026-03-29T07:41:22.999Z</time></trkpt><trkpt lat="45.905141370365314" lon="10.924515408875726"><ele>891.0</ele><time>2026-03-29T07:41:23.999Z</time></trkpt><trkpt lat="45.90497854941277" lon="10.924394209086511"><ele>881.0</ele><time>2026-03-29T07:41:24.999Z</time></trkpt><trkpt lat="45.90485824932704" lon="10.924224135182069"><ele>871.0</ele><time>2026-03-29T07:41:25.999Z</time></trkpt><trkpt lat="45.90469686994817" lon="10.924053527863729"><ele>861.0</ele><time>2026-03-29T07:41:26.999Z</time></trkpt><trkpt lat="45.904532145496844" lon="10.923891405367417"><ele>861.0</ele><time>2026-03-29T07:41:27.999Z</time></trkpt><trkpt lat="45.904380438587744" lon="10.923758458457472"><ele>861.0</ele><time>2026-03-29T07:41:28.999Z</time></trkpt><trkpt lat="45.90427232661009" lon="10.923672539362455"><ele>861.0</ele><time>2026-03-29T07:41:29.999Z</time></trkpt><trkpt lat="45.90418214942596" lon="10.923563609809264"><ele>861.0</ele><time>2026-03-29T07:41:30.999Z</time></trkpt><trkpt lat="45.90410695192004" lon="10.923489980984938"><ele>868.0</ele><time>2026-03-29T07:41:31.999Z</time></trkpt><trkpt lat="45.90405260155911" lon="10.923441099862247"><ele>874.9999999999999</ele><time>2026-03-29T07:41:32.999Z</time></trkpt><trkpt lat="45.903980555296684" lon="10.923571752668138"><ele>881.9999999999999</ele><time>2026-03-29T07:41:34.999Z</time></trkpt><trkpt lat="45.9040254212281" lon="10.923663199480336"><ele>889.0</ele><time>2026-03-29T07:41:35.999Z</time></trkpt><trkpt lat="45.90409018000775" lon="10.923752588986165"><ele>896.0</ele><time>2026-03-29T07:41:36.999Z</time></trkpt><trkpt lat="45.904184012501986" lon="10.923846473769526"><ele>894.3333333333334</ele><time>2026-03-29T07:41:37.999Z</time></trkpt><trkpt lat="45.90427691872222" lon="10.923974572228635"><ele>892.6666666666667</ele><time>2026-03-29T07:41:38.999Z</time></trkpt><trkpt lat="45.904373194989326" lon="10.924148098057067"><ele>891.0</ele><time>2026-03-29T07:41:39.999Z</time></trkpt><trkpt lat="45.90447957413899" lon="10.924346678108167"><ele>891.0</ele><time>2026-03-29T07:41:40.999Z</time></trkpt><trkpt lat="45.904590551906296" lon="10.924554542026826"><ele>891.0</ele><time>2026-03-29T07:41:41.999Z</time></trkpt><trkpt lat="45.90470608666042" lon="10.924769973800975"><ele>891.0</ele><time>2026-03-29T07:41:42.999Z</time></trkpt><trkpt lat="45.90484734620028" lon="10.924974916194966"><ele>884.6666666666667</ele><time>2026-03-29T07:41:43.999Z</time></trkpt><trkpt lat="45.90499589187143" lon="10.925173255893522"><ele>878.3333333333334</ele><time>2026-03-29T07:41:44.999Z</time></trkpt><trkpt lat="45.90511369781298" lon="10.925333223565453"><ele>872.0</ele><time>2026-03-29T07:41:45.999Z</time></trkpt><trkpt lat="45.9052331202149" lon="10.925499546661813"><ele>872.0</ele><time>2026-03-29T07:41:46.999Z</time></trkpt><trkpt lat="45.905341998073" lon="10.925673010768355"><ele>872.0</ele><time>2026-03-29T07:41:47.999Z</time></trkpt><trkpt lat="45.90541932421491" lon="10.925832010568316"><ele>872.0</ele><time>2026-03-29T07:41:49Z</time></trkpt><trkpt lat="45.90548449296424" lon="10.92599874929689"><ele>872.0</ele><time>2026-03-29T07:41:50Z</time></trkpt><trkpt lat="45.90550455072134" lon="10.926189575570532"><ele>878.0</ele><time>2026-03-29T07:41:51Z</time></trkpt><trkpt lat="45.905565286152196" lon="10.926353312873305"><ele>884.0</ele><time>2026-03-29T07:41:52Z</time></trkpt><trkpt lat="45.90560503297979" lon="10.926513866511451"><ele>890.0</ele><time>2026-03-29T07:41:53Z</time></trkpt><trkpt lat="45.90565712814231" lon="10.926644547632847"><ele>896.0</ele><time>2026-03-29T07:41:54Z</time></trkpt><trkpt lat="45.90570542147507" lon="10.926738758964976"><ele>902.0</ele><time>2026-03-29T07:41:55Z</time></trkpt><trkpt lat="45.90575329886508" lon="10.926803326415257"><ele>902.0</ele><time>2026-03-29T07:41:56Z</time></trkpt><trkpt lat="45.905758792760274" lon="10.926917615635633"><ele>902.0</ele><time>2026-03-29T07:41:58Z</time></trkpt><trkpt lat="45.905665304977106" lon="10.926872684778255"><ele>902.0</ele><time>2026-03-29T07:42:00Z</time></trkpt><trkpt lat="45.90562725493938" lon="10.926698037264503"><ele>902.0</ele><time>2026-03-29T07:42:02Z</time></trkpt><trkpt lat="45.90557738151622" lon="10.92655957974264"><ele>902.0</ele><time>2026-03-29T07:42:03Z</time></trkpt><trkpt lat="45.90549552120636" lon="10.926396629725645"><ele>902.0</ele><time>2026-03-29T07:42:04Z</time></trkpt><trkpt lat="45.90539791304282" lon="10.926208909319243"><ele>902.0</ele><time>2026-03-29T07:42:05Z</time></trkpt><trkpt lat="45.90530590946467" lon="10.926035732440162"><ele>902.0</ele><time>2026-03-29T07:42:06Z</time></trkpt><trkpt lat="45.90519505169503" lon="10.925875661770924"><ele>909.0</ele><time>2026-03-29T07:42:07Z</time></trkpt><trkpt lat="45.90507532449012" lon="10.925713949781986"><ele>916.0</ele><time>2026-03-29T07:42:08Z</time></trkpt><trkpt lat="45.90494433858825" lon="10.925572347755583"><ele>923.0</ele><time>2026-03-29T07:42:09Z</time></trkpt><trkpt lat="45.904774135545686" lon="10.925434494597127"><ele>923.0</ele><time>2026-03-29T07:42:10Z</time></trkpt><trkpt lat="45.90460862334268" lon="10.92530329274831"><ele>923.0</ele><time>2026-03-29T07:42:11Z</time></trkpt><trkpt lat="45.90443155182858" lon="10.92517743292856"><ele>923.0</ele><time>2026-03-29T07:42:12Z</time></trkpt><trkpt lat="45.9042503428988" lon="10.925045093916003"><ele>923.6666666666667</ele><time>2026-03-29T07:42:13Z</time></trkpt><trkpt lat="45.90406575328616" lon="10.924923757656927"><ele>924.3333333333333</ele><time>2026-03-29T07:42:14Z</time></trkpt><trkpt lat="45.90387115580054" lon="10.92479389323534"><ele>925.0</ele><time>2026-03-29T07:42:15Z</time></trkpt><trkpt lat="45.903697294957205" lon="10.924675659219606"><ele>925.0</ele><time>2026-03-29T07:42:16Z</time></trkpt><trkpt lat="45.903560526210825" lon="10.924529767923556"><ele>925.0</ele><time>2026-03-29T07:42:17Z</time></trkpt><trkpt lat="45.90343813529571" lon="10.924397052903897"><ele>925.0</ele><time>2026-03-29T07:42:18Z</time></trkpt><trkpt lat="45.90332751787317" lon="10.924300572097998"><ele>932.4</ele><time>2026-03-29T07:42:19Z</time></trkpt><trkpt lat="45.90324049503028" lon="10.924264046821591"><ele>939.8</ele><time>2026-03-29T07:42:20Z</time></trkpt><trkpt lat="45.903160622140014" lon="10.924244153540455"><ele>947.2</ele><time>2026-03-29T07:42:21Z</time></trkpt><trkpt lat="45.90305371257838" lon="10.92429740020378"><ele>954.6</ele><time>2026-03-29T07:42:22Z</time></trkpt><trkpt lat="45.90292735306415" lon="10.924380346893596"><ele>962.0</ele><time>2026-03-29T07:42:23Z</time></trkpt><trkpt lat="45.90280515276642" lon="10.924435791515842"><ele>962.0000000000001</ele><time>2026-03-29T07:42:24Z</time></trkpt><trkpt lat="45.90272633434262" lon="10.924468330842487"><ele>962.0</ele><time>2026-03-29T07:42:25Z</time></trkpt><trkpt lat="45.902668163535054" lon="10.924425290732879"><ele>962.0</ele><time>2026-03-29T07:42:26Z</time></trkpt><trkpt lat="45.90271184683434" lon="10.924253758156034"><ele>962.0</ele><time>2026-03-29T07:42:28Z</time></trkpt><trkpt lat="45.90269580123741" lon="10.924148205820998"><ele>962.0000000000001</ele><time>2026-03-29T07:42:29Z</time></trkpt><trkpt lat="45.90267119690134" lon="10.924049783514112"><ele>962.0</ele><time>2026-03-29T07:42:30Z</time></trkpt><trkpt lat="45.902583649113396" lon="10.923894438297147"><ele>961.25</ele><time>2026-03-29T07:42:31Z</time></trkpt><trkpt lat="45.90251986478601" lon="10.92377560585995"><ele>960.5</ele><time>2026-03-29T07:42:32Z</time></trkpt><trkpt lat="45.90242034552071" lon="10.923701668053052"><ele>959.75</ele><time>2026-03-29T07:42:33Z</time></trkpt><trkpt lat="45.9022871134147" lon="10.923658931998002"><ele>959.0</ele><time>2026-03-29T07:42:34Z</time></trkpt><trkpt lat="45.902178562705295" lon="10.923539926418739"><ele>959.0</ele><time>2026-03-29T07:42:35Z</time></trkpt><trkpt lat="45.902071336639494" lon="10.923399819331964"><ele>959.0</ele><time>2026-03-29T07:42:36Z</time></trkpt><trkpt lat="45.90193255198249" lon="10.923222265126382"><ele>959.0</ele><time>2026-03-29T07:42:37Z</time></trkpt><trkpt lat="45.901808114331686" lon="10.923045787060953"><ele>961.25</ele><time>2026-03-29T07:42:38Z</time></trkpt><trkpt lat="45.90173217050185" lon="10.922879670390452"><ele>963.5</ele><time>2026-03-29T07:42:39Z</time></trkpt><trkpt lat="45.90164924927396" lon="10.922749727027277"><ele>965.75</ele><time>2026-03-29T07:42:40Z</time></trkpt><trkpt lat="45.90155640583926" lon="10.922658854632553"><ele>968.0</ele><time>2026-03-29T07:42:41Z</time></trkpt><trkpt lat="45.90147970254808" lon="10.92257175145288"><ele>962.5</ele><time>2026-03-29T07:42:42Z</time></trkpt><trkpt lat="45.90140423165494" lon="10.922518927165232"><ele>957.0</ele><time>2026-03-29T07:42:43Z</time></trkpt><trkpt lat="45.90122781715011" lon="10.922503175233317"><ele>951.5</ele><time>2026-03-29T07:42:45Z</time></trkpt><trkpt lat="45.90109672132317" lon="10.922513658363597"><ele>946.0</ele><time>2026-03-29T07:42:46Z</time></trkpt><trkpt lat="45.90097530091295" lon="10.92249300466613"><ele>946.9999999999999</ele><time>2026-03-29T07:42:47Z</time></trkpt><trkpt lat="45.900890486060774" lon="10.922486924170641"><ele>948.0</ele><time>2026-03-29T07:42:48Z</time></trkpt><trkpt lat="45.90082381282848" lon="10.922512896874558"><ele>949.0</ele><time>2026-03-29T07:42:49Z</time></trkpt><trkpt lat="45.900761996257955" lon="10.922570883695116"><ele>950.0</ele><time>2026-03-29T07:42:50Z</time></trkpt><trkpt lat="45.90068180470674" lon="10.922668604898334"><ele>950.9999999999999</ele><time>2026-03-29T07:42:51Z</time></trkpt><trkpt lat="45.900630547991824" lon="10.92278204486044"><ele>952.0</ele><time>2026-03-29T07:42:52Z</time></trkpt><trkpt lat="45.9005733047202" lon="10.922882448760328"><ele>956.6</ele><time>2026-03-29T07:42:53Z</time></trkpt><trkpt lat="45.90053110511595" lon="10.92296988036586"><ele>961.2</ele><time>2026-03-29T07:42:54Z</time></trkpt><trkpt lat="45.90051946063699" lon="10.923070123828948"><ele>965.8</ele><time>2026-03-29T07:42:55Z</time></trkpt><trkpt lat="45.90053766901669" lon="10.923200864445953"><ele>970.4</ele><time>2026-03-29T07:42:56Z</time></trkpt><trkpt lat="45.900569354913316" lon="10.923352802294902"><ele>975.0</ele><time>2026-03-29T07:42:57Z</time></trkpt><trkpt lat="45.90059508309413" lon="10.923521593962402"><ele>975.0</ele><time>2026-03-29T07:42:58Z</time></trkpt><trkpt lat="45.90060832350036" lon="10.923663446451803"><ele>975.0</ele><time>2026-03-29T07:42:59Z</time></trkpt><trkpt lat="45.90063120893726" lon="10.923754857795485"><ele>975.0</ele><time>2026-03-29T07:43:00Z</time></trkpt><trkpt lat="45.9007167045277" lon="10.923757198840695"><ele>975.0</ele><time>2026-03-29T07:43:01.999Z</time></trkpt><trkpt lat="45.90075400280175" lon="10.923648561907132"><ele>975.0</ele><time>2026-03-29T07:43:02.999Z</time></trkpt><trkpt lat="45.9007331321642" lon="10.923508578931944"><ele>975.0</ele><time>2026-03-29T07:43:03.999Z</time></trkpt><trkpt lat="45.90073307739826" lon="10.923357202477233"><ele>975.0</ele><time>2026-03-29T07:43:04.999Z</time></trkpt><trkpt lat="45.90071706159421" lon="10.923186717211765"><ele>975.0</ele><time>2026-03-29T07:43:05.999Z</time></trkpt><trkpt lat="45.90071034173245" lon="10.923044809358743"><ele>975.0</ele><time>2026-03-29T07:43:06.999Z</time></trkpt><trkpt lat="45.90071858754774" lon="10.922934873486586"><ele>975.0</ele><time>2026-03-29T07:43:07.999Z</time></trkpt><trkpt lat="45.90078226532879" lon="10.922855061137676"><ele>975.0</ele><time>2026-03-29T07:43:08.999Z</time></trkpt><trkpt lat="45.90084953264337" lon="10.922761766917958"><ele>975.0</ele><time>2026-03-29T07:43:09.999Z</time></trkpt><trkpt lat="45.90090296375215" lon="10.922700589021312"><ele>975.0</ele><time>2026-03-29T07:43:10.999Z</time></trkpt><trkpt lat="45.90104089746129" lon="10.922725093599027"><ele>975.0</ele><time>2026-03-29T07:43:12.999Z</time></trkpt><trkpt lat="45.90113468168726" lon="10.922765143199557"><ele>975.0</ele><time>2026-03-29T07:43:13.999Z</time></trkpt><trkpt lat="45.90124880256217" lon="10.922812119192823"><ele>975.0</ele><time>2026-03-29T07:43:14.999Z</time></trkpt><trkpt lat="45.90136999839996" lon="10.922869907670437"><ele>973.6</ele><time>2026-03-29T07:43:15.999Z</time></trkpt><trkpt lat="45.90144386060506" lon="10.922931541054995"><ele>972.2</ele><time>2026-03-29T07:43:16.999Z</time></trkpt><trkpt lat="45.901493967997816" lon="10.923037509699837"><ele>970.8</ele><time>2026-03-29T07:43:17.999Z</time></trkpt><trkpt lat="45.901513447323396" lon="10.923175493605758"><ele>969.4</ele><time>2026-03-29T07:43:18.999Z</time></trkpt><trkpt lat="45.90154085714968" lon="10.923347753645915"><ele>968.0</ele><time>2026-03-29T07:43:19.999Z</time></trkpt><trkpt lat="45.90157514939857" lon="10.92353718771891"><ele>965.75</ele><time>2026-03-29T07:43:20.999Z</time></trkpt><trkpt lat="45.90166131801668" lon="10.923641225254347"><ele>963.5</ele><time>2026-03-29T07:43:21.999Z</time></trkpt><trkpt lat="45.90175523720843" lon="10.92373219147465"><ele>961.25</ele><time>2026-03-29T07:43:22.999Z</time></trkpt><trkpt lat="45.90186232638142" lon="10.923830381852012"><ele>959.0</ele><time>2026-03-29T07:43:23.999Z</time></trkpt><trkpt lat="45.90190155940288" lon="10.924012194178177"><ele>959.0</ele><time>2026-03-29T07:43:24.999Z</time></trkpt><trkpt lat="45.901953486402874" lon="10.924208188229096"><ele>959.0</ele><time>2026-03-29T07:43:25.999Z</time></trkpt><trkpt lat="45.90203495053873" lon="10.924418168616668"><ele>959.0</ele><time>2026-03-29T07:43:26.999Z</time></trkpt><trkpt lat="45.90212783974709" lon="10.924640228388073"><ele>963.0</ele><time>2026-03-29T07:43:27.999Z</time></trkpt><trkpt lat="45.902203034366984" lon="10.924835768185925"><ele>967.0</ele><time>2026-03-29T07:43:28.999Z</time></trkpt><trkpt lat="45.90223943254858" lon="10.925037652360446"><ele>971.0</ele><time>2026-03-29T07:43:29.999Z</time></trkpt><trkpt lat="45.902253017635275" lon="10.925241703605966"><ele>975.0</ele><time>2026-03-29T07:43:30.999Z</time></trkpt><trkpt lat="45.90227420137266" lon="10.925483547080638"><ele>979.6</ele><time>2026-03-29T07:43:31.999Z</time></trkpt><trkpt lat="45.90230272500003" lon="10.925673293770304"><ele>984.2</ele><time>2026-03-29T07:43:32.999Z</time></trkpt><trkpt lat="45.90233180912837" lon="10.925821591531843"><ele>988.8</ele><time>2026-03-29T07:43:33.999Z</time></trkpt><trkpt lat="45.90238096688496" lon="10.925927851796002"><ele>993.4</ele><time>2026-03-29T07:43:34.999Z</time></trkpt><trkpt lat="45.902439719512245" lon="10.92597957002151"><ele>998.0</ele><time>2026-03-29T07:43:35.999Z</time></trkpt><trkpt lat="45.90251857314666" lon="10.925969729256575"><ele>996.5999999999999</ele><time>2026-03-29T07:43:36.999Z</time></trkpt><trkpt lat="45.90259819579206" lon="10.925905438188149"><ele>995.1999999999999</ele><time>2026-03-29T07:43:37.999Z</time></trkpt><trkpt lat="45.90267925537055" lon="10.92580610701068"><ele>993.8</ele><time>2026-03-29T07:43:38.999Z</time></trkpt><trkpt lat="45.902784663371385" lon="10.925734490910248"><ele>992.4</ele><time>2026-03-29T07:43:39.999Z</time></trkpt><trkpt lat="45.90287282964988" lon="10.92570464765952"><ele>991.0</ele><time>2026-03-29T07:43:40.999Z</time></trkpt><trkpt lat="45.902983399526036" lon="10.925693577288875"><ele>990.9999999999999</ele><time>2026-03-29T07:43:42.999Z</time></trkpt><trkpt lat="45.90303757524466" lon="10.925758401594688"><ele>991.0</ele><time>2026-03-29T07:43:43.999Z</time></trkpt><trkpt lat="45.90310550781687" lon="10.925822420481913"><ele>991.0</ele><time>2026-03-29T07:43:44.999Z</time></trkpt><trkpt lat="45.903185927929044" lon="10.92589110247895"><ele>991.0</ele><time>2026-03-29T07:43:45.999Z</time></trkpt><trkpt lat="45.90326510325705" lon="10.925962855146"><ele>990.9999999999999</ele><time>2026-03-29T07:43:46.999Z</time></trkpt><trkpt lat="45.90335417552868" lon="10.92602574960702"><ele>991.0</ele><time>2026-03-29T07:43:47.999Z</time></trkpt><trkpt lat="45.903414591259335" lon="10.926151965092387"><ele>992.75</ele><time>2026-03-29T07:43:48.999Z</time></trkpt><trkpt lat="45.90346858955167" lon="10.92628691489944"><ele>994.5</ele><time>2026-03-29T07:43:49.999Z</time></trkpt><trkpt lat="45.90354349955035" lon="10.926437655456471"><ele>996.25</ele><time>2026-03-29T07:43:50.999Z</time></trkpt><trkpt lat="45.9036140344286" lon="10.926608174027125"><ele>998.0</ele><time>2026-03-29T07:43:51.999Z</time></trkpt><trkpt lat="45.90367913577844" lon="10.926773357713977"><ele>1003.5</ele><time>2026-03-29T07:43:52.999Z</time></trkpt><trkpt lat="45.90378559306222" lon="10.926889096709997"><ele>1009.0</ele><time>2026-03-29T07:43:53.999Z</time></trkpt><trkpt lat="45.90389977797978" lon="10.926986332294915"><ele>1014.5</ele><time>2026-03-29T07:43:55Z</time></trkpt><trkpt lat="45.904031373196496" lon="10.927052837226567"><ele>1020.0</ele><time>2026-03-29T07:43:56Z</time></trkpt><trkpt lat="45.90415984205085" lon="10.927131388082206"><ele>1017.5</ele><time>2026-03-29T07:43:57Z</time></trkpt><trkpt lat="45.904254374116555" lon="10.927224938746287"><ele>1015.0</ele><time>2026-03-29T07:43:58Z</time></trkpt><trkpt lat="45.90433854798299" lon="10.927348232116191"><ele>1012.5</ele><time>2026-03-29T07:43:59Z</time></trkpt><trkpt lat="45.90441500937257" lon="10.927499729711585"><ele>1010.0</ele><time>2026-03-29T07:44:00Z</time></trkpt><trkpt lat="45.904498359824025" lon="10.927655813454745"><ele>1010.0</ele><time>2026-03-29T07:44:01Z</time></trkpt><trkpt lat="45.9045659584037" lon="10.927849988139458"><ele>1010.0</ele><time>2026-03-29T07:44:02Z</time></trkpt><trkpt lat="45.90463871679652" lon="10.928032991506381"><ele>1010.0</ele><time>2026-03-29T07:44:03Z</time></trkpt><trkpt lat="45.90470524350218" lon="10.928158161733862"><ele>1010.0</ele><time>2026-03-29T07:44:04Z</time></trkpt><trkpt lat="45.904732232381484" lon="10.928266693327178"><ele>1012.4</ele><time>2026-03-29T07:44:05Z</time></trkpt><trkpt lat="45.90474606866758" lon="10.928395679162772"><ele>1014.8</ele><time>2026-03-29T07:44:06Z</time></trkpt><trkpt lat="45.904710811475816" lon="10.92855147282115"><ele>1017.2</ele><time>2026-03-29T07:44:07Z</time></trkpt><trkpt lat="45.90474653664033" lon="10.928708433616526"><ele>1019.6</ele><time>2026-03-29T07:44:08Z</time></trkpt><trkpt lat="45.90479863621554" lon="10.928871711232745"><ele>1022.0</ele><time>2026-03-29T07:44:09Z</time></trkpt><trkpt lat="45.904854250920586" lon="10.92904959007879"><ele>1022.0</ele><time>2026-03-29T07:44:10Z</time></trkpt><trkpt lat="45.90487762695236" lon="10.929190112301109"><ele>1022.0</ele><time>2026-03-29T07:44:11Z</time></trkpt><trkpt lat="45.90489286209293" lon="10.929337052549863"><ele>1022.0</ele><time>2026-03-29T07:44:12Z</time></trkpt><trkpt lat="45.9049126787664" lon="10.929445274809417"><ele>1022.0</ele><time>2026-03-29T07:44:13Z</time></trkpt><trkpt lat="45.9049369162477" lon="10.929602938117725"><ele>1022.0</ele><time>2026-03-29T07:44:15Z</time></trkpt><trkpt lat="45.90493809029378" lon="10.929749228320508"><ele>1022.0</ele><time>2026-03-29T07:44:17Z</time></trkpt><trkpt lat="45.90489390287707" lon="10.929671170736853"><ele>1022.0</ele><time>2026-03-29T07:47:15Z</time></trkpt><trkpt lat="45.90493654926206" lon="10.929592327909498"><ele>1022.0</ele><time>2026-03-29T07:47:18Z</time></trkpt><trkpt lat="45.90491490237639" lon="10.929439239352385"><ele>1022.0</ele><time>2026-03-29T07:47:20Z</time></trkpt><trkpt lat="45.90488219799775" lon="10.92925223014604"><ele>1022.0</ele><time>2026-03-29T07:47:22Z</time></trkpt><trkpt lat="45.904873997232215" lon="10.929132648496665"><ele>1022.0</ele><time>2026-03-29T07:47:23Z</time></trkpt><trkpt lat="45.904850765463635" lon="10.929003546373673"><ele>1022.0</ele><time>2026-03-29T07:47:24Z</time></trkpt><trkpt lat="45.90481750052315" lon="10.928867933408293"><ele>1022.0</ele><time>2026-03-29T07:47:25Z</time></trkpt><trkpt lat="45.90476791576322" lon="10.928730816518874"><ele>1022.0</ele><time>2026-03-29T07:47:26Z</time></trkpt><trkpt lat="45.90472942356819" lon="10.928567594483471"><ele>1022.0</ele><time>2026-03-29T07:47:27Z</time></trkpt><trkpt lat="45.90475184159326" lon="10.928422196737827"><ele>1019.0</ele><time>2026-03-29T07:47:28Z</time></trkpt><trkpt lat="45.904748642517475" lon="10.928245271334761"><ele>1016.0</ele><time>2026-03-29T07:47:29Z</time></trkpt><trkpt lat="45.904691809378015" lon="10.928089385775012"><ele>1013.0</ele><time>2026-03-29T07:47:30Z</time></trkpt><trkpt lat="45.90461234511441" lon="10.927899059859657"><ele>1010.0</ele><time>2026-03-29T07:47:31Z</time></trkpt><trkpt lat="45.904537354852785" lon="10.927684623729068"><ele>1013.3333333333334</ele><time>2026-03-29T07:47:32Z</time></trkpt><trkpt lat="45.9044275522736" lon="10.927466345409496"><ele>1016.6666666666667</ele><time>2026-03-29T07:47:33Z</time></trkpt><trkpt lat="45.904324548037984" lon="10.927287788440184"><ele>1020.0</ele><time>2026-03-29T07:47:34Z</time></trkpt><trkpt lat="45.9042250637169" lon="10.927143958398437"><ele>1020.0</ele><time>2026-03-29T07:47:35Z</time></trkpt><trkpt lat="45.90411881105673" lon="10.927034396694074"><ele>1020.0</ele><time>2026-03-29T07:47:36Z</time></trkpt><trkpt lat="45.90396459689957" lon="10.926927346898875"><ele>1020.0</ele><time>2026-03-29T07:47:37Z</time></trkpt><trkpt lat="45.90381292371012" lon="10.92685883575801"><ele>1012.6666666666667</ele><time>2026-03-29T07:47:38Z</time></trkpt><trkpt lat="45.903687730047274" lon="10.92672393447333"><ele>1005.3333333333334</ele><time>2026-03-29T07:47:39Z</time></trkpt><trkpt lat="45.90361319318574" lon="10.926545948782579"><ele>998.0</ele><time>2026-03-29T07:47:39.999Z</time></trkpt><trkpt lat="45.90352067463039" lon="10.926319798674031"><ele>998.0</ele><time>2026-03-29T07:47:40.999Z</time></trkpt><trkpt lat="45.9034403654664" lon="10.926128583295014"><ele>998.0</ele><time>2026-03-29T07:47:41.999Z</time></trkpt><trkpt lat="45.90335749814177" lon="10.9260078637365"><ele>998.0</ele><time>2026-03-29T07:47:42.999Z</time></trkpt><trkpt lat="45.903264712967804" lon="10.925883724961002"><ele>998.0</ele><time>2026-03-29T07:47:43.999Z</time></trkpt><trkpt lat="45.90313407760404" lon="10.925803383655506"><ele>996.25</ele><time>2026-03-29T07:47:44.999Z</time></trkpt><trkpt lat="45.902996134613446" lon="10.925696043646267"><ele>994.5</ele><time>2026-03-29T07:47:45.999Z</time></trkpt><trkpt lat="45.90289111799367" lon="10.925621997699974"><ele>992.75</ele><time>2026-03-29T07:47:46.999Z</time></trkpt><trkpt lat="45.90279384969711" lon="10.925616044620469"><ele>991.0</ele><time>2026-03-29T07:47:47.999Z</time></trkpt><trkpt lat="45.90268351778668" lon="10.925706238776913"><ele>992.4</ele><time>2026-03-29T07:47:48.999Z</time></trkpt><trkpt lat="45.90255679664762" lon="10.925784593479905"><ele>993.8</ele><time>2026-03-29T07:47:49.999Z</time></trkpt><trkpt lat="45.90246844786278" lon="10.92587261430853"><ele>995.1999999999999</ele><time>2026-03-29T07:47:50.999Z</time></trkpt><trkpt lat="45.902398460856375" lon="10.925940547595978"><ele>996.5999999999999</ele><time>2026-03-29T07:47:51.999Z</time></trkpt><trkpt lat="45.902326260240876" lon="10.925854748612453"><ele>998.0</ele><time>2026-03-29T07:47:52.999Z</time></trkpt><trkpt lat="45.902315604217144" lon="10.925732126379895"><ele>998.0</ele><time>2026-03-29T07:47:53.999Z</time></trkpt><trkpt lat="45.90231476404724" lon="10.925578511509732"><ele>998.0</ele><time>2026-03-29T07:47:54.999Z</time></trkpt><trkpt lat="45.902296999946664" lon="10.925366976306846"><ele>998.0</ele><time>2026-03-29T07:47:55.999Z</time></trkpt><trkpt lat="45.902275439386685" lon="10.925122349765259"><ele>998.0</ele><time>2026-03-29T07:47:56.999Z</time></trkpt><trkpt lat="45.90222845775913" lon="10.924846366319127"><ele>990.3333333333334</ele><time>2026-03-29T07:47:57.999Z</time></trkpt><trkpt lat="45.902145995057275" lon="10.924589974660998"><ele>982.6666666666667</ele><time>2026-03-29T07:47:58.999Z</time></trkpt><trkpt lat="45.90201714220582" lon="10.924334337150908"><ele>975.0</ele><time>2026-03-29T07:47:59.999Z</time></trkpt><trkpt lat="45.901948855651575" lon="10.924062732365623"><ele>971.0</ele><time>2026-03-29T07:48:00.999Z</time></trkpt><trkpt lat="45.90187467759661" lon="10.923825096462183"><ele>967.0</ele><time>2026-03-29T07:48:01.999Z</time></trkpt><trkpt lat="45.901790749582666" lon="10.923669382010663"><ele>963.0</ele><time>2026-03-29T07:48:02.999Z</time></trkpt><trkpt lat="45.901692531424004" lon="10.92358567874386"><ele>959.0</ele><time>2026-03-29T07:48:03.999Z</time></trkpt><trkpt lat="45.90159262794537" lon="10.923505005944184"><ele>961.25</ele><time>2026-03-29T07:48:04.999Z</time></trkpt><trkpt lat="45.901525712110626" lon="10.923382553621414"><ele>963.5</ele><time>2026-03-29T07:48:05.999Z</time></trkpt><trkpt lat="45.90155820164488" lon="10.923236567919114"><ele>965.75</ele><time>2026-03-29T07:48:07Z</time></trkpt><trkpt lat="45.90151610403348" lon="10.923029621022275"><ele>968.0</ele><time>2026-03-29T07:48:08Z</time></trkpt><trkpt lat="45.9014647623846" lon="10.922889436764414"><ele>968.0</ele><time>2026-03-29T07:48:09Z</time></trkpt><trkpt lat="45.90138067975087" lon="10.922794921207847"><ele>968.0</ele><time>2026-03-29T07:48:10Z</time></trkpt><trkpt lat="45.901286235750376" lon="10.922754086218916"><ele>968.0</ele><time>2026-03-29T07:48:11Z</time></trkpt><trkpt lat="45.90113879523498" lon="10.922701457802782"><ele>968.0</ele><time>2026-03-29T07:48:12Z</time></trkpt><trkpt lat="45.90098758606581" lon="10.922657169855244"><ele>969.4</ele><time>2026-03-29T07:48:13Z</time></trkpt><trkpt lat="45.90087338463176" lon="10.922619802339945"><ele>970.8</ele><time>2026-03-29T07:48:14Z</time></trkpt><trkpt lat="45.90078812535904" lon="10.922680545128518"><ele>972.2</ele><time>2026-03-29T07:48:15Z</time></trkpt><trkpt lat="45.900736349600024" lon="10.922823200102016"><ele>973.6</ele><time>2026-03-29T07:48:16Z</time></trkpt><trkpt lat="45.90066685731746" lon="10.922966864969078"><ele>975.0</ele><time>2026-03-29T07:48:17Z</time></trkpt><trkpt lat="45.90064870852469" lon="10.923084959573147"><ele>975.0</ele><time>2026-03-29T07:48:18Z</time></trkpt><trkpt lat="45.9006709423663" lon="10.923227885451169"><ele>975.0</ele><time>2026-03-29T07:48:19Z</time></trkpt><trkpt lat="45.90068690011487" lon="10.923462484468017"><ele>975.0</ele><time>2026-03-29T07:48:20Z</time></trkpt><trkpt lat="45.90072200035484" lon="10.923616922373615"><ele>975.0</ele><time>2026-03-29T07:48:21Z</time></trkpt><trkpt lat="45.90073944624803" lon="10.923724254306771"><ele>975.0</ele><time>2026-03-29T07:48:22Z</time></trkpt><trkpt lat="45.900666499554326" lon="10.923750504510567"><ele>975.0</ele><time>2026-03-29T07:48:23Z</time></trkpt><trkpt lat="45.90061541904397" lon="10.923693857284281"><ele>975.0</ele><time>2026-03-29T07:48:24Z</time></trkpt><trkpt lat="45.90058268764635" lon="10.923610466077852"><ele>975.0</ele><time>2026-03-29T07:48:25Z</time></trkpt><trkpt lat="45.90062203492074" lon="10.923422346630632"><ele>975.0</ele><time>2026-03-29T07:48:26Z</time></trkpt><trkpt lat="45.900596416900626" lon="10.92319924049975"><ele>975.0</ele><time>2026-03-29T07:48:27Z</time></trkpt><trkpt lat="45.90058233615908" lon="10.923028912364705"><ele>975.0</ele><time>2026-03-29T07:48:28Z</time></trkpt><trkpt lat="45.9005924963547" lon="10.92291608693703"><ele>975.0</ele><time>2026-03-29T07:48:29Z</time></trkpt><trkpt lat="45.90065640681097" lon="10.92283673411655"><ele>975.0</ele><time>2026-03-29T07:48:30Z</time></trkpt><trkpt lat="45.90075457350489" lon="10.922691867665323"><ele>975.0</ele><time>2026-03-29T07:48:31Z</time></trkpt><trkpt lat="45.900844136018044" lon="10.922574456644558"><ele>973.6</ele><time>2026-03-29T07:48:32Z</time></trkpt><trkpt lat="45.9009109203565" lon="10.922523234582625"><ele>972.2</ele><time>2026-03-29T07:48:33Z</time></trkpt><trkpt lat="45.90099568027621" lon="10.922507431560659"><ele>970.8</ele><time>2026-03-29T07:48:34Z</time></trkpt><trkpt lat="45.9011156993663" lon="10.922552419947097"><ele>969.4</ele><time>2026-03-29T07:48:35Z</time></trkpt><trkpt lat="45.90126041237776" lon="10.92256101499826"><ele>968.0</ele><time>2026-03-29T07:48:36Z</time></trkpt><trkpt lat="45.90140720722218" lon="10.922583821768407"><ele>968.0</ele><time>2026-03-29T07:48:37Z</time></trkpt><trkpt lat="45.901522245883655" lon="10.922651876268684"><ele>968.0</ele><time>2026-03-29T07:48:38Z</time></trkpt><trkpt lat="45.9016215987244" lon="10.922776775972569"><ele>968.0</ele><time>2026-03-29T07:48:39Z</time></trkpt><trkpt lat="45.90173646332485" lon="10.922974560201034"><ele>968.0</ele><time>2026-03-29T07:48:40Z</time></trkpt><trkpt lat="45.90187670701858" lon="10.92321422238403"><ele>965.0</ele><time>2026-03-29T07:48:41Z</time></trkpt><trkpt lat="45.902045538786375" lon="10.923430807578493"><ele>962.0</ele><time>2026-03-29T07:48:42Z</time></trkpt><trkpt lat="45.90219537427084" lon="10.923618149338516"><ele>959.0</ele><time>2026-03-29T07:48:43Z</time></trkpt><trkpt lat="45.90234816061116" lon="10.92370889450108"><ele>959.0</ele><time>2026-03-29T07:48:44Z</time></trkpt><trkpt lat="45.90248643484141" lon="10.923794871707043"><ele>959.0</ele><time>2026-03-29T07:48:45Z</time></trkpt><trkpt lat="45.90256189101192" lon="10.923926162159475"><ele>959.0</ele><time>2026-03-29T07:48:46Z</time></trkpt><trkpt lat="45.902643895755624" lon="10.924089327272922"><ele>959.0</ele><time>2026-03-29T07:48:47Z</time></trkpt><trkpt lat="45.90269455289816" lon="10.92425561905742"><ele>959.5000000000001</ele><time>2026-03-29T07:48:48Z</time></trkpt><trkpt lat="45.902686045636756" lon="10.92440426874044"><ele>960.0</ele><time>2026-03-29T07:48:49Z</time></trkpt><trkpt lat="45.902686730384104" lon="10.924496846616815"><ele>960.5</ele><time>2026-03-29T07:48:50Z</time></trkpt><trkpt lat="45.902723919263856" lon="10.92457254439707"><ele>961.0</ele><time>2026-03-29T07:48:51Z</time></trkpt><trkpt lat="45.902814214438614" lon="10.924535279822871"><ele>961.5000000000001</ele><time>2026-03-29T07:48:53Z</time></trkpt><trkpt lat="45.90274454589401" lon="10.92452620896467"><ele>962.0</ele><time>2026-03-29T07:48:58Z</time></trkpt><trkpt lat="45.902702537653894" lon="10.924331996295473"><ele>961.25</ele><time>2026-03-29T07:48:59Z</time></trkpt><trkpt lat="45.9026921112882" lon="10.924192131282563"><ele>960.5</ele><time>2026-03-29T07:49:00Z</time></trkpt><trkpt lat="45.9026297098854" lon="10.92402551616489"><ele>959.75</ele><time>2026-03-29T07:49:01Z</time></trkpt><trkpt lat="45.902549695226426" lon="10.923853416688663"><ele>959.0</ele><time>2026-03-29T07:49:02Z</time></trkpt><trkpt lat="45.902463980279656" lon="10.923723988882452"><ele>959.0</ele><time>2026-03-29T07:49:03Z</time></trkpt><trkpt lat="45.902328873448525" lon="10.92364363266498"><ele>959.0</ele><time>2026-03-29T07:49:04Z</time></trkpt><trkpt lat="45.90216391704801" lon="10.923557248266746"><ele>959.0</ele><time>2026-03-29T07:49:05Z</time></trkpt><trkpt lat="45.9020173878518" lon="10.923394376285755"><ele>962.0</ele><time>2026-03-29T07:49:06Z</time></trkpt><trkpt lat="45.901878480002985" lon="10.923192957623806"><ele>965.0</ele><time>2026-03-29T07:49:07Z</time></trkpt><trkpt lat="45.901764556570484" lon="10.922961746414552"><ele>968.0</ele><time>2026-03-29T07:49:08Z</time></trkpt><trkpt lat="45.90165600164631" lon="10.922759212385241"><ele>968.0</ele><time>2026-03-29T07:49:09Z</time></trkpt><trkpt lat="45.9015366569163" lon="10.922613381514083"><ele>968.0</ele><time>2026-03-29T07:49:10Z</time></trkpt><trkpt lat="45.90143459629694" lon="10.922510529300766"><ele>968.0</ele><time>2026-03-29T07:49:11Z</time></trkpt><trkpt lat="45.901335147811324" lon="10.92249081836983"><ele>968.0</ele><time>2026-03-29T07:49:12Z</time></trkpt><trkpt lat="45.901180005996856" lon="10.922483885446667"><ele>969.75</ele><time>2026-03-29T07:49:13Z</time></trkpt><trkpt lat="45.901006216189884" lon="10.922504063486777"><ele>971.5</ele><time>2026-03-29T07:49:14Z</time></trkpt><trkpt lat="45.90088711354647" lon="10.922477711276033"><ele>973.25</ele><time>2026-03-29T07:49:15Z</time></trkpt><trkpt lat="45.900798756480384" lon="10.922489506997763"><ele>975.0</ele><time>2026-03-29T07:49:16Z</time></trkpt><trkpt lat="45.90073855486126" lon="10.922609667390956"><ele>975.0</ele><time>2026-03-29T07:49:17Z</time></trkpt><trkpt lat="45.900629229261774" lon="10.922776968035556"><ele>975.0</ele><time>2026-03-29T07:49:18Z</time></trkpt><trkpt lat="45.90053833389513" lon="10.922943389472202"><ele>975.0</ele><time>2026-03-29T07:49:19Z</time></trkpt><trkpt lat="45.90051110116987" lon="10.923076464074407"><ele>975.0</ele><time>2026-03-29T07:49:20Z</time></trkpt><trkpt lat="45.90054531066074" lon="10.9231920200199"><ele>975.0</ele><time>2026-03-29T07:49:21Z</time></trkpt><trkpt lat="45.90056871025843" lon="10.923395275633926"><ele>975.0</ele><time>2026-03-29T07:49:22Z</time></trkpt><trkpt lat="45.90058967909304" lon="10.923634648109267"><ele>975.0</ele><time>2026-03-29T07:49:23Z</time></trkpt><trkpt lat="45.90061939355782" lon="10.923770118698531"><ele>975.0</ele><time>2026-03-29T07:49:24Z</time></trkpt><trkpt lat="45.900753346162574" lon="10.92365168425467"><ele>975.0</ele><time>2026-03-29T07:49:27Z</time></trkpt><trkpt lat="45.900735134002566" lon="10.923493394623517"><ele>975.0</ele><time>2026-03-29T07:49:28Z</time></trkpt><trkpt lat="45.9007281973653" lon="10.92329525869534"><ele>975.0</ele><time>2026-03-29T07:49:29Z</time></trkpt><trkpt lat="45.90071095308279" lon="10.923111560822417"><ele>975.0</ele><time>2026-03-29T07:49:30Z</time></trkpt><trkpt lat="45.900715327614975" lon="10.922985481754997"><ele>975.0</ele><time>2026-03-29T07:49:31Z</time></trkpt><trkpt lat="45.90076865190317" lon="10.9228620328926"><ele>975.0</ele><time>2026-03-29T07:49:32Z</time></trkpt><trkpt lat="45.90086712519462" lon="10.922741881012211"><ele>975.0</ele><time>2026-03-29T07:49:33Z</time></trkpt><trkpt lat="45.90094951629896" lon="10.922675008431398"><ele>975.0</ele><time>2026-03-29T07:49:34Z</time></trkpt><trkpt lat="45.901033180483964" lon="10.922714870818739"><ele>975.0</ele><time>2026-03-29T07:49:35Z</time></trkpt><trkpt lat="45.90116017147662" lon="10.922775321400065"><ele>973.25</ele><time>2026-03-29T07:49:36Z</time></trkpt><trkpt lat="45.901319729013586" lon="10.922844285844345"><ele>971.5</ele><time>2026-03-29T07:49:37Z</time></trkpt><trkpt lat="45.90143671208108" lon="10.922918134623988"><ele>969.75</ele><time>2026-03-29T07:49:38Z</time></trkpt><trkpt lat="45.90148904695391" lon="10.923028717125902"><ele>968.0</ele><time>2026-03-29T07:49:39Z</time></trkpt><trkpt lat="45.901525487128936" lon="10.923237531177381"><ele>965.0</ele><time>2026-03-29T07:49:40Z</time></trkpt><trkpt lat="45.90157613340817" lon="10.923479435813055"><ele>962.0</ele><time>2026-03-29T07:49:41Z</time></trkpt><trkpt lat="45.90161901800142" lon="10.92365005766497"><ele>959.0</ele><time>2026-03-29T07:49:42Z</time></trkpt><trkpt lat="45.90175473735476" lon="10.923756235786662"><ele>959.0</ele><time>2026-03-29T07:49:43Z</time></trkpt><trkpt lat="45.90186069428947" lon="10.92387929963368"><ele>959.0</ele><time>2026-03-29T07:49:44Z</time></trkpt><trkpt lat="45.90191963110629" lon="10.924086465954636"><ele>959.0</ele><time>2026-03-29T07:49:45Z</time></trkpt><trkpt lat="45.90200446759497" lon="10.924328627110475"><ele>964.3333333333334</ele><time>2026-03-29T07:49:46Z</time></trkpt><trkpt lat="45.90208200395407" lon="10.924579835525309"><ele>969.6666666666667</ele><time>2026-03-29T07:49:47Z</time></trkpt><trkpt lat="45.90218624848923" lon="10.924832386985763"><ele>975.0</ele><time>2026-03-29T07:49:48Z</time></trkpt><trkpt lat="45.90223939629427" lon="10.9250854150691"><ele>982.6666666666667</ele><time>2026-03-29T07:49:49Z</time></trkpt><trkpt lat="45.902261696820446" lon="10.925345633268542"><ele>990.3333333333334</ele><time>2026-03-29T07:49:50Z</time></trkpt><trkpt lat="45.90230120015619" lon="10.9256107609832"><ele>998.0</ele><time>2026-03-29T07:49:51Z</time></trkpt><trkpt lat="45.902314245926846" lon="10.925811361815795"><ele>996.5999999999999</ele><time>2026-03-29T07:49:52Z</time></trkpt><trkpt lat="45.90236000196509" lon="10.925968833007872"><ele>995.1999999999999</ele><time>2026-03-29T07:49:53Z</time></trkpt><trkpt lat="45.90244494579643" lon="10.92601161253957"><ele>993.8</ele><time>2026-03-29T07:49:54Z</time></trkpt><trkpt lat="45.9025095193557" lon="10.925985041062114"><ele>992.4</ele><time>2026-03-29T07:49:55Z</time></trkpt><trkpt lat="45.90259427321471" lon="10.925914446242075"><ele>991.0</ele><time>2026-03-29T07:49:56Z</time></trkpt><trkpt lat="45.90270253974359" lon="10.925818269237958"><ele>991.0</ele><time>2026-03-29T07:49:57Z</time></trkpt><trkpt lat="45.9028336390987" lon="10.925734051846284"><ele>991.0</ele><time>2026-03-29T07:49:58Z</time></trkpt><trkpt lat="45.90295908465257" lon="10.925697571829689"><ele>991.0</ele><time>2026-03-29T07:49:59Z</time></trkpt><trkpt lat="45.90305140195811" lon="10.92570119997619"><ele>991.0</ele><time>2026-03-29T07:50:00Z</time></trkpt><trkpt lat="45.90314601624397" lon="10.925857016328056"><ele>993.3333333333333</ele><time>2026-03-29T07:50:01Z</time></trkpt><trkpt lat="45.90328483587331" lon="10.925982956000594"><ele>995.6666666666667</ele><time>2026-03-29T07:50:02Z</time></trkpt><trkpt lat="45.90339806413549" lon="10.926118110223431"><ele>998.0</ele><time>2026-03-29T07:50:03Z</time></trkpt><trkpt lat="45.9034727723914" lon="10.926297091660318"><ele>998.0</ele><time>2026-03-29T07:50:04Z</time></trkpt><trkpt lat="45.903558817798114" lon="10.926507331000286"><ele>998.0</ele><time>2026-03-29T07:50:05Z</time></trkpt><trkpt lat="45.903665631886746" lon="10.92672172104784"><ele>998.0</ele><time>2026-03-29T07:50:06Z</time></trkpt><trkpt lat="45.9037713876283" lon="10.926892058821524"><ele>1005.3333333333334</ele><time>2026-03-29T07:50:07Z</time></trkpt><trkpt lat="45.90391309608504" lon="10.92701336711302"><ele>1012.6666666666667</ele><time>2026-03-29T07:50:08Z</time></trkpt><trkpt lat="45.904090535568876" lon="10.9270812714932"><ele>1020.0</ele><time>2026-03-29T07:50:09Z</time></trkpt><trkpt lat="45.90423885894394" lon="10.92721364734595"><ele>1016.6666666666667</ele><time>2026-03-29T07:50:10Z</time></trkpt><trkpt lat="45.90437483354133" lon="10.927417886764603"><ele>1013.3333333333334</ele><time>2026-03-29T07:50:11Z</time></trkpt><trkpt lat="45.904496308071515" lon="10.927647291932056"><ele>1010.0</ele><time>2026-03-29T07:50:12Z</time></trkpt><trkpt lat="45.90458086645029" lon="10.927915553417133"><ele>1010.0</ele><time>2026-03-29T07:50:13Z</time></trkpt><trkpt lat="45.904677561944595" lon="10.92813926358433"><ele>1010.0</ele><time>2026-03-29T07:50:14Z</time></trkpt><trkpt lat="45.90473374038866" lon="10.92828991736117"><ele>1010.0</ele><time>2026-03-29T07:50:15Z</time></trkpt><trkpt lat="45.904699731939445" lon="10.928482709297592"><ele>1010.0</ele><time>2026-03-29T07:50:16Z</time></trkpt><trkpt lat="45.90473162456192" lon="10.928700535916317"><ele>1013.0</ele><time>2026-03-29T07:50:17Z</time></trkpt><trkpt lat="45.90479148045427" lon="10.92886693311854"><ele>1016.0</ele><time>2026-03-29T07:50:18Z</time></trkpt><trkpt lat="45.90485046747427" lon="10.929062365581158"><ele>1019.0</ele><time>2026-03-29T07:50:19Z</time></trkpt><trkpt lat="45.904873455280025" lon="10.929287689868906"><ele>1022.0</ele><time>2026-03-29T07:50:20Z</time></trkpt><trkpt lat="45.90490973114016" lon="10.929526906694038"><ele>1025.2</ele><time>2026-03-29T07:50:21Z</time></trkpt><trkpt lat="45.9049444785729" lon="10.929686269614486"><ele>1028.4</ele><time>2026-03-29T07:50:22Z</time></trkpt><trkpt lat="45.904940482696276" lon="10.92978460945826"><ele>1031.6</ele><time>2026-03-29T07:50:23Z</time></trkpt><trkpt lat="45.9048693657542" lon="10.929796461362377"><ele>1034.8</ele><time>2026-03-29T07:50:24Z</time></trkpt><trkpt lat="45.904800934643056" lon="10.9296635090583"><ele>1038.0</ele><time>2026-03-29T07:50:26Z</time></trkpt><trkpt lat="45.904836741576204" lon="10.929487860407122"><ele>1038.0</ele><time>2026-03-29T07:50:27Z</time></trkpt><trkpt lat="45.90482067609381" lon="10.929267127404746"><ele>1038.0</ele><time>2026-03-29T07:50:28Z</time></trkpt><trkpt lat="45.90477771208922" lon="10.929008102070343"><ele>1038.0</ele><time>2026-03-29T07:50:29Z</time></trkpt><trkpt lat="45.90467279988921" lon="10.928872775806438"><ele>1034.0</ele><time>2026-03-29T07:50:30Z</time></trkpt><trkpt lat="45.904607862755306" lon="10.928723311662731"><ele>1030.0</ele><time>2026-03-29T07:50:31Z</time></trkpt><trkpt lat="45.90454147358188" lon="10.928604319020561"><ele>1026.0</ele><time>2026-03-29T07:50:32Z</time></trkpt><trkpt lat="45.90461290841669" lon="10.92843266179797"><ele>1022.0</ele><time>2026-03-29T07:50:33Z</time></trkpt><trkpt lat="45.90457273609291" lon="10.928273922820441"><ele>1018.0</ele><time>2026-03-29T07:50:34Z</time></trkpt><trkpt lat="45.9044803545748" lon="10.928089979415887"><ele>1014.0</ele><time>2026-03-29T07:50:35Z</time></trkpt><trkpt lat="45.90436863560675" lon="10.927861144787265"><ele>1010.0</ele><time>2026-03-29T07:50:36Z</time></trkpt><trkpt lat="45.90423559528085" lon="10.927699072730716"><ele>1012.5</ele><time>2026-03-29T07:50:37Z</time></trkpt><trkpt lat="45.904093775111804" lon="10.927546295306128"><ele>1015.0</ele><time>2026-03-29T07:50:38Z</time></trkpt><trkpt lat="45.90399344809155" lon="10.927410848789327"><ele>1017.5</ele><time>2026-03-29T07:50:39Z</time></trkpt><trkpt lat="45.90391715687068" lon="10.927363253428213"><ele>1020.0</ele><time>2026-03-29T07:50:40Z</time></trkpt><trkpt lat="45.90384527938166" lon="10.927395350515075"><ele>1020.0</ele><time>2026-03-29T07:50:41Z</time></trkpt><trkpt lat="45.90381198529088" lon="10.927495594178675"><ele>1020.0</ele><time>2026-03-29T07:50:43Z</time></trkpt><trkpt lat="45.903887310808265" lon="10.927501753811763"><ele>1020.0</ele><time>2026-03-29T07:50:54Z</time></trkpt><trkpt lat="45.90397346830789" lon="10.927457878456462"><ele>1020.0</ele><time>2026-03-29T07:50:56Z</time></trkpt><trkpt lat="45.904053135901144" lon="10.92750081850367"><ele>1020.0</ele><time>2026-03-29T07:50:57Z</time></trkpt><trkpt lat="45.90413596939308" lon="10.927629845111843"><ele>1016.6666666666667</ele><time>2026-03-29T07:50:58Z</time></trkpt><trkpt lat="45.904219326158646" lon="10.92777059717175"><ele>1013.3333333333334</ele><time>2026-03-29T07:50:59Z</time></trkpt><trkpt lat="45.904359978664836" lon="10.927900579824843"><ele>1010.0</ele><time>2026-03-29T07:51:00Z</time></trkpt><trkpt lat="45.90444262137346" lon="10.928094985825187"><ele>1010.0</ele><time>2026-03-29T07:51:01Z</time></trkpt><trkpt lat="45.90455340412675" lon="10.928321981934756"><ele>1010.0</ele><time>2026-03-29T07:51:02Z</time></trkpt><trkpt lat="45.904601520467075" lon="10.928532403695431"><ele>1010.0</ele><time>2026-03-29T07:51:03Z</time></trkpt><trkpt lat="45.904574884341066" lon="10.928711941692116"><ele>1013.0</ele><time>2026-03-29T07:51:04Z</time></trkpt><trkpt lat="45.9045865246208" lon="10.928830282631386"><ele>1016.0</ele><time>2026-03-29T07:51:05Z</time></trkpt><trkpt lat="45.90467593056866" lon="10.928938931852294"><ele>1019.0</ele><time>2026-03-29T07:51:06Z</time></trkpt><trkpt lat="45.90477325257864" lon="10.929056999850657"><ele>1022.0</ele><time>2026-03-29T07:51:07Z</time></trkpt><trkpt lat="45.90478291328972" lon="10.929233490618044"><ele>1025.2</ele><time>2026-03-29T07:51:08Z</time></trkpt><trkpt lat="45.90480438945154" lon="10.929461854211759"><ele>1028.4</ele><time>2026-03-29T07:51:09Z</time></trkpt><trkpt lat="45.90478989640327" lon="10.929649251825227"><ele>1031.6</ele><time>2026-03-29T07:51:10Z</time></trkpt><trkpt lat="45.90480128769325" lon="10.929752991127513"><ele>1034.8</ele><time>2026-03-29T07:51:11Z</time></trkpt><trkpt lat="45.904830558717954" lon="10.929835987786376"><ele>1038.0</ele><time>2026-03-29T07:51:12Z</time></trkpt><trkpt lat="45.90491272862233" lon="10.929851972224148"><ele>1038.0</ele><time>2026-03-29T07:51:13Z</time></trkpt><trkpt lat="45.904922565021835" lon="10.929760586001002"><ele>1038.0</ele><time>2026-03-29T07:51:22Z</time></trkpt><trkpt lat="45.90485056108303" lon="10.929691076773457"><ele>1038.0</ele><time>2026-03-29T07:59:00Z</time></trkpt><trkpt lat="45.90480618168692" lon="10.929558354567908"><ele>1038.0</ele><time>2026-03-29T07:59:03Z</time></trkpt><trkpt lat="45.904802269198264" lon="10.929384480617154"><ele>1038.0</ele><time>2026-03-29T07:59:05Z</time></trkpt><trkpt lat="45.90480216421836" lon="10.929275434295155"><ele>1034.8</ele><time>2026-03-29T07:59:06Z</time></trkpt><trkpt lat="45.90478394422085" lon="10.929156773989869"><ele>1031.6</ele><time>2026-03-29T07:59:07Z</time></trkpt><trkpt lat="45.904762876973265" lon="10.929026916652958"><ele>1028.4</ele><time>2026-03-29T07:59:08Z</time></trkpt><trkpt lat="45.90472634049498" lon="10.928919632304426"><ele>1025.2</ele><time>2026-03-29T07:59:09Z</time></trkpt><trkpt lat="45.90465972801567" lon="10.92882087703931"><ele>1022.0</ele><time>2026-03-29T07:59:10Z</time></trkpt><trkpt lat="45.90458492886829" lon="10.928717574400908"><ele>1022.0</ele><time>2026-03-29T07:59:11Z</time></trkpt><trkpt lat="45.90455779154056" lon="10.928598712603375"><ele>1022.0</ele><time>2026-03-29T07:59:12Z</time></trkpt><trkpt lat="45.90456756232914" lon="10.928471999951022"><ele>1022.0</ele><time>2026-03-29T07:59:13Z</time></trkpt><trkpt lat="45.90456720774028" lon="10.92835268102434"><ele>1022.0</ele><time>2026-03-29T07:59:14Z</time></trkpt><trkpt lat="45.904510581312685" lon="10.92822038208599"><ele>1022.0</ele><time>2026-03-29T07:59:15Z</time></trkpt><trkpt lat="45.904449274895356" lon="10.92805472458029"><ele>1019.0</ele><time>2026-03-29T07:59:16Z</time></trkpt><trkpt lat="45.90437559797766" lon="10.927891211540572"><ele>1016.0</ele><time>2026-03-29T07:59:17Z</time></trkpt><trkpt lat="45.904298469760846" lon="10.927788097458285"><ele>1013.0</ele><time>2026-03-29T07:59:18Z</time></trkpt><trkpt lat="45.90420824956543" lon="10.927697737495354"><ele>1010.0</ele><time>2026-03-29T07:59:19Z</time></trkpt><trkpt lat="45.9041273780665" lon="10.927578856567088"><ele>1012.0</ele><time>2026-03-29T07:59:20Z</time></trkpt><trkpt lat="45.90404285762787" lon="10.927453145254015"><ele>1014.0</ele><time>2026-03-29T07:59:21Z</time></trkpt><trkpt lat="45.90395152389489" lon="10.9274061934113"><ele>1016.0</ele><time>2026-03-29T07:59:22Z</time></trkpt><trkpt lat="45.90386851909971" lon="10.927422122704474"><ele>1018.0</ele><time>2026-03-29T07:59:23Z</time></trkpt><trkpt lat="45.90378504569856" lon="10.927504152516072"><ele>1020.0</ele><time>2026-03-29T07:59:24Z</time></trkpt><trkpt lat="45.90370331909684" lon="10.927614133777963"><ele>1027.25</ele><time>2026-03-29T07:59:25Z</time></trkpt><trkpt lat="45.90360929351414" lon="10.927724835476582"><ele>1034.5</ele><time>2026-03-29T07:59:26Z</time></trkpt><trkpt lat="45.90349751004101" lon="10.927842633605401"><ele>1041.75</ele><time>2026-03-29T07:59:27Z</time></trkpt><trkpt lat="45.90335959573596" lon="10.927993081000796"><ele>1049.0</ele><time>2026-03-29T07:59:28Z</time></trkpt><trkpt lat="45.90319498235961" lon="10.928097969436736"><ele>1052.75</ele><time>2026-03-29T07:59:29Z</time></trkpt><trkpt lat="45.90304060044627" lon="10.928206129549986"><ele>1056.5</ele><time>2026-03-29T07:59:30Z</time></trkpt><trkpt lat="45.90291510799648" lon="10.928269864515768"><ele>1060.25</ele><time>2026-03-29T07:59:31Z</time></trkpt><trkpt lat="45.90282976844748" lon="10.928303451713314"><ele>1064.0</ele><time>2026-03-29T07:59:32Z</time></trkpt><trkpt lat="45.90273613095392" lon="10.928241370464116"><ele>1064.0</ele><time>2026-03-29T07:59:34Z</time></trkpt><trkpt lat="45.90274814038365" lon="10.928138804374262"><ele>1064.0</ele><time>2026-03-29T07:59:35Z</time></trkpt><trkpt lat="45.90278062062323" lon="10.928040542438893"><ele>1064.0</ele><time>2026-03-29T07:59:36Z</time></trkpt><trkpt lat="45.90276446404207" lon="10.927887712908882"><ele>1064.0</ele><time>2026-03-29T07:59:37Z</time></trkpt><trkpt lat="45.90272362918361" lon="10.927735365438503"><ele>1064.0</ele><time>2026-03-29T07:59:38Z</time></trkpt><trkpt lat="45.902672734517914" lon="10.927651393102664"><ele>1064.0</ele><time>2026-03-29T07:59:39Z</time></trkpt><trkpt lat="45.90258960983253" lon="10.927596740098945"><ele>1065.2</ele><time>2026-03-29T07:59:40Z</time></trkpt><trkpt lat="45.90249817573882" lon="10.927584858765927"><ele>1066.4</ele><time>2026-03-29T07:59:41Z</time></trkpt><trkpt lat="45.90240192658585" lon="10.927661233264034"><ele>1067.6</ele><time>2026-03-29T07:59:42Z</time></trkpt><trkpt lat="45.90229919199042" lon="10.92772588543478"><ele>1068.8</ele><time>2026-03-29T07:59:43Z</time></trkpt><trkpt lat="45.902215156585264" lon="10.927837469403181"><ele>1070.0</ele><time>2026-03-29T07:59:44Z</time></trkpt><trkpt lat="45.90211173910075" lon="10.92797450233257"><ele>1070.0</ele><time>2026-03-29T07:59:45Z</time></trkpt><trkpt lat="45.90201078775504" lon="10.928135345209837"><ele>1070.0</ele><time>2026-03-29T07:59:46Z</time></trkpt><trkpt lat="45.90193614365319" lon="10.928269662908297"><ele>1070.0</ele><time>2026-03-29T07:59:47Z</time></trkpt><trkpt lat="45.90188851265311" lon="10.928390246463577"><ele>1070.0</ele><time>2026-03-29T07:59:48Z</time></trkpt><trkpt lat="45.90186546279294" lon="10.928513398667933"><ele>1072.3333333333335</ele><time>2026-03-29T07:59:49Z</time></trkpt><trkpt lat="45.901861857658766" lon="10.928666413807257"><ele>1074.6666666666667</ele><time>2026-03-29T07:59:50Z</time></trkpt><trkpt lat="45.901851571310715" lon="10.928805108868083"><ele>1077.0</ele><time>2026-03-29T07:59:51Z</time></trkpt><trkpt lat="45.90181507389635" lon="10.928880537996205"><ele>1079.3333333333333</ele><time>2026-03-29T07:59:52Z</time></trkpt><trkpt lat="45.90173773746057" lon="10.928902793609302"><ele>1081.6666666666665</ele><time>2026-03-29T07:59:53Z</time></trkpt><trkpt lat="45.901671710557395" lon="10.92886321358468"><ele>1084.0</ele><time>2026-03-29T07:59:54Z</time></trkpt><trkpt lat="45.901631213027315" lon="10.928762423829392"><ele>1084.0</ele><time>2026-03-29T07:59:55Z</time></trkpt><trkpt lat="45.90152009138679" lon="10.92867811760664"><ele>1084.0</ele><time>2026-03-29T07:59:56Z</time></trkpt><trkpt lat="45.901412803138996" lon="10.928585036532514"><ele>1084.0</ele><time>2026-03-29T07:59:57Z</time></trkpt><trkpt lat="45.90130494071594" lon="10.928466276421641"><ele>1084.0</ele><time>2026-03-29T07:59:58Z</time></trkpt><trkpt lat="45.90120640802014" lon="10.928301616521392"><ele>1084.0</ele><time>2026-03-29T07:59:59Z</time></trkpt><trkpt lat="45.90113390830325" lon="10.928204261869395"><ele>1084.0</ele><time>2026-03-29T08:00:00Z</time></trkpt><trkpt lat="45.9010646048145" lon="10.928156748783243"><ele>1084.0</ele><time>2026-03-29T08:00:01Z</time></trkpt><trkpt lat="45.900990523218454" lon="10.928251685371567"><ele>1084.0</ele><time>2026-03-29T08:00:02Z</time></trkpt><trkpt lat="45.90097860323259" lon="10.928346413140662"><ele>1084.0</ele><time>2026-03-29T08:00:03Z</time></trkpt><trkpt lat="45.90104343197594" lon="10.928456275622226"><ele>1084.0</ele><time>2026-03-29T08:00:04Z</time></trkpt><trkpt lat="45.901090708275866" lon="10.928601679268269"><ele>1084.0</ele><time>2026-03-29T08:00:05Z</time></trkpt><trkpt lat="45.90109742306868" lon="10.928782735512105"><ele>1084.0</ele><time>2026-03-29T08:00:06Z</time></trkpt><trkpt lat="45.90110649685131" lon="10.929004288418326"><ele>1084.0</ele><time>2026-03-29T08:00:07Z</time></trkpt><trkpt lat="45.90110458409446" lon="10.929244326589986"><ele>1084.0</ele><time>2026-03-29T08:00:08Z</time></trkpt><trkpt lat="45.901076217611106" lon="10.929494002989458"><ele>1089.0</ele><time>2026-03-29T08:00:09Z</time></trkpt><trkpt lat="45.901087401010244" lon="10.929686209693166"><ele>1094.0</ele><time>2026-03-29T08:00:10Z</time></trkpt><trkpt lat="45.90114116200026" lon="10.929869806551167"><ele>1099.0</ele><time>2026-03-29T08:00:11Z</time></trkpt><trkpt lat="45.90112446901752" lon="10.93004728228853"><ele>1104.0</ele><time>2026-03-29T08:00:12Z</time></trkpt><trkpt lat="45.90112199517386" lon="10.930198522274873"><ele>1106.0</ele><time>2026-03-29T08:00:13Z</time></trkpt><trkpt lat="45.90116500290414" lon="10.930319280831794"><ele>1108.0</ele><time>2026-03-29T08:00:14Z</time></trkpt><trkpt lat="45.901216465991595" lon="10.930418137819151"><ele>1110.0</ele><time>2026-03-29T08:00:15Z</time></trkpt><trkpt lat="45.901301816958544" lon="10.930565925981055"><ele>1112.0</ele><time>2026-03-29T08:00:16Z</time></trkpt><trkpt lat="45.90133516005113" lon="10.93070395392762"><ele>1114.0</ele><time>2026-03-29T08:00:17Z</time></trkpt><trkpt lat="45.901331341166916" lon="10.930860496745483"><ele>1115.6000000000001</ele><time>2026-03-29T08:00:18Z</time></trkpt><trkpt lat="45.90133199958437" lon="10.931030945999002"><ele>1117.2</ele><time>2026-03-29T08:00:19Z</time></trkpt><trkpt lat="45.90131719325609" lon="10.931169247411937"><ele>1118.8000000000002</ele><time>2026-03-29T08:00:20Z</time></trkpt><trkpt lat="45.901284810250615" lon="10.931261950561142"><ele>1120.4</ele><time>2026-03-29T08:00:21Z</time></trkpt><trkpt lat="45.901235393010225" lon="10.931333358178428"><ele>1122.0</ele><time>2026-03-29T08:00:22Z</time></trkpt><trkpt lat="45.90113149913546" lon="10.931349649114159"><ele>1122.0</ele><time>2026-03-29T08:00:23Z</time></trkpt><trkpt lat="45.90105771717426" lon="10.931451258045808"><ele>1122.0</ele><time>2026-03-29T08:00:24Z</time></trkpt><trkpt lat="45.90102443472294" lon="10.931638822325167"><ele>1122.0</ele><time>2026-03-29T08:00:25Z</time></trkpt><trkpt lat="45.900918610389844" lon="10.931798855931582"><ele>1122.0</ele><time>2026-03-29T08:00:26Z</time></trkpt><trkpt lat="45.90081936605201" lon="10.931885383277727"><ele>1122.25</ele><time>2026-03-29T08:00:27Z</time></trkpt><trkpt lat="45.90066721954402" lon="10.932018050080744"><ele>1122.5</ele><time>2026-03-29T08:00:28Z</time></trkpt><trkpt lat="45.90055220659379" lon="10.932151385815354"><ele>1122.75</ele><time>2026-03-29T08:00:29Z</time></trkpt><trkpt lat="45.9004671898786" lon="10.932231833253027"><ele>1123.0</ele><time>2026-03-29T08:00:30Z</time></trkpt><trkpt lat="45.900349031331714" lon="10.932207577076012"><ele>1123.0</ele><time>2026-03-29T08:00:32Z</time></trkpt><trkpt lat="45.90031958097196" lon="10.932115263504146"><ele>1123.0</ele><time>2026-03-29T08:00:33Z</time></trkpt><trkpt lat="45.900326255754955" lon="10.93200780487656"><ele>1123.0</ele><time>2026-03-29T08:00:34Z</time></trkpt><trkpt lat="45.900306407274044" lon="10.931845093751754"><ele>1123.0</ele><time>2026-03-29T08:00:35Z</time></trkpt><trkpt lat="45.900290619896545" lon="10.931641436541478"><ele>1123.0</ele><time>2026-03-29T08:00:36Z</time></trkpt><trkpt lat="45.90027301492768" lon="10.931518195717144"><ele>1121.8</ele><time>2026-03-29T08:00:37Z</time></trkpt><trkpt lat="45.90021374663903" lon="10.931461588780984"><ele>1120.6</ele><time>2026-03-29T08:00:38Z</time></trkpt><trkpt lat="45.90012884052571" lon="10.931507002293039"><ele>1119.4</ele><time>2026-03-29T08:00:39Z</time></trkpt><trkpt lat="45.900088292945284" lon="10.931631298223696"><ele>1118.2</ele><time>2026-03-29T08:00:40Z</time></trkpt><trkpt lat="45.9000413947639" lon="10.931755216330078"><ele>1117.0</ele><time>2026-03-29T08:00:41Z</time></trkpt><trkpt lat="45.89996672049879" lon="10.931879910867657"><ele>1117.0</ele><time>2026-03-29T08:00:42Z</time></trkpt><trkpt lat="45.89988458477431" lon="10.931986123527444"><ele>1117.0</ele><time>2026-03-29T08:00:43.001Z</time></trkpt><trkpt lat="45.89982170335036" lon="10.932085554185209"><ele>1117.0</ele><time>2026-03-29T08:00:44.001Z</time></trkpt><trkpt lat="45.89978435541512" lon="10.932245079201653"><ele>1117.0</ele><time>2026-03-29T08:00:45.001Z</time></trkpt><trkpt lat="45.899738778759506" lon="10.932436157296555"><ele>1120.5</ele><time>2026-03-29T08:00:46.001Z</time></trkpt><trkpt lat="45.89968838230186" lon="10.932663763183808"><ele>1124.0</ele><time>2026-03-29T08:00:47.001Z</time></trkpt><trkpt lat="45.89962626633181" lon="10.932839318957091"><ele>1127.5</ele><time>2026-03-29T08:00:48.001Z</time></trkpt><trkpt lat="45.899558379546725" lon="10.932966853430639"><ele>1131.0</ele><time>2026-03-29T08:00:49.001Z</time></trkpt><trkpt lat="45.899450409625686" lon="10.932977293058793"><ele>1131.0</ele><time>2026-03-29T08:00:50.001Z</time></trkpt><trkpt lat="45.89939319429212" lon="10.93304132334904"><ele>1131.0</ele><time>2026-03-29T08:00:51.001Z</time></trkpt><trkpt lat="45.899443782829316" lon="10.933223450878693"><ele>1131.0</ele><time>2026-03-29T08:00:53.001Z</time></trkpt><trkpt lat="45.899514746958204" lon="10.933254223399091"><ele>1131.0</ele><time>2026-03-29T08:00:54.001Z</time></trkpt><trkpt lat="45.89959471894217" lon="10.933215659601547"><ele>1131.0</ele><time>2026-03-29T08:00:55.001Z</time></trkpt><trkpt lat="45.899670583017794" lon="10.933115522814962"><ele>1131.0</ele><time>2026-03-29T08:00:56.001Z</time></trkpt><trkpt lat="45.899720736593935" lon="10.932984306406329"><ele>1131.0</ele><time>2026-03-29T08:00:57Z</time></trkpt><trkpt lat="45.89978866138314" lon="10.932847409483639"><ele>1131.0</ele><time>2026-03-29T08:00:58Z</time></trkpt><trkpt lat="45.899859181666116" lon="10.932683072991948"><ele>1131.0</ele><time>2026-03-29T08:00:59Z</time></trkpt><trkpt lat="45.899915574830914" lon="10.932557814694754"><ele>1131.0</ele><time>2026-03-29T08:01:00Z</time></trkpt><trkpt lat="45.89996065038799" lon="10.93248596688852"><ele>1131.0</ele><time>2026-03-29T08:01:01Z</time></trkpt><trkpt lat="45.900042702073534" lon="10.93251767033133"><ele>1131.0</ele><time>2026-03-29T08:01:03Z</time></trkpt><trkpt lat="45.9000289919595" lon="10.932621864781709"><ele>1131.0</ele><time>2026-03-29T08:01:04Z</time></trkpt><trkpt lat="45.90004278100158" lon="10.932715164196155"><ele>1131.0</ele><time>2026-03-29T08:01:05Z</time></trkpt><trkpt lat="45.90007275743208" lon="10.932866594308262"><ele>1131.0</ele><time>2026-03-29T08:01:06Z</time></trkpt><trkpt lat="45.90010318565015" lon="10.933025969955759"><ele>1133.8</ele><time>2026-03-29T08:01:07Z</time></trkpt><trkpt lat="45.90015043481016" lon="10.933171670543997"><ele>1136.6</ele><time>2026-03-29T08:01:08Z</time></trkpt><trkpt lat="45.900308609912535" lon="10.933249913613263"><ele>1139.4</ele><time>2026-03-29T08:01:10Z</time></trkpt><trkpt lat="45.90039028597834" lon="10.933258311457339"><ele>1142.2</ele><time>2026-03-29T08:01:11Z</time></trkpt><trkpt lat="45.90044496057633" lon="10.933323702118788"><ele>1145.0</ele><time>2026-03-29T08:01:12Z</time></trkpt><trkpt lat="45.90036420891015" lon="10.933406907060897"><ele>1145.0</ele><time>2026-03-29T08:01:14Z</time></trkpt><trkpt lat="45.90030465541444" lon="10.933376511956308"><ele>1145.0</ele><time>2026-03-29T08:01:15Z</time></trkpt><trkpt lat="45.90024017026784" lon="10.933325313769014"><ele>1145.0</ele><time>2026-03-29T08:01:16Z</time></trkpt><trkpt lat="45.90015518467004" lon="10.933288770266739"><ele>1145.0</ele><time>2026-03-29T08:01:17Z</time></trkpt><trkpt lat="45.900071279675444" lon="10.933209138636464"><ele>1145.0</ele><time>2026-03-29T08:01:18Z</time></trkpt><trkpt lat="45.90000847054046" lon="10.933139282152924"><ele>1145.0</ele><time>2026-03-29T08:01:19Z</time></trkpt><trkpt lat="45.89993803481369" lon="10.933142027869627"><ele>1147.2</ele><time>2026-03-29T08:01:20Z</time></trkpt><trkpt lat="45.89990437327477" lon="10.933251004123516"><ele>1149.4</ele><time>2026-03-29T08:01:21Z</time></trkpt><trkpt lat="45.899927242065836" lon="10.933380972326862"><ele>1151.6</ele><time>2026-03-29T08:01:22Z</time></trkpt><trkpt lat="45.899927998337255" lon="10.933524771383608"><ele>1153.8</ele><time>2026-03-29T08:01:23Z</time></trkpt><trkpt lat="45.899916277468606" lon="10.933692164739783"><ele>1156.0</ele><time>2026-03-29T08:01:24Z</time></trkpt><trkpt lat="45.8998917332349" lon="10.93386248539773"><ele>1156.0</ele><time>2026-03-29T08:01:25Z</time></trkpt><trkpt lat="45.89982617151867" lon="10.933978339415063"><ele>1156.0</ele><time>2026-03-29T08:01:26Z</time></trkpt><trkpt lat="45.89975252074945" lon="10.934044108732751"><ele>1156.0</ele><time>2026-03-29T08:01:27Z</time></trkpt><trkpt lat="45.899665346785895" lon="10.934079998226643"><ele>1156.0</ele><time>2026-03-29T08:01:28Z</time></trkpt><trkpt lat="45.899563119223" lon="10.934100984713579"><ele>1156.0</ele><time>2026-03-29T08:01:29Z</time></trkpt><trkpt lat="45.89945185993815" lon="10.934082539152067"><ele>1156.0</ele><time>2026-03-29T08:01:30Z</time></trkpt><trkpt lat="45.89935322140491" lon="10.93401783604891"><ele>1156.0</ele><time>2026-03-29T08:01:31Z</time></trkpt><trkpt lat="45.89925792085933" lon="10.933912475664295"><ele>1156.0</ele><time>2026-03-29T08:01:32Z</time></trkpt><trkpt lat="45.89914590750996" lon="10.933823994006431"><ele>1156.0</ele><time>2026-03-29T08:01:33Z</time></trkpt><trkpt lat="45.89899130323262" lon="10.933829517097967"><ele>1155.8</ele><time>2026-03-29T08:01:34Z</time></trkpt><trkpt lat="45.8988722346332" lon="10.93381877801692"><ele>1155.6</ele><time>2026-03-29T08:01:35Z</time></trkpt><trkpt lat="45.89875198571827" lon="10.93381521937314"><ele>1155.4</ele><time>2026-03-29T08:01:36Z</time></trkpt><trkpt lat="45.8986695797146" lon="10.933819817396824"><ele>1155.2</ele><time>2026-03-29T08:01:37Z</time></trkpt><trkpt lat="45.898622871685596" lon="10.933934671400158"><ele>1155.0</ele><time>2026-03-29T08:01:38Z</time></trkpt><trkpt lat="45.89859737139591" lon="10.934091374331599"><ele>1155.0</ele><time>2026-03-29T08:01:39Z</time></trkpt><trkpt lat="45.89855510105091" lon="10.934259444396845"><ele>1155.0</ele><time>2026-03-29T08:01:40Z</time></trkpt><trkpt lat="45.8984950395086" lon="10.93444280375483"><ele>1155.0</ele><time>2026-03-29T08:01:41Z</time></trkpt><trkpt lat="45.89838513606601" lon="10.934585357073146"><ele>1155.0</ele><time>2026-03-29T08:01:42Z</time></trkpt><trkpt lat="45.89829195519817" lon="10.934775989087"><ele>1155.0</ele><time>2026-03-29T08:01:43Z</time></trkpt><trkpt lat="45.89821136709978" lon="10.934939566726579"><ele>1155.0</ele><time>2026-03-29T08:01:44Z</time></trkpt><trkpt lat="45.89815533036023" lon="10.935147071512246"><ele>1155.0</ele><time>2026-03-29T08:01:45Z</time></trkpt><trkpt lat="45.8981065763539" lon="10.935384873371126"><ele>1156.5</ele><time>2026-03-29T08:01:46Z</time></trkpt><trkpt lat="45.89801330031572" lon="10.935532600413405"><ele>1158.0</ele><time>2026-03-29T08:01:47Z</time></trkpt><trkpt lat="45.89791110824683" lon="10.935687313119129"><ele>1159.5</ele><time>2026-03-29T08:01:48Z</time></trkpt><trkpt lat="45.89782133885886" lon="10.935836916773079"><ele>1161.0</ele><time>2026-03-29T08:01:49Z</time></trkpt><trkpt lat="45.8977648391145" lon="10.936004107040816"><ele>1162.0</ele><time>2026-03-29T08:01:50Z</time></trkpt><trkpt lat="45.89769796307185" lon="10.936215970578624"><ele>1163.0</ele><time>2026-03-29T08:01:51Z</time></trkpt><trkpt lat="45.89762868374694" lon="10.936478086587757"><ele>1164.0</ele><time>2026-03-29T08:01:52Z</time></trkpt><trkpt lat="45.89753410981285" lon="10.93675573899696"><ele>1164.6666666666667</ele><time>2026-03-29T08:01:53Z</time></trkpt><trkpt lat="45.897450464801594" lon="10.937069603733027"><ele>1165.3333333333335</ele><time>2026-03-29T08:01:54Z</time></trkpt><trkpt lat="45.89739228892703" lon="10.937359044027142"><ele>1166.0</ele><time>2026-03-29T08:01:55Z</time></trkpt><trkpt lat="45.89730137862757" lon="10.937582678415561"><ele>1166.0</ele><time>2026-03-29T08:01:56Z</time></trkpt><trkpt lat="45.89725997230492" lon="10.93780493416191"><ele>1166.0</ele><time>2026-03-29T08:01:57Z</time></trkpt><trkpt lat="45.897231865630786" lon="10.938006922570986"><ele>1166.0</ele><time>2026-03-29T08:01:58Z</time></trkpt><trkpt lat="45.897176029199095" lon="10.938181340642936"><ele>1166.0</ele><time>2026-03-29T08:01:59Z</time></trkpt><trkpt lat="45.89711539643074" lon="10.938342742588096"><ele>1167.6</ele><time>2026-03-29T08:02:00Z</time></trkpt><trkpt lat="45.897051045955614" lon="10.938469533630334"><ele>1169.1999999999998</ele><time>2026-03-29T08:02:01Z</time></trkpt><trkpt lat="45.896995110424456" lon="10.938579316115755"><ele>1170.8000000000002</ele><time>2026-03-29T08:02:02Z</time></trkpt><trkpt lat="45.89694533502121" lon="10.938674417465338"><ele>1172.4</ele><time>2026-03-29T08:02:03Z</time></trkpt><trkpt lat="45.89690809271577" lon="10.938779581541109"><ele>1174.0</ele><time>2026-03-29T08:02:04Z</time></trkpt><trkpt lat="45.896846936960095" lon="10.938869950493345"><ele>1174.0</ele><time>2026-03-29T08:02:05Z</time></trkpt><trkpt lat="45.896785561266526" lon="10.93896331823414"><ele>1174.0</ele><time>2026-03-29T08:02:06Z</time></trkpt><trkpt lat="45.8967104208327" lon="10.939014309638601"><ele>1174.0</ele><time>2026-03-29T08:02:07Z</time></trkpt><trkpt lat="45.89664060148844" lon="10.939085266082204"><ele>1174.0</ele><time>2026-03-29T08:02:08Z</time></trkpt><trkpt lat="45.896574006602116" lon="10.9391660948455"><ele>1174.0</ele><time>2026-03-29T08:02:09Z</time></trkpt><trkpt lat="45.896522224523764" lon="10.939286734916028"><ele>1174.0</ele><time>2026-03-29T08:02:10Z</time></trkpt><trkpt lat="45.89647829728177" lon="10.939419199396411"><ele>1173.5</ele><time>2026-03-29T08:02:11Z</time></trkpt><trkpt lat="45.89644769489062" lon="10.939575508540761"><ele>1173.0</ele><time>2026-03-29T08:02:12Z</time></trkpt><trkpt lat="45.89640989225806" lon="10.939743952046712"><ele>1172.5</ele><time>2026-03-29T08:02:13Z</time></trkpt><trkpt lat="45.896375428299294" lon="10.93991826511486"><ele>1172.0</ele><time>2026-03-29T08:02:14Z</time></trkpt><trkpt lat="45.89634640935302" lon="10.940082339676122"><ele>1172.0</ele><time>2026-03-29T08:02:15Z</time></trkpt><trkpt lat="45.896314681755776" lon="10.940219101003406"><ele>1172.0</ele><time>2026-03-29T08:02:16Z</time></trkpt><trkpt lat="45.89628123465313" lon="10.940347676762968"><ele>1172.0</ele><time>2026-03-29T08:02:17Z</time></trkpt><trkpt lat="45.896249693202606" lon="10.940476988290746"><ele>1172.0</ele><time>2026-03-29T08:02:18Z</time></trkpt><trkpt lat="45.8962178471482" lon="10.940607295789645"><ele>1172.0</ele><time>2026-03-29T08:02:19Z</time></trkpt><trkpt lat="45.89618960099891" lon="10.940740988378836"><ele>1172.0</ele><time>2026-03-29T08:02:20Z</time></trkpt><trkpt lat="45.89615518495106" lon="10.9408737236891"><ele>1172.0</ele><time>2026-03-29T08:02:21Z</time></trkpt><trkpt lat="45.896112540445586" lon="10.941003492983299"><ele>1172.0</ele><time>2026-03-29T08:02:22Z</time></trkpt><trkpt lat="45.89607611123345" lon="10.94111694741784"><ele>1172.0</ele><time>2026-03-29T08:02:23Z</time></trkpt><trkpt lat="45.89603107292699" lon="10.941197849524531"><ele>1172.0</ele><time>2026-03-29T08:02:24Z</time></trkpt><trkpt lat="45.89598492426967" lon="10.941259854724867"><ele>1172.0</ele><time>2026-03-29T08:02:25Z</time></trkpt><trkpt lat="45.89593276172803" lon="10.941394831544738"><ele>1172.0</ele><time>2026-03-29T08:02:27Z</time></trkpt><trkpt lat="45.89587602505636" lon="10.94148760164027"><ele>1172.0</ele><time>2026-03-29T08:02:29Z</time></trkpt><trkpt lat="45.895821133659034" lon="10.941542795046647"><ele>1172.0</ele><time>2026-03-29T08:02:32Z</time></trkpt><trkpt lat="45.89589056146611" lon="10.941525257173913"><ele>1172.0</ele><time>2026-03-29T08:03:02Z</time></trkpt><trkpt lat="45.89591646825172" lon="10.941405926074825"><ele>1172.0</ele><time>2026-03-29T08:03:06Z</time></trkpt><trkpt lat="45.89599740851433" lon="10.941272610893192"><ele>1172.0</ele><time>2026-03-29T08:03:08Z</time></trkpt><trkpt lat="45.8960468116357" lon="10.941193403427913"><ele>1172.0</ele><time>2026-03-29T08:03:09Z</time></trkpt><trkpt lat="45.89610082679922" lon="10.941124957742424"><ele>1172.0</ele><time>2026-03-29T08:03:11Z</time></trkpt><trkpt lat="45.89604933798685" lon="10.941222583061398"><ele>1172.0</ele><time>2026-03-29T08:03:21Z</time></trkpt><trkpt lat="45.89597681647293" lon="10.94134799006582"><ele>1172.0</ele><time>2026-03-29T08:03:23Z</time></trkpt><trkpt lat="45.89593431421635" lon="10.941423053256697"><ele>1172.0</ele><time>2026-03-29T08:03:24Z</time></trkpt><trkpt lat="45.89589137181758" lon="10.941499551238712"><ele>1172.0</ele><time>2026-03-29T08:03:25Z</time></trkpt><trkpt lat="45.89584262110647" lon="10.941586395149512"><ele>1172.0</ele><time>2026-03-29T08:03:26Z</time></trkpt><trkpt lat="45.89576035487983" lon="10.941678948474909"><ele>1172.0</ele><time>2026-03-29T08:03:27Z</time></trkpt><trkpt lat="45.895689358190545" lon="10.941798808809947"><ele>1172.0</ele><time>2026-03-29T08:03:28Z</time></trkpt><trkpt lat="45.89560363601981" lon="10.94191885644488"><ele>1172.0</ele><time>2026-03-29T08:03:29Z</time></trkpt><trkpt lat="45.89552280699008" lon="10.942036405308432"><ele>1172.0</ele><time>2026-03-29T08:03:30Z</time></trkpt><trkpt lat="45.8954377812726" lon="10.942139926098875"><ele>1171.0</ele><time>2026-03-29T08:03:31Z</time></trkpt><trkpt lat="45.89535550433216" lon="10.942220645198965"><ele>1170.0</ele><time>2026-03-29T08:03:32Z</time></trkpt><trkpt lat="45.89526503405867" lon="10.942273624664328"><ele>1169.0</ele><time>2026-03-29T08:03:33Z</time></trkpt><trkpt lat="45.895187477967895" lon="10.942343841427776"><ele>1168.0</ele><time>2026-03-29T08:03:34Z</time></trkpt><trkpt lat="45.89505448447343" lon="10.942330186929105"><ele>1167.0</ele><time>2026-03-29T08:03:35Z</time></trkpt><trkpt lat="45.89493156977386" lon="10.942344342303072"><ele>1164.25</ele><time>2026-03-29T08:03:36Z</time></trkpt><trkpt lat="45.89479073328715" lon="10.942346407674234"><ele>1161.5</ele><time>2026-03-29T08:03:37Z</time></trkpt><trkpt lat="45.894654180724714" lon="10.94234532189277"><ele>1158.75</ele><time>2026-03-29T08:03:38Z</time></trkpt><trkpt lat="45.89452218711942" lon="10.942337092224692"><ele>1156.0</ele><time>2026-03-29T08:03:39Z</time></trkpt><trkpt lat="45.894408498032334" lon="10.94228028620946"><ele>1156.0</ele><time>2026-03-29T08:03:40Z</time></trkpt><trkpt lat="45.894315620633115" lon="10.942244699920172"><ele>1156.0</ele><time>2026-03-29T08:03:41Z</time></trkpt><trkpt lat="45.894230948030376" lon="10.942186599347938"><ele>1156.0</ele><time>2026-03-29T08:03:42Z</time></trkpt><trkpt lat="45.894159012534494" lon="10.942073585197164"><ele>1156.0</ele><time>2026-03-29T08:03:43Z</time></trkpt><trkpt lat="45.894060426650995" lon="10.941988025677487"><ele>1156.0</ele><time>2026-03-29T08:03:44Z</time></trkpt><trkpt lat="45.893956923968574" lon="10.94191415645076"><ele>1157.3333333333333</ele><time>2026-03-29T08:03:45Z</time></trkpt><trkpt lat="45.893831282085344" lon="10.941834654105318"><ele>1158.6666666666667</ele><time>2026-03-29T08:03:46Z</time></trkpt><trkpt lat="45.89368563323326" lon="10.941753974364834"><ele>1160.0</ele><time>2026-03-29T08:03:47Z</time></trkpt><trkpt lat="45.89352554839913" lon="10.941708442495388"><ele>1154.0</ele><time>2026-03-29T08:03:48Z</time></trkpt><trkpt lat="45.89335958048837" lon="10.941710532142002"><ele>1148.0</ele><time>2026-03-29T08:03:49Z</time></trkpt><trkpt lat="45.89321245979729" lon="10.941697144462555"><ele>1142.0</ele><time>2026-03-29T08:03:50Z</time></trkpt><trkpt lat="45.89306028610826" lon="10.941684724071585"><ele>1142.0</ele><time>2026-03-29T08:03:51Z</time></trkpt><trkpt lat="45.892899400472764" lon="10.94166223770238"><ele>1142.0</ele><time>2026-03-29T08:03:52Z</time></trkpt><trkpt lat="45.89272130127493" lon="10.94163707597929"><ele>1142.0</ele><time>2026-03-29T08:03:53Z</time></trkpt><trkpt lat="45.89255113454412" lon="10.941609606615945"><ele>1135.6666666666667</ele><time>2026-03-29T08:03:54Z</time></trkpt><trkpt lat="45.89238957877168" lon="10.941576641486858"><ele>1129.3333333333333</ele><time>2026-03-29T08:03:55Z</time></trkpt><trkpt lat="45.892226142334806" lon="10.941508890295434"><ele>1123.0</ele><time>2026-03-29T08:03:56Z</time></trkpt><trkpt lat="45.8920595312321" lon="10.941430729681569"><ele>1123.0</ele><time>2026-03-29T08:03:57Z</time></trkpt><trkpt lat="45.89188434644396" lon="10.941347646674076"><ele>1123.0</ele><time>2026-03-29T08:03:58Z</time></trkpt><trkpt lat="45.89170640511248" lon="10.941263256445291"><ele>1123.0</ele><time>2026-03-29T08:03:59Z</time></trkpt><trkpt lat="45.89151945343942" lon="10.94119999941938"><ele>1116.3333333333333</ele><time>2026-03-29T08:04:00Z</time></trkpt><trkpt lat="45.89133919612967" lon="10.941106201351129"><ele>1109.6666666666667</ele><time>2026-03-29T08:04:01Z</time></trkpt><trkpt lat="45.89117133914236" lon="10.941030115719709"><ele>1103.0</ele><time>2026-03-29T08:04:02Z</time></trkpt><trkpt lat="45.89101045443682" lon="10.940946554600115"><ele>1105.0</ele><time>2026-03-29T08:04:03Z</time></trkpt><trkpt lat="45.890845582762886" lon="10.940878081654885"><ele>1107.0</ele><time>2026-03-29T08:04:04Z</time></trkpt><trkpt lat="45.890680273067765" lon="10.940792130073062"><ele>1109.0</ele><time>2026-03-29T08:04:05Z</time></trkpt><trkpt lat="45.8905363003218" lon="10.940722457743966"><ele>1109.0</ele><time>2026-03-29T08:04:06Z</time></trkpt><trkpt lat="45.89040731593335" lon="10.940626905995982"><ele>1109.0</ele><time>2026-03-29T08:04:07Z</time></trkpt><trkpt lat="45.89029561586285" lon="10.940526413586127"><ele>1109.0</ele><time>2026-03-29T08:04:08Z</time></trkpt><trkpt lat="45.890201518587" lon="10.940409457582025"><ele>1109.0</ele><time>2026-03-29T08:04:09Z</time></trkpt><trkpt lat="45.890117128204466" lon="10.940320028244253"><ele>1104.3333333333335</ele><time>2026-03-29T08:04:10Z</time></trkpt><trkpt lat="45.890041772652104" lon="10.940276819672894"><ele>1099.6666666666667</ele><time>2026-03-29T08:04:11Z</time></trkpt><trkpt lat="45.88997103789506" lon="10.940283200658278"><ele>1095.0</ele><time>2026-03-29T08:04:12Z</time></trkpt><trkpt lat="45.8899158598038" lon="10.940351206065106"><ele>1090.3333333333333</ele><time>2026-03-29T08:04:13Z</time></trkpt><trkpt lat="45.88991976231321" lon="10.940483038385947"><ele>1085.6666666666665</ele><time>2026-03-29T08:04:14Z</time></trkpt><trkpt lat="45.88993047865491" lon="10.940583563660145"><ele>1081.0</ele><time>2026-03-29T08:04:15Z</time></trkpt><trkpt lat="45.89000903261077" lon="10.940690419967789"><ele>1081.0</ele><time>2026-03-29T08:04:16Z</time></trkpt><trkpt lat="45.89010612277237" lon="10.940794414739997"><ele>1081.0</ele><time>2026-03-29T08:04:17Z</time></trkpt><trkpt lat="45.8901997344327" lon="10.94094043947183"><ele>1081.0</ele><time>2026-03-29T08:04:18Z</time></trkpt><trkpt lat="45.89028763318283" lon="10.941119089277107"><ele>1081.0</ele><time>2026-03-29T08:04:19Z</time></trkpt><trkpt lat="45.89036796775649" lon="10.941333925189804"><ele>1081.0</ele><time>2026-03-29T08:04:20Z</time></trkpt><trkpt lat="45.89046523286108" lon="10.941549537542995"><ele>1081.0</ele><time>2026-03-29T08:04:21Z</time></trkpt><trkpt lat="45.89055791890612" lon="10.94178287131291"><ele>1081.0</ele><time>2026-03-29T08:04:22Z</time></trkpt><trkpt lat="45.890655963099256" lon="10.942023618424022"><ele>1077.6666666666665</ele><time>2026-03-29T08:04:23Z</time></trkpt><trkpt lat="45.89075261385032" lon="10.94227715036043"><ele>1074.3333333333333</ele><time>2026-03-29T08:04:24Z</time></trkpt><trkpt lat="45.89085136551618" lon="10.942511162659716"><ele>1071.0</ele><time>2026-03-29T08:04:25Z</time></trkpt><trkpt lat="45.89092787542603" lon="10.94274115634502"><ele>1071.0</ele><time>2026-03-29T08:04:26Z</time></trkpt><trkpt lat="45.89096312183033" lon="10.94297569004396"><ele>1071.0</ele><time>2026-03-29T08:04:27Z</time></trkpt><trkpt lat="45.89099032783872" lon="10.943223555924785"><ele>1071.0</ele><time>2026-03-29T08:04:28Z</time></trkpt><trkpt lat="45.89103568571983" lon="10.94344699919882"><ele>1067.0</ele><time>2026-03-29T08:04:29Z</time></trkpt><trkpt lat="45.89108969866154" lon="10.943657822451"><ele>1063.0</ele><time>2026-03-29T08:04:30Z</time></trkpt><trkpt lat="45.891178794619435" lon="10.943867963350465"><ele>1059.0</ele><time>2026-03-29T08:04:31Z</time></trkpt><trkpt lat="45.89126390358934" lon="10.944070523013803"><ele>1056.0</ele><time>2026-03-29T08:04:32Z</time></trkpt><trkpt lat="45.89132627347349" lon="10.944274038219882"><ele>1053.0</ele><time>2026-03-29T08:04:33Z</time></trkpt><trkpt lat="45.891368108845136" lon="10.944499162154749"><ele>1050.0</ele><time>2026-03-29T08:04:34Z</time></trkpt><trkpt lat="45.89136771929163" lon="10.944747914554716"><ele>1050.0</ele><time>2026-03-29T08:04:35Z</time></trkpt><trkpt lat="45.891391423539474" lon="10.944990511743114"><ele>1050.0</ele><time>2026-03-29T08:04:36Z</time></trkpt><trkpt lat="45.89140792418" lon="10.945218279566696"><ele>1050.0</ele><time>2026-03-29T08:04:37Z</time></trkpt><trkpt lat="45.891464575419896" lon="10.945461499811438"><ele>1046.0</ele><time>2026-03-29T08:04:38Z</time></trkpt><trkpt lat="45.891547571439446" lon="10.945714757897555"><ele>1042.0</ele><time>2026-03-29T08:04:39Z</time></trkpt><trkpt lat="45.89162571769139" lon="10.945971555240325"><ele>1038.0</ele><time>2026-03-29T08:04:40Z</time></trkpt><trkpt lat="45.89169715800259" lon="10.946206911510409"><ele>1038.0</ele><time>2026-03-29T08:04:41Z</time></trkpt><trkpt lat="45.8917583173166" lon="10.946432446962511"><ele>1038.0</ele><time>2026-03-29T08:04:42Z</time></trkpt><trkpt lat="45.89179884402492" lon="10.946679229800678"><ele>1038.0</ele><time>2026-03-29T08:04:43Z</time></trkpt><trkpt lat="45.89181790701427" lon="10.946952659648856"><ele>1038.0</ele><time>2026-03-29T08:04:44Z</time></trkpt><trkpt lat="45.891824857708635" lon="10.947229064882082"><ele>1038.0</ele><time>2026-03-29T08:04:45Z</time></trkpt><trkpt lat="45.89184074176785" lon="10.947460385398847"><ele>1038.0</ele><time>2026-03-29T08:04:46Z</time></trkpt><trkpt lat="45.89186770525754" lon="10.947667647811498"><ele>1036.4</ele><time>2026-03-29T08:04:47Z</time></trkpt><trkpt lat="45.89190850346368" lon="10.947836337960176"><ele>1034.8</ele><time>2026-03-29T08:04:48Z</time></trkpt><trkpt lat="45.89195550895018" lon="10.947972855520202"><ele>1033.2</ele><time>2026-03-29T08:04:49Z</time></trkpt><trkpt lat="45.89199932081608" lon="10.948083835120148"><ele>1031.6</ele><time>2026-03-29T08:04:50Z</time></trkpt><trkpt lat="45.891957263292674" lon="10.948259874035704"><ele>1030.0</ele><time>2026-03-29T08:04:52Z</time></trkpt><trkpt lat="45.89186521630656" lon="10.94826939310469"><ele>1030.0</ele><time>2026-03-29T08:04:53Z</time></trkpt><trkpt lat="45.89179331516906" lon="10.948224797456568"><ele>1030.0</ele><time>2026-03-29T08:04:54Z</time></trkpt><trkpt lat="45.89173613260739" lon="10.948106753389911"><ele>1030.0</ele><time>2026-03-29T08:04:55Z</time></trkpt><trkpt lat="45.89166866047275" lon="10.947947351623341"><ele>1030.0</ele><time>2026-03-29T08:04:56Z</time></trkpt><trkpt lat="45.891559146694696" lon="10.94778220320814"><ele>1025.3333333333333</ele><time>2026-03-29T08:04:57Z</time></trkpt><trkpt lat="45.891409313114806" lon="10.94762922939379"><ele>1020.6666666666667</ele><time>2026-03-29T08:04:58Z</time></trkpt><trkpt lat="45.891225377596506" lon="10.947476832234218"><ele>1016.0</ele><time>2026-03-29T08:04:59Z</time></trkpt><trkpt lat="45.89102495541834" lon="10.947319640828182"><ele>1010.6666666666667</ele><time>2026-03-29T08:05:00Z</time></trkpt><trkpt lat="45.89084599594577" lon="10.947205250032926"><ele>1005.3333333333333</ele><time>2026-03-29T08:05:01Z</time></trkpt><trkpt lat="45.890685447655066" lon="10.94708286737348"><ele>1000.0</ele><time>2026-03-29T08:05:02Z</time></trkpt><trkpt lat="45.89053798135124" lon="10.94698852222212"><ele>1000.0</ele><time>2026-03-29T08:05:03Z</time></trkpt><trkpt lat="45.89040073886847" lon="10.946928454038385"><ele>1000.0</ele><time>2026-03-29T08:05:04Z</time></trkpt><trkpt lat="45.89025460505742" lon="10.946911501875055"><ele>1000.0</ele><time>2026-03-29T08:05:05Z</time></trkpt><trkpt lat="45.890101282832426" lon="10.946933298571263"><ele>1000.0</ele><time>2026-03-29T08:05:06Z</time></trkpt><trkpt lat="45.889968490862174" lon="10.946979532339846"><ele>997.25</ele><time>2026-03-29T08:05:07Z</time></trkpt><trkpt lat="45.88984706127603" lon="10.947031213496908"><ele>994.5</ele><time>2026-03-29T08:05:08Z</time></trkpt><trkpt lat="45.88976324060195" lon="10.947061767124945"><ele>991.75</ele><time>2026-03-29T08:05:09Z</time></trkpt><trkpt lat="45.88967572529261" lon="10.94709056291342"><ele>989.0</ele><time>2026-03-29T08:05:11Z</time></trkpt><trkpt lat="45.88972304848338" lon="10.947338626097695"><ele>989.0000000000001</ele><time>2026-03-29T08:05:13Z</time></trkpt><trkpt lat="45.88972857547471" lon="10.947448568392083"><ele>989.0</ele><time>2026-03-29T08:05:14Z</time></trkpt><trkpt lat="45.88976710834991" lon="10.947559511711564"><ele>989.0</ele><time>2026-03-29T08:05:15Z</time></trkpt><trkpt lat="45.88981275811575" lon="10.947646259655203"><ele>989.0</ele><time>2026-03-29T08:05:16Z</time></trkpt><trkpt lat="45.88987453169076" lon="10.947743504810745"><ele>989.0000000000001</ele><time>2026-03-29T08:05:17Z</time></trkpt><trkpt lat="45.889932732921736" lon="10.947838207229735"><ele>989.0</ele><time>2026-03-29T08:05:18Z</time></trkpt><trkpt lat="45.8899894137208" lon="10.947930288079661"><ele>988.6</ele><time>2026-03-29T08:05:19Z</time></trkpt><trkpt lat="45.89004801876834" lon="10.948017447942734"><ele>988.2</ele><time>2026-03-29T08:05:20Z</time></trkpt><trkpt lat="45.89010910119177" lon="10.948112528127368"><ele>987.8000000000001</ele><time>2026-03-29T08:05:21Z</time></trkpt><trkpt lat="45.890173722664066" lon="10.9482141212732"><ele>987.4000000000001</ele><time>2026-03-29T08:05:22Z</time></trkpt><trkpt lat="45.8902277705513" lon="10.948331337734746"><ele>987.0</ele><time>2026-03-29T08:05:23Z</time></trkpt><trkpt lat="45.89029513351141" lon="10.948446499629195"><ele>988.0</ele><time>2026-03-29T08:05:24Z</time></trkpt><trkpt lat="45.890365213603076" lon="10.948567167293556"><ele>989.0</ele><time>2026-03-29T08:05:25Z</time></trkpt><trkpt lat="45.890438559096815" lon="10.948696786267439"><ele>990.0</ele><time>2026-03-29T08:05:26Z</time></trkpt><trkpt lat="45.89051352682255" lon="10.948828459001524"><ele>991.0</ele><time>2026-03-29T08:05:27Z</time></trkpt><trkpt lat="45.89060162553449" lon="10.948962907403976"><ele>991.0</ele><time>2026-03-29T08:05:28Z</time></trkpt><trkpt lat="45.89069883400946" lon="10.949091436897508"><ele>991.0</ele><time>2026-03-29T08:05:29Z</time></trkpt><trkpt lat="45.89080171570263" lon="10.949214751857316"><ele>991.0</ele><time>2026-03-29T08:05:30Z</time></trkpt><trkpt lat="45.89091319104258" lon="10.949337077065096"><ele>991.0</ele><time>2026-03-29T08:05:31Z</time></trkpt><trkpt lat="45.89101235924046" lon="10.949455549618612"><ele>992.1999999999999</ele><time>2026-03-29T08:05:32Z</time></trkpt><trkpt lat="45.891063751981726" lon="10.949589977135835"><ele>993.3999999999999</ele><time>2026-03-29T08:05:33Z</time></trkpt><trkpt lat="45.89111492176834" lon="10.949703974518618"><ele>994.6</ele><time>2026-03-29T08:05:34Z</time></trkpt><trkpt lat="45.89117837474099" lon="10.9497964178108"><ele>995.8</ele><time>2026-03-29T08:05:35Z</time></trkpt><trkpt lat="45.89123800959621" lon="10.949907910782933"><ele>997.0</ele><time>2026-03-29T08:05:36Z</time></trkpt><trkpt lat="45.8913052789222" lon="10.950007661158743"><ele>997.2</ele><time>2026-03-29T08:05:37Z</time></trkpt><trkpt lat="45.89138075548961" lon="10.950117969479338"><ele>997.4000000000001</ele><time>2026-03-29T08:05:38Z</time></trkpt><trkpt lat="45.89144705052176" lon="10.950212004247318"><ele>997.5999999999999</ele><time>2026-03-29T08:05:39Z</time></trkpt><trkpt lat="45.891467059154465" lon="10.95031619245463"><ele>997.8</ele><time>2026-03-29T08:05:40Z</time></trkpt><trkpt lat="45.89151830397691" lon="10.950455671556501"><ele>998.0</ele><time>2026-03-29T08:05:42Z</time></trkpt><trkpt lat="45.89153561927027" lon="10.95059356912288"><ele>998.0</ele><time>2026-03-29T08:05:44Z</time></trkpt><trkpt lat="45.89153431270321" lon="10.95077939905491"><ele>998.0</ele><time>2026-03-29T08:05:46Z</time></trkpt><trkpt lat="45.89153565830518" lon="10.95090323359848"><ele>998.0</ele><time>2026-03-29T08:05:47Z</time></trkpt><trkpt lat="45.89153870311492" lon="10.950995977324258"><ele>998.0</ele><time>2026-03-29T08:05:48Z</time></trkpt><trkpt lat="45.89158160468321" lon="10.951102360565974"><ele>998.0</ele><time>2026-03-29T08:05:50Z</time></trkpt><trkpt lat="45.89165919058225" lon="10.951214941748312"><ele>997.5999999999999</ele><time>2026-03-29T08:05:52Z</time></trkpt><trkpt lat="45.89174097728063" lon="10.951294033422394"><ele>997.1999999999999</ele><time>2026-03-29T08:05:54Z</time></trkpt><trkpt lat="45.891799126112204" lon="10.951366005654508"><ele>996.8</ele><time>2026-03-29T08:05:57Z</time></trkpt><trkpt lat="45.89175218118145" lon="10.951506594066844"><ele>996.4</ele><time>2026-03-29T08:05:58Z</time></trkpt><trkpt lat="45.891719472687086" lon="10.951661638573746"><ele>996.0</ele><time>2026-03-29T08:06:00Z</time></trkpt><trkpt lat="45.8917098493676" lon="10.951756327457527"><ele>996.0</ele><time>2026-03-29T08:06:01Z</time></trkpt><trkpt lat="45.89170786181736" lon="10.951872227696626"><ele>995.9999999999999</ele><time>2026-03-29T08:06:02Z</time></trkpt><trkpt lat="45.89168625972808" lon="10.951986850674452"><ele>996.0</ele><time>2026-03-29T08:06:03Z</time></trkpt><trkpt lat="45.8916873398551" lon="10.952097922761324"><ele>996.0</ele><time>2026-03-29T08:06:04Z</time></trkpt><trkpt lat="45.891666292182585" lon="10.952185497801846"><ele>995.9999999999999</ele><time>2026-03-29T08:06:05Z</time></trkpt><trkpt lat="45.891642543195026" lon="10.952275967818633"><ele>996.0</ele><time>2026-03-29T08:06:06Z</time></trkpt><trkpt lat="45.89164558906087" lon="10.952373530889984"><ele>996.0</ele><time>2026-03-29T08:06:07Z</time></trkpt><trkpt lat="45.89160250076086" lon="10.952451902133694"><ele>996.25</ele><time>2026-03-29T08:06:08Z</time></trkpt><trkpt lat="45.89171531818005" lon="10.952583363687065"><ele>996.5</ele><time>2026-03-29T08:06:09Z</time></trkpt><trkpt lat="45.89176889266781" lon="10.95270220809829"><ele>996.75</ele><time>2026-03-29T08:06:10Z</time></trkpt><trkpt lat="45.89182073752753" lon="10.95282880677122"><ele>997.0</ele><time>2026-03-29T08:06:11Z</time></trkpt><trkpt lat="45.891876288175546" lon="10.952956625861441"><ele>999.0</ele><time>2026-03-29T08:06:12Z</time></trkpt><trkpt lat="45.89193206176351" lon="10.953087265903491"><ele>1001.0</ele><time>2026-03-29T08:06:13Z</time></trkpt><trkpt lat="45.89200798836103" lon="10.953192445641577"><ele>1003.0</ele><time>2026-03-29T08:06:14Z</time></trkpt><trkpt lat="45.89209058500335" lon="10.953279263388609"><ele>1005.0</ele><time>2026-03-29T08:06:15Z</time></trkpt><trkpt lat="45.89217311097324" lon="10.953360019753697"><ele>1007.0</ele><time>2026-03-29T08:06:16Z</time></trkpt><trkpt lat="45.8922412199335" lon="10.953465645801387"><ele>1007.0</ele><time>2026-03-29T08:06:17Z</time></trkpt><trkpt lat="45.892309669266645" lon="10.953587206322526"><ele>1007.0</ele><time>2026-03-29T08:06:18Z</time></trkpt><trkpt lat="45.89238962397822" lon="10.953687847408673"><ele>1007.0</ele><time>2026-03-29T08:06:19Z</time></trkpt><trkpt lat="45.89245729407027" lon="10.953789128523882"><ele>1007.0</ele><time>2026-03-29T08:06:20Z</time></trkpt><trkpt lat="45.89252947010954" lon="10.953864440180462"><ele>1007.0</ele><time>2026-03-29T08:06:21Z</time></trkpt><trkpt lat="45.89261119237559" lon="10.953955716038248"><ele>1009.25</ele><time>2026-03-29T08:06:22Z</time></trkpt><trkpt lat="45.89270728378576" lon="10.954043198024689"><ele>1011.5</ele><time>2026-03-29T08:06:23Z</time></trkpt><trkpt lat="45.8928097848001" lon="10.954115045229884"><ele>1013.75</ele><time>2026-03-29T08:06:24Z</time></trkpt><trkpt lat="45.892922912836354" lon="10.95417038739885"><ele>1016.0</ele><time>2026-03-29T08:06:25Z</time></trkpt><trkpt lat="45.89304528646476" lon="10.954202940636996"><ele>1015.75</ele><time>2026-03-29T08:06:26Z</time></trkpt><trkpt lat="45.89316973511685" lon="10.954226320253996"><ele>1015.5</ele><time>2026-03-29T08:06:27Z</time></trkpt><trkpt lat="45.89329495347513" lon="10.954244355844201"><ele>1015.25</ele><time>2026-03-29T08:06:28Z</time></trkpt><trkpt lat="45.89340100716601" lon="10.954268647444659"><ele>1015.0</ele><time>2026-03-29T08:06:29Z</time></trkpt><trkpt lat="45.89350562578145" lon="10.954298375940867"><ele>1016.6</ele><time>2026-03-29T08:06:30Z</time></trkpt><trkpt lat="45.8936047342449" lon="10.954360275559571"><ele>1018.2</ele><time>2026-03-29T08:06:31Z</time></trkpt><trkpt lat="45.89368775908194" lon="10.954454183511318"><ele>1019.8</ele><time>2026-03-29T08:06:32Z</time></trkpt><trkpt lat="45.89374170388006" lon="10.954587286089954"><ele>1021.4</ele><time>2026-03-29T08:06:33Z</time></trkpt><trkpt lat="45.89380960844874" lon="10.954709271107577"><ele>1023.0</ele><time>2026-03-29T08:06:34Z</time></trkpt><trkpt lat="45.89388260802137" lon="10.95483868576552"><ele>1023.0</ele><time>2026-03-29T08:06:35Z</time></trkpt><trkpt lat="45.89396557065279" lon="10.954945968563708"><ele>1023.0</ele><time>2026-03-29T08:06:36Z</time></trkpt><trkpt lat="45.89403781864315" lon="10.955078240578619"><ele>1023.0</ele><time>2026-03-29T08:06:37Z</time></trkpt><trkpt lat="45.894111281917105" lon="10.955212333190229"><ele>1023.0</ele><time>2026-03-29T08:06:38Z</time></trkpt><trkpt lat="45.89418593995304" lon="10.955350640349224"><ele>1025.0</ele><time>2026-03-29T08:06:39Z</time></trkpt><trkpt lat="45.89425251565779" lon="10.955494029380741"><ele>1027.0</ele><time>2026-03-29T08:06:40Z</time></trkpt><trkpt lat="45.8943262426055" lon="10.955634045571536"><ele>1029.0</ele><time>2026-03-29T08:06:41Z</time></trkpt><trkpt lat="45.89439940349911" lon="10.955772814266984"><ele>1031.0</ele><time>2026-03-29T08:06:42Z</time></trkpt><trkpt lat="45.894477877186496" lon="10.95590224658392"><ele>1035.75</ele><time>2026-03-29T08:06:43Z</time></trkpt><trkpt lat="45.89456830650861" lon="10.956007588400249"><ele>1040.5</ele><time>2026-03-29T08:06:44Z</time></trkpt><trkpt lat="45.89468271678517" lon="10.956055061505962"><ele>1045.25</ele><time>2026-03-29T08:06:45Z</time></trkpt><trkpt lat="45.89481286014285" lon="10.956066862843636"><ele>1050.0</ele><time>2026-03-29T08:06:46Z</time></trkpt><trkpt lat="45.894950148388766" lon="10.956069799519433"><ele>1050.0</ele><time>2026-03-29T08:06:47Z</time></trkpt><trkpt lat="45.89504090499031" lon="10.956087498100075"><ele>1050.0</ele><time>2026-03-29T08:06:48Z</time></trkpt><trkpt lat="45.89510428768377" lon="10.956153709684"><ele>1050.0</ele><time>2026-03-29T08:06:49Z</time></trkpt><trkpt lat="45.89513074592592" lon="10.956298210766708"><ele>1050.0</ele><time>2026-03-29T08:06:50Z</time></trkpt><trkpt lat="45.895122589645304" lon="10.956459323290057"><ele>1050.0</ele><time>2026-03-29T08:06:51Z</time></trkpt><trkpt lat="45.89514844649299" lon="10.956666889356288"><ele>1054.3333333333333</ele><time>2026-03-29T08:06:52Z</time></trkpt><trkpt lat="45.895213461504994" lon="10.956888161633959"><ele>1058.6666666666665</ele><time>2026-03-29T08:06:53Z</time></trkpt><trkpt lat="45.89529291136205" lon="10.95709671180085"><ele>1063.0</ele><time>2026-03-29T08:06:54Z</time></trkpt><trkpt lat="45.89538709439643" lon="10.957276723431162"><ele>1063.0</ele><time>2026-03-29T08:06:55Z</time></trkpt><trkpt lat="45.895474132673584" lon="10.957415848981041"><ele>1063.0</ele><time>2026-03-29T08:06:55.999Z</time></trkpt><trkpt lat="45.895537527475405" lon="10.95755066828093"><ele>1063.0</ele><time>2026-03-29T08:06:56.999Z</time></trkpt><trkpt lat="45.89557782602194" lon="10.95771285340233"><ele>1063.0</ele><time>2026-03-29T08:06:57.999Z</time></trkpt><trkpt lat="45.89557553272484" lon="10.95790067819913"><ele>1063.3333333333333</ele><time>2026-03-29T08:06:58.999Z</time></trkpt><trkpt lat="45.895613709745426" lon="10.958108952624942"><ele>1063.6666666666667</ele><time>2026-03-29T08:06:59.999Z</time></trkpt><trkpt lat="45.89563297664054" lon="10.958351925364937"><ele>1064.0</ele><time>2026-03-29T08:07:01Z</time></trkpt><trkpt lat="45.895633413328966" lon="10.958547554527408"><ele>1065.75</ele><time>2026-03-29T08:07:02Z</time></trkpt><trkpt lat="45.895622871548674" lon="10.958703245081397"><ele>1067.5</ele><time>2026-03-29T08:07:03Z</time></trkpt><trkpt lat="45.895555303347116" lon="10.95885264072077"><ele>1069.25</ele><time>2026-03-29T08:07:04Z</time></trkpt><trkpt lat="45.895484286074336" lon="10.958989855750634"><ele>1071.0</ele><time>2026-03-29T08:07:05Z</time></trkpt><trkpt lat="45.895386076941904" lon="10.959085040694552"><ele>1071.0</ele><time>2026-03-29T08:07:06Z</time></trkpt><trkpt lat="45.895288339763006" lon="10.959159522475803"><ele>1071.0</ele><time>2026-03-29T08:07:07Z</time></trkpt><trkpt lat="45.895175189561336" lon="10.959221782006209"><ele>1071.0</ele><time>2026-03-29T08:07:08Z</time></trkpt><trkpt lat="45.89508513450604" lon="10.959321816726824"><ele>1071.0</ele><time>2026-03-29T08:07:09Z</time></trkpt><trkpt lat="45.89504504340442" lon="10.959445373987737"><ele>1071.0</ele><time>2026-03-29T08:07:10Z</time></trkpt><trkpt lat="45.895012701991" lon="10.959578710147106"><ele>1070.5</ele><time>2026-03-29T08:07:11Z</time></trkpt><trkpt lat="45.89500004427389" lon="10.95975334655338"><ele>1070.0</ele><time>2026-03-29T08:07:12Z</time></trkpt><trkpt lat="45.8949833764506" lon="10.959958808775552"><ele>1069.5</ele><time>2026-03-29T08:07:13Z</time></trkpt><trkpt lat="45.89496280399201" lon="10.960153487396736"><ele>1069.0</ele><time>2026-03-29T08:07:14Z</time></trkpt><trkpt lat="45.894951454765106" lon="10.960303208642237"><ele>1069.0</ele><time>2026-03-29T08:07:15Z</time></trkpt><trkpt lat="45.89497066574245" lon="10.960453306383227"><ele>1069.0</ele><time>2026-03-29T08:07:16Z</time></trkpt><trkpt lat="45.895024445632096" lon="10.96058747845869"><ele>1069.0</ele><time>2026-03-29T08:07:17Z</time></trkpt><trkpt lat="45.89510824125479" lon="10.960728619835272"><ele>1069.0</ele><time>2026-03-29T08:07:18Z</time></trkpt><trkpt lat="45.89517621285193" lon="10.960874108745859"><ele>1069.0</ele><time>2026-03-29T08:07:19Z</time></trkpt><trkpt lat="45.8951993014194" lon="10.96101422680708"><ele>1069.0</ele><time>2026-03-29T08:07:20Z</time></trkpt><trkpt lat="45.895200160907244" lon="10.961160100553876"><ele>1069.0</ele><time>2026-03-29T08:07:21Z</time></trkpt><trkpt lat="45.89514265493909" lon="10.961294591441398"><ele>1069.0</ele><time>2026-03-29T08:07:22Z</time></trkpt><trkpt lat="45.89506137160224" lon="10.961419096500359"><ele>1069.0</ele><time>2026-03-29T08:07:23Z</time></trkpt><trkpt lat="45.89496392148798" lon="10.96157790595626"><ele>1068.6666666666665</ele><time>2026-03-29T08:07:24Z</time></trkpt><trkpt lat="45.8948386157512" lon="10.961766467185491"><ele>1068.3333333333333</ele><time>2026-03-29T08:07:25Z</time></trkpt><trkpt lat="45.89470011859956" lon="10.96197368527236"><ele>1068.0</ele><time>2026-03-29T08:07:26Z</time></trkpt><trkpt lat="45.89457827441188" lon="10.962239955103826"><ele>1068.5</ele><time>2026-03-29T08:07:27Z</time></trkpt><trkpt lat="45.894457796477596" lon="10.962536524569044"><ele>1069.0</ele><time>2026-03-29T08:07:28Z</time></trkpt><trkpt lat="45.8943487746878" lon="10.96283693107193"><ele>1073.6666666666665</ele><time>2026-03-29T08:07:29Z</time></trkpt><trkpt lat="45.89425202128378" lon="10.963071931855302"><ele>1078.3333333333333</ele><time>2026-03-29T08:07:30Z</time></trkpt><trkpt lat="45.89417548118182" lon="10.963259965928502"><ele>1083.0</ele><time>2026-03-29T08:07:31Z</time></trkpt><trkpt lat="45.89412183871087" lon="10.963422389049201"><ele>1084.5</ele><time>2026-03-29T08:07:32Z</time></trkpt><trkpt lat="45.89411907948223" lon="10.963585822467659"><ele>1086.0</ele><time>2026-03-29T08:07:33Z</time></trkpt><trkpt lat="45.894127054994506" lon="10.96377686089065"><ele>1087.5</ele><time>2026-03-29T08:07:34Z</time></trkpt><trkpt lat="45.894160876258034" lon="10.9639791336027"><ele>1089.0</ele><time>2026-03-29T08:07:35Z</time></trkpt><trkpt lat="45.89420796883234" lon="10.964182984100876"><ele>1091.0</ele><time>2026-03-29T08:07:36Z</time></trkpt><trkpt lat="45.894277678409836" lon="10.964374333164033"><ele>1093.0</ele><time>2026-03-29T08:07:37Z</time></trkpt><trkpt lat="45.894369963990755" lon="10.964515836212236"><ele>1095.0</ele><time>2026-03-29T08:07:38Z</time></trkpt><trkpt lat="45.89446681729834" lon="10.964622883879494"><ele>1097.0</ele><time>2026-03-29T08:07:39Z</time></trkpt><trkpt lat="45.894590363440585" lon="10.964708100214244"><ele>1097.0</ele><time>2026-03-29T08:07:40Z</time></trkpt><trkpt lat="45.8947298023087" lon="10.964800586599564"><ele>1097.0</ele><time>2026-03-29T08:07:41Z</time></trkpt><trkpt lat="45.894876883215765" lon="10.964915126923435"><ele>1097.0</ele><time>2026-03-29T08:07:42Z</time></trkpt><trkpt lat="45.8950036856552" lon="10.965014732617979"><ele>1096.75</ele><time>2026-03-29T08:07:43Z</time></trkpt><trkpt lat="45.89511413589607" lon="10.965112447153276"><ele>1096.5</ele><time>2026-03-29T08:07:44Z</time></trkpt><trkpt lat="45.895196894564116" lon="10.965235915752643"><ele>1096.25</ele><time>2026-03-29T08:07:45Z</time></trkpt><trkpt lat="45.895237056028016" lon="10.96537964582168"><ele>1096.0</ele><time>2026-03-29T08:07:46Z</time></trkpt><trkpt lat="45.8952936369893" lon="10.96554415120969"><ele>1096.0</ele><time>2026-03-29T08:07:47Z</time></trkpt><trkpt lat="45.895354812163525" lon="10.965721123773505"><ele>1096.0</ele><time>2026-03-29T08:07:48Z</time></trkpt><trkpt lat="45.895423413186634" lon="10.965888292593489"><ele>1096.0</ele><time>2026-03-29T08:07:49Z</time></trkpt><trkpt lat="45.89551716252777" lon="10.966010855322208"><ele>1096.0</ele><time>2026-03-29T08:07:50Z</time></trkpt><trkpt lat="45.89561664383607" lon="10.96613514177666"><ele>1100.3333333333333</ele><time>2026-03-29T08:07:51Z</time></trkpt><trkpt lat="45.89573625219336" lon="10.966248949934007"><ele>1104.6666666666667</ele><time>2026-03-29T08:07:52Z</time></trkpt><trkpt lat="45.895869225184526" lon="10.966355604822182"><ele>1109.0</ele><time>2026-03-29T08:07:53Z</time></trkpt><trkpt lat="45.89602703527692" lon="10.966442703178085"><ele>1111.0</ele><time>2026-03-29T08:07:54Z</time></trkpt><trkpt lat="45.896212186142456" lon="10.966514736394398"><ele>1113.0</ele><time>2026-03-29T08:07:55Z</time></trkpt><trkpt lat="45.89640147491775" lon="10.96658959621811"><ele>1115.0</ele><time>2026-03-29T08:07:56Z</time></trkpt><trkpt lat="45.896551844140504" lon="10.966658075150598"><ele>1115.0</ele><time>2026-03-29T08:07:57Z</time></trkpt><trkpt lat="45.89667712135639" lon="10.966689848598032"><ele>1115.0</ele><time>2026-03-29T08:07:58Z</time></trkpt><trkpt lat="45.89679931275681" lon="10.96666078652761"><ele>1115.0</ele><time>2026-03-29T08:07:59Z</time></trkpt><trkpt lat="45.89688281574028" lon="10.966633846224562"><ele>1115.0</ele><time>2026-03-29T08:08:00Z</time></trkpt><trkpt lat="45.89695427189552" lon="10.966646620478105"><ele>1115.0</ele><time>2026-03-29T08:08:01Z</time></trkpt><trkpt lat="45.89700627034935" lon="10.966719154872932"><ele>1119.2</ele><time>2026-03-29T08:08:02Z</time></trkpt><trkpt lat="45.8969982626699" lon="10.96684464875524"><ele>1123.4</ele><time>2026-03-29T08:08:03Z</time></trkpt><trkpt lat="45.89696949425408" lon="10.966948679758866"><ele>1127.6</ele><time>2026-03-29T08:08:04Z</time></trkpt><trkpt lat="45.89691165825667" lon="10.967035408243529"><ele>1131.8</ele><time>2026-03-29T08:08:05Z</time></trkpt><trkpt lat="45.89684167482286" lon="10.967187246266397"><ele>1136.0</ele><time>2026-03-29T08:08:06Z</time></trkpt><trkpt lat="45.89676525682302" lon="10.967370356967642"><ele>1135.3333333333335</ele><time>2026-03-29T08:08:07Z</time></trkpt><trkpt lat="45.89668129150564" lon="10.967564936758984"><ele>1134.6666666666667</ele><time>2026-03-29T08:08:08Z</time></trkpt><trkpt lat="45.896614974885345" lon="10.967794645887688"><ele>1134.0</ele><time>2026-03-29T08:08:09Z</time></trkpt><trkpt lat="45.896568279195925" lon="10.96796686027025"><ele>1134.0</ele><time>2026-03-29T08:08:10Z</time></trkpt><trkpt lat="45.89657154307755" lon="10.96813748356562"><ele>1134.0</ele><time>2026-03-29T08:08:11Z</time></trkpt><trkpt lat="45.89660341312599" lon="10.968305945781703"><ele>1134.0</ele><time>2026-03-29T08:08:12Z</time></trkpt><trkpt lat="45.89665428406523" lon="10.968499890903086"><ele>1134.0</ele><time>2026-03-29T08:08:13Z</time></trkpt><trkpt lat="45.89670222311081" lon="10.968716881515999"><ele>1137.25</ele><time>2026-03-29T08:08:14Z</time></trkpt><trkpt lat="45.896755617336" lon="10.968951793803438"><ele>1140.5</ele><time>2026-03-29T08:08:15Z</time></trkpt><trkpt lat="45.8967907469902" lon="10.969117854919157"><ele>1143.75</ele><time>2026-03-29T08:08:16Z</time></trkpt><trkpt lat="45.896826175562744" lon="10.969227857391857"><ele>1147.0</ele><time>2026-03-29T08:08:17Z</time></trkpt><trkpt lat="45.8968876651755" lon="10.969287744589163"><ele>1147.0</ele><time>2026-03-29T08:08:18Z</time></trkpt><trkpt lat="45.896964106406344" lon="10.969296387183006"><ele>1147.0</ele><time>2026-03-29T08:08:19Z</time></trkpt><trkpt lat="45.897048439984495" lon="10.96922179212227"><ele>1147.0</ele><time>2026-03-29T08:08:20Z</time></trkpt><trkpt lat="45.89712658628741" lon="10.969085982930093"><ele>1147.0</ele><time>2026-03-29T08:08:21Z</time></trkpt><trkpt lat="45.89722359095857" lon="10.968963769483668"><ele>1147.0</ele><time>2026-03-29T08:08:22Z</time></trkpt><trkpt lat="45.89731176792906" lon="10.968928003247274"><ele>1147.0</ele><time>2026-03-29T08:08:23Z</time></trkpt><trkpt lat="45.897400685604154" lon="10.968978407526834"><ele>1147.0</ele><time>2026-03-29T08:08:24Z</time></trkpt><trkpt lat="45.89746250039995" lon="10.969075006892316"><ele>1147.0</ele><time>2026-03-29T08:08:25Z</time></trkpt><trkpt lat="45.89754704065521" lon="10.969176020819388"><ele>1147.0</ele><time>2026-03-29T08:08:26Z</time></trkpt><trkpt lat="45.897638821516594" lon="10.969306441880832"><ele>1147.0</ele><time>2026-03-29T08:08:27Z</time></trkpt><trkpt lat="45.89764502928946" lon="10.969510447071691"><ele>1152.3333333333333</ele><time>2026-03-29T08:08:28Z</time></trkpt><trkpt lat="45.89767293561186" lon="10.96971597490612"><ele>1157.6666666666667</ele><time>2026-03-29T08:08:29Z</time></trkpt><trkpt lat="45.897702534068074" lon="10.969947313168745"><ele>1163.0</ele><time>2026-03-29T08:08:30Z</time></trkpt><trkpt lat="45.89775672363199" lon="10.970178412899504"><ele>1164.6666666666667</ele><time>2026-03-29T08:08:31Z</time></trkpt><trkpt lat="45.89781840229018" lon="10.970405429935841"><ele>1166.3333333333333</ele><time>2026-03-29T08:08:32Z</time></trkpt><trkpt lat="45.89792955398429" lon="10.970626992165277"><ele>1168.0</ele><time>2026-03-29T08:08:33Z</time></trkpt><trkpt lat="45.89805714300668" lon="10.970857862774498"><ele>1171.5</ele><time>2026-03-29T08:08:34Z</time></trkpt><trkpt lat="45.898191571356776" lon="10.971100669946775"><ele>1175.0</ele><time>2026-03-29T08:08:35Z</time></trkpt><trkpt lat="45.898335270254485" lon="10.971365518448543"><ele>1178.0</ele><time>2026-03-29T08:08:36Z</time></trkpt><trkpt lat="45.898461614164354" lon="10.971588837910454"><ele>1181.0</ele><time>2026-03-29T08:08:37Z</time></trkpt><trkpt lat="45.89858999127829" lon="10.971743284672334"><ele>1184.0</ele><time>2026-03-29T08:08:38Z</time></trkpt><trkpt lat="45.89870676708918" lon="10.971855679727433"><ele>1185.6000000000001</ele><time>2026-03-29T08:08:39Z</time></trkpt><trkpt lat="45.898798297323566" lon="10.971938502008001"><ele>1187.2</ele><time>2026-03-29T08:08:40Z</time></trkpt><trkpt lat="45.89887247714518" lon="10.972010466636798"><ele>1188.8000000000002</ele><time>2026-03-29T08:08:41Z</time></trkpt><trkpt lat="45.898919809847776" lon="10.972088378375599"><ele>1190.4</ele><time>2026-03-29T08:08:42Z</time></trkpt><trkpt lat="45.89890844535399" lon="10.972253244404051"><ele>1192.0</ele><time>2026-03-29T08:08:44Z</time></trkpt><trkpt lat="45.898821551797354" lon="10.972271685868103"><ele>1192.0</ele><time>2026-03-29T08:08:45Z</time></trkpt><trkpt lat="45.89870557040874" lon="10.97217190293255"><ele>1192.0</ele><time>2026-03-29T08:08:46.999Z</time></trkpt><trkpt lat="45.89861961720927" lon="10.972079551553213"><ele>1192.0</ele><time>2026-03-29T08:08:47.999Z</time></trkpt><trkpt lat="45.898511846855776" lon="10.972025864164701"><ele>1192.0</ele><time>2026-03-29T08:08:48.999Z</time></trkpt><trkpt lat="45.89842371750053" lon="10.972081994758756"><ele>1192.5</ele><time>2026-03-29T08:08:49.999Z</time></trkpt><trkpt lat="45.898348553673465" lon="10.97216473126035"><ele>1193.0</ele><time>2026-03-29T08:08:50.999Z</time></trkpt><trkpt lat="45.89831303364717" lon="10.972317542712299"><ele>1193.5</ele><time>2026-03-29T08:08:51.999Z</time></trkpt><trkpt lat="45.898263962410084" lon="10.972500567900706"><ele>1194.0</ele><time>2026-03-29T08:08:52.999Z</time></trkpt><trkpt lat="45.89820382549448" lon="10.972717288689173"><ele>1194.0</ele><time>2026-03-29T08:08:53.999Z</time></trkpt><trkpt lat="45.89815472951321" lon="10.972934411810067"><ele>1194.0</ele><time>2026-03-29T08:08:54.999Z</time></trkpt><trkpt lat="45.89813386369469" lon="10.973134118002083"><ele>1194.0</ele><time>2026-03-29T08:08:55.999Z</time></trkpt><trkpt lat="45.89813057116206" lon="10.97332316689732"><ele>1194.0</ele><time>2026-03-29T08:08:56.999Z</time></trkpt><trkpt lat="45.898206095497564" lon="10.97355132079105"><ele>1194.6666666666667</ele><time>2026-03-29T08:08:57.999Z</time></trkpt><trkpt lat="45.89827295948838" lon="10.97379463846744"><ele>1195.3333333333335</ele><time>2026-03-29T08:08:58.999Z</time></trkpt><trkpt lat="45.898320295781915" lon="10.973996412933259"><ele>1196.0</ele><time>2026-03-29T08:08:59.999Z</time></trkpt><trkpt lat="45.898374539114286" lon="10.974156593208134"><ele>1196.75</ele><time>2026-03-29T08:09:00.999Z</time></trkpt><trkpt lat="45.89845199936789" lon="10.97426784194995"><ele>1197.5</ele><time>2026-03-29T08:09:01.999Z</time></trkpt><trkpt lat="45.898544385838484" lon="10.97432588260961"><ele>1198.25</ele><time>2026-03-29T08:09:02.999Z</time></trkpt><trkpt lat="45.898657282162176" lon="10.974348949370093"><ele>1199.0</ele><time>2026-03-29T08:09:03.999Z</time></trkpt><trkpt lat="45.89879637622697" lon="10.974372878804703"><ele>1199.0</ele><time>2026-03-29T08:09:04.999Z</time></trkpt><trkpt lat="45.89894719949139" lon="10.974398488645242"><ele>1199.0</ele><time>2026-03-29T08:09:05.999Z</time></trkpt><trkpt lat="45.899104045842535" lon="10.974447095512312"><ele>1199.0</ele><time>2026-03-29T08:09:07Z</time></trkpt><trkpt lat="45.899266513951716" lon="10.974535247063445"><ele>1200.5</ele><time>2026-03-29T08:09:08Z</time></trkpt><trkpt lat="45.8994005349483" lon="10.9746068931762"><ele>1202.0</ele><time>2026-03-29T08:09:09Z</time></trkpt><trkpt lat="45.89953773617856" lon="10.974663636777654"><ele>1203.5</ele><time>2026-03-29T08:09:10Z</time></trkpt><trkpt lat="45.89965407747804" lon="10.974727031767925"><ele>1205.0</ele><time>2026-03-29T08:09:11Z</time></trkpt><trkpt lat="45.899754735957266" lon="10.974775483056401"><ele>1205.0</ele><time>2026-03-29T08:09:12Z</time></trkpt><trkpt lat="45.89984234770007" lon="10.974819882078995"><ele>1205.0</ele><time>2026-03-29T08:09:13Z</time></trkpt><trkpt lat="45.89991643461126" lon="10.974842238309174"><ele>1205.0</ele><time>2026-03-29T08:09:14Z</time></trkpt><trkpt lat="45.899989930313566" lon="10.974832923025966"><ele>1205.0</ele><time>2026-03-29T08:09:15Z</time></trkpt><trkpt lat="45.900069271546876" lon="10.974790442420563"><ele>1205.0</ele><time>2026-03-29T08:09:16Z</time></trkpt><trkpt lat="45.9001471225259" lon="10.974719989770017"><ele>1205.0</ele><time>2026-03-29T08:09:17Z</time></trkpt><trkpt lat="45.90020668309821" lon="10.974620949021485"><ele>1205.0</ele><time>2026-03-29T08:09:18Z</time></trkpt><trkpt lat="45.90026339749767" lon="10.97450863843537"><ele>1205.0</ele><time>2026-03-29T08:09:19Z</time></trkpt><trkpt lat="45.90032894882744" lon="10.974399396098061"><ele>1205.0</ele><time>2026-03-29T08:09:20Z</time></trkpt><trkpt lat="45.90040632427385" lon="10.974295347890605"><ele>1205.0</ele><time>2026-03-29T08:09:21Z</time></trkpt><trkpt lat="45.900503469258624" lon="10.97423180840033"><ele>1205.0</ele><time>2026-03-29T08:09:22Z</time></trkpt><trkpt lat="45.90057943860658" lon="10.974182296107479"><ele>1205.0</ele><time>2026-03-29T08:09:23Z</time></trkpt><trkpt lat="45.90065885574862" lon="10.974191020480644"><ele>1205.0</ele><time>2026-03-29T08:09:24Z</time></trkpt><trkpt lat="45.90074260273733" lon="10.974199921407287"><ele>1205.0</ele><time>2026-03-29T08:09:25Z</time></trkpt><trkpt lat="45.900823053401176" lon="10.974233411048191"><ele>1205.0</ele><time>2026-03-29T08:09:26Z</time></trkpt><trkpt lat="45.900910541662235" lon="10.974264162431721"><ele>1205.0</ele><time>2026-03-29T08:09:27Z</time></trkpt><trkpt lat="45.900997967391824" lon="10.974287057109096"><ele>1205.0</ele><time>2026-03-29T08:09:28Z</time></trkpt><trkpt lat="45.901093386069526" lon="10.974295334593547"><ele>1205.0</ele><time>2026-03-29T08:09:29Z</time></trkpt><trkpt lat="45.901184949147925" lon="10.974282439832837"><ele>1205.0</ele><time>2026-03-29T08:09:30Z</time></trkpt><trkpt lat="45.90127894306552" lon="10.974245587883383"><ele>1205.0</ele><time>2026-03-29T08:09:31Z</time></trkpt><trkpt lat="45.90137826629949" lon="10.974264715886486"><ele>1205.0</ele><time>2026-03-29T08:09:32Z</time></trkpt><trkpt lat="45.90147193967605" lon="10.974283445352311"><ele>1205.0</ele><time>2026-03-29T08:09:33Z</time></trkpt><trkpt lat="45.90157217765806" lon="10.974320148609651"><ele>1205.0</ele><time>2026-03-29T08:09:34Z</time></trkpt><trkpt lat="45.90167912936303" lon="10.974361177753263"><ele>1205.0</ele><time>2026-03-29T08:09:35Z</time></trkpt><trkpt lat="45.901796945016464" lon="10.974400335606639"><ele>1205.0</ele><time>2026-03-29T08:09:36Z</time></trkpt><trkpt lat="45.901902514026354" lon="10.974399638725043"><ele>1205.0</ele><time>2026-03-29T08:09:37Z</time></trkpt><trkpt lat="45.90199741333087" lon="10.974398756342623"><ele>1205.0</ele><time>2026-03-29T08:09:38Z</time></trkpt><trkpt lat="45.90210221741562" lon="10.974383318277134"><ele>1207.6</ele><time>2026-03-29T08:09:39Z</time></trkpt><trkpt lat="45.902200831226196" lon="10.974342793685988"><ele>1210.2</ele><time>2026-03-29T08:09:40Z</time></trkpt><trkpt lat="45.902304576409016" lon="10.974285439433771"><ele>1212.8</ele><time>2026-03-29T08:09:41Z</time></trkpt><trkpt lat="45.90240522591282" lon="10.97423296089124"><ele>1215.4</ele><time>2026-03-29T08:09:42Z</time></trkpt><trkpt lat="45.902507668595945" lon="10.974176859313811"><ele>1218.0</ele><time>2026-03-29T08:09:43Z</time></trkpt><trkpt lat="45.90261556478137" lon="10.974141834988673"><ele>1219.0</ele><time>2026-03-29T08:09:44Z</time></trkpt><trkpt lat="45.90273360299005" lon="10.974129557061886"><ele>1220.0</ele><time>2026-03-29T08:09:45Z</time></trkpt><trkpt lat="45.902853049671954" lon="10.97416114050286"><ele>1221.0</ele><time>2026-03-29T08:09:46Z</time></trkpt><trkpt lat="45.90297723528218" lon="10.974173643258716"><ele>1222.0</ele><time>2026-03-29T08:09:47Z</time></trkpt><trkpt lat="45.90310482030516" lon="10.97418346459184"><ele>1222.0</ele><time>2026-03-29T08:09:48Z</time></trkpt><trkpt lat="45.90322761611426" lon="10.974178837157726"><ele>1222.0</ele><time>2026-03-29T08:09:49Z</time></trkpt><trkpt lat="45.90335999959371" lon="10.974163873033165"><ele>1222.0</ele><time>2026-03-29T08:09:50Z</time></trkpt><trkpt lat="45.90348837822273" lon="10.974141452542305"><ele>1222.0</ele><time>2026-03-29T08:09:51Z</time></trkpt><trkpt lat="45.90362010450635" lon="10.97412300921817"><ele>1224.25</ele><time>2026-03-29T08:09:52Z</time></trkpt><trkpt lat="45.903746535122615" lon="10.974096724348248"><ele>1226.5</ele><time>2026-03-29T08:09:53Z</time></trkpt><trkpt lat="45.90386548929117" lon="10.974061690830249"><ele>1228.75</ele><time>2026-03-29T08:09:54Z</time></trkpt><trkpt lat="45.90397501064386" lon="10.97400562647652"><ele>1231.0</ele><time>2026-03-29T08:09:55Z</time></trkpt><trkpt lat="45.90408290833064" lon="10.973924771864967"><ele>1231.0</ele><time>2026-03-29T08:09:56Z</time></trkpt><trkpt lat="45.9041761867642" lon="10.973834398150121"><ele>1231.0</ele><time>2026-03-29T08:09:57Z</time></trkpt><trkpt lat="45.90427070240331" lon="10.973757478646895"><ele>1231.0</ele><time>2026-03-29T08:09:58Z</time></trkpt><trkpt lat="45.90434833064448" lon="10.97369384216318"><ele>1231.0</ele><time>2026-03-29T08:09:59Z</time></trkpt><trkpt lat="45.904425404616084" lon="10.973627838778494"><ele>1231.0</ele><time>2026-03-29T08:10:00Z</time></trkpt><trkpt lat="45.90453408537316" lon="10.973566619867176"><ele>1232.25</ele><time>2026-03-29T08:10:01Z</time></trkpt><trkpt lat="45.904647005780554" lon="10.973572679102992"><ele>1233.5</ele><time>2026-03-29T08:10:02Z</time></trkpt><trkpt lat="45.90476207173035" lon="10.973579798605225"><ele>1234.75</ele><time>2026-03-29T08:10:03Z</time></trkpt><trkpt lat="45.90487807417992" lon="10.973639566856447"><ele>1236.0</ele><time>2026-03-29T08:10:04Z</time></trkpt><trkpt lat="45.905015806510775" lon="10.973704751285508"><ele>1240.5</ele><time>2026-03-29T08:10:05Z</time></trkpt><trkpt lat="45.90515547358221" lon="10.973770851404678"><ele>1245.0</ele><time>2026-03-29T08:10:06Z</time></trkpt><trkpt lat="45.90527580748413" lon="10.973827801708127"><ele>1249.5</ele><time>2026-03-29T08:10:07Z</time></trkpt><trkpt lat="45.90538299694066" lon="10.973876534317911"><ele>1254.0</ele><time>2026-03-29T08:10:08Z</time></trkpt><trkpt lat="45.90549372725042" lon="10.973921936042421"><ele>1254.0</ele><time>2026-03-29T08:10:09Z</time></trkpt><trkpt lat="45.90559875272139" lon="10.973978234570744"><ele>1254.0</ele><time>2026-03-29T08:10:10Z</time></trkpt><trkpt lat="45.90567365774183" lon="10.974037700741352"><ele>1254.0</ele><time>2026-03-29T08:10:11Z</time></trkpt><trkpt lat="45.90573735738201" lon="10.974122841096506"><ele>1254.0</ele><time>2026-03-29T08:10:12Z</time></trkpt><trkpt lat="45.90579061523414" lon="10.974226489203103"><ele>1254.0</ele><time>2026-03-29T08:10:13Z</time></trkpt><trkpt lat="45.905806981152416" lon="10.974355269102213"><ele>1252.75</ele><time>2026-03-29T08:10:14Z</time></trkpt><trkpt lat="45.90580012534248" lon="10.974498518035384"><ele>1251.5</ele><time>2026-03-29T08:10:15Z</time></trkpt><trkpt lat="45.90579762135207" lon="10.974671469437665"><ele>1250.25</ele><time>2026-03-29T08:10:16Z</time></trkpt><trkpt lat="45.90580371337155" lon="10.974841660558033"><ele>1249.0</ele><time>2026-03-29T08:10:17Z</time></trkpt><trkpt lat="45.905843795163875" lon="10.97501551693349"><ele>1249.25</ele><time>2026-03-29T08:10:18Z</time></trkpt><trkpt lat="45.905874853334225" lon="10.97515029131541"><ele>1249.5</ele><time>2026-03-29T08:10:19Z</time></trkpt><trkpt lat="45.90591746400629" lon="10.975279409688529"><ele>1249.75</ele><time>2026-03-29T08:10:20Z</time></trkpt><trkpt lat="45.90599903196248" lon="10.975401666015982"><ele>1250.0</ele><time>2026-03-29T08:10:21Z</time></trkpt><trkpt lat="45.90611983916323" lon="10.975539667423229"><ele>1253.0</ele><time>2026-03-29T08:10:22Z</time></trkpt><trkpt lat="45.9062653691907" lon="10.97569835310231"><ele>1256.0</ele><time>2026-03-29T08:10:23Z</time></trkpt><trkpt lat="45.90641684348346" lon="10.975877931336578"><ele>1259.0</ele><time>2026-03-29T08:10:24Z</time></trkpt><trkpt lat="45.906540424995754" lon="10.976038430031183"><ele>1259.0</ele><time>2026-03-29T08:10:25Z</time></trkpt><trkpt lat="45.90664469617265" lon="10.976180987571249"><ele>1259.0</ele><time>2026-03-29T08:10:26Z</time></trkpt><trkpt lat="45.90674014176251" lon="10.976315649324931"><ele>1259.0</ele><time>2026-03-29T08:10:27Z</time></trkpt><trkpt lat="45.90680491248364" lon="10.97646199311196"><ele>1259.0</ele><time>2026-03-29T08:10:28Z</time></trkpt><trkpt lat="45.90687702417093" lon="10.976630518598546"><ele>1259.75</ele><time>2026-03-29T08:10:29Z</time></trkpt><trkpt lat="45.90696017874154" lon="10.976803482818752"><ele>1260.5</ele><time>2026-03-29T08:10:30Z</time></trkpt><trkpt lat="45.90703869454721" lon="10.976979259237146"><ele>1261.25</ele><time>2026-03-29T08:10:31Z</time></trkpt><trkpt lat="45.90712061404965" lon="10.977160294796123"><ele>1262.0</ele><time>2026-03-29T08:10:32Z</time></trkpt><trkpt lat="45.90719185423622" lon="10.977323562701548"><ele>1262.0</ele><time>2026-03-29T08:10:33Z</time></trkpt><trkpt lat="45.90726448113019" lon="10.977483890722882"><ele>1262.0</ele><time>2026-03-29T08:10:34Z</time></trkpt><trkpt lat="45.9073261605181" lon="10.977659775474415"><ele>1262.0</ele><time>2026-03-29T08:10:35Z</time></trkpt><trkpt lat="45.90738228670283" lon="10.977851390127421"><ele>1262.0</ele><time>2026-03-29T08:10:36Z</time></trkpt><trkpt lat="45.907439974559026" lon="10.978015911559899"><ele>1263.25</ele><time>2026-03-29T08:10:37Z</time></trkpt><trkpt lat="45.907501656759834" lon="10.978172451893203"><ele>1264.5</ele><time>2026-03-29T08:10:38Z</time></trkpt><trkpt lat="45.907579503620724" lon="10.978339883657133"><ele>1265.75</ele><time>2026-03-29T08:10:39Z</time></trkpt><trkpt lat="45.90767588783997" lon="10.978517125739446"><ele>1267.0</ele><time>2026-03-29T08:10:40Z</time></trkpt><trkpt lat="45.90775226832931" lon="10.97869490234259"><ele>1262.5</ele><time>2026-03-29T08:10:41Z</time></trkpt><trkpt lat="45.9078247545489" lon="10.978860588946077"><ele>1258.0</ele><time>2026-03-29T08:10:42Z</time></trkpt><trkpt lat="45.90789024605457" lon="10.979026726083799"><ele>1253.5</ele><time>2026-03-29T08:10:42.999Z</time></trkpt><trkpt lat="45.907944649497104" lon="10.979188042523157"><ele>1249.0</ele><time>2026-03-29T08:10:43.999Z</time></trkpt><trkpt lat="45.907981407164634" lon="10.979366134820912"><ele>1245.25</ele><time>2026-03-29T08:10:44.999Z</time></trkpt><trkpt lat="45.908024282189054" lon="10.979547657646341"><ele>1241.5</ele><time>2026-03-29T08:10:45.999Z</time></trkpt><trkpt lat="45.90805952090435" lon="10.979704490336685"><ele>1237.75</ele><time>2026-03-29T08:10:46.999Z</time></trkpt><trkpt lat="45.90807214312573" lon="10.979856750544771"><ele>1234.0</ele><time>2026-03-29T08:10:47.999Z</time></trkpt><trkpt lat="45.908069784181976" lon="10.979996317027684"><ele>1233.0</ele><time>2026-03-29T08:10:48.999Z</time></trkpt><trkpt lat="45.90804708893339" lon="10.9801501928362"><ele>1232.0</ele><time>2026-03-29T08:10:49.999Z</time></trkpt><trkpt lat="45.90800819753545" lon="10.98033065059387"><ele>1231.0</ele><time>2026-03-29T08:10:50.999Z</time></trkpt><trkpt lat="45.90797632160081" lon="10.980538475074304"><ele>1230.0</ele><time>2026-03-29T08:10:51.999Z</time></trkpt><trkpt lat="45.90798046006346" lon="10.980713720102704"><ele>1229.4</ele><time>2026-03-29T08:10:52.999Z</time></trkpt><trkpt lat="45.90798662077249" lon="10.980869988044045"><ele>1228.8</ele><time>2026-03-29T08:10:53.999Z</time></trkpt><trkpt lat="45.90801630187529" lon="10.981010651849513"><ele>1228.2</ele><time>2026-03-29T08:10:54.999Z</time></trkpt><trkpt lat="45.90806325024529" lon="10.981132427659292"><ele>1227.6</ele><time>2026-03-29T08:10:55.999Z</time></trkpt><trkpt lat="45.90814071933322" lon="10.981237665661956"><ele>1227.0</ele><time>2026-03-29T08:10:56.999Z</time></trkpt><trkpt lat="45.90826307432781" lon="10.981316047305787"><ele>1227.0</ele><time>2026-03-29T08:10:57.999Z</time></trkpt><trkpt lat="45.90840763728766" lon="10.981366388074584"><ele>1227.0</ele><time>2026-03-29T08:10:58.999Z</time></trkpt><trkpt lat="45.90856303638788" lon="10.981414722241906"><ele>1227.0</ele><time>2026-03-29T08:10:59.999Z</time></trkpt><trkpt lat="45.90870835745016" lon="10.981472479411234"><ele>1227.5</ele><time>2026-03-29T08:11:00.999Z</time></trkpt><trkpt lat="45.9088291937687" lon="10.981521257023244"><ele>1228.0</ele><time>2026-03-29T08:11:01.999Z</time></trkpt><trkpt lat="45.90893353490442" lon="10.981601509928769"><ele>1228.5</ele><time>2026-03-29T08:11:02.999Z</time></trkpt><trkpt lat="45.909013769430885" lon="10.98175103126189"><ele>1229.0</ele><time>2026-03-29T08:11:03.999Z</time></trkpt><trkpt lat="45.90905501173151" lon="10.981921704076605"><ele>1229.0</ele><time>2026-03-29T08:11:04.999Z</time></trkpt><trkpt lat="45.9091018620389" lon="10.982099128179323"><ele>1229.0</ele><time>2026-03-29T08:11:05.999Z</time></trkpt><trkpt lat="45.90913644928457" lon="10.982277182850632"><ele>1229.0</ele><time>2026-03-29T08:11:06.999Z</time></trkpt><trkpt lat="45.909130716281716" lon="10.982457010537614"><ele>1229.0</ele><time>2026-03-29T08:11:07.999Z</time></trkpt><trkpt lat="45.90911094472957" lon="10.982659476810962"><ele>1228.0</ele><time>2026-03-29T08:11:08.999Z</time></trkpt><trkpt lat="45.90909355752305" lon="10.982883123281768"><ele>1227.0</ele><time>2026-03-29T08:11:09.999Z</time></trkpt><trkpt lat="45.90906661423799" lon="10.983118149312286"><ele>1226.0</ele><time>2026-03-29T08:11:10.999Z</time></trkpt><trkpt lat="45.90902986260925" lon="10.983360851197526"><ele>1223.3333333333335</ele><time>2026-03-29T08:11:11.999Z</time></trkpt><trkpt lat="45.90899180928426" lon="10.983605962231758"><ele>1220.6666666666667</ele><time>2026-03-29T08:11:13Z</time></trkpt><trkpt lat="45.90893127294456" lon="10.983805229520764"><ele>1218.0</ele><time>2026-03-29T08:11:14Z</time></trkpt><trkpt lat="45.90889724763252" lon="10.98399352348354"><ele>1218.0</ele><time>2026-03-29T08:11:15Z</time></trkpt><trkpt lat="45.90885535334556" lon="10.984168142424679"><ele>1218.0</ele><time>2026-03-29T08:11:16Z</time></trkpt><trkpt lat="45.90881460350472" lon="10.984333521826427"><ele>1218.0</ele><time>2026-03-29T08:11:17Z</time></trkpt><trkpt lat="45.90878227658956" lon="10.984481865928252"><ele>1218.0</ele><time>2026-03-29T08:11:18Z</time></trkpt><trkpt lat="45.908746301134755" lon="10.984619325824793"><ele>1214.25</ele><time>2026-03-29T08:11:19Z</time></trkpt><trkpt lat="45.90871801932224" lon="10.984798471976177"><ele>1210.5</ele><time>2026-03-29T08:11:20Z</time></trkpt><trkpt lat="45.908673211890395" lon="10.985010604895175"><ele>1206.75</ele><time>2026-03-29T08:11:21Z</time></trkpt><trkpt lat="45.90862480295436" lon="10.985199230287142"><ele>1203.0</ele><time>2026-03-29T08:11:22Z</time></trkpt><trkpt lat="45.90858354038619" lon="10.98536293060262"><ele>1200.0</ele><time>2026-03-29T08:11:23Z</time></trkpt><trkpt lat="45.908554828706635" lon="10.985513603979042"><ele>1197.0</ele><time>2026-03-29T08:11:24Z</time></trkpt><trkpt lat="45.90853248448734" lon="10.985673251290427"><ele>1194.0</ele><time>2026-03-29T08:11:25Z</time></trkpt><trkpt lat="45.908520740394906" lon="10.985815022187206"><ele>1191.0</ele><time>2026-03-29T08:11:26Z</time></trkpt><trkpt lat="45.908498227101056" lon="10.985934807850027"><ele>1188.0</ele><time>2026-03-29T08:11:27Z</time></trkpt><trkpt lat="45.90843416829286" lon="10.986002581723472"><ele>1190.2</ele><time>2026-03-29T08:11:28Z</time></trkpt><trkpt lat="45.908367113944124" lon="10.986018828242484"><ele>1192.4</ele><time>2026-03-29T08:11:29Z</time></trkpt><trkpt lat="45.90829412519271" lon="10.986020781328355"><ele>1194.6000000000001</ele><time>2026-03-29T08:11:30Z</time></trkpt><trkpt lat="45.90817006771771" lon="10.986070850297134"><ele>1196.8</ele><time>2026-03-29T08:11:31Z</time></trkpt><trkpt lat="45.90804051225911" lon="10.98614631657347"><ele>1199.0</ele><time>2026-03-29T08:11:32Z</time></trkpt><trkpt lat="45.90791152193991" lon="10.986229493466023"><ele>1199.0</ele><time>2026-03-29T08:11:33Z</time></trkpt><trkpt lat="45.907766936145016" lon="10.986286236934797"><ele>1199.0</ele><time>2026-03-29T08:11:34Z</time></trkpt><trkpt lat="45.90761478499549" lon="10.986357162031588"><ele>1199.0</ele><time>2026-03-29T08:11:35Z</time></trkpt><trkpt lat="45.90748016083396" lon="10.986418500790545"><ele>1200.0</ele><time>2026-03-29T08:11:36Z</time></trkpt><trkpt lat="45.90734414767475" lon="10.986485796780428"><ele>1201.0</ele><time>2026-03-29T08:11:37Z</time></trkpt><trkpt lat="45.90720387302632" lon="10.986537396505717"><ele>1202.0</ele><time>2026-03-29T08:11:38Z</time></trkpt><trkpt lat="45.90707422741105" lon="10.986569613943798"><ele>1203.0</ele><time>2026-03-29T08:11:39Z</time></trkpt><trkpt lat="45.906948178952426" lon="10.986606701080596"><ele>1203.0</ele><time>2026-03-29T08:11:40Z</time></trkpt><trkpt lat="45.90683107886423" lon="10.986641735428645"><ele>1203.0</ele><time>2026-03-29T08:11:41Z</time></trkpt><trkpt lat="45.906740030846514" lon="10.986658259241986"><ele>1203.0</ele><time>2026-03-29T08:11:42Z</time></trkpt><trkpt lat="45.90667332547629" lon="10.986729411867076"><ele>1203.0</ele><time>2026-03-29T08:11:44Z</time></trkpt><trkpt lat="45.90674049648042" lon="10.986840067245476"><ele>1203.0</ele><time>2026-03-29T08:11:46Z</time></trkpt><trkpt lat="45.906881178526355" lon="10.98681683371058"><ele>1199.25</ele><time>2026-03-29T08:11:48Z</time></trkpt><trkpt lat="45.90697297719314" lon="10.986858175745189"><ele>1195.5</ele><time>2026-03-29T08:11:49Z</time></trkpt><trkpt lat="45.90708222768947" lon="10.986891427711475"><ele>1191.75</ele><time>2026-03-29T08:11:50Z</time></trkpt><trkpt lat="45.907200497602545" lon="10.98693657421348"><ele>1188.0</ele><time>2026-03-29T08:11:51Z</time></trkpt><trkpt lat="45.90732493092876" lon="10.986981436134272"><ele>1188.0</ele><time>2026-03-29T08:11:52Z</time></trkpt><trkpt lat="45.907419044220795" lon="10.98704305991232"><ele>1188.0</ele><time>2026-03-29T08:11:53Z</time></trkpt><trkpt lat="45.907489952618754" lon="10.987078454111021"><ele>1188.0</ele><time>2026-03-29T08:11:54Z</time></trkpt><trkpt lat="45.907563866794696" lon="10.987197106097137"><ele>1188.0</ele><time>2026-03-29T08:11:56Z</time></trkpt><trkpt lat="45.907550721657806" lon="10.987286689077022"><ele>1188.0</ele><time>2026-03-29T08:11:57Z</time></trkpt><trkpt lat="45.90751331529149" lon="10.987375594983137"><ele>1188.0</ele><time>2026-03-29T08:11:58Z</time></trkpt><trkpt lat="45.907437759306895" lon="10.9874286699849"><ele>1188.0</ele><time>2026-03-29T08:11:59Z</time></trkpt><trkpt lat="45.907355139028724" lon="10.987459883415509"><ele>1188.0</ele><time>2026-03-29T08:12:00Z</time></trkpt><trkpt lat="45.90728966084165" lon="10.98750915308588"><ele>1188.0</ele><time>2026-03-29T08:12:01Z</time></trkpt><trkpt lat="45.90721549274312" lon="10.987603961027869"><ele>1188.0</ele><time>2026-03-29T08:12:03Z</time></trkpt><trkpt lat="45.90725879238541" lon="10.987718260533033"><ele>1188.0</ele><time>2026-03-29T08:12:05Z</time></trkpt><trkpt lat="45.90732573952541" lon="10.987744665965304"><ele>1188.0</ele><time>2026-03-29T08:12:06Z</time></trkpt><trkpt lat="45.90741541514109" lon="10.987773088065035"><ele>1184.75</ele><time>2026-03-29T08:12:07Z</time></trkpt><trkpt lat="45.907542496854084" lon="10.98781604155372"><ele>1181.5</ele><time>2026-03-29T08:12:08Z</time></trkpt><trkpt lat="45.90766715848113" lon="10.987877592217712"><ele>1178.25</ele><time>2026-03-29T08:12:09Z</time></trkpt><trkpt lat="45.9078056271368" lon="10.987918870774775"><ele>1175.0</ele><time>2026-03-29T08:12:10Z</time></trkpt><trkpt lat="45.907950671037895" lon="10.987981295693311"><ele>1174.6666666666667</ele><time>2026-03-29T08:12:11Z</time></trkpt><trkpt lat="45.9081098980288" lon="10.987983661906426"><ele>1174.3333333333333</ele><time>2026-03-29T08:12:12Z</time></trkpt><trkpt lat="45.908263495959474" lon="10.988013669861614"><ele>1174.0</ele><time>2026-03-29T08:12:13Z</time></trkpt><trkpt lat="45.90841247849499" lon="10.988091054788292"><ele>1173.0</ele><time>2026-03-29T08:12:14Z</time></trkpt><trkpt lat="45.90855580235461" lon="10.988130000416778"><ele>1172.0</ele><time>2026-03-29T08:12:15Z</time></trkpt><trkpt lat="45.90869518507243" lon="10.988165204969748"><ele>1171.0</ele><time>2026-03-29T08:12:16Z</time></trkpt><trkpt lat="45.908823102577536" lon="10.988206213241316"><ele>1170.0</ele><time>2026-03-29T08:12:17Z</time></trkpt><trkpt lat="45.90893423203042" lon="10.988278695808475"><ele>1168.0</ele><time>2026-03-29T08:12:18Z</time></trkpt><trkpt lat="45.90903419797081" lon="10.988374053898188"><ele>1166.0</ele><time>2026-03-29T08:12:19Z</time></trkpt><trkpt lat="45.90913288700987" lon="10.988483203939543"><ele>1164.0</ele><time>2026-03-29T08:12:20Z</time></trkpt><trkpt lat="45.909224256363224" lon="10.988582344452645"><ele>1162.0</ele><time>2026-03-29T08:12:21Z</time></trkpt><trkpt lat="45.90929877858101" lon="10.988660144120502"><ele>1161.8</ele><time>2026-03-29T08:12:22Z</time></trkpt><trkpt lat="45.90935921276547" lon="10.988709618755943"><ele>1161.6</ele><time>2026-03-29T08:12:23Z</time></trkpt><trkpt lat="45.90946313012095" lon="10.988632334341515"><ele>1161.3999999999999</ele><time>2026-03-29T08:12:25Z</time></trkpt><trkpt lat="45.909476158194714" lon="10.988518062474563"><ele>1161.2</ele><time>2026-03-29T08:12:26Z</time></trkpt><trkpt lat="45.9094511148216" lon="10.988373543662915"><ele>1161.0</ele><time>2026-03-29T08:12:27Z</time></trkpt><trkpt lat="45.90943292648007" lon="10.988222182721042"><ele>1159.8</ele><time>2026-03-29T08:12:28Z</time></trkpt><trkpt lat="45.90943415962477" lon="10.988068904809886"><ele>1158.6</ele><time>2026-03-29T08:12:29Z</time></trkpt><trkpt lat="45.90939956882741" lon="10.987947811649438"><ele>1157.4</ele><time>2026-03-29T08:12:30Z</time></trkpt><trkpt lat="45.90938206828578" lon="10.98785079881841"><ele>1156.2</ele><time>2026-03-29T08:12:31Z</time></trkpt><trkpt lat="45.909446173309554" lon="10.98773433470616"><ele>1155.0</ele><time>2026-03-29T08:12:33Z</time></trkpt><trkpt lat="45.90952182005026" lon="10.987796538910017"><ele>1155.0</ele><time>2026-03-29T08:12:34Z</time></trkpt><trkpt lat="45.909602817482124" lon="10.987800746214285"><ele>1155.0</ele><time>2026-03-29T08:12:35Z</time></trkpt><trkpt lat="45.90969879144097" lon="10.987795902008191"><ele>1155.0</ele><time>2026-03-29T08:12:36Z</time></trkpt><trkpt lat="45.909772292922845" lon="10.987753692694344"><ele>1155.0</ele><time>2026-03-29T08:12:37Z</time></trkpt><trkpt lat="45.90984638499128" lon="10.987662171740736"><ele>1155.0</ele><time>2026-03-29T08:12:38Z</time></trkpt><trkpt lat="45.90990491620121" lon="10.987506481267687"><ele>1154.25</ele><time>2026-03-29T08:12:39Z</time></trkpt><trkpt lat="45.90996488988438" lon="10.987355378607006"><ele>1153.5</ele><time>2026-03-29T08:12:40Z</time></trkpt><trkpt lat="45.91002636227523" lon="10.987197562422736"><ele>1152.75</ele><time>2026-03-29T08:12:41Z</time></trkpt><trkpt lat="45.91009054731013" lon="10.987043539953788"><ele>1152.0</ele><time>2026-03-29T08:12:42Z</time></trkpt><trkpt lat="45.91015011919153" lon="10.986923424271103"><ele>1149.2</ele><time>2026-03-29T08:12:43Z</time></trkpt><trkpt lat="45.910230334336376" lon="10.986850484416287"><ele>1146.4</ele><time>2026-03-29T08:12:44Z</time></trkpt><trkpt lat="45.910311651165784" lon="10.98681537942979"><ele>1143.6</ele><time>2026-03-29T08:12:45Z</time></trkpt><trkpt lat="45.91041610047192" lon="10.986823521071793"><ele>1140.8</ele><time>2026-03-29T08:12:46Z</time></trkpt><trkpt lat="45.91055180583631" lon="10.986813326587328"><ele>1138.0</ele><time>2026-03-29T08:12:47Z</time></trkpt><trkpt lat="45.91069004979344" lon="10.986798154726733"><ele>1138.0</ele><time>2026-03-29T08:12:48Z</time></trkpt><trkpt lat="45.91083850322535" lon="10.986780133240506"><ele>1138.0</ele><time>2026-03-29T08:12:49Z</time></trkpt><trkpt lat="45.910977451368886" lon="10.986752998724674"><ele>1138.0</ele><time>2026-03-29T08:12:50Z</time></trkpt><trkpt lat="45.91111000409795" lon="10.98665855797642"><ele>1138.0</ele><time>2026-03-29T08:12:51Z</time></trkpt><trkpt lat="45.91124130048292" lon="10.986546282306321"><ele>1138.3333333333333</ele><time>2026-03-29T08:12:52Z</time></trkpt><trkpt lat="45.9113753758439" lon="10.986396187270334"><ele>1138.6666666666667</ele><time>2026-03-29T08:12:53Z</time></trkpt><trkpt lat="45.91152240347404" lon="10.986234299118388"><ele>1139.0</ele><time>2026-03-29T08:12:53.999Z</time></trkpt><trkpt lat="45.9116728052588" lon="10.986108918307053"><ele>1139.0</ele><time>2026-03-29T08:12:54.999Z</time></trkpt><trkpt lat="45.91178390374567" lon="10.986003720279673"><ele>1139.0</ele><time>2026-03-29T08:12:55.999Z</time></trkpt><trkpt lat="45.91189203263379" lon="10.9859433931122"><ele>1139.0</ele><time>2026-03-29T08:12:56.999Z</time></trkpt><trkpt lat="45.91199000321302" lon="10.985957251440855"><ele>1139.0</ele><time>2026-03-29T08:12:57.999Z</time></trkpt><trkpt lat="45.91211106675901" lon="10.98596300434331"><ele>1139.0</ele><time>2026-03-29T08:12:58.999Z</time></trkpt><trkpt lat="45.91224242929227" lon="10.98597591406089"><ele>1139.0</ele><time>2026-03-29T08:12:59.999Z</time></trkpt><trkpt lat="45.912374357095146" lon="10.985983016468639"><ele>1139.0</ele><time>2026-03-29T08:13:00.999Z</time></trkpt><trkpt lat="45.91248664533483" lon="10.985995595239562"><ele>1139.0</ele><time>2026-03-29T08:13:01.999Z</time></trkpt><trkpt lat="45.9125955579579" lon="10.986014389373747"><ele>1139.0</ele><time>2026-03-29T08:13:02.999Z</time></trkpt><trkpt lat="45.91269395404299" lon="10.986030153035472"><ele>1139.0</ele><time>2026-03-29T08:13:03.999Z</time></trkpt><trkpt lat="45.91276981138293" lon="10.986028756943911"><ele>1139.0</ele><time>2026-03-29T08:13:04.999Z</time></trkpt><trkpt lat="45.912838655541826" lon="10.985982192044336"><ele>1139.0</ele><time>2026-03-29T08:13:05.999Z</time></trkpt><trkpt lat="45.91290984832972" lon="10.985912800015328"><ele>1139.0</ele><time>2026-03-29T08:13:06.999Z</time></trkpt><trkpt lat="45.91298422776493" lon="10.985826276242443"><ele>1139.0</ele><time>2026-03-29T08:13:07.999Z</time></trkpt><trkpt lat="45.913053215199156" lon="10.985702560133003"><ele>1139.0</ele><time>2026-03-29T08:13:08.999Z</time></trkpt><trkpt lat="45.91312190212688" lon="10.98555237758102"><ele>1139.0</ele><time>2026-03-29T08:13:09.999Z</time></trkpt><trkpt lat="45.91318387467112" lon="10.985416375288278"><ele>1139.0</ele><time>2026-03-29T08:13:10.999Z</time></trkpt><trkpt lat="45.913234363491306" lon="10.985284764307863"><ele>1139.0</ele><time>2026-03-29T08:13:11.999Z</time></trkpt><trkpt lat="45.91327818418478" lon="10.985126212138905"><ele>1139.0</ele><time>2026-03-29T08:13:12.999Z</time></trkpt><trkpt lat="45.91331466909671" lon="10.984976985582515"><ele>1139.0</ele><time>2026-03-29T08:13:13.999Z</time></trkpt><trkpt lat="45.91335172912395" lon="10.984859719766972"><ele>1139.0</ele><time>2026-03-29T08:13:14.999Z</time></trkpt><trkpt lat="45.91342659128061" lon="10.984812338898978"><ele>1139.0</ele><time>2026-03-29T08:13:15.999Z</time></trkpt><trkpt lat="45.91349513097726" lon="10.984840336168316"><ele>1139.0</ele><time>2026-03-29T08:13:16.999Z</time></trkpt><trkpt lat="45.913579662639975" lon="10.984833634640543"><ele>1139.0</ele><time>2026-03-29T08:13:17.999Z</time></trkpt><trkpt lat="45.91369202177375" lon="10.984831883203615"><ele>1138.0</ele><time>2026-03-29T08:13:19Z</time></trkpt><trkpt lat="45.91382412443796" lon="10.98487635628909"><ele>1137.0</ele><time>2026-03-29T08:13:20Z</time></trkpt><trkpt lat="45.91398023659046" lon="10.984960351509445"><ele>1136.0</ele><time>2026-03-29T08:13:21Z</time></trkpt><trkpt lat="45.914109610077595" lon="10.985041569359147"><ele>1135.0</ele><time>2026-03-29T08:13:22Z</time></trkpt><trkpt lat="45.91422005197776" lon="10.985095220410113"><ele>1133.0</ele><time>2026-03-29T08:13:23Z</time></trkpt><trkpt lat="45.91431837700451" lon="10.985116842104977"><ele>1131.0</ele><time>2026-03-29T08:13:24Z</time></trkpt><trkpt lat="45.91443412375098" lon="10.985059522204153"><ele>1129.0</ele><time>2026-03-29T08:13:25Z</time></trkpt><trkpt lat="45.91455162233759" lon="10.985036920624083"><ele>1127.0</ele><time>2026-03-29T08:13:26Z</time></trkpt><trkpt lat="45.91465024230167" lon="10.985044684794646"><ele>1125.0</ele><time>2026-03-29T08:13:27Z</time></trkpt><trkpt lat="45.91472483479496" lon="10.985106078022438"><ele>1125.0</ele><time>2026-03-29T08:13:28Z</time></trkpt><trkpt lat="45.91480846753956" lon="10.985183503374316"><ele>1125.0</ele><time>2026-03-29T08:13:29Z</time></trkpt><trkpt lat="45.91487144291671" lon="10.985310150305628"><ele>1125.0</ele><time>2026-03-29T08:13:30Z</time></trkpt><trkpt lat="45.91494802429386" lon="10.985475742387075"><ele>1125.0</ele><time>2026-03-29T08:13:31Z</time></trkpt><trkpt lat="45.91504466679712" lon="10.985653666421648"><ele>1129.5</ele><time>2026-03-29T08:13:32Z</time></trkpt><trkpt lat="45.9151380595586" lon="10.985818639054786"><ele>1134.0</ele><time>2026-03-29T08:13:33Z</time></trkpt><trkpt lat="45.915215827961035" lon="10.98598061278676"><ele>1138.5</ele><time>2026-03-29T08:13:34Z</time></trkpt><trkpt lat="45.91527986186489" lon="10.98616554355597"><ele>1143.0</ele><time>2026-03-29T08:13:35Z</time></trkpt><trkpt lat="45.91530792729648" lon="10.98635835456638"><ele>1143.0</ele><time>2026-03-29T08:13:36Z</time></trkpt><trkpt lat="45.91530012591699" lon="10.986554087784407"><ele>1143.0</ele><time>2026-03-29T08:13:37Z</time></trkpt><trkpt lat="45.91529585869702" lon="10.986775504885314"><ele>1143.0</ele><time>2026-03-29T08:13:38Z</time></trkpt><trkpt lat="45.91532105855393" lon="10.987000550972667"><ele>1143.0</ele><time>2026-03-29T08:13:39Z</time></trkpt><trkpt lat="45.915351702527566" lon="10.987236866502203"><ele>1141.0</ele><time>2026-03-29T08:13:40Z</time></trkpt><trkpt lat="45.91538859114706" lon="10.987481550246596"><ele>1139.0</ele><time>2026-03-29T08:13:41Z</time></trkpt><trkpt lat="45.9154479241766" lon="10.987728240470078"><ele>1137.0</ele><time>2026-03-29T08:13:42Z</time></trkpt><trkpt lat="45.91549346183545" lon="10.98794122946009"><ele>1134.3333333333333</ele><time>2026-03-29T08:13:43Z</time></trkpt><trkpt lat="45.9155541491419" lon="10.988170658603398"><ele>1131.6666666666665</ele><time>2026-03-29T08:13:44Z</time></trkpt><trkpt lat="45.915635756521304" lon="10.98840520492227"><ele>1129.0</ele><time>2026-03-29T08:13:45Z</time></trkpt><trkpt lat="45.91571341823785" lon="10.988623209821762"><ele>1128.4</ele><time>2026-03-29T08:13:46Z</time></trkpt><trkpt lat="45.91574177794747" lon="10.98882303283232"><ele>1127.8000000000002</ele><time>2026-03-29T08:13:47Z</time></trkpt><trkpt lat="45.91578100647958" lon="10.988982153059926"><ele>1127.1999999999998</ele><time>2026-03-29T08:13:48Z</time></trkpt><trkpt lat="45.91580949788724" lon="10.98910161771738"><ele>1126.6</ele><time>2026-03-29T08:13:49Z</time></trkpt><trkpt lat="45.91586082050197" lon="10.989178090302675"><ele>1126.0</ele><time>2026-03-29T08:13:50Z</time></trkpt><trkpt lat="45.91595078870058" lon="10.98921872071309"><ele>1126.0</ele><time>2026-03-29T08:13:51Z</time></trkpt><trkpt lat="45.916063268660054" lon="10.989229188854589"><ele>1126.0</ele><time>2026-03-29T08:13:52Z</time></trkpt><trkpt lat="45.91620267015672" lon="10.989204050133937"><ele>1126.0</ele><time>2026-03-29T08:13:53Z</time></trkpt><trkpt lat="45.9163108005954" lon="10.989199265565174"><ele>1126.0</ele><time>2026-03-29T08:13:54Z</time></trkpt><trkpt lat="45.916400916096244" lon="10.989285635969322"><ele>1126.0</ele><time>2026-03-29T08:13:55Z</time></trkpt><trkpt lat="45.916511525936016" lon="10.989381460537496"><ele>1126.0</ele><time>2026-03-29T08:13:56Z</time></trkpt><trkpt lat="45.916643181606396" lon="10.989498668635107"><ele>1126.0</ele><time>2026-03-29T08:13:57Z</time></trkpt><trkpt lat="45.916761564360165" lon="10.989653681706647"><ele>1126.0</ele><time>2026-03-29T08:13:58Z</time></trkpt><trkpt lat="45.91689007190662" lon="10.989803372652585"><ele>1127.3333333333333</ele><time>2026-03-29T08:13:59Z</time></trkpt><trkpt lat="45.91701059476188" lon="10.98994368609759"><ele>1128.6666666666667</ele><time>2026-03-29T08:14:00Z</time></trkpt><trkpt lat="45.91713210926964" lon="10.990075714876673"><ele>1130.0</ele><time>2026-03-29T08:14:01Z</time></trkpt><trkpt lat="45.917266903001355" lon="10.990178023627674"><ele>1124.0</ele><time>2026-03-29T08:14:02Z</time></trkpt><trkpt lat="45.91738832607902" lon="10.990307207848014"><ele>1118.0</ele><time>2026-03-29T08:14:03Z</time></trkpt><trkpt lat="45.917531681888825" lon="10.990412073794586"><ele>1112.0</ele><time>2026-03-29T08:14:04Z</time></trkpt><trkpt lat="45.917664879336265" lon="10.990520188531386"><ele>1112.0</ele><time>2026-03-29T08:14:05Z</time></trkpt><trkpt lat="45.917790950865324" lon="10.990634007024763"><ele>1112.0</ele><time>2026-03-29T08:14:06Z</time></trkpt><trkpt lat="45.91791632222446" lon="10.990748954528872"><ele>1112.0</ele><time>2026-03-29T08:14:07Z</time></trkpt><trkpt lat="45.91804476713454" lon="10.990870870406747"><ele>1109.25</ele><time>2026-03-29T08:14:08Z</time></trkpt><trkpt lat="45.91817328290846" lon="10.990975576122416"><ele>1106.5</ele><time>2026-03-29T08:14:09Z</time></trkpt><trkpt lat="45.918286740252086" lon="10.991097979602232"><ele>1103.75</ele><time>2026-03-29T08:14:10Z</time></trkpt><trkpt lat="45.918398897358934" lon="10.99120254691441"><ele>1101.0</ele><time>2026-03-29T08:14:11Z</time></trkpt><trkpt lat="45.91852002413015" lon="10.991272775709255"><ele>1099.75</ele><time>2026-03-29T08:14:12Z</time></trkpt><trkpt lat="45.918630165664595" lon="10.991341000094385"><ele>1098.5</ele><time>2026-03-29T08:14:13Z</time></trkpt><trkpt lat="45.91874828915727" lon="10.991369921651497"><ele>1097.25</ele><time>2026-03-29T08:14:14Z</time></trkpt><trkpt lat="45.918876095713856" lon="10.991372033877635"><ele>1096.0</ele><time>2026-03-29T08:14:15Z</time></trkpt><trkpt lat="45.919017472324434" lon="10.991345505461243"><ele>1096.0</ele><time>2026-03-29T08:14:16Z</time></trkpt><trkpt lat="45.9191590478143" lon="10.991289810801186"><ele>1096.0</ele><time>2026-03-29T08:14:17Z</time></trkpt><trkpt lat="45.91931055381198" lon="10.991247247094432"><ele>1096.0</ele><time>2026-03-29T08:14:18Z</time></trkpt><trkpt lat="45.91945516437151" lon="10.991167561956432"><ele>1089.3333333333333</ele><time>2026-03-29T08:14:19Z</time></trkpt><trkpt lat="45.919589222602035" lon="10.991079510956789"><ele>1082.6666666666667</ele><time>2026-03-29T08:14:20Z</time></trkpt><trkpt lat="45.919732548506126" lon="10.990942216286944"><ele>1076.0</ele><time>2026-03-29T08:14:21Z</time></trkpt><trkpt lat="45.91987037021122" lon="10.99084401761616"><ele>1078.0</ele><time>2026-03-29T08:14:22Z</time></trkpt><trkpt lat="45.91997549720895" lon="10.990716840759063"><ele>1080.0</ele><time>2026-03-29T08:14:23Z</time></trkpt><trkpt lat="45.92007960237175" lon="10.990663983564213"><ele>1082.0</ele><time>2026-03-29T08:14:24Z</time></trkpt><trkpt lat="45.92016957629382" lon="10.990640512971051"><ele>1084.0</ele><time>2026-03-29T08:14:25Z</time></trkpt><trkpt lat="45.920264093864695" lon="10.990668415196286"><ele>1086.0</ele><time>2026-03-29T08:14:26Z</time></trkpt><trkpt lat="45.9203820921521" lon="10.990702562511972"><ele>1086.0</ele><time>2026-03-29T08:14:27Z</time></trkpt><trkpt lat="45.92050746113967" lon="10.990742557188605"><ele>1086.0</ele><time>2026-03-29T08:14:28Z</time></trkpt><trkpt lat="45.92063728089881" lon="10.990782376200396"><ele>1086.0</ele><time>2026-03-29T08:14:29Z</time></trkpt><trkpt lat="45.92075092513857" lon="10.990794153648372"><ele>1086.0</ele><time>2026-03-29T08:14:30Z</time></trkpt><trkpt lat="45.92083595117964" lon="10.990827533473524"><ele>1083.2</ele><time>2026-03-29T08:14:31Z</time></trkpt><trkpt lat="45.92091323682441" lon="10.990802273022492"><ele>1080.3999999999999</ele><time>2026-03-29T08:14:32Z</time></trkpt><trkpt lat="45.920966900392244" lon="10.990684783117112"><ele>1077.6</ele><time>2026-03-29T08:14:33Z</time></trkpt><trkpt lat="45.92102423361426" lon="10.990551585279304"><ele>1074.8</ele><time>2026-03-29T08:14:34Z</time></trkpt><trkpt lat="45.92108623518885" lon="10.990399969500348"><ele>1072.0</ele><time>2026-03-29T08:14:35Z</time></trkpt><trkpt lat="45.921161077088705" lon="10.990258681453003"><ele>1072.0</ele><time>2026-03-29T08:14:36Z</time></trkpt><trkpt lat="45.92122631759126" lon="10.990149099304524"><ele>1072.0</ele><time>2026-03-29T08:14:37Z</time></trkpt><trkpt lat="45.921286013702016" lon="10.990041927136994"><ele>1072.0</ele><time>2026-03-29T08:14:38Z</time></trkpt><trkpt lat="45.92136473090663" lon="10.98996897791636"><ele>1072.0</ele><time>2026-03-29T08:14:39Z</time></trkpt><trkpt lat="45.921469362963975" lon="10.989945258307532"><ele>1072.0</ele><time>2026-03-29T08:14:40Z</time></trkpt><trkpt lat="45.92157020363675" lon="10.990015050473252"><ele>1072.0</ele><time>2026-03-29T08:14:41Z</time></trkpt><trkpt lat="45.921686610450415" lon="10.990067056513338"><ele>1072.0</ele><time>2026-03-29T08:14:42Z</time></trkpt><trkpt lat="45.921818191468276" lon="10.990132058783331"><ele>1072.0</ele><time>2026-03-29T08:14:43Z</time></trkpt><trkpt lat="45.92196699577932" lon="10.990206625864156"><ele>1072.0</ele><time>2026-03-29T08:14:44Z</time></trkpt><trkpt lat="45.92212883871633" lon="10.990296301448764"><ele>1072.3333333333333</ele><time>2026-03-29T08:14:45Z</time></trkpt><trkpt lat="45.922293656481656" lon="10.990402526911666"><ele>1072.6666666666667</ele><time>2026-03-29T08:14:46Z</time></trkpt><trkpt lat="45.92242704174804" lon="10.990531420334577"><ele>1073.0</ele><time>2026-03-29T08:14:47Z</time></trkpt><trkpt lat="45.92255913833873" lon="10.990688343580196"><ele>1074.6666666666667</ele><time>2026-03-29T08:14:48Z</time></trkpt><trkpt lat="45.92268806515318" lon="10.990840861651668"><ele>1076.3333333333333</ele><time>2026-03-29T08:14:49Z</time></trkpt><trkpt lat="45.922817296072346" lon="10.990995053778791"><ele>1078.0</ele><time>2026-03-29T08:14:50Z</time></trkpt><trkpt lat="45.92294923721752" lon="10.991158782930192"><ele>1072.3333333333333</ele><time>2026-03-29T08:14:51Z</time></trkpt><trkpt lat="45.92305452691051" lon="10.991328865536131"><ele>1066.6666666666667</ele><time>2026-03-29T08:14:52Z</time></trkpt><trkpt lat="45.92314094354532" lon="10.991520033612774"><ele>1061.0</ele><time>2026-03-29T08:14:53Z</time></trkpt><trkpt lat="45.923225480071814" lon="10.99175416290878"><ele>1059.0</ele><time>2026-03-29T08:14:54Z</time></trkpt><trkpt lat="45.923308178158194" lon="10.992004519592461"><ele>1057.0</ele><time>2026-03-29T08:14:55Z</time></trkpt><trkpt lat="45.923390665997495" lon="10.992259963925134"><ele>1055.0</ele><time>2026-03-29T08:14:56Z</time></trkpt><trkpt lat="45.923488086658644" lon="10.992527121399375"><ele>1060.0</ele><time>2026-03-29T08:14:57Z</time></trkpt><trkpt lat="45.923541186396015" lon="10.992773491470642"><ele>1065.0</ele><time>2026-03-29T08:14:58Z</time></trkpt><trkpt lat="45.923580409135155" lon="10.99300808973072"><ele>1070.0</ele><time>2026-03-29T08:14:59Z</time></trkpt><trkpt lat="45.92360336438329" lon="10.993274410114957"><ele>1070.6666666666667</ele><time>2026-03-29T08:15:00Z</time></trkpt><trkpt lat="45.92363501348538" lon="10.99350889252952"><ele>1071.3333333333333</ele><time>2026-03-29T08:15:01Z</time></trkpt><trkpt lat="45.92364670343728" lon="10.993734479317764"><ele>1072.0</ele><time>2026-03-29T08:15:02Z</time></trkpt><trkpt lat="45.92367105931004" lon="10.993960092379808"><ele>1068.3333333333333</ele><time>2026-03-29T08:15:03Z</time></trkpt><trkpt lat="45.92371641000161" lon="10.994184487767162"><ele>1064.6666666666667</ele><time>2026-03-29T08:15:04Z</time></trkpt><trkpt lat="45.92377006504074" lon="10.99440206283675"><ele>1061.0</ele><time>2026-03-29T08:15:05Z</time></trkpt><trkpt lat="45.9238376722949" lon="10.994616584987014"><ele>1061.0</ele><time>2026-03-29T08:15:06Z</time></trkpt><trkpt lat="45.923916007694594" lon="10.994820730874421"><ele>1061.0</ele><time>2026-03-29T08:15:07Z</time></trkpt><trkpt lat="45.9240071554611" lon="10.995022696200095"><ele>1061.0</ele><time>2026-03-29T08:15:08Z</time></trkpt><trkpt lat="45.924108233590985" lon="10.995214490899379"><ele>1061.6666666666667</ele><time>2026-03-29T08:15:09Z</time></trkpt><trkpt lat="45.92422618347138" lon="10.995399602012125"><ele>1062.3333333333333</ele><time>2026-03-29T08:15:10Z</time></trkpt><trkpt lat="45.92435973895264" lon="10.99557883547427"><ele>1063.0</ele><time>2026-03-29T08:15:11Z</time></trkpt><trkpt lat="45.924491145581115" lon="10.995727081005471"><ele>1059.0</ele><time>2026-03-29T08:15:12Z</time></trkpt><trkpt lat="45.92462897850681" lon="10.995853277413964"><ele>1055.0</ele><time>2026-03-29T08:15:13Z</time></trkpt><trkpt lat="45.92478199594811" lon="10.995971259632615"><ele>1051.0</ele><time>2026-03-29T08:15:14Z</time></trkpt><trkpt lat="45.92494458817526" lon="10.99607535003716"><ele>1052.0</ele><time>2026-03-29T08:15:15Z</time></trkpt><trkpt lat="45.92511108192436" lon="10.996178085790426"><ele>1053.0</ele><time>2026-03-29T08:15:16Z</time></trkpt><trkpt lat="45.92527853194671" lon="10.996286173090555"><ele>1054.0</ele><time>2026-03-29T08:15:17Z</time></trkpt><trkpt lat="45.92544888941728" lon="10.996399329408487"><ele>1054.0</ele><time>2026-03-29T08:15:18Z</time></trkpt><trkpt lat="45.92560405796428" lon="10.996505272953456"><ele>1054.0</ele><time>2026-03-29T08:15:19Z</time></trkpt><trkpt lat="45.92574365099967" lon="10.99659690428364"><ele>1054.0</ele><time>2026-03-29T08:15:20Z</time></trkpt><trkpt lat="45.92588611320952" lon="10.996690235198903"><ele>1049.75</ele><time>2026-03-29T08:15:21Z</time></trkpt><trkpt lat="45.926017372985285" lon="10.996778537116894"><ele>1045.5</ele><time>2026-03-29T08:15:22Z</time></trkpt><trkpt lat="45.926144967373915" lon="10.996837333730157"><ele>1041.25</ele><time>2026-03-29T08:15:23Z</time></trkpt><trkpt lat="45.92629121313046" lon="10.996864896716403"><ele>1037.0</ele><time>2026-03-29T08:15:24Z</time></trkpt><trkpt lat="45.92644791558861" lon="10.99686701647073"><ele>1037.0</ele><time>2026-03-29T08:15:25Z</time></trkpt><trkpt lat="45.92658651973282" lon="10.99686152706894"><ele>1037.0</ele><time>2026-03-29T08:15:26Z</time></trkpt><trkpt lat="45.92671817967736" lon="10.996887680386209"><ele>1037.0</ele><time>2026-03-29T08:15:27Z</time></trkpt><trkpt lat="45.926839557228774" lon="10.996986830095706"><ele>1037.0</ele><time>2026-03-29T08:15:28Z</time></trkpt><trkpt lat="45.926945552542186" lon="10.997099552563881"><ele>1039.25</ele><time>2026-03-29T08:15:29Z</time></trkpt><trkpt lat="45.92704002817934" lon="10.997247899392438"><ele>1041.5</ele><time>2026-03-29T08:15:30Z</time></trkpt><trkpt lat="45.927111599571425" lon="10.997423985762723"><ele>1043.75</ele><time>2026-03-29T08:15:31Z</time></trkpt><trkpt lat="45.92719471453741" lon="10.997630260191807"><ele>1046.0</ele><time>2026-03-29T08:15:32Z</time></trkpt><trkpt lat="45.92728085769116" lon="10.99784404906251"><ele>1046.0</ele><time>2026-03-29T08:15:33Z</time></trkpt><trkpt lat="45.92735585469696" lon="10.998029419032825"><ele>1046.0</ele><time>2026-03-29T08:15:34Z</time></trkpt><trkpt lat="45.927427183372124" lon="10.998205791443723"><ele>1046.0</ele><time>2026-03-29T08:15:35Z</time></trkpt><trkpt lat="45.92749555146216" lon="10.998378517290178"><ele>1046.0</ele><time>2026-03-29T08:15:36Z</time></trkpt><trkpt lat="45.92757218683394" lon="10.99853608073872"><ele>1047.5</ele><time>2026-03-29T08:15:37Z</time></trkpt><trkpt lat="45.92762087764237" lon="10.998696812163134"><ele>1049.0</ele><time>2026-03-29T08:15:38Z</time></trkpt><trkpt lat="45.92761775064586" lon="10.998867576142855"><ele>1050.5</ele><time>2026-03-29T08:15:39Z</time></trkpt><trkpt lat="45.92760652084073" lon="10.999049442889339"><ele>1052.0</ele><time>2026-03-29T08:15:40Z</time></trkpt><trkpt lat="45.92756497241751" lon="10.999238720416411"><ele>1046.0</ele><time>2026-03-29T08:15:41Z</time></trkpt><trkpt lat="45.92750307163529" lon="10.999431750901849"><ele>1040.0</ele><time>2026-03-29T08:15:42Z</time></trkpt><trkpt lat="45.927465750135745" lon="10.999610580611074"><ele>1034.0</ele><time>2026-03-29T08:15:43Z</time></trkpt><trkpt lat="45.92748221833855" lon="10.999791008111545"><ele>1028.0</ele><time>2026-03-29T08:15:44Z</time></trkpt><trkpt lat="45.92751131566886" lon="10.999984940473276"><ele>1036.0</ele><time>2026-03-29T08:15:45Z</time></trkpt><trkpt lat="45.92757722032912" lon="11.0001813809158"><ele>1044.0</ele><time>2026-03-29T08:15:46Z</time></trkpt><trkpt lat="45.92768192710044" lon="11.000385965782172"><ele>1052.0</ele><time>2026-03-29T08:15:47Z</time></trkpt><trkpt lat="45.92778628586056" lon="11.000573619891796"><ele>1052.0</ele><time>2026-03-29T08:15:48Z</time></trkpt><trkpt lat="45.9278650308093" lon="11.000757670150508"><ele>1052.0</ele><time>2026-03-29T08:15:49Z</time></trkpt><trkpt lat="45.92796687762347" lon="11.00088158773477"><ele>1052.0</ele><time>2026-03-29T08:15:50Z</time></trkpt><trkpt lat="45.9280796344632" lon="11.000971694575766"><ele>1052.0</ele><time>2026-03-29T08:15:51Z</time></trkpt><trkpt lat="45.928227314897555" lon="11.001025102627754"><ele>1044.0</ele><time>2026-03-29T08:15:52Z</time></trkpt><trkpt lat="45.928402787679225" lon="11.001025619477511"><ele>1036.0</ele><time>2026-03-29T08:15:53Z</time></trkpt><trkpt lat="45.92859876750143" lon="11.001004122175265"><ele>1028.0</ele><time>2026-03-29T08:15:54Z</time></trkpt><trkpt lat="45.92876643478892" lon="11.001029021143447"><ele>1028.0</ele><time>2026-03-29T08:15:55Z</time></trkpt><trkpt lat="45.92891939090578" lon="11.001088318235892"><ele>1028.0</ele><time>2026-03-29T08:15:56Z</time></trkpt><trkpt lat="45.929065953332746" lon="11.001187766985044"><ele>1028.0</ele><time>2026-03-29T08:15:57Z</time></trkpt><trkpt lat="45.92921063321659" lon="11.001350644475968"><ele>1031.3333333333335</ele><time>2026-03-29T08:15:58Z</time></trkpt><trkpt lat="45.92936371452544" lon="11.001554515011174"><ele>1034.6666666666667</ele><time>2026-03-29T08:15:59Z</time></trkpt><trkpt lat="45.92952840347193" lon="11.001756292322963"><ele>1038.0</ele><time>2026-03-29T08:16:00Z</time></trkpt><trkpt lat="45.929697445272424" lon="11.001946205249002"><ele>1033.6666666666667</ele><time>2026-03-29T08:16:01Z</time></trkpt><trkpt lat="45.929845967548225" lon="11.002115147338364"><ele>1029.3333333333335</ele><time>2026-03-29T08:16:02Z</time></trkpt><trkpt lat="45.92998217688268" lon="11.002279926884778"><ele>1025.0</ele><time>2026-03-29T08:16:03Z</time></trkpt><trkpt lat="45.93011285338228" lon="11.002423579903738"><ele>1016.0</ele><time>2026-03-29T08:16:04Z</time></trkpt><trkpt lat="45.93025578045553" lon="11.002537129259709"><ele>1007.0</ele><time>2026-03-29T08:16:05Z</time></trkpt><trkpt lat="45.9303871838125" lon="11.002624887352708"><ele>998.0</ele><time>2026-03-29T08:16:06Z</time></trkpt><trkpt lat="45.930527515286144" lon="11.002669830713991"><ele>998.0</ele><time>2026-03-29T08:16:07Z</time></trkpt><trkpt lat="45.93068623102579" lon="11.002670571958735"><ele>998.0</ele><time>2026-03-29T08:16:08Z</time></trkpt><trkpt lat="45.930831408941586" lon="11.002694081450189"><ele>998.0</ele><time>2026-03-29T08:16:09Z</time></trkpt><trkpt lat="45.9309710386831" lon="11.002759695879556"><ele>999.0</ele><time>2026-03-29T08:16:10Z</time></trkpt><trkpt lat="45.93108569486651" lon="11.002889397056647"><ele>1000.0</ele><time>2026-03-29T08:16:11Z</time></trkpt><trkpt lat="45.93118380012697" lon="11.003026474582475"><ele>1001.0</ele><time>2026-03-29T08:16:12Z</time></trkpt><trkpt lat="45.931258976983706" lon="11.00319023654981"><ele>1002.0</ele><time>2026-03-29T08:16:13Z</time></trkpt><trkpt lat="45.93131488940662" lon="11.003394624584146"><ele>1002.0</ele><time>2026-03-29T08:16:14Z</time></trkpt><trkpt lat="45.93135165846462" lon="11.003626343035858"><ele>1002.0</ele><time>2026-03-29T08:16:15Z</time></trkpt><trkpt lat="45.931405425253786" lon="11.00382987584645"><ele>1002.0</ele><time>2026-03-29T08:16:16Z</time></trkpt><trkpt lat="45.93144443008409" lon="11.004016224551092"><ele>998.5</ele><time>2026-03-29T08:16:17Z</time></trkpt><trkpt lat="45.93150974820233" lon="11.00417191098063"><ele>995.0</ele><time>2026-03-29T08:16:18Z</time></trkpt><trkpt lat="45.931619518842275" lon="11.004296567666328"><ele>991.5</ele><time>2026-03-29T08:16:19Z</time></trkpt><trkpt lat="45.93175005490335" lon="11.004349962794413"><ele>988.0</ele><time>2026-03-29T08:16:20Z</time></trkpt><trkpt lat="45.93188736849215" lon="11.004350301596348"><ele>988.0</ele><time>2026-03-29T08:16:21Z</time></trkpt><trkpt lat="45.932032061683216" lon="11.00430145574399"><ele>988.0</ele><time>2026-03-29T08:16:22Z</time></trkpt><trkpt lat="45.932140073106126" lon="11.004240268734666"><ele>988.0</ele><time>2026-03-29T08:16:23Z</time></trkpt><trkpt lat="45.93222289032595" lon="11.004223468964884"><ele>988.0</ele><time>2026-03-29T08:16:24Z</time></trkpt><trkpt lat="45.93229209925133" lon="11.00426361814731"><ele>988.0</ele><time>2026-03-29T08:16:25Z</time></trkpt><trkpt lat="45.93231703855608" lon="11.004370137107943"><ele>988.0</ele><time>2026-03-29T08:16:26Z</time></trkpt><trkpt lat="45.93227880023268" lon="11.004481796777387"><ele>988.0</ele><time>2026-03-29T08:16:27Z</time></trkpt><trkpt lat="45.932236003524054" lon="11.00455173617038"><ele>988.0</ele><time>2026-03-29T08:16:28Z</time></trkpt><trkpt lat="45.932172881510155" lon="11.004599772509357"><ele>988.0</ele><time>2026-03-29T08:16:29Z</time></trkpt><trkpt lat="45.93201410622091" lon="11.004523226594776"><ele>988.0</ele><time>2026-03-29T08:16:30Z</time></trkpt><trkpt lat="45.93188102719156" lon="11.004534870579349"><ele>988.0</ele><time>2026-03-29T08:16:31Z</time></trkpt><trkpt lat="45.93172396978228" lon="11.004535101786217"><ele>988.0</ele><time>2026-03-29T08:16:32Z</time></trkpt><trkpt lat="45.93156159546011" lon="11.004485679639409"><ele>988.0</ele><time>2026-03-29T08:16:33Z</time></trkpt><trkpt lat="45.93140324467714" lon="11.004379897800257"><ele>985.3333333333333</ele><time>2026-03-29T08:16:34Z</time></trkpt><trkpt lat="45.931248040968505" lon="11.004218592189599"><ele>982.6666666666667</ele><time>2026-03-29T08:16:35Z</time></trkpt><trkpt lat="45.93108423858286" lon="11.004050259399648"><ele>980.0</ele><time>2026-03-29T08:16:36Z</time></trkpt><trkpt lat="45.930936560552745" lon="11.003924664081701"><ele>979.0</ele><time>2026-03-29T08:16:37Z</time></trkpt><trkpt lat="45.93076770041404" lon="11.00387196945277"><ele>978.0</ele><time>2026-03-29T08:16:38Z</time></trkpt><trkpt lat="45.930587348760476" lon="11.00385374097511"><ele>977.0</ele><time>2026-03-29T08:16:39Z</time></trkpt><trkpt lat="45.93040785940552" lon="11.003903678953394"><ele>977.0</ele><time>2026-03-29T08:16:40Z</time></trkpt><trkpt lat="45.930245616440864" lon="11.003958846842195"><ele>977.0</ele><time>2026-03-29T08:16:41Z</time></trkpt><trkpt lat="45.930102168311926" lon="11.003926550153517"><ele>977.0</ele><time>2026-03-29T08:16:42Z</time></trkpt><trkpt lat="45.92996641237387" lon="11.003856012815561"><ele>975.0</ele><time>2026-03-29T08:16:43Z</time></trkpt><trkpt lat="45.92984658116177" lon="11.003762848343444"><ele>973.0</ele><time>2026-03-29T08:16:44Z</time></trkpt><trkpt lat="45.92973641843019" lon="11.003644834221731"><ele>971.0</ele><time>2026-03-29T08:16:45Z</time></trkpt><trkpt lat="45.92963114445208" lon="11.003483643594876"><ele>969.0</ele><time>2026-03-29T08:16:46Z</time></trkpt><trkpt lat="45.92950302991917" lon="11.003296271593495"><ele>972.3333333333333</ele><time>2026-03-29T08:16:47Z</time></trkpt><trkpt lat="45.929364422804134" lon="11.003150595442728"><ele>975.6666666666666</ele><time>2026-03-29T08:16:48Z</time></trkpt><trkpt lat="45.92919814088428" lon="11.003045189504366"><ele>979.0</ele><time>2026-03-29T08:16:49Z</time></trkpt><trkpt lat="45.92900602173408" lon="11.002980108281728"><ele>979.0</ele><time>2026-03-29T08:16:50Z</time></trkpt><trkpt lat="45.92878674214056" lon="11.002920688683233"><ele>979.0</ele><time>2026-03-29T08:16:51Z</time></trkpt><trkpt lat="45.92861881312569" lon="11.002835274488085"><ele>979.0</ele><time>2026-03-29T08:16:52Z</time></trkpt><trkpt lat="45.92848659879095" lon="11.002744305550129"><ele>975.0</ele><time>2026-03-29T08:16:53Z</time></trkpt><trkpt lat="45.92836912365077" lon="11.002667145569262"><ele>971.0000000000001</ele><time>2026-03-29T08:16:54Z</time></trkpt><trkpt lat="45.928274018377934" lon="11.002644712167696"><ele>967.0000000000001</ele><time>2026-03-29T08:16:55Z</time></trkpt><trkpt lat="45.92819979997727" lon="11.002671669979472"><ele>963.0</ele><time>2026-03-29T08:16:56Z</time></trkpt><trkpt lat="45.928151971712126" lon="11.002747624843305"><ele>959.0</ele><time>2026-03-29T08:16:57Z</time></trkpt><trkpt lat="45.92814111092148" lon="11.002857294952822"><ele>959.0</ele><time>2026-03-29T08:16:58Z</time></trkpt><trkpt lat="45.928186461507224" lon="11.002975765532447"><ele>959.0</ele><time>2026-03-29T08:16:59Z</time></trkpt><trkpt lat="45.92827202604007" lon="11.003075348124666"><ele>959.0</ele><time>2026-03-29T08:17:00Z</time></trkpt><trkpt lat="45.928395258478616" lon="11.003163116853774"><ele>959.0</ele><time>2026-03-29T08:17:01Z</time></trkpt><trkpt lat="45.928546274104825" lon="11.003292854508333"><ele>956.3333333333334</ele><time>2026-03-29T08:17:02Z</time></trkpt><trkpt lat="45.928705547742624" lon="11.003435212600168"><ele>953.6666666666667</ele><time>2026-03-29T08:17:03Z</time></trkpt><trkpt lat="45.92888956282636" lon="11.003617501310437"><ele>951.0</ele><time>2026-03-29T08:17:04Z</time></trkpt><trkpt lat="45.92904891831758" lon="11.003758917750137"><ele>951.0</ele><time>2026-03-29T08:17:05Z</time></trkpt><trkpt lat="45.92919596328418" lon="11.003886800782213"><ele>951.0</ele><time>2026-03-29T08:17:06Z</time></trkpt><trkpt lat="45.92930695490076" lon="11.004047570360918"><ele>951.0</ele><time>2026-03-29T08:17:07Z</time></trkpt><trkpt lat="45.92941481489976" lon="11.004241010265744"><ele>951.0</ele><time>2026-03-29T08:17:08Z</time></trkpt><trkpt lat="45.92946455521465" lon="11.00445472992634"><ele>951.0</ele><time>2026-03-29T08:17:09Z</time></trkpt><trkpt lat="45.9295051718341" lon="11.004681627677476"><ele>951.0</ele><time>2026-03-29T08:17:10Z</time></trkpt><trkpt lat="45.92955713785217" lon="11.00495096257232"><ele>944.3333333333333</ele><time>2026-03-29T08:17:11Z</time></trkpt><trkpt lat="45.929590687592814" lon="11.005180539482012"><ele>937.6666666666666</ele><time>2026-03-29T08:17:12Z</time></trkpt><trkpt lat="45.929662079092594" lon="11.005374109940407"><ele>931.0</ele><time>2026-03-29T08:17:13Z</time></trkpt><trkpt lat="45.929766622447794" lon="11.005554716873581"><ele>931.0</ele><time>2026-03-29T08:17:14Z</time></trkpt><trkpt lat="45.92989932534718" lon="11.00570990215071"><ele>931.0</ele><time>2026-03-29T08:17:15Z</time></trkpt><trkpt lat="45.93006313844276" lon="11.005842854628133"><ele>931.0</ele><time>2026-03-29T08:17:16Z</time></trkpt><trkpt lat="45.930247585681926" lon="11.00594505773571"><ele>928.0</ele><time>2026-03-29T08:17:17Z</time></trkpt><trkpt lat="45.930446698939484" lon="11.006059266045826"><ele>925.0</ele><time>2026-03-29T08:17:18Z</time></trkpt><trkpt lat="45.93063890853258" lon="11.00618379844106"><ele>922.0</ele><time>2026-03-29T08:17:19Z</time></trkpt><trkpt lat="45.930809121443836" lon="11.006307995353906"><ele>926.6666666666666</ele><time>2026-03-29T08:17:20Z</time></trkpt><trkpt lat="45.9309706219283" lon="11.006421094858437"><ele>931.3333333333333</ele><time>2026-03-29T08:17:21Z</time></trkpt><trkpt lat="45.93111898813524" lon="11.006535834404934"><ele>936.0</ele><time>2026-03-29T08:17:22Z</time></trkpt><trkpt lat="45.93125272131972" lon="11.006645639887878"><ele>932.1999999999999</ele><time>2026-03-29T08:17:23Z</time></trkpt><trkpt lat="45.93136466458825" lon="11.006747949875683"><ele>928.3999999999999</ele><time>2026-03-29T08:17:24Z</time></trkpt><trkpt lat="45.931460408020925" lon="11.006829078458159"><ele>924.6</ele><time>2026-03-29T08:17:25Z</time></trkpt><trkpt lat="45.93153178116107" lon="11.006899670956699"><ele>920.8</ele><time>2026-03-29T08:17:26Z</time></trkpt><trkpt lat="45.93156825828398" lon="11.00697377025362"><ele>917.0</ele><time>2026-03-29T08:17:27Z</time></trkpt><trkpt lat="45.93158401861643" lon="11.00711097359228"><ele>917.0</ele><time>2026-03-29T08:17:29Z</time></trkpt><trkpt lat="45.93158841241069" lon="11.007220935709888"><ele>917.0</ele><time>2026-03-29T08:17:35Z</time></trkpt><trkpt lat="45.93173951917695" lon="11.007228708493244"><ele>917.0</ele><time>2026-03-29T08:17:36Z</time></trkpt><trkpt lat="45.931856519749296" lon="11.007235503921251"><ele>917.0</ele><time>2026-03-29T08:17:37Z</time></trkpt><trkpt lat="45.931991371540526" lon="11.007243800688752"><ele>922.3333333333334</ele><time>2026-03-29T08:17:38Z</time></trkpt><trkpt lat="45.93215776588726" lon="11.00725083656165"><ele>927.6666666666667</ele><time>2026-03-29T08:17:39Z</time></trkpt><trkpt lat="45.93233340449675" lon="11.007279934874372"><ele>933.0</ele><time>2026-03-29T08:17:40Z</time></trkpt><trkpt lat="45.93247433474939" lon="11.007319963211286"><ele>934.75</ele><time>2026-03-29T08:17:41Z</time></trkpt><trkpt lat="45.93258722273997" lon="11.0073920877105"><ele>936.5</ele><time>2026-03-29T08:17:42Z</time></trkpt><trkpt lat="45.93267402573406" lon="11.007469680474923"><ele>938.25</ele><time>2026-03-29T08:17:43Z</time></trkpt><trkpt lat="45.93275207781972" lon="11.007605660805007"><ele>940.0</ele><time>2026-03-29T08:17:44Z</time></trkpt><trkpt lat="45.932854992876784" lon="11.007760059869074"><ele>934.5</ele><time>2026-03-29T08:17:45Z</time></trkpt><trkpt lat="45.93296869274728" lon="11.007899834491303"><ele>929.0</ele><time>2026-03-29T08:17:46Z</time></trkpt><trkpt lat="45.93308166097746" lon="11.008011334624706"><ele>923.5</ele><time>2026-03-29T08:17:47Z</time></trkpt><trkpt lat="45.93322663505301" lon="11.00810763179691"><ele>918.0</ele><time>2026-03-29T08:17:48Z</time></trkpt><trkpt lat="45.93337851504299" lon="11.008198426558645"><ele>914.6666666666667</ele><time>2026-03-29T08:17:49Z</time></trkpt><trkpt lat="45.933540661439366" lon="11.008307180788869"><ele>911.3333333333334</ele><time>2026-03-29T08:17:50Z</time></trkpt><trkpt lat="45.93367266947135" lon="11.008405661511075"><ele>908.0</ele><time>2026-03-29T08:17:51Z</time></trkpt><trkpt lat="45.93378391899497" lon="11.008498786656206"><ele>908.0</ele><time>2026-03-29T08:17:52Z</time></trkpt><trkpt lat="45.93387598400373" lon="11.008601252632063"><ele>908.0</ele><time>2026-03-29T08:17:53Z</time></trkpt><trkpt lat="45.93397468578381" lon="11.008699918119989"><ele>908.0</ele><time>2026-03-29T08:17:54Z</time></trkpt><trkpt lat="45.93409257472514" lon="11.008772038193786"><ele>908.0</ele><time>2026-03-29T08:17:55Z</time></trkpt><trkpt lat="45.93422287664122" lon="11.008794108287193"><ele>909.3333333333334</ele><time>2026-03-29T08:17:56Z</time></trkpt><trkpt lat="45.934366284189956" lon="11.008751661304258"><ele>910.6666666666667</ele><time>2026-03-29T08:17:57Z</time></trkpt><trkpt lat="45.934514405517504" lon="11.008658303478528"><ele>912.0</ele><time>2026-03-29T08:17:58Z</time></trkpt><trkpt lat="45.93468409620683" lon="11.008542274623716"><ele>912.0</ele><time>2026-03-29T08:17:59Z</time></trkpt><trkpt lat="45.93483301189156" lon="11.008504190608763"><ele>912.0</ele><time>2026-03-29T08:18:00Z</time></trkpt><trkpt lat="45.935012469289305" lon="11.008508117420217"><ele>912.0</ele><time>2026-03-29T08:18:01Z</time></trkpt><trkpt lat="45.935218205137886" lon="11.00852402066581"><ele>913.6666666666667</ele><time>2026-03-29T08:18:02Z</time></trkpt><trkpt lat="45.93543122239339" lon="11.008553241302199"><ele>915.3333333333334</ele><time>2026-03-29T08:18:03Z</time></trkpt><trkpt lat="45.93566191352489" lon="11.00859539254413"><ele>917.0</ele><time>2026-03-29T08:18:04Z</time></trkpt><trkpt lat="45.93587087794303" lon="11.008611700917944"><ele>917.0</ele><time>2026-03-29T08:18:05Z</time></trkpt><trkpt lat="45.9360452417119" lon="11.008603846496666"><ele>917.0</ele><time>2026-03-29T08:18:06Z</time></trkpt><trkpt lat="45.9362093462131" lon="11.008635676277535"><ele>917.0</ele><time>2026-03-29T08:18:07Z</time></trkpt><trkpt lat="45.93639005550827" lon="11.008624578194162"><ele>917.0</ele><time>2026-03-29T08:18:08Z</time></trkpt><trkpt lat="45.93657304903234" lon="11.008636951688183"><ele>917.0</ele><time>2026-03-29T08:18:09Z</time></trkpt><trkpt lat="45.93675503450254" lon="11.008647980817333"><ele>917.0</ele><time>2026-03-29T08:18:10Z</time></trkpt><trkpt lat="45.93693450939722" lon="11.008677205046192"><ele>919.6666666666667</ele><time>2026-03-29T08:18:11Z</time></trkpt><trkpt lat="45.93712836508063" lon="11.008690584731161"><ele>922.3333333333333</ele><time>2026-03-29T08:18:12Z</time></trkpt><trkpt lat="45.93730190054238" lon="11.00871763616404"><ele>925.0</ele><time>2026-03-29T08:18:13Z</time></trkpt><trkpt lat="45.93746001149408" lon="11.008779255446846"><ele>928.6666666666666</ele><time>2026-03-29T08:18:14Z</time></trkpt><trkpt lat="45.937614509901636" lon="11.008870810995308"><ele>932.3333333333333</ele><time>2026-03-29T08:18:15Z</time></trkpt><trkpt lat="45.937765030770734" lon="11.00899279622836"><ele>936.0</ele><time>2026-03-29T08:18:16Z</time></trkpt><trkpt lat="45.93790855435847" lon="11.0091382387927"><ele>931.6666666666667</ele><time>2026-03-29T08:18:17Z</time></trkpt><trkpt lat="45.93804994975007" lon="11.009295538404498"><ele>927.3333333333334</ele><time>2026-03-29T08:18:18Z</time></trkpt><trkpt lat="45.9381858891824" lon="11.0094002925519"><ele>923.0</ele><time>2026-03-29T08:18:19Z</time></trkpt><trkpt lat="45.93831319605294" lon="11.009505999620496"><ele>926.6666666666667</ele><time>2026-03-29T08:18:20Z</time></trkpt><trkpt lat="45.93845773756018" lon="11.00958218607155"><ele>930.3333333333333</ele><time>2026-03-29T08:18:21Z</time></trkpt><trkpt lat="45.93861317204786" lon="11.009623278919515"><ele>934.0</ele><time>2026-03-29T08:18:22Z</time></trkpt><trkpt lat="45.93880181461883" lon="11.009638600830742"><ele>934.0</ele><time>2026-03-29T08:18:23Z</time></trkpt><trkpt lat="45.938999969283515" lon="11.009660177895185"><ele>934.0</ele><time>2026-03-29T08:18:24Z</time></trkpt><trkpt lat="45.93920532646553" lon="11.009697390667077"><ele>934.0</ele><time>2026-03-29T08:18:25Z</time></trkpt><trkpt lat="45.93941098087662" lon="11.009735939006442"><ele>936.6666666666666</ele><time>2026-03-29T08:18:26Z</time></trkpt><trkpt lat="45.93959615416726" lon="11.009759219738964"><ele>939.3333333333333</ele><time>2026-03-29T08:18:27Z</time></trkpt><trkpt lat="45.939761092756434" lon="11.009796597549922"><ele>942.0</ele><time>2026-03-29T08:18:28Z</time></trkpt><trkpt lat="45.939945663606444" lon="11.009799674451838"><ele>941.0</ele><time>2026-03-29T08:18:29Z</time></trkpt><trkpt lat="45.94010384243865" lon="11.009844137648885"><ele>940.0</ele><time>2026-03-29T08:18:30Z</time></trkpt><trkpt lat="45.94025919812613" lon="11.009823424146944"><ele>939.0</ele><time>2026-03-29T08:18:31Z</time></trkpt><trkpt lat="45.94040730798966" lon="11.009779668279746"><ele>939.0</ele><time>2026-03-29T08:18:32Z</time></trkpt><trkpt lat="45.940572038607954" lon="11.009736122780142"><ele>939.0</ele><time>2026-03-29T08:18:33Z</time></trkpt><trkpt lat="45.94071952125256" lon="11.00967433573411"><ele>939.0</ele><time>2026-03-29T08:18:34Z</time></trkpt><trkpt lat="45.94085308044272" lon="11.009625477132971"><ele>940.75</ele><time>2026-03-29T08:18:35Z</time></trkpt><trkpt lat="45.94096827467746" lon="11.009602420114298"><ele>942.5</ele><time>2026-03-29T08:18:36Z</time></trkpt><trkpt lat="45.94109190996444" lon="11.009629743332216"><ele>944.25</ele><time>2026-03-29T08:18:37Z</time></trkpt><trkpt lat="45.9412197892552" lon="11.009724533217863"><ele>946.0</ele><time>2026-03-29T08:18:38Z</time></trkpt><trkpt lat="45.94134312515971" lon="11.009853906384494"><ele>946.3333333333333</ele><time>2026-03-29T08:18:39Z</time></trkpt><trkpt lat="45.941485687021036" lon="11.010002154097558"><ele>946.6666666666667</ele><time>2026-03-29T08:18:40Z</time></trkpt><trkpt lat="45.94163592970061" lon="11.010159061038486"><ele>947.0</ele><time>2026-03-29T08:18:41Z</time></trkpt><trkpt lat="45.941794708753136" lon="11.01032438067694"><ele>947.0</ele><time>2026-03-29T08:18:42Z</time></trkpt><trkpt lat="45.94197077816027" lon="11.010500277778243"><ele>947.0</ele><time>2026-03-29T08:18:43Z</time></trkpt><trkpt lat="45.94217534488287" lon="11.01065071582054"><ele>947.0</ele><time>2026-03-29T08:18:44Z</time></trkpt><trkpt lat="45.94234854019797" lon="11.010743529612864"><ele>947.0</ele><time>2026-03-29T08:18:45Z</time></trkpt><trkpt lat="45.94250902735286" lon="11.010812929160355"><ele>947.0</ele><time>2026-03-29T08:18:46Z</time></trkpt><trkpt lat="45.94264786765189" lon="11.010851271894873"><ele>947.0</ele><time>2026-03-29T08:18:47Z</time></trkpt><trkpt lat="45.94278375633345" lon="11.01086552436904"><ele>947.0</ele><time>2026-03-29T08:18:48Z</time></trkpt><trkpt lat="45.942933220596075" lon="11.010817967008602"><ele>947.6666666666667</ele><time>2026-03-29T08:18:49Z</time></trkpt><trkpt lat="45.94310545344736" lon="11.01077390285763"><ele>948.3333333333333</ele><time>2026-03-29T08:18:50Z</time></trkpt><trkpt lat="45.94329888933529" lon="11.010809309563863"><ele>949.0</ele><time>2026-03-29T08:18:51Z</time></trkpt><trkpt lat="45.943486882674684" lon="11.010858965431742"><ele>949.0</ele><time>2026-03-29T08:18:52Z</time></trkpt><trkpt lat="45.943697252908876" lon="11.01091606205245"><ele>949.0</ele><time>2026-03-29T08:18:53Z</time></trkpt><trkpt lat="45.943889946783585" lon="11.010968413585772"><ele>949.0</ele><time>2026-03-29T08:18:54Z</time></trkpt><trkpt lat="45.94404143824776" lon="11.011015900099999"><ele>949.0</ele><time>2026-03-29T08:18:55Z</time></trkpt><trkpt lat="45.94417477201593" lon="11.011097594016787"><ele>949.0</ele><time>2026-03-29T08:18:56Z</time></trkpt><trkpt lat="45.94429951595953" lon="11.011229521554851"><ele>949.0</ele><time>2026-03-29T08:18:57Z</time></trkpt><trkpt lat="45.9444253068453" lon="11.011407834045215"><ele>948.75</ele><time>2026-03-29T08:18:58Z</time></trkpt><trkpt lat="45.94455374359274" lon="11.011544685358112"><ele>948.5</ele><time>2026-03-29T08:18:59Z</time></trkpt><trkpt lat="45.94466097928259" lon="11.01164482071241"><ele>948.25</ele><time>2026-03-29T08:19:00Z</time></trkpt><trkpt lat="45.94479575132167" lon="11.011700689707027"><ele>948.0</ele><time>2026-03-29T08:19:01Z</time></trkpt><trkpt lat="45.94497113758973" lon="11.011718600396593"><ele>952.3333333333333</ele><time>2026-03-29T08:19:02Z</time></trkpt><trkpt lat="45.945144744583644" lon="11.011713612168927"><ele>956.6666666666666</ele><time>2026-03-29T08:19:03Z</time></trkpt><trkpt lat="45.94529392361529" lon="11.011728335535361"><ele>961.0</ele><time>2026-03-29T08:19:04Z</time></trkpt><trkpt lat="45.94543663527975" lon="11.011754508461497"><ele>961.0</ele><time>2026-03-29T08:19:05Z</time></trkpt><trkpt lat="45.94557166068234" lon="11.011767168806312"><ele>961.0</ele><time>2026-03-29T08:19:06Z</time></trkpt><trkpt lat="45.94569924938663" lon="11.011797766451677"><ele>961.0</ele><time>2026-03-29T08:19:07Z</time></trkpt><trkpt lat="45.945796857112846" lon="11.011862002262893"><ele>961.0</ele><time>2026-03-29T08:19:08Z</time></trkpt><trkpt lat="45.94586662803871" lon="11.011975303628684"><ele>963.4</ele><time>2026-03-29T08:19:09Z</time></trkpt><trkpt lat="45.945917263340824" lon="11.01209334816775"><ele>965.8</ele><time>2026-03-29T08:19:10Z</time></trkpt><trkpt lat="45.94593212777433" lon="11.012212393580025"><ele>968.1999999999999</ele><time>2026-03-29T08:19:11Z</time></trkpt><trkpt lat="45.94594394032611" lon="11.012335388362981"><ele>970.5999999999999</ele><time>2026-03-29T08:19:12Z</time></trkpt><trkpt lat="45.94594335892549" lon="11.012476114273623"><ele>973.0</ele><time>2026-03-29T08:19:13Z</time></trkpt><trkpt lat="45.94595661803299" lon="11.012628334933174"><ele>973.0</ele><time>2026-03-29T08:19:14Z</time></trkpt><trkpt lat="45.94598702583011" lon="11.012787715969894"><ele>973.0</ele><time>2026-03-29T08:19:15Z</time></trkpt><trkpt lat="45.94603310802748" lon="11.012945572406636"><ele>973.0</ele><time>2026-03-29T08:19:16Z</time></trkpt><trkpt lat="45.9461133510446" lon="11.013099443754395"><ele>973.0</ele><time>2026-03-29T08:19:17Z</time></trkpt><trkpt lat="45.94618658444959" lon="11.013243553853318"><ele>970.5</ele><time>2026-03-29T08:19:18Z</time></trkpt><trkpt lat="45.94627131884304" lon="11.013410784776509"><ele>968.0</ele><time>2026-03-29T08:19:19Z</time></trkpt><trkpt lat="45.94635811966792" lon="11.013577840676984"><ele>965.5</ele><time>2026-03-29T08:19:20Z</time></trkpt><trkpt lat="45.94647208846209" lon="11.01369561686239"><ele>963.0</ele><time>2026-03-29T08:19:21Z</time></trkpt><trkpt lat="45.94658630789238" lon="11.013804509976568"><ele>963.0</ele><time>2026-03-29T08:19:22Z</time></trkpt><trkpt lat="45.94670219412389" lon="11.013938163221956"><ele>963.0</ele><time>2026-03-29T08:19:23Z</time></trkpt><trkpt lat="45.94683457227644" lon="11.014076587267038"><ele>963.0</ele><time>2026-03-29T08:19:24Z</time></trkpt><trkpt lat="45.9469618958205" lon="11.014218818969006"><ele>963.3333333333333</ele><time>2026-03-29T08:19:25Z</time></trkpt><trkpt lat="45.947124708167706" lon="11.01437348115271"><ele>963.6666666666666</ele><time>2026-03-29T08:19:26Z</time></trkpt><trkpt lat="45.94728729746881" lon="11.014488955100413"><ele>964.0</ele><time>2026-03-29T08:19:27Z</time></trkpt><trkpt lat="45.947384082544836" lon="11.014637701906171"><ele>964.0</ele><time>2026-03-29T08:19:28Z</time></trkpt><trkpt lat="45.947449431493915" lon="11.014794716799345"><ele>964.0</ele><time>2026-03-29T08:19:29Z</time></trkpt><trkpt lat="45.94753344204922" lon="11.015007469805843"><ele>964.0</ele><time>2026-03-29T08:19:30Z</time></trkpt><trkpt lat="45.94764139966469" lon="11.015216483583322"><ele>962.25</ele><time>2026-03-29T08:19:31Z</time></trkpt><trkpt lat="45.94770177474833" lon="11.015423192373664"><ele>960.5</ele><time>2026-03-29T08:19:32Z</time></trkpt><trkpt lat="45.94778267942612" lon="11.01557818595108"><ele>958.75</ele><time>2026-03-29T08:19:33Z</time></trkpt><trkpt lat="45.94785138199183" lon="11.015707443275282"><ele>957.0</ele><time>2026-03-29T08:19:34Z</time></trkpt><trkpt lat="45.947954139129195" lon="11.015782130799833"><ele>953.25</ele><time>2026-03-29T08:19:35Z</time></trkpt><trkpt lat="45.94806677307533" lon="11.01582290010704"><ele>949.5</ele><time>2026-03-29T08:19:36Z</time></trkpt><trkpt lat="45.948169681272496" lon="11.015882394529042"><ele>945.75</ele><time>2026-03-29T08:19:37Z</time></trkpt><trkpt lat="45.948239407080095" lon="11.016036711240107"><ele>942.0</ele><time>2026-03-29T08:19:38Z</time></trkpt><trkpt lat="45.94829881093546" lon="11.01621371097369"><ele>942.0</ele><time>2026-03-29T08:19:39Z</time></trkpt><trkpt lat="45.94835534065617" lon="11.016444509290636"><ele>942.0</ele><time>2026-03-29T08:19:40Z</time></trkpt><trkpt lat="45.94841908328022" lon="11.016699906565385"><ele>942.0</ele><time>2026-03-29T08:19:41Z</time></trkpt><trkpt lat="45.94850296862124" lon="11.016953597814421"><ele>938.0</ele><time>2026-03-29T08:19:42Z</time></trkpt><trkpt lat="45.94861476681011" lon="11.01727299167728"><ele>934.0</ele><time>2026-03-29T08:19:43Z</time></trkpt><trkpt lat="45.948728858793764" lon="11.017592317766782"><ele>933.3333333333333</ele><time>2026-03-29T08:19:44Z</time></trkpt><trkpt lat="45.948815122194375" lon="11.017852966256319"><ele>932.6666666666667</ele><time>2026-03-29T08:19:45Z</time></trkpt><trkpt lat="45.948888210330004" lon="11.01809303681953"><ele>932.0</ele><time>2026-03-29T08:19:46Z</time></trkpt><trkpt lat="45.948949453905996" lon="11.018307185837342"><ele>933.0</ele><time>2026-03-29T08:19:47Z</time></trkpt><trkpt lat="45.94901813988827" lon="11.018537532548589"><ele>934.0</ele><time>2026-03-29T08:19:48Z</time></trkpt><trkpt lat="45.94908410541896" lon="11.018717580923242"><ele>935.0</ele><time>2026-03-29T08:19:49Z</time></trkpt><trkpt lat="45.94914940773852" lon="11.018891515279476"><ele>935.0</ele><time>2026-03-29T08:19:50Z</time></trkpt><trkpt lat="45.94920414441066" lon="11.01908902044911"><ele>935.0</ele><time>2026-03-29T08:19:51Z</time></trkpt><trkpt lat="45.94925418974127" lon="11.01928723655506"><ele>935.0</ele><time>2026-03-29T08:19:52Z</time></trkpt><trkpt lat="45.949281828361414" lon="11.019479465727345"><ele>935.0</ele><time>2026-03-29T08:19:53Z</time></trkpt><trkpt lat="45.94933480653579" lon="11.019639809181275"><ele>932.5</ele><time>2026-03-29T08:19:54Z</time></trkpt><trkpt lat="45.949413138791215" lon="11.019790991706667"><ele>930.0</ele><time>2026-03-29T08:19:55Z</time></trkpt><trkpt lat="45.94951696911749" lon="11.019922309005239"><ele>927.5</ele><time>2026-03-29T08:19:56Z</time></trkpt><trkpt lat="45.94960799157077" lon="11.020052065313537"><ele>925.0</ele><time>2026-03-29T08:19:57Z</time></trkpt><trkpt lat="45.94968288394924" lon="11.020195686029815"><ele>925.0</ele><time>2026-03-29T08:19:58Z</time></trkpt><trkpt lat="45.94974790564629" lon="11.020321020931945"><ele>925.0</ele><time>2026-03-29T08:19:59Z</time></trkpt><trkpt lat="45.94983996949811" lon="11.02042902215301"><ele>925.0</ele><time>2026-03-29T08:20:00Z</time></trkpt><trkpt lat="45.94992910742235" lon="11.020551570940231"><ele>925.0</ele><time>2026-03-29T08:20:01Z</time></trkpt><trkpt lat="45.9499961692982" lon="11.02071978827448"><ele>925.0</ele><time>2026-03-29T08:20:02Z</time></trkpt><trkpt lat="45.950014339144836" lon="11.020932755877707"><ele>925.0</ele><time>2026-03-29T08:20:03Z</time></trkpt><trkpt lat="45.95007073776391" lon="11.02115976438401"><ele>925.0</ele><time>2026-03-29T08:20:04Z</time></trkpt><trkpt lat="45.950146949719496" lon="11.021406990695388"><ele>925.0</ele><time>2026-03-29T08:20:05Z</time></trkpt><trkpt lat="45.95021746860731" lon="11.021631912911284"><ele>925.0</ele><time>2026-03-29T08:20:06Z</time></trkpt><trkpt lat="45.95028465803525" lon="11.021867407429587"><ele>925.0</ele><time>2026-03-29T08:20:07Z</time></trkpt><trkpt lat="45.9503958342273" lon="11.02208461552438"><ele>925.6666666666666</ele><time>2026-03-29T08:20:08Z</time></trkpt><trkpt lat="45.95053064618561" lon="11.022280060109384"><ele>926.3333333333333</ele><time>2026-03-29T08:20:09Z</time></trkpt><trkpt lat="45.95065137072619" lon="11.022447668838696"><ele>927.0</ele><time>2026-03-29T08:20:10Z</time></trkpt><trkpt lat="45.95074681574613" lon="11.022598008882465"><ele>927.0</ele><time>2026-03-29T08:20:11Z</time></trkpt><trkpt lat="45.95085740650105" lon="11.022745943671744"><ele>927.0</ele><time>2026-03-29T08:20:12Z</time></trkpt><trkpt lat="45.950968301668226" lon="11.022902181176228"><ele>927.0</ele><time>2026-03-29T08:20:13Z</time></trkpt><trkpt lat="45.95107095718304" lon="11.023071033432608"><ele>930.6666666666667</ele><time>2026-03-29T08:20:14Z</time></trkpt><trkpt lat="45.951161290373236" lon="11.023266788126675"><ele>934.3333333333334</ele><time>2026-03-29T08:20:15Z</time></trkpt><trkpt lat="45.951247875562565" lon="11.023486741245849"><ele>938.0</ele><time>2026-03-29T08:20:16Z</time></trkpt><trkpt lat="45.95134418755824" lon="11.02372423744575"><ele>938.3333333333334</ele><time>2026-03-29T08:20:17Z</time></trkpt><trkpt lat="45.95144415227099" lon="11.0239601602036"><ele>938.6666666666667</ele><time>2026-03-29T08:20:18Z</time></trkpt><trkpt lat="45.95152549220152" lon="11.024161906496632"><ele>939.0</ele><time>2026-03-29T08:20:19Z</time></trkpt><trkpt lat="45.951601350685316" lon="11.024337101311817"><ele>940.6666666666667</ele><time>2026-03-29T08:20:20Z</time></trkpt><trkpt lat="45.95169762665564" lon="11.02449207896007"><ele>942.3333333333334</ele><time>2026-03-29T08:20:21Z</time></trkpt><trkpt lat="45.95183742326449" lon="11.024629271499474"><ele>944.0</ele><time>2026-03-29T08:20:22Z</time></trkpt><trkpt lat="45.9520020392026" lon="11.024756077388501"><ele>944.0</ele><time>2026-03-29T08:20:23Z</time></trkpt><trkpt lat="45.95214315365969" lon="11.02492068933477"><ele>944.0</ele><time>2026-03-29T08:20:24Z</time></trkpt><trkpt lat="45.95225146135961" lon="11.025094587030024"><ele>944.0</ele><time>2026-03-29T08:20:25Z</time></trkpt><trkpt lat="45.95234363192462" lon="11.025264831009054"><ele>941.3333333333334</ele><time>2026-03-29T08:20:26Z</time></trkpt><trkpt lat="45.95245511921421" lon="11.02534245633061"><ele>938.6666666666667</ele><time>2026-03-29T08:20:27Z</time></trkpt><trkpt lat="45.952607249935284" lon="11.025398784393705"><ele>936.0</ele><time>2026-03-29T08:20:28Z</time></trkpt><trkpt lat="45.95278280048516" lon="11.025436732340532"><ele>936.0</ele><time>2026-03-29T08:20:29Z</time></trkpt><trkpt lat="45.952938595433295" lon="11.025579962404306"><ele>936.0</ele><time>2026-03-29T08:20:30Z</time></trkpt><trkpt lat="45.953090577018195" lon="11.02574952537821"><ele>936.0</ele><time>2026-03-29T08:20:31Z</time></trkpt><trkpt lat="45.953274600783125" lon="11.025901842436966"><ele>934.0</ele><time>2026-03-29T08:20:32Z</time></trkpt><trkpt lat="45.953459373687615" lon="11.026088449689476"><ele>932.0</ele><time>2026-03-29T08:20:33Z</time></trkpt><trkpt lat="45.953619716445296" lon="11.02625727806307"><ele>930.0</ele><time>2026-03-29T08:20:34Z</time></trkpt><trkpt lat="45.95377645620201" lon="11.026441475357975"><ele>929.0</ele><time>2026-03-29T08:20:35Z</time></trkpt><trkpt lat="45.9539363470985" lon="11.026645670043637"><ele>928.0</ele><time>2026-03-29T08:20:36Z</time></trkpt><trkpt lat="45.9540879402802" lon="11.026829623560053"><ele>927.0</ele><time>2026-03-29T08:20:37Z</time></trkpt><trkpt lat="45.95422106402012" lon="11.02701947797391"><ele>924.6666666666667</ele><time>2026-03-29T08:20:38Z</time></trkpt><trkpt lat="45.95435249805278" lon="11.027261080040592"><ele>922.3333333333334</ele><time>2026-03-29T08:20:39Z</time></trkpt><trkpt lat="45.954483022365885" lon="11.027519398222362"><ele>920.0</ele><time>2026-03-29T08:20:40Z</time></trkpt><trkpt lat="45.95461269749259" lon="11.027765961382958"><ele>919.3333333333334</ele><time>2026-03-29T08:20:41Z</time></trkpt><trkpt lat="45.954742844340004" lon="11.02796856696175"><ele>918.6666666666667</ele><time>2026-03-29T08:20:42Z</time></trkpt><trkpt lat="45.95485519046481" lon="11.028190369758809"><ele>918.0</ele><time>2026-03-29T08:20:43Z</time></trkpt><trkpt lat="45.95498183841043" lon="11.028404377382257"><ele>915.3333333333333</ele><time>2026-03-29T08:20:44Z</time></trkpt><trkpt lat="45.95510190361972" lon="11.028616809447435"><ele>912.6666666666666</ele><time>2026-03-29T08:20:45Z</time></trkpt><trkpt lat="45.95523720375956" lon="11.028835816043586"><ele>910.0</ele><time>2026-03-29T08:20:46Z</time></trkpt><trkpt lat="45.95536781554753" lon="11.029060677634863"><ele>910.3333333333333</ele><time>2026-03-29T08:20:47Z</time></trkpt><trkpt lat="45.95550233999438" lon="11.029289253216799"><ele>910.6666666666667</ele><time>2026-03-29T08:20:48Z</time></trkpt><trkpt lat="45.95564133970343" lon="11.029507211047287"><ele>911.0</ele><time>2026-03-29T08:20:49Z</time></trkpt><trkpt lat="45.955795090891904" lon="11.029734132516772"><ele>908.6666666666667</ele><time>2026-03-29T08:20:50Z</time></trkpt><trkpt lat="45.95594450202701" lon="11.02995726217478"><ele>906.3333333333333</ele><time>2026-03-29T08:20:51Z</time></trkpt><trkpt lat="45.95610191953679" lon="11.030190839812457"><ele>904.0</ele><time>2026-03-29T08:20:52Z</time></trkpt><trkpt lat="45.95626769859857" lon="11.030421101321755"><ele>904.0</ele><time>2026-03-29T08:20:53Z</time></trkpt><trkpt lat="45.956423573038784" lon="11.030643830248454"><ele>904.0</ele><time>2026-03-29T08:20:54Z</time></trkpt><trkpt lat="45.95656297562722" lon="11.030859858794647"><ele>904.0</ele><time>2026-03-29T08:20:55Z</time></trkpt><trkpt lat="45.95670445595908" lon="11.03106363210221"><ele>904.3333333333333</ele><time>2026-03-29T08:20:56Z</time></trkpt><trkpt lat="45.956846822418505" lon="11.031278631082087"><ele>904.6666666666667</ele><time>2026-03-29T08:20:57Z</time></trkpt><trkpt lat="45.95699143744531" lon="11.031488042096141"><ele>905.0</ele><time>2026-03-29T08:20:58Z</time></trkpt><trkpt lat="45.95713744105577" lon="11.031685458496895"><ele>904.0</ele><time>2026-03-29T08:20:59Z</time></trkpt><trkpt lat="45.957264404910724" lon="11.03187279239645"><ele>903.0</ele><time>2026-03-29T08:21:00Z</time></trkpt><trkpt lat="45.95737975005227" lon="11.032043579180103"><ele>902.0</ele><time>2026-03-29T08:21:01Z</time></trkpt><trkpt lat="45.957467815166005" lon="11.032183780732694"><ele>902.0</ele><time>2026-03-29T08:21:02Z</time></trkpt><trkpt lat="45.957526660197495" lon="11.032314091355277"><ele>902.0</ele><time>2026-03-29T08:21:03Z</time></trkpt><trkpt lat="45.95756982754774" lon="11.03246143559783"><ele>902.0</ele><time>2026-03-29T08:21:04Z</time></trkpt><trkpt lat="45.95751914399591" lon="11.03262245669614"><ele>902.0</ele><time>2026-03-29T08:21:05Z</time></trkpt><trkpt lat="45.95747901778711" lon="11.032801423614032"><ele>901.3333333333334</ele><time>2026-03-29T08:21:06Z</time></trkpt><trkpt lat="45.95742436408345" lon="11.03301725512465"><ele>900.6666666666667</ele><time>2026-03-29T08:21:07Z</time></trkpt><trkpt lat="45.9573687362756" lon="11.03325221402952"><ele>900.0</ele><time>2026-03-29T08:21:08Z</time></trkpt><trkpt lat="45.95733173296784" lon="11.033471854046772"><ele>900.0</ele><time>2026-03-29T08:21:09Z</time></trkpt><trkpt lat="45.957299364886815" lon="11.033656209931113"><ele>900.0</ele><time>2026-03-29T08:21:10Z</time></trkpt><trkpt lat="45.95731137094213" lon="11.033868159637345"><ele>900.0</ele><time>2026-03-29T08:21:11Z</time></trkpt><trkpt lat="45.957370010393966" lon="11.034057093751386"><ele>900.0</ele><time>2026-03-29T08:21:12Z</time></trkpt><trkpt lat="45.957435917448215" lon="11.034274102112702"><ele>896.6666666666667</ele><time>2026-03-29T08:21:13Z</time></trkpt><trkpt lat="45.957537321723635" lon="11.034496849663403"><ele>893.3333333333334</ele><time>2026-03-29T08:21:14Z</time></trkpt><trkpt lat="45.957631333535865" lon="11.034758700229302"><ele>890.0</ele><time>2026-03-29T08:21:15Z</time></trkpt><trkpt lat="45.95772442996062" lon="11.035011184170651"><ele>890.0</ele><time>2026-03-29T08:21:16Z</time></trkpt><trkpt lat="45.957796507155734" lon="11.035225928023923"><ele>890.0</ele><time>2026-03-29T08:21:17Z</time></trkpt><trkpt lat="45.95783708705439" lon="11.03546193055698"><ele>890.0</ele><time>2026-03-29T08:21:18Z</time></trkpt><trkpt lat="45.9578560802465" lon="11.035735703265235"><ele>890.3333333333334</ele><time>2026-03-29T08:21:19Z</time></trkpt><trkpt lat="45.9578741397512" lon="11.036037868550343"><ele>890.6666666666667</ele><time>2026-03-29T08:21:20Z</time></trkpt><trkpt lat="45.957892131090745" lon="11.036323608374914"><ele>891.0</ele><time>2026-03-29T08:21:21Z</time></trkpt><trkpt lat="45.95791935894427" lon="11.036580786787965"><ele>891.6666666666667</ele><time>2026-03-29T08:21:22Z</time></trkpt><trkpt lat="45.95801014558158" lon="11.036826843452662"><ele>892.3333333333334</ele><time>2026-03-29T08:21:23Z</time></trkpt><trkpt lat="45.95809934367018" lon="11.037094704854576"><ele>893.0</ele><time>2026-03-29T08:21:24Z</time></trkpt><trkpt lat="45.95821375952768" lon="11.03736012875473"><ele>896.0</ele><time>2026-03-29T08:21:25Z</time></trkpt><trkpt lat="45.95831416666559" lon="11.037660820751833"><ele>899.0</ele><time>2026-03-29T08:21:26Z</time></trkpt><trkpt lat="45.95842801145025" lon="11.037951204416473"><ele>894.6666666666667</ele><time>2026-03-29T08:21:27Z</time></trkpt><trkpt lat="45.958520048270096" lon="11.038216152333522"><ele>890.3333333333333</ele><time>2026-03-29T08:21:28Z</time></trkpt><trkpt lat="45.958626403012666" lon="11.038479041011977"><ele>886.0</ele><time>2026-03-29T08:21:29Z</time></trkpt><trkpt lat="45.958763504939675" lon="11.038719222975512"><ele>885.3333333333333</ele><time>2026-03-29T08:21:30Z</time></trkpt><trkpt lat="45.958885337451655" lon="11.038946682765314"><ele>884.6666666666667</ele><time>2026-03-29T08:21:31Z</time></trkpt><trkpt lat="45.95899590816901" lon="11.039172703923287"><ele>884.0</ele><time>2026-03-29T08:21:32Z</time></trkpt><trkpt lat="45.95909707236256" lon="11.03941857327572"><ele>882.6666666666667</ele><time>2026-03-29T08:21:33Z</time></trkpt><trkpt lat="45.959189898725405" lon="11.039675825507235"><ele>881.3333333333333</ele><time>2026-03-29T08:21:34Z</time></trkpt><trkpt lat="45.95928262392548" lon="11.039944698427117"><ele>880.0</ele><time>2026-03-29T08:21:35Z</time></trkpt><trkpt lat="45.95938259354441" lon="11.040225012692268"><ele>879.6666666666666</ele><time>2026-03-29T08:21:36Z</time></trkpt><trkpt lat="45.959470206196265" lon="11.040477165185862"><ele>879.3333333333333</ele><time>2026-03-29T08:21:37Z</time></trkpt><trkpt lat="45.95954836556109" lon="11.040712656112081"><ele>879.0</ele><time>2026-03-29T08:21:38Z</time></trkpt><trkpt lat="45.959638310204724" lon="11.040944345478241"><ele>879.0</ele><time>2026-03-29T08:21:39Z</time></trkpt><trkpt lat="45.95972437264397" lon="11.041189665610677"><ele>879.0</ele><time>2026-03-29T08:21:40Z</time></trkpt><trkpt lat="45.959799173603244" lon="11.041408820783301"><ele>879.0</ele><time>2026-03-29T08:21:41Z</time></trkpt><trkpt lat="45.95989300145408" lon="11.041626526682478"><ele>876.6666666666667</ele><time>2026-03-29T08:21:42Z</time></trkpt><trkpt lat="45.96000246349205" lon="11.04184843053701"><ele>874.3333333333334</ele><time>2026-03-29T08:21:43Z</time></trkpt><trkpt lat="45.96015832829176" lon="11.042028088520526"><ele>872.0</ele><time>2026-03-29T08:21:44Z</time></trkpt><trkpt lat="45.96031867834962" lon="11.04221738947242"><ele>872.0</ele><time>2026-03-29T08:21:45Z</time></trkpt><trkpt lat="45.960486493238825" lon="11.042421257564994"><ele>872.0</ele><time>2026-03-29T08:21:46Z</time></trkpt><trkpt lat="45.96064853453918" lon="11.042613232462925"><ele>872.0</ele><time>2026-03-29T08:21:47Z</time></trkpt><trkpt lat="45.96079634253229" lon="11.042791577127883"><ele>874.0</ele><time>2026-03-29T08:21:48Z</time></trkpt><trkpt lat="45.96093131067215" lon="11.042979437261192"><ele>876.0</ele><time>2026-03-29T08:21:49Z</time></trkpt><trkpt lat="45.96105401408147" lon="11.043199460707546"><ele>878.0</ele><time>2026-03-29T08:21:50Z</time></trkpt><trkpt lat="45.96117009433003" lon="11.043422485790257"><ele>878.0</ele><time>2026-03-29T08:21:51Z</time></trkpt><trkpt lat="45.96127266840877" lon="11.043669605987661"><ele>878.0</ele><time>2026-03-29T08:21:52Z</time></trkpt><trkpt lat="45.96136827099664" lon="11.04394090956136"><ele>878.0</ele><time>2026-03-29T08:21:53Z</time></trkpt><trkpt lat="45.96145851059328" lon="11.0442361783112"><ele>873.5</ele><time>2026-03-29T08:21:54Z</time></trkpt><trkpt lat="45.96154449586092" lon="11.044548975742607"><ele>869.0</ele><time>2026-03-29T08:21:55Z</time></trkpt><trkpt lat="45.96163936568981" lon="11.04485711629"><ele>865.6666666666667</ele><time>2026-03-29T08:21:56Z</time></trkpt><trkpt lat="45.96171739678806" lon="11.045125659325041"><ele>862.3333333333333</ele><time>2026-03-29T08:21:57Z</time></trkpt><trkpt lat="45.9617919284003" lon="11.045379352136784"><ele>859.0</ele><time>2026-03-29T08:21:58Z</time></trkpt><trkpt lat="45.96188365095046" lon="11.045614776631448"><ele>855.6666666666666</ele><time>2026-03-29T08:21:59Z</time></trkpt><trkpt lat="45.9620044945263" lon="11.04583264527045"><ele>852.3333333333333</ele><time>2026-03-29T08:22:00Z</time></trkpt><trkpt lat="45.96213960423884" lon="11.046050448024062"><ele>849.0</ele><time>2026-03-29T08:22:01Z</time></trkpt><trkpt lat="45.962268189084305" lon="11.046282570612117"><ele>849.0</ele><time>2026-03-29T08:22:02Z</time></trkpt><trkpt lat="45.96240540217273" lon="11.046510425737425"><ele>849.0</ele><time>2026-03-29T08:22:03Z</time></trkpt><trkpt lat="45.96254223581686" lon="11.046745462022965"><ele>849.0</ele><time>2026-03-29T08:22:04Z</time></trkpt><trkpt lat="45.9626806060087" lon="11.04698822040027"><ele>846.3333333333333</ele><time>2026-03-29T08:22:05Z</time></trkpt><trkpt lat="45.96280061615679" lon="11.047196813092118"><ele>843.6666666666666</ele><time>2026-03-29T08:22:06Z</time></trkpt><trkpt lat="45.96293012927248" lon="11.047384014259952"><ele>841.0</ele><time>2026-03-29T08:22:07Z</time></trkpt><trkpt lat="45.96304175552362" lon="11.047592004435117"><ele>841.0</ele><time>2026-03-29T08:22:08Z</time></trkpt><trkpt lat="45.9631640658407" lon="11.047800192159475"><ele>841.0</ele><time>2026-03-29T08:22:09Z</time></trkpt><trkpt lat="45.96326920738458" lon="11.048049556842667"><ele>841.0</ele><time>2026-03-29T08:22:10Z</time></trkpt><trkpt lat="45.9633649207046" lon="11.048313003909087"><ele>833.6666666666666</ele><time>2026-03-29T08:22:11Z</time></trkpt><trkpt lat="45.96345985049099" lon="11.048590661277826"><ele>826.3333333333333</ele><time>2026-03-29T08:22:12Z</time></trkpt><trkpt lat="45.96355627884949" lon="11.048879107231926"><ele>819.0</ele><time>2026-03-29T08:22:13Z</time></trkpt><trkpt lat="45.96364888195358" lon="11.049164903102609"><ele>818.3333333333333</ele><time>2026-03-29T08:22:14Z</time></trkpt><trkpt lat="45.96373401321629" lon="11.049425166710346"><ele>817.6666666666666</ele><time>2026-03-29T08:22:15Z</time></trkpt><trkpt lat="45.963814773317516" lon="11.049657802705818"><ele>817.0</ele><time>2026-03-29T08:22:16Z</time></trkpt><trkpt lat="45.963900114886556" lon="11.04986348893587"><ele>819.3333333333333</ele><time>2026-03-29T08:22:17Z</time></trkpt><trkpt lat="45.96401440919277" lon="11.050042404362982"><ele>821.6666666666667</ele><time>2026-03-29T08:22:18Z</time></trkpt><trkpt lat="45.964163970910526" lon="11.050215388407368"><ele>824.0</ele><time>2026-03-29T08:22:19Z</time></trkpt><trkpt lat="45.96431463150924" lon="11.050412694213168"><ele>818.3333333333334</ele><time>2026-03-29T08:22:20Z</time></trkpt><trkpt lat="45.96445518011129" lon="11.05065049895168"><ele>812.6666666666667</ele><time>2026-03-29T08:22:21Z</time></trkpt><trkpt lat="45.964601867535436" lon="11.050908547284047"><ele>807.0</ele><time>2026-03-29T08:22:22Z</time></trkpt><trkpt lat="45.96475266919282" lon="11.051155401476837"><ele>807.0</ele><time>2026-03-29T08:22:23Z</time></trkpt><trkpt lat="45.964897851353285" lon="11.05139846004623"><ele>807.0</ele><time>2026-03-29T08:22:24Z</time></trkpt><trkpt lat="45.96504692599086" lon="11.05165681722185"><ele>798.6666666666667</ele><time>2026-03-29T08:22:25Z</time></trkpt><trkpt lat="45.96519485313666" lon="11.051895101794596"><ele>790.3333333333334</ele><time>2026-03-29T08:22:26Z</time></trkpt><trkpt lat="45.96532911743046" lon="11.052126095984278"><ele>782.0</ele><time>2026-03-29T08:22:27Z</time></trkpt><trkpt lat="45.96547069740158" lon="11.052366238949539"><ele>785.3333333333334</ele><time>2026-03-29T08:22:28Z</time></trkpt><trkpt lat="45.96561752301597" lon="11.052613593739137"><ele>788.6666666666667</ele><time>2026-03-29T08:22:29Z</time></trkpt><trkpt lat="45.96576289339515" lon="11.052856385670456"><ele>792.0</ele><time>2026-03-29T08:22:30Z</time></trkpt><trkpt lat="45.96590608540722" lon="11.053100681106937"><ele>780.0</ele><time>2026-03-29T08:22:31Z</time></trkpt><trkpt lat="45.96604860722603" lon="11.053356327140856"><ele>768.0</ele><time>2026-03-29T08:22:32Z</time></trkpt><trkpt lat="45.966186962259314" lon="11.053609503666207"><ele>768.0</ele><time>2026-03-29T08:22:33Z</time></trkpt><trkpt lat="45.966306610339174" lon="11.053851449597474"><ele>768.0</ele><time>2026-03-29T08:22:34Z</time></trkpt><trkpt lat="45.96642280165759" lon="11.054119074503836"><ele>768.0</ele><time>2026-03-29T08:22:35Z</time></trkpt><trkpt lat="45.96654931332906" lon="11.054378122361534"><ele>772.6666666666667</ele><time>2026-03-29T08:22:36Z</time></trkpt><trkpt lat="45.966674411433566" lon="11.054637352084637"><ele>777.3333333333334</ele><time>2026-03-29T08:22:37Z</time></trkpt><trkpt lat="45.966801056725295" lon="11.054874764944111"><ele>782.0</ele><time>2026-03-29T08:22:38Z</time></trkpt><trkpt lat="45.966933664768554" lon="11.055088188435342"><ele>772.6666666666667</ele><time>2026-03-29T08:22:39Z</time></trkpt><trkpt lat="45.96706062297984" lon="11.055298816508403"><ele>763.3333333333334</ele><time>2026-03-29T08:22:40Z</time></trkpt><trkpt lat="45.96717000017281" lon="11.055493669673304"><ele>754.0</ele><time>2026-03-29T08:22:41Z</time></trkpt><trkpt lat="45.96728788993223" lon="11.055685864302703"><ele>757.3333333333334</ele><time>2026-03-29T08:22:42Z</time></trkpt><trkpt lat="45.96741039651888" lon="11.055876668467679"><ele>760.6666666666666</ele><time>2026-03-29T08:22:43Z</time></trkpt><trkpt lat="45.96753761923238" lon="11.05607462492817"><ele>764.0</ele><time>2026-03-29T08:22:44Z</time></trkpt><trkpt lat="45.96767961452511" lon="11.056254414107157"><ele>757.6666666666666</ele><time>2026-03-29T08:22:45Z</time></trkpt><trkpt lat="45.96781880618783" lon="11.056429241805331"><ele>751.3333333333334</ele><time>2026-03-29T08:22:46Z</time></trkpt><trkpt lat="45.96794518729707" lon="11.056603985407058"><ele>745.0</ele><time>2026-03-29T08:22:47Z</time></trkpt><trkpt lat="45.96804998972673" lon="11.056783452869698"><ele>745.0</ele><time>2026-03-29T08:22:48Z</time></trkpt><trkpt lat="45.968147627596196" lon="11.056964035927322"><ele>745.0</ele><time>2026-03-29T08:22:49Z</time></trkpt><trkpt lat="45.96825739641168" lon="11.05713971119925"><ele>745.0</ele><time>2026-03-29T08:22:50Z</time></trkpt><trkpt lat="45.96839690205483" lon="11.057282769016293"><ele>740.3333333333334</ele><time>2026-03-29T08:22:51Z</time></trkpt><trkpt lat="45.96854724091012" lon="11.057421746039747"><ele>735.6666666666666</ele><time>2026-03-29T08:22:52Z</time></trkpt><trkpt lat="45.96870970873553" lon="11.057556956237297"><ele>731.0</ele><time>2026-03-29T08:22:53Z</time></trkpt><trkpt lat="45.968875640762214" lon="11.057705427317934"><ele>731.0</ele><time>2026-03-29T08:22:54Z</time></trkpt><trkpt lat="45.969025690195714" lon="11.057833853633683"><ele>731.0</ele><time>2026-03-29T08:22:55Z</time></trkpt><trkpt lat="45.96918752485946" lon="11.05797786120656"><ele>731.0</ele><time>2026-03-29T08:22:56Z</time></trkpt><trkpt lat="45.96931572649052" lon="11.058102114118068"><ele>727.0</ele><time>2026-03-29T08:22:57Z</time></trkpt><trkpt lat="45.969441052188955" lon="11.058229263532715"><ele>723.0</ele><time>2026-03-29T08:22:58Z</time></trkpt><trkpt lat="45.9695560663744" lon="11.058377180244797"><ele>719.0</ele><time>2026-03-29T08:22:59Z</time></trkpt><trkpt lat="45.96967083167115" lon="11.058565011628627"><ele>719.0</ele><time>2026-03-29T08:23:00Z</time></trkpt><trkpt lat="45.969786863480394" lon="11.058757342952083"><ele>719.0</ele><time>2026-03-29T08:23:01Z</time></trkpt><trkpt lat="45.969909337561454" lon="11.058945263897176"><ele>719.0</ele><time>2026-03-29T08:23:02Z</time></trkpt><trkpt lat="45.97003403052614" lon="11.059133438824096"><ele>711.0</ele><time>2026-03-29T08:23:03Z</time></trkpt><trkpt lat="45.97016528550592" lon="11.05931756482517"><ele>703.0</ele><time>2026-03-29T08:23:04Z</time></trkpt><trkpt lat="45.97029623085407" lon="11.059505797354939"><ele>695.0</ele><time>2026-03-29T08:23:05Z</time></trkpt><trkpt lat="45.97043372870519" lon="11.059681691086462"><ele>695.0</ele><time>2026-03-29T08:23:06Z</time></trkpt><trkpt lat="45.970558544541795" lon="11.059851518505587"><ele>695.0</ele><time>2026-03-29T08:23:07Z</time></trkpt><trkpt lat="45.970673984286336" lon="11.06001157775731"><ele>695.0</ele><time>2026-03-29T08:23:08Z</time></trkpt><trkpt lat="45.970772069818295" lon="11.060175345980893"><ele>687.6666666666666</ele><time>2026-03-29T08:23:09Z</time></trkpt><trkpt lat="45.970859689687494" lon="11.060362327632356"><ele>680.3333333333334</ele><time>2026-03-29T08:23:10Z</time></trkpt><trkpt lat="45.97096606033668" lon="11.060558853144958"><ele>673.0</ele><time>2026-03-29T08:23:11Z</time></trkpt><trkpt lat="45.97106154544438" lon="11.060755819019864"><ele>677.0</ele><time>2026-03-29T08:23:12Z</time></trkpt><trkpt lat="45.97115874630322" lon="11.060965668873843"><ele>681.0</ele><time>2026-03-29T08:23:13Z</time></trkpt><trkpt lat="45.971262567876884" lon="11.061164933829819"><ele>685.0</ele><time>2026-03-29T08:23:14Z</time></trkpt><trkpt lat="45.97136688162933" lon="11.061343490875718"><ele>685.0</ele><time>2026-03-29T08:23:15Z</time></trkpt><trkpt lat="45.971488463194554" lon="11.06152735688591"><ele>685.0</ele><time>2026-03-29T08:23:16Z</time></trkpt><trkpt lat="45.97161042352285" lon="11.061713985964246"><ele>685.0</ele><time>2026-03-29T08:23:17Z</time></trkpt><trkpt lat="45.9717230792682" lon="11.06190308679735"><ele>683.6666666666667</ele><time>2026-03-29T08:23:18Z</time></trkpt><trkpt lat="45.97182890361475" lon="11.062079305293357"><ele>682.3333333333334</ele><time>2026-03-29T08:23:19Z</time></trkpt><trkpt lat="45.9719264571976" lon="11.062262836279135"><ele>681.0</ele><time>2026-03-29T08:23:20Z</time></trkpt><trkpt lat="45.972020312299314" lon="11.062455584197934"><ele>681.0</ele><time>2026-03-29T08:23:21Z</time></trkpt><trkpt lat="45.97210133420413" lon="11.062623965224764"><ele>681.0</ele><time>2026-03-29T08:23:22Z</time></trkpt><trkpt lat="45.972188878366325" lon="11.062789837515451"><ele>681.0</ele><time>2026-03-29T08:23:23Z</time></trkpt><trkpt lat="45.97225578888699" lon="11.062937335029526"><ele>681.0</ele><time>2026-03-29T08:23:24Z</time></trkpt><trkpt lat="45.97233393739329" lon="11.063057636322233"><ele>681.0</ele><time>2026-03-29T08:23:25Z</time></trkpt><trkpt lat="45.972424385574946" lon="11.063137773705845"><ele>681.0</ele><time>2026-03-29T08:23:26Z</time></trkpt><trkpt lat="45.97252580680347" lon="11.063158584500538"><ele>681.0</ele><time>2026-03-29T08:23:27Z</time></trkpt><trkpt lat="45.9726369735485" lon="11.06312234214005"><ele>681.0</ele><time>2026-03-29T08:23:28Z</time></trkpt><trkpt lat="45.97273255898841" lon="11.063039871227053"><ele>681.0</ele><time>2026-03-29T08:23:29Z</time></trkpt><trkpt lat="45.97279182714252" lon="11.062930169186163"><ele>674.0</ele><time>2026-03-29T08:23:30Z</time></trkpt><trkpt lat="45.972838630918744" lon="11.062800494949899"><ele>667.0</ele><time>2026-03-29T08:23:31Z</time></trkpt><trkpt lat="45.97286304945913" lon="11.062651328906549"><ele>660.0</ele><time>2026-03-29T08:23:32Z</time></trkpt><trkpt lat="45.97285509328541" lon="11.062490168489614"><ele>653.0</ele><time>2026-03-29T08:23:33Z</time></trkpt><trkpt lat="45.97281883092305" lon="11.062333572760869"><ele>646.0</ele><time>2026-03-29T08:23:34Z</time></trkpt><trkpt lat="45.972749619477696" lon="11.06217599147866"><ele>649.0</ele><time>2026-03-29T08:23:35Z</time></trkpt><trkpt lat="45.97266167946608" lon="11.062000798348237"><ele>652.0</ele><time>2026-03-29T08:23:36Z</time></trkpt><trkpt lat="45.97258080032928" lon="11.061779376751097"><ele>655.0</ele><time>2026-03-29T08:23:37Z</time></trkpt><trkpt lat="45.97248137815582" lon="11.061542933094538"><ele>655.0</ele><time>2026-03-29T08:23:38Z</time></trkpt><trkpt lat="45.97237344201593" lon="11.061288222534927"><ele>655.0</ele><time>2026-03-29T08:23:39Z</time></trkpt><trkpt lat="45.97227027931618" lon="11.06104984490919"><ele>655.0</ele><time>2026-03-29T08:23:40Z</time></trkpt><trkpt lat="45.97217552397749" lon="11.060832505627031"><ele>650.0</ele><time>2026-03-29T08:23:41Z</time></trkpt><trkpt lat="45.972105302543" lon="11.060612603093555"><ele>645.0</ele><time>2026-03-29T08:23:42Z</time></trkpt><trkpt lat="45.97203173913243" lon="11.060402378839225"><ele>640.0</ele><time>2026-03-29T08:23:43Z</time></trkpt><trkpt lat="45.97198340824243" lon="11.0601921158918"><ele>636.6666666666667</ele><time>2026-03-29T08:23:44Z</time></trkpt><trkpt lat="45.971939296033334" lon="11.059945592654127"><ele>633.3333333333334</ele><time>2026-03-29T08:23:45Z</time></trkpt><trkpt lat="45.9718950990553" lon="11.059672992602374"><ele>630.0</ele><time>2026-03-29T08:23:46Z</time></trkpt><trkpt lat="45.97184860886088" lon="11.059401489029447"><ele>630.0</ele><time>2026-03-29T08:23:47Z</time></trkpt><trkpt lat="45.97180460607857" lon="11.059146538355987"><ele>630.0</ele><time>2026-03-29T08:23:48Z</time></trkpt><trkpt lat="45.971764483577815" lon="11.058905726129906"><ele>630.0</ele><time>2026-03-29T08:23:49Z</time></trkpt><trkpt lat="45.97172562779045" lon="11.058681662178962"><ele>631.4</ele><time>2026-03-29T08:23:50Z</time></trkpt><trkpt lat="45.97169092385263" lon="11.058487848427662"><ele>632.8</ele><time>2026-03-29T08:23:51Z</time></trkpt><trkpt lat="45.97166639650696" lon="11.05832836113325"><ele>634.2</ele><time>2026-03-29T08:23:52Z</time></trkpt><trkpt lat="45.971659643579876" lon="11.058203073356013"><ele>635.6</ele><time>2026-03-29T08:23:53Z</time></trkpt><trkpt lat="45.971675341909936" lon="11.058104582417355"><ele>637.0</ele><time>2026-03-29T08:23:54Z</time></trkpt><trkpt lat="45.97173411650318" lon="11.058044810576979"><ele>639.0</ele><time>2026-03-29T08:23:55Z</time></trkpt><trkpt lat="45.971798603170456" lon="11.058028749158485"><ele>641.0</ele><time>2026-03-29T08:23:56Z</time></trkpt><trkpt lat="45.971860283221666" lon="11.058061157502197"><ele>643.0</ele><time>2026-03-29T08:23:57Z</time></trkpt><trkpt lat="45.97196966461332" lon="11.058063801498621"><ele>645.0</ele><time>2026-03-29T08:23:58Z</time></trkpt><trkpt lat="45.97209696150436" lon="11.058066141996834"><ele>647.0</ele><time>2026-03-29T08:23:59Z</time></trkpt><trkpt lat="45.972245524348466" lon="11.058068947928923"><ele>647.0</ele><time>2026-03-29T08:24:00Z</time></trkpt><trkpt lat="45.97240680439788" lon="11.058072031483597"><ele>647.0</ele><time>2026-03-29T08:24:01Z</time></trkpt><trkpt lat="45.97256015342922" lon="11.058074167597931"><ele>647.0</ele><time>2026-03-29T08:24:02Z</time></trkpt><trkpt lat="45.97269945053545" lon="11.058075195336746"><ele>646.5</ele><time>2026-03-29T08:24:03Z</time></trkpt><trkpt lat="45.97283609835796" lon="11.058053148793359"><ele>646.0</ele><time>2026-03-29T08:24:04Z</time></trkpt><trkpt lat="45.97295817166726" lon="11.05809293353557"><ele>645.5</ele><time>2026-03-29T08:24:05Z</time></trkpt><trkpt lat="45.97307638027941" lon="11.058147132181228"><ele>645.0</ele><time>2026-03-29T08:24:06Z</time></trkpt><trkpt lat="45.97319264024281" lon="11.058242741627915"><ele>642.2</ele><time>2026-03-29T08:24:07Z</time></trkpt><trkpt lat="45.973296510170876" lon="11.0583611088711"><ele>639.4</ele><time>2026-03-29T08:24:08Z</time></trkpt><trkpt lat="45.9734071393451" lon="11.058447972755678"><ele>636.6</ele><time>2026-03-29T08:24:09Z</time></trkpt><trkpt lat="45.97348128505045" lon="11.058551010356814"><ele>633.8</ele><time>2026-03-29T08:24:10Z</time></trkpt><trkpt lat="45.97354222747414" lon="11.058619297135886"><ele>631.0</ele><time>2026-03-29T08:24:11Z</time></trkpt><trkpt lat="45.97354331486284" lon="11.058733589175997"><ele>631.0</ele><time>2026-03-29T08:24:12Z</time></trkpt><trkpt lat="45.97353924530515" lon="11.058843889716155"><ele>631.0</ele><time>2026-03-29T08:24:13Z</time></trkpt><trkpt lat="45.97346817031593" lon="11.05891611137019"><ele>631.0</ele><time>2026-03-29T08:24:14Z</time></trkpt><trkpt lat="45.97339647293183" lon="11.058945398696771"><ele>631.0</ele><time>2026-03-29T08:24:15Z</time></trkpt><trkpt lat="45.97331605683444" lon="11.058952712779151"><ele>631.0</ele><time>2026-03-29T08:24:16Z</time></trkpt><trkpt lat="45.97323763697136" lon="11.058881387713493"><ele>631.0</ele><time>2026-03-29T08:24:17Z</time></trkpt><trkpt lat="45.97316198334266" lon="11.058767381693782"><ele>631.0</ele><time>2026-03-29T08:24:18Z</time></trkpt><trkpt lat="45.97307331880127" lon="11.058677045008176"><ele>631.0</ele><time>2026-03-29T08:24:19Z</time></trkpt><trkpt lat="45.97297735738193" lon="11.058677989134996"><ele>631.0</ele><time>2026-03-29T08:24:20Z</time></trkpt><trkpt lat="45.97290555873207" lon="11.058722567412996"><ele>631.0</ele><time>2026-03-29T08:24:21Z</time></trkpt><trkpt lat="45.972859367653115" lon="11.058840187366036"><ele>631.0</ele><time>2026-03-29T08:24:22Z</time></trkpt><trkpt lat="45.972818987319336" lon="11.058975882299897"><ele>627.0</ele><time>2026-03-29T08:24:23Z</time></trkpt><trkpt lat="45.972777936079964" lon="11.059134432017242"><ele>623.0</ele><time>2026-03-29T08:24:24Z</time></trkpt><trkpt lat="45.97273511842675" lon="11.05930095901818"><ele>619.0</ele><time>2026-03-29T08:24:25Z</time></trkpt><trkpt lat="45.97270841588942" lon="11.059452220921575"><ele>615.0</ele><time>2026-03-29T08:24:26Z</time></trkpt><trkpt lat="45.97272091271799" lon="11.05959998744646"><ele>615.0</ele><time>2026-03-29T08:24:27Z</time></trkpt><trkpt lat="45.972776334918834" lon="11.059738271089872"><ele>615.0</ele><time>2026-03-29T08:24:28Z</time></trkpt><trkpt lat="45.97285061711987" lon="11.059870034180541"><ele>615.0</ele><time>2026-03-29T08:24:29Z</time></trkpt><trkpt lat="45.972953691605504" lon="11.060009760429896"><ele>615.0</ele><time>2026-03-29T08:24:30Z</time></trkpt><trkpt lat="45.973075417090215" lon="11.06017094412764"><ele>611.3333333333334</ele><time>2026-03-29T08:24:31Z</time></trkpt><trkpt lat="45.973202175062234" lon="11.060357939376258"><ele>607.6666666666667</ele><time>2026-03-29T08:24:32Z</time></trkpt><trkpt lat="45.97333305447521" lon="11.06057101580931"><ele>604.0</ele><time>2026-03-29T08:24:33Z</time></trkpt><trkpt lat="45.9734336703573" lon="11.060803247622998"><ele>592.0</ele><time>2026-03-29T08:24:34Z</time></trkpt><trkpt lat="45.97357346361294" lon="11.061045767266272"><ele>580.0</ele><time>2026-03-29T08:24:35Z</time></trkpt><trkpt lat="45.9736882955201" lon="11.061279920936208"><ele>568.0</ele><time>2026-03-29T08:24:36Z</time></trkpt><trkpt lat="45.97379864118412" lon="11.061521361569984"><ele>571.3333333333334</ele><time>2026-03-29T08:24:37Z</time></trkpt><trkpt lat="45.97391772447203" lon="11.06172320875449"><ele>574.6666666666666</ele><time>2026-03-29T08:24:38Z</time></trkpt><trkpt lat="45.974038828286574" lon="11.061918720871548"><ele>578.0</ele><time>2026-03-29T08:24:39Z</time></trkpt><trkpt lat="45.9741725409966" lon="11.06208305250599"><ele>571.0</ele><time>2026-03-29T08:24:40Z</time></trkpt><trkpt lat="45.9743020780977" lon="11.062241856163567"><ele>564.0</ele><time>2026-03-29T08:24:41Z</time></trkpt><trkpt lat="45.97443301499542" lon="11.062375304856287"><ele>557.0</ele><time>2026-03-29T08:24:42Z</time></trkpt><trkpt lat="45.974552730523314" lon="11.062520388336251"><ele>556.0</ele><time>2026-03-29T08:24:43Z</time></trkpt><trkpt lat="45.97467244908915" lon="11.062664015994224"><ele>555.0</ele><time>2026-03-29T08:24:44Z</time></trkpt><trkpt lat="45.97474119031126" lon="11.062837697426245"><ele>554.0</ele><time>2026-03-29T08:24:45Z</time></trkpt><trkpt lat="45.97482724113787" lon="11.062997764015222"><ele>553.0</ele><time>2026-03-29T08:24:46Z</time></trkpt><trkpt lat="45.97486559202383" lon="11.063194431086663"><ele>556.3333333333334</ele><time>2026-03-29T08:24:47Z</time></trkpt><trkpt lat="45.97491517131115" lon="11.06339932462778"><ele>559.6666666666666</ele><time>2026-03-29T08:24:48Z</time></trkpt><trkpt lat="45.97494474535684" lon="11.06361762591688"><ele>563.0</ele><time>2026-03-29T08:24:49Z</time></trkpt><trkpt lat="45.9749633349362" lon="11.063833810016245"><ele>563.0</ele><time>2026-03-29T08:24:50Z</time></trkpt><trkpt lat="45.97496552925699" lon="11.064046949177463"><ele>563.0</ele><time>2026-03-29T08:24:51Z</time></trkpt><trkpt lat="45.97497198852787" lon="11.064239777699859"><ele>563.0</ele><time>2026-03-29T08:24:52Z</time></trkpt><trkpt lat="45.97494948368994" lon="11.064420506717212"><ele>563.0</ele><time>2026-03-29T08:24:53Z</time></trkpt><trkpt lat="45.97488906071819" lon="11.064603918310944"><ele>562.0</ele><time>2026-03-29T08:24:54Z</time></trkpt><trkpt lat="45.97483427330511" lon="11.06480603970601"><ele>561.0</ele><time>2026-03-29T08:24:55Z</time></trkpt><trkpt lat="45.97477680326097" lon="11.06501805781791"><ele>560.0</ele><time>2026-03-29T08:24:56Z</time></trkpt><trkpt lat="45.97473163548259" lon="11.065244812811667"><ele>556.0</ele><time>2026-03-29T08:24:57Z</time></trkpt><trkpt lat="45.97466607809459" lon="11.065479548201024"><ele>552.0</ele><time>2026-03-29T08:24:58Z</time></trkpt><trkpt lat="45.97460094786605" lon="11.065712235860904"><ele>548.0</ele><time>2026-03-29T08:24:59Z</time></trkpt><trkpt lat="45.974548477550435" lon="11.065924344595"><ele>543.0</ele><time>2026-03-29T08:25:00Z</time></trkpt><trkpt lat="45.974519232269884" lon="11.066147801735752"><ele>538.0</ele><time>2026-03-29T08:25:01Z</time></trkpt><trkpt lat="45.97451244065088" lon="11.066382069669478"><ele>533.0</ele><time>2026-03-29T08:25:02Z</time></trkpt><trkpt lat="45.974538355670084" lon="11.066630731220041"><ele>530.6666666666666</ele><time>2026-03-29T08:25:03Z</time></trkpt><trkpt lat="45.974613323775266" lon="11.066841882918418"><ele>528.3333333333334</ele><time>2026-03-29T08:25:04Z</time></trkpt><trkpt lat="45.9746839878754" lon="11.067042546711566"><ele>526.0</ele><time>2026-03-29T08:25:05Z</time></trkpt><trkpt lat="45.97473360157579" lon="11.067252848116754"><ele>525.25</ele><time>2026-03-29T08:25:06Z</time></trkpt><trkpt lat="45.97476867868886" lon="11.06745010921151"><ele>524.5</ele><time>2026-03-29T08:25:07Z</time></trkpt><trkpt lat="45.97478345938375" lon="11.067647635981226"><ele>523.75</ele><time>2026-03-29T08:25:08Z</time></trkpt><trkpt lat="45.97477375019991" lon="11.067832233052133"><ele>523.0</ele><time>2026-03-29T08:25:09Z</time></trkpt><trkpt lat="45.97474972367295" lon="11.068021922892655"><ele>523.0</ele><time>2026-03-29T08:25:10Z</time></trkpt><trkpt lat="45.974706789629174" lon="11.068209279509679"><ele>523.0</ele><time>2026-03-29T08:25:11Z</time></trkpt><trkpt lat="45.97462118187459" lon="11.068398847035466"><ele>523.0</ele><time>2026-03-29T08:25:12Z</time></trkpt><trkpt lat="45.97453843089299" lon="11.068612162960264"><ele>519.0</ele><time>2026-03-29T08:25:13Z</time></trkpt><trkpt lat="45.974478775340735" lon="11.068811675883195"><ele>515.0</ele><time>2026-03-29T08:25:14Z</time></trkpt><trkpt lat="45.974421880087924" lon="11.068986072523519"><ele>511.0</ele><time>2026-03-29T08:25:15Z</time></trkpt><trkpt lat="45.974396170606305" lon="11.069166112953713"><ele>507.0</ele><time>2026-03-29T08:25:16Z</time></trkpt><trkpt lat="45.97440135891744" lon="11.069347632831418"><ele>502.5</ele><time>2026-03-29T08:25:17Z</time></trkpt><trkpt lat="45.97445899629066" lon="11.06952199214323"><ele>498.0</ele><time>2026-03-29T08:25:18Z</time></trkpt><trkpt lat="45.97452190012446" lon="11.069700663611647"><ele>493.5</ele><time>2026-03-29T08:25:19Z</time></trkpt><trkpt lat="45.97459002216128" lon="11.069919090174269"><ele>489.0</ele><time>2026-03-29T08:25:20Z</time></trkpt><trkpt lat="45.97465059288875" lon="11.070120953973603"><ele>489.0</ele><time>2026-03-29T08:25:21Z</time></trkpt><trkpt lat="45.974694501762436" lon="11.070306371187293"><ele>489.0</ele><time>2026-03-29T08:25:22Z</time></trkpt><trkpt lat="45.974725845134344" lon="11.07048916881496"><ele>489.0</ele><time>2026-03-29T08:25:23Z</time></trkpt><trkpt lat="45.97475279027996" lon="11.070642094454355"><ele>489.0</ele><time>2026-03-29T08:25:24Z</time></trkpt><trkpt lat="45.97481337378541" lon="11.070747550898979"><ele>490.4</ele><time>2026-03-29T08:25:25Z</time></trkpt><trkpt lat="45.97487585200957" lon="11.070813351396207"><ele>491.79999999999995</ele><time>2026-03-29T08:25:26Z</time></trkpt><trkpt lat="45.97494412695767" lon="11.070841338721277"><ele>493.20000000000005</ele><time>2026-03-29T08:25:27Z</time></trkpt><trkpt lat="45.97498795436168" lon="11.070983395169126"><ele>494.6</ele><time>2026-03-29T08:25:28Z</time></trkpt><trkpt lat="45.975059228303756" lon="11.071090006168125"><ele>496.0</ele><time>2026-03-29T08:25:29Z</time></trkpt><trkpt lat="45.97513567678708" lon="11.071243404258889"><ele>480.33333333333337</ele><time>2026-03-29T08:25:30Z</time></trkpt><trkpt lat="45.97520419389631" lon="11.071469406523732"><ele>464.66666666666663</ele><time>2026-03-29T08:25:31Z</time></trkpt><trkpt lat="45.975290531347405" lon="11.071714229510226"><ele>449.0</ele><time>2026-03-29T08:25:32Z</time></trkpt><trkpt lat="45.97538119530187" lon="11.07194352937326"><ele>449.3333333333333</ele><time>2026-03-29T08:25:33Z</time></trkpt><trkpt lat="45.97544471040738" lon="11.07216655383648"><ele>449.66666666666663</ele><time>2026-03-29T08:25:34Z</time></trkpt><trkpt lat="45.975491786607925" lon="11.072408224761894"><ele>450.0</ele><time>2026-03-29T08:25:35Z</time></trkpt><trkpt lat="45.975522845402516" lon="11.072629662718917"><ele>450.0</ele><time>2026-03-29T08:25:36Z</time></trkpt><trkpt lat="45.97553866480738" lon="11.072856591545673"><ele>450.0</ele><time>2026-03-29T08:25:37Z</time></trkpt><trkpt lat="45.97553700621913" lon="11.073081461111427"><ele>450.0</ele><time>2026-03-29T08:25:38.022Z</time></trkpt><trkpt lat="45.97549722568842" lon="11.074078965151612"><ele>450.75</ele><time>2026-03-29T08:25:42Z</time></trkpt><trkpt lat="45.97548761727228" lon="11.074309593028383"><ele>451.5</ele><time>2026-03-29T08:25:43Z</time></trkpt><trkpt lat="45.975480888714436" lon="11.07447419717861"><ele>452.25</ele><time>2026-03-29T08:25:44Z</time></trkpt><trkpt lat="45.97547260136672" lon="11.074676934852704"><ele>453.0</ele><time>2026-03-29T08:25:45.017Z</time></trkpt><trkpt lat="45.97544385720962" lon="11.075543859787603"><ele>453.0</ele><time>2026-03-29T08:25:49.031Z</time></trkpt><trkpt lat="45.97545722525751" lon="11.075761400766561"><ele>453.0</ele><time>2026-03-29T08:25:50.033Z</time></trkpt><trkpt lat="45.97550673646213" lon="11.075967950203967"><ele>453.0</ele><time>2026-03-29T08:25:51.033Z</time></trkpt><trkpt lat="45.97555072767406" lon="11.07617313825442"><ele>458.5</ele><time>2026-03-29T08:25:52.031Z</time></trkpt><trkpt lat="45.97560258771797" lon="11.07637541562929"><ele>464.0</ele><time>2026-03-29T08:25:53.033Z</time></trkpt><trkpt lat="45.97578994468411" lon="11.076865252117697"><ele>464.0</ele><time>2026-03-29T08:25:55Z</time></trkpt><trkpt lat="45.97583298011285" lon="11.077037759652136"><ele>464.0</ele><time>2026-03-29T08:25:56Z</time></trkpt><trkpt lat="45.97580944158489" lon="11.077255165789209"><ele>464.0</ele><time>2026-03-29T08:25:57Z</time></trkpt><trkpt lat="45.97584833286798" lon="11.077406680282444"><ele>464.0</ele><time>2026-03-29T08:25:58Z</time></trkpt><trkpt lat="45.975876443143086" lon="11.077543791362016"><ele>450.4</ele><time>2026-03-29T08:25:59Z</time></trkpt><trkpt lat="45.97589289856518" lon="11.077659808480012"><ele>436.79999999999995</ele><time>2026-03-29T08:26:00Z</time></trkpt><trkpt lat="45.975908956686126" lon="11.077775310494077"><ele>423.20000000000005</ele><time>2026-03-29T08:26:01Z</time></trkpt><trkpt lat="45.975911912287266" lon="11.07794571717605"><ele>409.6</ele><time>2026-03-29T08:26:02Z</time></trkpt><trkpt lat="45.97590419381834" lon="11.078119900210032"><ele>396.0</ele><time>2026-03-29T08:26:03Z</time></trkpt><trkpt lat="45.97587762486855" lon="11.078292639620294"><ele>408.75</ele><time>2026-03-29T08:26:04Z</time></trkpt><trkpt lat="45.97583635293591" lon="11.078470754461465"><ele>421.5</ele><time>2026-03-29T08:26:05Z</time></trkpt><trkpt lat="45.975778773898256" lon="11.078648468018825"><ele>434.25</ele><time>2026-03-29T08:26:06Z</time></trkpt><trkpt lat="45.97572611327489" lon="11.078842245131884"><ele>447.0</ele><time>2026-03-29T08:26:07Z</time></trkpt><trkpt lat="45.97567656806043" lon="11.079048666655797"><ele>441.25</ele><time>2026-03-29T08:26:08Z</time></trkpt><trkpt lat="45.97561927357475" lon="11.079242614481707"><ele>435.5</ele><time>2026-03-29T08:26:09Z</time></trkpt><trkpt lat="45.97556604892386" lon="11.079424467890664"><ele>429.75</ele><time>2026-03-29T08:26:10Z</time></trkpt><trkpt lat="45.97551811953341" lon="11.079600975305333"><ele>424.0</ele><time>2026-03-29T08:26:11Z</time></trkpt><trkpt lat="45.97547935013497" lon="11.079779443079925"><ele>419.5</ele><time>2026-03-29T08:26:12Z</time></trkpt><trkpt lat="45.97543112277286" lon="11.079937156399902"><ele>415.0</ele><time>2026-03-29T08:26:13Z</time></trkpt><trkpt lat="45.97538303177172" lon="11.080101659724502"><ele>410.5</ele><time>2026-03-29T08:26:14Z</time></trkpt><trkpt lat="45.97533790475083" lon="11.080275370595755"><ele>406.0</ele><time>2026-03-29T08:26:15Z</time></trkpt><trkpt lat="45.97529106574248" lon="11.080455398185194"><ele>406.0</ele><time>2026-03-29T08:26:16Z</time></trkpt><trkpt lat="45.975250323477" lon="11.080638541167703"><ele>406.0</ele><time>2026-03-29T08:26:17Z</time></trkpt><trkpt lat="45.9752275218093" lon="11.080818069989085"><ele>406.0</ele><time>2026-03-29T08:26:18Z</time></trkpt><trkpt lat="45.97522272319655" lon="11.080992823488334"><ele>406.0</ele><time>2026-03-29T08:26:19Z</time></trkpt><trkpt lat="45.975246210430086" lon="11.081170174579313"><ele>403.25</ele><time>2026-03-29T08:26:20Z</time></trkpt><trkpt lat="45.975280997434886" lon="11.081341988771843"><ele>400.5</ele><time>2026-03-29T08:26:21Z</time></trkpt><trkpt lat="45.97533579655035" lon="11.081494632876293"><ele>397.75</ele><time>2026-03-29T08:26:22Z</time></trkpt><trkpt lat="45.97541247202652" lon="11.081641922975951"><ele>395.0</ele><time>2026-03-29T08:26:23Z</time></trkpt><trkpt lat="45.975508332062255" lon="11.081773430924187"><ele>395.0</ele><time>2026-03-29T08:26:24Z</time></trkpt><trkpt lat="45.97562304392083" lon="11.081890890161207"><ele>395.0</ele><time>2026-03-29T08:26:25Z</time></trkpt><trkpt lat="45.97574548687467" lon="11.081973070326303"><ele>395.0</ele><time>2026-03-29T08:26:26Z</time></trkpt><trkpt lat="45.97588264692007" lon="11.08203048193279"><ele>395.0</ele><time>2026-03-29T08:26:27Z</time></trkpt><trkpt lat="45.97601905472371" lon="11.082057947276837"><ele>383.66666666666663</ele><time>2026-03-29T08:26:28Z</time></trkpt><trkpt lat="45.97616398736382" lon="11.082114134514674"><ele>372.3333333333333</ele><time>2026-03-29T08:26:29Z</time></trkpt><trkpt lat="45.97632263587608" lon="11.082196006494044"><ele>361.0</ele><time>2026-03-29T08:26:30Z</time></trkpt><trkpt lat="45.976466580090545" lon="11.082290782591947"><ele>361.0</ele><time>2026-03-29T08:26:31Z</time></trkpt><trkpt lat="45.97659640673958" lon="11.0823523992308"><ele>361.0</ele><time>2026-03-29T08:26:32Z</time></trkpt><trkpt lat="45.97669894338387" lon="11.082434315794593"><ele>361.0</ele><time>2026-03-29T08:26:33Z</time></trkpt><trkpt lat="45.976792673618036" lon="11.082490453712227"><ele>361.0</ele><time>2026-03-29T08:26:34Z</time></trkpt><trkpt lat="45.97686994964692" lon="11.082537137213205"><ele>361.0</ele><time>2026-03-29T08:26:35Z</time></trkpt><trkpt lat="45.97694259822841" lon="11.082586606586036"><ele>358.8</ele><time>2026-03-29T08:26:36Z</time></trkpt><trkpt lat="45.97699740609205" lon="11.08265646549219"><ele>356.6</ele><time>2026-03-29T08:26:37Z</time></trkpt><trkpt lat="45.9770822225317" lon="11.082766016871915"><ele>354.4</ele><time>2026-03-29T08:26:39Z</time></trkpt><trkpt lat="45.9771122008952" lon="11.082916452096708"><ele>352.2</ele><time>2026-03-29T08:26:41Z</time></trkpt><trkpt lat="45.97704835933491" lon="11.08299571064786"><ele>350.0</ele><time>2026-03-29T08:26:42Z</time></trkpt><trkpt lat="45.97697892434221" lon="11.083057481321546"><ele>350.0</ele><time>2026-03-29T08:26:43Z</time></trkpt><trkpt lat="45.976892578808915" lon="11.08313759738135"><ele>350.0</ele><time>2026-03-29T08:26:44Z</time></trkpt><trkpt lat="45.976797214779715" lon="11.083200348391276"><ele>350.0</ele><time>2026-03-29T08:26:45Z</time></trkpt><trkpt lat="45.976685935381404" lon="11.083250605562704"><ele>350.0</ele><time>2026-03-29T08:26:46Z</time></trkpt><trkpt lat="45.976548417050786" lon="11.083290567969698"><ele>358.0</ele><time>2026-03-29T08:26:47Z</time></trkpt><trkpt lat="45.97636424217557" lon="11.083326689176735"><ele>366.0</ele><time>2026-03-29T08:26:48Z</time></trkpt><trkpt lat="45.97614557162091" lon="11.083366202706953"><ele>374.0</ele><time>2026-03-29T08:26:49Z</time></trkpt><trkpt lat="45.975929930044565" lon="11.083424218139562"><ele>379.0</ele><time>2026-03-29T08:26:50Z</time></trkpt><trkpt lat="45.975729133828445" lon="11.083550165394495"><ele>384.0</ele><time>2026-03-29T08:26:51Z</time></trkpt><trkpt lat="45.9755066742582" lon="11.083686141839287"><ele>384.0</ele><time>2026-03-29T08:26:52Z</time></trkpt><trkpt lat="45.97530151286329" lon="11.083823322219228"><ele>384.0</ele><time>2026-03-29T08:26:53Z</time></trkpt><trkpt lat="45.97513210199806" lon="11.083916592976164"><ele>384.0</ele><time>2026-03-29T08:26:54Z</time></trkpt><trkpt lat="45.974959206938664" lon="11.083953005882666"><ele>384.0</ele><time>2026-03-29T08:26:55Z</time></trkpt><trkpt lat="45.97476482697911" lon="11.083973613055111"><ele>384.0</ele><time>2026-03-29T08:26:56Z</time></trkpt><trkpt lat="45.974573675806" lon="11.083991550332176"><ele>384.0</ele><time>2026-03-29T08:26:57Z</time></trkpt><trkpt lat="45.97440446900688" lon="11.084045951923757"><ele>374.0</ele><time>2026-03-29T08:26:58Z</time></trkpt><trkpt lat="45.9742315295416" lon="11.084110621960955"><ele>364.0</ele><time>2026-03-29T08:26:59Z</time></trkpt><trkpt lat="45.974049501196845" lon="11.084239406212422"><ele>354.0</ele><time>2026-03-29T08:27:00Z</time></trkpt><trkpt lat="45.97385043176531" lon="11.084404672475321"><ele>354.0</ele><time>2026-03-29T08:27:01Z</time></trkpt><trkpt lat="45.973640208014565" lon="11.084596293088183"><ele>354.0</ele><time>2026-03-29T08:27:02Z</time></trkpt><trkpt lat="45.97341621226861" lon="11.084831718728376"><ele>349.5</ele><time>2026-03-29T08:27:03Z</time></trkpt><trkpt lat="45.9731805676619" lon="11.085082465715619"><ele>345.0</ele><time>2026-03-29T08:27:04Z</time></trkpt><trkpt lat="45.97297217045607" lon="11.085301228352636"><ele>345.0</ele><time>2026-03-29T08:27:05Z</time></trkpt><trkpt lat="45.972780555378485" lon="11.085505512651896"><ele>345.0</ele><time>2026-03-29T08:27:06Z</time></trkpt><trkpt lat="45.97259711505039" lon="11.085696825774422"><ele>341.3333333333333</ele><time>2026-03-29T08:27:07Z</time></trkpt><trkpt lat="45.972420144544955" lon="11.08587547416856"><ele>337.66666666666663</ele><time>2026-03-29T08:27:08Z</time></trkpt><trkpt lat="45.97225916860363" lon="11.086054397603425"><ele>334.0</ele><time>2026-03-29T08:27:09Z</time></trkpt><trkpt lat="45.97210455462271" lon="11.086217322416296"><ele>334.0</ele><time>2026-03-29T08:27:10Z</time></trkpt><trkpt lat="45.97195140123663" lon="11.086380973873801"><ele>334.0</ele><time>2026-03-29T08:27:11Z</time></trkpt><trkpt lat="45.97179732184757" lon="11.0865465223182"><ele>334.0</ele><time>2026-03-29T08:27:12Z</time></trkpt><trkpt lat="45.971645220760514" lon="11.08668987439773"><ele>330.0</ele><time>2026-03-29T08:27:13Z</time></trkpt><trkpt lat="45.97149570537968" lon="11.08681516027112"><ele>326.0</ele><time>2026-03-29T08:27:14Z</time></trkpt><trkpt lat="45.9713463562338" lon="11.086918270870115"><ele>322.0</ele><time>2026-03-29T08:27:15Z</time></trkpt><trkpt lat="45.97121075301928" lon="11.08701834246164"><ele>322.0</ele><time>2026-03-29T08:27:16Z</time></trkpt><trkpt lat="45.97109230970959" lon="11.087110340482072"><ele>322.0</ele><time>2026-03-29T08:27:17Z</time></trkpt><trkpt lat="45.97099378746291" lon="11.087184947180601"><ele>322.0</ele><time>2026-03-29T08:27:18Z</time></trkpt><trkpt lat="45.97093268534366" lon="11.087259753589125"><ele>322.0</ele><time>2026-03-29T08:27:19Z</time></trkpt><trkpt lat="45.97093777218866" lon="11.087379582591828"><ele>322.0</ele><time>2026-03-29T08:27:20Z</time></trkpt><trkpt lat="45.97097354259538" lon="11.087456178667376"><ele>322.0</ele><time>2026-03-29T08:27:21Z</time></trkpt><trkpt lat="45.971036459148145" lon="11.08750543476992"><ele>322.0</ele><time>2026-03-29T08:27:22Z</time></trkpt><trkpt lat="45.97110471954579" lon="11.087539310318906"><ele>322.0</ele><time>2026-03-29T08:27:23Z</time></trkpt><trkpt lat="45.97119844436487" lon="11.087473970625693"><ele>322.0</ele><time>2026-03-29T08:27:24Z</time></trkpt><trkpt lat="45.97131512991188" lon="11.087392385018871"><ele>322.0</ele><time>2026-03-29T08:27:25Z</time></trkpt><trkpt lat="45.97143948950274" lon="11.087261719049966"><ele>322.0</ele><time>2026-03-29T08:27:26Z</time></trkpt><trkpt lat="45.971542385141916" lon="11.08714873319798"><ele>322.0</ele><time>2026-03-29T08:27:27Z</time></trkpt><trkpt lat="45.971663356434334" lon="11.087081781583931"><ele>322.0</ele><time>2026-03-29T08:27:28Z</time></trkpt><trkpt lat="45.97181287667973" lon="11.087072517212386"><ele>322.0</ele><time>2026-03-29T08:27:29Z</time></trkpt><trkpt lat="45.97199989524161" lon="11.087068173586298"><ele>314.66666666666663</ele><time>2026-03-29T08:27:30Z</time></trkpt><trkpt lat="45.97216157187459" lon="11.087021447247233"><ele>307.3333333333333</ele><time>2026-03-29T08:27:31Z</time></trkpt><trkpt lat="45.972311895096354" lon="11.086972481842755"><ele>300.0</ele><time>2026-03-29T08:27:32Z</time></trkpt><trkpt lat="45.972473622734846" lon="11.086887654590571"><ele>305.3333333333333</ele><time>2026-03-29T08:27:33Z</time></trkpt><trkpt lat="45.972650280165475" lon="11.08680663104124"><ele>310.66666666666663</ele><time>2026-03-29T08:27:34Z</time></trkpt><trkpt lat="45.97281932063321" lon="11.086680662924234"><ele>316.0</ele><time>2026-03-29T08:27:35Z</time></trkpt><trkpt lat="45.97298346275759" lon="11.086581434821174"><ele>316.0</ele><time>2026-03-29T08:27:36Z</time></trkpt><trkpt lat="45.973142404172584" lon="11.08650286127137"><ele>316.0</ele><time>2026-03-29T08:27:37Z</time></trkpt><trkpt lat="45.9732846176206" lon="11.086433419929028"><ele>316.0</ele><time>2026-03-29T08:27:38Z</time></trkpt><trkpt lat="45.97341989990012" lon="11.086392506550421"><ele>314.25</ele><time>2026-03-29T08:27:39Z</time></trkpt><trkpt lat="45.97354270016488" lon="11.086373521252243"><ele>312.5</ele><time>2026-03-29T08:27:40Z</time></trkpt><trkpt lat="45.9736541735901" lon="11.086379654968965"><ele>310.75</ele><time>2026-03-29T08:27:41Z</time></trkpt><trkpt lat="45.97375859437098" lon="11.086444440191817"><ele>309.0</ele><time>2026-03-29T08:27:42Z</time></trkpt><trkpt lat="45.97385595679736" lon="11.086540982134245"><ele>304.75</ele><time>2026-03-29T08:27:43Z</time></trkpt><trkpt lat="45.97394239117517" lon="11.086680990343229"><ele>300.5</ele><time>2026-03-29T08:27:44Z</time></trkpt><trkpt lat="45.97402710240121" lon="11.08688170419306"><ele>296.25</ele><time>2026-03-29T08:27:45Z</time></trkpt><trkpt lat="45.97412681463668" lon="11.087028013169112"><ele>292.0</ele><time>2026-03-29T08:27:46Z</time></trkpt><trkpt lat="45.9742274432628" lon="11.087151402821815"><ele>292.0</ele><time>2026-03-29T08:27:47Z</time></trkpt><trkpt lat="45.97437875053202" lon="11.087230885695297"><ele>292.0</ele><time>2026-03-29T08:27:48Z</time></trkpt><trkpt lat="45.97455144484207" lon="11.087320448862796"><ele>292.0</ele><time>2026-03-29T08:27:49Z</time></trkpt><trkpt lat="45.974712810885734" lon="11.0875036797174"><ele>283.66666666666663</ele><time>2026-03-29T08:27:50Z</time></trkpt><trkpt lat="45.9748753109148" lon="11.087646303212814"><ele>275.3333333333333</ele><time>2026-03-29T08:27:51Z</time></trkpt><trkpt lat="45.97501561226997" lon="11.087787977708158"><ele>267.0</ele><time>2026-03-29T08:27:52Z</time></trkpt><trkpt lat="45.9751618522431" lon="11.08788731232767"><ele>267.0</ele><time>2026-03-29T08:27:53Z</time></trkpt><trkpt lat="45.97531611661166" lon="11.08796299797266"><ele>267.0</ele><time>2026-03-29T08:27:54Z</time></trkpt><trkpt lat="45.97548615897341" lon="11.088015088750776"><ele>267.0</ele><time>2026-03-29T08:27:55Z</time></trkpt><trkpt lat="45.975658174289535" lon="11.088035712944738"><ele>267.0</ele><time>2026-03-29T08:27:56Z</time></trkpt><trkpt lat="45.97583400538981" lon="11.08802800067121"><ele>267.0</ele><time>2026-03-29T08:27:57Z</time></trkpt><trkpt lat="45.97601464104334" lon="11.087984539837143"><ele>267.0</ele><time>2026-03-29T08:27:58Z</time></trkpt><trkpt lat="45.97618862921306" lon="11.087919017339077"><ele>259.0</ele><time>2026-03-29T08:27:59Z</time></trkpt><trkpt lat="45.976349716711496" lon="11.087859317704995"><ele>251.0</ele><time>2026-03-29T08:28:00Z</time></trkpt><trkpt lat="45.97650907978935" lon="11.087822067653674"><ele>243.0</ele><time>2026-03-29T08:28:01Z</time></trkpt><trkpt lat="45.97668258312403" lon="11.087810667173116"><ele>247.33333333333331</ele><time>2026-03-29T08:28:02Z</time></trkpt><trkpt lat="45.97686247135736" lon="11.087849059229633"><ele>251.66666666666666</ele><time>2026-03-29T08:28:03Z</time></trkpt><trkpt lat="45.97704005928161" lon="11.087912244918979"><ele>256.0</ele><time>2026-03-29T08:28:04Z</time></trkpt><trkpt lat="45.977214512082526" lon="11.088004131163778"><ele>256.0</ele><time>2026-03-29T08:28:05Z</time></trkpt><trkpt lat="45.977381724847696" lon="11.08811766453405"><ele>256.0</ele><time>2026-03-29T08:28:06Z</time></trkpt><trkpt lat="45.97753916985861" lon="11.088267580992317"><ele>256.0</ele><time>2026-03-29T08:28:07Z</time></trkpt><trkpt lat="45.9776998236449" lon="11.088415924901959"><ele>252.33333333333331</ele><time>2026-03-29T08:28:08Z</time></trkpt><trkpt lat="45.977844249913325" lon="11.088549284693414"><ele>248.66666666666669</ele><time>2026-03-29T08:28:09Z</time></trkpt><trkpt lat="45.9779817530296" lon="11.088676310551733"><ele>245.0</ele><time>2026-03-29T08:28:10Z</time></trkpt><trkpt lat="45.97811145887792" lon="11.088796138145975"><ele>245.0</ele><time>2026-03-29T08:28:11Z</time></trkpt><trkpt lat="45.97823501607645" lon="11.088908918685595"><ele>245.0</ele><time>2026-03-29T08:28:12Z</time></trkpt><trkpt lat="45.97835161252727" lon="11.089016557578912"><ele>245.0</ele><time>2026-03-29T08:28:13Z</time></trkpt><trkpt lat="45.97846614830959" lon="11.089104720626633"><ele>245.0</ele><time>2026-03-29T08:28:14Z</time></trkpt><trkpt lat="45.978568543245025" lon="11.089205536586347"><ele>243.0</ele><time>2026-03-29T08:28:15Z</time></trkpt><trkpt lat="45.978677831024726" lon="11.089297099525119"><ele>241.0</ele><time>2026-03-29T08:28:16Z</time></trkpt><trkpt lat="45.978789633952566" lon="11.089397803622365"><ele>239.0</ele><time>2026-03-29T08:28:17Z</time></trkpt><trkpt lat="45.97890184022395" lon="11.089505313634339"><ele>237.0</ele><time>2026-03-29T08:28:18Z</time></trkpt><trkpt lat="45.97901506214746" lon="11.089610704405265"><ele>237.0</ele><time>2026-03-29T08:28:19Z</time></trkpt><trkpt lat="45.979146216620244" lon="11.08972704664011"><ele>237.0</ele><time>2026-03-29T08:28:20Z</time></trkpt><trkpt lat="45.97929723559088" lon="11.089846327727628"><ele>237.0</ele><time>2026-03-29T08:28:21Z</time></trkpt><trkpt lat="45.9794751252334" lon="11.08995671297381"><ele>234.66666666666669</ele><time>2026-03-29T08:28:22Z</time></trkpt><trkpt lat="45.97968991872541" lon="11.090051709647787"><ele>232.33333333333334</ele><time>2026-03-29T08:28:23Z</time></trkpt><trkpt lat="45.9798796478347" lon="11.090125206948326"><ele>230.0</ele><time>2026-03-29T08:28:24Z</time></trkpt><trkpt lat="45.98004245547436" lon="11.090190075131185"><ele>239.33333333333334</ele><time>2026-03-29T08:28:25Z</time></trkpt><trkpt lat="45.98019519023159" lon="11.090257473323577"><ele>248.66666666666669</ele><time>2026-03-29T08:28:26Z</time></trkpt><trkpt lat="45.980316177961924" lon="11.090382107047597"><ele>258.0</ele><time>2026-03-29T08:28:27Z</time></trkpt><trkpt lat="45.980428007026276" lon="11.090511855941783"><ele>258.0</ele><time>2026-03-29T08:28:28Z</time></trkpt><trkpt lat="45.98052339243959" lon="11.090665152565828"><ele>258.0</ele><time>2026-03-29T08:28:29Z</time></trkpt><trkpt lat="45.98059069318514" lon="11.090822156403028"><ele>258.0</ele><time>2026-03-29T08:28:30Z</time></trkpt><trkpt lat="45.980641915719524" lon="11.090982899820906"><ele>258.0</ele><time>2026-03-29T08:28:31Z</time></trkpt><trkpt lat="45.980679606562994" lon="11.09114511035508"><ele>251.60000000000002</ele><time>2026-03-29T08:28:32Z</time></trkpt><trkpt lat="45.98070736936464" lon="11.091268795820575"><ele>245.20000000000002</ele><time>2026-03-29T08:28:33Z</time></trkpt><trkpt lat="45.98074163603001" lon="11.091350996127272"><ele>238.8</ele><time>2026-03-29T08:28:34Z</time></trkpt><trkpt lat="45.98074787135316" lon="11.091457411824644"><ele>232.4</ele><time>2026-03-29T08:28:36Z</time></trkpt><trkpt lat="45.980886920531994" lon="11.091547119741765"><ele>226.0</ele><time>2026-03-29T08:28:53Z</time></trkpt><trkpt lat="45.980963438275616" lon="11.091569666730445"><ele>221.20000000000002</ele><time>2026-03-29T08:28:54Z</time></trkpt><trkpt lat="45.98106914366176" lon="11.09159288749962"><ele>216.40000000000003</ele><time>2026-03-29T08:28:56Z</time></trkpt><trkpt lat="45.98113312079565" lon="11.091629790131785"><ele>211.6</ele><time>2026-03-29T08:30:55Z</time></trkpt><trkpt lat="45.98127711929909" lon="11.09164624939093"><ele>206.8</ele><time>2026-03-29T08:30:57Z</time></trkpt><trkpt lat="45.98137505268479" lon="11.091668971547902"><ele>202.0</ele><time>2026-03-29T08:30:58Z</time></trkpt><trkpt lat="45.98147941048653" lon="11.091705317108191"><ele>202.0</ele><time>2026-03-29T08:30:59Z</time></trkpt><trkpt lat="45.98158528019083" lon="11.091762046232297"><ele>202.0</ele><time>2026-03-29T08:31:00Z</time></trkpt><trkpt lat="45.981699777164835" lon="11.091818231671274"><ele>202.0</ele><time>2026-03-29T08:31:01Z</time></trkpt><trkpt lat="45.9818223895918" lon="11.091891782643941"><ele>202.0</ele><time>2026-03-29T08:31:02Z</time></trkpt><trkpt lat="45.981932897242025" lon="11.091977751407775"><ele>204.25</ele><time>2026-03-29T08:31:03Z</time></trkpt><trkpt lat="45.98203344000223" lon="11.092092313306832"><ele>206.5</ele><time>2026-03-29T08:31:04Z</time></trkpt><trkpt lat="45.982143132693004" lon="11.092200497246498"><ele>208.75</ele><time>2026-03-29T08:31:05Z</time></trkpt><trkpt lat="45.982261045206826" lon="11.092309862081919"><ele>211.0</ele><time>2026-03-29T08:31:06Z</time></trkpt><trkpt lat="45.98237416892325" lon="11.092439914523451"><ele>209.0</ele><time>2026-03-29T08:31:07Z</time></trkpt><trkpt lat="45.98249148465922" lon="11.092568774477266"><ele>207.0</ele><time>2026-03-29T08:31:08Z</time></trkpt><trkpt lat="45.98261599299011" lon="11.092704146562939"><ele>205.0</ele><time>2026-03-29T08:31:09Z</time></trkpt><trkpt lat="45.98272304138766" lon="11.092822388214035"><ele>203.0</ele><time>2026-03-29T08:31:10Z</time></trkpt><trkpt lat="45.9828262490806" lon="11.092929901922052"><ele>203.0</ele><time>2026-03-29T08:31:11Z</time></trkpt><trkpt lat="45.98292966658728" lon="11.093045667075486"><ele>203.0</ele><time>2026-03-29T08:31:12Z</time></trkpt><trkpt lat="45.983039890054464" lon="11.093161603393552"><ele>203.0</ele><time>2026-03-29T08:31:13Z</time></trkpt><trkpt lat="45.983139752106645" lon="11.093296365098386"><ele>203.0</ele><time>2026-03-29T08:31:14Z</time></trkpt><trkpt lat="45.98325818309229" lon="11.093404355049675"><ele>203.0</ele><time>2026-03-29T08:31:15Z</time></trkpt><trkpt lat="45.98337194875437" lon="11.09353299320175"><ele>203.0</ele><time>2026-03-29T08:31:16Z</time></trkpt><trkpt lat="45.983491405804536" lon="11.093658855779779"><ele>203.0</ele><time>2026-03-29T08:31:17Z</time></trkpt><trkpt lat="45.983614643688405" lon="11.093791073676027"><ele>203.0</ele><time>2026-03-29T08:31:18Z</time></trkpt><trkpt lat="45.98372475596589" lon="11.093905306191177"><ele>203.00000000000003</ele><time>2026-03-29T08:31:19Z</time></trkpt><trkpt lat="45.98381958340788" lon="11.094012627464002"><ele>203.0</ele><time>2026-03-29T08:31:20Z</time></trkpt><trkpt lat="45.983889650935026" lon="11.094109715188397"><ele>203.0</ele><time>2026-03-29T08:31:21Z</time></trkpt><trkpt lat="45.983939382951206" lon="11.094196401032779"><ele>203.0</ele><time>2026-03-29T08:31:22Z</time></trkpt><trkpt lat="45.983933654802726" lon="11.094305676107965"><ele>203.00000000000003</ele><time>2026-03-29T08:31:23Z</time></trkpt><trkpt lat="45.9839359641043" lon="11.094409800197912"><ele>203.0</ele><time>2026-03-29T08:31:24Z</time></trkpt><trkpt lat="45.983856298347355" lon="11.094531258333614"><ele>200.50000000000003</ele><time>2026-03-29T08:31:25Z</time></trkpt><trkpt lat="45.98384607370936" lon="11.094663880537214"><ele>198.0</ele><time>2026-03-29T08:31:26Z</time></trkpt><trkpt lat="45.98384680091763" lon="11.094764308651587"><ele>195.5</ele><time>2026-03-29T08:31:27Z</time></trkpt><trkpt lat="45.983881991016695" lon="11.09486083505106"><ele>193.0</ele><time>2026-03-29T08:31:28Z</time></trkpt><trkpt lat="45.98395182111431" lon="11.094934147559465"><ele>190.5</ele><time>2026-03-29T08:31:29Z</time></trkpt><trkpt lat="45.98404614369862" lon="11.094943523386268"><ele>188.0</ele><time>2026-03-29T08:31:30Z</time></trkpt><trkpt lat="45.98414246726976" lon="11.09490613630211"><ele>189.0</ele><time>2026-03-29T08:31:31Z</time></trkpt><trkpt lat="45.984230932896374" lon="11.094800019275233"><ele>190.0</ele><time>2026-03-29T08:31:32Z</time></trkpt><trkpt lat="45.98436455478371" lon="11.094799822668513"><ele>191.0</ele><time>2026-03-29T08:31:33Z</time></trkpt><trkpt lat="45.98449720508241" lon="11.094795642724002"><ele>192.0</ele><time>2026-03-29T08:31:34Z</time></trkpt><trkpt lat="45.98462726653007" lon="11.09481304864717"><ele>192.0</ele><time>2026-03-29T08:31:35Z</time></trkpt><trkpt lat="45.98475559361245" lon="11.094875801770376"><ele>192.0</ele><time>2026-03-29T08:31:36Z</time></trkpt><trkpt lat="45.98489845590755" lon="11.0949198429117"><ele>192.0</ele><time>2026-03-29T08:31:37Z</time></trkpt><trkpt lat="45.98503773757775" lon="11.095009791881147"><ele>192.0</ele><time>2026-03-29T08:31:38Z</time></trkpt><trkpt lat="45.98517964841437" lon="11.095113730715703"><ele>189.0</ele><time>2026-03-29T08:31:39Z</time></trkpt><trkpt lat="45.98531722824978" lon="11.09521087122513"><ele>186.0</ele><time>2026-03-29T08:31:40Z</time></trkpt><trkpt lat="45.9854641240315" lon="11.095290024007845"><ele>183.0</ele><time>2026-03-29T08:31:41Z</time></trkpt><trkpt lat="45.985597179811386" lon="11.095410483608223"><ele>183.0</ele><time>2026-03-29T08:31:42Z</time></trkpt><trkpt lat="45.9857404058414" lon="11.09551260731866"><ele>183.0</ele><time>2026-03-29T08:31:43Z</time></trkpt><trkpt lat="45.98588586765071" lon="11.095616325262727"><ele>183.0</ele><time>2026-03-29T08:31:44Z</time></trkpt><trkpt lat="45.98603735954967" lon="11.095701307169408"><ele>183.0</ele><time>2026-03-29T08:31:45Z</time></trkpt><trkpt lat="45.98617602501872" lon="11.095825675056384"><ele>183.0</ele><time>2026-03-29T08:31:46Z</time></trkpt><trkpt lat="45.98632081702864" lon="11.09592933608111"><ele>183.0</ele><time>2026-03-29T08:31:47Z</time></trkpt><trkpt lat="45.98645879832275" lon="11.096023499612102"><ele>183.0</ele><time>2026-03-29T08:31:48Z</time></trkpt><trkpt lat="45.98660558874999" lon="11.09611781521489"><ele>183.0</ele><time>2026-03-29T08:31:49Z</time></trkpt><trkpt lat="45.98675526329481" lon="11.09619999758574"><ele>183.0</ele><time>2026-03-29T08:31:50Z</time></trkpt><trkpt lat="45.98691076673269" lon="11.096249051483847"><ele>183.33333333333334</ele><time>2026-03-29T08:31:51Z</time></trkpt><trkpt lat="45.9870677981944" lon="11.096319940501719"><ele>183.66666666666669</ele><time>2026-03-29T08:31:52Z</time></trkpt><trkpt lat="45.987230079884874" lon="11.096393810534053"><ele>184.0</ele><time>2026-03-29T08:31:53Z</time></trkpt><trkpt lat="45.98740437862355" lon="11.096451261175163"><ele>183.0</ele><time>2026-03-29T08:31:54Z</time></trkpt><trkpt lat="45.98758306610287" lon="11.096502968202884"><ele>182.0</ele><time>2026-03-29T08:31:55Z</time></trkpt><trkpt lat="45.98776541613132" lon="11.09658344994657"><ele>181.0</ele><time>2026-03-29T08:31:56Z</time></trkpt><trkpt lat="45.98796154108196" lon="11.096651688592653"><ele>181.0</ele><time>2026-03-29T08:31:57Z</time></trkpt><trkpt lat="45.988184277102995" lon="11.09672918616847"><ele>181.0</ele><time>2026-03-29T08:31:58Z</time></trkpt><trkpt lat="45.9884263103103" lon="11.09679043979909"><ele>181.33333333333334</ele><time>2026-03-29T08:31:59Z</time></trkpt><trkpt lat="45.98862999208268" lon="11.096866324522479"><ele>181.66666666666666</ele><time>2026-03-29T08:32:00Z</time></trkpt><trkpt lat="45.98881190295303" lon="11.096931852028911"><ele>182.0</ele><time>2026-03-29T08:32:01Z</time></trkpt><trkpt lat="45.98899208725748" lon="11.096997201661331"><ele>182.0</ele><time>2026-03-29T08:32:02Z</time></trkpt><trkpt lat="45.98916513204985" lon="11.097061312239246"><ele>182.0</ele><time>2026-03-29T08:32:03Z</time></trkpt><trkpt lat="45.989338296715566" lon="11.097123854261996"><ele>182.0</ele><time>2026-03-29T08:32:04Z</time></trkpt><trkpt lat="45.989514187104035" lon="11.097187532295374"><ele>182.33333333333331</ele><time>2026-03-29T08:32:05Z</time></trkpt><trkpt lat="45.98969169769231" lon="11.097249996169879"><ele>182.66666666666666</ele><time>2026-03-29T08:32:06Z</time></trkpt><trkpt lat="45.98986256137617" lon="11.097301385186734"><ele>183.0</ele><time>2026-03-29T08:32:07Z</time></trkpt><trkpt lat="45.99003352729274" lon="11.097357910776266"><ele>182.66666666666666</ele><time>2026-03-29T08:32:08Z</time></trkpt><trkpt lat="45.99020644781537" lon="11.09741853521589"><ele>182.33333333333331</ele><time>2026-03-29T08:32:09Z</time></trkpt><trkpt lat="45.990382283316855" lon="11.097479917532423"><ele>182.0</ele><time>2026-03-29T08:32:10Z</time></trkpt><trkpt lat="45.99055662990657" lon="11.097561544986727"><ele>182.0</ele><time>2026-03-29T08:32:11Z</time></trkpt><trkpt lat="45.990734845118084" lon="11.097625106534561"><ele>182.0</ele><time>2026-03-29T08:32:12Z</time></trkpt><trkpt lat="45.99092032655673" lon="11.097666731322363"><ele>182.0</ele><time>2026-03-29T08:32:13Z</time></trkpt><trkpt lat="45.99110087074732" lon="11.097739155859115"><ele>182.0</ele><time>2026-03-29T08:32:14Z</time></trkpt><trkpt lat="45.99128603366752" lon="11.097798775984298"><ele>182.0</ele><time>2026-03-29T08:32:15Z</time></trkpt><trkpt lat="45.99146810989253" lon="11.09788662972473"><ele>182.0</ele><time>2026-03-29T08:32:16Z</time></trkpt><trkpt lat="45.99165239333422" lon="11.097951091831838"><ele>184.33333333333331</ele><time>2026-03-29T08:32:17Z</time></trkpt><trkpt lat="45.99184300657262" lon="11.098018016295775"><ele>186.66666666666666</ele><time>2026-03-29T08:32:18Z</time></trkpt><trkpt lat="45.992034330950446" lon="11.098065848901372"><ele>189.0</ele><time>2026-03-29T08:32:19.001Z</time></trkpt><trkpt lat="45.992228309944515" lon="11.098128804162707"><ele>189.0</ele><time>2026-03-29T08:32:20.001Z</time></trkpt><trkpt lat="45.99241440366686" lon="11.0982185384489"><ele>189.0</ele><time>2026-03-29T08:32:21.001Z</time></trkpt><trkpt lat="45.99260728445474" lon="11.098267525100985"><ele>189.0</ele><time>2026-03-29T08:32:22.001Z</time></trkpt><trkpt lat="45.992796354689496" lon="11.09834125706038"><ele>187.33333333333334</ele><time>2026-03-29T08:32:23.001Z</time></trkpt><trkpt lat="45.99298436877299" lon="11.098400744004719"><ele>185.66666666666669</ele><time>2026-03-29T08:32:24.001Z</time></trkpt><trkpt lat="45.993170086646735" lon="11.098483375371623"><ele>184.0</ele><time>2026-03-29T08:32:25.001Z</time></trkpt><trkpt lat="45.99336123860742" lon="11.098525685851342"><ele>184.0</ele><time>2026-03-29T08:32:26.001Z</time></trkpt><trkpt lat="45.993545774612734" lon="11.09860106966759"><ele>184.0</ele><time>2026-03-29T08:32:27.001Z</time></trkpt><trkpt lat="45.993731274255495" lon="11.098667452337077"><ele>184.0</ele><time>2026-03-29T08:32:28.001Z</time></trkpt><trkpt lat="45.99392197166766" lon="11.098738408921324"><ele>184.0</ele><time>2026-03-29T08:32:29.001Z</time></trkpt><trkpt lat="45.99411112599036" lon="11.098803679228686"><ele>184.0</ele><time>2026-03-29T08:32:30.001Z</time></trkpt><trkpt lat="45.99430210550465" lon="11.098872503521369"><ele>184.0</ele><time>2026-03-29T08:32:31.001Z</time></trkpt><trkpt lat="45.99448202784221" lon="11.098976430919246"><ele>184.33333333333334</ele><time>2026-03-29T08:32:32.001Z</time></trkpt><trkpt lat="45.99466785005837" lon="11.099051475490898"><ele>184.66666666666666</ele><time>2026-03-29T08:32:33.001Z</time></trkpt><trkpt lat="45.9948369147898" lon="11.099150041939513"><ele>185.0</ele><time>2026-03-29T08:32:34.001Z</time></trkpt><trkpt lat="45.99498283026305" lon="11.099242565986094"><ele>187.75</ele><time>2026-03-29T08:32:35.001Z</time></trkpt><trkpt lat="45.99511569296866" lon="11.099326977364933"><ele>190.5</ele><time>2026-03-29T08:32:36.001Z</time></trkpt><trkpt lat="45.995229294778" lon="11.0994102327629"><ele>193.25</ele><time>2026-03-29T08:32:37.001Z</time></trkpt><trkpt lat="45.99530961862089" lon="11.099491029740687"><ele>196.0</ele><time>2026-03-29T08:32:38Z</time></trkpt><trkpt lat="45.99536472011193" lon="11.099594357314912"><ele>196.0</ele><time>2026-03-29T08:32:39Z</time></trkpt><trkpt lat="45.99542119803652" lon="11.099654956338792"><ele>196.0</ele><time>2026-03-29T08:32:40Z</time></trkpt><trkpt lat="45.99532782066946" lon="11.099856975075024"><ele>196.0</ele><time>2026-03-29T08:32:41Z</time></trkpt><trkpt lat="45.99530059510252" lon="11.100004253495943"><ele>196.0</ele><time>2026-03-29T08:32:42Z</time></trkpt><trkpt lat="45.99526830076323" lon="11.100183134207748"><ele>193.0</ele><time>2026-03-29T08:32:43Z</time></trkpt><trkpt lat="45.99523614622709" lon="11.100371581252103"><ele>190.0</ele><time>2026-03-29T08:32:44Z</time></trkpt><trkpt lat="45.995201115652314" lon="11.100575631875548"><ele>187.0</ele><time>2026-03-29T08:32:45Z</time></trkpt><trkpt lat="45.99516038589345" lon="11.10080756526969"><ele>184.0</ele><time>2026-03-29T08:32:46Z</time></trkpt><trkpt lat="45.99511666677407" lon="11.101052898412545"><ele>183.0</ele><time>2026-03-29T08:32:47Z</time></trkpt><trkpt lat="45.99507182974878" lon="11.101306848166816"><ele>182.0</ele><time>2026-03-29T08:32:48Z</time></trkpt><trkpt lat="45.99504146779491" lon="11.101568253298094"><ele>181.0</ele><time>2026-03-29T08:32:49Z</time></trkpt><trkpt lat="45.9949951525426" lon="11.101821546318531"><ele>181.0</ele><time>2026-03-29T08:32:50Z</time></trkpt><trkpt lat="45.994950421132685" lon="11.102079868441244"><ele>181.0</ele><time>2026-03-29T08:32:51Z</time></trkpt><trkpt lat="45.99490327671467" lon="11.102349744643922"><ele>181.0</ele><time>2026-03-29T08:32:52Z</time></trkpt><trkpt lat="45.99485636639852" lon="11.102600618768959"><ele>181.33333333333334</ele><time>2026-03-29T08:32:53Z</time></trkpt><trkpt lat="45.994816295498964" lon="11.102836945869887"><ele>181.66666666666666</ele><time>2026-03-29T08:32:54Z</time></trkpt><trkpt lat="45.99478985056227" lon="11.103058609502284"><ele>182.0</ele><time>2026-03-29T08:32:55Z</time></trkpt><trkpt lat="45.99478684858137" lon="11.103280474102812"><ele>182.0</ele><time>2026-03-29T08:32:56Z</time></trkpt><trkpt lat="45.99481742372466" lon="11.103508050190012"><ele>182.0</ele><time>2026-03-29T08:32:57Z</time></trkpt><trkpt lat="45.99488060965307" lon="11.103728221789167"><ele>182.0</ele><time>2026-03-29T08:32:58Z</time></trkpt><trkpt lat="45.9949629347475" lon="11.103948803919014"><ele>182.0</ele><time>2026-03-29T08:32:59Z</time></trkpt><trkpt lat="45.99504534597087" lon="11.104176246494957"><ele>182.0</ele><time>2026-03-29T08:33:00Z</time></trkpt><trkpt lat="45.99514390743971" lon="11.104387282953873"><ele>182.0</ele><time>2026-03-29T08:33:01Z</time></trkpt><trkpt lat="45.99527289302221" lon="11.104574888925955"><ele>182.0</ele><time>2026-03-29T08:33:02Z</time></trkpt><trkpt lat="45.99541515498125" lon="11.104742084365283"><ele>182.0</ele><time>2026-03-29T08:33:03Z</time></trkpt><trkpt lat="45.9955770635743" lon="11.104883219393562"><ele>182.0</ele><time>2026-03-29T08:33:04Z</time></trkpt><trkpt lat="45.99575228476666" lon="11.104994445732434"><ele>181.66666666666666</ele><time>2026-03-29T08:33:05Z</time></trkpt><trkpt lat="45.995934711845806" lon="11.105100876577884"><ele>181.33333333333334</ele><time>2026-03-29T08:33:06Z</time></trkpt><trkpt lat="45.99611930994194" lon="11.105217700929842"><ele>181.0</ele><time>2026-03-29T08:33:07Z</time></trkpt><trkpt lat="45.99629272156115" lon="11.105364336584381"><ele>181.0</ele><time>2026-03-29T08:33:08Z</time></trkpt><trkpt lat="45.99642700838523" lon="11.1055742544143"><ele>181.0</ele><time>2026-03-29T08:33:09Z</time></trkpt><trkpt lat="45.99656369750899" lon="11.105779338912928"><ele>181.0</ele><time>2026-03-29T08:33:10Z</time></trkpt><trkpt lat="45.996706191882545" lon="11.105996028839517"><ele>181.0</ele><time>2026-03-29T08:33:11Z</time></trkpt><trkpt lat="45.99685164681078" lon="11.10622490212645"><ele>181.0</ele><time>2026-03-29T08:33:12Z</time></trkpt><trkpt lat="45.99699264782532" lon="11.106454942229563"><ele>181.0</ele><time>2026-03-29T08:33:13Z</time></trkpt><trkpt lat="45.99712164203359" lon="11.106645067897857"><ele>181.33333333333334</ele><time>2026-03-29T08:33:14Z</time></trkpt><trkpt lat="45.997208951797056" lon="11.106860316769076"><ele>181.66666666666666</ele><time>2026-03-29T08:33:15Z</time></trkpt><trkpt lat="45.99729100923305" lon="11.10708351194036"><ele>182.0</ele><time>2026-03-29T08:33:16Z</time></trkpt><trkpt lat="45.997363905730396" lon="11.107324263643976"><ele>182.0</ele><time>2026-03-29T08:33:17Z</time></trkpt><trkpt lat="45.99742402622063" lon="11.10756406645211"><ele>182.0</ele><time>2026-03-29T08:33:18Z</time></trkpt><trkpt lat="45.99748033906866" lon="11.107809877044371"><ele>182.0</ele><time>2026-03-29T08:33:19Z</time></trkpt><trkpt lat="45.99752669639324" lon="11.108058068991426"><ele>182.0</ele><time>2026-03-29T08:33:20Z</time></trkpt><trkpt lat="45.997563580774944" lon="11.108308654420366"><ele>182.0</ele><time>2026-03-29T08:33:21Z</time></trkpt><trkpt lat="45.997596068606946" lon="11.108559814814846"><ele>182.0</ele><time>2026-03-29T08:33:22Z</time></trkpt><trkpt lat="45.99762468155581" lon="11.108812676743677"><ele>182.0</ele><time>2026-03-29T08:33:23Z</time></trkpt><trkpt lat="45.997656894206145" lon="11.109075328922536"><ele>182.0</ele><time>2026-03-29T08:33:24Z</time></trkpt><trkpt lat="45.997706449530725" lon="11.109337922655833"><ele>182.0</ele><time>2026-03-29T08:33:25Z</time></trkpt><trkpt lat="45.997747358623585" lon="11.109600170558494"><ele>182.0</ele><time>2026-03-29T08:33:26Z</time></trkpt><trkpt lat="45.99779363217563" lon="11.109867138260702"><ele>182.0</ele><time>2026-03-29T08:33:27Z</time></trkpt><trkpt lat="45.99784984053334" lon="11.110129040716302"><ele>182.0</ele><time>2026-03-29T08:33:28Z</time></trkpt><trkpt lat="45.997911076310466" lon="11.110396087808278"><ele>182.0</ele><time>2026-03-29T08:33:29Z</time></trkpt><trkpt lat="45.9979838125162" lon="11.110657474512461"><ele>182.0</ele><time>2026-03-29T08:33:30Z</time></trkpt><trkpt lat="45.998061504990474" lon="11.110918286517357"><ele>182.0</ele><time>2026-03-29T08:33:31Z</time></trkpt><trkpt lat="45.99813889201951" lon="11.111182117715346"><ele>182.0</ele><time>2026-03-29T08:33:32Z</time></trkpt><trkpt lat="45.998220274976646" lon="11.111449337576797"><ele>182.0</ele><time>2026-03-29T08:33:33Z</time></trkpt><trkpt lat="45.998308539053845" lon="11.111713572161115"><ele>182.0</ele><time>2026-03-29T08:33:34Z</time></trkpt><trkpt lat="45.998408296471816" lon="11.111974200619285"><ele>182.0</ele><time>2026-03-29T08:33:35Z</time></trkpt><trkpt lat="45.99851574535519" lon="11.112225236758835"><ele>182.0</ele><time>2026-03-29T08:33:36Z</time></trkpt><trkpt lat="45.99862632724476" lon="11.112481502601504"><ele>182.0</ele><time>2026-03-29T08:33:37Z</time></trkpt><trkpt lat="45.998733060984996" lon="11.112748623183405"><ele>182.0</ele><time>2026-03-29T08:33:38Z</time></trkpt><trkpt lat="45.99884043859956" lon="11.113011089098586"><ele>182.0</ele><time>2026-03-29T08:33:39Z</time></trkpt><trkpt lat="45.99895067183727" lon="11.113278724113298"><ele>182.0</ele><time>2026-03-29T08:33:40Z</time></trkpt><trkpt lat="45.999059992276706" lon="11.113545615418051"><ele>182.0</ele><time>2026-03-29T08:33:41Z</time></trkpt><trkpt lat="45.99916897104558" lon="11.113808597067646"><ele>182.0</ele><time>2026-03-29T08:33:42Z</time></trkpt><trkpt lat="45.99927538695183" lon="11.114066156438316"><ele>182.0</ele><time>2026-03-29T08:33:43Z</time></trkpt><trkpt lat="45.9993815544027" lon="11.11430948904682"><ele>181.33333333333331</ele><time>2026-03-29T08:33:44Z</time></trkpt><trkpt lat="45.99948158168624" lon="11.114556173660898"><ele>180.66666666666666</ele><time>2026-03-29T08:33:45Z</time></trkpt><trkpt lat="45.99957883670494" lon="11.114798119933855"><ele>180.0</ele><time>2026-03-29T08:33:46Z</time></trkpt><trkpt lat="45.99967481248869" lon="11.115030669278019"><ele>180.0</ele><time>2026-03-29T08:33:47Z</time></trkpt><trkpt lat="45.999771730633014" lon="11.115260415347397"><ele>180.0</ele><time>2026-03-29T08:33:48Z</time></trkpt><trkpt lat="45.99987055825729" lon="11.115483529930106"><ele>180.0</ele><time>2026-03-29T08:33:49Z</time></trkpt><trkpt lat="45.99996668604671" lon="11.115714134134096"><ele>180.33333333333334</ele><time>2026-03-29T08:33:50Z</time></trkpt><trkpt lat="46.00005853994997" lon="11.115945698623415"><ele>180.66666666666669</ele><time>2026-03-29T08:33:51Z</time></trkpt><trkpt lat="46.00015232817975" lon="11.116175803424186"><ele>181.0</ele><time>2026-03-29T08:33:52Z</time></trkpt><trkpt lat="46.00024835102483" lon="11.116408467985785"><ele>181.0</ele><time>2026-03-29T08:33:53Z</time></trkpt><trkpt lat="46.00034110900282" lon="11.116646065381529"><ele>181.0</ele><time>2026-03-29T08:33:54Z</time></trkpt><trkpt lat="46.00044041986969" lon="11.11688043201185"><ele>181.0</ele><time>2026-03-29T08:33:55Z</time></trkpt><trkpt lat="46.00054067501353" lon="11.117117495483765"><ele>181.0</ele><time>2026-03-29T08:33:56Z</time></trkpt><trkpt lat="46.00063890936543" lon="11.117353245174614"><ele>181.0</ele><time>2026-03-29T08:33:57Z</time></trkpt><trkpt lat="46.000740500782136" lon="11.117598020272837"><ele>181.0</ele><time>2026-03-29T08:33:58Z</time></trkpt><trkpt lat="46.00084520962586" lon="11.117836826600215"><ele>181.0</ele><time>2026-03-29T08:33:59Z</time></trkpt><trkpt lat="46.000944407852494" lon="11.11808067462387"><ele>181.0</ele><time>2026-03-29T08:34:00Z</time></trkpt><trkpt lat="46.001047686901224" lon="11.118326646490095"><ele>181.0</ele><time>2026-03-29T08:34:01Z</time></trkpt><trkpt lat="46.001149353534885" lon="11.11857441419959"><ele>181.0</ele><time>2026-03-29T08:34:02Z</time></trkpt><trkpt lat="46.00125076523014" lon="11.118819451869198"><ele>181.0</ele><time>2026-03-29T08:34:03Z</time></trkpt><trkpt lat="46.001346561851946" lon="11.119056018661396"><ele>181.0</ele><time>2026-03-29T08:34:04Z</time></trkpt><trkpt lat="46.001431397957596" lon="11.119263342923608"><ele>181.0</ele><time>2026-03-29T08:34:05Z</time></trkpt><trkpt lat="46.00151055320723" lon="11.1194573096911"><ele>181.0</ele><time>2026-03-29T08:34:06Z</time></trkpt><trkpt lat="46.0015962297368" lon="11.119675659721079"><ele>181.0</ele><time>2026-03-29T08:34:07Z</time></trkpt><trkpt lat="46.00167601336216" lon="11.11987299703148"><ele>181.0</ele><time>2026-03-29T08:34:08Z</time></trkpt><trkpt lat="46.00175574628315" lon="11.120042959394594"><ele>181.0</ele><time>2026-03-29T08:34:09Z</time></trkpt><trkpt lat="46.001842494688766" lon="11.120185647217475"><ele>181.0</ele><time>2026-03-29T08:34:10Z</time></trkpt><trkpt lat="46.00194928358607" lon="11.120301919355892"><ele>181.0</ele><time>2026-03-29T08:34:11Z</time></trkpt><trkpt lat="46.00207018229644" lon="11.120406425498519"><ele>181.0</ele><time>2026-03-29T08:34:12Z</time></trkpt><trkpt lat="46.0021928502425" lon="11.120504805850276"><ele>181.0</ele><time>2026-03-29T08:34:13Z</time></trkpt><trkpt lat="46.00233086062122" lon="11.120580990670888"><ele>181.0</ele><time>2026-03-29T08:34:14Z</time></trkpt><trkpt lat="46.00249678496308" lon="11.120650357836164"><ele>181.0</ele><time>2026-03-29T08:34:15Z</time></trkpt><trkpt lat="46.002688387313164" lon="11.120696311398108"><ele>181.0</ele><time>2026-03-29T08:34:16Z</time></trkpt><trkpt lat="46.00289798696834" lon="11.12071838563257"><ele>181.0</ele><time>2026-03-29T08:34:17Z</time></trkpt><trkpt lat="46.00311297799101" lon="11.120718046087262"><ele>182.0</ele><time>2026-03-29T08:34:18Z</time></trkpt><trkpt lat="46.003337655256104" lon="11.120715857507914"><ele>183.0</ele><time>2026-03-29T08:34:19Z</time></trkpt><trkpt lat="46.00357533258212" lon="11.12072151421434"><ele>183.0</ele><time>2026-03-29T08:34:20Z</time></trkpt><trkpt lat="46.00380107774579" lon="11.12072014294477"><ele>183.0</ele><time>2026-03-29T08:34:21Z</time></trkpt><trkpt lat="46.0040176837423" lon="11.120729845254907"><ele>183.0</ele><time>2026-03-29T08:34:22Z</time></trkpt><trkpt lat="46.00421528933408" lon="11.120736419020236"><ele>181.33333333333334</ele><time>2026-03-29T08:34:23Z</time></trkpt><trkpt lat="46.004405852538326" lon="11.120740237116646"><ele>179.66666666666669</ele><time>2026-03-29T08:34:24Z</time></trkpt><trkpt lat="46.00460128627093" lon="11.120771494911104"><ele>178.0</ele><time>2026-03-29T08:34:25.001Z</time></trkpt><trkpt lat="46.004795907331044" lon="11.12077890674967"><ele>178.0</ele><time>2026-03-29T08:34:26.001Z</time></trkpt><trkpt lat="46.00499075124772" lon="11.1207863270748"><ele>178.0</ele><time>2026-03-29T08:34:27.001Z</time></trkpt><trkpt lat="46.00518258724678" lon="11.120770866399477"><ele>178.0</ele><time>2026-03-29T08:34:28.001Z</time></trkpt><trkpt lat="46.00537116186456" lon="11.120800814410215"><ele>178.66666666666669</ele><time>2026-03-29T08:34:29.001Z</time></trkpt><trkpt lat="46.00556761416512" lon="11.120785048770248"><ele>179.33333333333334</ele><time>2026-03-29T08:34:30.001Z</time></trkpt><trkpt lat="46.005760251309916" lon="11.120815632150038"><ele>180.0</ele><time>2026-03-29T08:34:31.001Z</time></trkpt><trkpt lat="46.005953353495904" lon="11.120803838628243"><ele>180.33333333333334</ele><time>2026-03-29T08:34:32.001Z</time></trkpt><trkpt lat="46.006150983464195" lon="11.120818733098035"><ele>180.66666666666669</ele><time>2026-03-29T08:34:33.001Z</time></trkpt><trkpt lat="46.00635169202768" lon="11.1208278573479"><ele>181.0</ele><time>2026-03-29T08:34:34.001Z</time></trkpt><trkpt lat="46.00655367970385" lon="11.120827155957379"><ele>181.0</ele><time>2026-03-29T08:34:35.001Z</time></trkpt><trkpt lat="46.006736887890405" lon="11.120817987896972"><ele>181.0</ele><time>2026-03-29T08:34:36Z</time></trkpt><trkpt lat="46.00691486061196" lon="11.120797632152751"><ele>181.0</ele><time>2026-03-29T08:34:37Z</time></trkpt><trkpt lat="46.00710586903174" lon="11.12073343429237"><ele>181.0</ele><time>2026-03-29T08:34:38Z</time></trkpt><trkpt lat="46.00730030954889" lon="11.120661524667463"><ele>181.0</ele><time>2026-03-29T08:34:39Z</time></trkpt><trkpt lat="46.007501223987404" lon="11.120585808931558"><ele>181.0</ele><time>2026-03-29T08:34:40Z</time></trkpt><trkpt lat="46.007694880490625" lon="11.12051221298547"><ele>181.0</ele><time>2026-03-29T08:34:41Z</time></trkpt><trkpt lat="46.007868772518385" lon="11.12044837079657"><ele>181.0</ele><time>2026-03-29T08:34:42Z</time></trkpt><trkpt lat="46.00805277298151" lon="11.12038720762916"><ele>181.0</ele><time>2026-03-29T08:34:43Z</time></trkpt><trkpt lat="46.008236557500695" lon="11.120327360575283"><ele>180.66666666666669</ele><time>2026-03-29T08:34:44Z</time></trkpt><trkpt lat="46.00840696093" lon="11.12027134452907"><ele>180.33333333333334</ele><time>2026-03-29T08:34:45Z</time></trkpt><trkpt lat="46.00857742874715" lon="11.120207339502008"><ele>180.0</ele><time>2026-03-29T08:34:46Z</time></trkpt><trkpt lat="46.00874165840607" lon="11.120147533708842"><ele>180.0</ele><time>2026-03-29T08:34:47Z</time></trkpt><trkpt lat="46.00888670840635" lon="11.120099809488298"><ele>180.0</ele><time>2026-03-29T08:34:48Z</time></trkpt><trkpt lat="46.00901168600277" lon="11.12009258641957"><ele>180.0</ele><time>2026-03-29T08:34:49Z</time></trkpt><trkpt lat="46.00913126991951" lon="11.120055298968808"><ele>180.0</ele><time>2026-03-29T08:34:50Z</time></trkpt><trkpt lat="46.00924791060233" lon="11.120134222504937"><ele>180.0</ele><time>2026-03-29T08:34:51Z</time></trkpt><trkpt lat="46.00934928182968" lon="11.120212917644501"><ele>180.0</ele><time>2026-03-29T08:34:52Z</time></trkpt><trkpt lat="46.00945370077727" lon="11.120307426627633"><ele>180.0</ele><time>2026-03-29T08:34:53Z</time></trkpt><trkpt lat="46.009517772661106" lon="11.120460641746226"><ele>180.0</ele><time>2026-03-29T08:34:54Z</time></trkpt><trkpt lat="46.009572351507515" lon="11.120627442286963"><ele>180.33333333333334</ele><time>2026-03-29T08:34:55Z</time></trkpt><trkpt lat="46.00960467789891" lon="11.120827698577243"><ele>180.66666666666669</ele><time>2026-03-29T08:34:56Z</time></trkpt><trkpt lat="46.009606157341054" lon="11.121045502129205"><ele>181.0</ele><time>2026-03-29T08:34:57Z</time></trkpt><trkpt lat="46.009603073631624" lon="11.121279531366289"><ele>181.0</ele><time>2026-03-29T08:34:58Z</time></trkpt><trkpt lat="46.00960084081845" lon="11.121535858673692"><ele>181.0</ele><time>2026-03-29T08:34:59Z</time></trkpt><trkpt lat="46.00959840916803" lon="11.121774502051425"><ele>181.0</ele><time>2026-03-29T08:35:00Z</time></trkpt><trkpt lat="46.00959667105659" lon="11.122018964604495"><ele>181.33333333333334</ele><time>2026-03-29T08:35:01Z</time></trkpt><trkpt lat="46.009594954685916" lon="11.122258142095191"><ele>181.66666666666666</ele><time>2026-03-29T08:35:02Z</time></trkpt><trkpt lat="46.009592862536735" lon="11.122501560986835"><ele>182.0</ele><time>2026-03-29T08:35:03Z</time></trkpt><trkpt lat="46.0095906375135" lon="11.12274563806131"><ele>182.0</ele><time>2026-03-29T08:35:04Z</time></trkpt><trkpt lat="46.00960298865334" lon="11.122993102331877"><ele>182.0</ele><time>2026-03-29T08:35:05Z</time></trkpt><trkpt lat="46.0095964237074" lon="11.123231863013517"><ele>182.0</ele><time>2026-03-29T08:35:06Z</time></trkpt><trkpt lat="46.00958832884466" lon="11.12344940295852"><ele>182.0</ele><time>2026-03-29T08:35:07Z</time></trkpt><trkpt lat="46.00958972822315" lon="11.123640457348943"><ele>182.0</ele><time>2026-03-29T08:35:08Z</time></trkpt><trkpt lat="46.00956227517999" lon="11.123835667267459"><ele>182.0</ele><time>2026-03-29T08:35:09Z</time></trkpt><trkpt lat="46.00953032267794" lon="11.124046299582547"><ele>182.0</ele><time>2026-03-29T08:35:10Z</time></trkpt><trkpt lat="46.00949926889479" lon="11.124262862329793"><ele>182.0</ele><time>2026-03-29T08:35:11Z</time></trkpt><trkpt lat="46.009463213748305" lon="11.124482271182698"><ele>182.0</ele><time>2026-03-29T08:35:12Z</time></trkpt><trkpt lat="46.009429783581034" lon="11.124705919622338"><ele>182.0</ele><time>2026-03-29T08:35:13Z</time></trkpt><trkpt lat="46.00939373947083" lon="11.124928137639328"><ele>182.0</ele><time>2026-03-29T08:35:14Z</time></trkpt><trkpt lat="46.009360419574364" lon="11.125148571741647"><ele>182.0</ele><time>2026-03-29T08:35:15Z</time></trkpt><trkpt lat="46.00932585397861" lon="11.125373804759704"><ele>182.0</ele><time>2026-03-29T08:35:16Z</time></trkpt><trkpt lat="46.009288722153464" lon="11.12557578485859"><ele>182.25</ele><time>2026-03-29T08:35:17Z</time></trkpt><trkpt lat="46.00925709510043" lon="11.125781135504148"><ele>182.5</ele><time>2026-03-29T08:35:18Z</time></trkpt><trkpt lat="46.00923721871018" lon="11.125984965622337"><ele>182.75</ele><time>2026-03-29T08:35:19Z</time></trkpt><trkpt lat="46.009192710624184" lon="11.126176104099402"><ele>183.0</ele><time>2026-03-29T08:35:20Z</time></trkpt><trkpt lat="46.00918023123335" lon="11.126362816426724"><ele>183.75</ele><time>2026-03-29T08:35:21Z</time></trkpt><trkpt lat="46.0091464548904" lon="11.126550078607316"><ele>184.5</ele><time>2026-03-29T08:35:22Z</time></trkpt><trkpt lat="46.009109316484896" lon="11.126743844846088"><ele>185.25</ele><time>2026-03-29T08:35:23Z</time></trkpt><trkpt lat="46.00908173464359" lon="11.126923377371678"><ele>186.0</ele><time>2026-03-29T08:35:24Z</time></trkpt><trkpt lat="46.0090571335008" lon="11.127091213781663"><ele>186.16666666666666</ele><time>2026-03-29T08:35:25Z</time></trkpt><trkpt lat="46.00903066393261" lon="11.127243433444196"><ele>186.33333333333334</ele><time>2026-03-29T08:35:26Z</time></trkpt><trkpt lat="46.00901113198667" lon="11.127376730256037"><ele>186.5</ele><time>2026-03-29T08:35:27Z</time></trkpt><trkpt lat="46.00899444701215" lon="11.127489809371154"><ele>186.66666666666669</ele><time>2026-03-29T08:35:28Z</time></trkpt><trkpt lat="46.00895968216692" lon="11.12758079963585"><ele>186.83333333333334</ele><time>2026-03-29T08:35:30Z</time></trkpt><trkpt lat="46.00887581355153" lon="11.127628612115162"><ele>187.0</ele><time>2026-03-29T08:35:33Z</time></trkpt><trkpt lat="46.00881689810999" lon="11.127585066948917"><ele>187.0</ele><time>2026-03-29T08:35:34Z</time></trkpt><trkpt lat="46.008733753442634" lon="11.127509318117706"><ele>187.0</ele><time>2026-03-29T08:35:35Z</time></trkpt><trkpt lat="46.00862780079295" lon="11.127434239307993"><ele>187.0</ele><time>2026-03-29T08:35:36Z</time></trkpt><trkpt lat="46.008509958953674" lon="11.127355753592388"><ele>187.0</ele><time>2026-03-29T08:35:37Z</time></trkpt><trkpt lat="46.008380411414485" lon="11.127273041487461"><ele>188.33333333333334</ele><time>2026-03-29T08:35:38Z</time></trkpt><trkpt lat="46.00822511425306" lon="11.127179918850649"><ele>189.66666666666666</ele><time>2026-03-29T08:35:39Z</time></trkpt><trkpt lat="46.00804853296785" lon="11.127078819994098"><ele>191.0</ele><time>2026-03-29T08:35:40Z</time></trkpt><trkpt lat="46.00785957472943" lon="11.126993979187723"><ele>191.0</ele><time>2026-03-29T08:35:41Z</time></trkpt><trkpt lat="46.00770245986282" lon="11.126932594698914"><ele>191.0</ele><time>2026-03-29T08:35:42Z</time></trkpt><trkpt lat="46.00755816402234" lon="11.126889827441847"><ele>191.0</ele><time>2026-03-29T08:35:43Z</time></trkpt><trkpt lat="46.007418694861656" lon="11.126852599401008"><ele>191.75</ele><time>2026-03-29T08:35:44Z</time></trkpt><trkpt lat="46.00728386461213" lon="11.126813746280657"><ele>192.5</ele><time>2026-03-29T08:35:45Z</time></trkpt><trkpt lat="46.00715134900138" lon="11.126779755816035"><ele>193.25</ele><time>2026-03-29T08:35:46Z</time></trkpt><trkpt lat="46.00701750846748" lon="11.126761989192367"><ele>194.0</ele><time>2026-03-29T08:35:47Z</time></trkpt><trkpt lat="46.00687315863797" lon="11.126742626243344"><ele>194.0</ele><time>2026-03-29T08:35:48Z</time></trkpt><trkpt lat="46.006734663740104" lon="11.126728087257257"><ele>194.0</ele><time>2026-03-29T08:35:49Z</time></trkpt><trkpt lat="46.006587223079535" lon="11.126719568732794"><ele>194.0</ele><time>2026-03-29T08:35:50Z</time></trkpt><trkpt lat="46.00645479579729" lon="11.126703904876154"><ele>194.0</ele><time>2026-03-29T08:35:51Z</time></trkpt><trkpt lat="46.00633121781757" lon="11.126697869854715"><ele>194.0</ele><time>2026-03-29T08:35:52Z</time></trkpt><trkpt lat="46.00620522315829" lon="11.12668715177095"><ele>194.0</ele><time>2026-03-29T08:35:53Z</time></trkpt><trkpt lat="46.00607503155373" lon="11.126675414040283"><ele>194.0</ele><time>2026-03-29T08:35:54Z</time></trkpt><trkpt lat="46.005938940650594" lon="11.126663952109029"><ele>194.0</ele><time>2026-03-29T08:35:55Z</time></trkpt><trkpt lat="46.005804500883244" lon="11.12665143918864"><ele>194.0</ele><time>2026-03-29T08:35:56Z</time></trkpt><trkpt lat="46.00566946310651" lon="11.12663970273805"><ele>194.0</ele><time>2026-03-29T08:35:57Z</time></trkpt><trkpt lat="46.00553213679709" lon="11.126625839287623"><ele>194.0</ele><time>2026-03-29T08:35:58Z</time></trkpt><trkpt lat="46.00539903080931" lon="11.126617191955233"><ele>194.0</ele><time>2026-03-29T08:35:59Z</time></trkpt><trkpt lat="46.00525737468416" lon="11.126605022226386"><ele>194.0</ele><time>2026-03-29T08:36:00Z</time></trkpt><trkpt lat="46.00511989835275" lon="11.126592199427426"><ele>194.0</ele><time>2026-03-29T08:36:01Z</time></trkpt><trkpt lat="46.00498317375393" lon="11.126579211192224"><ele>194.0</ele><time>2026-03-29T08:36:02Z</time></trkpt><trkpt lat="46.00484695495427" lon="11.126564195190925"><ele>194.0</ele><time>2026-03-29T08:36:03Z</time></trkpt><trkpt lat="46.00471361675998" lon="11.126551252133057"><ele>193.5</ele><time>2026-03-29T08:36:04Z</time></trkpt><trkpt lat="46.00457633182959" lon="11.126538299287654"><ele>193.0</ele><time>2026-03-29T08:36:05Z</time></trkpt><trkpt lat="46.00443723920492" lon="11.126527161064129"><ele>192.5</ele><time>2026-03-29T08:36:06Z</time></trkpt><trkpt lat="46.00429897309962" lon="11.126513089369913"><ele>192.0</ele><time>2026-03-29T08:36:07Z</time></trkpt><trkpt lat="46.00415745571649" lon="11.126493698746856"><ele>192.0</ele><time>2026-03-29T08:36:08Z</time></trkpt><trkpt lat="46.004015483981775" lon="11.126470719230003"><ele>192.0</ele><time>2026-03-29T08:36:09Z</time></trkpt><trkpt lat="46.00387027713623" lon="11.126465775412836"><ele>192.0</ele><time>2026-03-29T08:36:10Z</time></trkpt><trkpt lat="46.00372350287582" lon="11.126448431130513"><ele>192.0</ele><time>2026-03-29T08:36:11Z</time></trkpt><trkpt lat="46.003580091003485" lon="11.12643468678689"><ele>192.0</ele><time>2026-03-29T08:36:12Z</time></trkpt><trkpt lat="46.003447280334925" lon="11.12642128982966"><ele>192.0</ele><time>2026-03-29T08:36:13Z</time></trkpt><trkpt lat="46.00330847565517" lon="11.126415051041715"><ele>192.0</ele><time>2026-03-29T08:36:14Z</time></trkpt><trkpt lat="46.00317029005122" lon="11.126399058737466"><ele>192.0</ele><time>2026-03-29T08:36:15Z</time></trkpt><trkpt lat="46.00303179225247" lon="11.126384258263014"><ele>191.75</ele><time>2026-03-29T08:36:16Z</time></trkpt><trkpt lat="46.00289784609175" lon="11.126370658473684"><ele>191.5</ele><time>2026-03-29T08:36:17Z</time></trkpt><trkpt lat="46.00275585094993" lon="11.126353425663268"><ele>191.25</ele><time>2026-03-29T08:36:18Z</time></trkpt><trkpt lat="46.00260926184714" lon="11.12633994197281"><ele>191.0</ele><time>2026-03-29T08:36:19Z</time></trkpt><trkpt lat="46.00247141376062" lon="11.126322311944921"><ele>191.0</ele><time>2026-03-29T08:36:19.999Z</time></trkpt><trkpt lat="46.0023536523561" lon="11.126306065792559"><ele>191.0</ele><time>2026-03-29T08:36:20.999Z</time></trkpt><trkpt lat="46.002254338482196" lon="11.126311658123196"><ele>191.0</ele><time>2026-03-29T08:36:21.999Z</time></trkpt><trkpt lat="46.002172512271336" lon="11.126319577689854"><ele>191.0</ele><time>2026-03-29T08:36:22.999Z</time></trkpt><trkpt lat="46.00207659628889" lon="11.126287098357885"><ele>191.0</ele><time>2026-03-29T08:36:24.999Z</time></trkpt><trkpt lat="46.00207687994572" lon="11.126567468232944"><ele>191.4</ele><time>2026-03-29T08:36:27.999Z</time></trkpt><trkpt lat="46.00219247095188" lon="11.126665441878536"><ele>191.8</ele><time>2026-03-29T08:36:29.999Z</time></trkpt><trkpt lat="46.002270285472356" lon="11.126688354611511"><ele>192.20000000000002</ele><time>2026-03-29T08:36:31Z</time></trkpt><trkpt lat="46.00238404989764" lon="11.126728116643516"><ele>192.60000000000002</ele><time>2026-03-29T08:36:33Z</time></trkpt><trkpt lat="46.00241847513642" lon="11.126804779616519"><ele>193.0</ele><time>2026-03-29T08:36:34Z</time></trkpt><trkpt lat="46.00243525583605" lon="11.126906990169132"><ele>193.0</ele><time>2026-03-29T08:36:35Z</time></trkpt><trkpt lat="46.0024304225965" lon="11.127036386102438"><ele>193.0</ele><time>2026-03-29T08:36:36Z</time></trkpt><trkpt lat="46.00242907324524" lon="11.127185155682954"><ele>193.0</ele><time>2026-03-29T08:36:37Z</time></trkpt><trkpt lat="46.002432070003536" lon="11.127332385624534"><ele>193.0</ele><time>2026-03-29T08:36:38Z</time></trkpt><trkpt lat="46.00244037319552" lon="11.127470710111774"><ele>193.0</ele><time>2026-03-29T08:36:39Z</time></trkpt><trkpt lat="46.00242581469883" lon="11.127625376135043"><ele>193.2</ele><time>2026-03-29T08:36:40Z</time></trkpt><trkpt lat="46.00243205782549" lon="11.127778241731349"><ele>193.4</ele><time>2026-03-29T08:36:41Z</time></trkpt><trkpt lat="46.00243786836844" lon="11.127908226644164"><ele>193.6</ele><time>2026-03-29T08:36:42Z</time></trkpt><trkpt lat="46.002461106639394" lon="11.12803361415825"><ele>193.79999999999998</ele><time>2026-03-29T08:36:43Z</time></trkpt><trkpt lat="46.00248129383654" lon="11.128160967077097"><ele>194.0</ele><time>2026-03-29T08:36:44Z</time></trkpt><trkpt lat="46.00250407863513" lon="11.128270236739791"><ele>194.83333333333334</ele><time>2026-03-29T08:36:45Z</time></trkpt><trkpt lat="46.00253744118983" lon="11.128382999844668"><ele>195.66666666666669</ele><time>2026-03-29T08:36:46Z</time></trkpt><trkpt lat="46.00257193942155" lon="11.128500058074135"><ele>196.5</ele><time>2026-03-29T08:36:47Z</time></trkpt><trkpt lat="46.00260661138127" lon="11.12859077151883"><ele>197.33333333333331</ele><time>2026-03-29T08:36:48Z</time></trkpt><trkpt lat="46.00264195355189" lon="11.128726294280241"><ele>198.16666666666666</ele><time>2026-03-29T08:36:50Z</time></trkpt><trkpt lat="46.00267994575761" lon="11.1288232695015"><ele>199.0</ele><time>2026-03-29T08:36:52Z</time></trkpt><trkpt lat="46.00275704269633" lon="11.128993810520527"><ele>199.75</ele><time>2026-03-29T08:36:54Z</time></trkpt><trkpt lat="46.002836322291856" lon="11.129097521003715"><ele>200.5</ele><time>2026-03-29T08:36:55Z</time></trkpt><trkpt lat="46.002915369448424" lon="11.129233748218095"><ele>201.25</ele><time>2026-03-29T08:36:56Z</time></trkpt><trkpt lat="46.003018076438714" lon="11.129386494100588"><ele>202.0</ele><time>2026-03-29T08:36:57Z</time></trkpt><trkpt lat="46.00313191165863" lon="11.129517405230628"><ele>202.0</ele><time>2026-03-29T08:36:58Z</time></trkpt><trkpt lat="46.003239266804194" lon="11.129649567597962"><ele>202.0</ele><time>2026-03-29T08:36:59Z</time></trkpt><trkpt lat="46.003334324954906" lon="11.12975426092332"><ele>202.0</ele><time>2026-03-29T08:37:00Z</time></trkpt><trkpt lat="46.003434075660216" lon="11.129850338221484"><ele>202.0</ele><time>2026-03-29T08:37:01Z</time></trkpt><trkpt lat="46.003527525111025" lon="11.129947125100918"><ele>203.39999999999998</ele><time>2026-03-29T08:37:02Z</time></trkpt><trkpt lat="46.00362163707166" lon="11.13003963283066"><ele>204.79999999999998</ele><time>2026-03-29T08:37:03Z</time></trkpt><trkpt lat="46.0037209364685" lon="11.130128421539403"><ele>206.2</ele><time>2026-03-29T08:37:04Z</time></trkpt><trkpt lat="46.00380094251845" lon="11.130191058937415"><ele>207.6</ele><time>2026-03-29T08:37:05Z</time></trkpt><trkpt lat="46.00387820927085" lon="11.130248321877183"><ele>209.0</ele><time>2026-03-29T08:37:06Z</time></trkpt><trkpt lat="46.003945365706706" lon="11.130306225981576"><ele>209.0</ele><time>2026-03-29T08:37:07Z</time></trkpt><trkpt lat="46.00402290253315" lon="11.130420903652821"><ele>209.0</ele><time>2026-03-29T08:37:09Z</time></trkpt><trkpt lat="46.00411190679821" lon="11.130522023117248"><ele>209.0</ele><time>2026-03-29T08:37:11Z</time></trkpt><trkpt lat="46.00407689016874" lon="11.130676050930662"><ele>209.0</ele><time>2026-03-29T08:37:12Z</time></trkpt><trkpt lat="46.004106582508946" lon="11.130777374660115"><ele>209.0</ele><time>2026-03-29T08:37:13Z</time></trkpt><trkpt lat="46.004157123302335" lon="11.130889933476313"><ele>209.79999999999998</ele><time>2026-03-29T08:37:14Z</time></trkpt><trkpt lat="46.004213160968575" lon="11.131002906501525"><ele>210.6</ele><time>2026-03-29T08:37:15Z</time></trkpt><trkpt lat="46.00426482214608" lon="11.131107374901617"><ele>211.4</ele><time>2026-03-29T08:37:16Z</time></trkpt><trkpt lat="46.004323265695184" lon="11.131218430229417"><ele>212.2</ele><time>2026-03-29T08:37:17Z</time></trkpt><trkpt lat="46.00436287022154" lon="11.131301508641199"><ele>213.0</ele><time>2026-03-29T08:37:18Z</time></trkpt><trkpt lat="46.0044117024283" lon="11.13144741511147"><ele>213.4</ele><time>2026-03-29T08:37:20Z</time></trkpt><trkpt lat="46.004433415054635" lon="11.131628749494457"><ele>213.8</ele><time>2026-03-29T08:37:22Z</time></trkpt><trkpt lat="46.004425004585926" lon="11.131730711361566"><ele>214.2</ele><time>2026-03-29T08:37:23Z</time></trkpt><trkpt lat="46.00444928782363" lon="11.131855701515075"><ele>214.6</ele><time>2026-03-29T08:37:24Z</time></trkpt><trkpt lat="46.00450482981443" lon="11.132012556784382"><ele>215.0</ele><time>2026-03-29T08:37:25Z</time></trkpt><trkpt lat="46.00458721389953" lon="11.132114193692463"><ele>215.00000000000003</ele><time>2026-03-29T08:37:26Z</time></trkpt><trkpt lat="46.00464884946255" lon="11.132229688706818"><ele>215.0</ele><time>2026-03-29T08:37:27Z</time></trkpt><trkpt lat="46.004724149109734" lon="11.132316590500409"><ele>215.0</ele><time>2026-03-29T08:37:28Z</time></trkpt><trkpt lat="46.0047714372202" lon="11.132389862305573"><ele>215.0</ele><time>2026-03-29T08:37:29Z</time></trkpt><trkpt lat="46.00485054188437" lon="11.132490748591966"><ele>215.00000000000003</ele><time>2026-03-29T08:37:31Z</time></trkpt><trkpt lat="46.004901209315214" lon="11.132563071482451"><ele>215.0</ele><time>2026-03-29T08:37:32Z</time></trkpt><trkpt lat="46.00495734289" lon="11.13265257204248"><ele>216.4</ele><time>2026-03-29T08:37:33Z</time></trkpt><trkpt lat="46.0049987208081" lon="11.132765995233319"><ele>217.8</ele><time>2026-03-29T08:37:34Z</time></trkpt><trkpt lat="46.005029539640105" lon="11.132858987348703"><ele>219.2</ele><time>2026-03-29T08:37:35Z</time></trkpt><trkpt lat="46.00507871758608" lon="11.132985822167486"><ele>220.6</ele><time>2026-03-29T08:37:37Z</time></trkpt><trkpt lat="46.005118676824196" lon="11.133168979849172"><ele>222.0</ele><time>2026-03-29T08:37:39Z</time></trkpt><trkpt lat="46.00514812981048" lon="11.133284566473904"><ele>222.8</ele><time>2026-03-29T08:37:40Z</time></trkpt><trkpt lat="46.00517241951939" lon="11.133382188743337"><ele>223.6</ele><time>2026-03-29T08:37:41Z</time></trkpt><trkpt lat="46.005226203255454" lon="11.133535512174578"><ele>224.40000000000003</ele><time>2026-03-29T08:37:43Z</time></trkpt><trkpt lat="46.00523048195637" lon="11.133656107188397"><ele>225.20000000000002</ele><time>2026-03-29T08:37:44Z</time></trkpt><trkpt lat="46.0052613544982" lon="11.133781104297116"><ele>226.0</ele><time>2026-03-29T08:37:45Z</time></trkpt><trkpt lat="46.00530509517331" lon="11.133899762535153"><ele>226.0</ele><time>2026-03-29T08:37:46Z</time></trkpt><trkpt lat="46.00537511481422" lon="11.13399017153271"><ele>226.00000000000003</ele><time>2026-03-29T08:37:47Z</time></trkpt><trkpt lat="46.00549206526277" lon="11.134004726956478"><ele>226.00000000000003</ele><time>2026-03-29T08:37:48Z</time></trkpt><trkpt lat="46.0056166249461" lon="11.134029829770647"><ele>226.0</ele><time>2026-03-29T08:37:49Z</time></trkpt><trkpt lat="46.005717922824" lon="11.134093513670305"><ele>226.0</ele><time>2026-03-29T08:37:50Z</time></trkpt><trkpt lat="46.00580584473024" lon="11.134199214640082"><ele>228.0</ele><time>2026-03-29T08:37:51Z</time></trkpt><trkpt lat="46.0058673525334" lon="11.13434570024926"><ele>230.0</ele><time>2026-03-29T08:37:52Z</time></trkpt><trkpt lat="46.00591551999691" lon="11.134508396095429"><ele>232.0</ele><time>2026-03-29T08:37:53Z</time></trkpt><trkpt lat="46.005952836636126" lon="11.134688006233981"><ele>234.0</ele><time>2026-03-29T08:37:54Z</time></trkpt><trkpt lat="46.00598189475888" lon="11.134890889856413"><ele>235.25</ele><time>2026-03-29T08:37:55Z</time></trkpt><trkpt lat="46.00598498483141" lon="11.135114865338197"><ele>236.5</ele><time>2026-03-29T08:37:56Z</time></trkpt><trkpt lat="46.00601655421801" lon="11.135321432126968"><ele>237.75</ele><time>2026-03-29T08:37:57Z</time></trkpt><trkpt lat="46.00604334671483" lon="11.135495563674278"><ele>239.0</ele><time>2026-03-29T08:37:58Z</time></trkpt><trkpt lat="46.00606762023052" lon="11.135653323618088"><ele>240.16666666666669</ele><time>2026-03-29T08:37:59Z</time></trkpt><trkpt lat="46.00610297594482" lon="11.135772354358838"><ele>241.33333333333334</ele><time>2026-03-29T08:38:00Z</time></trkpt><trkpt lat="46.00610381975857" lon="11.135888593927334"><ele>242.5</ele><time>2026-03-29T08:38:01Z</time></trkpt><trkpt lat="46.0061292001304" lon="11.135998263980765"><ele>243.66666666666669</ele><time>2026-03-29T08:38:02Z</time></trkpt><trkpt lat="46.00614527551254" lon="11.13610165322815"><ele>244.83333333333334</ele><time>2026-03-29T08:38:03Z</time></trkpt><trkpt lat="46.0061635257838" lon="11.136225537903616"><ele>246.0</ele><time>2026-03-29T08:38:04Z</time></trkpt><trkpt lat="46.00618563103813" lon="11.136372437986399"><ele>246.0</ele><time>2026-03-29T08:38:05Z</time></trkpt><trkpt lat="46.00621019553841" lon="11.136533195905104"><ele>246.0</ele><time>2026-03-29T08:38:06Z</time></trkpt><trkpt lat="46.00623665038628" lon="11.136685285693288"><ele>246.0</ele><time>2026-03-29T08:38:07Z</time></trkpt><trkpt lat="46.00626814994804" lon="11.136783325270255"><ele>246.0</ele><time>2026-03-29T08:38:07.999Z</time></trkpt><trkpt lat="46.006322911886606" lon="11.136843682608863"><ele>246.0</ele><time>2026-03-29T08:38:08.999Z</time></trkpt><trkpt lat="46.00639907314719" lon="11.136860597637499"><ele>246.0</ele><time>2026-03-29T08:38:09.999Z</time></trkpt><trkpt lat="46.006493654655806" lon="11.136862256781345"><ele>247.25</ele><time>2026-03-29T08:38:10.999Z</time></trkpt><trkpt lat="46.00659965242939" lon="11.136889024831177"><ele>248.5</ele><time>2026-03-29T08:38:11.999Z</time></trkpt><trkpt lat="46.006707039982885" lon="11.136936543735228"><ele>249.75</ele><time>2026-03-29T08:38:12.999Z</time></trkpt><trkpt lat="46.00684981291277" lon="11.136962055859573"><ele>251.0</ele><time>2026-03-29T08:38:13.999Z</time></trkpt><trkpt lat="46.007029333274254" lon="11.136951122014505"><ele>252.0</ele><time>2026-03-29T08:38:14.999Z</time></trkpt><trkpt lat="46.007223890356215" lon="11.136946953786286"><ele>253.0</ele><time>2026-03-29T08:38:15.999Z</time></trkpt><trkpt lat="46.00741740386244" lon="11.136950013346368"><ele>254.0</ele><time>2026-03-29T08:38:16.999Z</time></trkpt><trkpt lat="46.007559926904555" lon="11.136946273279742"><ele>256.0</ele><time>2026-03-29T08:38:17.999Z</time></trkpt><trkpt lat="46.007660638210716" lon="11.136977496107635"><ele>258.0</ele><time>2026-03-29T08:38:18.999Z</time></trkpt><trkpt lat="46.0077413274613" lon="11.136978832542251"><ele>260.0</ele><time>2026-03-29T08:38:19.999Z</time></trkpt><trkpt lat="46.00777575041227" lon="11.137107554528749"><ele>262.0</ele><time>2026-03-29T08:38:20.999Z</time></trkpt><trkpt lat="46.00779025219113" lon="11.137249358744876"><ele>264.0</ele><time>2026-03-29T08:38:21.999Z</time></trkpt><trkpt lat="46.007841562319406" lon="11.137427407711835"><ele>267.6666666666667</ele><time>2026-03-29T08:38:22.999Z</time></trkpt><trkpt lat="46.007879685198425" lon="11.137632107356911"><ele>271.33333333333337</ele><time>2026-03-29T08:38:23.999Z</time></trkpt><trkpt lat="46.00791221386414" lon="11.137892968366906"><ele>275.0</ele><time>2026-03-29T08:38:24.999Z</time></trkpt><trkpt lat="46.00799770723188" lon="11.138131948543815"><ele>280.0</ele><time>2026-03-29T08:38:25.999Z</time></trkpt><trkpt lat="46.00808119268701" lon="11.13840538212366"><ele>285.0</ele><time>2026-03-29T08:38:26.999Z</time></trkpt><trkpt lat="46.00815767313845" lon="11.138653266685914"><ele>290.0</ele><time>2026-03-29T08:38:27.999Z</time></trkpt><trkpt lat="46.00821339482708" lon="11.138835487077676"><ele>290.0</ele><time>2026-03-29T08:38:28.999Z</time></trkpt><trkpt lat="46.00828522428114" lon="11.13900563525432"><ele>290.0</ele><time>2026-03-29T08:38:29.999Z</time></trkpt><trkpt lat="46.00837064748003" lon="11.139149628885052"><ele>290.0</ele><time>2026-03-29T08:38:30.999Z</time></trkpt><trkpt lat="46.00844995526565" lon="11.139251827622287"><ele>290.0</ele><time>2026-03-29T08:38:31.999Z</time></trkpt><trkpt lat="46.00854237460521" lon="11.139313298933832"><ele>290.75</ele><time>2026-03-29T08:38:32.999Z</time></trkpt><trkpt lat="46.00865733166183" lon="11.139305406535792"><ele>291.5</ele><time>2026-03-29T08:38:33.999Z</time></trkpt><trkpt lat="46.008781267934566" lon="11.1393152445155"><ele>292.25</ele><time>2026-03-29T08:38:34.999Z</time></trkpt><trkpt lat="46.00891303753276" lon="11.139244997072943"><ele>293.0</ele><time>2026-03-29T08:38:35.999Z</time></trkpt><trkpt lat="46.009019186231704" lon="11.139103381186471"><ele>296.0</ele><time>2026-03-29T08:38:37Z</time></trkpt><trkpt lat="46.00916321145883" lon="11.138985683700582"><ele>299.0</ele><time>2026-03-29T08:38:38Z</time></trkpt><trkpt lat="46.00931434112981" lon="11.138850777719824"><ele>302.0</ele><time>2026-03-29T08:38:39Z</time></trkpt><trkpt lat="46.009436541421174" lon="11.138735565904854"><ele>302.0</ele><time>2026-03-29T08:38:40Z</time></trkpt><trkpt lat="46.00953199927742" lon="11.138664165619577"><ele>302.0</ele><time>2026-03-29T08:38:41Z</time></trkpt><trkpt lat="46.00962651160379" lon="11.138680506493019"><ele>302.0</ele><time>2026-03-29T08:38:42Z</time></trkpt><trkpt lat="46.00971324837127" lon="11.138784424699757"><ele>302.0</ele><time>2026-03-29T08:38:43Z</time></trkpt><trkpt lat="46.009842913682256" lon="11.138861207458925"><ele>301.6666666666667</ele><time>2026-03-29T08:38:44Z</time></trkpt><trkpt lat="46.00999460821285" lon="11.138954545575917"><ele>301.3333333333333</ele><time>2026-03-29T08:38:45Z</time></trkpt><trkpt lat="46.010151115641555" lon="11.139040493634143"><ele>301.0</ele><time>2026-03-29T08:38:46Z</time></trkpt><trkpt lat="46.01032185399626" lon="11.139082102376209"><ele>301.0</ele><time>2026-03-29T08:38:47Z</time></trkpt><trkpt lat="46.01046117918271" lon="11.139116534173267"><ele>301.0</ele><time>2026-03-29T08:38:48Z</time></trkpt><trkpt lat="46.01058089725025" lon="11.13912435566482"><ele>301.0</ele><time>2026-03-29T08:38:49Z</time></trkpt><trkpt lat="46.01069984448317" lon="11.139178785273781"><ele>301.0</ele><time>2026-03-29T08:38:50Z</time></trkpt><trkpt lat="46.010843579492516" lon="11.138978496345432"><ele>301.0</ele><time>2026-03-29T08:38:51Z</time></trkpt><trkpt lat="46.01099494952445" lon="11.138867644507211"><ele>301.0</ele><time>2026-03-29T08:38:52Z</time></trkpt><trkpt lat="46.01111740223053" lon="11.138795430879533"><ele>301.0</ele><time>2026-03-29T08:38:53Z</time></trkpt><trkpt lat="46.011236320963725" lon="11.138763452364735"><ele>301.0</ele><time>2026-03-29T08:38:54Z</time></trkpt><trkpt lat="46.01132001869113" lon="11.138864752993213"><ele>301.0</ele><time>2026-03-29T08:38:55Z</time></trkpt><trkpt lat="46.01142686413235" lon="11.138939183391631"><ele>301.0</ele><time>2026-03-29T08:38:56Z</time></trkpt><trkpt lat="46.011552128927555" lon="11.139029357530637"><ele>301.0</ele><time>2026-03-29T08:38:57Z</time></trkpt><trkpt lat="46.01170175644589" lon="11.139120976651235"><ele>301.0</ele><time>2026-03-29T08:38:58Z</time></trkpt><trkpt lat="46.01186645553387" lon="11.139177751142984"><ele>308.66666666666663</ele><time>2026-03-29T08:38:59Z</time></trkpt><trkpt lat="46.012045468720935" lon="11.13923745061397"><ele>316.3333333333333</ele><time>2026-03-29T08:39:00Z</time></trkpt><trkpt lat="46.01223624342707" lon="11.139301739688579"><ele>324.0</ele><time>2026-03-29T08:39:01Z</time></trkpt><trkpt lat="46.012436570730706" lon="11.139370612228246"><ele>325.0</ele><time>2026-03-29T08:39:02Z</time></trkpt><trkpt lat="46.01264230695908" lon="11.139412648725987"><ele>326.0</ele><time>2026-03-29T08:39:03Z</time></trkpt><trkpt lat="46.012824672747364" lon="11.139455329960947"><ele>327.0</ele><time>2026-03-29T08:39:04Z</time></trkpt><trkpt lat="46.01298453309644" lon="11.139464746237714"><ele>327.0</ele><time>2026-03-29T08:39:05Z</time></trkpt><trkpt lat="46.013147905701395" lon="11.139495949124582"><ele>327.0</ele><time>2026-03-29T08:39:06Z</time></trkpt><trkpt lat="46.01328462800113" lon="11.13954131085572"><ele>327.0</ele><time>2026-03-29T08:39:07Z</time></trkpt><trkpt lat="46.013392815912475" lon="11.139620404410646"><ele>327.0</ele><time>2026-03-29T08:39:08Z</time></trkpt><trkpt lat="46.01350192805547" lon="11.139715092898044"><ele>325.0</ele><time>2026-03-29T08:39:09Z</time></trkpt><trkpt lat="46.01362031580291" lon="11.139840075663578"><ele>323.0</ele><time>2026-03-29T08:39:10Z</time></trkpt><trkpt lat="46.01372235336817" lon="11.140002497548675"><ele>321.0</ele><time>2026-03-29T08:39:11Z</time></trkpt><trkpt lat="46.0138356206109" lon="11.140197364676132"><ele>328.6666666666667</ele><time>2026-03-29T08:39:12Z</time></trkpt><trkpt lat="46.01395715376109" lon="11.140416092547635"><ele>336.33333333333337</ele><time>2026-03-29T08:39:13Z</time></trkpt><trkpt lat="46.01409101983701" lon="11.14064781729428"><ele>344.0</ele><time>2026-03-29T08:39:14Z</time></trkpt><trkpt lat="46.014249935755636" lon="11.140900525231409"><ele>344.0</ele><time>2026-03-29T08:39:15Z</time></trkpt><trkpt lat="46.01442655963227" lon="11.141133277615458"><ele>344.0</ele><time>2026-03-29T08:39:16Z</time></trkpt><trkpt lat="46.01460777769601" lon="11.141390630243968"><ele>345.5</ele><time>2026-03-29T08:39:17Z</time></trkpt><trkpt lat="46.01479634327795" lon="11.14165991111051"><ele>347.0</ele><time>2026-03-29T08:39:18Z</time></trkpt><trkpt lat="46.01495350099792" lon="11.14188802867421"><ele>347.6666666666667</ele><time>2026-03-29T08:39:19Z</time></trkpt><trkpt lat="46.01509040988429" lon="11.142088456220513"><ele>348.3333333333333</ele><time>2026-03-29T08:39:20Z</time></trkpt><trkpt lat="46.01523488570822" lon="11.142269380273483"><ele>349.0</ele><time>2026-03-29T08:39:21Z</time></trkpt><trkpt lat="46.015401425650424" lon="11.142410340680506"><ele>353.3333333333333</ele><time>2026-03-29T08:39:22Z</time></trkpt><trkpt lat="46.01558138550095" lon="11.142552914139934"><ele>357.6666666666667</ele><time>2026-03-29T08:39:23Z</time></trkpt><trkpt lat="46.01576694084855" lon="11.142713068209716"><ele>362.0</ele><time>2026-03-29T08:39:24Z</time></trkpt><trkpt lat="46.015955698268186" lon="11.14289643134621"><ele>363.0</ele><time>2026-03-29T08:39:25Z</time></trkpt><trkpt lat="46.016135041568894" lon="11.143082827098647"><ele>364.0</ele><time>2026-03-29T08:39:26Z</time></trkpt><trkpt lat="46.01627138700957" lon="11.143248868567806"><ele>365.0</ele><time>2026-03-29T08:39:27Z</time></trkpt><trkpt lat="46.01641551609147" lon="11.143404119325375"><ele>371.33333333333337</ele><time>2026-03-29T08:39:28Z</time></trkpt><trkpt lat="46.01656797498817" lon="11.14355543407914"><ele>377.6666666666667</ele><time>2026-03-29T08:39:29Z</time></trkpt><trkpt lat="46.016729117895046" lon="11.143694345227466"><ele>384.0</ele><time>2026-03-29T08:39:30Z</time></trkpt><trkpt lat="46.01688955873616" lon="11.143832650288822"><ele>384.0</ele><time>2026-03-29T08:39:31Z</time></trkpt><trkpt lat="46.01705041020382" lon="11.143971309311238"><ele>384.0</ele><time>2026-03-29T08:39:32Z</time></trkpt><trkpt lat="46.01722434320553" lon="11.144119497149136"><ele>384.0</ele><time>2026-03-29T08:39:33Z</time></trkpt><trkpt lat="46.01737005634064" lon="11.144246164089564"><ele>388.0</ele><time>2026-03-29T08:39:34Z</time></trkpt><trkpt lat="46.0174988935879" lon="11.144353254958984"><ele>392.0</ele><time>2026-03-29T08:39:35Z</time></trkpt><trkpt lat="46.01764115483005" lon="11.144422920427125"><ele>396.0</ele><time>2026-03-29T08:39:36Z</time></trkpt><trkpt lat="46.01778162101752" lon="11.144496724328167"><ele>400.0</ele><time>2026-03-29T08:39:37Z</time></trkpt><trkpt lat="46.017942229351746" lon="11.144568022929704"><ele>400.0</ele><time>2026-03-29T08:39:38Z</time></trkpt><trkpt lat="46.018106864285066" lon="11.144640822622964"><ele>400.0</ele><time>2026-03-29T08:39:39Z</time></trkpt><trkpt lat="46.01829360910821" lon="11.144705159126355"><ele>400.0</ele><time>2026-03-29T08:39:40Z</time></trkpt><trkpt lat="46.0184804227327" lon="11.144727837772052"><ele>395.33333333333337</ele><time>2026-03-29T08:39:41Z</time></trkpt><trkpt lat="46.01867935830837" lon="11.14472257057264"><ele>390.66666666666663</ele><time>2026-03-29T08:39:42Z</time></trkpt><trkpt lat="46.01888235237497" lon="11.144703198692742"><ele>386.0</ele><time>2026-03-29T08:39:43Z</time></trkpt><trkpt lat="46.019095194310495" lon="11.14468417356144"><ele>383.3333333333333</ele><time>2026-03-29T08:39:44Z</time></trkpt><trkpt lat="46.0193000540317" lon="11.14466760140989"><ele>380.66666666666663</ele><time>2026-03-29T08:39:45Z</time></trkpt><trkpt lat="46.01948157905357" lon="11.144661509401677"><ele>378.0</ele><time>2026-03-29T08:39:46Z</time></trkpt><trkpt lat="46.019662609511784" lon="11.144677797315298"><ele>378.0</ele><time>2026-03-29T08:39:47Z</time></trkpt><trkpt lat="46.01984749352945" lon="11.144759765529816"><ele>378.0</ele><time>2026-03-29T08:39:48Z</time></trkpt><trkpt lat="46.020044336753955" lon="11.144836452401503"><ele>378.0</ele><time>2026-03-29T08:39:49Z</time></trkpt><trkpt lat="46.02025047184603" lon="11.14489478104243"><ele>389.0</ele><time>2026-03-29T08:39:50Z</time></trkpt><trkpt lat="46.02044008438279" lon="11.14490447246796"><ele>400.0</ele><time>2026-03-29T08:39:51Z</time></trkpt><trkpt lat="46.02061940321898" lon="11.144920274008914"><ele>411.0</ele><time>2026-03-29T08:39:52Z</time></trkpt><trkpt lat="46.02080624021177" lon="11.14489216816447"><ele>404.66666666666663</ele><time>2026-03-29T08:39:53Z</time></trkpt><trkpt lat="46.02100319136015" lon="11.1448412691012"><ele>398.3333333333333</ele><time>2026-03-29T08:39:54Z</time></trkpt><trkpt lat="46.02119801012623" lon="11.14479346144179"><ele>392.0</ele><time>2026-03-29T08:39:55Z</time></trkpt><trkpt lat="46.02136641110574" lon="11.144752768308765"><ele>392.0</ele><time>2026-03-29T08:39:55.999Z</time></trkpt><trkpt lat="46.021500898180435" lon="11.144713298299806"><ele>392.0</ele><time>2026-03-29T08:39:56.999Z</time></trkpt><trkpt lat="46.02160989027734" lon="11.144693133549344"><ele>392.0</ele><time>2026-03-29T08:39:57.999Z</time></trkpt><trkpt lat="46.021694500199786" lon="11.144687078502903"><ele>392.0</ele><time>2026-03-29T08:39:58.999Z</time></trkpt><trkpt lat="46.02175923290474" lon="11.144713290455211"><ele>392.0</ele><time>2026-03-29T08:39:59.999Z</time></trkpt><trkpt lat="46.021792917114446" lon="11.144835804649498"><ele>397.0</ele><time>2026-03-29T08:40:01.999Z</time></trkpt><trkpt lat="46.02175878092107" lon="11.14495676605988"><ele>402.0</ele><time>2026-03-29T08:40:03.999Z</time></trkpt><trkpt lat="46.02164735727106" lon="11.144979310537785"><ele>407.0</ele><time>2026-03-29T08:40:04.999Z</time></trkpt><trkpt lat="46.02152758598662" lon="11.14500623840366"><ele>412.0</ele><time>2026-03-29T08:40:05.999Z</time></trkpt><trkpt lat="46.02137786041287" lon="11.1450598469986"><ele>412.6666666666667</ele><time>2026-03-29T08:40:06.999Z</time></trkpt><trkpt lat="46.02119884456886" lon="11.145111936062197"><ele>413.33333333333337</ele><time>2026-03-29T08:40:07.999Z</time></trkpt><trkpt lat="46.02102670953931" lon="11.145202135044405"><ele>414.0</ele><time>2026-03-29T08:40:08.999Z</time></trkpt><trkpt lat="46.02084555131487" lon="11.145285095318172"><ele>413.0</ele><time>2026-03-29T08:40:09.999Z</time></trkpt><trkpt lat="46.02065853661574" lon="11.14533758930068"><ele>412.0</ele><time>2026-03-29T08:40:10.999Z</time></trkpt><trkpt lat="46.02047644008973" lon="11.145395625451421"><ele>411.0</ele><time>2026-03-29T08:40:11.999Z</time></trkpt><trkpt lat="46.020304536609636" lon="11.145393709878096"><ele>411.0</ele><time>2026-03-29T08:40:12.999Z</time></trkpt><trkpt lat="46.020134679440744" lon="11.145360544994482"><ele>411.0</ele><time>2026-03-29T08:40:13.999Z</time></trkpt><trkpt lat="46.01994930796787" lon="11.145295516993839"><ele>411.0</ele><time>2026-03-29T08:40:14.999Z</time></trkpt><trkpt lat="46.01975638770984" lon="11.145212398782444"><ele>413.66666666666663</ele><time>2026-03-29T08:40:15.999Z</time></trkpt><trkpt lat="46.019549160227974" lon="11.145118923594717"><ele>416.3333333333333</ele><time>2026-03-29T08:40:16.999Z</time></trkpt><trkpt lat="46.019356421122254" lon="11.145040963958456"><ele>419.0</ele><time>2026-03-29T08:40:17.999Z</time></trkpt><trkpt lat="46.01916638620871" lon="11.145017241930175"><ele>420.66666666666663</ele><time>2026-03-29T08:40:18.999Z</time></trkpt><trkpt lat="46.01896223638524" lon="11.145019110526459"><ele>422.33333333333337</ele><time>2026-03-29T08:40:19.999Z</time></trkpt><trkpt lat="46.0187404518783" lon="11.145062157046816"><ele>424.0</ele><time>2026-03-29T08:40:20.999Z</time></trkpt><trkpt lat="46.018503118225155" lon="11.145099590610151"><ele>426.33333333333337</ele><time>2026-03-29T08:40:21.999Z</time></trkpt><trkpt lat="46.0182862705749" lon="11.145101871724435"><ele>428.66666666666663</ele><time>2026-03-29T08:40:22.999Z</time></trkpt><trkpt lat="46.01809814401481" lon="11.14503836911015"><ele>431.0</ele><time>2026-03-29T08:40:23.999Z</time></trkpt><trkpt lat="46.017920528154455" lon="11.14496937259098"><ele>431.0</ele><time>2026-03-29T08:40:24.999Z</time></trkpt><trkpt lat="46.01774944302421" lon="11.14490184828552"><ele>431.0</ele><time>2026-03-29T08:40:25.999Z</time></trkpt><trkpt lat="46.01759558235542" lon="11.144841586549644"><ele>431.0</ele><time>2026-03-29T08:40:26.999Z</time></trkpt><trkpt lat="46.01745332084725" lon="11.144800802016247"><ele>431.3333333333333</ele><time>2026-03-29T08:40:27.999Z</time></trkpt><trkpt lat="46.01732055733644" lon="11.14480072076296"><ele>431.66666666666663</ele><time>2026-03-29T08:40:28.999Z</time></trkpt><trkpt lat="46.01719124586099" lon="11.144692523553143"><ele>432.0</ele><time>2026-03-29T08:40:29.999Z</time></trkpt><trkpt lat="46.017052158563764" lon="11.14492147756772"><ele>432.0</ele><time>2026-03-29T08:40:30.999Z</time></trkpt><trkpt lat="46.016939424100556" lon="11.145067951179959"><ele>432.0</ele><time>2026-03-29T08:40:31.999Z</time></trkpt><trkpt lat="46.01681745097858" lon="11.145226692482547"><ele>432.0</ele><time>2026-03-29T08:40:32.999Z</time></trkpt><trkpt lat="46.016689397259775" lon="11.145376048849819"><ele>433.0</ele><time>2026-03-29T08:40:33.999Z</time></trkpt><trkpt lat="46.016576339211376" lon="11.145469534318314"><ele>434.0</ele><time>2026-03-29T08:40:34.999Z</time></trkpt><trkpt lat="46.01645654325332" lon="11.145445830261393"><ele>435.0</ele><time>2026-03-29T08:40:35.999Z</time></trkpt><trkpt lat="46.016335035513976" lon="11.145377271110279"><ele>436.0</ele><time>2026-03-29T08:40:36.999Z</time></trkpt><trkpt lat="46.016196375103696" lon="11.145272270661549"><ele>436.0</ele><time>2026-03-29T08:40:37.999Z</time></trkpt><trkpt lat="46.01603502818134" lon="11.145156321671259"><ele>436.0</ele><time>2026-03-29T08:40:38.999Z</time></trkpt><trkpt lat="46.01589653690014" lon="11.14511261250458"><ele>436.0</ele><time>2026-03-29T08:40:39.999Z</time></trkpt><trkpt lat="46.01577985300697" lon="11.145105518229492"><ele>436.0</ele><time>2026-03-29T08:40:40.999Z</time></trkpt><trkpt lat="46.015645285095616" lon="11.145168359482572"><ele>432.6666666666667</ele><time>2026-03-29T08:40:41.999Z</time></trkpt><trkpt lat="46.01550395578211" lon="11.145295117440474"><ele>429.33333333333337</ele><time>2026-03-29T08:40:43Z</time></trkpt><trkpt lat="46.01536227052273" lon="11.145441730212383"><ele>426.0</ele><time>2026-03-29T08:40:44Z</time></trkpt><trkpt lat="46.01519818986107" lon="11.145583161309542"><ele>431.0</ele><time>2026-03-29T08:40:45Z</time></trkpt><trkpt lat="46.01502042245531" lon="11.145718072896754"><ele>436.0</ele><time>2026-03-29T08:40:46Z</time></trkpt><trkpt lat="46.01481250400729" lon="11.145849118361403"><ele>441.0</ele><time>2026-03-29T08:40:47Z</time></trkpt><trkpt lat="46.01457970181273" lon="11.14593820942476"><ele>441.0</ele><time>2026-03-29T08:40:48Z</time></trkpt><trkpt lat="46.01434530756108" lon="11.146037657109721"><ele>441.0</ele><time>2026-03-29T08:40:49Z</time></trkpt><trkpt lat="46.01415032009764" lon="11.146120895806998"><ele>441.0</ele><time>2026-03-29T08:40:50Z</time></trkpt><trkpt lat="46.013989169377076" lon="11.14621141045646"><ele>440.25</ele><time>2026-03-29T08:40:51Z</time></trkpt><trkpt lat="46.01385364831366" lon="11.14626513187906"><ele>439.5</ele><time>2026-03-29T08:40:52Z</time></trkpt><trkpt lat="46.01373451714541" lon="11.146312323310163"><ele>438.75</ele><time>2026-03-29T08:40:53Z</time></trkpt><trkpt lat="46.01363524137646" lon="11.146359171236892"><ele>438.0</ele><time>2026-03-29T08:40:54Z</time></trkpt><trkpt lat="46.013511372405475" lon="11.146412766049966"><ele>438.0</ele><time>2026-03-29T08:40:55Z</time></trkpt><trkpt lat="46.01335946111827" lon="11.14645821763246"><ele>438.0</ele><time>2026-03-29T08:40:56Z</time></trkpt><trkpt lat="46.01317495127743" lon="11.14655927532102"><ele>438.0</ele><time>2026-03-29T08:40:57Z</time></trkpt><trkpt lat="46.012973335223634" lon="11.146636299524067"><ele>444.66666666666663</ele><time>2026-03-29T08:40:58Z</time></trkpt><trkpt lat="46.01280171220541" lon="11.146693178400438"><ele>451.3333333333333</ele><time>2026-03-29T08:40:59Z</time></trkpt><trkpt lat="46.01265862734161" lon="11.14676136413704"><ele>458.0</ele><time>2026-03-29T08:41:00Z</time></trkpt><trkpt lat="46.012539584666285" lon="11.146838249617906"><ele>458.75</ele><time>2026-03-29T08:41:01Z</time></trkpt><trkpt lat="46.01244181849431" lon="11.146952241316338"><ele>459.5</ele><time>2026-03-29T08:41:02Z</time></trkpt><trkpt lat="46.01236044829595" lon="11.147129216015465"><ele>460.25</ele><time>2026-03-29T08:41:03Z</time></trkpt><trkpt lat="46.012299788069804" lon="11.14735633906"><ele>461.0</ele><time>2026-03-29T08:41:04Z</time></trkpt><trkpt lat="46.01225632778249" lon="11.147616250065782"><ele>461.0</ele><time>2026-03-29T08:41:05Z</time></trkpt><trkpt lat="46.012195625659096" lon="11.14789126934406"><ele>461.0</ele><time>2026-03-29T08:41:06Z</time></trkpt><trkpt lat="46.012130067486694" lon="11.148160516258958"><ele>461.0</ele><time>2026-03-29T08:41:07Z</time></trkpt><trkpt lat="46.0120568128615" lon="11.148433674124458"><ele>463.66666666666663</ele><time>2026-03-29T08:41:08Z</time></trkpt><trkpt lat="46.01195337412355" lon="11.14866199055006"><ele>466.33333333333337</ele><time>2026-03-29T08:41:09Z</time></trkpt><trkpt lat="46.01181955453387" lon="11.148861288564508"><ele>469.0</ele><time>2026-03-29T08:41:10Z</time></trkpt><trkpt lat="46.01167067024981" lon="11.149078306340808"><ele>471.6666666666667</ele><time>2026-03-29T08:41:11Z</time></trkpt><trkpt lat="46.01152764430462" lon="11.149287368257438"><ele>474.33333333333337</ele><time>2026-03-29T08:41:12Z</time></trkpt><trkpt lat="46.011411178045684" lon="11.149458258839212"><ele>477.0</ele><time>2026-03-29T08:41:13Z</time></trkpt><trkpt lat="46.01131270784459" lon="11.149598685120724"><ele>477.0</ele><time>2026-03-29T08:41:14Z</time></trkpt><trkpt lat="46.01121360909471" lon="11.149703218941335"><ele>477.0</ele><time>2026-03-29T08:41:15Z</time></trkpt><trkpt lat="46.01110660174683" lon="11.149752955797869"><ele>477.0</ele><time>2026-03-29T08:41:16Z</time></trkpt><trkpt lat="46.010997357253" lon="11.149767341874496"><ele>477.0</ele><time>2026-03-29T08:41:17Z</time></trkpt><trkpt lat="46.01088465536593" lon="11.149754545957796"><ele>479.25</ele><time>2026-03-29T08:41:18Z</time></trkpt><trkpt lat="46.010767187189444" lon="11.149711929497887"><ele>481.5</ele><time>2026-03-29T08:41:19Z</time></trkpt><trkpt lat="46.010650276010544" lon="11.14962673658009"><ele>483.75</ele><time>2026-03-29T08:41:20Z</time></trkpt><trkpt lat="46.010521956325185" lon="11.149530284084413"><ele>486.0</ele><time>2026-03-29T08:41:21Z</time></trkpt><trkpt lat="46.01036905185507" lon="11.149414810936888"><ele>486.0</ele><time>2026-03-29T08:41:22Z</time></trkpt><trkpt lat="46.010232276740425" lon="11.149320027063915"><ele>486.0</ele><time>2026-03-29T08:41:23Z</time></trkpt><trkpt lat="46.010104020233456" lon="11.149279487413368"><ele>486.0</ele><time>2026-03-29T08:41:24Z</time></trkpt><trkpt lat="46.00997517861365" lon="11.149239500447061"><ele>486.0</ele><time>2026-03-29T08:41:25Z</time></trkpt><trkpt lat="46.009844172970034" lon="11.149254861744323"><ele>480.0</ele><time>2026-03-29T08:41:26Z</time></trkpt><trkpt lat="46.009723167753684" lon="11.149323991127599"><ele>474.0</ele><time>2026-03-29T08:41:27Z</time></trkpt><trkpt lat="46.00963689799676" lon="11.149418030270372"><ele>468.0</ele><time>2026-03-29T08:41:28Z</time></trkpt><trkpt lat="46.00955217125248" lon="11.149559811917907"><ele>462.0</ele><time>2026-03-29T08:41:29Z</time></trkpt><trkpt lat="46.00946944801756" lon="11.149739582773911"><ele>459.25</ele><time>2026-03-29T08:41:30Z</time></trkpt><trkpt lat="46.00937625973324" lon="11.14993348167128"><ele>456.5</ele><time>2026-03-29T08:41:31Z</time></trkpt><trkpt lat="46.009294201309544" lon="11.150080190313423"><ele>453.75</ele><time>2026-03-29T08:41:32Z</time></trkpt><trkpt lat="46.00921995211581" lon="11.150229866868557"><ele>451.0</ele><time>2026-03-29T08:41:33Z</time></trkpt><trkpt lat="46.00915435337748" lon="11.15036070507425"><ele>451.0</ele><time>2026-03-29T08:41:34Z</time></trkpt><trkpt lat="46.00911207134067" lon="11.150474352819556"><ele>451.0</ele><time>2026-03-29T08:41:35Z</time></trkpt><trkpt lat="46.009100765859806" lon="11.150614080938794"><ele>451.0</ele><time>2026-03-29T08:41:36Z</time></trkpt><trkpt lat="46.009127175894044" lon="11.150763931920908"><ele>451.0</ele><time>2026-03-29T08:41:37Z</time></trkpt><trkpt lat="46.009177962533016" lon="11.150920342446552"><ele>451.0</ele><time>2026-03-29T08:41:38Z</time></trkpt><trkpt lat="46.009261759926225" lon="11.15109274043119"><ele>465.6666666666667</ele><time>2026-03-29T08:41:39Z</time></trkpt><trkpt lat="46.00934172092491" lon="11.15127444557787"><ele>480.33333333333337</ele><time>2026-03-29T08:41:40Z</time></trkpt><trkpt lat="46.00941467961718" lon="11.151473883398387"><ele>495.0</ele><time>2026-03-29T08:41:41Z</time></trkpt><trkpt lat="46.00949133577168" lon="11.151676764940168"><ele>495.0</ele><time>2026-03-29T08:41:42Z</time></trkpt><trkpt lat="46.00956822607763" lon="11.151896473232942"><ele>495.0</ele><time>2026-03-29T08:41:43Z</time></trkpt><trkpt lat="46.00963394784119" lon="11.152137805596315"><ele>495.0</ele><time>2026-03-29T08:41:44Z</time></trkpt><trkpt lat="46.00969066057933" lon="11.152390751563752"><ele>494.0</ele><time>2026-03-29T08:41:45Z</time></trkpt><trkpt lat="46.00973763134651" lon="11.1526019036201"><ele>493.0</ele><time>2026-03-29T08:41:46Z</time></trkpt><trkpt lat="46.00978913616601" lon="11.152817877670564"><ele>492.0</ele><time>2026-03-29T08:41:47Z</time></trkpt><trkpt lat="46.00982312541101" lon="11.153046933093192"><ele>495.0</ele><time>2026-03-29T08:41:48Z</time></trkpt><trkpt lat="46.00987815210855" lon="11.153287037215176"><ele>498.0</ele><time>2026-03-29T08:41:49Z</time></trkpt><trkpt lat="46.00996320782464" lon="11.153517955232498"><ele>501.0</ele><time>2026-03-29T08:41:50Z</time></trkpt><trkpt lat="46.01005994065669" lon="11.153764934640293"><ele>511.0</ele><time>2026-03-29T08:41:51Z</time></trkpt><trkpt lat="46.010171638080685" lon="11.15405675684618"><ele>521.0</ele><time>2026-03-29T08:41:52Z</time></trkpt><trkpt lat="46.01030613591957" lon="11.15437037501756"><ele>521.0</ele><time>2026-03-29T08:41:53Z</time></trkpt><trkpt lat="46.0104442856764" lon="11.154686229473743"><ele>521.0</ele><time>2026-03-29T08:41:54Z</time></trkpt><trkpt lat="46.01057612359615" lon="11.15499093659112"><ele>520.6666666666666</ele><time>2026-03-29T08:41:55Z</time></trkpt><trkpt lat="46.01068037741305" lon="11.155267866144019"><ele>520.3333333333334</ele><time>2026-03-29T08:41:56Z</time></trkpt><trkpt lat="46.010749944233616" lon="11.155562441585158"><ele>520.0</ele><time>2026-03-29T08:41:57Z</time></trkpt><trkpt lat="46.01080934821362" lon="11.155870425999941"><ele>529.0</ele><time>2026-03-29T08:41:58Z</time></trkpt><trkpt lat="46.01086130959439" lon="11.156141907750609"><ele>538.0</ele><time>2026-03-29T08:41:58.999Z</time></trkpt><trkpt lat="46.01090133302284" lon="11.156373959497834"><ele>547.0</ele><time>2026-03-29T08:41:59.999Z</time></trkpt><trkpt lat="46.01092048371496" lon="11.156557207388836"><ele>548.0</ele><time>2026-03-29T08:42:00.999Z</time></trkpt><trkpt lat="46.010920757475915" lon="11.156717920742064"><ele>549.0</ele><time>2026-03-29T08:42:01.999Z</time></trkpt><trkpt lat="46.010877222253534" lon="11.156844060652531"><ele>550.0</ele><time>2026-03-29T08:42:02.999Z</time></trkpt><trkpt lat="46.010815010840915" lon="11.156949787913602"><ele>551.0</ele><time>2026-03-29T08:42:03.999Z</time></trkpt><trkpt lat="46.01072788784331" lon="11.157043633770048"><ele>552.0</ele><time>2026-03-29T08:42:04.999Z</time></trkpt><trkpt lat="46.010633623071925" lon="11.157089621473093"><ele>556.0</ele><time>2026-03-29T08:42:05.999Z</time></trkpt><trkpt lat="46.010543161479035" lon="11.157083914930826"><ele>560.0</ele><time>2026-03-29T08:42:06.999Z</time></trkpt><trkpt lat="46.01043081674766" lon="11.157048104583874"><ele>564.0</ele><time>2026-03-29T08:42:07.999Z</time></trkpt><trkpt lat="46.010319539354626" lon="11.156966645199965"><ele>568.0</ele><time>2026-03-29T08:42:08.999Z</time></trkpt><trkpt lat="46.010224119745814" lon="11.156796540705189"><ele>568.0</ele><time>2026-03-29T08:42:09.999Z</time></trkpt><trkpt lat="46.01010907750609" lon="11.15659182770481"><ele>568.0</ele><time>2026-03-29T08:42:10.999Z</time></trkpt><trkpt lat="46.009972452865334" lon="11.156376398764234"><ele>568.0</ele><time>2026-03-29T08:42:11.999Z</time></trkpt><trkpt lat="46.00982705890357" lon="11.156151372969699"><ele>565.75</ele><time>2026-03-29T08:42:12.999Z</time></trkpt><trkpt lat="46.00973246811623" lon="11.155994403045423"><ele>563.5</ele><time>2026-03-29T08:42:13.999Z</time></trkpt><trkpt lat="46.00960051275924" lon="11.155917042612629"><ele>561.25</ele><time>2026-03-29T08:42:14.999Z</time></trkpt><trkpt lat="46.00946141857811" lon="11.155896019668528"><ele>559.0</ele><time>2026-03-29T08:42:15.999Z</time></trkpt><trkpt lat="46.009289232770435" lon="11.155931140814454"><ele>558.75</ele><time>2026-03-29T08:42:16.999Z</time></trkpt><trkpt lat="46.00912971671459" lon="11.155906774257552"><ele>558.5</ele><time>2026-03-29T08:42:17.999Z</time></trkpt><trkpt lat="46.00902103523705" lon="11.155824140572356"><ele>558.25</ele><time>2026-03-29T08:42:18.999Z</time></trkpt><trkpt lat="46.00892139520991" lon="11.155697737108941"><ele>558.0</ele><time>2026-03-29T08:42:19.999Z</time></trkpt><trkpt lat="46.0088010113854" lon="11.155555382247039"><ele>558.0</ele><time>2026-03-29T08:42:20.999Z</time></trkpt><trkpt lat="46.00868971382542" lon="11.155443686618327"><ele>558.0</ele><time>2026-03-29T08:42:21.999Z</time></trkpt><trkpt lat="46.008579644251576" lon="11.155387104749536"><ele>558.0</ele><time>2026-03-29T08:42:22.999Z</time></trkpt><trkpt lat="46.008468700271905" lon="11.155376211758528"><ele>558.0</ele><time>2026-03-29T08:42:23.999Z</time></trkpt><trkpt lat="46.00835188715185" lon="11.155421266797491"><ele>556.75</ele><time>2026-03-29T08:42:24.999Z</time></trkpt><trkpt lat="46.00825051546458" lon="11.155516559990813"><ele>555.5</ele><time>2026-03-29T08:42:25.999Z</time></trkpt><trkpt lat="46.00817031286132" lon="11.155667605375955"><ele>554.25</ele><time>2026-03-29T08:42:26.999Z</time></trkpt><trkpt lat="46.00812051316685" lon="11.155854422160669"><ele>553.0</ele><time>2026-03-29T08:42:27.999Z</time></trkpt><trkpt lat="46.00808188362256" lon="11.156076213822644"><ele>553.0</ele><time>2026-03-29T08:42:28.999Z</time></trkpt><trkpt lat="46.0080299940445" lon="11.156307905613318"><ele>553.0</ele><time>2026-03-29T08:42:29.999Z</time></trkpt><trkpt lat="46.007983822871644" lon="11.156490072939222"><ele>553.0</ele><time>2026-03-29T08:42:30.999Z</time></trkpt><trkpt lat="46.00794210248079" lon="11.156641889364682"><ele>553.0</ele><time>2026-03-29T08:42:31.999Z</time></trkpt><trkpt lat="46.00790007633354" lon="11.156788833384642"><ele>554.0</ele><time>2026-03-29T08:42:32.999Z</time></trkpt><trkpt lat="46.00785417552186" lon="11.156954661471412"><ele>555.0</ele><time>2026-03-29T08:42:33.999Z</time></trkpt><trkpt lat="46.00780551656138" lon="11.157125608818948"><ele>556.0</ele><time>2026-03-29T08:42:34.999Z</time></trkpt><trkpt lat="46.00775736121133" lon="11.157302938347648"><ele>557.0</ele><time>2026-03-29T08:42:35.999Z</time></trkpt><trkpt lat="46.007701396804684" lon="11.157488345741859"><ele>558.75</ele><time>2026-03-29T08:42:36.999Z</time></trkpt><trkpt lat="46.00762699264757" lon="11.157674468239447"><ele>560.5</ele><time>2026-03-29T08:42:37.999Z</time></trkpt><trkpt lat="46.00758492015539" lon="11.15788476518622"><ele>562.25</ele><time>2026-03-29T08:42:38.999Z</time></trkpt><trkpt lat="46.0075361433025" lon="11.158081813669442"><ele>564.0</ele><time>2026-03-29T08:42:39.999Z</time></trkpt><trkpt lat="46.00752339910498" lon="11.158299835839161"><ele>567.6666666666666</ele><time>2026-03-29T08:42:40.999Z</time></trkpt><trkpt lat="46.007522413697025" lon="11.15852483317161"><ele>571.3333333333333</ele><time>2026-03-29T08:42:41.999Z</time></trkpt><trkpt lat="46.007524301371475" lon="11.158751157899125"><ele>575.0</ele><time>2026-03-29T08:42:42.999Z</time></trkpt><trkpt lat="46.0075311934243" lon="11.158979393756358"><ele>577.0</ele><time>2026-03-29T08:42:43.999Z</time></trkpt><trkpt lat="46.00753673263818" lon="11.159213210248822"><ele>579.0</ele><time>2026-03-29T08:42:44.999Z</time></trkpt><trkpt lat="46.007535580189014" lon="11.159406381079245"><ele>581.0</ele><time>2026-03-29T08:42:45.999Z</time></trkpt><trkpt lat="46.007530357540745" lon="11.159581646558442"><ele>583.0</ele><time>2026-03-29T08:42:46.999Z</time></trkpt><trkpt lat="46.00751768808507" lon="11.159770685815193"><ele>579.75</ele><time>2026-03-29T08:42:47.999Z</time></trkpt><trkpt lat="46.00744028581604" lon="11.159921164766773"><ele>576.5</ele><time>2026-03-29T08:42:49Z</time></trkpt><trkpt lat="46.007353933095146" lon="11.160056721958753"><ele>573.25</ele><time>2026-03-29T08:42:50Z</time></trkpt><trkpt lat="46.00726336462547" lon="11.160197615528974"><ele>570.0</ele><time>2026-03-29T08:42:51Z</time></trkpt><trkpt lat="46.00719185426433" lon="11.160371540863151"><ele>570.0</ele><time>2026-03-29T08:42:52Z</time></trkpt><trkpt lat="46.00709211753012" lon="11.160531459170855"><ele>570.0</ele><time>2026-03-29T08:42:53Z</time></trkpt><trkpt lat="46.006968044232146" lon="11.16073196577698"><ele>570.0</ele><time>2026-03-29T08:42:54Z</time></trkpt><trkpt lat="46.00683609771241" lon="11.160973367453757"><ele>570.6666666666666</ele><time>2026-03-29T08:42:55Z</time></trkpt><trkpt lat="46.006671879538956" lon="11.161195651568088"><ele>571.3333333333333</ele><time>2026-03-29T08:42:56Z</time></trkpt><trkpt lat="46.00657726538239" lon="11.161427362103526"><ele>572.0</ele><time>2026-03-29T08:42:57Z</time></trkpt><trkpt lat="46.006484266697555" lon="11.161669334965493"><ele>575.3333333333333</ele><time>2026-03-29T08:42:58Z</time></trkpt><trkpt lat="46.006417336930035" lon="11.161935337822959"><ele>578.6666666666666</ele><time>2026-03-29T08:42:59Z</time></trkpt><trkpt lat="46.00637545248033" lon="11.162218711698838"><ele>582.0</ele><time>2026-03-29T08:43:00Z</time></trkpt><trkpt lat="46.00636223492772" lon="11.162534041241155"><ele>584.5</ele><time>2026-03-29T08:43:01Z</time></trkpt><trkpt lat="46.00636716203827" lon="11.1628836478934"><ele>587.0</ele><time>2026-03-29T08:43:02Z</time></trkpt><trkpt lat="46.006361611138004" lon="11.1632383164867"><ele>592.0</ele><time>2026-03-29T08:43:03Z</time></trkpt><trkpt lat="46.00634476862936" lon="11.163615508461382"><ele>597.0</ele><time>2026-03-29T08:43:04Z</time></trkpt><trkpt lat="46.00633344105007" lon="11.164005035061864"><ele>600.5</ele><time>2026-03-29T08:43:05Z</time></trkpt><trkpt lat="46.00631839274496" lon="11.164392659803372"><ele>604.0</ele><time>2026-03-29T08:43:06Z</time></trkpt><trkpt lat="46.00630279072877" lon="11.16474321344828"><ele>605.3333333333334</ele><time>2026-03-29T08:43:07Z</time></trkpt><trkpt lat="46.00628677377762" lon="11.165053168313273"><ele>606.6666666666666</ele><time>2026-03-29T08:43:08Z</time></trkpt><trkpt lat="46.00627244147444" lon="11.16532871236242"><ele>608.0</ele><time>2026-03-29T08:43:09Z</time></trkpt><trkpt lat="46.00626773019146" lon="11.165575594524025"><ele>609.0</ele><time>2026-03-29T08:43:10Z</time></trkpt><trkpt lat="46.00627141987849" lon="11.165804555325172"><ele>610.0</ele><time>2026-03-29T08:43:11Z</time></trkpt><trkpt lat="46.006297862698894" lon="11.166002103806656"><ele>611.0</ele><time>2026-03-29T08:43:12Z</time></trkpt><trkpt lat="46.006358246121714" lon="11.166165374458215"><ele>612.0</ele><time>2026-03-29T08:43:13Z</time></trkpt><trkpt lat="46.00645784464221" lon="11.166337140457479"><ele>611.6666666666666</ele><time>2026-03-29T08:43:14Z</time></trkpt><trkpt lat="46.00657220406444" lon="11.166534011266206"><ele>611.3333333333333</ele><time>2026-03-29T08:43:15Z</time></trkpt><trkpt lat="46.006687122175" lon="11.166762229054546"><ele>611.0</ele><time>2026-03-29T08:43:16Z</time></trkpt><trkpt lat="46.006804258081154" lon="11.16700892486493"><ele>616.0</ele><time>2026-03-29T08:43:17Z</time></trkpt><trkpt lat="46.006864115523186" lon="11.167221896332547"><ele>621.0</ele><time>2026-03-29T08:43:18Z</time></trkpt><trkpt lat="46.0068667410016" lon="11.16741272092134"><ele>626.0</ele><time>2026-03-29T08:43:19Z</time></trkpt><trkpt lat="46.00683882515445" lon="11.167601038187131"><ele>631.0</ele><time>2026-03-29T08:43:20Z</time></trkpt><trkpt lat="46.00680443489066" lon="11.167823138846446"><ele>632.0</ele><time>2026-03-29T08:43:21Z</time></trkpt><trkpt lat="46.00676457444296" lon="11.168078950000877"><ele>633.0</ele><time>2026-03-29T08:43:22Z</time></trkpt><trkpt lat="46.006723265139826" lon="11.168366953375916"><ele>634.0</ele><time>2026-03-29T08:43:23Z</time></trkpt><trkpt lat="46.00667992731118" lon="11.168669099308355"><ele>630.0</ele><time>2026-03-29T08:43:24Z</time></trkpt><trkpt lat="46.00663406477433" lon="11.169004036286418"><ele>626.0</ele><time>2026-03-29T08:43:25Z</time></trkpt><trkpt lat="46.00660578244159" lon="11.16936890347464"><ele>626.0</ele><time>2026-03-29T08:43:26Z</time></trkpt><trkpt lat="46.00658647544109" lon="11.169729503666897"><ele>626.0</ele><time>2026-03-29T08:43:27Z</time></trkpt><trkpt lat="46.00656825174346" lon="11.170055315772672"><ele>630.0</ele><time>2026-03-29T08:43:28Z</time></trkpt><trkpt lat="46.00654881398596" lon="11.170382822911211"><ele>634.0</ele><time>2026-03-29T08:43:29Z</time></trkpt><trkpt lat="46.006529453118425" lon="11.170727459605292"><ele>635.6666666666667</ele><time>2026-03-29T08:43:30Z</time></trkpt><trkpt lat="46.00651229460602" lon="11.17103289286025"><ele>637.3333333333334</ele><time>2026-03-29T08:43:31Z</time></trkpt><trkpt lat="46.00649698226587" lon="11.171305463237605"><ele>639.0</ele><time>2026-03-29T08:43:32Z</time></trkpt><trkpt lat="46.00647795169459" lon="11.171533763465037"><ele>641.6666666666666</ele><time>2026-03-29T08:43:33Z</time></trkpt><trkpt lat="46.00644775940066" lon="11.171717295214993"><ele>644.3333333333333</ele><time>2026-03-29T08:43:34Z</time></trkpt><trkpt lat="46.00639145084298" lon="11.17191705097988"><ele>647.0</ele><time>2026-03-29T08:43:35Z</time></trkpt><trkpt lat="46.00632730607876" lon="11.172148923775564"><ele>649.6666666666666</ele><time>2026-03-29T08:43:36Z</time></trkpt><trkpt lat="46.00626402595705" lon="11.172377005421177"><ele>652.3333333333334</ele><time>2026-03-29T08:43:37Z</time></trkpt><trkpt lat="46.00619690410868" lon="11.172616018974779"><ele>655.0</ele><time>2026-03-29T08:43:38Z</time></trkpt><trkpt lat="46.006130721045984" lon="11.172866677897048"><ele>655.0</ele><time>2026-03-29T08:43:39Z</time></trkpt><trkpt lat="46.00606275330338" lon="11.173131676890186"><ele>655.0</ele><time>2026-03-29T08:43:40Z</time></trkpt><trkpt lat="46.005993782966925" lon="11.173403298639586"><ele>655.0</ele><time>2026-03-29T08:43:41Z</time></trkpt><trkpt lat="46.00592617185266" lon="11.173666372641698"><ele>655.6666666666667</ele><time>2026-03-29T08:43:42Z</time></trkpt><trkpt lat="46.00586339040716" lon="11.173905628935234"><ele>656.3333333333334</ele><time>2026-03-29T08:43:43Z</time></trkpt><trkpt lat="46.00580152225227" lon="11.174157904114319"><ele>657.0</ele><time>2026-03-29T08:43:44Z</time></trkpt><trkpt lat="46.00575945036148" lon="11.17441936033662"><ele>652.3333333333334</ele><time>2026-03-29T08:43:45Z</time></trkpt><trkpt lat="46.00574387631522" lon="11.174685924433446"><ele>647.6666666666667</ele><time>2026-03-29T08:43:46Z</time></trkpt><trkpt lat="46.00573293011909" lon="11.174971872855494"><ele>643.0</ele><time>2026-03-29T08:43:47Z</time></trkpt><trkpt lat="46.005745341512394" lon="11.175295044202027"><ele>643.0</ele><time>2026-03-29T08:43:48Z</time></trkpt><trkpt lat="46.00575712170282" lon="11.175626713667974"><ele>643.0</ele><time>2026-03-29T08:43:49Z</time></trkpt><trkpt lat="46.00576497099815" lon="11.175908247811998"><ele>643.0</ele><time>2026-03-29T08:43:50Z</time></trkpt><trkpt lat="46.005733260530945" lon="11.176184249375245"><ele>644.0</ele><time>2026-03-29T08:43:51Z</time></trkpt><trkpt lat="46.005696000807745" lon="11.176470398471162"><ele>645.0</ele><time>2026-03-29T08:43:52Z</time></trkpt><trkpt lat="46.005652420053096" lon="11.176767029873808"><ele>646.0</ele><time>2026-03-29T08:43:53Z</time></trkpt><trkpt lat="46.00559609742133" lon="11.177070195737798"><ele>649.5</ele><time>2026-03-29T08:43:54Z</time></trkpt><trkpt lat="46.00553806843004" lon="11.177380595856732"><ele>653.0</ele><time>2026-03-29T08:43:55Z</time></trkpt><trkpt lat="46.0054735364902" lon="11.177694820217868"><ele>653.0</ele><time>2026-03-29T08:43:56Z</time></trkpt><trkpt lat="46.00538532947605" lon="11.178006354577969"><ele>653.0</ele><time>2026-03-29T08:43:57Z</time></trkpt><trkpt lat="46.00531711266233" lon="11.178299122998595"><ele>653.0</ele><time>2026-03-29T08:43:57.999Z</time></trkpt><trkpt lat="46.00527638615611" lon="11.178557853321259"><ele>655.6666666666666</ele><time>2026-03-29T08:43:58.999Z</time></trkpt><trkpt lat="46.00524158009822" lon="11.178802185316101"><ele>658.3333333333334</ele><time>2026-03-29T08:43:59.999Z</time></trkpt><trkpt lat="46.00520203109362" lon="11.17907770813919"><ele>661.0</ele><time>2026-03-29T08:44:00.999Z</time></trkpt><trkpt lat="46.00515426487695" lon="11.179363028623285"><ele>662.6666666666667</ele><time>2026-03-29T08:44:01.999Z</time></trkpt><trkpt lat="46.00509386568978" lon="11.179663254414107"><ele>664.3333333333334</ele><time>2026-03-29T08:44:02.999Z</time></trkpt><trkpt lat="46.00503884484436" lon="11.179969464501323"><ele>666.0</ele><time>2026-03-29T08:44:03.999Z</time></trkpt><trkpt lat="46.00503078996979" lon="11.18023149525064"><ele>668.3333333333334</ele><time>2026-03-29T08:44:04.999Z</time></trkpt><trkpt lat="46.005029932728974" lon="11.18049354322662"><ele>670.6666666666667</ele><time>2026-03-29T08:44:05.999Z</time></trkpt><trkpt lat="46.00505610753964" lon="11.180763723208136"><ele>673.0</ele><time>2026-03-29T08:44:06.999Z</time></trkpt><trkpt lat="46.005099918724596" lon="11.18106097521195"><ele>675.3333333333334</ele><time>2026-03-29T08:44:07.999Z</time></trkpt><trkpt lat="46.00509283961185" lon="11.181327418841038"><ele>677.6666666666666</ele><time>2026-03-29T08:44:08.999Z</time></trkpt><trkpt lat="46.005048689203406" lon="11.181597499773716"><ele>680.0</ele><time>2026-03-29T08:44:09.999Z</time></trkpt><trkpt lat="46.005000393742165" lon="11.181888014169283"><ele>678.6666666666666</ele><time>2026-03-29T08:44:10.999Z</time></trkpt><trkpt lat="46.004953766972754" lon="11.182203890722814"><ele>677.3333333333334</ele><time>2026-03-29T08:44:11.999Z</time></trkpt><trkpt lat="46.00493286446361" lon="11.182524994432473"><ele>676.0</ele><time>2026-03-29T08:44:12.999Z</time></trkpt><trkpt lat="46.004910930943" lon="11.182800261474219"><ele>676.0</ele><time>2026-03-29T08:44:13.999Z</time></trkpt><trkpt lat="46.00490433368692" lon="11.183079425578228"><ele>676.0</ele><time>2026-03-29T08:44:14.999Z</time></trkpt><trkpt lat="46.00490771002889" lon="11.1833860739343"><ele>676.0</ele><time>2026-03-29T08:44:15.999Z</time></trkpt><trkpt lat="46.004921245510495" lon="11.183689532871705"><ele>676.3333333333334</ele><time>2026-03-29T08:44:16.999Z</time></trkpt><trkpt lat="46.004936955091026" lon="11.18394752745928"><ele>676.6666666666666</ele><time>2026-03-29T08:44:17.999Z</time></trkpt><trkpt lat="46.00490423662752" lon="11.184190875507333"><ele>677.0</ele><time>2026-03-29T08:44:18.999Z</time></trkpt><trkpt lat="46.00503143309756" lon="11.184397972440031"><ele>682.0</ele><time>2026-03-29T08:44:19.999Z</time></trkpt><trkpt lat="46.00511319186956" lon="11.184629800541055"><ele>687.0</ele><time>2026-03-29T08:44:20.999Z</time></trkpt><trkpt lat="46.00521963531" lon="11.184844186208599"><ele>692.0</ele><time>2026-03-29T08:44:21.999Z</time></trkpt><trkpt lat="46.00528276626972" lon="11.185043019424343"><ele>692.0</ele><time>2026-03-29T08:44:22.999Z</time></trkpt><trkpt lat="46.00531987852949" lon="11.18524865891633"><ele>692.0</ele><time>2026-03-29T08:44:23.999Z</time></trkpt><trkpt lat="46.00530300933192" lon="11.18549741188566"><ele>692.0</ele><time>2026-03-29T08:44:24.999Z</time></trkpt><trkpt lat="46.00528129653578" lon="11.185784858018875"><ele>691.5</ele><time>2026-03-29T08:44:25.999Z</time></trkpt><trkpt lat="46.00527272775497" lon="11.186111492062814"><ele>691.0</ele><time>2026-03-29T08:44:26.999Z</time></trkpt><trkpt lat="46.00528815249937" lon="11.186466313577649"><ele>690.6666666666667</ele><time>2026-03-29T08:44:27.999Z</time></trkpt><trkpt lat="46.00530625063849" lon="11.186765041878346"><ele>690.3333333333334</ele><time>2026-03-29T08:44:28.999Z</time></trkpt><trkpt lat="46.00533479744654" lon="11.187030009990835"><ele>690.0</ele><time>2026-03-29T08:44:29.999Z</time></trkpt><trkpt lat="46.00538239344596" lon="11.18729011814474"><ele>690.3333333333334</ele><time>2026-03-29T08:44:30.999Z</time></trkpt><trkpt lat="46.00544475791723" lon="11.187554533563045"><ele>690.6666666666667</ele><time>2026-03-29T08:44:31.999Z</time></trkpt><trkpt lat="46.00553257806215" lon="11.187811351852606"><ele>691.0</ele><time>2026-03-29T08:44:32.999Z</time></trkpt><trkpt lat="46.00561485394731" lon="11.18806453823583"><ele>690.3333333333334</ele><time>2026-03-29T08:44:33.999Z</time></trkpt><trkpt lat="46.005677559160475" lon="11.188293656560035"><ele>689.6666666666666</ele><time>2026-03-29T08:44:34.999Z</time></trkpt><trkpt lat="46.00573025607422" lon="11.18852112621834"><ele>689.0</ele><time>2026-03-29T08:44:35.999Z</time></trkpt><trkpt lat="46.0057834763898" lon="11.188745042858008"><ele>689.0</ele><time>2026-03-29T08:44:36.999Z</time></trkpt><trkpt lat="46.00582731117483" lon="11.188937231569613"><ele>689.0</ele><time>2026-03-29T08:44:37.999Z</time></trkpt><trkpt lat="46.005872614162556" lon="11.189132223506363"><ele>689.0</ele><time>2026-03-29T08:44:38.999Z</time></trkpt><trkpt lat="46.00590727531586" lon="11.189333383717482"><ele>689.0</ele><time>2026-03-29T08:44:39.999Z</time></trkpt><trkpt lat="46.00588937791632" lon="11.18953378915494"><ele>694.3333333333333</ele><time>2026-03-29T08:44:40.999Z</time></trkpt><trkpt lat="46.005888349373265" lon="11.189756011820503"><ele>699.6666666666666</ele><time>2026-03-29T08:44:41.999Z</time></trkpt><trkpt lat="46.005900644753325" lon="11.189981721833849"><ele>705.0</ele><time>2026-03-29T08:44:42.999Z</time></trkpt><trkpt lat="46.00590161698289" lon="11.19022499414837"><ele>705.6666666666666</ele><time>2026-03-29T08:44:43.999Z</time></trkpt><trkpt lat="46.00590752352314" lon="11.190475297294435"><ele>706.3333333333333</ele><time>2026-03-29T08:44:44.999Z</time></trkpt><trkpt lat="46.005914626328995" lon="11.190733599723712"><ele>707.0</ele><time>2026-03-29T08:44:45.999Z</time></trkpt><trkpt lat="46.00592894329082" lon="11.190998683699908"><ele>707.6666666666666</ele><time>2026-03-29T08:44:46.999Z</time></trkpt><trkpt lat="46.00591125715902" lon="11.191226714052219"><ele>708.3333333333334</ele><time>2026-03-29T08:44:47.999Z</time></trkpt><trkpt lat="46.005893166707466" lon="11.191455765172007"><ele>709.0</ele><time>2026-03-29T08:44:48.999Z</time></trkpt><trkpt lat="46.0058728947791" lon="11.191678782583066"><ele>709.75</ele><time>2026-03-29T08:44:49.999Z</time></trkpt><trkpt lat="46.005851865802555" lon="11.191910128574179"><ele>710.5</ele><time>2026-03-29T08:44:50.999Z</time></trkpt><trkpt lat="46.00583199670131" lon="11.192128714457725"><ele>711.25</ele><time>2026-03-29T08:44:51.999Z</time></trkpt><trkpt lat="46.00582686772269" lon="11.192318857842874"><ele>712.0</ele><time>2026-03-29T08:44:52.999Z</time></trkpt><trkpt lat="46.0058041862707" lon="11.192503235259501"><ele>711.75</ele><time>2026-03-29T08:44:53.999Z</time></trkpt><trkpt lat="46.005754860599524" lon="11.192686100889285"><ele>711.5</ele><time>2026-03-29T08:44:55Z</time></trkpt><trkpt lat="46.00571095444138" lon="11.192873383838984"><ele>711.25</ele><time>2026-03-29T08:44:56Z</time></trkpt><trkpt lat="46.00567950963984" lon="11.193058753884438"><ele>711.0</ele><time>2026-03-29T08:44:57Z</time></trkpt><trkpt lat="46.0056330393742" lon="11.193221061112357"><ele>711.0</ele><time>2026-03-29T08:44:58Z</time></trkpt><trkpt lat="46.005574466588754" lon="11.193373842536808"><ele>711.0</ele><time>2026-03-29T08:44:59Z</time></trkpt><trkpt lat="46.005521970124754" lon="11.193521800394727"><ele>711.0</ele><time>2026-03-29T08:45:00Z</time></trkpt><trkpt lat="46.005470844876754" lon="11.193632759576918"><ele>711.0</ele><time>2026-03-29T08:45:01Z</time></trkpt><trkpt lat="46.00542181746538" lon="11.19374827759878"><ele>711.0</ele><time>2026-03-29T08:45:02Z</time></trkpt><trkpt lat="46.00535622084059" lon="11.193850697086997"><ele>711.0</ele><time>2026-03-29T08:45:03Z</time></trkpt><trkpt lat="46.005284332496146" lon="11.193958646035643"><ele>711.0</ele><time>2026-03-29T08:45:04Z</time></trkpt><trkpt lat="46.00521147286602" lon="11.19407195432363"><ele>711.0</ele><time>2026-03-29T08:45:05Z</time></trkpt><trkpt lat="46.00513561150223" lon="11.194195504924219"><ele>711.0</ele><time>2026-03-29T08:45:06Z</time></trkpt><trkpt lat="46.00506219374271" lon="11.194315290196895"><ele>711.0</ele><time>2026-03-29T08:45:07Z</time></trkpt><trkpt lat="46.00498305326654" lon="11.194438431830033"><ele>711.0</ele><time>2026-03-29T08:45:08Z</time></trkpt><trkpt lat="46.00490154578232" lon="11.194568627805175"><ele>711.0</ele><time>2026-03-29T08:45:09Z</time></trkpt><trkpt lat="46.00481956833184" lon="11.194700475680857"><ele>711.0</ele><time>2026-03-29T08:45:10Z</time></trkpt><trkpt lat="46.00473556761009" lon="11.194846151874598"><ele>711.0</ele><time>2026-03-29T08:45:11Z</time></trkpt><trkpt lat="46.0046436835837" lon="11.194995053505775"><ele>711.0</ele><time>2026-03-29T08:45:12Z</time></trkpt><trkpt lat="46.00454889921868" lon="11.19513821227418"><ele>711.0</ele><time>2026-03-29T08:45:13Z</time></trkpt><trkpt lat="46.00445303164215" lon="11.19528954404261"><ele>711.0</ele><time>2026-03-29T08:45:14Z</time></trkpt><trkpt lat="46.00435644019616" lon="11.195440672797284"><ele>711.0</ele><time>2026-03-29T08:45:15Z</time></trkpt><trkpt lat="46.00426545345341" lon="11.195600388500285"><ele>711.75</ele><time>2026-03-29T08:45:16Z</time></trkpt><trkpt lat="46.00416842080691" lon="11.1957619201686"><ele>712.5</ele><time>2026-03-29T08:45:17Z</time></trkpt><trkpt lat="46.0040685921676" lon="11.195922582341975"><ele>713.25</ele><time>2026-03-29T08:45:18Z</time></trkpt><trkpt lat="46.003964450627485" lon="11.196079674832555"><ele>714.0</ele><time>2026-03-29T08:45:19Z</time></trkpt><trkpt lat="46.00387470241408" lon="11.19622596560803"><ele>712.75</ele><time>2026-03-29T08:45:20Z</time></trkpt><trkpt lat="46.003787925770894" lon="11.196372301531495"><ele>711.5</ele><time>2026-03-29T08:45:21Z</time></trkpt><trkpt lat="46.0036976086548" lon="11.19652079022055"><ele>710.25</ele><time>2026-03-29T08:45:22Z</time></trkpt><trkpt lat="46.00360917771238" lon="11.196660526605742"><ele>709.0</ele><time>2026-03-29T08:45:23Z</time></trkpt><trkpt lat="46.00351978334961" lon="11.196813295098892"><ele>709.0</ele><time>2026-03-29T08:45:24Z</time></trkpt><trkpt lat="46.0034394915423" lon="11.196974491599498"><ele>709.0</ele><time>2026-03-29T08:45:25Z</time></trkpt><trkpt lat="46.00335914884837" lon="11.1971524731259"><ele>709.0</ele><time>2026-03-29T08:45:26Z</time></trkpt><trkpt lat="46.00327211334346" lon="11.197330767712081"><ele>709.0</ele><time>2026-03-29T08:45:27Z</time></trkpt><trkpt lat="46.003185021902304" lon="11.19751038535365"><ele>707.6666666666667</ele><time>2026-03-29T08:45:28Z</time></trkpt><trkpt lat="46.00309644529488" lon="11.197682848783952"><ele>706.3333333333334</ele><time>2026-03-29T08:45:29Z</time></trkpt><trkpt lat="46.0030090597683" lon="11.197867566724836"><ele>705.0</ele><time>2026-03-29T08:45:30Z</time></trkpt><trkpt lat="46.002930321921504" lon="11.198063135797698"><ele>705.3333333333334</ele><time>2026-03-29T08:45:31Z</time></trkpt><trkpt lat="46.00286963794731" lon="11.198274443818217"><ele>705.6666666666667</ele><time>2026-03-29T08:45:32Z</time></trkpt><trkpt lat="46.00283569966524" lon="11.198502037142292"><ele>706.0</ele><time>2026-03-29T08:45:33Z</time></trkpt><trkpt lat="46.002802645590684" lon="11.198733893185203"><ele>706.0</ele><time>2026-03-29T08:45:34Z</time></trkpt><trkpt lat="46.002768563618744" lon="11.198962785172055"><ele>706.0</ele><time>2026-03-29T08:45:35Z</time></trkpt><trkpt lat="46.00273395926131" lon="11.19916743126145"><ele>706.0</ele><time>2026-03-29T08:45:36Z</time></trkpt><trkpt lat="46.00267918348156" lon="11.199347553701719"><ele>706.0</ele><time>2026-03-29T08:45:37Z</time></trkpt><trkpt lat="46.00260619625751" lon="11.19950341945166"><ele>705.25</ele><time>2026-03-29T08:45:38Z</time></trkpt><trkpt lat="46.00251417418629" lon="11.19965636700955"><ele>704.5</ele><time>2026-03-29T08:45:39Z</time></trkpt><trkpt lat="46.002410521041305" lon="11.199817024719819"><ele>703.75</ele><time>2026-03-29T08:45:40Z</time></trkpt><trkpt lat="46.00229626332849" lon="11.199967019088039"><ele>703.0</ele><time>2026-03-29T08:45:41Z</time></trkpt><trkpt lat="46.0021687933502" lon="11.200103952526126"><ele>700.6666666666667</ele><time>2026-03-29T08:45:42Z</time></trkpt><trkpt lat="46.002030819148835" lon="11.200209644770453"><ele>698.3333333333334</ele><time>2026-03-29T08:45:43Z</time></trkpt><trkpt lat="46.001885349763704" lon="11.200321497155121"><ele>696.0</ele><time>2026-03-29T08:45:44Z</time></trkpt><trkpt lat="46.00174167712069" lon="11.200465731465702"><ele>694.0</ele><time>2026-03-29T08:45:45Z</time></trkpt><trkpt lat="46.00158711645509" lon="11.20060744037999"><ele>692.0</ele><time>2026-03-29T08:45:46Z</time></trkpt><trkpt lat="46.00144984719085" lon="11.20073861174748"><ele>690.0</ele><time>2026-03-29T08:45:47Z</time></trkpt><trkpt lat="46.00131685876264" lon="11.20086415701734"><ele>689.3333333333334</ele><time>2026-03-29T08:45:48Z</time></trkpt><trkpt lat="46.00118971238897" lon="11.201010786554038"><ele>688.6666666666667</ele><time>2026-03-29T08:45:49Z</time></trkpt><trkpt lat="46.001082288870535" lon="11.201189254793507"><ele>688.0</ele><time>2026-03-29T08:45:50Z</time></trkpt><trkpt lat="46.000978256836724" lon="11.201396004434748"><ele>687.6666666666667</ele><time>2026-03-29T08:45:51Z</time></trkpt><trkpt lat="46.00087687355858" lon="11.201611297268169"><ele>687.3333333333334</ele><time>2026-03-29T08:45:52Z</time></trkpt><trkpt lat="46.00076630753271" lon="11.201833329505115"><ele>687.0</ele><time>2026-03-29T08:45:53Z</time></trkpt><trkpt lat="46.000670260413884" lon="11.202053899672268"><ele>685.6666666666666</ele><time>2026-03-29T08:45:54Z</time></trkpt><trkpt lat="46.00057574614382" lon="11.202251918529344"><ele>684.3333333333333</ele><time>2026-03-29T08:45:55Z</time></trkpt><trkpt lat="46.000479834147995" lon="11.20243983967479"><ele>683.0</ele><time>2026-03-29T08:45:56Z</time></trkpt><trkpt lat="46.00039488952477" lon="11.202622761571387"><ele>682.75</ele><time>2026-03-29T08:45:57Z</time></trkpt><trkpt lat="46.000324595902136" lon="11.202798385245021"><ele>682.5</ele><time>2026-03-29T08:45:58Z</time></trkpt><trkpt lat="46.000262093654484" lon="11.20297343756579"><ele>682.25</ele><time>2026-03-29T08:45:59Z</time></trkpt><trkpt lat="46.00020737706793" lon="11.203142479013737"><ele>682.0</ele><time>2026-03-29T08:46:00Z</time></trkpt><trkpt lat="46.0001493228411" lon="11.203293220496855"><ele>681.4000000000001</ele><time>2026-03-29T08:46:01Z</time></trkpt><trkpt lat="46.00006556669953" lon="11.20341412029482"><ele>680.8000000000001</ele><time>2026-03-29T08:46:01.999Z</time></trkpt><trkpt lat="45.99997803799772" lon="11.2034937916844"><ele>680.2</ele><time>2026-03-29T08:46:02.999Z</time></trkpt><trkpt lat="45.99989512395508" lon="11.203533278101977"><ele>679.6</ele><time>2026-03-29T08:46:03.999Z</time></trkpt><trkpt lat="45.999839812455946" lon="11.20360999035927"><ele>679.0</ele><time>2026-03-29T08:46:04.999Z</time></trkpt><trkpt lat="45.99982237659191" lon="11.203722549269996"><ele>679.0</ele><time>2026-03-29T08:46:05.999Z</time></trkpt><trkpt lat="45.999855562112224" lon="11.203837754551285"><ele>679.0</ele><time>2026-03-29T08:46:06.999Z</time></trkpt><trkpt lat="45.999920219388564" lon="11.203939561310884"><ele>679.0</ele><time>2026-03-29T08:46:07.999Z</time></trkpt><trkpt lat="46.000010326919096" lon="11.204034244817718"><ele>679.0</ele><time>2026-03-29T08:46:08.999Z</time></trkpt><trkpt lat="46.00008063462969" lon="11.204174254279017"><ele>679.0</ele><time>2026-03-29T08:46:09.999Z</time></trkpt><trkpt lat="46.00012930667478" lon="11.204350768093107"><ele>677.3333333333334</ele><time>2026-03-29T08:46:10.999Z</time></trkpt><trkpt lat="46.00017093317755" lon="11.2045536371416"><ele>675.6666666666666</ele><time>2026-03-29T08:46:11.999Z</time></trkpt><trkpt lat="46.000189991015766" lon="11.204800489027763"><ele>674.0</ele><time>2026-03-29T08:46:12.999Z</time></trkpt><trkpt lat="46.000216335217544" lon="11.205069234224576"><ele>672.6666666666666</ele><time>2026-03-29T08:46:13.999Z</time></trkpt><trkpt lat="46.000247833015266" lon="11.205367589122488"><ele>671.3333333333334</ele><time>2026-03-29T08:46:14.999Z</time></trkpt><trkpt lat="46.000277829500035" lon="11.205668489306941"><ele>670.0</ele><time>2026-03-29T08:46:15.999Z</time></trkpt><trkpt lat="46.00030818366179" lon="11.205978342527441"><ele>670.0</ele><time>2026-03-29T08:46:16.999Z</time></trkpt><trkpt lat="46.00034274704687" lon="11.206286342413094"><ele>670.0</ele><time>2026-03-29T08:46:17.999Z</time></trkpt><trkpt lat="46.000371724714284" lon="11.206566368759637"><ele>670.0</ele><time>2026-03-29T08:46:18.999Z</time></trkpt><trkpt lat="46.00039806638625" lon="11.206839205982444"><ele>669.0</ele><time>2026-03-29T08:46:19.999Z</time></trkpt><trkpt lat="46.000425701036285" lon="11.207115909079988"><ele>668.0</ele><time>2026-03-29T08:46:20.999Z</time></trkpt><trkpt lat="46.000453403105666" lon="11.207382935035167"><ele>667.0</ele><time>2026-03-29T08:46:21.999Z</time></trkpt><trkpt lat="46.00048494196257" lon="11.207649354389847"><ele>666.0</ele><time>2026-03-29T08:46:22.999Z</time></trkpt><trkpt lat="46.000518631869284" lon="11.207920119179976"><ele>665.0</ele><time>2026-03-29T08:46:23.999Z</time></trkpt><trkpt lat="46.000551323049294" lon="11.208198007487246"><ele>664.0</ele><time>2026-03-29T08:46:24.999Z</time></trkpt><trkpt lat="46.00058030874416" lon="11.208488565538937"><ele>662.3333333333334</ele><time>2026-03-29T08:46:25.999Z</time></trkpt><trkpt lat="46.00060887612526" lon="11.208790208295477"><ele>660.6666666666666</ele><time>2026-03-29T08:46:26.999Z</time></trkpt><trkpt lat="46.000639799174124" lon="11.209100783704148"><ele>659.0</ele><time>2026-03-29T08:46:27.999Z</time></trkpt><trkpt lat="46.00067178756387" lon="11.209409495737743"><ele>658.3333333333333</ele><time>2026-03-29T08:46:28.999Z</time></trkpt><trkpt lat="46.000703289341935" lon="11.209696210097738"><ele>657.6666666666666</ele><time>2026-03-29T08:46:29.999Z</time></trkpt><trkpt lat="46.00073675848678" lon="11.209986267767361"><ele>657.0</ele><time>2026-03-29T08:46:30.999Z</time></trkpt><trkpt lat="46.00077099168036" lon="11.210282419462322"><ele>657.3333333333334</ele><time>2026-03-29T08:46:31.999Z</time></trkpt><trkpt lat="46.00080300460689" lon="11.210581637802415"><ele>657.6666666666667</ele><time>2026-03-29T08:46:32.999Z</time></trkpt><trkpt lat="46.0008354932646" lon="11.210882225365891"><ele>658.0</ele><time>2026-03-29T08:46:33.999Z</time></trkpt><trkpt lat="46.00086458165937" lon="11.211186250622957"><ele>658.0</ele><time>2026-03-29T08:46:34.999Z</time></trkpt><trkpt lat="46.000891792139086" lon="11.211484924164113"><ele>658.0</ele><time>2026-03-29T08:46:35.999Z</time></trkpt><trkpt lat="46.000925341686305" lon="11.211784744140871"><ele>658.0</ele><time>2026-03-29T08:46:36.999Z</time></trkpt><trkpt lat="46.000949631968986" lon="11.21209374584043"><ele>657.3333333333334</ele><time>2026-03-29T08:46:37.999Z</time></trkpt><trkpt lat="46.000957882791965" lon="11.212415477131861"><ele>656.6666666666666</ele><time>2026-03-29T08:46:38.999Z</time></trkpt><trkpt lat="46.00092764766382" lon="11.21271732117148"><ele>656.0</ele><time>2026-03-29T08:46:39.999Z</time></trkpt><trkpt lat="46.000903198027245" lon="11.213000809300599"><ele>656.0</ele><time>2026-03-29T08:46:40.999Z</time></trkpt><trkpt lat="46.000890016195115" lon="11.213292923522028"><ele>656.0</ele><time>2026-03-29T08:46:41.999Z</time></trkpt><trkpt lat="46.00085068729528" lon="11.213579328485197"><ele>656.0</ele><time>2026-03-29T08:46:42.999Z</time></trkpt><trkpt lat="46.000812136103825" lon="11.213865035817449"><ele>652.0</ele><time>2026-03-29T08:46:43.999Z</time></trkpt><trkpt lat="46.00077770855373" lon="11.214150168252313"><ele>648.0</ele><time>2026-03-29T08:46:44.999Z</time></trkpt><trkpt lat="46.000718861791434" lon="11.214432777793892"><ele>644.0</ele><time>2026-03-29T08:46:45.999Z</time></trkpt><trkpt lat="46.000681312434075" lon="11.214719995761827"><ele>643.3333333333333</ele><time>2026-03-29T08:46:46.999Z</time></trkpt><trkpt lat="46.00064369771762" lon="11.215007713676673"><ele>642.6666666666666</ele><time>2026-03-29T08:46:47.999Z</time></trkpt><trkpt lat="46.000606530337926" lon="11.215292009830355"><ele>642.0</ele><time>2026-03-29T08:46:48.999Z</time></trkpt><trkpt lat="46.00056918157221" lon="11.215577958041486"><ele>643.6666666666666</ele><time>2026-03-29T08:46:49.999Z</time></trkpt><trkpt lat="46.00053209966203" lon="11.215863903746301"><ele>645.3333333333333</ele><time>2026-03-29T08:46:50.999Z</time></trkpt><trkpt lat="46.00049455712368" lon="11.216153401469246"><ele>647.0</ele><time>2026-03-29T08:46:51.999Z</time></trkpt><trkpt lat="46.00045757502511" lon="11.216438578309376"><ele>648.0</ele><time>2026-03-29T08:46:52.999Z</time></trkpt><trkpt lat="46.000434577921155" lon="11.216726434888207"><ele>649.0</ele><time>2026-03-29T08:46:53.999Z</time></trkpt><trkpt lat="46.00039656953506" lon="11.217011986175885"><ele>650.0</ele><time>2026-03-29T08:46:54.999Z</time></trkpt><trkpt lat="46.00035994886857" lon="11.217302536593238"><ele>650.0</ele><time>2026-03-29T08:46:55.999Z</time></trkpt><trkpt lat="46.000315405301514" lon="11.21760471318554"><ele>650.0</ele><time>2026-03-29T08:46:56.999Z</time></trkpt><trkpt lat="46.000304507558226" lon="11.217917622660606"><ele>650.0</ele><time>2026-03-29T08:46:57.999Z</time></trkpt><trkpt lat="46.000296098940005" lon="11.218235795209003"><ele>650.6666666666666</ele><time>2026-03-29T08:46:58.999Z</time></trkpt><trkpt lat="46.000311883046045" lon="11.218527509484794"><ele>651.3333333333334</ele><time>2026-03-29T08:46:59.999Z</time></trkpt><trkpt lat="46.000330622315694" lon="11.218791048139726"><ele>652.0</ele><time>2026-03-29T08:47:01Z</time></trkpt><trkpt lat="46.00035678587263" lon="11.219032023825346"><ele>652.25</ele><time>2026-03-29T08:47:02Z</time></trkpt><trkpt lat="46.000395967833796" lon="11.219247654249928"><ele>652.5</ele><time>2026-03-29T08:47:03Z</time></trkpt><trkpt lat="46.00043657561877" lon="11.21943060506501"><ele>652.75</ele><time>2026-03-29T08:47:04Z</time></trkpt><trkpt lat="46.0004720085644" lon="11.219591068262936"><ele>653.0</ele><time>2026-03-29T08:47:05Z</time></trkpt><trkpt lat="46.000503710170015" lon="11.219735878549155"><ele>653.5999999999999</ele><time>2026-03-29T08:47:06Z</time></trkpt><trkpt lat="46.00053288034381" lon="11.219871789366943"><ele>654.1999999999999</ele><time>2026-03-29T08:47:07Z</time></trkpt><trkpt lat="46.000555882275755" lon="11.219996355493697"><ele>654.8</ele><time>2026-03-29T08:47:08Z</time></trkpt><trkpt lat="46.00057872355038" lon="11.220121353233276"><ele>655.4</ele><time>2026-03-29T08:47:09Z</time></trkpt><trkpt lat="46.00060751956982" lon="11.220252002282903"><ele>656.0</ele><time>2026-03-29T08:47:10Z</time></trkpt><trkpt lat="46.00064123434415" lon="11.220392766393603"><ele>656.0</ele><time>2026-03-29T08:47:11Z</time></trkpt><trkpt lat="46.00066941442502" lon="11.220550770807096"><ele>656.0</ele><time>2026-03-29T08:47:12Z</time></trkpt><trkpt lat="46.00070305111832" lon="11.220711510732547"><ele>656.0</ele><time>2026-03-29T08:47:13Z</time></trkpt><trkpt lat="46.000738692043676" lon="11.220877900826572"><ele>656.0</ele><time>2026-03-29T08:47:14Z</time></trkpt><trkpt lat="46.00076773478956" lon="11.221051521221963"><ele>657.5</ele><time>2026-03-29T08:47:15Z</time></trkpt><trkpt lat="46.00079940730931" lon="11.221235500633224"><ele>659.0</ele><time>2026-03-29T08:47:16Z</time></trkpt><trkpt lat="46.000841127414105" lon="11.221427830508235"><ele>660.5</ele><time>2026-03-29T08:47:17Z</time></trkpt><trkpt lat="46.00088047500677" lon="11.221623653370361"><ele>662.0</ele><time>2026-03-29T08:47:18Z</time></trkpt><trkpt lat="46.00092172741376" lon="11.221827358816409"><ele>664.6666666666666</ele><time>2026-03-29T08:47:19Z</time></trkpt><trkpt lat="46.00096117069185" lon="11.222039658300787"><ele>667.3333333333334</ele><time>2026-03-29T08:47:20Z</time></trkpt><trkpt lat="46.00100193653506" lon="11.22226241904936"><ele>670.0</ele><time>2026-03-29T08:47:21Z</time></trkpt><trkpt lat="46.001043749728034" lon="11.22246900157704"><ele>670.0</ele><time>2026-03-29T08:47:22Z</time></trkpt><trkpt lat="46.00108138468134" lon="11.222639527524368"><ele>670.0</ele><time>2026-03-29T08:47:23Z</time></trkpt><trkpt lat="46.00111144279323" lon="11.222795285810413"><ele>670.0</ele><time>2026-03-29T08:47:24Z</time></trkpt><trkpt lat="46.00114289821196" lon="11.222938599646755"><ele>670.0</ele><time>2026-03-29T08:47:25Z</time></trkpt><trkpt lat="46.00116445796813" lon="11.22305510589775"><ele>670.0</ele><time>2026-03-29T08:47:26Z</time></trkpt><trkpt lat="46.00119258594905" lon="11.223196685586602"><ele>669.2</ele><time>2026-03-29T08:47:28Z</time></trkpt><trkpt lat="46.00121444671063" lon="11.223342019888102"><ele>668.4</ele><time>2026-03-29T08:47:46Z</time></trkpt><trkpt lat="46.00123296500531" lon="11.223451780137669"><ele>667.5999999999999</ele><time>2026-03-29T08:47:47Z</time></trkpt><trkpt lat="46.001248203905064" lon="11.223578892571366"><ele>666.8</ele><time>2026-03-29T08:47:48Z</time></trkpt><trkpt lat="46.0012619245377" lon="11.22371926020704"><ele>666.0</ele><time>2026-03-29T08:47:49Z</time></trkpt><trkpt lat="46.00127028082657" lon="11.223855092579518"><ele>665.8333333333334</ele><time>2026-03-29T08:47:50Z</time></trkpt><trkpt lat="46.00126954640098" lon="11.223984346145325"><ele>665.6666666666666</ele><time>2026-03-29T08:47:51Z</time></trkpt><trkpt lat="46.001268473891216" lon="11.224111130018889"><ele>665.5</ele><time>2026-03-29T08:47:52Z</time></trkpt><trkpt lat="46.00127405655281" lon="11.224237036592559"><ele>665.3333333333333</ele><time>2026-03-29T08:47:53Z</time></trkpt><trkpt lat="46.001277384196364" lon="11.224366855083563"><ele>665.1666666666666</ele><time>2026-03-29T08:47:54Z</time></trkpt><trkpt lat="46.00127954245096" lon="11.224497266053833"><ele>665.0</ele><time>2026-03-29T08:47:55Z</time></trkpt><trkpt lat="46.001277946273" lon="11.224616854408058"><ele>665.0</ele><time>2026-03-29T08:47:56Z</time></trkpt><trkpt lat="46.001278089285606" lon="11.224739687845917"><ele>665.0</ele><time>2026-03-29T08:47:57Z</time></trkpt><trkpt lat="46.00128225094542" lon="11.224871873586578"><ele>665.0</ele><time>2026-03-29T08:47:58Z</time></trkpt><trkpt lat="46.00128884788306" lon="11.225003716094383"><ele>665.0</ele><time>2026-03-29T08:47:59Z</time></trkpt><trkpt lat="46.00130114203336" lon="11.22514001694649"><ele>665.0</ele><time>2026-03-29T08:48:00Z</time></trkpt><trkpt lat="46.00132941803179" lon="11.225275356033345"><ele>664.2</ele><time>2026-03-29T08:48:01Z</time></trkpt><trkpt lat="46.00137014666639" lon="11.22540562506496"><ele>663.4</ele><time>2026-03-29T08:48:02Z</time></trkpt><trkpt lat="46.001399948781874" lon="11.225519748673907"><ele>662.5999999999999</ele><time>2026-03-29T08:48:03Z</time></trkpt><trkpt lat="46.001433875464556" lon="11.225627612293719"><ele>661.8</ele><time>2026-03-29T08:48:04Z</time></trkpt><trkpt lat="46.0014668504243" lon="11.22574800985177"><ele>661.0</ele><time>2026-03-29T08:48:05Z</time></trkpt><trkpt lat="46.001503805946214" lon="11.225875065584912"><ele>660.5</ele><time>2026-03-29T08:48:06Z</time></trkpt><trkpt lat="46.00154389771978" lon="11.226015914249787"><ele>660.0</ele><time>2026-03-29T08:48:07Z</time></trkpt><trkpt lat="46.00158654212735" lon="11.226178972499804"><ele>659.5</ele><time>2026-03-29T08:48:08Z</time></trkpt><trkpt lat="46.001634227941516" lon="11.226331908061981"><ele>659.0</ele><time>2026-03-29T08:48:09Z</time></trkpt><trkpt lat="46.00168188579863" lon="11.226517700437373"><ele>659.75</ele><time>2026-03-29T08:48:10Z</time></trkpt><trkpt lat="46.00173331080762" lon="11.226707767320871"><ele>660.5</ele><time>2026-03-29T08:48:11Z</time></trkpt><trkpt lat="46.001787300922565" lon="11.226906626924778"><ele>661.25</ele><time>2026-03-29T08:48:11.999Z</time></trkpt><trkpt lat="46.001845367407014" lon="11.22711632857743"><ele>662.0</ele><time>2026-03-29T08:48:12.999Z</time></trkpt><trkpt lat="46.001903779304975" lon="11.227338338043847"><ele>662.0</ele><time>2026-03-29T08:48:13.999Z</time></trkpt><trkpt lat="46.00195841006823" lon="11.227551405669924"><ele>662.0</ele><time>2026-03-29T08:48:14.999Z</time></trkpt><trkpt lat="46.00201101050069" lon="11.227752937416755"><ele>662.0</ele><time>2026-03-29T08:48:15.999Z</time></trkpt><trkpt lat="46.002064013203714" lon="11.227942534887609"><ele>662.0</ele><time>2026-03-29T08:48:16.999Z</time></trkpt><trkpt lat="46.0021160705762" lon="11.228137572673432"><ele>659.5</ele><time>2026-03-29T08:48:17.999Z</time></trkpt><trkpt lat="46.00216024697669" lon="11.228323166808295"><ele>657.0</ele><time>2026-03-29T08:48:18.999Z</time></trkpt><trkpt lat="46.00215311837917" lon="11.22851358712407"><ele>654.5</ele><time>2026-03-29T08:48:19.999Z</time></trkpt><trkpt lat="46.0021372766746" lon="11.228692800232338"><ele>652.0</ele><time>2026-03-29T08:48:20.999Z</time></trkpt><trkpt lat="46.00208788984013" lon="11.228863664129745"><ele>649.0</ele><time>2026-03-29T08:48:21.999Z</time></trkpt><trkpt lat="46.002016791204035" lon="11.22903782495957"><ele>646.0</ele><time>2026-03-29T08:48:22.999Z</time></trkpt><trkpt lat="46.001920130455225" lon="11.229221147918818"><ele>643.0</ele><time>2026-03-29T08:48:23.999Z</time></trkpt><trkpt lat="46.0018146827364" lon="11.229425169839825"><ele>643.0</ele><time>2026-03-29T08:48:24.999Z</time></trkpt><trkpt lat="46.00174865990728" lon="11.2296185222786"><ele>643.0</ele><time>2026-03-29T08:48:25.999Z</time></trkpt><trkpt lat="46.0016911678885" lon="11.229796766161117"><ele>643.0</ele><time>2026-03-29T08:48:26.999Z</time></trkpt><trkpt lat="46.00166399375529" lon="11.22997646746078"><ele>643.0</ele><time>2026-03-29T08:48:27.999Z</time></trkpt><trkpt lat="46.001683378149586" lon="11.230166978594037"><ele>640.0</ele><time>2026-03-29T08:48:28.999Z</time></trkpt><trkpt lat="46.00174945448767" lon="11.230368421048949"><ele>637.0</ele><time>2026-03-29T08:48:29.999Z</time></trkpt><trkpt lat="46.001847522416206" lon="11.230575282817032"><ele>634.0</ele><time>2026-03-29T08:48:30.999Z</time></trkpt><trkpt lat="46.00196152824385" lon="11.230800402030058"><ele>631.6666666666667</ele><time>2026-03-29T08:48:31.999Z</time></trkpt><trkpt lat="46.00207254083129" lon="11.231039121182087"><ele>629.3333333333334</ele><time>2026-03-29T08:48:32.999Z</time></trkpt><trkpt lat="46.00218198016807" lon="11.23128825625451"><ele>627.0</ele><time>2026-03-29T08:48:33.999Z</time></trkpt><trkpt lat="46.002298354464166" lon="11.231545370847037"><ele>626.3333333333334</ele><time>2026-03-29T08:48:34.999Z</time></trkpt><trkpt lat="46.002413631257824" lon="11.231786099722136"><ele>625.6666666666667</ele><time>2026-03-29T08:48:35.999Z</time></trkpt><trkpt lat="46.002511573400106" lon="11.232017584101035"><ele>625.0</ele><time>2026-03-29T08:48:36.999Z</time></trkpt><trkpt lat="46.00260939230771" lon="11.232236387952906"><ele>621.3333333333334</ele><time>2026-03-29T08:48:37.999Z</time></trkpt><trkpt lat="46.00269522194414" lon="11.23243775684088"><ele>617.6666666666666</ele><time>2026-03-29T08:48:38.999Z</time></trkpt><trkpt lat="46.00279371933151" lon="11.232609194514628"><ele>614.0</ele><time>2026-03-29T08:48:39.999Z</time></trkpt><trkpt lat="46.002912113370215" lon="11.232740640976752"><ele>614.0</ele><time>2026-03-29T08:48:40.999Z</time></trkpt><trkpt lat="46.00305655816613" lon="11.232841743505944"><ele>614.0</ele><time>2026-03-29T08:48:41.999Z</time></trkpt><trkpt lat="46.0032261725981" lon="11.232934765877049"><ele>614.0</ele><time>2026-03-29T08:48:42.999Z</time></trkpt><trkpt lat="46.003390838453534" lon="11.233039723388575"><ele>610.6666666666666</ele><time>2026-03-29T08:48:43.999Z</time></trkpt><trkpt lat="46.003561585796746" lon="11.233159403268338"><ele>607.3333333333334</ele><time>2026-03-29T08:48:44.999Z</time></trkpt><trkpt lat="46.00374067215267" lon="11.233292585250396"><ele>604.0</ele><time>2026-03-29T08:48:45.999Z</time></trkpt><trkpt lat="46.003916801945266" lon="11.233420463165203"><ele>604.0</ele><time>2026-03-29T08:48:46.999Z</time></trkpt><trkpt lat="46.00407343682748" lon="11.233541485892717"><ele>604.0</ele><time>2026-03-29T08:48:47.999Z</time></trkpt><trkpt lat="46.00419640008138" lon="11.233714897418292"><ele>604.0</ele><time>2026-03-29T08:48:48.999Z</time></trkpt><trkpt lat="46.00432892993692" lon="11.233892923168714"><ele>601.6666666666667</ele><time>2026-03-29T08:48:49.999Z</time></trkpt><trkpt lat="46.00445252854946" lon="11.234057574279257"><ele>599.3333333333334</ele><time>2026-03-29T08:48:50.999Z</time></trkpt><trkpt lat="46.00456958632947" lon="11.234208661043647"><ele>597.0</ele><time>2026-03-29T08:48:51.999Z</time></trkpt><trkpt lat="46.00468920670142" lon="11.234324626513638"><ele>597.0</ele><time>2026-03-29T08:48:52.999Z</time></trkpt><trkpt lat="46.00481059931867" lon="11.234423662326249"><ele>597.0</ele><time>2026-03-29T08:48:53.999Z</time></trkpt><trkpt lat="46.00495416118607" lon="11.234482487244545"><ele>597.0</ele><time>2026-03-29T08:48:54.999Z</time></trkpt><trkpt lat="46.00511404030199" lon="11.234508984898884"><ele>595.3333333333334</ele><time>2026-03-29T08:48:55.999Z</time></trkpt><trkpt lat="46.00526226213266" lon="11.23447187753786"><ele>593.6666666666667</ele><time>2026-03-29T08:48:56.999Z</time></trkpt><trkpt lat="46.00542445245429" lon="11.23437406094967"><ele>592.0</ele><time>2026-03-29T08:48:57.999Z</time></trkpt><trkpt lat="46.00560275181174" lon="11.234267345011547"><ele>592.0</ele><time>2026-03-29T08:48:58.999Z</time></trkpt><trkpt lat="46.00578987768601" lon="11.234170790417085"><ele>592.0</ele><time>2026-03-29T08:48:59.999Z</time></trkpt><trkpt lat="46.00597617060844" lon="11.234076662272555"><ele>592.0</ele><time>2026-03-29T08:49:00.999Z</time></trkpt><trkpt lat="46.006141832387286" lon="11.233997996648897"><ele>588.6666666666667</ele><time>2026-03-29T08:49:01.999Z</time></trkpt><trkpt lat="46.006307875842346" lon="11.234015049134593"><ele>585.3333333333334</ele><time>2026-03-29T08:49:02.999Z</time></trkpt><trkpt lat="46.006490615401425" lon="11.233999538924765"><ele>582.0</ele><time>2026-03-29T08:49:03.999Z</time></trkpt><trkpt lat="46.00669066219349" lon="11.234049709543871"><ele>579.0</ele><time>2026-03-29T08:49:04.999Z</time></trkpt><trkpt lat="46.00690864693574" lon="11.234117946604945"><ele>576.0</ele><time>2026-03-29T08:49:05.999Z</time></trkpt><trkpt lat="46.007133987169865" lon="11.234172988214365"><ele>576.0</ele><time>2026-03-29T08:49:07Z</time></trkpt><trkpt lat="46.00733141143985" lon="11.234229869466542"><ele>576.0</ele><time>2026-03-29T08:49:08Z</time></trkpt><trkpt lat="46.007525255393475" lon="11.234294836361537"><ele>576.0</ele><time>2026-03-29T08:49:09Z</time></trkpt><trkpt lat="46.00771677324377" lon="11.23432033293045"><ele>576.0</ele><time>2026-03-29T08:49:10Z</time></trkpt><trkpt lat="46.007887211124675" lon="11.234361564239762"><ele>576.0</ele><time>2026-03-29T08:49:11Z</time></trkpt><trkpt lat="46.00805079073178" lon="11.234388129849291"><ele>576.0</ele><time>2026-03-29T08:49:12Z</time></trkpt><trkpt lat="46.00819779057979" lon="11.234394505563852"><ele>575.0</ele><time>2026-03-29T08:49:13Z</time></trkpt><trkpt lat="46.008331448399915" lon="11.234348392984856"><ele>574.0</ele><time>2026-03-29T08:49:14Z</time></trkpt><trkpt lat="46.0084450945659" lon="11.234301283336059"><ele>573.0</ele><time>2026-03-29T08:49:15Z</time></trkpt><trkpt lat="46.008540399133246" lon="11.234275319691497"><ele>572.0</ele><time>2026-03-29T08:49:16Z</time></trkpt><trkpt lat="46.00861336053961" lon="11.234305320207028"><ele>571.0</ele><time>2026-03-29T08:49:17Z</time></trkpt><trkpt lat="46.00863243225062" lon="11.234408401702753"><ele>571.0</ele><time>2026-03-29T08:49:18Z</time></trkpt><trkpt lat="46.00860227413484" lon="11.234504062484502"><ele>571.0</ele><time>2026-03-29T08:49:19Z</time></trkpt><trkpt lat="46.008473947914894" lon="11.234591842253584"><ele>571.0</ele><time>2026-03-29T08:49:21Z</time></trkpt><trkpt lat="46.008352368961575" lon="11.234656145206175"><ele>571.0</ele><time>2026-03-29T08:49:22Z</time></trkpt><trkpt lat="46.00820571512085" lon="11.234761873209807"><ele>564.3333333333334</ele><time>2026-03-29T08:49:23Z</time></trkpt><trkpt lat="46.008030794996024" lon="11.234844599088497"><ele>557.6666666666666</ele><time>2026-03-29T08:49:24Z</time></trkpt><trkpt lat="46.00784589789903" lon="11.234959927910158"><ele>551.0</ele><time>2026-03-29T08:49:25Z</time></trkpt><trkpt lat="46.00764564976762" lon="11.235071400245188"><ele>552.5</ele><time>2026-03-29T08:49:26Z</time></trkpt><trkpt lat="46.0074375018662" lon="11.235188707717557"><ele>554.0</ele><time>2026-03-29T08:49:27Z</time></trkpt><trkpt lat="46.00722263883362" lon="11.235317170857586"><ele>554.0</ele><time>2026-03-29T08:49:28Z</time></trkpt><trkpt lat="46.00703120405961" lon="11.235426765985048"><ele>554.0</ele><time>2026-03-29T08:49:29Z</time></trkpt><trkpt lat="46.00683292223379" lon="11.235533425762496"><ele>554.0</ele><time>2026-03-29T08:49:30Z</time></trkpt><trkpt lat="46.00664986473062" lon="11.235633781651902"><ele>551.75</ele><time>2026-03-29T08:49:31Z</time></trkpt><trkpt lat="46.00649453319572" lon="11.235727066546055"><ele>549.5</ele><time>2026-03-29T08:49:32Z</time></trkpt><trkpt lat="46.00635699139128" lon="11.235802120356531"><ele>547.25</ele><time>2026-03-29T08:49:33Z</time></trkpt><trkpt lat="46.00624692436092" lon="11.235876671813543"><ele>545.0</ele><time>2026-03-29T08:49:34Z</time></trkpt><trkpt lat="46.00618272250872" lon="11.235990978063883"><ele>545.0</ele><time>2026-03-29T08:49:35Z</time></trkpt><trkpt lat="46.006165059820745" lon="11.236137926124895"><ele>545.0</ele><time>2026-03-29T08:49:36Z</time></trkpt><trkpt lat="46.00619467334672" lon="11.236268886435829"><ele>545.0</ele><time>2026-03-29T08:49:37Z</time></trkpt><trkpt lat="46.00624264377792" lon="11.236400449911557"><ele>545.0</ele><time>2026-03-29T08:49:38Z</time></trkpt><trkpt lat="46.00631541907886" lon="11.23651332136621"><ele>545.0</ele><time>2026-03-29T08:49:39Z</time></trkpt><trkpt lat="46.00642966461792" lon="11.236549229064483"><ele>542.0</ele><time>2026-03-29T08:49:40Z</time></trkpt><trkpt lat="46.00656678415371" lon="11.236526238408388"><ele>539.0</ele><time>2026-03-29T08:49:41Z</time></trkpt><trkpt lat="46.00671902867552" lon="11.23646051501106"><ele>536.0</ele><time>2026-03-29T08:49:42Z</time></trkpt><trkpt lat="46.00688140635724" lon="11.236390921803897"><ele>536.0</ele><time>2026-03-29T08:49:43Z</time></trkpt><trkpt lat="46.007017466700724" lon="11.23634941278574"><ele>536.0</ele><time>2026-03-29T08:49:44Z</time></trkpt><trkpt lat="46.007132468176756" lon="11.236314271265536"><ele>536.0</ele><time>2026-03-29T08:49:45Z</time></trkpt><trkpt lat="46.00722761154191" lon="11.236283728827456"><ele>536.0</ele><time>2026-03-29T08:49:46Z</time></trkpt><trkpt lat="46.00729255066861" lon="11.236322209837162"><ele>536.0</ele><time>2026-03-29T08:49:47Z</time></trkpt><trkpt lat="46.00731891851497" lon="11.236407663719667"><ele>533.0</ele><time>2026-03-29T08:49:48Z</time></trkpt><trkpt lat="46.007299922641145" lon="11.236514755149848"><ele>530.0</ele><time>2026-03-29T08:49:49Z</time></trkpt><trkpt lat="46.007233955003066" lon="11.23660718410288"><ele>527.0</ele><time>2026-03-29T08:49:50Z</time></trkpt><trkpt lat="46.00711739489812" lon="11.236672388764843"><ele>524.0</ele><time>2026-03-29T08:49:51Z</time></trkpt><trkpt lat="46.00698364488412" lon="11.236790990728196"><ele>524.0</ele><time>2026-03-29T08:49:52Z</time></trkpt><trkpt lat="46.0068388576921" lon="11.236905744015447"><ele>524.0</ele><time>2026-03-29T08:49:53Z</time></trkpt><trkpt lat="46.00669570981606" lon="11.237047771422887"><ele>524.0</ele><time>2026-03-29T08:49:54Z</time></trkpt><trkpt lat="46.00655429952989" lon="11.237203715813461"><ele>519.6666666666666</ele><time>2026-03-29T08:49:55Z</time></trkpt><trkpt lat="46.0064198463959" lon="11.237374672279346"><ele>515.3333333333334</ele><time>2026-03-29T08:49:56Z</time></trkpt><trkpt lat="46.006301154946314" lon="11.237541115286284"><ele>511.0</ele><time>2026-03-29T08:49:57Z</time></trkpt><trkpt lat="46.00617185284652" lon="11.23770000376438"><ele>511.0</ele><time>2026-03-29T08:49:58Z</time></trkpt><trkpt lat="46.00603593266962" lon="11.237864651081418"><ele>511.0</ele><time>2026-03-29T08:49:59Z</time></trkpt><trkpt lat="46.0059066450738" lon="11.238024915676524"><ele>511.0</ele><time>2026-03-29T08:50:00Z</time></trkpt><trkpt lat="46.00579059677204" lon="11.238178425306833"><ele>509.25</ele><time>2026-03-29T08:50:01Z</time></trkpt><trkpt lat="46.00568683658233" lon="11.238310691083344"><ele>507.5</ele><time>2026-03-29T08:50:02Z</time></trkpt><trkpt lat="46.00558413815194" lon="11.238442783891118"><ele>505.75</ele><time>2026-03-29T08:50:03Z</time></trkpt><trkpt lat="46.00549997131386" lon="11.23854914682195"><ele>504.0</ele><time>2026-03-29T08:50:04Z</time></trkpt><trkpt lat="46.00541306080091" lon="11.238665052221393"><ele>504.0</ele><time>2026-03-29T08:50:05Z</time></trkpt><trkpt lat="46.00534015586519" lon="11.238768883834599"><ele>504.0</ele><time>2026-03-29T08:50:06Z</time></trkpt><trkpt lat="46.005284386354866" lon="11.238874281366583"><ele>504.0</ele><time>2026-03-29T08:50:07Z</time></trkpt><trkpt lat="46.005268161408864" lon="11.238991844195382"><ele>504.0</ele><time>2026-03-29T08:50:08Z</time></trkpt><trkpt lat="46.00529685104264" lon="11.239112412999301"><ele>504.0</ele><time>2026-03-29T08:50:09Z</time></trkpt><trkpt lat="46.005362526328604" lon="11.239196774716927"><ele>502.4</ele><time>2026-03-29T08:50:10Z</time></trkpt><trkpt lat="46.00545004832546" lon="11.239261268891974"><ele>500.79999999999995</ele><time>2026-03-29T08:50:11Z</time></trkpt><trkpt lat="46.00554887692319" lon="11.239283731632728"><ele>499.20000000000005</ele><time>2026-03-29T08:50:12Z</time></trkpt><trkpt lat="46.005660393899305" lon="11.239238276584786"><ele>497.6</ele><time>2026-03-29T08:50:13Z</time></trkpt><trkpt lat="46.0057635030723" lon="11.239138650538525"><ele>496.0</ele><time>2026-03-29T08:50:14Z</time></trkpt><trkpt lat="46.005874597348004" lon="11.239025156626802"><ele>497.5</ele><time>2026-03-29T08:50:15Z</time></trkpt><trkpt lat="46.005996538722485" lon="11.238905426821187"><ele>499.0</ele><time>2026-03-29T08:50:16Z</time></trkpt><trkpt lat="46.006114960319266" lon="11.238791344775953"><ele>500.5</ele><time>2026-03-29T08:50:17Z</time></trkpt><trkpt lat="46.00620700784277" lon="11.238693437538522"><ele>502.0</ele><time>2026-03-29T08:50:18Z</time></trkpt><trkpt lat="46.006279841270604" lon="11.238578439881621"><ele>502.0</ele><time>2026-03-29T08:50:19Z</time></trkpt><trkpt lat="46.00636810664074" lon="11.238479651094586"><ele>502.00000000000006</ele><time>2026-03-29T08:50:20Z</time></trkpt><trkpt lat="46.00643030162709" lon="11.23842086512291"><ele>502.00000000000006</ele><time>2026-03-29T08:50:21Z</time></trkpt><trkpt lat="46.00654033116841" lon="11.238470740843972"><ele>502.0</ele><time>2026-03-29T08:50:23Z</time></trkpt><trkpt lat="46.00653853865335" lon="11.238653897779106"><ele>502.0</ele><time>2026-03-29T08:50:24.999Z</time></trkpt><trkpt lat="46.006469831904965" lon="11.238747618725506"><ele>502.0</ele><time>2026-03-29T08:50:25.999Z</time></trkpt><trkpt lat="46.00635901400274" lon="11.238813432099166"><ele>502.0</ele><time>2026-03-29T08:50:26.999Z</time></trkpt><trkpt lat="46.00625515708772" lon="11.2389486469455"><ele>502.0</ele><time>2026-03-29T08:50:27.999Z</time></trkpt><trkpt lat="46.00614178255428" lon="11.239095932751301"><ele>502.0</ele><time>2026-03-29T08:50:28.999Z</time></trkpt><trkpt lat="46.00602930363489" lon="11.239276409150794"><ele>500.0</ele><time>2026-03-29T08:50:29.999Z</time></trkpt><trkpt lat="46.00591426140689" lon="11.239460537553326"><ele>498.0</ele><time>2026-03-29T08:50:30.999Z</time></trkpt><trkpt lat="46.00579989101966" lon="11.23964012944775"><ele>496.0</ele><time>2026-03-29T08:50:31.999Z</time></trkpt><trkpt lat="46.00570657402348" lon="11.239822967829793"><ele>492.33333333333337</ele><time>2026-03-29T08:50:32.999Z</time></trkpt><trkpt lat="46.005625562860374" lon="11.240024652573933"><ele>488.66666666666663</ele><time>2026-03-29T08:50:33.999Z</time></trkpt><trkpt lat="46.005552095272044" lon="11.240243260916445"><ele>485.0</ele><time>2026-03-29T08:50:34.999Z</time></trkpt><trkpt lat="46.00550414798567" lon="11.240464099669746"><ele>481.5</ele><time>2026-03-29T08:50:35.999Z</time></trkpt><trkpt lat="46.005481401841394" lon="11.240674792543881"><ele>478.0</ele><time>2026-03-29T08:50:36.999Z</time></trkpt><trkpt lat="46.00546294538676" lon="11.240893588012801"><ele>474.5</ele><time>2026-03-29T08:50:37.999Z</time></trkpt><trkpt lat="46.00542919979644" lon="11.241089810040387"><ele>471.0</ele><time>2026-03-29T08:50:38.999Z</time></trkpt><trkpt lat="46.00536657470827" lon="11.241251092914766"><ele>471.0</ele><time>2026-03-29T08:50:39.999Z</time></trkpt><trkpt lat="46.00526566917005" lon="11.241360112209273"><ele>471.0</ele><time>2026-03-29T08:50:40.999Z</time></trkpt><trkpt lat="46.005192380574066" lon="11.241497346616068"><ele>471.0</ele><time>2026-03-29T08:50:41.999Z</time></trkpt><trkpt lat="46.005111645777575" lon="11.241604057690592"><ele>471.0</ele><time>2026-03-29T08:50:42.999Z</time></trkpt><trkpt lat="46.0050536092722" lon="11.241711263014793"><ele>469.6666666666667</ele><time>2026-03-29T08:50:43.999Z</time></trkpt><trkpt lat="46.005014833347445" lon="11.2418186231633"><ele>468.33333333333337</ele><time>2026-03-29T08:50:44.999Z</time></trkpt><trkpt lat="46.004982866473156" lon="11.24191167116272"><ele>467.0</ele><time>2026-03-29T08:50:45.999Z</time></trkpt><trkpt lat="46.004941641722944" lon="11.241994577693314"><ele>465.6666666666667</ele><time>2026-03-29T08:50:46.999Z</time></trkpt><trkpt lat="46.00489165968364" lon="11.242081307219916"><ele>464.33333333333337</ele><time>2026-03-29T08:50:47.999Z</time></trkpt><trkpt lat="46.00483021383633" lon="11.242185541142328"><ele>463.0</ele><time>2026-03-29T08:50:48.999Z</time></trkpt><trkpt lat="46.00476769468594" lon="11.242297288642307"><ele>462.79999999999995</ele><time>2026-03-29T08:50:49.999Z</time></trkpt><trkpt lat="46.00470715475851" lon="11.242417092637751"><ele>462.59999999999997</ele><time>2026-03-29T08:50:50.999Z</time></trkpt><trkpt lat="46.00462902463099" lon="11.242521595392201"><ele>462.40000000000003</ele><time>2026-03-29T08:50:51.999Z</time></trkpt><trkpt lat="46.004551136736865" lon="11.24263424533363"><ele>462.20000000000005</ele><time>2026-03-29T08:50:52.999Z</time></trkpt><trkpt lat="46.00446862659427" lon="11.242744273970954"><ele>462.0</ele><time>2026-03-29T08:50:53.999Z</time></trkpt><trkpt lat="46.00438603143354" lon="11.242856857386265"><ele>462.0</ele><time>2026-03-29T08:50:54.999Z</time></trkpt><trkpt lat="46.00431685814577" lon="11.242953388220046"><ele>462.00000000000006</ele><time>2026-03-29T08:50:55.999Z</time></trkpt><trkpt lat="46.00424634918657" lon="11.243046846579125"><ele>462.00000000000006</ele><time>2026-03-29T08:50:56.999Z</time></trkpt><trkpt lat="46.00417471556729" lon="11.243143869383431"><ele>462.0</ele><time>2026-03-29T08:50:57.999Z</time></trkpt><trkpt lat="46.00410002532083" lon="11.243243048154259"><ele>462.0</ele><time>2026-03-29T08:50:58.999Z</time></trkpt><trkpt lat="46.004016383322806" lon="11.243347295965485"><ele>462.20000000000005</ele><time>2026-03-29T08:50:59.999Z</time></trkpt><trkpt lat="46.00393356750086" lon="11.243454661157456"><ele>462.40000000000003</ele><time>2026-03-29T08:51:00.999Z</time></trkpt><trkpt lat="46.00384975925766" lon="11.24356029933332"><ele>462.59999999999997</ele><time>2026-03-29T08:51:01.999Z</time></trkpt><trkpt lat="46.00377049755098" lon="11.243669242176775"><ele>462.79999999999995</ele><time>2026-03-29T08:51:02.999Z</time></trkpt><trkpt lat="46.003693968157755" lon="11.243773829927706"><ele>463.0</ele><time>2026-03-29T08:51:03.999Z</time></trkpt><trkpt lat="46.00361808649519" lon="11.243882712131425"><ele>462.4</ele><time>2026-03-29T08:51:04.999Z</time></trkpt><trkpt lat="46.003542445891" lon="11.243989709078358"><ele>461.79999999999995</ele><time>2026-03-29T08:51:05.999Z</time></trkpt><trkpt lat="46.003463412744644" lon="11.244098215090968"><ele>461.2</ele><time>2026-03-29T08:51:06.999Z</time></trkpt><trkpt lat="46.00338667876341" lon="11.244206319141536"><ele>460.6</ele><time>2026-03-29T08:51:07.999Z</time></trkpt><trkpt lat="46.00330592736443" lon="11.24431210875127"><ele>460.0</ele><time>2026-03-29T08:51:08.999Z</time></trkpt><trkpt lat="46.003227531787786" lon="11.244418145493274"><ele>460.0</ele><time>2026-03-29T08:51:09.999Z</time></trkpt><trkpt lat="46.00314970013386" lon="11.244523717650148"><ele>460.0</ele><time>2026-03-29T08:51:10.999Z</time></trkpt><trkpt lat="46.00306258085599" lon="11.24461985230485"><ele>460.0</ele><time>2026-03-29T08:51:11.999Z</time></trkpt><trkpt lat="46.00296733731178" lon="11.244709892059317"><ele>460.0</ele><time>2026-03-29T08:51:13Z</time></trkpt><trkpt lat="46.002862620282606" lon="11.24479611625176"><ele>458.75</ele><time>2026-03-29T08:51:14Z</time></trkpt><trkpt lat="46.0027556213822" lon="11.24487887403273"><ele>457.5</ele><time>2026-03-29T08:51:15Z</time></trkpt><trkpt lat="46.0026399160187" lon="11.244956441929547"><ele>456.25</ele><time>2026-03-29T08:51:16Z</time></trkpt><trkpt lat="46.0025222666704" lon="11.245039238608554"><ele>455.0</ele><time>2026-03-29T08:51:17Z</time></trkpt><trkpt lat="46.00240140264829" lon="11.245117137123607"><ele>455.0</ele><time>2026-03-29T08:51:18Z</time></trkpt><trkpt lat="46.00227782948655" lon="11.245203446126869"><ele>455.0</ele><time>2026-03-29T08:51:19Z</time></trkpt><trkpt lat="46.00215247564134" lon="11.24529666567549"><ele>455.0</ele><time>2026-03-29T08:51:20Z</time></trkpt><trkpt lat="46.00202051922445" lon="11.245385258131849"><ele>455.0</ele><time>2026-03-29T08:51:21Z</time></trkpt><trkpt lat="46.00190276684742" lon="11.245464546372785"><ele>455.0</ele><time>2026-03-29T08:51:22Z</time></trkpt><trkpt lat="46.00179540321071" lon="11.245539292438986"><ele>455.0</ele><time>2026-03-29T08:51:23Z</time></trkpt><trkpt lat="46.00169405395183" lon="11.245607717170412"><ele>455.0</ele><time>2026-03-29T08:51:24Z</time></trkpt><trkpt lat="46.00159829870099" lon="11.245674216078243"><ele>455.0</ele><time>2026-03-29T08:51:25Z</time></trkpt><trkpt lat="46.001502645011655" lon="11.245740200001617"><ele>455.0</ele><time>2026-03-29T08:51:26Z</time></trkpt><trkpt lat="46.001411622034425" lon="11.24580417012723"><ele>454.75</ele><time>2026-03-29T08:51:27Z</time></trkpt><trkpt lat="46.00131486158805" lon="11.245870208190926"><ele>454.5</ele><time>2026-03-29T08:51:28Z</time></trkpt><trkpt lat="46.00121451068031" lon="11.245939603913257"><ele>454.25</ele><time>2026-03-29T08:51:29Z</time></trkpt><trkpt lat="46.001107881386616" lon="11.246013708864172"><ele>454.0</ele><time>2026-03-29T08:51:30Z</time></trkpt><trkpt lat="46.00099266433562" lon="11.246086889632508"><ele>454.0</ele><time>2026-03-29T08:51:31Z</time></trkpt><trkpt lat="46.000896040675364" lon="11.246152228487663"><ele>454.0</ele><time>2026-03-29T08:51:32Z</time></trkpt><trkpt lat="46.00081001661799" lon="11.246212073634837"><ele>454.0</ele><time>2026-03-29T08:51:33Z</time></trkpt><trkpt lat="46.00072470905349" lon="11.246249727238723"><ele>454.0</ele><time>2026-03-29T08:51:34Z</time></trkpt><trkpt lat="46.000632017588686" lon="11.24624430782906"><ele>454.0</ele><time>2026-03-29T08:51:35Z</time></trkpt><trkpt lat="46.00053049676113" lon="11.246238199226159"><ele>453.75</ele><time>2026-03-29T08:51:36Z</time></trkpt><trkpt lat="46.00044521264592" lon="11.246344369631741"><ele>453.5</ele><time>2026-03-29T08:51:37Z</time></trkpt><trkpt lat="46.000353688484964" lon="11.24646401564882"><ele>453.25</ele><time>2026-03-29T08:51:38Z</time></trkpt><trkpt lat="46.0002468600095" lon="11.246581396888923"><ele>453.0</ele><time>2026-03-29T08:51:39Z</time></trkpt><trkpt lat="46.00011097004406" lon="11.246697236906458"><ele>453.0</ele><time>2026-03-29T08:51:40Z</time></trkpt><trkpt lat="45.999933385763775" lon="11.246833914081147"><ele>453.0</ele><time>2026-03-29T08:51:41Z</time></trkpt><trkpt lat="45.99975472481835" lon="11.246954435517477"><ele>453.0</ele><time>2026-03-29T08:51:42Z</time></trkpt><trkpt lat="45.9996110121627" lon="11.247060264766926"><ele>453.0</ele><time>2026-03-29T08:51:43Z</time></trkpt><trkpt lat="45.999482755384776" lon="11.24718062080465"><ele>453.0</ele><time>2026-03-29T08:51:44Z</time></trkpt><trkpt lat="45.99936159159161" lon="11.247304357477258"><ele>453.0</ele><time>2026-03-29T08:51:45Z</time></trkpt><trkpt lat="45.999256158786125" lon="11.247418763759695"><ele>453.0</ele><time>2026-03-29T08:51:46Z</time></trkpt><trkpt lat="45.99915869964188" lon="11.247537292881553"><ele>452.75</ele><time>2026-03-29T08:51:47Z</time></trkpt><trkpt lat="45.99906684102563" lon="11.24766665892845"><ele>452.5</ele><time>2026-03-29T08:51:48Z</time></trkpt><trkpt lat="45.99897824665942" lon="11.24781097714003"><ele>452.25</ele><time>2026-03-29T08:51:49Z</time></trkpt><trkpt lat="45.998879359505715" lon="11.248007735407155"><ele>452.0</ele><time>2026-03-29T08:51:50Z</time></trkpt><trkpt lat="45.99876294194998" lon="11.248243687938475"><ele>452.0</ele><time>2026-03-29T08:51:51Z</time></trkpt><trkpt lat="45.99863552899735" lon="11.248520333479012"><ele>452.0</ele><time>2026-03-29T08:51:52Z</time></trkpt><trkpt lat="45.99850860365396" lon="11.248822855940762"><ele>451.5</ele><time>2026-03-29T08:51:53Z</time></trkpt><trkpt lat="45.998392856947426" lon="11.249127872421527"><ele>451.0</ele><time>2026-03-29T08:51:54Z</time></trkpt><trkpt lat="45.99829261183165" lon="11.249391568287146"><ele>451.6666666666667</ele><time>2026-03-29T08:51:55Z</time></trkpt><trkpt lat="45.99820277627154" lon="11.249630781843338"><ele>452.33333333333337</ele><time>2026-03-29T08:51:56Z</time></trkpt><trkpt lat="45.998123311347" lon="11.249847479041781"><ele>453.0</ele><time>2026-03-29T08:51:57Z</time></trkpt><trkpt lat="45.99803896957437" lon="11.250073230015019"><ele>453.0</ele><time>2026-03-29T08:51:58Z</time></trkpt><trkpt lat="45.9979502927948" lon="11.250310121972637"><ele>453.0</ele><time>2026-03-29T08:51:59Z</time></trkpt><trkpt lat="45.997852215607416" lon="11.25055198149342"><ele>453.0</ele><time>2026-03-29T08:52:00Z</time></trkpt><trkpt lat="45.99775928004658" lon="11.250798453288105"><ele>453.0</ele><time>2026-03-29T08:52:01Z</time></trkpt><trkpt lat="45.99766669321446" lon="11.251054431215794"><ele>453.0</ele><time>2026-03-29T08:52:02Z</time></trkpt><trkpt lat="45.99756925767559" lon="11.251324162847004"><ele>453.0</ele><time>2026-03-29T08:52:03Z</time></trkpt><trkpt lat="45.99748027630065" lon="11.25156446386521"><ele>454.0</ele><time>2026-03-29T08:52:04Z</time></trkpt><trkpt lat="45.997395355582356" lon="11.251789519404676"><ele>455.0</ele><time>2026-03-29T08:52:05Z</time></trkpt><trkpt lat="45.997309888469395" lon="11.251999812742836"><ele>456.0</ele><time>2026-03-29T08:52:06Z</time></trkpt><trkpt lat="45.99722945351298" lon="11.252202977394663"><ele>456.0</ele><time>2026-03-29T08:52:07Z</time></trkpt><trkpt lat="45.99716257128162" lon="11.252382411487991"><ele>456.0</ele><time>2026-03-29T08:52:08Z</time></trkpt><trkpt lat="45.99709303119968" lon="11.25254746741071"><ele>456.0</ele><time>2026-03-29T08:52:09Z</time></trkpt><trkpt lat="45.997031053030554" lon="11.252700247866388"><ele>456.0</ele><time>2026-03-29T08:52:10Z</time></trkpt><trkpt lat="45.99697244808229" lon="11.252840665289574"><ele>456.0</ele><time>2026-03-29T08:52:11Z</time></trkpt><trkpt lat="45.99691911887822" lon="11.252970861664473"><ele>456.0</ele><time>2026-03-29T08:52:12Z</time></trkpt><trkpt lat="45.99686998242162" lon="11.25311159294407"><ele>456.0</ele><time>2026-03-29T08:52:13Z</time></trkpt><trkpt lat="45.99680894142411" lon="11.253265500353352"><ele>456.0</ele><time>2026-03-29T08:52:14Z</time></trkpt><trkpt lat="45.99675179280536" lon="11.253413327717528"><ele>455.6</ele><time>2026-03-29T08:52:15Z</time></trkpt><trkpt lat="45.99670357091491" lon="11.253544411022661"><ele>455.20000000000005</ele><time>2026-03-29T08:52:16Z</time></trkpt><trkpt lat="45.99665550525752" lon="11.253660263425303"><ele>454.79999999999995</ele><time>2026-03-29T08:52:17Z</time></trkpt><trkpt lat="45.996608722715436" lon="11.253748186015313"><ele>454.4</ele><time>2026-03-29T08:52:18Z</time></trkpt><trkpt lat="45.99654778297477" lon="11.253806535530677"><ele>454.0</ele><time>2026-03-29T08:52:19Z</time></trkpt><trkpt lat="45.99649298546416" lon="11.253955980303566"><ele>455.2</ele><time>2026-03-29T08:52:21Z</time></trkpt><trkpt lat="45.99643928896221" lon="11.254094692505062"><ele>456.4</ele><time>2026-03-29T08:52:23Z</time></trkpt><trkpt lat="45.99638517909707" lon="11.254234470701359"><ele>457.6</ele><time>2026-03-29T08:52:25Z</time></trkpt><trkpt lat="45.99634131580203" lon="11.254349318857688"><ele>458.8</ele><time>2026-03-29T08:52:27Z</time></trkpt><trkpt lat="45.99632894031169" lon="11.254505310624566"><ele>460.0</ele><time>2026-03-29T09:02:53Z</time></trkpt><trkpt lat="45.99630873014921" lon="11.254613107315155"><ele>460.0</ele><time>2026-03-29T09:02:54Z</time></trkpt><trkpt lat="45.99626452943615" lon="11.254740395975022"><ele>460.0</ele><time>2026-03-29T09:02:55Z</time></trkpt><trkpt lat="45.99621241950148" lon="11.254863778805612"><ele>460.0</ele><time>2026-03-29T09:02:56Z</time></trkpt><trkpt lat="45.9961575865287" lon="11.254995470011885"><ele>460.0</ele><time>2026-03-29T09:02:57Z</time></trkpt><trkpt lat="45.99610062109846" lon="11.255134609451517"><ele>460.0</ele><time>2026-03-29T09:02:58Z</time></trkpt><trkpt lat="45.99605636576371" lon="11.255249111225007"><ele>459.8</ele><time>2026-03-29T09:02:59Z</time></trkpt><trkpt lat="45.996021120435444" lon="11.255354810847901"><ele>459.6</ele><time>2026-03-29T09:03:00Z</time></trkpt><trkpt lat="45.995996616538974" lon="11.255453028952827"><ele>459.4</ele><time>2026-03-29T09:03:01Z</time></trkpt><trkpt lat="45.99596189085316" lon="11.25560827200728"><ele>459.2</ele><time>2026-03-29T09:03:03Z</time></trkpt><trkpt lat="45.99594045902699" lon="11.255740510522374"><ele>459.0</ele><time>2026-03-29T09:03:05Z</time></trkpt><trkpt lat="45.99588379695038" lon="11.255864046084794"><ele>459.3333333333333</ele><time>2026-03-29T09:03:07Z</time></trkpt><trkpt lat="45.995786238591116" lon="11.255973887524522"><ele>459.66666666666663</ele><time>2026-03-29T09:03:09Z</time></trkpt><trkpt lat="45.995747688528745" lon="11.256051895750119"><ele>460.0</ele><time>2026-03-29T09:03:10Z</time></trkpt><trkpt lat="45.99572935486425" lon="11.256143303533507"><ele>460.3333333333333</ele><time>2026-03-29T09:03:11Z</time></trkpt><trkpt lat="45.99573771603025" lon="11.2562364876919"><ele>460.66666666666663</ele><time>2026-03-29T09:03:12Z</time></trkpt><trkpt lat="45.99577092543995" lon="11.25632983642098"><ele>461.0</ele><time>2026-03-29T09:03:13Z</time></trkpt><trkpt lat="45.995805381201826" lon="11.256440770578795"><ele>461.20000000000005</ele><time>2026-03-29T09:03:14Z</time></trkpt><trkpt lat="45.99582856766217" lon="11.256572710315234"><ele>461.40000000000003</ele><time>2026-03-29T09:03:15Z</time></trkpt><trkpt lat="45.99584297698537" lon="11.256716349299808"><ele>461.6</ele><time>2026-03-29T09:03:15.999Z</time></trkpt><trkpt lat="45.995860766089564" lon="11.256880442688962"><ele>461.8</ele><time>2026-03-29T09:03:16.999Z</time></trkpt><trkpt lat="45.99588668145391" lon="11.257044280973643"><ele>462.0</ele><time>2026-03-29T09:03:17.999Z</time></trkpt><trkpt lat="45.99592529356724" lon="11.257216509836706"><ele>462.25</ele><time>2026-03-29T09:03:18.999Z</time></trkpt><trkpt lat="45.99596347748891" lon="11.257382138827902"><ele>462.5</ele><time>2026-03-29T09:03:19.999Z</time></trkpt><trkpt lat="45.996013440927285" lon="11.257569065108086"><ele>462.75</ele><time>2026-03-29T09:03:20.999Z</time></trkpt><trkpt lat="45.99606878466571" lon="11.257781544451653"><ele>463.0</ele><time>2026-03-29T09:03:21.999Z</time></trkpt><trkpt lat="45.99613737365716" lon="11.25801563209847"><ele>463.33333333333337</ele><time>2026-03-29T09:03:22.999Z</time></trkpt><trkpt lat="45.99621083286273" lon="11.258291658559768"><ele>463.66666666666663</ele><time>2026-03-29T09:03:23.999Z</time></trkpt><trkpt lat="45.99627883565864" lon="11.258598107328668"><ele>464.0</ele><time>2026-03-29T09:03:24.999Z</time></trkpt><trkpt lat="45.99634975155676" lon="11.258882326043745"><ele>464.0</ele><time>2026-03-29T09:03:25.999Z</time></trkpt><trkpt lat="45.9964197651404" lon="11.259127697096424"><ele>464.0</ele><time>2026-03-29T09:03:26.999Z</time></trkpt><trkpt lat="45.99647240286666" lon="11.25935116026679"><ele>464.0</ele><time>2026-03-29T09:03:27.999Z</time></trkpt><trkpt lat="45.99653128847145" lon="11.259574330773946"><ele>464.0</ele><time>2026-03-29T09:03:28.999Z</time></trkpt><trkpt lat="45.996592751907336" lon="11.259800677110654"><ele>464.0</ele><time>2026-03-29T09:03:29.999Z</time></trkpt><trkpt lat="45.99665287644099" lon="11.260026468076157"><ele>464.0</ele><time>2026-03-29T09:03:30.999Z</time></trkpt><trkpt lat="45.996711508559564" lon="11.26025612850845"><ele>464.0</ele><time>2026-03-29T09:03:31.999Z</time></trkpt><trkpt lat="45.99676981185837" lon="11.260488469756686"><ele>464.0</ele><time>2026-03-29T09:03:32.999Z</time></trkpt><trkpt lat="45.99682691467418" lon="11.260715690977399"><ele>464.0</ele><time>2026-03-29T09:03:33.999Z</time></trkpt><trkpt lat="45.99688721413128" lon="11.260940737668246"><ele>464.0</ele><time>2026-03-29T09:03:34.999Z</time></trkpt><trkpt lat="45.99694714510202" lon="11.261165394310195"><ele>464.0</ele><time>2026-03-29T09:03:35.999Z</time></trkpt><trkpt lat="45.99699907086162" lon="11.26138475858969"><ele>464.0</ele><time>2026-03-29T09:03:36.999Z</time></trkpt><trkpt lat="45.99704307581482" lon="11.26158877085583"><ele>464.0</ele><time>2026-03-29T09:03:37.999Z</time></trkpt><trkpt lat="45.99708084695409" lon="11.261804344481309"><ele>464.0</ele><time>2026-03-29T09:03:38.999Z</time></trkpt><trkpt lat="45.99710108581327" lon="11.262032239937135"><ele>464.0</ele><time>2026-03-29T09:03:39.999Z</time></trkpt><trkpt lat="45.997091754503955" lon="11.262266704867846"><ele>463.66666666666663</ele><time>2026-03-29T09:03:40.999Z</time></trkpt><trkpt lat="45.99711010694154" lon="11.262500400496679"><ele>463.33333333333337</ele><time>2026-03-29T09:03:41.999Z</time></trkpt><trkpt lat="45.9971117881106" lon="11.262742610981261"><ele>463.0</ele><time>2026-03-29T09:03:42.999Z</time></trkpt><trkpt lat="45.99711844955901" lon="11.262981304385727"><ele>463.33333333333337</ele><time>2026-03-29T09:03:43.999Z</time></trkpt><trkpt lat="45.997130072856265" lon="11.263221978719358"><ele>463.66666666666663</ele><time>2026-03-29T09:03:44.999Z</time></trkpt><trkpt lat="45.99711976421292" lon="11.263455143457003"><ele>464.0</ele><time>2026-03-29T09:03:45.999Z</time></trkpt><trkpt lat="45.9971247223879" lon="11.263665516775827"><ele>464.0</ele><time>2026-03-29T09:03:46.999Z</time></trkpt><trkpt lat="45.99714456274854" lon="11.263881353774869"><ele>464.0</ele><time>2026-03-29T09:03:47.999Z</time></trkpt><trkpt lat="45.99714811252227" lon="11.264092595338447"><ele>464.0</ele><time>2026-03-29T09:03:49Z</time></trkpt><trkpt lat="45.99715118530248" lon="11.264299485176394"><ele>464.0</ele><time>2026-03-29T09:03:50Z</time></trkpt><trkpt lat="45.997154434421795" lon="11.264492948699596"><ele>464.25</ele><time>2026-03-29T09:03:51Z</time></trkpt><trkpt lat="45.99715263675447" lon="11.264670937561833"><ele>464.5</ele><time>2026-03-29T09:03:52Z</time></trkpt><trkpt lat="45.99714575871122" lon="11.264846235518188"><ele>464.75</ele><time>2026-03-29T09:03:53Z</time></trkpt><trkpt lat="45.997128768079975" lon="11.265020992882732"><ele>465.0</ele><time>2026-03-29T09:03:54Z</time></trkpt><trkpt lat="45.997102886519144" lon="11.26519868871081"><ele>465.25</ele><time>2026-03-29T09:03:55Z</time></trkpt><trkpt lat="45.99707167731333" lon="11.265380341074348"><ele>465.5</ele><time>2026-03-29T09:03:56Z</time></trkpt><trkpt lat="45.99703888584057" lon="11.265563379003673"><ele>465.75</ele><time>2026-03-29T09:03:57Z</time></trkpt><trkpt lat="45.99699835562351" lon="11.265748943378938"><ele>466.0</ele><time>2026-03-29T09:03:58Z</time></trkpt><trkpt lat="45.99695028993286" lon="11.265941037223634"><ele>466.0</ele><time>2026-03-29T09:03:59Z</time></trkpt><trkpt lat="45.99689385101051" lon="11.266127233270668"><ele>466.0</ele><time>2026-03-29T09:04:00Z</time></trkpt><trkpt lat="45.99683810153281" lon="11.266300372856712"><ele>466.0</ele><time>2026-03-29T09:04:01Z</time></trkpt><trkpt lat="45.996782862514486" lon="11.26646336212534"><ele>466.0</ele><time>2026-03-29T09:04:02Z</time></trkpt><trkpt lat="45.99672464412243" lon="11.266628908742334"><ele>467.0</ele><time>2026-03-29T09:04:03Z</time></trkpt><trkpt lat="45.996666715011585" lon="11.266794984346147"><ele>468.0</ele><time>2026-03-29T09:04:04Z</time></trkpt><trkpt lat="45.996596576816735" lon="11.266950539183096"><ele>469.0</ele><time>2026-03-29T09:04:05Z</time></trkpt><trkpt lat="45.99654051881644" lon="11.267114893711312"><ele>470.0</ele><time>2026-03-29T09:04:06Z</time></trkpt><trkpt lat="45.99648507041345" lon="11.267277378553207"><ele>470.0</ele><time>2026-03-29T09:04:07Z</time></trkpt><trkpt lat="45.99642891834292" lon="11.267441925485748"><ele>470.0</ele><time>2026-03-29T09:04:08Z</time></trkpt><trkpt lat="45.99637738786996" lon="11.267592929291329"><ele>470.0</ele><time>2026-03-29T09:04:09Z</time></trkpt><trkpt lat="45.996329089814026" lon="11.267734461023055"><ele>470.0</ele><time>2026-03-29T09:04:10Z</time></trkpt><trkpt lat="45.99627924573094" lon="11.267880523093403"><ele>470.0</ele><time>2026-03-29T09:04:11Z</time></trkpt><trkpt lat="45.9962433176098" lon="11.268039103390636"><ele>470.0</ele><time>2026-03-29T09:04:12Z</time></trkpt><trkpt lat="45.996185000612755" lon="11.268177113764004"><ele>470.0</ele><time>2026-03-29T09:04:13Z</time></trkpt><trkpt lat="45.99613518022021" lon="11.268323161576621"><ele>470.0</ele><time>2026-03-29T09:04:14Z</time></trkpt><trkpt lat="45.996086433154844" lon="11.268469439210396"><ele>470.0</ele><time>2026-03-29T09:04:15Z</time></trkpt><trkpt lat="45.99603457109405" lon="11.268619152365368"><ele>470.0</ele><time>2026-03-29T09:04:16Z</time></trkpt><trkpt lat="45.99598546744379" lon="11.268777436138315"><ele>470.0</ele><time>2026-03-29T09:04:17Z</time></trkpt><trkpt lat="45.995931567120046" lon="11.26893343580275"><ele>470.0</ele><time>2026-03-29T09:04:18Z</time></trkpt><trkpt lat="45.99587972940147" lon="11.269089842314862"><ele>470.2</ele><time>2026-03-29T09:04:19Z</time></trkpt><trkpt lat="45.99581940344325" lon="11.269239106751726"><ele>470.4</ele><time>2026-03-29T09:04:20Z</time></trkpt><trkpt lat="45.99577733077072" lon="11.269374144643978"><ele>470.6</ele><time>2026-03-29T09:04:21Z</time></trkpt><trkpt lat="45.99573209395679" lon="11.26950858444024"><ele>470.8</ele><time>2026-03-29T09:04:22Z</time></trkpt><trkpt lat="45.99568689726149" lon="11.26963888673279"><ele>471.0</ele><time>2026-03-29T09:04:23Z</time></trkpt><trkpt lat="45.995642190388345" lon="11.269771857528008"><ele>471.0</ele><time>2026-03-29T09:04:24Z</time></trkpt><trkpt lat="45.99559699532427" lon="11.269906327901461"><ele>471.0</ele><time>2026-03-29T09:04:25Z</time></trkpt><trkpt lat="45.99555601909149" lon="11.270031652615764"><ele>471.0</ele><time>2026-03-29T09:04:26Z</time></trkpt><trkpt lat="45.99551057187079" lon="11.27015656613835"><ele>471.0</ele><time>2026-03-29T09:04:27Z</time></trkpt><trkpt lat="45.995463212765245" lon="11.270292814123678"><ele>471.0</ele><time>2026-03-29T09:04:28Z</time></trkpt><trkpt lat="45.99541196956036" lon="11.270439386813264"><ele>471.0</ele><time>2026-03-29T09:04:29Z</time></trkpt><trkpt lat="45.9953577058867" lon="11.270600572316255"><ele>471.0</ele><time>2026-03-29T09:04:30Z</time></trkpt><trkpt lat="45.99530402511555" lon="11.270765385365257"><ele>471.0</ele><time>2026-03-29T09:04:31Z</time></trkpt><trkpt lat="45.995251560503256" lon="11.27093255735519"><ele>471.0</ele><time>2026-03-29T09:04:32Z</time></trkpt><trkpt lat="45.99520183509129" lon="11.27110451756134"><ele>470.75</ele><time>2026-03-29T09:04:33Z</time></trkpt><trkpt lat="45.99516382997823" lon="11.271286342011065"><ele>470.5</ele><time>2026-03-29T09:04:34Z</time></trkpt><trkpt lat="45.995135425679756" lon="11.271471096842193"><ele>470.25</ele><time>2026-03-29T09:04:35Z</time></trkpt><trkpt lat="45.99511125638013" lon="11.271669662442422"><ele>470.0</ele><time>2026-03-29T09:04:36Z</time></trkpt><trkpt lat="45.995093628495674" lon="11.271848109806974"><ele>469.25</ele><time>2026-03-29T09:04:37Z</time></trkpt><trkpt lat="45.995083942371934" lon="11.272022024803334"><ele>468.5</ele><time>2026-03-29T09:04:38Z</time></trkpt><trkpt lat="45.99508809255313" lon="11.272202249637354"><ele>467.75</ele><time>2026-03-29T09:04:39Z</time></trkpt><trkpt lat="45.99510245668887" lon="11.272385913754404"><ele>467.0</ele><time>2026-03-29T09:04:40Z</time></trkpt><trkpt lat="45.99513470242217" lon="11.27257698042965"><ele>466.66666666666663</ele><time>2026-03-29T09:04:41Z</time></trkpt><trkpt lat="45.99518104618471" lon="11.272772449210342"><ele>466.33333333333337</ele><time>2026-03-29T09:04:42Z</time></trkpt><trkpt lat="45.99524691091033" lon="11.272983983095427"><ele>466.0</ele><time>2026-03-29T09:04:43Z</time></trkpt><trkpt lat="45.99532653970484" lon="11.273208013635667"><ele>466.0</ele><time>2026-03-29T09:04:44Z</time></trkpt><trkpt lat="45.99541076321787" lon="11.273444909562636"><ele>466.0</ele><time>2026-03-29T09:04:45Z</time></trkpt><trkpt lat="45.995497871693914" lon="11.273693621197296"><ele>466.0</ele><time>2026-03-29T09:04:46Z</time></trkpt><trkpt lat="45.99559174469441" lon="11.27395610798118"><ele>466.5</ele><time>2026-03-29T09:04:47Z</time></trkpt><trkpt lat="45.99567822451743" lon="11.274281604538645"><ele>467.0</ele><time>2026-03-29T09:04:48Z</time></trkpt><trkpt lat="45.995801726538964" lon="11.274612506716064"><ele>466.5</ele><time>2026-03-29T09:04:49Z</time></trkpt><trkpt lat="45.99592245935194" lon="11.274979249411004"><ele>466.0</ele><time>2026-03-29T09:04:50Z</time></trkpt><trkpt lat="45.99604355097135" lon="11.275354402543913"><ele>465.5</ele><time>2026-03-29T09:04:51Z</time></trkpt><trkpt lat="45.996176719719344" lon="11.275737764531492"><ele>465.0</ele><time>2026-03-29T09:04:52Z</time></trkpt><trkpt lat="45.99631090641551" lon="11.276074016884397"><ele>465.0</ele><time>2026-03-29T09:04:53Z</time></trkpt><trkpt lat="45.996430915984426" lon="11.27637555941185"><ele>465.0</ele><time>2026-03-29T09:04:54Z</time></trkpt><trkpt lat="45.99653845992086" lon="11.276657653506803"><ele>464.66666666666663</ele><time>2026-03-29T09:04:55Z</time></trkpt><trkpt lat="45.99664749714434" lon="11.27693058135573"><ele>464.3333333333333</ele><time>2026-03-29T09:04:56Z</time></trkpt><trkpt lat="45.99675551828497" lon="11.277205024448204"><ele>464.0</ele><time>2026-03-29T09:04:57Z</time></trkpt><trkpt lat="45.99686511595243" lon="11.277485739175981"><ele>464.0</ele><time>2026-03-29T09:04:58Z</time></trkpt><trkpt lat="45.996973323237306" lon="11.277757561792557"><ele>464.0</ele><time>2026-03-29T09:04:59Z</time></trkpt><trkpt lat="45.9970893458806" lon="11.278033647607753"><ele>464.0</ele><time>2026-03-29T09:05:00Z</time></trkpt><trkpt lat="45.997221352756014" lon="11.278295060786531"><ele>464.5</ele><time>2026-03-29T09:05:01Z</time></trkpt><trkpt lat="45.997376923250826" lon="11.278537314707663"><ele>465.0</ele><time>2026-03-29T09:05:02Z</time></trkpt><trkpt lat="45.99754275985737" lon="11.27876893703035"><ele>463.0</ele><time>2026-03-29T09:05:03Z</time></trkpt><trkpt lat="45.99769420619794" lon="11.278974996194608"><ele>461.0</ele><time>2026-03-29T09:05:04Z</time></trkpt><trkpt lat="45.997845166141325" lon="11.279179061265161"><ele>459.0</ele><time>2026-03-29T09:05:05Z</time></trkpt><trkpt lat="45.99798981435984" lon="11.279386621207319"><ele>459.0</ele><time>2026-03-29T09:05:06Z</time></trkpt><trkpt lat="45.9981260956968" lon="11.279569462306393"><ele>459.0</ele><time>2026-03-29T09:05:07Z</time></trkpt><trkpt lat="45.99826113371463" lon="11.2797520466874"><ele>459.0</ele><time>2026-03-29T09:05:08Z</time></trkpt><trkpt lat="45.99839547073105" lon="11.279937137722143"><ele>458.0</ele><time>2026-03-29T09:05:09Z</time></trkpt><trkpt lat="45.99852892295284" lon="11.280119010271255"><ele>457.0</ele><time>2026-03-29T09:05:10Z</time></trkpt><trkpt lat="45.99866594551581" lon="11.280310697464252"><ele>456.0</ele><time>2026-03-29T09:05:11Z</time></trkpt><trkpt lat="45.998801932047854" lon="11.28050630737624"><ele>456.0</ele><time>2026-03-29T09:05:12Z</time></trkpt><trkpt lat="45.99893850221303" lon="11.280702600292447"><ele>456.0</ele><time>2026-03-29T09:05:13Z</time></trkpt><trkpt lat="45.99906574932577" lon="11.280904576341456"><ele>456.0</ele><time>2026-03-29T09:05:14Z</time></trkpt><trkpt lat="45.999177606120895" lon="11.281102563241305"><ele>456.0</ele><time>2026-03-29T09:05:15Z</time></trkpt><trkpt lat="45.99928387434871" lon="11.281318879190646"><ele>456.0</ele><time>2026-03-29T09:05:16Z</time></trkpt><trkpt lat="45.99938914418674" lon="11.28154243248001"><ele>456.0</ele><time>2026-03-29T09:05:17Z</time></trkpt><trkpt lat="45.999492945489365" lon="11.281769925751318"><ele>455.33333333333337</ele><time>2026-03-29T09:05:18Z</time></trkpt><trkpt lat="45.99959933987175" lon="11.282005173888832"><ele>454.6666666666667</ele><time>2026-03-29T09:05:19Z</time></trkpt><trkpt lat="45.9997102923959" lon="11.28224295057108"><ele>454.0</ele><time>2026-03-29T09:05:20Z</time></trkpt><trkpt lat="45.99981891108914" lon="11.282476726886067"><ele>453.0</ele><time>2026-03-29T09:05:21Z</time></trkpt><trkpt lat="45.99991843354395" lon="11.28269034363675"><ele>452.0</ele><time>2026-03-29T09:05:22Z</time></trkpt><trkpt lat="46.000012855373086" lon="11.282887821786797"><ele>451.0</ele><time>2026-03-29T09:05:23Z</time></trkpt><trkpt lat="46.000098947810734" lon="11.283077986060796"><ele>451.0</ele><time>2026-03-29T09:05:24Z</time></trkpt><trkpt lat="46.00018157106566" lon="11.283255548682794"><ele>451.0</ele><time>2026-03-29T09:05:25Z</time></trkpt><trkpt lat="46.00026825530003" lon="11.283432024692992"><ele>451.0</ele><time>2026-03-29T09:05:26Z</time></trkpt><trkpt lat="46.00036212764317" lon="11.283603619236615"><ele>451.0</ele><time>2026-03-29T09:05:27Z</time></trkpt><trkpt lat="46.00046406008954" lon="11.283762113281014"><ele>451.0</ele><time>2026-03-29T09:05:28Z</time></trkpt><trkpt lat="46.00057618407108" lon="11.283900112854178"><ele>451.0</ele><time>2026-03-29T09:05:28.999Z</time></trkpt><trkpt lat="46.00069062098607" lon="11.284017430960551"><ele>451.0</ele><time>2026-03-29T09:05:29.999Z</time></trkpt><trkpt lat="46.000809253967624" lon="11.284129111437483"><ele>451.0</ele><time>2026-03-29T09:05:30.999Z</time></trkpt><trkpt lat="46.00091263424008" lon="11.284222268815636"><ele>451.0</ele><time>2026-03-29T09:05:31.999Z</time></trkpt><trkpt lat="46.00100518973936" lon="11.284312606802093"><ele>451.0</ele><time>2026-03-29T09:05:32.999Z</time></trkpt><trkpt lat="46.00109615536758" lon="11.284401630386485"><ele>451.0</ele><time>2026-03-29T09:05:33.999Z</time></trkpt><trkpt lat="46.001194213312935" lon="11.284497318728455"><ele>451.0</ele><time>2026-03-29T09:05:34.999Z</time></trkpt><trkpt lat="46.0012835397102" lon="11.284593037688767"><ele>451.0</ele><time>2026-03-29T09:05:35.999Z</time></trkpt><trkpt lat="46.00138268369067" lon="11.284703390399079"><ele>451.0</ele><time>2026-03-29T09:05:36.999Z</time></trkpt><trkpt lat="46.001476057537886" lon="11.284822362321815"><ele>451.0</ele><time>2026-03-29T09:05:37.999Z</time></trkpt><trkpt lat="46.00155208629519" lon="11.284933763761007"><ele>450.6</ele><time>2026-03-29T09:05:38.999Z</time></trkpt><trkpt lat="46.00161789720666" lon="11.285039771383305"><ele>450.20000000000005</ele><time>2026-03-29T09:05:39.999Z</time></trkpt><trkpt lat="46.00167680957282" lon="11.285151262835079"><ele>449.79999999999995</ele><time>2026-03-29T09:05:40.999Z</time></trkpt><trkpt lat="46.0017292506588" lon="11.285283614787668"><ele>449.4</ele><time>2026-03-29T09:05:41.999Z</time></trkpt><trkpt lat="46.00178262622007" lon="11.285425183347979"><ele>449.0</ele><time>2026-03-29T09:05:42.999Z</time></trkpt><trkpt lat="46.001841738501255" lon="11.285570860864633"><ele>448.75</ele><time>2026-03-29T09:05:43.999Z</time></trkpt><trkpt lat="46.00190985128454" lon="11.285728420090747"><ele>448.5</ele><time>2026-03-29T09:05:44.999Z</time></trkpt><trkpt lat="46.00198669243245" lon="11.285896334906775"><ele>448.25</ele><time>2026-03-29T09:05:45.999Z</time></trkpt><trkpt lat="46.00207571388914" lon="11.286076841591385"><ele>448.0</ele><time>2026-03-29T09:05:46.999Z</time></trkpt><trkpt lat="46.002167763305714" lon="11.28626662763684"><ele>448.0</ele><time>2026-03-29T09:05:47.999Z</time></trkpt><trkpt lat="46.00225634126848" lon="11.28644841779249"><ele>448.0</ele><time>2026-03-29T09:05:48.999Z</time></trkpt><trkpt lat="46.00234227263586" lon="11.286609469489079"><ele>448.0</ele><time>2026-03-29T09:05:49.999Z</time></trkpt><trkpt lat="46.002427444669536" lon="11.286764674718246"><ele>448.0</ele><time>2026-03-29T09:05:50.999Z</time></trkpt><trkpt lat="46.00251506473517" lon="11.286918111339645"><ele>447.75</ele><time>2026-03-29T09:05:51.999Z</time></trkpt><trkpt lat="46.00259198670681" lon="11.287066791398038"><ele>447.5</ele><time>2026-03-29T09:05:52.999Z</time></trkpt><trkpt lat="46.00266921574142" lon="11.287210955449757"><ele>447.25</ele><time>2026-03-29T09:05:53.999Z</time></trkpt><trkpt lat="46.00275118421955" lon="11.28733783269581"><ele>447.0</ele><time>2026-03-29T09:05:55Z</time></trkpt><trkpt lat="46.00282491520607" lon="11.287468173478317"><ele>447.0</ele><time>2026-03-29T09:05:56Z</time></trkpt><trkpt lat="46.00290070689859" lon="11.287599929477883"><ele>447.0</ele><time>2026-03-29T09:05:57Z</time></trkpt><trkpt lat="46.002980297232824" lon="11.287728661663323"><ele>447.0</ele><time>2026-03-29T09:05:58Z</time></trkpt><trkpt lat="46.003065952431406" lon="11.287855893286942"><ele>447.0</ele><time>2026-03-29T09:05:59Z</time></trkpt><trkpt lat="46.00316075814717" lon="11.287990519136526"><ele>446.75</ele><time>2026-03-29T09:06:00Z</time></trkpt><trkpt lat="46.0032650106661" lon="11.288121677682383"><ele>446.5</ele><time>2026-03-29T09:06:01Z</time></trkpt><trkpt lat="46.003378929149825" lon="11.2882521290586"><ele>446.25</ele><time>2026-03-29T09:06:02Z</time></trkpt><trkpt lat="46.003490506465674" lon="11.28838584215576"><ele>446.0</ele><time>2026-03-29T09:06:03Z</time></trkpt><trkpt lat="46.003588001981036" lon="11.288501189962908"><ele>445.6</ele><time>2026-03-29T09:06:04Z</time></trkpt><trkpt lat="46.00367531834759" lon="11.288601941276088"><ele>445.20000000000005</ele><time>2026-03-29T09:06:05Z</time></trkpt><trkpt lat="46.00375545259745" lon="11.288696631764518"><ele>444.79999999999995</ele><time>2026-03-29T09:06:06Z</time></trkpt><trkpt lat="46.00383765843637" lon="11.288790525873086"><ele>444.4</ele><time>2026-03-29T09:06:07Z</time></trkpt><trkpt lat="46.003912056131846" lon="11.288876702039518"><ele>444.0</ele><time>2026-03-29T09:06:08Z</time></trkpt><trkpt lat="46.00397705228397" lon="11.288951830749312"><ele>444.0</ele><time>2026-03-29T09:06:09Z</time></trkpt><trkpt lat="46.00404096560133" lon="11.289023485251272"><ele>444.0</ele><time>2026-03-29T09:06:10Z</time></trkpt><trkpt lat="46.00409398853016" lon="11.289085991823017"><ele>444.0</ele><time>2026-03-29T09:06:11Z</time></trkpt><trkpt lat="46.004144049164296" lon="11.289142618806514"><ele>444.0</ele><time>2026-03-29T09:06:12Z</time></trkpt><trkpt lat="46.004196773398256" lon="11.289209280909654"><ele>444.0</ele><time>2026-03-29T09:06:13Z</time></trkpt><trkpt lat="46.00426117590926" lon="11.289295339259573"><ele>444.0</ele><time>2026-03-29T09:06:14Z</time></trkpt><trkpt lat="46.00434250770022" lon="11.289396235334634"><ele>444.0</ele><time>2026-03-29T09:06:15Z</time></trkpt><trkpt lat="46.004443831055404" lon="11.289515050692595"><ele>444.0</ele><time>2026-03-29T09:06:16Z</time></trkpt><trkpt lat="46.00456398836998" lon="11.289650467392804"><ele>444.0</ele><time>2026-03-29T09:06:17Z</time></trkpt><trkpt lat="46.004695862669024" lon="11.289813614522032"><ele>444.0</ele><time>2026-03-29T09:06:18Z</time></trkpt><trkpt lat="46.004833071728534" lon="11.289989044115584"><ele>444.0</ele><time>2026-03-29T09:06:19Z</time></trkpt><trkpt lat="46.00498863296371" lon="11.290170611762111"><ele>444.0</ele><time>2026-03-29T09:06:20Z</time></trkpt><trkpt lat="46.005120755826844" lon="11.290325370754116"><ele>444.0</ele><time>2026-03-29T09:06:21Z</time></trkpt><trkpt lat="46.0052363173661" lon="11.290461044726168"><ele>444.0</ele><time>2026-03-29T09:06:22Z</time></trkpt><trkpt lat="46.0053471578393" lon="11.290593876688254"><ele>444.0</ele><time>2026-03-29T09:06:23Z</time></trkpt><trkpt lat="46.0054590767447" lon="11.29073074138904"><ele>444.0</ele><time>2026-03-29T09:06:24Z</time></trkpt><trkpt lat="46.005571694838025" lon="11.290871740318208"><ele>444.0</ele><time>2026-03-29T09:06:25Z</time></trkpt><trkpt lat="46.005684067998295" lon="11.291003816458863"><ele>444.0</ele><time>2026-03-29T09:06:26Z</time></trkpt><trkpt lat="46.005793272032676" lon="11.291136648010228"><ele>444.0</ele><time>2026-03-29T09:06:27Z</time></trkpt><trkpt lat="46.00588667632631" lon="11.291253580348457"><ele>444.0</ele><time>2026-03-29T09:06:28Z</time></trkpt><trkpt lat="46.00598424288664" lon="11.29137020578824"><ele>443.25</ele><time>2026-03-29T09:06:29Z</time></trkpt><trkpt lat="46.00608119142539" lon="11.291489059589876"><ele>442.5</ele><time>2026-03-29T09:06:30Z</time></trkpt><trkpt lat="46.00618064320535" lon="11.291609844833761"><ele>441.75</ele><time>2026-03-29T09:06:31Z</time></trkpt><trkpt lat="46.006279912417284" lon="11.291731557490449"><ele>441.0</ele><time>2026-03-29T09:06:32Z</time></trkpt><trkpt lat="46.00638660704674" lon="11.291855459396398"><ele>441.0</ele><time>2026-03-29T09:06:33Z</time></trkpt><trkpt lat="46.006496987648774" lon="11.29198891417721"><ele>441.0</ele><time>2026-03-29T09:06:34Z</time></trkpt><trkpt lat="46.00661437613195" lon="11.292117985354157"><ele>441.0</ele><time>2026-03-29T09:06:35Z</time></trkpt><trkpt lat="46.00673193681083" lon="11.292261595451825"><ele>441.0</ele><time>2026-03-29T09:06:36Z</time></trkpt><trkpt lat="46.006848601560144" lon="11.29240864993075"><ele>441.5</ele><time>2026-03-29T09:06:37Z</time></trkpt><trkpt lat="46.00694651070467" lon="11.292526506355363"><ele>442.0</ele><time>2026-03-29T09:06:38Z</time></trkpt><trkpt lat="46.00704029859413" lon="11.29263656325798"><ele>442.5</ele><time>2026-03-29T09:06:39Z</time></trkpt><trkpt lat="46.00712452957347" lon="11.29273673283413"><ele>443.0</ele><time>2026-03-29T09:06:40Z</time></trkpt><trkpt lat="46.00720040068592" lon="11.292823880070365"><ele>443.0</ele><time>2026-03-29T09:06:41Z</time></trkpt><trkpt lat="46.00727863071081" lon="11.292911906100516"><ele>443.0</ele><time>2026-03-29T09:06:42Z</time></trkpt><trkpt lat="46.00736291028872" lon="11.293011394432101"><ele>443.0</ele><time>2026-03-29T09:06:43Z</time></trkpt><trkpt lat="46.007456412245226" lon="11.293131946920784"><ele>443.0</ele><time>2026-03-29T09:06:44Z</time></trkpt><trkpt lat="46.007559192160095" lon="11.293270153398929"><ele>443.5</ele><time>2026-03-29T09:06:45Z</time></trkpt><trkpt lat="46.00765633752689" lon="11.293413332341302"><ele>444.0</ele><time>2026-03-29T09:06:46Z</time></trkpt><trkpt lat="46.00775350622612" lon="11.29357859320663"><ele>444.5</ele><time>2026-03-29T09:06:47Z</time></trkpt><trkpt lat="46.00784323939735" lon="11.293758254629733"><ele>445.0</ele><time>2026-03-29T09:06:48Z</time></trkpt><trkpt lat="46.00789354615882" lon="11.293952447299038"><ele>445.0</ele><time>2026-03-29T09:06:49Z</time></trkpt><trkpt lat="46.007958687238684" lon="11.294122486869835"><ele>445.0</ele><time>2026-03-29T09:06:50Z</time></trkpt><trkpt lat="46.00802613810991" lon="11.294298555500987"><ele>445.0</ele><time>2026-03-29T09:06:51Z</time></trkpt><trkpt lat="46.00810434213486" lon="11.294465732917"><ele>445.0</ele><time>2026-03-29T09:06:52Z</time></trkpt><trkpt lat="46.00817058698629" lon="11.294643946466564"><ele>445.25</ele><time>2026-03-29T09:06:53Z</time></trkpt><trkpt lat="46.00823657141276" lon="11.294823938107065"><ele>445.5</ele><time>2026-03-29T09:06:54Z</time></trkpt><trkpt lat="46.00830251656588" lon="11.295005053660999"><ele>445.75</ele><time>2026-03-29T09:06:55Z</time></trkpt><trkpt lat="46.00835541622273" lon="11.295167515832574"><ele>446.0</ele><time>2026-03-29T09:06:56Z</time></trkpt><trkpt lat="46.008399177175015" lon="11.29531163043033"><ele>447.25</ele><time>2026-03-29T09:06:57Z</time></trkpt><trkpt lat="46.00844865177275" lon="11.295451536246132"><ele>448.5</ele><time>2026-03-29T09:06:58Z</time></trkpt><trkpt lat="46.00849016655393" lon="11.29559940760726"><ele>449.75</ele><time>2026-03-29T09:06:59Z</time></trkpt><trkpt lat="46.00852846472397" lon="11.295758025659975"><ele>451.0</ele><time>2026-03-29T09:07:00Z</time></trkpt><trkpt lat="46.00857104817415" lon="11.295931122635036"><ele>451.5</ele><time>2026-03-29T09:07:01Z</time></trkpt><trkpt lat="46.008616794758346" lon="11.296110779752938"><ele>452.0</ele><time>2026-03-29T09:07:02Z</time></trkpt><trkpt lat="46.00866321884362" lon="11.2963006811167"><ele>452.5</ele><time>2026-03-29T09:07:03Z</time></trkpt><trkpt lat="46.00871193590358" lon="11.296493261350564"><ele>453.0</ele><time>2026-03-29T09:07:04Z</time></trkpt><trkpt lat="46.00876284455567" lon="11.296688164061646"><ele>453.25</ele><time>2026-03-29T09:07:05Z</time></trkpt><trkpt lat="46.008812814406994" lon="11.296884650712519"><ele>453.5</ele><time>2026-03-29T09:07:06Z</time></trkpt><trkpt lat="46.00886421900542" lon="11.29708119076069"><ele>453.75</ele><time>2026-03-29T09:07:07Z</time></trkpt><trkpt lat="46.00891424599179" lon="11.297274989543855"><ele>454.0</ele><time>2026-03-29T09:07:08Z</time></trkpt><trkpt lat="46.00896369097155" lon="11.297472544702442"><ele>454.75</ele><time>2026-03-29T09:07:09Z</time></trkpt><trkpt lat="46.00901487322606" lon="11.297662688007517"><ele>455.5</ele><time>2026-03-29T09:07:10Z</time></trkpt><trkpt lat="46.00906628894119" lon="11.297836672415956"><ele>456.25</ele><time>2026-03-29T09:07:11Z</time></trkpt><trkpt lat="46.009111970018594" lon="11.29797251654291"><ele>457.0</ele><time>2026-03-29T09:07:12Z</time></trkpt><trkpt lat="46.00916672863328" lon="11.298088628089891"><ele>459.40000000000003</ele><time>2026-03-29T09:07:13Z</time></trkpt><trkpt lat="46.00923491195431" lon="11.298186569885342"><ele>461.80000000000007</ele><time>2026-03-29T09:07:14Z</time></trkpt><trkpt lat="46.00931557704857" lon="11.298268307435247"><ele>464.2</ele><time>2026-03-29T09:07:15Z</time></trkpt><trkpt lat="46.009406112060226" lon="11.298333212763229"><ele>466.6</ele><time>2026-03-29T09:07:16Z</time></trkpt><trkpt lat="46.00950259122719" lon="11.298385531758145"><ele>469.0</ele><time>2026-03-29T09:07:17Z</time></trkpt><trkpt lat="46.009605203604266" lon="11.298421905490256"><ele>469.0</ele><time>2026-03-29T09:07:18Z</time></trkpt><trkpt lat="46.00969010806337" lon="11.298440123815087"><ele>469.0</ele><time>2026-03-29T09:07:19Z</time></trkpt><trkpt lat="46.00975500546134" lon="11.29845084748832"><ele>469.0</ele><time>2026-03-29T09:07:20Z</time></trkpt><trkpt lat="46.00986600173544" lon="11.29847781619586"><ele>469.0</ele><time>2026-03-29T09:07:22Z</time></trkpt><trkpt lat="46.0099647060087" lon="11.298512976854463"><ele>469.0</ele><time>2026-03-29T09:07:24Z</time></trkpt><trkpt lat="46.01005214593146" lon="11.298586054078834"><ele>469.33333333333337</ele><time>2026-03-29T09:07:26Z</time></trkpt><trkpt lat="46.01011227148482" lon="11.298668655144937"><ele>469.6666666666667</ele><time>2026-03-29T09:07:28Z</time></trkpt><trkpt lat="46.010163563152545" lon="11.298818294846086"><ele>470.0</ele><time>2026-03-29T09:07:29.999Z</time></trkpt><trkpt lat="46.01013192027856" lon="11.298918868698616"><ele>470.33333333333337</ele><time>2026-03-29T09:07:30.999Z</time></trkpt><trkpt lat="46.01010197602274" lon="11.299026077014137"><ele>470.6666666666667</ele><time>2026-03-29T09:07:31.999Z</time></trkpt><trkpt lat="46.01006914264082" lon="11.299112155131562"><ele>471.0</ele><time>2026-03-29T09:07:32.999Z</time></trkpt><trkpt lat="46.01002981572942" lon="11.299209220881139"><ele>471.5</ele><time>2026-03-29T09:07:33.999Z</time></trkpt><trkpt lat="46.009965847979984" lon="11.29929644185511"><ele>472.0</ele><time>2026-03-29T09:07:34.999Z</time></trkpt><trkpt lat="46.00991319541279" lon="11.299411697453188"><ele>472.5</ele><time>2026-03-29T09:07:35.999Z</time></trkpt><trkpt lat="46.00986732707252" lon="11.299511501057337"><ele>473.0</ele><time>2026-03-29T09:07:36.999Z</time></trkpt><trkpt lat="46.00983007401307" lon="11.29959183553474"><ele>473.5</ele><time>2026-03-29T09:07:37.999Z</time></trkpt><trkpt lat="46.00976870723057" lon="11.299724170170975"><ele>474.0</ele><time>2026-03-29T09:07:39.999Z</time></trkpt><trkpt lat="46.009725707931416" lon="11.29981689622943"><ele>474.6666666666667</ele><time>2026-03-29T09:07:41.999Z</time></trkpt><trkpt lat="46.00968856689802" lon="11.299896989114146"><ele>475.33333333333337</ele><time>2026-03-29T09:07:45.999Z</time></trkpt><trkpt lat="46.00965278718642" lon="11.299973865553655"><ele>476.0</ele><time>2026-03-29T09:07:54.999Z</time></trkpt><trkpt lat="46.00960580013275" lon="11.300070865665235"><ele>476.6666666666667</ele><time>2026-03-29T09:07:57.999Z</time></trkpt><trkpt lat="46.00958089749142" lon="11.30021153460012"><ele>477.33333333333337</ele><time>2026-03-29T09:07:59.999Z</time></trkpt><trkpt lat="46.00960748344882" lon="11.300344520061607"><ele>478.0</ele><time>2026-03-29T09:08:02Z</time></trkpt><trkpt lat="46.00967927568764" lon="11.300412992299675"><ele>478.0</ele><time>2026-03-29T09:08:04Z</time></trkpt><trkpt lat="46.009757291996024" lon="11.300455845506956"><ele>477.99999999999994</ele><time>2026-03-29T09:08:06Z</time></trkpt><trkpt lat="46.00984344207947" lon="11.300562763366363"><ele>477.99999999999994</ele><time>2026-03-29T09:08:08Z</time></trkpt><trkpt lat="46.00990332557289" lon="11.300702905008318"><ele>478.0</ele><time>2026-03-29T09:08:10Z</time></trkpt><trkpt lat="46.009972455183835" lon="11.30081054491812"><ele>478.0</ele><time>2026-03-29T09:08:12Z</time></trkpt><trkpt lat="46.010060253504825" lon="11.300918462187326"><ele>479.59999999999997</ele><time>2026-03-29T09:08:14Z</time></trkpt><trkpt lat="46.01012778688728" lon="11.30103024443395"><ele>481.19999999999993</ele><time>2026-03-29T09:08:16Z</time></trkpt><trkpt lat="46.01020630141567" lon="11.30114998884602"><ele>482.8</ele><time>2026-03-29T09:08:18Z</time></trkpt><trkpt lat="46.01028161024844" lon="11.301272476206272"><ele>484.4</ele><time>2026-03-29T09:08:20Z</time></trkpt><trkpt lat="46.01034761800311" lon="11.301362554263543"><ele>486.0</ele><time>2026-03-29T09:08:22Z</time></trkpt><trkpt lat="46.01040988346929" lon="11.301441132667478"><ele>486.3333333333333</ele><time>2026-03-29T09:08:24Z</time></trkpt><trkpt lat="46.01047444720757" lon="11.3015110570926"><ele>486.66666666666663</ele><time>2026-03-29T09:08:26Z</time></trkpt><trkpt lat="46.01057301467181" lon="11.301591805555033"><ele>487.0</ele><time>2026-03-29T09:08:28Z</time></trkpt><trkpt lat="46.01064343864348" lon="11.301637778089681"><ele>487.3333333333333</ele><time>2026-03-29T09:08:29Z</time></trkpt><trkpt lat="46.01070973008471" lon="11.30169893039881"><ele>487.66666666666663</ele><time>2026-03-29T09:08:30Z</time></trkpt><trkpt lat="46.01077069473674" lon="11.30179571061965"><ele>488.0</ele><time>2026-03-29T09:08:31Z</time></trkpt><trkpt lat="46.01083412195929" lon="11.301880846077593"><ele>489.66666666666663</ele><time>2026-03-29T09:08:32Z</time></trkpt><trkpt lat="46.01089953176561" lon="11.30196958584118"><ele>491.3333333333333</ele><time>2026-03-29T09:08:33Z</time></trkpt><trkpt lat="46.01095494498055" lon="11.302049317658875"><ele>493.0</ele><time>2026-03-29T09:08:34Z</time></trkpt><trkpt lat="46.01101086475797" lon="11.30213463191355"><ele>494.66666666666663</ele><time>2026-03-29T09:08:35Z</time></trkpt><trkpt lat="46.01106197942797" lon="11.302214376020375"><ele>496.3333333333333</ele><time>2026-03-29T09:08:36Z</time></trkpt><trkpt lat="46.01111468021589" lon="11.302297624208897"><ele>498.0</ele><time>2026-03-29T09:08:37Z</time></trkpt><trkpt lat="46.011180198388175" lon="11.30240193516804"><ele>498.5</ele><time>2026-03-29T09:08:39Z</time></trkpt><trkpt lat="46.01123592651375" lon="11.30249616513543"><ele>499.0</ele><time>2026-03-29T09:08:42Z</time></trkpt><trkpt lat="46.01132196408027" lon="11.302586596385199"><ele>499.5</ele><time>2026-03-29T09:08:44Z</time></trkpt><trkpt lat="46.01138120247021" lon="11.302628279536606"><ele>500.0</ele><time>2026-03-29T09:08:45Z</time></trkpt><trkpt lat="46.01144827545391" lon="11.302660928848017"><ele>500.5</ele><time>2026-03-29T09:08:46Z</time></trkpt><trkpt lat="46.01151746477626" lon="11.302707327790964"><ele>501.0</ele><time>2026-03-29T09:08:47Z</time></trkpt><trkpt lat="46.011609005766495" lon="11.302748965049165"><ele>502.0</ele><time>2026-03-29T09:08:48Z</time></trkpt><trkpt lat="46.01169929486978" lon="11.302817618995007"><ele>503.0</ele><time>2026-03-29T09:08:49Z</time></trkpt><trkpt lat="46.01178704193555" lon="11.302871914041924"><ele>504.0</ele><time>2026-03-29T09:08:50Z</time></trkpt><trkpt lat="46.01186409304445" lon="11.302935116539299"><ele>505.0</ele><time>2026-03-29T09:08:51Z</time></trkpt><trkpt lat="46.01195190358238" lon="11.303002100322516"><ele>506.0</ele><time>2026-03-29T09:08:52Z</time></trkpt><trkpt lat="46.01200726000688" lon="11.303047247387573"><ele>507.0</ele><time>2026-03-29T09:08:53Z</time></trkpt><trkpt lat="46.012078011420975" lon="11.303076054530923"><ele>507.8</ele><time>2026-03-29T09:08:54Z</time></trkpt><trkpt lat="46.01213838740813" lon="11.303117452236899"><ele>508.6</ele><time>2026-03-29T09:08:55Z</time></trkpt><trkpt lat="46.0122067644191" lon="11.303162108977359"><ele>509.40000000000003</ele><time>2026-03-29T09:08:56Z</time></trkpt><trkpt lat="46.01228644298852" lon="11.303182766507451"><ele>510.20000000000005</ele><time>2026-03-29T09:08:58Z</time></trkpt><trkpt lat="46.01240902197725" lon="11.303191262652161"><ele>511.0</ele><time>2026-03-29T09:09:00Z</time></trkpt><trkpt lat="46.01251710445791" lon="11.303246834185142"><ele>512.2857142857143</ele><time>2026-03-29T09:09:02Z</time></trkpt><trkpt lat="46.01258623575838" lon="11.303292148832405"><ele>513.5714285714286</ele><time>2026-03-29T09:09:04Z</time></trkpt><trkpt lat="46.01265073076971" lon="11.303323760902558"><ele>514.8571428571429</ele><time>2026-03-29T09:09:06Z</time></trkpt><trkpt lat="46.01272622391661" lon="11.303379780484603"><ele>516.1428571428571</ele><time>2026-03-29T09:09:08Z</time></trkpt><trkpt lat="46.01279205858577" lon="11.303397982559686"><ele>517.4285714285714</ele><time>2026-03-29T09:09:10Z</time></trkpt><trkpt lat="46.01286285776773" lon="11.303441040957145"><ele>518.7142857142858</ele><time>2026-03-29T09:09:13Z</time></trkpt><trkpt lat="46.012937138691996" lon="11.303433142815521"><ele>520.0</ele><time>2026-03-29T09:09:14Z</time></trkpt><trkpt lat="46.01304482609008" lon="11.303412857032175"><ele>520.0</ele><time>2026-03-29T09:09:15Z</time></trkpt><trkpt lat="46.013146808759316" lon="11.303395694092641"><ele>520.0</ele><time>2026-03-29T09:09:16Z</time></trkpt><trkpt lat="46.01324737124785" lon="11.30339580782251"><ele>520.0</ele><time>2026-03-29T09:09:17Z</time></trkpt><trkpt lat="46.01332051034714" lon="11.303386504963568"><ele>520.0</ele><time>2026-03-29T09:09:18Z</time></trkpt><trkpt lat="46.0133930425255" lon="11.30337251634538"><ele>520.0</ele><time>2026-03-29T09:09:19Z</time></trkpt><trkpt lat="46.01347640168154" lon="11.303370344843547"><ele>520.0</ele><time>2026-03-29T09:09:20Z</time></trkpt><trkpt lat="46.013558169583405" lon="11.303377211049144"><ele>522.0</ele><time>2026-03-29T09:09:21Z</time></trkpt><trkpt lat="46.01364813128332" lon="11.30337589214734"><ele>524.0</ele><time>2026-03-29T09:09:22Z</time></trkpt><trkpt lat="46.01373879067822" lon="11.303419818562064"><ele>526.0</ele><time>2026-03-29T09:09:22.999Z</time></trkpt><trkpt lat="46.013818227561295" lon="11.303467710732974"><ele>528.0</ele><time>2026-03-29T09:09:23.999Z</time></trkpt><trkpt lat="46.01389804793225" lon="11.303524237992566"><ele>530.0</ele><time>2026-03-29T09:09:24.999Z</time></trkpt><trkpt lat="46.013981454395214" lon="11.303584297235583"><ele>530.0</ele><time>2026-03-29T09:09:25.999Z</time></trkpt><trkpt lat="46.01406563106609" lon="11.303652259167826"><ele>530.0</ele><time>2026-03-29T09:09:26.999Z</time></trkpt><trkpt lat="46.014153610766826" lon="11.303725837815735"><ele>530.0</ele><time>2026-03-29T09:09:27.999Z</time></trkpt><trkpt lat="46.01422845386776" lon="11.303780374574684"><ele>530.0</ele><time>2026-03-29T09:09:28.999Z</time></trkpt><trkpt lat="46.014326907525145" lon="11.303846289030034"><ele>530.0</ele><time>2026-03-29T09:09:29.999Z</time></trkpt><trkpt lat="46.01440257827746" lon="11.303907546963403"><ele>532.2</ele><time>2026-03-29T09:09:30.999Z</time></trkpt><trkpt lat="46.01446926713048" lon="11.303970420832568"><ele>534.4</ele><time>2026-03-29T09:09:31.999Z</time></trkpt><trkpt lat="46.0145361712702" lon="11.304046265262215"><ele>536.6</ele><time>2026-03-29T09:09:32.999Z</time></trkpt><trkpt lat="46.014621165719056" lon="11.304118212728195"><ele>538.8</ele><time>2026-03-29T09:09:33.999Z</time></trkpt><trkpt lat="46.014706199304136" lon="11.304190120001756"><ele>541.0</ele><time>2026-03-29T09:09:34.999Z</time></trkpt><trkpt lat="46.014775375960156" lon="11.30426730927968"><ele>541.0</ele><time>2026-03-29T09:09:35.999Z</time></trkpt><trkpt lat="46.01482203387724" lon="11.304362479781863"><ele>541.0</ele><time>2026-03-29T09:09:36.999Z</time></trkpt><trkpt lat="46.01487407613714" lon="11.30446742124783"><ele>541.0</ele><time>2026-03-29T09:09:37.999Z</time></trkpt><trkpt lat="46.01493399420448" lon="11.304592867727584"><ele>541.0</ele><time>2026-03-29T09:09:38.999Z</time></trkpt><trkpt lat="46.01500085623424" lon="11.304726272357785"><ele>541.0</ele><time>2026-03-29T09:09:39.999Z</time></trkpt><trkpt lat="46.01506778644442" lon="11.304859824364849"><ele>543.4</ele><time>2026-03-29T09:09:40.999Z</time></trkpt><trkpt lat="46.01514142959793" lon="11.305005269336833"><ele>545.8</ele><time>2026-03-29T09:09:41.999Z</time></trkpt><trkpt lat="46.015214933086554" lon="11.305149477251048"><ele>548.1999999999999</ele><time>2026-03-29T09:09:42.999Z</time></trkpt><trkpt lat="46.01527435402763" lon="11.305259834126014"><ele>550.6</ele><time>2026-03-29T09:09:43.999Z</time></trkpt><trkpt lat="46.015347123773076" lon="11.305331087567943"><ele>553.0</ele><time>2026-03-29T09:09:44.999Z</time></trkpt><trkpt lat="46.01541829838604" lon="11.305410755365108"><ele>553.0</ele><time>2026-03-29T09:09:45.999Z</time></trkpt><trkpt lat="46.01550975343708" lon="11.30549756122796"><ele>553.0</ele><time>2026-03-29T09:09:46.999Z</time></trkpt><trkpt lat="46.01560708713702" lon="11.305603620379662"><ele>553.0</ele><time>2026-03-29T09:09:47.999Z</time></trkpt><trkpt lat="46.01570186485957" lon="11.305703108061108"><ele>553.0</ele><time>2026-03-29T09:09:48.999Z</time></trkpt><trkpt lat="46.015761020777994" lon="11.305794824583288"><ele>553.0</ele><time>2026-03-29T09:09:49.999Z</time></trkpt><trkpt lat="46.01582881688026" lon="11.305868886340873"><ele>555.8</ele><time>2026-03-29T09:09:50.999Z</time></trkpt><trkpt lat="46.01591044611074" lon="11.305933790961289"><ele>558.5999999999999</ele><time>2026-03-29T09:09:52.999Z</time></trkpt><trkpt lat="46.01595124003718" lon="11.306041161163897"><ele>561.4000000000001</ele><time>2026-03-29T09:09:55.999Z</time></trkpt><trkpt lat="46.0159222926042" lon="11.30615574035511"><ele>564.2</ele><time>2026-03-29T09:09:56.999Z</time></trkpt><trkpt lat="46.01592962633008" lon="11.306314019558396"><ele>567.0</ele><time>2026-03-29T09:09:57.999Z</time></trkpt><trkpt lat="46.0159373333497" lon="11.306480355332301"><ele>567.0</ele><time>2026-03-29T09:09:58.999Z</time></trkpt><trkpt lat="46.01594668527261" lon="11.306658325335682"><ele>567.0</ele><time>2026-03-29T09:09:59.999Z</time></trkpt><trkpt lat="46.0159567667248" lon="11.30684539227211"><ele>567.0</ele><time>2026-03-29T09:10:00.999Z</time></trkpt><trkpt lat="46.01598036913796" lon="11.307051982765783"><ele>567.0</ele><time>2026-03-29T09:10:01.999Z</time></trkpt><trkpt lat="46.01598714556443" lon="11.307265272366553"><ele>567.3333333333334</ele><time>2026-03-29T09:10:02.999Z</time></trkpt><trkpt lat="46.016000328258116" lon="11.307478078132549"><ele>567.6666666666667</ele><time>2026-03-29T09:10:03.999Z</time></trkpt><trkpt lat="46.01599492654788" lon="11.307697277146698"><ele>568.0</ele><time>2026-03-29T09:10:04.999Z</time></trkpt><trkpt lat="46.01600639102377" lon="11.30791471704415"><ele>569.6666666666667</ele><time>2026-03-29T09:10:05.999Z</time></trkpt><trkpt lat="46.016045172156645" lon="11.308126779071527"><ele>571.3333333333334</ele><time>2026-03-29T09:10:07Z</time></trkpt><trkpt lat="46.016083384450226" lon="11.308337740586863"><ele>573.0</ele><time>2026-03-29T09:10:08Z</time></trkpt><trkpt lat="46.01614141692418" lon="11.308543103259638"><ele>573.0</ele><time>2026-03-29T09:10:09Z</time></trkpt><trkpt lat="46.016217330281776" lon="11.308741057946243"><ele>573.0</ele><time>2026-03-29T09:10:10Z</time></trkpt><trkpt lat="46.016302636086465" lon="11.308942223366259"><ele>573.0</ele><time>2026-03-29T09:10:11Z</time></trkpt><trkpt lat="46.01639919230482" lon="11.30914931950413"><ele>573.6666666666666</ele><time>2026-03-29T09:10:12Z</time></trkpt><trkpt lat="46.016496250568224" lon="11.30936090160569"><ele>574.3333333333333</ele><time>2026-03-29T09:10:13Z</time></trkpt><trkpt lat="46.016594355155355" lon="11.30958494474105"><ele>575.0</ele><time>2026-03-29T09:10:14Z</time></trkpt><trkpt lat="46.016699643706595" lon="11.309823311033407"><ele>576.6666666666666</ele><time>2026-03-29T09:10:15Z</time></trkpt><trkpt lat="46.01679431785968" lon="11.310036278354563"><ele>578.3333333333334</ele><time>2026-03-29T09:10:16Z</time></trkpt><trkpt lat="46.016879291217776" lon="11.310221585609465"><ele>580.0</ele><time>2026-03-29T09:10:17Z</time></trkpt><trkpt lat="46.016927318579654" lon="11.31043861182297"><ele>580.0</ele><time>2026-03-29T09:10:18Z</time></trkpt><trkpt lat="46.01696009193654" lon="11.310648698730201"><ele>580.0</ele><time>2026-03-29T09:10:19Z</time></trkpt><trkpt lat="46.01696509559581" lon="11.310861896294048"><ele>580.0</ele><time>2026-03-29T09:10:20Z</time></trkpt><trkpt lat="46.016945506273515" lon="11.311082253953103"><ele>580.0</ele><time>2026-03-29T09:10:21Z</time></trkpt><trkpt lat="46.016895449666684" lon="11.311294078869851"><ele>580.0</ele><time>2026-03-29T09:10:22Z</time></trkpt><trkpt lat="46.016821915115834" lon="11.311532341650388"><ele>580.0</ele><time>2026-03-29T09:10:23Z</time></trkpt><trkpt lat="46.01673336906678" lon="11.311794421790019"><ele>575.6666666666667</ele><time>2026-03-29T09:10:24Z</time></trkpt><trkpt lat="46.01664228756627" lon="11.31207885482176"><ele>571.3333333333334</ele><time>2026-03-29T09:10:25Z</time></trkpt><trkpt lat="46.016543700681595" lon="11.31237330643636"><ele>567.0</ele><time>2026-03-29T09:10:26Z</time></trkpt><trkpt lat="46.01644605038465" lon="11.312673300751777"><ele>567.0</ele><time>2026-03-29T09:10:27Z</time></trkpt><trkpt lat="46.016364086445115" lon="11.312979980144227"><ele>567.0</ele><time>2026-03-29T09:10:28Z</time></trkpt><trkpt lat="46.01631140970012" lon="11.313305094983924"><ele>570.3333333333334</ele><time>2026-03-29T09:10:29Z</time></trkpt><trkpt lat="46.01626425527416" lon="11.313627881153327"><ele>573.6666666666667</ele><time>2026-03-29T09:10:30Z</time></trkpt><trkpt lat="46.01622273106443" lon="11.313917678866497"><ele>577.0</ele><time>2026-03-29T09:10:31Z</time></trkpt><trkpt lat="46.016165335749974" lon="11.31417510790706"><ele>578.0</ele><time>2026-03-29T09:10:32Z</time></trkpt><trkpt lat="46.01614640291864" lon="11.314395904203344"><ele>579.0</ele><time>2026-03-29T09:10:33Z</time></trkpt><trkpt lat="46.016119637189604" lon="11.314570289404909"><ele>580.0</ele><time>2026-03-29T09:10:34Z</time></trkpt><trkpt lat="46.01613057927176" lon="11.314728515573599"><ele>581.0</ele><time>2026-03-29T09:10:35Z</time></trkpt><trkpt lat="46.01621185990561" lon="11.314833041461732"><ele>581.0</ele><time>2026-03-29T09:10:36Z</time></trkpt><trkpt lat="46.016309122227185" lon="11.31490327567139"><ele>581.0</ele><time>2026-03-29T09:10:37Z</time></trkpt><trkpt lat="46.01642104218824" lon="11.314905862442913"><ele>581.0</ele><time>2026-03-29T09:10:38Z</time></trkpt><trkpt lat="46.016530939297574" lon="11.314865049746187"><ele>581.0</ele><time>2026-03-29T09:10:39Z</time></trkpt><trkpt lat="46.016618060623905" lon="11.314717503838805"><ele>581.0</ele><time>2026-03-29T09:10:40Z</time></trkpt><trkpt lat="46.01665374740139" lon="11.314522689387918"><ele>581.0</ele><time>2026-03-29T09:10:41Z</time></trkpt><trkpt lat="46.01664282351371" lon="11.31431245533861"><ele>581.0</ele><time>2026-03-29T09:10:42Z</time></trkpt><trkpt lat="46.016618631948184" lon="11.314078065427115"><ele>579.6666666666666</ele><time>2026-03-29T09:10:43Z</time></trkpt><trkpt lat="46.01662134991485" lon="11.313829781527376"><ele>578.3333333333334</ele><time>2026-03-29T09:10:44Z</time></trkpt><trkpt lat="46.01666222677691" lon="11.313577498163703"><ele>577.0</ele><time>2026-03-29T09:10:45Z</time></trkpt><trkpt lat="46.01674514348032" lon="11.313332715337856"><ele>586.6666666666667</ele><time>2026-03-29T09:10:46Z</time></trkpt><trkpt lat="46.0168478394851" lon="11.313088254852673"><ele>596.3333333333334</ele><time>2026-03-29T09:10:47Z</time></trkpt><trkpt lat="46.01694520288767" lon="11.312838284415227"><ele>606.0</ele><time>2026-03-29T09:10:48Z</time></trkpt><trkpt lat="46.01707167396631" lon="11.312589428356802"><ele>606.0</ele><time>2026-03-29T09:10:49Z</time></trkpt><trkpt lat="46.0172039525264" lon="11.312351460654337"><ele>606.0</ele><time>2026-03-29T09:10:50Z</time></trkpt><trkpt lat="46.01732734942041" lon="11.312167143333541"><ele>606.0</ele><time>2026-03-29T09:10:51Z</time></trkpt><trkpt lat="46.01746772843351" lon="11.31198516536193"><ele>613.6666666666666</ele><time>2026-03-29T09:10:52Z</time></trkpt><trkpt lat="46.01761731178588" lon="11.31181102931388"><ele>621.3333333333333</ele><time>2026-03-29T09:10:53Z</time></trkpt><trkpt lat="46.0177802716976" lon="11.311652196328744"><ele>629.0</ele><time>2026-03-29T09:10:54Z</time></trkpt><trkpt lat="46.01795737414998" lon="11.311513386826006"><ele>631.3333333333333</ele><time>2026-03-29T09:10:55Z</time></trkpt><trkpt lat="46.01814575279118" lon="11.311392604015184"><ele>633.6666666666666</ele><time>2026-03-29T09:10:56Z</time></trkpt><trkpt lat="46.018336709280014" lon="11.311289339998085"><ele>636.0</ele><time>2026-03-29T09:10:57Z</time></trkpt><trkpt lat="46.018534633523714" lon="11.31121190081475"><ele>636.0</ele><time>2026-03-29T09:10:58Z</time></trkpt><trkpt lat="46.01873723447005" lon="11.311157162167637"><ele>636.0</ele><time>2026-03-29T09:10:59Z</time></trkpt><trkpt lat="46.01892958431223" lon="11.311125308529371"><ele>636.0</ele><time>2026-03-29T09:11:00Z</time></trkpt><trkpt lat="46.019088411397384" lon="11.311102932871632"><ele>641.25</ele><time>2026-03-29T09:11:01Z</time></trkpt><trkpt lat="46.019226198715224" lon="11.311045872768084"><ele>646.5</ele><time>2026-03-29T09:11:02Z</time></trkpt><trkpt lat="46.01933686933057" lon="11.310948028628443"><ele>651.75</ele><time>2026-03-29T09:11:03Z</time></trkpt><trkpt lat="46.01945611729095" lon="11.310816892959508"><ele>657.0</ele><time>2026-03-29T09:11:04Z</time></trkpt><trkpt lat="46.01957285827908" lon="11.310643711981246"><ele>658.0</ele><time>2026-03-29T09:11:05Z</time></trkpt><trkpt lat="46.01968168312939" lon="11.310456349148327"><ele>659.0</ele><time>2026-03-29T09:11:06Z</time></trkpt><trkpt lat="46.01979772455157" lon="11.310392095066975"><ele>660.0</ele><time>2026-03-29T09:11:07Z</time></trkpt><trkpt lat="46.019926330630014" lon="11.310335937090032"><ele>661.0</ele><time>2026-03-29T09:11:08Z</time></trkpt><trkpt lat="46.02006920574703" lon="11.310362946502899"><ele>661.0</ele><time>2026-03-29T09:11:09Z</time></trkpt><trkpt lat="46.02023897255511" lon="11.31038483626968"><ele>661.0</ele><time>2026-03-29T09:11:10Z</time></trkpt><trkpt lat="46.02042577188694" lon="11.310403574591305"><ele>661.0</ele><time>2026-03-29T09:11:11Z</time></trkpt><trkpt lat="46.02063375069688" lon="11.310427047257118"><ele>665.3333333333334</ele><time>2026-03-29T09:11:12Z</time></trkpt><trkpt lat="46.02084025090939" lon="11.310450052353273"><ele>669.6666666666666</ele><time>2026-03-29T09:11:13Z</time></trkpt><trkpt lat="46.02105696415211" lon="11.310473314073828"><ele>674.0</ele><time>2026-03-29T09:11:14Z</time></trkpt><trkpt lat="46.02129268771671" lon="11.310500210943326"><ele>674.0</ele><time>2026-03-29T09:11:15Z</time></trkpt><trkpt lat="46.02152900454359" lon="11.310520384905425"><ele>674.0</ele><time>2026-03-29T09:11:16Z</time></trkpt><trkpt lat="46.02176097563251" lon="11.31052274936933"><ele>680.0</ele><time>2026-03-29T09:11:17Z</time></trkpt><trkpt lat="46.022002358617186" lon="11.310493670062971"><ele>686.0</ele><time>2026-03-29T09:11:18Z</time></trkpt><trkpt lat="46.02225046292176" lon="11.310445722484689"><ele>686.0</ele><time>2026-03-29T09:11:19Z</time></trkpt><trkpt lat="46.02246527400588" lon="11.310364871009948"><ele>686.0</ele><time>2026-03-29T09:11:20Z</time></trkpt><trkpt lat="46.0226503703869" lon="11.310293618526988"><ele>686.0</ele><time>2026-03-29T09:11:20.999Z</time></trkpt><trkpt lat="46.022812662928054" lon="11.310199975472043"><ele>686.5</ele><time>2026-03-29T09:11:21.999Z</time></trkpt><trkpt lat="46.022924155151856" lon="11.310056358828307"><ele>687.0</ele><time>2026-03-29T09:11:22.999Z</time></trkpt><trkpt lat="46.0230249798145" lon="11.3099221634459"><ele>687.5</ele><time>2026-03-29T09:11:23.999Z</time></trkpt><trkpt lat="46.02307400057027" lon="11.309765130694112"><ele>688.0</ele><time>2026-03-29T09:11:24.999Z</time></trkpt><trkpt lat="46.02305228138242" lon="11.309612898389764"><ele>688.0</ele><time>2026-03-29T09:11:25.999Z</time></trkpt><trkpt lat="46.023009046345855" lon="11.309489212936647"><ele>688.0</ele><time>2026-03-29T09:11:26.999Z</time></trkpt><trkpt lat="46.02293121659285" lon="11.309360778830374"><ele>688.0</ele><time>2026-03-29T09:11:27.999Z</time></trkpt><trkpt lat="46.02284280014903" lon="11.30919366207357"><ele>688.0</ele><time>2026-03-29T09:11:28.999Z</time></trkpt><trkpt lat="46.02275338387215" lon="11.30900638984749"><ele>691.0</ele><time>2026-03-29T09:11:29.999Z</time></trkpt><trkpt lat="46.022681172074684" lon="11.308785675894656"><ele>694.0</ele><time>2026-03-29T09:11:30.999Z</time></trkpt><trkpt lat="46.02262629509235" lon="11.308551703458217"><ele>697.0</ele><time>2026-03-29T09:11:31.999Z</time></trkpt><trkpt lat="46.0226027136855" lon="11.3082979402464"><ele>701.0</ele><time>2026-03-29T09:11:32.999Z</time></trkpt><trkpt lat="46.02260315228245" lon="11.30802589084589"><ele>705.0</ele><time>2026-03-29T09:11:33.999Z</time></trkpt><trkpt lat="46.02259783921642" lon="11.30772269033144"><ele>709.0</ele><time>2026-03-29T09:11:34.999Z</time></trkpt><trkpt lat="46.022539814529395" lon="11.307485403911999"><ele>705.6666666666667</ele><time>2026-03-29T09:11:35.999Z</time></trkpt><trkpt lat="46.022450450727575" lon="11.30724917199686"><ele>702.3333333333334</ele><time>2026-03-29T09:11:36.999Z</time></trkpt><trkpt lat="46.02236761068246" lon="11.306982591184621"><ele>699.0</ele><time>2026-03-29T09:11:37.999Z</time></trkpt><trkpt lat="46.02225348171679" lon="11.306797816687416"><ele>699.0</ele><time>2026-03-29T09:11:38.999Z</time></trkpt><trkpt lat="46.022139633493246" lon="11.30664569263874"><ele>699.0</ele><time>2026-03-29T09:11:39.999Z</time></trkpt><trkpt lat="46.02198557219542" lon="11.306511045604172"><ele>699.0</ele><time>2026-03-29T09:11:40.999Z</time></trkpt><trkpt lat="46.02181813108382" lon="11.306345597538007"><ele>701.3333333333334</ele><time>2026-03-29T09:11:41.999Z</time></trkpt><trkpt lat="46.02162369676181" lon="11.306208202449309"><ele>703.6666666666667</ele><time>2026-03-29T09:11:42.999Z</time></trkpt><trkpt lat="46.021429429882765" lon="11.306048861578027"><ele>706.0</ele><time>2026-03-29T09:11:43.999Z</time></trkpt><trkpt lat="46.021232156918785" lon="11.305892140658575"><ele>706.0</ele><time>2026-03-29T09:11:44.999Z</time></trkpt><trkpt lat="46.0210646592785" lon="11.30578480763935"><ele>706.0</ele><time>2026-03-29T09:11:45.999Z</time></trkpt><trkpt lat="46.02093369231392" lon="11.305709007739866"><ele>706.0</ele><time>2026-03-29T09:11:46.999Z</time></trkpt><trkpt lat="46.02084173352843" lon="11.305653574272817"><ele>706.0</ele><time>2026-03-29T09:11:47.999Z</time></trkpt><trkpt lat="46.020788204488326" lon="11.305587318034402"><ele>705.0</ele><time>2026-03-29T09:11:48.999Z</time></trkpt><trkpt lat="46.020814715831406" lon="11.305468094627225"><ele>704.0</ele><time>2026-03-29T09:11:49.999Z</time></trkpt><trkpt lat="46.02087477781466" lon="11.305400624363013"><ele>703.0</ele><time>2026-03-29T09:11:50.999Z</time></trkpt><trkpt lat="46.02095746550231" lon="11.305399006454483"><ele>702.0</ele><time>2026-03-29T09:11:51.999Z</time></trkpt><trkpt lat="46.02105963276158" lon="11.305403069542782"><ele>701.0</ele><time>2026-03-29T09:11:52.999Z</time></trkpt><trkpt lat="46.02119332460637" lon="11.305366346378587"><ele>701.0</ele><time>2026-03-29T09:11:53.999Z</time></trkpt><trkpt lat="46.021356218899086" lon="11.305326475001475"><ele>701.0</ele><time>2026-03-29T09:11:54.999Z</time></trkpt><trkpt lat="46.021529833949366" lon="11.305284716141458"><ele>701.0</ele><time>2026-03-29T09:11:55.999Z</time></trkpt><trkpt lat="46.021712619231685" lon="11.305229403079265"><ele>707.5</ele><time>2026-03-29T09:11:56.999Z</time></trkpt><trkpt lat="46.021861180831685" lon="11.305132154471222"><ele>714.0</ele><time>2026-03-29T09:11:57.999Z</time></trkpt><trkpt lat="46.02196864989398" lon="11.305022258790896"><ele>720.5</ele><time>2026-03-29T09:11:58.999Z</time></trkpt><trkpt lat="46.02204577932315" lon="11.304872822646404"><ele>727.0</ele><time>2026-03-29T09:11:59.999Z</time></trkpt><trkpt lat="46.02209957684347" lon="11.30467771555633"><ele>727.0</ele><time>2026-03-29T09:12:00.999Z</time></trkpt><trkpt lat="46.02211895595562" lon="11.304458982799675"><ele>727.0</ele><time>2026-03-29T09:12:01.999Z</time></trkpt><trkpt lat="46.02207610970437" lon="11.304214529015788"><ele>727.0</ele><time>2026-03-29T09:12:02.999Z</time></trkpt><trkpt lat="46.022029428598636" lon="11.303942953704047"><ele>732.0</ele><time>2026-03-29T09:12:03.999Z</time></trkpt><trkpt lat="46.02199344236059" lon="11.303645411792557"><ele>737.0</ele><time>2026-03-29T09:12:04.999Z</time></trkpt><trkpt lat="46.02193892632976" lon="11.303332733860701"><ele>742.0</ele><time>2026-03-29T09:12:05.999Z</time></trkpt><trkpt lat="46.0218852920296" lon="11.303011193786363"><ele>751.0</ele><time>2026-03-29T09:12:06.999Z</time></trkpt><trkpt lat="46.021822720685314" lon="11.302673968117766"><ele>760.0</ele><time>2026-03-29T09:12:07.999Z</time></trkpt><trkpt lat="46.02176805699755" lon="11.302359359508031"><ele>754.0</ele><time>2026-03-29T09:12:08.999Z</time></trkpt><trkpt lat="46.021686114490805" lon="11.302097958004884"><ele>748.0</ele><time>2026-03-29T09:12:09.999Z</time></trkpt><trkpt lat="46.021582155052776" lon="11.301852000449117"><ele>742.0</ele><time>2026-03-29T09:12:10.999Z</time></trkpt><trkpt lat="46.021466278961405" lon="11.30162572702746"><ele>742.0</ele><time>2026-03-29T09:12:11.999Z</time></trkpt><trkpt lat="46.02137809055629" lon="11.301431586296008"><ele>742.0</ele><time>2026-03-29T09:12:13Z</time></trkpt><trkpt lat="46.021291428897996" lon="11.301283471727297"><ele>742.0</ele><time>2026-03-29T09:12:14Z</time></trkpt><trkpt lat="46.021240623909044" lon="11.301140817581288"><ele>742.0</ele><time>2026-03-29T09:12:15Z</time></trkpt><trkpt lat="46.02125633291117" lon="11.300983179713688"><ele>741.0</ele><time>2026-03-29T09:12:16Z</time></trkpt><trkpt lat="46.02128776278418" lon="11.30080536862685"><ele>740.0</ele><time>2026-03-29T09:12:17Z</time></trkpt><trkpt lat="46.02134894806649" lon="11.30059931023583"><ele>739.0</ele><time>2026-03-29T09:12:18Z</time></trkpt><trkpt lat="46.02141798454376" lon="11.300350320516676"><ele>739.0</ele><time>2026-03-29T09:12:19Z</time></trkpt><trkpt lat="46.02149835334856" lon="11.300127009549593"><ele>739.0</ele><time>2026-03-29T09:12:20Z</time></trkpt><trkpt lat="46.02158101622029" lon="11.299989616684726"><ele>739.0</ele><time>2026-03-29T09:12:21Z</time></trkpt><trkpt lat="46.02167735885257" lon="11.299892416188156"><ele>739.0</ele><time>2026-03-29T09:12:22Z</time></trkpt><trkpt lat="46.02179837037097" lon="11.29982311860148"><ele>746.75</ele><time>2026-03-29T09:12:23Z</time></trkpt><trkpt lat="46.0219220645055" lon="11.299800793031775"><ele>754.5</ele><time>2026-03-29T09:12:24Z</time></trkpt><trkpt lat="46.02206567318693" lon="11.299843045199962"><ele>762.25</ele><time>2026-03-29T09:12:25Z</time></trkpt><trkpt lat="46.02222182805322" lon="11.29990228758848"><ele>770.0</ele><time>2026-03-29T09:12:26Z</time></trkpt><trkpt lat="46.02241252458023" lon="11.299967052480007"><ele>779.3333333333334</ele><time>2026-03-29T09:12:27Z</time></trkpt><trkpt lat="46.02262296851892" lon="11.299968922228757"><ele>788.6666666666667</ele><time>2026-03-29T09:12:28Z</time></trkpt><trkpt lat="46.0227883082934" lon="11.299885397481052"><ele>798.0</ele><time>2026-03-29T09:12:29Z</time></trkpt><trkpt lat="46.02293289559156" lon="11.299772518150496"><ele>795.3333333333333</ele><time>2026-03-29T09:12:30Z</time></trkpt><trkpt lat="46.023083046909974" lon="11.299595736954139"><ele>792.6666666666666</ele><time>2026-03-29T09:12:31Z</time></trkpt><trkpt lat="46.02323295092537" lon="11.299404078607877"><ele>790.0</ele><time>2026-03-29T09:12:32Z</time></trkpt><trkpt lat="46.02339021464382" lon="11.29934349153757"><ele>790.0</ele><time>2026-03-29T09:12:33Z</time></trkpt><trkpt lat="46.023561714986904" lon="11.299289676247108"><ele>790.0</ele><time>2026-03-29T09:12:34Z</time></trkpt><trkpt lat="46.02375571391689" lon="11.299237767152746"><ele>790.0</ele><time>2026-03-29T09:12:35Z</time></trkpt><trkpt lat="46.023908040277874" lon="11.299167535948841"><ele>790.0</ele><time>2026-03-29T09:12:36Z</time></trkpt><trkpt lat="46.02403963568506" lon="11.299125136701152"><ele>790.0</ele><time>2026-03-29T09:12:37Z</time></trkpt><trkpt lat="46.02412745620378" lon="11.299023556889301"><ele>790.0</ele><time>2026-03-29T09:12:38Z</time></trkpt><trkpt lat="46.02417645212399" lon="11.298849226025057"><ele>790.0</ele><time>2026-03-29T09:12:39Z</time></trkpt><trkpt lat="46.02416610424081" lon="11.298621369258566"><ele>797.3333333333333</ele><time>2026-03-29T09:12:40Z</time></trkpt><trkpt lat="46.02415981083327" lon="11.29838080805084"><ele>804.6666666666667</ele><time>2026-03-29T09:12:41Z</time></trkpt><trkpt lat="46.02419844834965" lon="11.29813450265222"><ele>812.0</ele><time>2026-03-29T09:12:42Z</time></trkpt><trkpt lat="46.02425153959905" lon="11.297882376419206"><ele>812.0</ele><time>2026-03-29T09:12:43Z</time></trkpt><trkpt lat="46.02433377672095" lon="11.297623235244956"><ele>812.0</ele><time>2026-03-29T09:12:44Z</time></trkpt><trkpt lat="46.02438105865293" lon="11.297339044894313"><ele>812.0</ele><time>2026-03-29T09:12:45Z</time></trkpt><trkpt lat="46.024402110728126" lon="11.29708459341775"><ele>813.75</ele><time>2026-03-29T09:12:46Z</time></trkpt><trkpt lat="46.024395293266096" lon="11.296853490582675"><ele>815.5</ele><time>2026-03-29T09:12:47Z</time></trkpt><trkpt lat="46.02434050026555" lon="11.296674101356249"><ele>817.25</ele><time>2026-03-29T09:12:48Z</time></trkpt><trkpt lat="46.024303259634436" lon="11.29651598198807"><ele>819.0</ele><time>2026-03-29T09:12:49Z</time></trkpt><trkpt lat="46.02430640529015" lon="11.296401917621752"><ele>819.0</ele><time>2026-03-29T09:12:50Z</time></trkpt><trkpt lat="46.02432887318222" lon="11.296317152058148"><ele>819.0</ele><time>2026-03-29T09:12:51Z</time></trkpt><trkpt lat="46.02447031157355" lon="11.2963700882334"><ele>819.0</ele><time>2026-03-29T09:12:53Z</time></trkpt><trkpt lat="46.02453385561322" lon="11.296426124664514"><ele>819.0</ele><time>2026-03-29T09:12:54Z</time></trkpt><trkpt lat="46.024551820025" lon="11.296532614638997"><ele>819.0</ele><time>2026-03-29T09:12:55Z</time></trkpt><trkpt lat="46.02452988014349" lon="11.296665112821366"><ele>819.0</ele><time>2026-03-29T09:12:56Z</time></trkpt><trkpt lat="46.024523538428085" lon="11.296864845167743"><ele>819.0</ele><time>2026-03-29T09:12:57Z</time></trkpt><trkpt lat="46.0245131223721" lon="11.297109489789955"><ele>819.0</ele><time>2026-03-29T09:12:58Z</time></trkpt><trkpt lat="46.02449786216428" lon="11.297385710487431"><ele>818.3333333333333</ele><time>2026-03-29T09:12:59Z</time></trkpt><trkpt lat="46.024470227108154" lon="11.297684031639982"><ele>817.6666666666666</ele><time>2026-03-29T09:13:00Z</time></trkpt><trkpt lat="46.02445998954366" lon="11.298021996432025"><ele>817.0</ele><time>2026-03-29T09:13:01Z</time></trkpt><trkpt lat="46.02443690556399" lon="11.2983035273505"><ele>817.0</ele><time>2026-03-29T09:13:02Z</time></trkpt><trkpt lat="46.02444616011767" lon="11.298543395107057"><ele>817.0</ele><time>2026-03-29T09:13:03Z</time></trkpt><trkpt lat="46.02450340386919" lon="11.298793904424949"><ele>817.0</ele><time>2026-03-29T09:13:04Z</time></trkpt><trkpt lat="46.024591667474795" lon="11.299046281913853"><ele>819.5</ele><time>2026-03-29T09:13:05Z</time></trkpt><trkpt lat="46.024644670308774" lon="11.299259954602725"><ele>822.0</ele><time>2026-03-29T09:13:06Z</time></trkpt><trkpt lat="46.024611880252536" lon="11.299440304743086"><ele>824.5</ele><time>2026-03-29T09:13:07Z</time></trkpt><trkpt lat="46.02456637715082" lon="11.29961291457076"><ele>827.0</ele><time>2026-03-29T09:13:08Z</time></trkpt><trkpt lat="46.024560770294556" lon="11.299748039429245"><ele>827.0</ele><time>2026-03-29T09:13:09Z</time></trkpt><trkpt lat="46.02460727705557" lon="11.299872516794274"><ele>827.0</ele><time>2026-03-29T09:13:10Z</time></trkpt><trkpt lat="46.024713231985295" lon="11.299904769216248"><ele>827.0</ele><time>2026-03-29T09:13:11Z</time></trkpt><trkpt lat="46.02480050808436" lon="11.299864933850191"><ele>827.0</ele><time>2026-03-29T09:13:12Z</time></trkpt><trkpt lat="46.024865158926445" lon="11.29975517034249"><ele>827.0</ele><time>2026-03-29T09:13:13Z</time></trkpt><trkpt lat="46.02486742800671" lon="11.299581688966603"><ele>827.0</ele><time>2026-03-29T09:13:14Z</time></trkpt><trkpt lat="46.02483332728901" lon="11.299381340732655"><ele>827.0</ele><time>2026-03-29T09:13:15Z</time></trkpt><trkpt lat="46.0247817014771" lon="11.299145675160375"><ele>827.0</ele><time>2026-03-29T09:13:16Z</time></trkpt><trkpt lat="46.02472648091437" lon="11.298897828175928"><ele>823.6666666666667</ele><time>2026-03-29T09:13:17Z</time></trkpt><trkpt lat="46.024671610432804" lon="11.298625180042444"><ele>820.3333333333333</ele><time>2026-03-29T09:13:18Z</time></trkpt><trkpt lat="46.024638778176595" lon="11.298394599239506"><ele>817.0</ele><time>2026-03-29T09:13:19Z</time></trkpt><trkpt lat="46.02464997230703" lon="11.298205943156622"><ele>815.3333333333333</ele><time>2026-03-29T09:13:20Z</time></trkpt><trkpt lat="46.02471632923938" lon="11.298038816508942"><ele>813.6666666666667</ele><time>2026-03-29T09:13:21Z</time></trkpt><trkpt lat="46.02480131298269" lon="11.297852817884918"><ele>812.0</ele><time>2026-03-29T09:13:22Z</time></trkpt><trkpt lat="46.02489202545474" lon="11.297629967235514"><ele>830.3333333333334</ele><time>2026-03-29T09:13:23Z</time></trkpt><trkpt lat="46.02499695346201" lon="11.29738508421283"><ele>848.6666666666667</ele><time>2026-03-29T09:13:24Z</time></trkpt><trkpt lat="46.025091447106234" lon="11.297095555985166"><ele>867.0</ele><time>2026-03-29T09:13:24.999Z</time></trkpt><trkpt lat="46.02517011018669" lon="11.296851898637412"><ele>867.0</ele><time>2026-03-29T09:13:25.999Z</time></trkpt><trkpt lat="46.02520033407208" lon="11.296612139454052"><ele>867.0</ele><time>2026-03-29T09:13:26.999Z</time></trkpt><trkpt lat="46.02515316762077" lon="11.29635284067101"><ele>867.0</ele><time>2026-03-29T09:13:27.999Z</time></trkpt><trkpt lat="46.0251090765585" lon="11.296071010330643"><ele>869.6666666666667</ele><time>2026-03-29T09:13:28.999Z</time></trkpt><trkpt lat="46.02505167312628" lon="11.295761147229692"><ele>872.3333333333334</ele><time>2026-03-29T09:13:29.999Z</time></trkpt><trkpt lat="46.02501146402241" lon="11.295499185251831"><ele>875.0</ele><time>2026-03-29T09:13:30.999Z</time></trkpt><trkpt lat="46.024991092870565" lon="11.29526848317972"><ele>875.0</ele><time>2026-03-29T09:13:31.999Z</time></trkpt><trkpt lat="46.025023993281735" lon="11.295034340541545"><ele>875.0</ele><time>2026-03-29T09:13:32.999Z</time></trkpt><trkpt lat="46.02507670120905" lon="11.294778699882915"><ele>875.0</ele><time>2026-03-29T09:13:33.999Z</time></trkpt><trkpt lat="46.02512725243672" lon="11.29450587033368"><ele>875.0</ele><time>2026-03-29T09:13:34.999Z</time></trkpt><trkpt lat="46.02520212829764" lon="11.294230082101627"><ele>875.0</ele><time>2026-03-29T09:13:35.999Z</time></trkpt><trkpt lat="46.02527288519283" lon="11.293930592559816"><ele>875.0</ele><time>2026-03-29T09:13:36.999Z</time></trkpt><trkpt lat="46.02531308116752" lon="11.293663912936251"><ele>875.0</ele><time>2026-03-29T09:13:37.999Z</time></trkpt><trkpt lat="46.02529012687312" lon="11.293425360208543"><ele>875.0</ele><time>2026-03-29T09:13:38.999Z</time></trkpt><trkpt lat="46.02523244970585" lon="11.293192659390149"><ele>875.0</ele><time>2026-03-29T09:13:39.999Z</time></trkpt><trkpt lat="46.025183327181466" lon="11.292941195229972"><ele>877.6666666666667</ele><time>2026-03-29T09:13:40.999Z</time></trkpt><trkpt lat="46.02514146725465" lon="11.292727251014087"><ele>880.3333333333333</ele><time>2026-03-29T09:13:41.999Z</time></trkpt><trkpt lat="46.02516955133643" lon="11.292505549297951"><ele>883.0</ele><time>2026-03-29T09:13:42.999Z</time></trkpt><trkpt lat="46.02523007147033" lon="11.292278731072573"><ele>882.6666666666666</ele><time>2026-03-29T09:13:43.999Z</time></trkpt><trkpt lat="46.02529443920877" lon="11.292032381212168"><ele>882.3333333333333</ele><time>2026-03-29T09:13:44.999Z</time></trkpt><trkpt lat="46.02536282344879" lon="11.291762324071904"><ele>882.0</ele><time>2026-03-29T09:13:45.999Z</time></trkpt><trkpt lat="46.02543952931477" lon="11.291473912130416"><ele>880.6666666666667</ele><time>2026-03-29T09:13:46.999Z</time></trkpt><trkpt lat="46.025500705567815" lon="11.291165457563352"><ele>879.3333333333334</ele><time>2026-03-29T09:13:47.999Z</time></trkpt><trkpt lat="46.02557019330041" lon="11.290867958032688"><ele>878.0</ele><time>2026-03-29T09:13:48.999Z</time></trkpt><trkpt lat="46.025613011130595" lon="11.290607147598273"><ele>877.4</ele><time>2026-03-29T09:13:49.999Z</time></trkpt><trkpt lat="46.0256407187253" lon="11.290384471482717"><ele>876.8</ele><time>2026-03-29T09:13:50.999Z</time></trkpt><trkpt lat="46.025652651510015" lon="11.290224759826641"><ele>876.2</ele><time>2026-03-29T09:13:51.999Z</time></trkpt><trkpt lat="46.02566547323871" lon="11.290088421026761"><ele>875.6</ele><time>2026-03-29T09:13:52.999Z</time></trkpt><trkpt lat="46.02570235532119" lon="11.289989009232853"><ele>875.0</ele><time>2026-03-29T09:13:53.999Z</time></trkpt><trkpt lat="46.025787661986044" lon="11.289983723123399"><ele>875.0</ele><time>2026-03-29T09:13:54.999Z</time></trkpt><trkpt lat="46.02583829685487" lon="11.290073807347715"><ele>875.0</ele><time>2026-03-29T09:13:55.999Z</time></trkpt><trkpt lat="46.025865685476084" lon="11.290251195545169"><ele>875.0</ele><time>2026-03-29T09:13:57.999Z</time></trkpt><trkpt lat="46.02581956815654" lon="11.290360065239225"><ele>875.0</ele><time>2026-03-29T09:13:58.999Z</time></trkpt><trkpt lat="46.025763508612144" lon="11.290520679754508"><ele>875.0</ele><time>2026-03-29T09:13:59.999Z</time></trkpt><trkpt lat="46.02570534183942" lon="11.290715825242147"><ele>876.0</ele><time>2026-03-29T09:14:00.999Z</time></trkpt><trkpt lat="46.02565372388302" lon="11.29095591159415"><ele>877.0</ele><time>2026-03-29T09:14:01.999Z</time></trkpt><trkpt lat="46.02563359984286" lon="11.29122076559788"><ele>878.0</ele><time>2026-03-29T09:14:02.999Z</time></trkpt><trkpt lat="46.02561116167354" lon="11.291500696917808"><ele>879.3333333333334</ele><time>2026-03-29T09:14:03.999Z</time></trkpt><trkpt lat="46.02561327469116" lon="11.291806558026776"><ele>880.6666666666667</ele><time>2026-03-29T09:14:04.999Z</time></trkpt><trkpt lat="46.02563496272926" lon="11.292136138185864"><ele>882.0</ele><time>2026-03-29T09:14:05.999Z</time></trkpt><trkpt lat="46.02566211599358" lon="11.292485005423417"><ele>882.3333333333333</ele><time>2026-03-29T09:14:06.999Z</time></trkpt><trkpt lat="46.02567673281816" lon="11.292823205689533"><ele>882.6666666666666</ele><time>2026-03-29T09:14:07.999Z</time></trkpt><trkpt lat="46.025692186990064" lon="11.29310394425358"><ele>883.0</ele><time>2026-03-29T09:14:08.999Z</time></trkpt><trkpt lat="46.02574200851556" lon="11.293356427497772"><ele>894.3333333333333</ele><time>2026-03-29T09:14:09.999Z</time></trkpt><trkpt lat="46.0258573174375" lon="11.293602567771487"><ele>905.6666666666667</ele><time>2026-03-29T09:14:10.999Z</time></trkpt><trkpt lat="46.02597410485242" lon="11.293894216786489"><ele>917.0</ele><time>2026-03-29T09:14:11.999Z</time></trkpt><trkpt lat="46.026036330988056" lon="11.294218149544088"><ele>917.0</ele><time>2026-03-29T09:14:12.999Z</time></trkpt><trkpt lat="46.02608269620165" lon="11.294552535660358"><ele>917.0</ele><time>2026-03-29T09:14:13.999Z</time></trkpt><trkpt lat="46.026124197722325" lon="11.294911851258206"><ele>915.0</ele><time>2026-03-29T09:14:14.999Z</time></trkpt><trkpt lat="46.02617548382761" lon="11.295279885529178"><ele>913.0</ele><time>2026-03-29T09:14:15.999Z</time></trkpt><trkpt lat="46.02621427609656" lon="11.29559856900707"><ele>915.6666666666666</ele><time>2026-03-29T09:14:16.999Z</time></trkpt><trkpt lat="46.026245087396106" lon="11.295873069722777"><ele>918.3333333333333</ele><time>2026-03-29T09:14:17.999Z</time></trkpt><trkpt lat="46.0262895231781" lon="11.29610238843016"><ele>921.0</ele><time>2026-03-29T09:14:19Z</time></trkpt><trkpt lat="46.026327090551916" lon="11.296317616902892"><ele>918.6666666666667</ele><time>2026-03-29T09:14:20Z</time></trkpt><trkpt lat="46.02641222506749" lon="11.296525375500606"><ele>916.3333333333334</ele><time>2026-03-29T09:14:21Z</time></trkpt><trkpt lat="46.026536807268954" lon="11.296725811810926"><ele>914.0</ele><time>2026-03-29T09:14:22Z</time></trkpt><trkpt lat="46.02664505033316" lon="11.296952598934382"><ele>927.3333333333334</ele><time>2026-03-29T09:14:23Z</time></trkpt><trkpt lat="46.026713613039526" lon="11.297216210054327"><ele>940.6666666666667</ele><time>2026-03-29T09:14:24Z</time></trkpt><trkpt lat="46.02677871918147" lon="11.297493230094226"><ele>954.0</ele><time>2026-03-29T09:14:25Z</time></trkpt><trkpt lat="46.026824231055755" lon="11.297794295885877"><ele>957.0</ele><time>2026-03-29T09:14:26Z</time></trkpt><trkpt lat="46.02685724174276" lon="11.298118640444823"><ele>960.0</ele><time>2026-03-29T09:14:27Z</time></trkpt><trkpt lat="46.0268996276947" lon="11.298451590759178"><ele>960.0</ele><time>2026-03-29T09:14:28Z</time></trkpt><trkpt lat="46.026974925357834" lon="11.298772285522972"><ele>960.0</ele><time>2026-03-29T09:14:29Z</time></trkpt><trkpt lat="46.027043081123374" lon="11.299047164913754"><ele>960.0</ele><time>2026-03-29T09:14:30Z</time></trkpt><trkpt lat="46.027068517183146" lon="11.299287096162141"><ele>959.8</ele><time>2026-03-29T09:14:31Z</time></trkpt><trkpt lat="46.027063270592066" lon="11.29948189158824"><ele>959.6</ele><time>2026-03-29T09:14:32Z</time></trkpt><trkpt lat="46.02704341887608" lon="11.299666563089623"><ele>959.4000000000001</ele><time>2026-03-29T09:14:33Z</time></trkpt><trkpt lat="46.02704599343201" lon="11.29981355695218"><ele>959.2</ele><time>2026-03-29T09:14:34Z</time></trkpt><trkpt lat="46.02705803672351" lon="11.299925826493647"><ele>959.0</ele><time>2026-03-29T09:14:35Z</time></trkpt><trkpt lat="46.02715623615425" lon="11.299976152243927"><ele>959.0</ele><time>2026-03-29T09:14:36Z</time></trkpt><trkpt lat="46.027237939353306" lon="11.299958147968288"><ele>959.0000000000001</ele><time>2026-03-29T09:14:37Z</time></trkpt><trkpt lat="46.02730168960973" lon="11.299858029097171"><ele>959.0000000000001</ele><time>2026-03-29T09:14:38Z</time></trkpt><trkpt lat="46.02731837009675" lon="11.299711664138913"><ele>959.0</ele><time>2026-03-29T09:14:39Z</time></trkpt><trkpt lat="46.027302215081136" lon="11.299537721606109"><ele>959.0</ele><time>2026-03-29T09:14:40Z</time></trkpt><trkpt lat="46.027271892338376" lon="11.299326890233097"><ele>959.0</ele><time>2026-03-29T09:14:41Z</time></trkpt><trkpt lat="46.02727901112693" lon="11.29905808216389"><ele>959.0</ele><time>2026-03-29T09:14:42Z</time></trkpt><trkpt lat="46.027295273103086" lon="11.298765115132674"><ele>959.0</ele><time>2026-03-29T09:14:43Z</time></trkpt><trkpt lat="46.02735794147254" lon="11.29846097758834"><ele>959.5</ele><time>2026-03-29T09:14:44Z</time></trkpt><trkpt lat="46.02742766053858" lon="11.298140601450323"><ele>960.0</ele><time>2026-03-29T09:14:45Z</time></trkpt><trkpt lat="46.02747634916903" lon="11.29780386816588"><ele>980.5</ele><time>2026-03-29T09:14:46Z</time></trkpt><trkpt lat="46.027517278569846" lon="11.297460462055632"><ele>1001.0</ele><time>2026-03-29T09:14:47Z</time></trkpt><trkpt lat="46.02754159371349" lon="11.297094327360902"><ele>1002.5</ele><time>2026-03-29T09:14:48Z</time></trkpt><trkpt lat="46.02754407006039" lon="11.2967170711575"><ele>1004.0</ele><time>2026-03-29T09:14:49Z</time></trkpt><trkpt lat="46.02752283803407" lon="11.296329813430543"><ele>1006.5</ele><time>2026-03-29T09:14:50Z</time></trkpt><trkpt lat="46.02750407311338" lon="11.295977386168397"><ele>1009.0</ele><time>2026-03-29T09:14:51Z</time></trkpt><trkpt lat="46.02749922172441" lon="11.295626421735708"><ele>1010.5</ele><time>2026-03-29T09:14:52Z</time></trkpt><trkpt lat="46.027511274153554" lon="11.295261216284764"><ele>1012.0</ele><time>2026-03-29T09:14:53Z</time></trkpt><trkpt lat="46.02753518924325" lon="11.29494030500966"><ele>1015.3333333333333</ele><time>2026-03-29T09:14:54Z</time></trkpt><trkpt lat="46.02755059817258" lon="11.294651056046394"><ele>1018.6666666666667</ele><time>2026-03-29T09:14:55Z</time></trkpt><trkpt lat="46.027545868573405" lon="11.294406719298319"><ele>1022.0</ele><time>2026-03-29T09:14:56Z</time></trkpt><trkpt lat="46.02751426057859" lon="11.294182207430815"><ele>1022.0</ele><time>2026-03-29T09:14:57Z</time></trkpt><trkpt lat="46.02748242602955" lon="11.294004399203324"><ele>1022.0</ele><time>2026-03-29T09:14:58Z</time></trkpt><trkpt lat="46.02745096495819" lon="11.293831381600292"><ele>1022.0</ele><time>2026-03-29T09:14:59Z</time></trkpt><trkpt lat="46.02743171061152" lon="11.2936884699305"><ele>1022.0</ele><time>2026-03-29T09:15:00Z</time></trkpt><trkpt lat="46.02743149851529" lon="11.293579037843605"><ele>1022.0</ele><time>2026-03-29T09:15:01Z</time></trkpt><trkpt lat="46.027496490881134" lon="11.293518379746736"><ele>1022.0000000000001</ele><time>2026-03-29T09:15:02Z</time></trkpt><trkpt lat="46.0275767172668" lon="11.293564175381725"><ele>1022.0</ele><time>2026-03-29T09:15:03Z</time></trkpt><trkpt lat="46.02763376901283" lon="11.29360974228647"><ele>1022.0</ele><time>2026-03-29T09:15:04Z</time></trkpt><trkpt lat="46.02764435475841" lon="11.293715010820872"><ele>1022.0</ele><time>2026-03-29T09:15:05Z</time></trkpt><trkpt lat="46.027627887556065" lon="11.293840811275308"><ele>1022.0000000000001</ele><time>2026-03-29T09:15:06Z</time></trkpt><trkpt lat="46.02761050959686" lon="11.294005307070146"><ele>1022.0</ele><time>2026-03-29T09:15:07Z</time></trkpt><trkpt lat="46.02761276197369" lon="11.294199210206616"><ele>1022.0</ele><time>2026-03-29T09:15:08Z</time></trkpt><trkpt lat="46.02766529403441" lon="11.294423299390203"><ele>1022.0</ele><time>2026-03-29T09:15:09Z</time></trkpt><trkpt lat="46.02772179825587" lon="11.294691013776244"><ele>1022.0</ele><time>2026-03-29T09:15:10Z</time></trkpt><trkpt lat="46.02777289680042" lon="11.294972213623515"><ele>1017.0</ele><time>2026-03-29T09:15:11Z</time></trkpt><trkpt lat="46.02783152124809" lon="11.2952870713221"><ele>1012.0</ele><time>2026-03-29T09:15:12Z</time></trkpt><trkpt lat="46.027884620869884" lon="11.295616688290247"><ele>1010.5</ele><time>2026-03-29T09:15:13Z</time></trkpt><trkpt lat="46.027940383620724" lon="11.295968649929032"><ele>1009.0</ele><time>2026-03-29T09:15:14Z</time></trkpt><trkpt lat="46.02800364454217" lon="11.296321392462902"><ele>1007.3333333333333</ele><time>2026-03-29T09:15:15Z</time></trkpt><trkpt lat="46.02806241096174" lon="11.296644615860295"><ele>1005.6666666666667</ele><time>2026-03-29T09:15:16Z</time></trkpt><trkpt lat="46.02814357916618" lon="11.296924971281577"><ele>1004.0</ele><time>2026-03-29T09:15:17Z</time></trkpt><trkpt lat="46.02825746125808" lon="11.297207890763753"><ele>1027.0</ele><time>2026-03-29T09:15:18Z</time></trkpt><trkpt lat="46.02837877791718" lon="11.297497445077207"><ele>1050.0</ele><time>2026-03-29T09:15:19Z</time></trkpt><trkpt lat="46.028512017907886" lon="11.29778682801452"><ele>1050.0</ele><time>2026-03-29T09:15:20Z</time></trkpt><trkpt lat="46.028619755502824" lon="11.298037200808611"><ele>1050.0</ele><time>2026-03-29T09:15:21Z</time></trkpt><trkpt lat="46.02871119440338" lon="11.298271577331478"><ele>1050.0</ele><time>2026-03-29T09:15:22Z</time></trkpt><trkpt lat="46.02875303636691" lon="11.298473406250707"><ele>1049.3333333333333</ele><time>2026-03-29T09:15:23Z</time></trkpt><trkpt lat="46.0287521588584" lon="11.298665384754237"><ele>1048.6666666666665</ele><time>2026-03-29T09:15:23.999Z</time></trkpt><trkpt lat="46.02873213604401" lon="11.29888356575398"><ele>1048.0</ele><time>2026-03-29T09:15:24.999Z</time></trkpt><trkpt lat="46.02872376338037" lon="11.299148869452114"><ele>1049.3333333333333</ele><time>2026-03-29T09:15:25.999Z</time></trkpt><trkpt lat="46.02872005735569" lon="11.299437501567912"><ele>1050.6666666666667</ele><time>2026-03-29T09:15:26.999Z</time></trkpt><trkpt lat="46.02871599277091" lon="11.299754058819886"><ele>1052.0</ele><time>2026-03-29T09:15:27.999Z</time></trkpt><trkpt lat="46.02871049004304" lon="11.30009110915122"><ele>1054.0</ele><time>2026-03-29T09:15:28.999Z</time></trkpt><trkpt lat="46.02870452621625" lon="11.300433561370788"><ele>1056.0</ele><time>2026-03-29T09:15:29.999Z</time></trkpt><trkpt lat="46.028698481620324" lon="11.30079469721708"><ele>1056.0</ele><time>2026-03-29T09:15:30.999Z</time></trkpt><trkpt lat="46.02869350386189" lon="11.301157397614778"><ele>1056.0</ele><time>2026-03-29T09:15:31.999Z</time></trkpt><trkpt lat="46.028689348820954" lon="11.301526328912985"><ele>1061.0</ele><time>2026-03-29T09:15:32.999Z</time></trkpt><trkpt lat="46.02868145198518" lon="11.301897845029325"><ele>1066.0</ele><time>2026-03-29T09:15:33.999Z</time></trkpt><trkpt lat="46.02867577773467" lon="11.30222199477519"><ele>1067.3333333333333</ele><time>2026-03-29T09:15:34.999Z</time></trkpt><trkpt lat="46.028673090219364" lon="11.302504547647107"><ele>1068.6666666666667</ele><time>2026-03-29T09:15:35.999Z</time></trkpt><trkpt lat="46.02869053179153" lon="11.302750946016952"><ele>1070.0</ele><time>2026-03-29T09:15:36.999Z</time></trkpt><trkpt lat="46.028712587408286" lon="11.302976518015816"><ele>1070.3333333333335</ele><time>2026-03-29T09:15:37.999Z</time></trkpt><trkpt lat="46.028776637114376" lon="11.303210294050157"><ele>1070.6666666666667</ele><time>2026-03-29T09:15:38.999Z</time></trkpt><trkpt lat="46.02886736413363" lon="11.303455325295252"><ele>1071.0</ele><time>2026-03-29T09:15:39.999Z</time></trkpt><trkpt lat="46.02892999546713" lon="11.303647088329196"><ele>1071.0</ele><time>2026-03-29T09:15:40.999Z</time></trkpt><trkpt lat="46.02897778648659" lon="11.303778427496333"><ele>1071.0</ele><time>2026-03-29T09:15:41.999Z</time></trkpt><trkpt lat="46.029035962924965" lon="11.303832141156386"><ele>1071.0</ele><time>2026-03-29T09:15:42.999Z</time></trkpt><trkpt lat="46.02912082818526" lon="11.303806217565949"><ele>1071.0</ele><time>2026-03-29T09:15:43.999Z</time></trkpt><trkpt lat="46.029188853251995" lon="11.303691407877363"><ele>1071.0</ele><time>2026-03-29T09:15:44.999Z</time></trkpt><trkpt lat="46.02918675405511" lon="11.30353012452282"><ele>1071.0</ele><time>2026-03-29T09:15:45.999Z</time></trkpt><trkpt lat="46.02913453700015" lon="11.303383351165545"><ele>1071.0</ele><time>2026-03-29T09:15:46.999Z</time></trkpt><trkpt lat="46.029023459960875" lon="11.303248262791895"><ele>1071.0</ele><time>2026-03-29T09:15:47.999Z</time></trkpt><trkpt lat="46.02893666868961" lon="11.303055197907918"><ele>1071.0</ele><time>2026-03-29T09:15:48.999Z</time></trkpt><trkpt lat="46.02888607725355" lon="11.30283082106512"><ele>1070.6666666666667</ele><time>2026-03-29T09:15:49.999Z</time></trkpt><trkpt lat="46.02890501768145" lon="11.30260248658724"><ele>1070.3333333333335</ele><time>2026-03-29T09:15:50.999Z</time></trkpt><trkpt lat="46.02895557965658" lon="11.302397775859873"><ele>1070.0</ele><time>2026-03-29T09:15:51.999Z</time></trkpt><trkpt lat="46.029041684210306" lon="11.302208826242786"><ele>1068.6666666666667</ele><time>2026-03-29T09:15:52.999Z</time></trkpt><trkpt lat="46.029136516135864" lon="11.301994705514455"><ele>1067.3333333333333</ele><time>2026-03-29T09:15:53.999Z</time></trkpt><trkpt lat="46.029236330445514" lon="11.301759534903708"><ele>1066.0</ele><time>2026-03-29T09:15:54.999Z</time></trkpt><trkpt lat="46.029344856766436" lon="11.301508152452403"><ele>1086.0</ele><time>2026-03-29T09:15:55.999Z</time></trkpt><trkpt lat="46.02944031545801" lon="11.301223676611567"><ele>1106.0</ele><time>2026-03-29T09:15:56.999Z</time></trkpt><trkpt lat="46.02951609786398" lon="11.300906835660733"><ele>1106.0</ele><time>2026-03-29T09:15:57.999Z</time></trkpt><trkpt lat="46.029572608287005" lon="11.300592556895351"><ele>1106.0</ele><time>2026-03-29T09:15:58.999Z</time></trkpt><trkpt lat="46.02966288957312" lon="11.300259499338365"><ele>1104.5</ele><time>2026-03-29T09:15:59.999Z</time></trkpt><trkpt lat="46.02972970931597" lon="11.299906388272316"><ele>1103.0</ele><time>2026-03-29T09:16:00.999Z</time></trkpt><trkpt lat="46.02981004969163" lon="11.299585900138807"><ele>1102.0</ele><time>2026-03-29T09:16:01.999Z</time></trkpt><trkpt lat="46.02986536107186" lon="11.299320349299396"><ele>1101.0</ele><time>2026-03-29T09:16:02.999Z</time></trkpt><trkpt lat="46.02988621194753" lon="11.299077212233836"><ele>1100.0</ele><time>2026-03-29T09:16:03.999Z</time></trkpt><trkpt lat="46.02989036655116" lon="11.298809732159514"><ele>1099.2</ele><time>2026-03-29T09:16:04.999Z</time></trkpt><trkpt lat="46.02987364135068" lon="11.298579413398363"><ele>1098.4</ele><time>2026-03-29T09:16:05.999Z</time></trkpt><trkpt lat="46.02984508394663" lon="11.298401803823252"><ele>1097.6</ele><time>2026-03-29T09:16:06.999Z</time></trkpt><trkpt lat="46.029818144467306" lon="11.298276204936746"><ele>1096.8</ele><time>2026-03-29T09:16:07.999Z</time></trkpt><trkpt lat="46.02981975654903" lon="11.298182882272345"><ele>1096.0</ele><time>2026-03-29T09:16:08.999Z</time></trkpt><trkpt lat="46.02992672500348" lon="11.298149725885137"><ele>1096.0</ele><time>2026-03-29T09:16:10.999Z</time></trkpt><trkpt lat="46.029968397817235" lon="11.298221326273124"><ele>1096.0</ele><time>2026-03-29T09:16:11.999Z</time></trkpt><trkpt lat="46.029985800874506" lon="11.298320103438936"><ele>1096.0</ele><time>2026-03-29T09:16:12.999Z</time></trkpt><trkpt lat="46.029994593900895" lon="11.298467120012022"><ele>1096.0</ele><time>2026-03-29T09:16:13.999Z</time></trkpt><trkpt lat="46.030031448896985" lon="11.298657380393344"><ele>1096.0</ele><time>2026-03-29T09:16:14.999Z</time></trkpt><trkpt lat="46.030075755729825" lon="11.298885350541875"><ele>1110.6666666666665</ele><time>2026-03-29T09:16:15.999Z</time></trkpt><trkpt lat="46.03013936703248" lon="11.299136582098614"><ele>1125.3333333333333</ele><time>2026-03-29T09:16:16.999Z</time></trkpt><trkpt lat="46.03014745959039" lon="11.299412150030879"><ele>1140.0</ele><time>2026-03-29T09:16:17.999Z</time></trkpt><trkpt lat="46.030147042186385" lon="11.299723360889928"><ele>1140.6666666666667</ele><time>2026-03-29T09:16:18.999Z</time></trkpt><trkpt lat="46.03013771345238" lon="11.300031312132655"><ele>1141.3333333333335</ele><time>2026-03-29T09:16:19.999Z</time></trkpt><trkpt lat="46.03014308858014" lon="11.300308875917459"><ele>1142.0</ele><time>2026-03-29T09:16:20.999Z</time></trkpt><trkpt lat="46.03015914958903" lon="11.300528494584327"><ele>1143.6666666666667</ele><time>2026-03-29T09:16:21.999Z</time></trkpt><trkpt lat="46.03022685889842" lon="11.300741853328745"><ele>1145.3333333333333</ele><time>2026-03-29T09:16:22.999Z</time></trkpt><trkpt lat="46.03034691963779" lon="11.300944837444133"><ele>1147.0</ele><time>2026-03-29T09:16:23.999Z</time></trkpt><trkpt lat="46.03042692467101" lon="11.301165849405404"><ele>1147.3333333333333</ele><time>2026-03-29T09:16:25Z</time></trkpt><trkpt lat="46.03046363504908" lon="11.301418787018441"><ele>1147.6666666666667</ele><time>2026-03-29T09:16:26Z</time></trkpt><trkpt lat="46.03046305435527" lon="11.301695003949062"><ele>1148.0</ele><time>2026-03-29T09:16:27Z</time></trkpt><trkpt lat="46.030424691332996" lon="11.30198227041905"><ele>1150.0</ele><time>2026-03-29T09:16:28Z</time></trkpt><trkpt lat="46.03039210113995" lon="11.302251244219118"><ele>1152.0</ele><time>2026-03-29T09:16:29Z</time></trkpt><trkpt lat="46.03036977981817" lon="11.302473046159287"><ele>1154.0</ele><time>2026-03-29T09:16:30Z</time></trkpt><trkpt lat="46.03036260056173" lon="11.302667944311498"><ele>1154.0</ele><time>2026-03-29T09:16:31Z</time></trkpt><trkpt lat="46.03039701013858" lon="11.302842507581225"><ele>1154.0</ele><time>2026-03-29T09:16:32Z</time></trkpt><trkpt lat="46.03046722163614" lon="11.3030056370479"><ele>1154.0</ele><time>2026-03-29T09:16:33Z</time></trkpt><trkpt lat="46.03059376800414" lon="11.303130696863375"><ele>1154.0</ele><time>2026-03-29T09:16:34Z</time></trkpt><trkpt lat="46.03072119311283" lon="11.303301398304134"><ele>1163.0</ele><time>2026-03-29T09:16:35Z</time></trkpt><trkpt lat="46.03087444112737" lon="11.303459003973988"><ele>1172.0</ele><time>2026-03-29T09:16:36Z</time></trkpt><trkpt lat="46.03103060742609" lon="11.303638699882113"><ele>1181.0</ele><time>2026-03-29T09:16:37Z</time></trkpt><trkpt lat="46.0311990008736" lon="11.303818120671881"><ele>1175.6666666666667</ele><time>2026-03-29T09:16:38Z</time></trkpt><trkpt lat="46.031366104856964" lon="11.304020178138186"><ele>1170.3333333333333</ele><time>2026-03-29T09:16:39Z</time></trkpt><trkpt lat="46.031529698685574" lon="11.304255056497349"><ele>1165.0</ele><time>2026-03-29T09:16:40Z</time></trkpt><trkpt lat="46.03170702578474" lon="11.304506504336702"><ele>1172.0</ele><time>2026-03-29T09:16:41Z</time></trkpt><trkpt lat="46.03185705567848" lon="11.304747823260993"><ele>1179.0</ele><time>2026-03-29T09:16:42Z</time></trkpt><trkpt lat="46.03196232439977" lon="11.30497862615639"><ele>1186.0</ele><time>2026-03-29T09:16:43Z</time></trkpt><trkpt lat="46.032049376970996" lon="11.305169539869675"><ele>1186.0</ele><time>2026-03-29T09:16:44Z</time></trkpt><trkpt lat="46.03212793240758" lon="11.305334226675464"><ele>1186.0</ele><time>2026-03-29T09:16:45Z</time></trkpt><trkpt lat="46.03219649185708" lon="11.305409405525522"><ele>1186.0</ele><time>2026-03-29T09:16:46Z</time></trkpt><trkpt lat="46.0323124767913" lon="11.305443231453612"><ele>1186.0</ele><time>2026-03-29T09:16:48Z</time></trkpt><trkpt lat="46.032352817176296" lon="11.305362664017908"><ele>1186.0</ele><time>2026-03-29T09:16:49Z</time></trkpt><trkpt lat="46.032357957753284" lon="11.30525995776114"><ele>1186.0</ele><time>2026-03-29T09:16:50Z</time></trkpt><trkpt lat="46.03227674325524" lon="11.305121992419494"><ele>1186.0</ele><time>2026-03-29T09:16:51Z</time></trkpt><trkpt lat="46.032185518048436" lon="11.304984804455923"><ele>1186.0</ele><time>2026-03-29T09:16:52Z</time></trkpt><trkpt lat="46.032089197220905" lon="11.304804890154411"><ele>1186.0</ele><time>2026-03-29T09:16:53Z</time></trkpt><trkpt lat="46.031994597717656" lon="11.30460008545093"><ele>1190.3333333333333</ele><time>2026-03-29T09:16:54Z</time></trkpt><trkpt lat="46.03189224709603" lon="11.304375575879137"><ele>1194.6666666666667</ele><time>2026-03-29T09:16:55Z</time></trkpt><trkpt lat="46.031807420531436" lon="11.304108500502059"><ele>1199.0</ele><time>2026-03-29T09:16:56Z</time></trkpt><trkpt lat="46.03173946290261" lon="11.303807540252853"><ele>1195.3333333333335</ele><time>2026-03-29T09:16:57Z</time></trkpt><trkpt lat="46.03167948049222" lon="11.303496612647782"><ele>1191.6666666666667</ele><time>2026-03-29T09:16:58Z</time></trkpt><trkpt lat="46.03160990933031" lon="11.303220509352691"><ele>1188.0</ele><time>2026-03-29T09:16:59Z</time></trkpt><trkpt lat="46.03152429855179" lon="11.30300258241031"><ele>1188.0</ele><time>2026-03-29T09:17:00Z</time></trkpt><trkpt lat="46.03143181222914" lon="11.302838236331612"><ele>1188.0</ele><time>2026-03-29T09:17:01Z</time></trkpt><trkpt lat="46.03141524411708" lon="11.30265261853147"><ele>1188.0</ele><time>2026-03-29T09:17:02Z</time></trkpt><trkpt lat="46.031390566038304" lon="11.302418161674414"><ele>1188.0</ele><time>2026-03-29T09:17:03Z</time></trkpt><trkpt lat="46.03137614072031" lon="11.302155336170069"><ele>1187.6666666666667</ele><time>2026-03-29T09:17:04Z</time></trkpt><trkpt lat="46.03140279071649" lon="11.301937781594217"><ele>1187.3333333333335</ele><time>2026-03-29T09:17:05Z</time></trkpt><trkpt lat="46.03144695370767" lon="11.301672029792062"><ele>1187.0</ele><time>2026-03-29T09:17:06Z</time></trkpt><trkpt lat="46.031485885596354" lon="11.301357981670105"><ele>1187.0</ele><time>2026-03-29T09:17:07Z</time></trkpt><trkpt lat="46.03146735231331" lon="11.301023018081933"><ele>1187.0</ele><time>2026-03-29T09:17:08Z</time></trkpt><trkpt lat="46.03146176733338" lon="11.300678323421746"><ele>1187.0</ele><time>2026-03-29T09:17:09Z</time></trkpt><trkpt lat="46.03148669186334" lon="11.30036429846501"><ele>1187.0</ele><time>2026-03-29T09:17:10Z</time></trkpt><trkpt lat="46.03153472121986" lon="11.300121182558179"><ele>1187.0</ele><time>2026-03-29T09:17:11Z</time></trkpt><trkpt lat="46.031605504888475" lon="11.299879303631263"><ele>1204.3333333333335</ele><time>2026-03-29T09:17:12Z</time></trkpt><trkpt lat="46.03169066261846" lon="11.299606732641763"><ele>1221.6666666666667</ele><time>2026-03-29T09:17:13Z</time></trkpt><trkpt lat="46.03177715392903" lon="11.299332888597839"><ele>1239.0</ele><time>2026-03-29T09:17:14Z</time></trkpt><trkpt lat="46.03183932702784" lon="11.299104566541452"><ele>1240.3333333333333</ele><time>2026-03-29T09:17:15Z</time></trkpt><trkpt lat="46.031845920665035" lon="11.298882875662425"><ele>1241.6666666666665</ele><time>2026-03-29T09:17:16Z</time></trkpt><trkpt lat="46.031844202773016" lon="11.298681804691938"><ele>1243.0</ele><time>2026-03-29T09:17:17Z</time></trkpt><trkpt lat="46.03177637523173" lon="11.298467983487791"><ele>1243.0</ele><time>2026-03-29T09:17:18Z</time></trkpt><trkpt lat="46.031712220998855" lon="11.2982104127174"><ele>1243.0</ele><time>2026-03-29T09:17:19Z</time></trkpt><trkpt lat="46.031631555674366" lon="11.297941430547409"><ele>1243.0</ele><time>2026-03-29T09:17:20Z</time></trkpt><trkpt lat="46.03156644532961" lon="11.297724749481471"><ele>1237.25</ele><time>2026-03-29T09:17:21Z</time></trkpt><trkpt lat="46.03151795866917" lon="11.297528180932016"><ele>1231.5</ele><time>2026-03-29T09:17:22Z</time></trkpt><trkpt lat="46.031533391511495" lon="11.297332789774865"><ele>1225.75</ele><time>2026-03-29T09:17:23Z</time></trkpt><trkpt lat="46.031566281682345" lon="11.297120102641157"><ele>1220.0</ele><time>2026-03-29T09:17:24Z</time></trkpt><trkpt lat="46.03161109463822" lon="11.296882848867991"><ele>1231.6666666666667</ele><time>2026-03-29T09:17:25Z</time></trkpt><trkpt lat="46.03167945815438" lon="11.296633380066599"><ele>1243.3333333333333</ele><time>2026-03-29T09:17:26Z</time></trkpt><trkpt lat="46.03175511129843" lon="11.296357795292026"><ele>1255.0</ele><time>2026-03-29T09:17:27Z</time></trkpt><trkpt lat="46.03179982643249" lon="11.296062104519459"><ele>1255.0</ele><time>2026-03-29T09:17:28Z</time></trkpt><trkpt lat="46.03180465128548" lon="11.295823800983237"><ele>1255.0</ele><time>2026-03-29T09:17:28.999Z</time></trkpt><trkpt lat="46.03181899808635" lon="11.295628703302109"><ele>1255.0</ele><time>2026-03-29T09:17:29.999Z</time></trkpt><trkpt lat="46.031867412053465" lon="11.295486428236407"><ele>1255.0</ele><time>2026-03-29T09:17:30.999Z</time></trkpt><trkpt lat="46.03191550754306" lon="11.295389416602294"><ele>1255.0</ele><time>2026-03-29T09:17:31.999Z</time></trkpt><trkpt lat="46.03198247089013" lon="11.29533780906043"><ele>1255.0</ele><time>2026-03-29T09:17:32.999Z</time></trkpt><trkpt lat="46.03207742828556" lon="11.295283263569313"><ele>1255.0</ele><time>2026-03-29T09:17:33.999Z</time></trkpt><trkpt lat="46.03217565593806" lon="11.295312864643293"><ele>1255.0</ele><time>2026-03-29T09:17:34.999Z</time></trkpt><trkpt lat="46.03226269178434" lon="11.295379810498961"><ele>1255.0</ele><time>2026-03-29T09:17:35.999Z</time></trkpt><trkpt lat="46.032319366413795" lon="11.295477038040707"><ele>1255.0</ele><time>2026-03-29T09:17:36.999Z</time></trkpt><trkpt lat="46.03235360186874" lon="11.295620242996966"><ele>1255.0</ele><time>2026-03-29T09:17:37.999Z</time></trkpt><trkpt lat="46.032354628376154" lon="11.295794864484387"><ele>1255.0</ele><time>2026-03-29T09:17:38.999Z</time></trkpt><trkpt lat="46.03230124177376" lon="11.29597473823313"><ele>1255.0</ele><time>2026-03-29T09:17:39.999Z</time></trkpt><trkpt lat="46.03220191962316" lon="11.296114404541756"><ele>1255.0</ele><time>2026-03-29T09:17:40.999Z</time></trkpt><trkpt lat="46.03210398138993" lon="11.296299524592493"><ele>1255.0</ele><time>2026-03-29T09:17:41.999Z</time></trkpt><trkpt lat="46.0320489414564" lon="11.296480742536367"><ele>1255.0</ele><time>2026-03-29T09:17:42.999Z</time></trkpt><trkpt lat="46.032008930989" lon="11.296656396539058"><ele>1255.0</ele><time>2026-03-29T09:17:43.999Z</time></trkpt><trkpt lat="46.03200733663122" lon="11.29685139277199"><ele>1255.6666666666665</ele><time>2026-03-29T09:17:44.999Z</time></trkpt><trkpt lat="46.032038410925864" lon="11.297049690112459"><ele>1256.3333333333333</ele><time>2026-03-29T09:17:45.999Z</time></trkpt><trkpt lat="46.03211095323353" lon="11.297271103636856"><ele>1257.0</ele><time>2026-03-29T09:17:46.999Z</time></trkpt><trkpt lat="46.03220676313862" lon="11.297490053030518"><ele>1255.6666666666667</ele><time>2026-03-29T09:17:47.999Z</time></trkpt><trkpt lat="46.03229607987819" lon="11.29774321237472"><ele>1254.3333333333335</ele><time>2026-03-29T09:17:48.999Z</time></trkpt><trkpt lat="46.032328613028554" lon="11.297975967049421"><ele>1253.0</ele><time>2026-03-29T09:17:49.999Z</time></trkpt><trkpt lat="46.032324481768974" lon="11.298222164426567"><ele>1249.6666666666667</ele><time>2026-03-29T09:17:50.999Z</time></trkpt><trkpt lat="46.03234018311613" lon="11.298512897679045"><ele>1246.3333333333333</ele><time>2026-03-29T09:17:51.999Z</time></trkpt><trkpt lat="46.03238398937891" lon="11.298804178458145"><ele>1243.0</ele><time>2026-03-29T09:17:52.999Z</time></trkpt><trkpt lat="46.03241418131643" lon="11.299042635358896"><ele>1259.0</ele><time>2026-03-29T09:17:53.999Z</time></trkpt><trkpt lat="46.03248079719767" lon="11.29923731648158"><ele>1275.0</ele><time>2026-03-29T09:17:54.999Z</time></trkpt><trkpt lat="46.03257974300958" lon="11.299445009869697"><ele>1291.0</ele><time>2026-03-29T09:17:55.999Z</time></trkpt><trkpt lat="46.032678696585926" lon="11.299687944220336"><ele>1291.0</ele><time>2026-03-29T09:17:56.999Z</time></trkpt><trkpt lat="46.03271864781103" lon="11.299982898138946"><ele>1291.0</ele><time>2026-03-29T09:17:57.999Z</time></trkpt><trkpt lat="46.03278346177061" lon="11.300281355816047"><ele>1291.0</ele><time>2026-03-29T09:17:58.999Z</time></trkpt><trkpt lat="46.03280766930149" lon="11.300603403319029"><ele>1291.0</ele><time>2026-03-29T09:17:59.999Z</time></trkpt><trkpt lat="46.03281013501505" lon="11.30088116049325"><ele>1291.0</ele><time>2026-03-29T09:18:00.999Z</time></trkpt><trkpt lat="46.03280525883206" lon="11.301163371359854"><ele>1291.0</ele><time>2026-03-29T09:18:01.999Z</time></trkpt><trkpt lat="46.03278447433546" lon="11.301421765362802"><ele>1291.0</ele><time>2026-03-29T09:18:02.999Z</time></trkpt><trkpt lat="46.032757516578116" lon="11.301664729243019"><ele>1291.0</ele><time>2026-03-29T09:18:03.999Z</time></trkpt><trkpt lat="46.03276474070579" lon="11.30188360718184"><ele>1291.0</ele><time>2026-03-29T09:18:04.999Z</time></trkpt><trkpt lat="46.0327775619507" lon="11.302097741715098"><ele>1290.6666666666665</ele><time>2026-03-29T09:18:05.999Z</time></trkpt><trkpt lat="46.03281322652634" lon="11.302298597206596"><ele>1290.3333333333333</ele><time>2026-03-29T09:18:06.999Z</time></trkpt><trkpt lat="46.032883204665865" lon="11.302491705869063"><ele>1290.0</ele><time>2026-03-29T09:18:07.999Z</time></trkpt><trkpt lat="46.03298639349967" lon="11.302661345951408"><ele>1290.0</ele><time>2026-03-29T09:18:08.999Z</time></trkpt><trkpt lat="46.03312306665761" lon="11.302841339468875"><ele>1290.0</ele><time>2026-03-29T09:18:09.999Z</time></trkpt><trkpt lat="46.03325658125286" lon="11.303050428909462"><ele>1290.0</ele><time>2026-03-29T09:18:10.999Z</time></trkpt><trkpt lat="46.033378183642085" lon="11.303233377547187"><ele>1297.25</ele><time>2026-03-29T09:18:11.999Z</time></trkpt><trkpt lat="46.03347733402819" lon="11.303383369355172"><ele>1304.5</ele><time>2026-03-29T09:18:12.999Z</time></trkpt><trkpt lat="46.033582089056075" lon="11.30348092444899"><ele>1311.75</ele><time>2026-03-29T09:18:13.999Z</time></trkpt><trkpt lat="46.03370884661937" lon="11.303530423528116"><ele>1319.0</ele><time>2026-03-29T09:18:14.999Z</time></trkpt><trkpt lat="46.03384897537604" lon="11.303538555554066"><ele>1319.0</ele><time>2026-03-29T09:18:15.999Z</time></trkpt><trkpt lat="46.033998583402735" lon="11.303500593323596"><ele>1319.0</ele><time>2026-03-29T09:18:16.999Z</time></trkpt><trkpt lat="46.03410181553089" lon="11.303403716813552"><ele>1319.0</ele><time>2026-03-29T09:18:17.999Z</time></trkpt><trkpt lat="46.0342018679886" lon="11.30328887130047"><ele>1319.0</ele><time>2026-03-29T09:18:18.999Z</time></trkpt><trkpt lat="46.03431848171797" lon="11.303140676865977"><ele>1334.6666666666667</ele><time>2026-03-29T09:18:19.999Z</time></trkpt><trkpt lat="46.034441698656025" lon="11.302957173622383"><ele>1350.3333333333333</ele><time>2026-03-29T09:18:20.999Z</time></trkpt><trkpt lat="46.03458723985719" lon="11.30276772411169"><ele>1366.0</ele><time>2026-03-29T09:18:21.999Z</time></trkpt><trkpt lat="46.03475973603863" lon="11.302585792663676"><ele>1366.0</ele><time>2026-03-29T09:18:22.999Z</time></trkpt><trkpt lat="46.03494421265337" lon="11.302425794245133"><ele>1366.0</ele><time>2026-03-29T09:18:23.999Z</time></trkpt><trkpt lat="46.035078606265856" lon="11.302288934698694"><ele>1366.0</ele><time>2026-03-29T09:18:24.999Z</time></trkpt><trkpt lat="46.03520859581444" lon="11.302212416992862"><ele>1370.25</ele><time>2026-03-29T09:18:25.999Z</time></trkpt><trkpt lat="46.03532255899026" lon="11.302221704385692"><ele>1374.5</ele><time>2026-03-29T09:18:26.999Z</time></trkpt><trkpt lat="46.035466820254925" lon="11.302229192436782"><ele>1378.75</ele><time>2026-03-29T09:18:27.999Z</time></trkpt><trkpt lat="46.03565306698761" lon="11.302212529233447"><ele>1383.0</ele><time>2026-03-29T09:18:28.999Z</time></trkpt><trkpt lat="46.03583314391378" lon="11.302118187612454"><ele>1383.0</ele><time>2026-03-29T09:18:29.999Z</time></trkpt><trkpt lat="46.03602963356967" lon="11.302061363209615"><ele>1383.0</ele><time>2026-03-29T09:18:31Z</time></trkpt><trkpt lat="46.0362265123999" lon="11.302033849370384"><ele>1383.0</ele><time>2026-03-29T09:18:32Z</time></trkpt><trkpt lat="46.03639896644004" lon="11.302015375823224"><ele>1383.0</ele><time>2026-03-29T09:18:33Z</time></trkpt><trkpt lat="46.03657505722445" lon="11.301920608608063"><ele>1383.0</ele><time>2026-03-29T09:18:34Z</time></trkpt><trkpt lat="46.03676141310889" lon="11.301813531658924"><ele>1383.0</ele><time>2026-03-29T09:18:35Z</time></trkpt><trkpt lat="46.0369096166794" lon="11.301723355540801"><ele>1378.3333333333333</ele><time>2026-03-29T09:18:36Z</time></trkpt><trkpt lat="46.03705178708221" lon="11.301598124193958"><ele>1373.6666666666665</ele><time>2026-03-29T09:18:37Z</time></trkpt><trkpt lat="46.037181252797964" lon="11.301405573054902"><ele>1369.0</ele><time>2026-03-29T09:18:38Z</time></trkpt><trkpt lat="46.03730071870902" lon="11.301248766520194"><ele>1371.5</ele><time>2026-03-29T09:18:39Z</time></trkpt><trkpt lat="46.03740548895172" lon="11.30117360925269"><ele>1374.0</ele><time>2026-03-29T09:18:40Z</time></trkpt><trkpt lat="46.03752281312031" lon="11.301071225033967"><ele>1376.5</ele><time>2026-03-29T09:18:41Z</time></trkpt><trkpt lat="46.0376468124825" lon="11.300980804519636"><ele>1379.0</ele><time>2026-03-29T09:18:42Z</time></trkpt><trkpt lat="46.037711865908435" lon="11.300800965553528"><ele>1379.0</ele><time>2026-03-29T09:18:43Z</time></trkpt><trkpt lat="46.03780878118661" lon="11.300601874522494"><ele>1379.0</ele><time>2026-03-29T09:18:44Z</time></trkpt><trkpt lat="46.03788472609591" lon="11.300392329970563"><ele>1379.0</ele><time>2026-03-29T09:18:45Z</time></trkpt><trkpt lat="46.03796256124068" lon="11.300249061790929"><ele>1380.5</ele><time>2026-03-29T09:18:46Z</time></trkpt><trkpt lat="46.03808180795109" lon="11.300190037650792"><ele>1382.0</ele><time>2026-03-29T09:18:47Z</time></trkpt><trkpt lat="46.038208599915805" lon="11.300130320683232"><ele>1383.5</ele><time>2026-03-29T09:18:48Z</time></trkpt><trkpt lat="46.03835483494142" lon="11.30007966781454"><ele>1385.0</ele><time>2026-03-29T09:18:49Z</time></trkpt><trkpt lat="46.038522031170174" lon="11.300040442276993"><ele>1385.0</ele><time>2026-03-29T09:18:50Z</time></trkpt><trkpt lat="46.038702668437715" lon="11.30001470518107"><ele>1385.0</ele><time>2026-03-29T09:18:51Z</time></trkpt><trkpt lat="46.03884755258044" lon="11.300023886591585"><ele>1385.0</ele><time>2026-03-29T09:18:52Z</time></trkpt><trkpt lat="46.038976809832185" lon="11.30004249708661"><ele>1385.0</ele><time>2026-03-29T09:18:53Z</time></trkpt><trkpt lat="46.039083243299245" lon="11.300059629281431"><ele>1385.0</ele><time>2026-03-29T09:18:54Z</time></trkpt><trkpt lat="46.03916865528735" lon="11.300075624167077"><ele>1385.0</ele><time>2026-03-29T09:18:55Z</time></trkpt><trkpt lat="46.039239085073305" lon="11.300085294730284"><ele>1385.0</ele><time>2026-03-29T09:18:56Z</time></trkpt><trkpt lat="46.039332503798356" lon="11.3001085544396"><ele>1385.0</ele><time>2026-03-29T09:18:58Z</time></trkpt><trkpt lat="46.039351675782676" lon="11.299991968549104"><ele>1385.0</ele><time>2026-03-29T09:19:20Z</time></trkpt><trkpt lat="46.03938228865541" lon="11.299908544548094"><ele>1384.3333333333335</ele><time>2026-03-29T09:19:34.999Z</time></trkpt><trkpt lat="46.03939289283374" lon="11.299794544907833"><ele>1383.6666666666667</ele><time>2026-03-29T09:19:52.999Z</time></trkpt><trkpt lat="46.03938526263669" lon="11.299702365153644"><ele>1383.0</ele><time>2026-03-29T09:19:53.999Z</time></trkpt><trkpt lat="46.039382536736376" lon="11.299535028171654"><ele>1382.3333333333333</ele><time>2026-03-29T09:19:55.999Z</time></trkpt><trkpt lat="46.0393755888975" lon="11.299434660257367"><ele>1381.6666666666665</ele><time>2026-03-29T09:19:56.999Z</time></trkpt><trkpt lat="46.03938171734666" lon="11.299328011703285"><ele>1381.0</ele><time>2026-03-29T09:19:57.999Z</time></trkpt><trkpt lat="46.039405565303255" lon="11.299219781914399"><ele>1381.0</ele><time>2026-03-29T09:19:58.999Z</time></trkpt><trkpt lat="46.03945169842864" lon="11.29911462717247"><ele>1381.0</ele><time>2026-03-29T09:19:59.999Z</time></trkpt><trkpt lat="46.03950386457233" lon="11.299033588676362"><ele>1381.0</ele><time>2026-03-29T09:20:00.999Z</time></trkpt><trkpt lat="46.039570054206884" lon="11.298973720421436"><ele>1381.0</ele><time>2026-03-29T09:20:01.999Z</time></trkpt><trkpt lat="46.03966713841686" lon="11.298948763372803"><ele>1381.0</ele><time>2026-03-29T09:20:02.999Z</time></trkpt><trkpt lat="46.03977269046952" lon="11.29890848341972"><ele>1381.0</ele><time>2026-03-29T09:20:03.999Z</time></trkpt><trkpt lat="46.039887049775345" lon="11.29884780092488"><ele>1379.6</ele><time>2026-03-29T09:20:04.999Z</time></trkpt><trkpt lat="46.039993838488336" lon="11.298780329326236"><ele>1378.1999999999998</ele><time>2026-03-29T09:20:05.999Z</time></trkpt><trkpt lat="46.04008696384745" lon="11.298734685794019"><ele>1376.8000000000002</ele><time>2026-03-29T09:20:06.999Z</time></trkpt><trkpt lat="46.040167306661324" lon="11.298680084894121"><ele>1375.4</ele><time>2026-03-29T09:20:07.999Z</time></trkpt><trkpt lat="46.04023509433822" lon="11.298599210037535"><ele>1374.0</ele><time>2026-03-29T09:20:08.999Z</time></trkpt><trkpt lat="46.040277729939866" lon="11.298488221052978"><ele>1374.0</ele><time>2026-03-29T09:20:09.999Z</time></trkpt><trkpt lat="46.04029413790124" lon="11.298351844629465"><ele>1374.0</ele><time>2026-03-29T09:20:10.999Z</time></trkpt><trkpt lat="46.04031753522974" lon="11.298188335959791"><ele>1374.0</ele><time>2026-03-29T09:20:11.999Z</time></trkpt><trkpt lat="46.040371504931535" lon="11.298030334613976"><ele>1374.0</ele><time>2026-03-29T09:20:12.999Z</time></trkpt><trkpt lat="46.04044356004821" lon="11.29787705588205"><ele>1370.4</ele><time>2026-03-29T09:20:13.999Z</time></trkpt><trkpt lat="46.04049767745431" lon="11.297738637916522"><ele>1366.8000000000002</ele><time>2026-03-29T09:20:14.999Z</time></trkpt><trkpt lat="46.04052750028293" lon="11.297602349068192"><ele>1363.1999999999998</ele><time>2026-03-29T09:20:15.999Z</time></trkpt><trkpt lat="46.040564629780775" lon="11.297466335295756"><ele>1359.6</ele><time>2026-03-29T09:20:16.999Z</time></trkpt><trkpt lat="46.04063130641352" lon="11.297340342882421"><ele>1356.0</ele><time>2026-03-29T09:20:17.999Z</time></trkpt><trkpt lat="46.04070933182138" lon="11.297213211114643"><ele>1354.5</ele><time>2026-03-29T09:20:18.999Z</time></trkpt><trkpt lat="46.04080022028385" lon="11.297129799874856"><ele>1353.0</ele><time>2026-03-29T09:20:19.999Z</time></trkpt><trkpt lat="46.04089957811058" lon="11.297048671718374"><ele>1351.5</ele><time>2026-03-29T09:20:20.999Z</time></trkpt><trkpt lat="46.041000917543776" lon="11.296942481639185"><ele>1350.0</ele><time>2026-03-29T09:20:21.999Z</time></trkpt><trkpt lat="46.04111058336983" lon="11.296848465602405"><ele>1350.0</ele><time>2026-03-29T09:20:22.999Z</time></trkpt><trkpt lat="46.04122902049091" lon="11.29676393228647"><ele>1350.0</ele><time>2026-03-29T09:20:23.999Z</time></trkpt><trkpt lat="46.041328385574374" lon="11.296665951204526"><ele>1350.0</ele><time>2026-03-29T09:20:24.999Z</time></trkpt><trkpt lat="46.041441291172895" lon="11.296556528248248"><ele>1350.0</ele><time>2026-03-29T09:20:25.999Z</time></trkpt><trkpt lat="46.04156116251477" lon="11.296440486632731"><ele>1348.5</ele><time>2026-03-29T09:20:26.999Z</time></trkpt><trkpt lat="46.04168534273782" lon="11.296326068174828"><ele>1347.0</ele><time>2026-03-29T09:20:27.999Z</time></trkpt><trkpt lat="46.04180059935418" lon="11.296221241162081"><ele>1345.5</ele><time>2026-03-29T09:20:28.999Z</time></trkpt><trkpt lat="46.04189863083035" lon="11.29610953846618"><ele>1344.0</ele><time>2026-03-29T09:20:29.999Z</time></trkpt><trkpt lat="46.04198304331759" lon="11.29598230950245"><ele>1344.0</ele><time>2026-03-29T09:20:30.999Z</time></trkpt><trkpt lat="46.0420497918107" lon="11.295823786387297"><ele>1344.0</ele><time>2026-03-29T09:20:31.999Z</time></trkpt><trkpt lat="46.0420962544722" lon="11.29562286591991"><ele>1344.0</ele><time>2026-03-29T09:20:32.999Z</time></trkpt><trkpt lat="46.042162149659056" lon="11.295426610615422"><ele>1344.0</ele><time>2026-03-29T09:20:33.999Z</time></trkpt><trkpt lat="46.04225327848592" lon="11.295275363692175"><ele>1343.0</ele><time>2026-03-29T09:20:34.999Z</time></trkpt><trkpt lat="46.042347579326" lon="11.295136455272035"><ele>1342.0</ele><time>2026-03-29T09:20:35.999Z</time></trkpt><trkpt lat="46.042426559484255" lon="11.294974675702349"><ele>1341.0</ele><time>2026-03-29T09:20:37Z</time></trkpt><trkpt lat="46.042480207396636" lon="11.294821473203127"><ele>1340.0</ele><time>2026-03-29T09:20:38Z</time></trkpt><trkpt lat="46.04250127778822" lon="11.2946525268211"><ele>1340.0</ele><time>2026-03-29T09:20:39Z</time></trkpt><trkpt lat="46.042487817842094" lon="11.294474631170507"><ele>1340.0</ele><time>2026-03-29T09:20:40Z</time></trkpt><trkpt lat="46.042474922149125" lon="11.294292855475433"><ele>1340.0</ele><time>2026-03-29T09:20:41Z</time></trkpt><trkpt lat="46.04249945954918" lon="11.294126006443644"><ele>1340.0</ele><time>2026-03-29T09:20:42Z</time></trkpt><trkpt lat="46.042544146297786" lon="11.293951226273999"><ele>1335.0</ele><time>2026-03-29T09:20:43Z</time></trkpt><trkpt lat="46.04260839873552" lon="11.293756919580852"><ele>1330.0</ele><time>2026-03-29T09:20:44Z</time></trkpt><trkpt lat="46.04266620684124" lon="11.293545276526352"><ele>1325.0</ele><time>2026-03-29T09:20:45Z</time></trkpt><trkpt lat="46.04269874760101" lon="11.293329346069271"><ele>1325.0</ele><time>2026-03-29T09:20:46Z</time></trkpt><trkpt lat="46.04272084282527" lon="11.293151614966503"><ele>1325.0</ele><time>2026-03-29T09:20:47Z</time></trkpt><trkpt lat="46.04280395233175" lon="11.293044369668547"><ele>1325.0</ele><time>2026-03-29T09:20:48Z</time></trkpt><trkpt lat="46.042882657677765" lon="11.292938161267335"><ele>1325.0</ele><time>2026-03-29T09:20:49Z</time></trkpt><trkpt lat="46.04298077170022" lon="11.292810263665206"><ele>1321.4</ele><time>2026-03-29T09:20:50Z</time></trkpt><trkpt lat="46.043072803543744" lon="11.292700035715834"><ele>1317.8</ele><time>2026-03-29T09:20:51Z</time></trkpt><trkpt lat="46.043140909155326" lon="11.292604268524052"><ele>1314.1999999999998</ele><time>2026-03-29T09:20:52Z</time></trkpt><trkpt lat="46.04318887247774" lon="11.292539169320728"><ele>1310.6</ele><time>2026-03-29T09:20:53Z</time></trkpt><trkpt lat="46.04313579828071" lon="11.292395549586532"><ele>1307.0</ele><time>2026-03-29T09:20:55Z</time></trkpt><trkpt lat="46.04306333010248" lon="11.292406889308548"><ele>1307.0</ele><time>2026-03-29T09:20:56Z</time></trkpt><trkpt lat="46.042982421552445" lon="11.29249391756798"><ele>1307.0</ele><time>2026-03-29T09:20:57Z</time></trkpt><trkpt lat="46.04290080147613" lon="11.292629126304682"><ele>1307.0</ele><time>2026-03-29T09:20:58Z</time></trkpt><trkpt lat="46.04278306365827" lon="11.292738907522212"><ele>1307.0</ele><time>2026-03-29T09:20:59Z</time></trkpt><trkpt lat="46.04263998510818" lon="11.29284517117565"><ele>1307.0</ele><time>2026-03-29T09:21:00Z</time></trkpt><trkpt lat="46.04249714479315" lon="11.292960595388694"><ele>1307.0</ele><time>2026-03-29T09:21:01Z</time></trkpt><trkpt lat="46.04237553966783" lon="11.293076644182776"><ele>1307.0</ele><time>2026-03-29T09:21:02Z</time></trkpt><trkpt lat="46.042279177427744" lon="11.293193374081875"><ele>1307.0</ele><time>2026-03-29T09:21:03Z</time></trkpt><trkpt lat="46.04222419170822" lon="11.293347635470552"><ele>1306.5</ele><time>2026-03-29T09:21:04Z</time></trkpt><trkpt lat="46.042163328824145" lon="11.29351584941333"><ele>1306.0</ele><time>2026-03-29T09:21:05Z</time></trkpt><trkpt lat="46.0421106916435" lon="11.293711495490086"><ele>1305.5</ele><time>2026-03-29T09:21:06Z</time></trkpt><trkpt lat="46.04204702850606" lon="11.293908829784506"><ele>1305.0</ele><time>2026-03-29T09:21:07Z</time></trkpt><trkpt lat="46.041968916985994" lon="11.2940748351502"><ele>1305.0</ele><time>2026-03-29T09:21:08Z</time></trkpt><trkpt lat="46.041891078055166" lon="11.294246547688935"><ele>1305.0</ele><time>2026-03-29T09:21:09Z</time></trkpt><trkpt lat="46.04181910121831" lon="11.294428515724169"><ele>1305.0</ele><time>2026-03-29T09:21:10Z</time></trkpt><trkpt lat="46.04173222131702" lon="11.294548302894436"><ele>1305.0</ele><time>2026-03-29T09:21:11Z</time></trkpt><trkpt lat="46.041653299080515" lon="11.294632938515633"><ele>1302.4</ele><time>2026-03-29T09:21:12Z</time></trkpt><trkpt lat="46.041572132537716" lon="11.294687375124038"><ele>1299.8</ele><time>2026-03-29T09:21:13Z</time></trkpt><trkpt lat="46.04148676346702" lon="11.29470069380213"><ele>1297.1999999999998</ele><time>2026-03-29T09:21:14Z</time></trkpt><trkpt lat="46.04138299780837" lon="11.294678167282385"><ele>1294.6</ele><time>2026-03-29T09:21:15Z</time></trkpt><trkpt lat="46.04125705468249" lon="11.29465294661148"><ele>1292.0</ele><time>2026-03-29T09:21:16Z</time></trkpt><trkpt lat="46.04111783808401" lon="11.294631621889264"><ele>1292.0</ele><time>2026-03-29T09:21:17Z</time></trkpt><trkpt lat="46.04099964530869" lon="11.294624066764689"><ele>1292.0</ele><time>2026-03-29T09:21:18Z</time></trkpt><trkpt lat="46.04088181371582" lon="11.294630212270583"><ele>1292.0</ele><time>2026-03-29T09:21:19Z</time></trkpt><trkpt lat="46.040777895476154" lon="11.29465936714664"><ele>1292.0</ele><time>2026-03-29T09:21:20Z</time></trkpt><trkpt lat="46.040646637912076" lon="11.29472960158282"><ele>1293.5</ele><time>2026-03-29T09:21:21Z</time></trkpt><trkpt lat="46.04053797176488" lon="11.294805231951287"><ele>1295.0</ele><time>2026-03-29T09:21:22Z</time></trkpt><trkpt lat="46.040432881051515" lon="11.294884656016928"><ele>1296.5</ele><time>2026-03-29T09:21:23Z</time></trkpt><trkpt lat="46.04032633808977" lon="11.294949481013147"><ele>1298.0</ele><time>2026-03-29T09:21:24Z</time></trkpt><trkpt lat="46.040206371180965" lon="11.294965530006772"><ele>1298.0</ele><time>2026-03-29T09:21:25Z</time></trkpt><trkpt lat="46.04011089124924" lon="11.294929759788802"><ele>1298.0</ele><time>2026-03-29T09:21:26Z</time></trkpt><trkpt lat="46.04003696935431" lon="11.294891595610862"><ele>1298.0</ele><time>2026-03-29T09:21:27Z</time></trkpt><trkpt lat="46.03994540022319" lon="11.294844036324639"><ele>1298.0</ele><time>2026-03-29T09:21:28Z</time></trkpt><trkpt lat="46.039843793463156" lon="11.294796411594524"><ele>1298.0</ele><time>2026-03-29T09:21:29Z</time></trkpt><trkpt lat="46.03972603395156" lon="11.294764426122907"><ele>1299.3333333333335</ele><time>2026-03-29T09:21:30Z</time></trkpt><trkpt lat="46.03962188882171" lon="11.294764202575257"><ele>1300.6666666666667</ele><time>2026-03-29T09:21:31Z</time></trkpt><trkpt lat="46.03953892323268" lon="11.294737378611297"><ele>1302.0</ele><time>2026-03-29T09:21:32Z</time></trkpt><trkpt lat="46.0394580348197" lon="11.29471406799964"><ele>1303.3333333333333</ele><time>2026-03-29T09:21:33Z</time></trkpt><trkpt lat="46.0393907047084" lon="11.29466562706838"><ele>1304.6666666666665</ele><time>2026-03-29T09:21:34Z</time></trkpt><trkpt lat="46.03932593480504" lon="11.294629148543061"><ele>1306.0</ele><time>2026-03-29T09:21:35Z</time></trkpt><trkpt lat="46.039244578507706" lon="11.294564849099595"><ele>1302.1999999999998</ele><time>2026-03-29T09:21:37Z</time></trkpt><trkpt lat="46.03920282447895" lon="11.294432403066041"><ele>1298.3999999999999</ele><time>2026-03-29T09:21:38.999Z</time></trkpt><trkpt lat="46.03925500044427" lon="11.294368266313539"><ele>1294.6</ele><time>2026-03-29T09:21:39.999Z</time></trkpt><trkpt lat="46.03932322332297" lon="11.294331969412925"><ele>1290.8</ele><time>2026-03-29T09:21:40.999Z</time></trkpt><trkpt lat="46.03942069030938" lon="11.294319951005281"><ele>1287.0</ele><time>2026-03-29T09:21:41.999Z</time></trkpt><trkpt lat="46.03953164098069" lon="11.294326138257029"><ele>1287.0</ele><time>2026-03-29T09:21:42.999Z</time></trkpt><trkpt lat="46.03965970027883" lon="11.29426600590258"><ele>1287.0</ele><time>2026-03-29T09:21:43.999Z</time></trkpt><trkpt lat="46.03977861077767" lon="11.294189494760245"><ele>1287.0</ele><time>2026-03-29T09:21:44.999Z</time></trkpt><trkpt lat="46.039907734734484" lon="11.294101141158022"><ele>1287.0</ele><time>2026-03-29T09:21:45.999Z</time></trkpt><trkpt lat="46.040027051818306" lon="11.293991558314907"><ele>1281.5</ele><time>2026-03-29T09:21:46.999Z</time></trkpt><trkpt lat="46.04014632007941" lon="11.293915829170267"><ele>1276.0</ele><time>2026-03-29T09:21:47.999Z</time></trkpt><trkpt lat="46.04024343148632" lon="11.293820125963972"><ele>1270.5</ele><time>2026-03-29T09:21:48.999Z</time></trkpt><trkpt lat="46.04033161156161" lon="11.293695772057953"><ele>1265.0</ele><time>2026-03-29T09:21:49.999Z</time></trkpt><trkpt lat="46.04040587305621" lon="11.293554304142338"><ele>1265.0</ele><time>2026-03-29T09:21:50.999Z</time></trkpt><trkpt lat="46.0405100590055" lon="11.29344261465812"><ele>1265.0</ele><time>2026-03-29T09:21:51.999Z</time></trkpt><trkpt lat="46.04060167889117" lon="11.29334287805512"><ele>1265.0</ele><time>2026-03-29T09:21:52.999Z</time></trkpt><trkpt lat="46.04070296700621" lon="11.293266710070748"><ele>1265.0</ele><time>2026-03-29T09:21:53.999Z</time></trkpt><trkpt lat="46.04081282689917" lon="11.293232016030933"><ele>1267.5</ele><time>2026-03-29T09:21:54.999Z</time></trkpt><trkpt lat="46.04095336946738" lon="11.293184637519309"><ele>1270.0</ele><time>2026-03-29T09:21:55.999Z</time></trkpt><trkpt lat="46.04107896497584" lon="11.293125633490336"><ele>1272.5</ele><time>2026-03-29T09:21:56.999Z</time></trkpt><trkpt lat="46.04118504903935" lon="11.293065147040478"><ele>1275.0</ele><time>2026-03-29T09:21:57.999Z</time></trkpt><trkpt lat="46.04126248074834" lon="11.292990883802897"><ele>1269.8</ele><time>2026-03-29T09:21:58.999Z</time></trkpt><trkpt lat="46.04133553634417" lon="11.292906340085938"><ele>1264.6</ele><time>2026-03-29T09:21:59.999Z</time></trkpt><trkpt lat="46.04138925252819" lon="11.292802997139669"><ele>1259.4</ele><time>2026-03-29T09:22:00.999Z</time></trkpt><trkpt lat="46.04142549921277" lon="11.292675700736167"><ele>1254.2</ele><time>2026-03-29T09:22:01.999Z</time></trkpt><trkpt lat="46.04145559297889" lon="11.292532521648004"><ele>1249.0</ele><time>2026-03-29T09:22:02.999Z</time></trkpt><trkpt lat="46.04147258968473" lon="11.292379828900724"><ele>1245.8</ele><time>2026-03-29T09:22:03.999Z</time></trkpt><trkpt lat="46.041464904367864" lon="11.292224579806785"><ele>1242.6000000000001</ele><time>2026-03-29T09:22:04.999Z</time></trkpt><trkpt lat="46.041460382783775" lon="11.292100319009736"><ele>1239.4</ele><time>2026-03-29T09:22:05.999Z</time></trkpt><trkpt lat="46.041483412794896" lon="11.2919670546163"><ele>1236.2</ele><time>2026-03-29T09:22:06.999Z</time></trkpt><trkpt lat="46.04151369997569" lon="11.291824260004498"><ele>1233.0</ele><time>2026-03-29T09:22:07.999Z</time></trkpt><trkpt lat="46.041583463394325" lon="11.291710805087801"><ele>1232.75</ele><time>2026-03-29T09:22:08.999Z</time></trkpt><trkpt lat="46.0416446193044" lon="11.291561012806099"><ele>1232.5</ele><time>2026-03-29T09:22:09.999Z</time></trkpt><trkpt lat="46.041739831005245" lon="11.291445747262193"><ele>1232.25</ele><time>2026-03-29T09:22:10.999Z</time></trkpt><trkpt lat="46.041841393081604" lon="11.291317608105356"><ele>1232.0</ele><time>2026-03-29T09:22:11.999Z</time></trkpt><trkpt lat="46.04195609495429" lon="11.291178479368591"><ele>1232.0</ele><time>2026-03-29T09:22:12.999Z</time></trkpt><trkpt lat="46.04208081807315" lon="11.291033893060549"><ele>1232.0</ele><time>2026-03-29T09:22:13.999Z</time></trkpt><trkpt lat="46.04219480210591" lon="11.290879693714286"><ele>1232.0</ele><time>2026-03-29T09:22:14.999Z</time></trkpt><trkpt lat="46.04227835967087" lon="11.290717813800471"><ele>1234.25</ele><time>2026-03-29T09:22:15.999Z</time></trkpt><trkpt lat="46.042367959825306" lon="11.290555849142606"><ele>1236.5</ele><time>2026-03-29T09:22:16.999Z</time></trkpt><trkpt lat="46.042431625863976" lon="11.290384456521897"><ele>1238.75</ele><time>2026-03-29T09:22:17.999Z</time></trkpt><trkpt lat="46.0424716861393" lon="11.290195745925724"><ele>1241.0</ele><time>2026-03-29T09:22:18.999Z</time></trkpt><trkpt lat="46.042518989715695" lon="11.290029492929337"><ele>1241.0</ele><time>2026-03-29T09:22:19.999Z</time></trkpt><trkpt lat="46.042617199197785" lon="11.289911555455747"><ele>1241.0</ele><time>2026-03-29T09:22:20.999Z</time></trkpt><trkpt lat="46.04271724441739" lon="11.2897683552185"><ele>1241.0</ele><time>2026-03-29T09:22:21.999Z</time></trkpt><trkpt lat="46.04280575247669" lon="11.289627997971111"><ele>1241.0</ele><time>2026-03-29T09:22:22.999Z</time></trkpt><trkpt lat="46.042873525843845" lon="11.289496887238366"><ele>1236.6</ele><time>2026-03-29T09:22:23.999Z</time></trkpt><trkpt lat="46.04291176523591" lon="11.289356862897211"><ele>1232.1999999999998</ele><time>2026-03-29T09:22:24.999Z</time></trkpt><trkpt lat="46.04289088132686" lon="11.28921778300965"><ele>1227.8000000000002</ele><time>2026-03-29T09:22:25.999Z</time></trkpt><trkpt lat="46.04288979928273" lon="11.289068326390435"><ele>1223.4</ele><time>2026-03-29T09:22:26.999Z</time></trkpt><trkpt lat="46.04289102930469" lon="11.288904742868715"><ele>1219.0</ele><time>2026-03-29T09:22:27.999Z</time></trkpt><trkpt lat="46.04292302331016" lon="11.288722825232837"><ele>1215.5</ele><time>2026-03-29T09:22:28.999Z</time></trkpt><trkpt lat="46.04295591450079" lon="11.288546566143884"><ele>1212.0</ele><time>2026-03-29T09:22:29.999Z</time></trkpt><trkpt lat="46.04299860657144" lon="11.288371027868548"><ele>1208.5</ele><time>2026-03-29T09:22:30.999Z</time></trkpt><trkpt lat="46.04308283293889" lon="11.28820612743653"><ele>1205.0</ele><time>2026-03-29T09:22:31.999Z</time></trkpt><trkpt lat="46.04315898795538" lon="11.288045438960474"><ele>1204.8</ele><time>2026-03-29T09:22:32.999Z</time></trkpt><trkpt lat="46.04322518787625" lon="11.287919523584481"><ele>1204.6</ele><time>2026-03-29T09:22:33.999Z</time></trkpt><trkpt lat="46.043289482471124" lon="11.287838126212534"><ele>1204.4</ele><time>2026-03-29T09:22:34.999Z</time></trkpt><trkpt lat="46.043367124625355" lon="11.287779011054525"><ele>1204.2</ele><time>2026-03-29T09:22:35.999Z</time></trkpt><trkpt lat="46.04346477998027" lon="11.287779128147319"><ele>1204.0</ele><time>2026-03-29T09:22:36.999Z</time></trkpt><trkpt lat="46.04357598207431" lon="11.287773054806568"><ele>1204.0</ele><time>2026-03-29T09:22:37.999Z</time></trkpt><trkpt lat="46.04367491475553" lon="11.287797917668076"><ele>1204.0</ele><time>2026-03-29T09:22:38.999Z</time></trkpt><trkpt lat="46.043764212695834" lon="11.287845370896035"><ele>1204.0</ele><time>2026-03-29T09:22:39.999Z</time></trkpt><trkpt lat="46.04385980915791" lon="11.287903179094599"><ele>1204.0</ele><time>2026-03-29T09:22:40.999Z</time></trkpt><trkpt lat="46.0439559801045" lon="11.287970240330585"><ele>1204.0</ele><time>2026-03-29T09:22:41.999Z</time></trkpt><trkpt lat="46.04402375935489" lon="11.288006857215285"><ele>1204.0</ele><time>2026-03-29T09:22:43Z</time></trkpt><trkpt lat="46.04409138450009" lon="11.288031494867939"><ele>1204.0</ele><time>2026-03-29T09:22:44Z</time></trkpt><trkpt lat="46.04417313313862" lon="11.287980406542145"><ele>1204.0</ele><time>2026-03-29T09:22:45Z</time></trkpt><trkpt lat="46.04420103065384" lon="11.287839763840369"><ele>1204.0</ele><time>2026-03-29T09:22:46Z</time></trkpt><trkpt lat="46.04418042761343" lon="11.287710778263406"><ele>1204.0</ele><time>2026-03-29T09:22:47Z</time></trkpt><trkpt lat="46.04417023454465" lon="11.287559513498154"><ele>1208.4</ele><time>2026-03-29T09:22:48Z</time></trkpt><trkpt lat="46.044156701790186" lon="11.2873994450314"><ele>1212.8000000000002</ele><time>2026-03-29T09:22:49Z</time></trkpt><trkpt lat="46.04412388261964" lon="11.287219097337783"><ele>1217.1999999999998</ele><time>2026-03-29T09:22:50Z</time></trkpt><trkpt lat="46.04408165305714" lon="11.287095857249282"><ele>1221.6</ele><time>2026-03-29T09:22:51Z</time></trkpt><trkpt lat="46.04402348181995" lon="11.286960042887882"><ele>1226.0</ele><time>2026-03-29T09:22:52Z</time></trkpt><trkpt lat="46.043991043057744" lon="11.286832538267051"><ele>1214.75</ele><time>2026-03-29T09:22:53Z</time></trkpt><trkpt lat="46.044017087810985" lon="11.286683088681082"><ele>1203.5</ele><time>2026-03-29T09:22:54Z</time></trkpt><trkpt lat="46.044026510791525" lon="11.28650819943361"><ele>1192.25</ele><time>2026-03-29T09:22:55Z</time></trkpt><trkpt lat="46.04402120629847" lon="11.286321771735226"><ele>1181.0</ele><time>2026-03-29T09:22:56Z</time></trkpt><trkpt lat="46.044050943764866" lon="11.286131290549092"><ele>1180.75</ele><time>2026-03-29T09:22:57Z</time></trkpt><trkpt lat="46.04408624726396" lon="11.285929602499374"><ele>1180.5</ele><time>2026-03-29T09:22:58Z</time></trkpt><trkpt lat="46.04412341652465" lon="11.285746889789433"><ele>1180.25</ele><time>2026-03-29T09:22:59Z</time></trkpt><trkpt lat="46.0441458448783" lon="11.285568099225486"><ele>1180.0</ele><time>2026-03-29T09:23:00Z</time></trkpt><trkpt lat="46.044173790623276" lon="11.28542932513558"><ele>1180.0</ele><time>2026-03-29T09:23:01Z</time></trkpt><trkpt lat="46.04420539860025" lon="11.28531860373577"><ele>1180.0</ele><time>2026-03-29T09:23:02Z</time></trkpt><trkpt lat="46.04426268927736" lon="11.28524855804494"><ele>1180.0</ele><time>2026-03-29T09:23:03Z</time></trkpt><trkpt lat="46.04433525250384" lon="11.285179152488531"><ele>1180.0</ele><time>2026-03-29T09:23:04Z</time></trkpt><trkpt lat="46.044426093190104" lon="11.285109406526578"><ele>1180.0</ele><time>2026-03-29T09:23:05Z</time></trkpt><trkpt lat="46.044531087239136" lon="11.285043470345848"><ele>1180.0</ele><time>2026-03-29T09:23:06Z</time></trkpt><trkpt lat="46.044642737470184" lon="11.28499901899016"><ele>1180.0</ele><time>2026-03-29T09:23:07Z</time></trkpt><trkpt lat="46.04476059884869" lon="11.28495500950645"><ele>1180.0</ele><time>2026-03-29T09:23:08Z</time></trkpt><trkpt lat="46.04487045106243" lon="11.284903197406837"><ele>1180.0</ele><time>2026-03-29T09:23:09Z</time></trkpt><trkpt lat="46.04495737376015" lon="11.284837668811171"><ele>1180.6666666666665</ele><time>2026-03-29T09:23:10Z</time></trkpt><trkpt lat="46.045021614816655" lon="11.284760258716654"><ele>1181.3333333333333</ele><time>2026-03-29T09:23:11Z</time></trkpt><trkpt lat="46.045034540446736" lon="11.284648682357883"><ele>1182.0</ele><time>2026-03-29T09:23:12Z</time></trkpt><trkpt lat="46.04497056872914" lon="11.284510933428646"><ele>1182.6666666666667</ele><time>2026-03-29T09:23:13Z</time></trkpt><trkpt lat="46.04499874838125" lon="11.284405976530675"><ele>1183.3333333333335</ele><time>2026-03-29T09:23:15Z</time></trkpt><trkpt lat="46.045006152135684" lon="11.284271525133363"><ele>1184.0</ele><time>2026-03-29T09:23:17Z</time></trkpt><trkpt lat="46.04505094684372" lon="11.284119537692893"><ele>1184.0</ele><time>2026-03-29T09:23:19Z</time></trkpt><trkpt lat="46.04506561423737" lon="11.28399826188004"><ele>1184.0</ele><time>2026-03-29T09:23:20Z</time></trkpt><trkpt lat="46.04509492350051" lon="11.283855292797538"><ele>1184.0</ele><time>2026-03-29T09:23:21Z</time></trkpt><trkpt lat="46.045109184766424" lon="11.283696139052067"><ele>1184.0</ele><time>2026-03-29T09:23:22Z</time></trkpt><trkpt lat="46.04512352247979" lon="11.283512970290309"><ele>1184.0</ele><time>2026-03-29T09:23:23Z</time></trkpt><trkpt lat="46.04511225063153" lon="11.283315911150359"><ele>1181.0</ele><time>2026-03-29T09:23:24Z</time></trkpt><trkpt lat="46.045088904800856" lon="11.283134841644317"><ele>1178.0</ele><time>2026-03-29T09:23:25Z</time></trkpt><trkpt lat="46.045065278743444" lon="11.282972843786542"><ele>1175.0</ele><time>2026-03-29T09:23:26Z</time></trkpt><trkpt lat="46.04507134079995" lon="11.282833733540636"><ele>1172.0</ele><time>2026-03-29T09:23:27Z</time></trkpt><trkpt lat="46.04509594361442" lon="11.282677971046649"><ele>1169.5</ele><time>2026-03-29T09:23:28Z</time></trkpt><trkpt lat="46.04515863941231" lon="11.282591537248283"><ele>1167.0</ele><time>2026-03-29T09:23:29Z</time></trkpt><trkpt lat="46.04522535847757" lon="11.282491942879052"><ele>1164.5</ele><time>2026-03-29T09:23:30Z</time></trkpt><trkpt lat="46.045303434728005" lon="11.282433853784665"><ele>1162.0</ele><time>2026-03-29T09:23:31Z</time></trkpt><trkpt lat="46.04540801537073" lon="11.28242786418442"><ele>1159.5</ele><time>2026-03-29T09:23:32Z</time></trkpt><trkpt lat="46.04547563287805" lon="11.282386259746483"><ele>1157.0</ele><time>2026-03-29T09:23:33Z</time></trkpt><trkpt lat="46.04554024685789" lon="11.28226513336423"><ele>1150.75</ele><time>2026-03-29T09:23:34Z</time></trkpt><trkpt lat="46.045555774020336" lon="11.282122115675232"><ele>1144.5</ele><time>2026-03-29T09:23:35Z</time></trkpt><trkpt lat="46.045563740731076" lon="11.281962990679565"><ele>1138.25</ele><time>2026-03-29T09:23:36Z</time></trkpt><trkpt lat="46.04558269575483" lon="11.28179226287014"><ele>1132.0</ele><time>2026-03-29T09:23:37Z</time></trkpt><trkpt lat="46.04560572189574" lon="11.281607848177838"><ele>1127.5</ele><time>2026-03-29T09:23:38Z</time></trkpt><trkpt lat="46.045639267459514" lon="11.28141933138966"><ele>1123.0</ele><time>2026-03-29T09:23:39Z</time></trkpt><trkpt lat="46.04568941382612" lon="11.281243961070153"><ele>1118.5</ele><time>2026-03-29T09:23:40Z</time></trkpt><trkpt lat="46.04574347833795" lon="11.281054372168569"><ele>1114.0</ele><time>2026-03-29T09:23:41Z</time></trkpt><trkpt lat="46.04580219011875" lon="11.280857379368943"><ele>1120.25</ele><time>2026-03-29T09:23:42Z</time></trkpt><trkpt lat="46.045867219069436" lon="11.280658841966353"><ele>1126.5</ele><time>2026-03-29T09:23:43Z</time></trkpt><trkpt lat="46.045932894060854" lon="11.28047403020164"><ele>1132.75</ele><time>2026-03-29T09:23:44Z</time></trkpt><trkpt lat="46.045997497904935" lon="11.280299764007932"><ele>1139.0</ele><time>2026-03-29T09:23:45Z</time></trkpt><trkpt lat="46.04606411317708" lon="11.280131016385415"><ele>1139.0</ele><time>2026-03-29T09:23:46Z</time></trkpt><trkpt lat="46.046136337334204" lon="11.279983352904535"><ele>1139.0</ele><time>2026-03-29T09:23:47Z</time></trkpt><trkpt lat="46.04622485400362" lon="11.279835404498643"><ele>1139.0</ele><time>2026-03-29T09:23:48Z</time></trkpt><trkpt lat="46.04631782888138" lon="11.279671535768381"><ele>1139.0</ele><time>2026-03-29T09:23:49Z</time></trkpt><trkpt lat="46.04640679145737" lon="11.279512222404176"><ele>1141.75</ele><time>2026-03-29T09:23:50Z</time></trkpt><trkpt lat="46.04650243908675" lon="11.27933856784421"><ele>1144.5</ele><time>2026-03-29T09:23:51Z</time></trkpt><trkpt lat="46.04659120692831" lon="11.27916023221712"><ele>1147.25</ele><time>2026-03-29T09:23:52Z</time></trkpt><trkpt lat="46.0466768663191" lon="11.279001369024444"><ele>1150.0</ele><time>2026-03-29T09:23:52.999Z</time></trkpt><trkpt lat="46.04675958557553" lon="11.278845999479584"><ele>1145.2</ele><time>2026-03-29T09:23:53.999Z</time></trkpt><trkpt lat="46.04683304939123" lon="11.278706541683105"><ele>1140.4</ele><time>2026-03-29T09:23:54.999Z</time></trkpt><trkpt lat="46.04689587499438" lon="11.278578642443213"><ele>1135.6</ele><time>2026-03-29T09:23:55.999Z</time></trkpt><trkpt lat="46.046956709891134" lon="11.278475488418652"><ele>1130.8</ele><time>2026-03-29T09:23:56.999Z</time></trkpt><trkpt lat="46.04703357419685" lon="11.278397832566757"><ele>1126.0</ele><time>2026-03-29T09:23:57.999Z</time></trkpt><trkpt lat="46.0471251394309" lon="11.278386512406632"><ele>1126.0</ele><time>2026-03-29T09:23:58.999Z</time></trkpt><trkpt lat="46.04720746709065" lon="11.278323832137124"><ele>1126.0</ele><time>2026-03-29T09:23:59.999Z</time></trkpt><trkpt lat="46.04727666016276" lon="11.278241123060296"><ele>1126.0</ele><time>2026-03-29T09:24:00.999Z</time></trkpt><trkpt lat="46.04731479156946" lon="11.278122664220538"><ele>1126.0</ele><time>2026-03-29T09:24:01.999Z</time></trkpt><trkpt lat="46.047345294426144" lon="11.278009285339028"><ele>1126.0</ele><time>2026-03-29T09:24:02.999Z</time></trkpt><trkpt lat="46.04740563891992" lon="11.277914794054361"><ele>1126.0</ele><time>2026-03-29T09:24:03.999Z</time></trkpt><trkpt lat="46.04749516673993" lon="11.277882080704748"><ele>1124.5</ele><time>2026-03-29T09:24:04.999Z</time></trkpt><trkpt lat="46.04760854954814" lon="11.27781004694615"><ele>1123.0</ele><time>2026-03-29T09:24:05.999Z</time></trkpt><trkpt lat="46.04772089160698" lon="11.277720761004508"><ele>1121.5</ele><time>2026-03-29T09:24:06.999Z</time></trkpt><trkpt lat="46.047819968767854" lon="11.27759049491899"><ele>1120.0</ele><time>2026-03-29T09:24:07.999Z</time></trkpt><trkpt lat="46.047905683597975" lon="11.277478762856875"><ele>1120.0</ele><time>2026-03-29T09:24:08.999Z</time></trkpt><trkpt lat="46.04800062958631" lon="11.277400272746952"><ele>1120.0</ele><time>2026-03-29T09:24:09.999Z</time></trkpt><trkpt lat="46.04811621736044" lon="11.277339091848736"><ele>1120.0</ele><time>2026-03-29T09:24:10.999Z</time></trkpt><trkpt lat="46.048240022423265" lon="11.277260385628"><ele>1120.0</ele><time>2026-03-29T09:24:11.999Z</time></trkpt><trkpt lat="46.048359630904706" lon="11.277149627520517"><ele>1117.0</ele><time>2026-03-29T09:24:12.999Z</time></trkpt><trkpt lat="46.04845570699875" lon="11.277005744930987"><ele>1114.0</ele><time>2026-03-29T09:24:13.999Z</time></trkpt><trkpt lat="46.048563340780255" lon="11.276880772865423"><ele>1111.0</ele><time>2026-03-29T09:24:14.999Z</time></trkpt><trkpt lat="46.04868430042964" lon="11.276777138312308"><ele>1108.0</ele><time>2026-03-29T09:24:15.999Z</time></trkpt><trkpt lat="46.04883020248936" lon="11.276690208171928"><ele>1108.0</ele><time>2026-03-29T09:24:16.999Z</time></trkpt><trkpt lat="46.048973425933525" lon="11.276557898732234"><ele>1108.0</ele><time>2026-03-29T09:24:17.999Z</time></trkpt><trkpt lat="46.049090494230185" lon="11.276424107636316"><ele>1108.0</ele><time>2026-03-29T09:24:18.999Z</time></trkpt><trkpt lat="46.04920191880789" lon="11.2762986763702"><ele>1104.5</ele><time>2026-03-29T09:24:19.999Z</time></trkpt><trkpt lat="46.049321499623844" lon="11.276172923258065"><ele>1101.0</ele><time>2026-03-29T09:24:20.999Z</time></trkpt><trkpt lat="46.049442138575486" lon="11.276054239570083"><ele>1097.5</ele><time>2026-03-29T09:24:21.999Z</time></trkpt><trkpt lat="46.049570469857684" lon="11.275933908290728"><ele>1094.0</ele><time>2026-03-29T09:24:22.999Z</time></trkpt><trkpt lat="46.049695885767356" lon="11.275832336142111"><ele>1094.0</ele><time>2026-03-29T09:24:23.999Z</time></trkpt><trkpt lat="46.04981070874153" lon="11.275729117092165"><ele>1094.0</ele><time>2026-03-29T09:24:24.999Z</time></trkpt><trkpt lat="46.04990820548734" lon="11.27563841636976"><ele>1094.0</ele><time>2026-03-29T09:24:25.999Z</time></trkpt><trkpt lat="46.04999611773493" lon="11.275601827780207"><ele>1094.0</ele><time>2026-03-29T09:24:26.999Z</time></trkpt><trkpt lat="46.05010664777413" lon="11.275557723825695"><ele>1097.4</ele><time>2026-03-29T09:24:27.999Z</time></trkpt><trkpt lat="46.05018617240198" lon="11.27557283748147"><ele>1100.8000000000002</ele><time>2026-03-29T09:24:28.999Z</time></trkpt><trkpt lat="46.050246676071396" lon="11.27568608419832"><ele>1104.1999999999998</ele><time>2026-03-29T09:24:29.999Z</time></trkpt><trkpt lat="46.05030839698887" lon="11.275785819396084"><ele>1107.6</ele><time>2026-03-29T09:24:30.999Z</time></trkpt><trkpt lat="46.05036983063906" lon="11.275902587656397"><ele>1111.0</ele><time>2026-03-29T09:24:31.999Z</time></trkpt><trkpt lat="46.0504456483513" lon="11.275955034662376"><ele>1111.0</ele><time>2026-03-29T09:24:32.999Z</time></trkpt><trkpt lat="46.050508090344934" lon="11.275970744544123"><ele>1111.0</ele><time>2026-03-29T09:24:33.999Z</time></trkpt><trkpt lat="46.050566119831544" lon="11.27589827234106"><ele>1111.0</ele><time>2026-03-29T09:24:34.999Z</time></trkpt><trkpt lat="46.05053418116426" lon="11.275748913409501"><ele>1111.0</ele><time>2026-03-29T09:24:36.999Z</time></trkpt><trkpt lat="46.05045600525563" lon="11.27568234190643"><ele>1111.0</ele><time>2026-03-29T09:24:37.999Z</time></trkpt><trkpt lat="46.0503681305424" lon="11.275594362054633"><ele>1111.0</ele><time>2026-03-29T09:24:38.999Z</time></trkpt><trkpt lat="46.05027579323477" lon="11.27549161793426"><ele>1101.0</ele><time>2026-03-29T09:24:39.999Z</time></trkpt><trkpt lat="46.05018592966306" lon="11.27540501564846"><ele>1091.0</ele><time>2026-03-29T09:24:40.999Z</time></trkpt><trkpt lat="46.05008504430332" lon="11.275363201702069"><ele>1081.0</ele><time>2026-03-29T09:24:41.999Z</time></trkpt><trkpt lat="46.04996654591805" lon="11.27537244076161"><ele>1071.0</ele><time>2026-03-29T09:24:42.999Z</time></trkpt><trkpt lat="46.04984579843776" lon="11.275431000188364"><ele>1069.25</ele><time>2026-03-29T09:24:43.999Z</time></trkpt><trkpt lat="46.04972307580435" lon="11.275519207879244"><ele>1067.5</ele><time>2026-03-29T09:24:44.999Z</time></trkpt><trkpt lat="46.04959080030822" lon="11.275610586040948"><ele>1065.75</ele><time>2026-03-29T09:24:45.999Z</time></trkpt><trkpt lat="46.04943283343435" lon="11.275636364330117"><ele>1064.0</ele><time>2026-03-29T09:24:46.999Z</time></trkpt><trkpt lat="46.04928929875774" lon="11.275677480098974"><ele>1065.0</ele><time>2026-03-29T09:24:47.999Z</time></trkpt><trkpt lat="46.04917147175197" lon="11.275727675629465"><ele>1066.0</ele><time>2026-03-29T09:24:49Z</time></trkpt><trkpt lat="46.04907313100906" lon="11.275806957185843"><ele>1067.0</ele><time>2026-03-29T09:24:50Z</time></trkpt><trkpt lat="46.048950199305175" lon="11.275914568979628"><ele>1068.0</ele><time>2026-03-29T09:24:51Z</time></trkpt><trkpt lat="46.04885081846493" lon="11.27598480827562"><ele>1068.0</ele><time>2026-03-29T09:24:52Z</time></trkpt><trkpt lat="46.048752066684436" lon="11.27604891289976"><ele>1068.0</ele><time>2026-03-29T09:24:53Z</time></trkpt><trkpt lat="46.04865070155621" lon="11.276075408999052"><ele>1068.0</ele><time>2026-03-29T09:24:54Z</time></trkpt><trkpt lat="46.04854799976197" lon="11.27610867845351"><ele>1068.0</ele><time>2026-03-29T09:24:55Z</time></trkpt><trkpt lat="46.0484491851969" lon="11.276141216119813"><ele>1068.0</ele><time>2026-03-29T09:24:56Z</time></trkpt><trkpt lat="46.048340111584295" lon="11.276174362216839"><ele>1066.2</ele><time>2026-03-29T09:24:57Z</time></trkpt><trkpt lat="46.0482340441787" lon="11.276202173115102"><ele>1064.4</ele><time>2026-03-29T09:24:58Z</time></trkpt><trkpt lat="46.04813565120143" lon="11.276217975172006"><ele>1062.6000000000001</ele><time>2026-03-29T09:24:59Z</time></trkpt><trkpt lat="46.04804055262917" lon="11.276219400845346"><ele>1060.8</ele><time>2026-03-29T09:25:00Z</time></trkpt><trkpt lat="46.04795058966847" lon="11.276212449348614"><ele>1059.0</ele><time>2026-03-29T09:25:01Z</time></trkpt><trkpt lat="46.04785839452315" lon="11.276195582945821"><ele>1059.0</ele><time>2026-03-29T09:25:02Z</time></trkpt><trkpt lat="46.04778387363911" lon="11.276148678540594"><ele>1059.0</ele><time>2026-03-29T09:25:03Z</time></trkpt><trkpt lat="46.04771313535877" lon="11.276109361062147"><ele>1059.0</ele><time>2026-03-29T09:25:04Z</time></trkpt><trkpt lat="46.0476493192088" lon="11.276073890898473"><ele>1059.0</ele><time>2026-03-29T09:25:05Z</time></trkpt><trkpt lat="46.047560082646704" lon="11.2760404072224"><ele>1059.0</ele><time>2026-03-29T09:25:07Z</time></trkpt><trkpt lat="46.047497743482786" lon="11.276008211623523"><ele>1059.0</ele><time>2026-03-29T09:25:09Z</time></trkpt><trkpt lat="46.0474353308866" lon="11.275952998064025"><ele>1056.8333333333333</ele><time>2026-03-29T09:26:07.999Z</time></trkpt><trkpt lat="46.047371769554964" lon="11.27595293587932"><ele>1054.6666666666667</ele><time>2026-03-29T09:26:10.999Z</time></trkpt><trkpt lat="46.04730869231238" lon="11.27597049416005"><ele>1052.5</ele><time>2026-03-29T09:26:14.999Z</time></trkpt><trkpt lat="46.04724997686243" lon="11.276013084176384"><ele>1050.3333333333335</ele><time>2026-03-29T09:26:46.999Z</time></trkpt><trkpt lat="46.04718833086446" lon="11.276058999049788"><ele>1048.1666666666667</ele><time>2026-03-29T09:26:48.999Z</time></trkpt><trkpt lat="46.04706706953031" lon="11.2761422790528"><ele>1046.0</ele><time>2026-03-29T09:26:50.999Z</time></trkpt><trkpt lat="46.04698219386481" lon="11.27621278676197"><ele>1046.0</ele><time>2026-03-29T09:26:51.999Z</time></trkpt><trkpt lat="46.04689528492934" lon="11.276301483252508"><ele>1046.0</ele><time>2026-03-29T09:26:52.999Z</time></trkpt><trkpt lat="46.04679886343069" lon="11.276409030451408"><ele>1046.0</ele><time>2026-03-29T09:26:53.999Z</time></trkpt><trkpt lat="46.04669052151668" lon="11.276522558115646"><ele>1046.0</ele><time>2026-03-29T09:26:55Z</time></trkpt><trkpt lat="46.04658973722001" lon="11.276603525908374"><ele>1044.3999999999999</ele><time>2026-03-29T09:26:56Z</time></trkpt><trkpt lat="46.046494801022206" lon="11.27667509221179"><ele>1042.8</ele><time>2026-03-29T09:26:57Z</time></trkpt><trkpt lat="46.04640393197325" lon="11.276718267705043"><ele>1041.1999999999998</ele><time>2026-03-29T09:26:58Z</time></trkpt><trkpt lat="46.046310241220176" lon="11.276686980315613"><ele>1039.6</ele><time>2026-03-29T09:26:59Z</time></trkpt><trkpt lat="46.04621185590961" lon="11.276671400770777"><ele>1038.0</ele><time>2026-03-29T09:27:00Z</time></trkpt><trkpt lat="46.046114177691" lon="11.276671400766723"><ele>1038.0</ele><time>2026-03-29T09:27:01Z</time></trkpt><trkpt lat="46.046029377727244" lon="11.276738381778435"><ele>1038.0</ele><time>2026-03-29T09:27:02Z</time></trkpt><trkpt lat="46.04595026463918" lon="11.276818601289305"><ele>1038.0</ele><time>2026-03-29T09:27:03Z</time></trkpt><trkpt lat="46.045863035205265" lon="11.2769278083267"><ele>1038.0</ele><time>2026-03-29T09:27:04Z</time></trkpt><trkpt lat="46.04577083455206" lon="11.277055384639137"><ele>1038.0</ele><time>2026-03-29T09:27:05Z</time></trkpt><trkpt lat="46.04567400203206" lon="11.277183872913993"><ele>1034.6666666666667</ele><time>2026-03-29T09:27:06Z</time></trkpt><trkpt lat="46.04556511385149" lon="11.277317974979908"><ele>1031.3333333333335</ele><time>2026-03-29T09:27:07Z</time></trkpt><trkpt lat="46.04545006389187" lon="11.277462430748761"><ele>1028.0</ele><time>2026-03-29T09:27:08Z</time></trkpt><trkpt lat="46.04532757921394" lon="11.277610241364341"><ele>1028.0</ele><time>2026-03-29T09:27:09Z</time></trkpt><trkpt lat="46.04522479610366" lon="11.277747492404806"><ele>1028.0</ele><time>2026-03-29T09:27:10Z</time></trkpt><trkpt lat="46.04512035895724" lon="11.27789639331191"><ele>1028.0</ele><time>2026-03-29T09:27:11Z</time></trkpt><trkpt lat="46.044990254955735" lon="11.277998385400092"><ele>1028.0</ele><time>2026-03-29T09:27:12Z</time></trkpt><trkpt lat="46.044881986875204" lon="11.278130528219732"><ele>1024.5</ele><time>2026-03-29T09:27:13Z</time></trkpt><trkpt lat="46.04477559459493" lon="11.278241812859022"><ele>1021.0</ele><time>2026-03-29T09:27:14Z</time></trkpt><trkpt lat="46.04467307446976" lon="11.278350005117076"><ele>1017.5</ele><time>2026-03-29T09:27:15Z</time></trkpt><trkpt lat="46.044571258439014" lon="11.278460986014492"><ele>1014.0</ele><time>2026-03-29T09:27:16Z</time></trkpt><trkpt lat="46.04446452615753" lon="11.278576625113624"><ele>1014.0</ele><time>2026-03-29T09:27:17Z</time></trkpt><trkpt lat="46.04435799861881" lon="11.278710258504915"><ele>1014.0</ele><time>2026-03-29T09:27:18Z</time></trkpt><trkpt lat="46.04426068894051" lon="11.278863130953779"><ele>1014.0</ele><time>2026-03-29T09:27:19Z</time></trkpt><trkpt lat="46.04416544617359" lon="11.279014297402872"><ele>1014.0</ele><time>2026-03-29T09:27:20Z</time></trkpt><trkpt lat="46.044050346617276" lon="11.279113825561756"><ele>1011.6</ele><time>2026-03-29T09:27:21Z</time></trkpt><trkpt lat="46.043947672169935" lon="11.279224523323016"><ele>1009.2</ele><time>2026-03-29T09:27:22Z</time></trkpt><trkpt lat="46.04387557793317" lon="11.279345091246308"><ele>1006.8000000000001</ele><time>2026-03-29T09:27:23Z</time></trkpt><trkpt lat="46.04381748624893" lon="11.279445073035207"><ele>1004.4000000000001</ele><time>2026-03-29T09:27:24Z</time></trkpt><trkpt lat="46.04378648377269" lon="11.27957306819313"><ele>1002.0</ele><time>2026-03-29T09:27:25Z</time></trkpt><trkpt lat="46.043773091403374" lon="11.279723476337915"><ele>1004.0</ele><time>2026-03-29T09:27:26Z</time></trkpt><trkpt lat="46.04375023187786" lon="11.279888389765832"><ele>1006.0</ele><time>2026-03-29T09:27:27Z</time></trkpt><trkpt lat="46.04370599168831" lon="11.280015613264812"><ele>1008.0</ele><time>2026-03-29T09:27:28Z</time></trkpt><trkpt lat="46.04363278646456" lon="11.280114230027387"><ele>1010.0</ele><time>2026-03-29T09:27:29Z</time></trkpt><trkpt lat="46.043565309079256" lon="11.280238371684485"><ele>1012.0</ele><time>2026-03-29T09:27:30Z</time></trkpt><trkpt lat="46.04350346748491" lon="11.280338393867101"><ele>1012.0</ele><time>2026-03-29T09:27:31Z</time></trkpt><trkpt lat="46.04343311164856" lon="11.280408666271434"><ele>1012.0</ele><time>2026-03-29T09:27:32Z</time></trkpt><trkpt lat="46.043354389156036" lon="11.280448990022817"><ele>1012.0</ele><time>2026-03-29T09:27:33Z</time></trkpt><trkpt lat="46.04325776902864" lon="11.28049725907419"><ele>1012.0</ele><time>2026-03-29T09:27:34Z</time></trkpt><trkpt lat="46.043162343252135" lon="11.28056745360767"><ele>1012.0</ele><time>2026-03-29T09:27:35Z</time></trkpt><trkpt lat="46.04307848471423" lon="11.28064257842772"><ele>1007.25</ele><time>2026-03-29T09:27:36Z</time></trkpt><trkpt lat="46.04300699988515" lon="11.280754443403216"><ele>1002.5</ele><time>2026-03-29T09:27:37Z</time></trkpt><trkpt lat="46.04292723600629" lon="11.280868288398972"><ele>997.75</ele><time>2026-03-29T09:27:38Z</time></trkpt><trkpt lat="46.04286176064022" lon="11.281006149281511"><ele>993.0</ele><time>2026-03-29T09:27:39Z</time></trkpt><trkpt lat="46.04281053687488" lon="11.281156414972921"><ele>993.0</ele><time>2026-03-29T09:27:40Z</time></trkpt><trkpt lat="46.0427846358791" lon="11.281327635619444"><ele>993.0</ele><time>2026-03-29T09:27:41Z</time></trkpt><trkpt lat="46.04276959974859" lon="11.281507874737258"><ele>993.0</ele><time>2026-03-29T09:27:42Z</time></trkpt><trkpt lat="46.04271610474534" lon="11.281681503385425"><ele>993.0</ele><time>2026-03-29T09:27:43Z</time></trkpt><trkpt lat="46.042649041632636" lon="11.281860867449014"><ele>998.75</ele><time>2026-03-29T09:27:44Z</time></trkpt><trkpt lat="46.04258588507384" lon="11.282038160832203"><ele>1004.5</ele><time>2026-03-29T09:27:45Z</time></trkpt><trkpt lat="46.042541406164055" lon="11.28220694730782"><ele>1010.25</ele><time>2026-03-29T09:27:46Z</time></trkpt><trkpt lat="46.042529388852486" lon="11.282362297754963"><ele>1016.0</ele><time>2026-03-29T09:27:47Z</time></trkpt><trkpt lat="46.04251286324592" lon="11.282497765469238"><ele>1018.0000000000001</ele><time>2026-03-29T09:27:48Z</time></trkpt><trkpt lat="46.04250492384416" lon="11.282616139402942"><ele>1020.0</ele><time>2026-03-29T09:27:49Z</time></trkpt><trkpt lat="46.04247201108429" lon="11.282707510959758"><ele>1022.0</ele><time>2026-03-29T09:27:50Z</time></trkpt><trkpt lat="46.04242276775915" lon="11.282795119259909"><ele>1024.0</ele><time>2026-03-29T09:27:52Z</time></trkpt><trkpt lat="46.04237751166725" lon="11.282726034292217"><ele>1026.0</ele><time>2026-03-29T09:27:54Z</time></trkpt><trkpt lat="46.04240630137437" lon="11.28254611454519"><ele>1028.0</ele><time>2026-03-29T09:27:56Z</time></trkpt><trkpt lat="46.042447311054715" lon="11.282426267061739"><ele>1028.0</ele><time>2026-03-29T09:27:57Z</time></trkpt><trkpt lat="46.042468553552" lon="11.282304586077428"><ele>1028.0</ele><time>2026-03-29T09:27:58Z</time></trkpt><trkpt lat="46.042478911922835" lon="11.282157274823586"><ele>1028.0</ele><time>2026-03-29T09:27:59Z</time></trkpt><trkpt lat="46.04249202310382" lon="11.281998172386846"><ele>1028.0</ele><time>2026-03-29T09:28:00Z</time></trkpt><trkpt lat="46.042503426494314" lon="11.281800973378274"><ele>1028.0</ele><time>2026-03-29T09:28:01Z</time></trkpt><trkpt lat="46.04251680734758" lon="11.281595025555907"><ele>1016.3333333333334</ele><time>2026-03-29T09:28:02Z</time></trkpt><trkpt lat="46.04251585241661" lon="11.281363097955365"><ele>1004.6666666666667</ele><time>2026-03-29T09:28:03Z</time></trkpt><trkpt lat="46.042506548074684" lon="11.281135025455878"><ele>993.0</ele><time>2026-03-29T09:28:04Z</time></trkpt><trkpt lat="46.04248941433713" lon="11.280932135454384"><ele>993.0</ele><time>2026-03-29T09:28:05Z</time></trkpt><trkpt lat="46.04247483384807" lon="11.280726809103287"><ele>993.0</ele><time>2026-03-29T09:28:06Z</time></trkpt><trkpt lat="46.04246215402322" lon="11.280542770065933"><ele>993.0</ele><time>2026-03-29T09:28:07Z</time></trkpt><trkpt lat="46.04245080656473" lon="11.28038793458607"><ele>993.0</ele><time>2026-03-29T09:28:08Z</time></trkpt><trkpt lat="46.04245352124963" lon="11.2802384676491"><ele>991.0</ele><time>2026-03-29T09:28:09Z</time></trkpt><trkpt lat="46.042523957109154" lon="11.280097828845667"><ele>989.0</ele><time>2026-03-29T09:28:10Z</time></trkpt><trkpt lat="46.04258495078195" lon="11.279912133849772"><ele>987.0</ele><time>2026-03-29T09:28:11Z</time></trkpt><trkpt lat="46.0426554820794" lon="11.279709714261909"><ele>985.0</ele><time>2026-03-29T09:28:12Z</time></trkpt><trkpt lat="46.0427126809393" lon="11.279502192661859"><ele>983.0</ele><time>2026-03-29T09:28:13Z</time></trkpt><trkpt lat="46.042780814781324" lon="11.279322245958173"><ele>981.0</ele><time>2026-03-29T09:28:14Z</time></trkpt><trkpt lat="46.04287463522212" lon="11.279167273305864"><ele>979.0</ele><time>2026-03-29T09:28:15Z</time></trkpt><trkpt lat="46.0429657975341" lon="11.278987530725901"><ele>977.0</ele><time>2026-03-29T09:28:16Z</time></trkpt><trkpt lat="46.04305330541519" lon="11.27880136204471"><ele>978.5</ele><time>2026-03-29T09:28:17Z</time></trkpt><trkpt lat="46.043129958927075" lon="11.278622140712278"><ele>980.0</ele><time>2026-03-29T09:28:18Z</time></trkpt><trkpt lat="46.04320242017407" lon="11.278447327333469"><ele>981.5</ele><time>2026-03-29T09:28:19Z</time></trkpt><trkpt lat="46.043277688586635" lon="11.278273734088797"><ele>983.0</ele><time>2026-03-29T09:28:19.999Z</time></trkpt><trkpt lat="46.04334810799501" lon="11.278111324049076"><ele>977.75</ele><time>2026-03-29T09:28:20.999Z</time></trkpt><trkpt lat="46.043398643278834" lon="11.277958006481299"><ele>972.5</ele><time>2026-03-29T09:28:21.999Z</time></trkpt><trkpt lat="46.043410066972775" lon="11.277793134970635"><ele>967.25</ele><time>2026-03-29T09:28:22.999Z</time></trkpt><trkpt lat="46.04341604352273" lon="11.277644182193274"><ele>962.0</ele><time>2026-03-29T09:28:23.999Z</time></trkpt><trkpt lat="46.04340990234572" lon="11.27747564151114"><ele>962.0</ele><time>2026-03-29T09:28:24.999Z</time></trkpt><trkpt lat="46.04340804182079" lon="11.277291278121096"><ele>962.0</ele><time>2026-03-29T09:28:25.999Z</time></trkpt><trkpt lat="46.04341995789683" lon="11.277108568911737"><ele>962.0</ele><time>2026-03-29T09:28:26.999Z</time></trkpt><trkpt lat="46.043439822525436" lon="11.276940063131203"><ele>962.0</ele><time>2026-03-29T09:28:27.999Z</time></trkpt><trkpt lat="46.04350454103385" lon="11.276789426526117"><ele>959.25</ele><time>2026-03-29T09:28:28.999Z</time></trkpt><trkpt lat="46.0435551737638" lon="11.276607434022434"><ele>956.5</ele><time>2026-03-29T09:28:29.999Z</time></trkpt><trkpt lat="46.04362458095062" lon="11.27643041906294"><ele>953.75</ele><time>2026-03-29T09:28:30.999Z</time></trkpt><trkpt lat="46.043710413730075" lon="11.276256938879081"><ele>951.0</ele><time>2026-03-29T09:28:31.999Z</time></trkpt><trkpt lat="46.043784495628906" lon="11.276087349022724"><ele>953.0</ele><time>2026-03-29T09:28:32.999Z</time></trkpt><trkpt lat="46.0438254658601" lon="11.275920643316411"><ele>954.9999999999999</ele><time>2026-03-29T09:28:33.999Z</time></trkpt><trkpt lat="46.04388104746419" lon="11.275796538315683"><ele>956.9999999999999</ele><time>2026-03-29T09:28:34.999Z</time></trkpt><trkpt lat="46.04397689747064" lon="11.27578199036858"><ele>959.0</ele><time>2026-03-29T09:28:35.999Z</time></trkpt><trkpt lat="46.044069128043226" lon="11.27571779684543"><ele>961.0</ele><time>2026-03-29T09:28:36.999Z</time></trkpt><trkpt lat="46.044180767389975" lon="11.27563140214294"><ele>954.25</ele><time>2026-03-29T09:28:37.999Z</time></trkpt><trkpt lat="46.04428913906844" lon="11.275516209987266"><ele>947.5</ele><time>2026-03-29T09:28:38.999Z</time></trkpt><trkpt lat="46.04439219519658" lon="11.275385261520656"><ele>940.75</ele><time>2026-03-29T09:28:39.999Z</time></trkpt><trkpt lat="46.044504317495715" lon="11.275243752335214"><ele>934.0</ele><time>2026-03-29T09:28:40.999Z</time></trkpt><trkpt lat="46.04462292868265" lon="11.275100568631448"><ele>934.0</ele><time>2026-03-29T09:28:41.999Z</time></trkpt><trkpt lat="46.04473879749967" lon="11.274962974730457"><ele>934.0</ele><time>2026-03-29T09:28:42.999Z</time></trkpt><trkpt lat="46.044816146196254" lon="11.274788207814716"><ele>934.0</ele><time>2026-03-29T09:28:43.999Z</time></trkpt><trkpt lat="46.04489740738767" lon="11.274617739078352"><ele>934.0</ele><time>2026-03-29T09:28:44.999Z</time></trkpt><trkpt lat="46.044991532835404" lon="11.274417471094917"><ele>933.75</ele><time>2026-03-29T09:28:45.999Z</time></trkpt><trkpt lat="46.045079716725446" lon="11.27423738726696"><ele>933.5</ele><time>2026-03-29T09:28:46.999Z</time></trkpt><trkpt lat="46.04516692693306" lon="11.274084936987398"><ele>933.25</ele><time>2026-03-29T09:28:47.999Z</time></trkpt><trkpt lat="46.045236689317726" lon="11.273952944676115"><ele>933.0</ele><time>2026-03-29T09:28:48.999Z</time></trkpt><trkpt lat="46.04530104497072" lon="11.273866380295757"><ele>932.2</ele><time>2026-03-29T09:28:49.999Z</time></trkpt><trkpt lat="46.04536168214143" lon="11.273783265406976"><ele>931.4</ele><time>2026-03-29T09:28:50.999Z</time></trkpt><trkpt lat="46.04546277455337" lon="11.273826489335395"><ele>930.6000000000001</ele><time>2026-03-29T09:28:51.999Z</time></trkpt><trkpt lat="46.04558503452174" lon="11.273798510082624"><ele>929.8000000000001</ele><time>2026-03-29T09:28:52.999Z</time></trkpt><trkpt lat="46.045698374106486" lon="11.273705933400212"><ele>929.0</ele><time>2026-03-29T09:28:53.999Z</time></trkpt><trkpt lat="46.0458237524194" lon="11.273588641568987"><ele>929.0</ele><time>2026-03-29T09:28:54.999Z</time></trkpt><trkpt lat="46.045949880707575" lon="11.273441664643562"><ele>929.0</ele><time>2026-03-29T09:28:55.999Z</time></trkpt><trkpt lat="46.04608440575984" lon="11.273297353954202"><ele>929.0</ele><time>2026-03-29T09:28:56.999Z</time></trkpt><trkpt lat="46.04621366932296" lon="11.273125338431653"><ele>916.6666666666667</ele><time>2026-03-29T09:28:57.999Z</time></trkpt><trkpt lat="46.04634396819681" lon="11.272970975314811"><ele>904.3333333333333</ele><time>2026-03-29T09:28:58.999Z</time></trkpt><trkpt lat="46.04647339743264" lon="11.272844685165333"><ele>892.0</ele><time>2026-03-29T09:29:00Z</time></trkpt><trkpt lat="46.046597793520924" lon="11.272741280717407"><ele>897.75</ele><time>2026-03-29T09:29:01Z</time></trkpt><trkpt lat="46.04673205477652" lon="11.272656131611381"><ele>903.5</ele><time>2026-03-29T09:29:02Z</time></trkpt><trkpt lat="46.046844688011014" lon="11.27256425226108"><ele>909.25</ele><time>2026-03-29T09:29:03Z</time></trkpt><trkpt lat="46.04694562605374" lon="11.272504930772149"><ele>915.0</ele><time>2026-03-29T09:29:04Z</time></trkpt><trkpt lat="46.04705082057004" lon="11.27252702737673"><ele>915.0</ele><time>2026-03-29T09:29:05Z</time></trkpt><trkpt lat="46.047126673497175" lon="11.272503493817588"><ele>915.0</ele><time>2026-03-29T09:29:06Z</time></trkpt><trkpt lat="46.047224469612615" lon="11.272414753718522"><ele>915.0</ele><time>2026-03-29T09:29:08Z</time></trkpt><trkpt lat="46.04720139154944" lon="11.272291619763323"><ele>915.0</ele><time>2026-03-29T09:29:09Z</time></trkpt><trkpt lat="46.047075781476636" lon="11.272238310572066"><ele>915.0</ele><time>2026-03-29T09:29:11Z</time></trkpt><trkpt lat="46.04698537405784" lon="11.272295608710287"><ele>915.0</ele><time>2026-03-29T09:29:12Z</time></trkpt><trkpt lat="46.046867081404855" lon="11.272349610016933"><ele>915.0</ele><time>2026-03-29T09:29:13Z</time></trkpt><trkpt lat="46.04673756433229" lon="11.272424692000419"><ele>915.0</ele><time>2026-03-29T09:29:14Z</time></trkpt><trkpt lat="46.046601538866014" lon="11.272524373031734"><ele>915.0</ele><time>2026-03-29T09:29:15Z</time></trkpt><trkpt lat="46.04646650131572" lon="11.272558905677384"><ele>909.25</ele><time>2026-03-29T09:29:16Z</time></trkpt><trkpt lat="46.04633950237288" lon="11.272591382199815"><ele>903.5</ele><time>2026-03-29T09:29:17Z</time></trkpt><trkpt lat="46.04622645375811" lon="11.2726440313568"><ele>897.75</ele><time>2026-03-29T09:29:18Z</time></trkpt><trkpt lat="46.046142198226704" lon="11.272741053699718"><ele>892.0</ele><time>2026-03-29T09:29:19Z</time></trkpt><trkpt lat="46.04606170435292" lon="11.272841547236661"><ele>892.0</ele><time>2026-03-29T09:29:20Z</time></trkpt><trkpt lat="46.045951276356355" lon="11.272905258971605"><ele>892.0</ele><time>2026-03-29T09:29:21Z</time></trkpt><trkpt lat="46.04584849911913" lon="11.272969227496265"><ele>892.0</ele><time>2026-03-29T09:29:22Z</time></trkpt><trkpt lat="46.04572802032194" lon="11.272970485421608"><ele>892.0</ele><time>2026-03-29T09:29:23Z</time></trkpt><trkpt lat="46.04560365766489" lon="11.273007870584921"><ele>893.25</ele><time>2026-03-29T09:29:24Z</time></trkpt><trkpt lat="46.04548217995702" lon="11.27304110741018"><ele>894.5</ele><time>2026-03-29T09:29:25Z</time></trkpt><trkpt lat="46.04535097593268" lon="11.273043182892032"><ele>895.75</ele><time>2026-03-29T09:29:26Z</time></trkpt><trkpt lat="46.04524288913788" lon="11.273107702487113"><ele>897.0</ele><time>2026-03-29T09:29:27Z</time></trkpt><trkpt lat="46.045128974628206" lon="11.27317237129444"><ele>897.0</ele><time>2026-03-29T09:29:28Z</time></trkpt><trkpt lat="46.045019965159405" lon="11.273261066725503"><ele>897.0</ele><time>2026-03-29T09:29:29Z</time></trkpt><trkpt lat="46.044906969269825" lon="11.273379194261189"><ele>897.0</ele><time>2026-03-29T09:29:30Z</time></trkpt><trkpt lat="46.04480652544334" lon="11.273492679099538"><ele>897.0</ele><time>2026-03-29T09:29:31Z</time></trkpt><trkpt lat="46.04471565383161" lon="11.27358424838488"><ele>898.0</ele><time>2026-03-29T09:29:32Z</time></trkpt><trkpt lat="46.04461398411131" lon="11.273603868988612"><ele>899.0</ele><time>2026-03-29T09:29:33Z</time></trkpt><trkpt lat="46.044524299711014" lon="11.2736598313332"><ele>900.0</ele><time>2026-03-29T09:29:34Z</time></trkpt><trkpt lat="46.04444352566472" lon="11.273726907493147"><ele>901.0</ele><time>2026-03-29T09:29:35Z</time></trkpt><trkpt lat="46.04436381989072" lon="11.27382291448356"><ele>902.0</ele><time>2026-03-29T09:29:36Z</time></trkpt><trkpt lat="46.04430366878445" lon="11.273958439718529"><ele>902.0</ele><time>2026-03-29T09:29:37Z</time></trkpt><trkpt lat="46.044245900310834" lon="11.274063340176296"><ele>902.0</ele><time>2026-03-29T09:29:38Z</time></trkpt><trkpt lat="46.04416909023521" lon="11.27411832458659"><ele>902.0</ele><time>2026-03-29T09:29:39Z</time></trkpt><trkpt lat="46.04406572244219" lon="11.274079023741976"><ele>902.0</ele><time>2026-03-29T09:29:40Z</time></trkpt><trkpt lat="46.04396799641437" lon="11.274128825067757"><ele>902.0</ele><time>2026-03-29T09:29:41Z</time></trkpt><trkpt lat="46.04386588906245" lon="11.274196759434025"><ele>903.8</ele><time>2026-03-29T09:29:42Z</time></trkpt><trkpt lat="46.04376981300683" lon="11.274269592322849"><ele>905.6</ele><time>2026-03-29T09:29:43Z</time></trkpt><trkpt lat="46.043694912649634" lon="11.274371742152171"><ele>907.3999999999999</ele><time>2026-03-29T09:29:44Z</time></trkpt><trkpt lat="46.04362201740765" lon="11.274482630656426"><ele>909.1999999999999</ele><time>2026-03-29T09:29:45Z</time></trkpt><trkpt lat="46.04354878656969" lon="11.274606715807208"><ele>911.0</ele><time>2026-03-29T09:29:46Z</time></trkpt><trkpt lat="46.043488687667995" lon="11.274710618377501"><ele>911.0000000000001</ele><time>2026-03-29T09:29:47Z</time></trkpt><trkpt lat="46.04343808334329" lon="11.274791436825963"><ele>911.0</ele><time>2026-03-29T09:29:48Z</time></trkpt><trkpt lat="46.043352492982415" lon="11.27482591770287"><ele>911.0</ele><time>2026-03-29T09:29:50Z</time></trkpt><trkpt lat="46.04330890738961" lon="11.274705622238926"><ele>911.0</ele><time>2026-03-29T09:29:52Z</time></trkpt><trkpt lat="46.04331890594841" lon="11.274590673107335"><ele>911.0000000000001</ele><time>2026-03-29T09:29:53Z</time></trkpt><trkpt lat="46.04337261437614" lon="11.27445897515862"><ele>911.0</ele><time>2026-03-29T09:29:54Z</time></trkpt><trkpt lat="46.04339256013392" lon="11.274283085857082"><ele>911.0</ele><time>2026-03-29T09:29:55Z</time></trkpt><trkpt lat="46.043436139347314" lon="11.274094313637683"><ele>911.0</ele><time>2026-03-29T09:29:56Z</time></trkpt><trkpt lat="46.043478687398355" lon="11.273875205428205"><ele>911.0</ele><time>2026-03-29T09:29:57Z</time></trkpt><trkpt lat="46.04353659333875" lon="11.27365856617127"><ele>912.0</ele><time>2026-03-29T09:29:58Z</time></trkpt><trkpt lat="46.04356372734337" lon="11.273448754446568"><ele>913.0</ele><time>2026-03-29T09:29:59Z</time></trkpt><trkpt lat="46.043606659707756" lon="11.273257885855195"><ele>914.0</ele><time>2026-03-29T09:30:00Z</time></trkpt><trkpt lat="46.04366357128134" lon="11.273097797255232"><ele>915.0</ele><time>2026-03-29T09:30:01Z</time></trkpt><trkpt lat="46.0437198786739" lon="11.272916099963803"><ele>917.25</ele><time>2026-03-29T09:30:02Z</time></trkpt><trkpt lat="46.04377671671074" lon="11.272752376186322"><ele>919.5</ele><time>2026-03-29T09:30:03Z</time></trkpt><trkpt lat="46.04384357372422" lon="11.272607959770216"><ele>921.75</ele><time>2026-03-29T09:30:04Z</time></trkpt><trkpt lat="46.043910901045436" lon="11.272465482579014"><ele>924.0</ele><time>2026-03-29T09:30:05Z</time></trkpt><trkpt lat="46.0439789191029" lon="11.272281842555065"><ele>926.75</ele><time>2026-03-29T09:30:06Z</time></trkpt><trkpt lat="46.04400622467899" lon="11.272157530697442"><ele>929.5</ele><time>2026-03-29T09:30:07Z</time></trkpt><trkpt lat="46.04402637471721" lon="11.271978822546915"><ele>932.25</ele><time>2026-03-29T09:30:08Z</time></trkpt><trkpt lat="46.044052773608435" lon="11.271793134840516"><ele>935.0</ele><time>2026-03-29T09:30:09Z</time></trkpt><trkpt lat="46.04411558058112" lon="11.271618030110954"><ele>919.5</ele><time>2026-03-29T09:30:10Z</time></trkpt><trkpt lat="46.04418006001114" lon="11.271419328980675"><ele>904.0</ele><time>2026-03-29T09:30:11Z</time></trkpt><trkpt lat="46.04420805190263" lon="11.271221566759486"><ele>888.5</ele><time>2026-03-29T09:30:12Z</time></trkpt><trkpt lat="46.04422712596294" lon="11.271024227384059"><ele>873.0</ele><time>2026-03-29T09:30:13Z</time></trkpt><trkpt lat="46.04423457764641" lon="11.270825716262776"><ele>873.0</ele><time>2026-03-29T09:30:14Z</time></trkpt><trkpt lat="46.044256843097614" lon="11.270650420825461"><ele>873.0</ele><time>2026-03-29T09:30:15Z</time></trkpt><trkpt lat="46.04423378686155" lon="11.270464654279479"><ele>873.0</ele><time>2026-03-29T09:30:16Z</time></trkpt><trkpt lat="46.04421287617589" lon="11.270255688329744"><ele>873.0</ele><time>2026-03-29T09:30:17Z</time></trkpt><trkpt lat="46.044171472123885" lon="11.270043475046187"><ele>871.75</ele><time>2026-03-29T09:30:18Z</time></trkpt><trkpt lat="46.0441572640209" lon="11.26985003210397"><ele>870.5</ele><time>2026-03-29T09:30:19Z</time></trkpt><trkpt lat="46.04413962843555" lon="11.269667115006255"><ele>869.25</ele><time>2026-03-29T09:30:20Z</time></trkpt><trkpt lat="46.04416953067954" lon="11.269481552217156"><ele>868.0</ele><time>2026-03-29T09:30:21Z</time></trkpt><trkpt lat="46.04419541132229" lon="11.269266630279335"><ele>867.3333333333333</ele><time>2026-03-29T09:30:22Z</time></trkpt><trkpt lat="46.04422815117126" lon="11.269043243822738"><ele>866.6666666666667</ele><time>2026-03-29T09:30:23Z</time></trkpt><trkpt lat="46.04425396277149" lon="11.268814507257497"><ele>866.0</ele><time>2026-03-29T09:30:24Z</time></trkpt><trkpt lat="46.04430023206271" lon="11.26860536936081"><ele>868.25</ele><time>2026-03-29T09:30:25Z</time></trkpt><trkpt lat="46.044344175750986" lon="11.268398335959162"><ele>870.5</ele><time>2026-03-29T09:30:26Z</time></trkpt><trkpt lat="46.04437765792788" lon="11.26821830832596"><ele>872.75</ele><time>2026-03-29T09:30:27Z</time></trkpt><trkpt lat="46.04438356078033" lon="11.268039614677514"><ele>875.0</ele><time>2026-03-29T09:30:28Z</time></trkpt><trkpt lat="46.04439327719277" lon="11.26786965288279"><ele>876.0</ele><time>2026-03-29T09:30:29Z</time></trkpt><trkpt lat="46.044394503192784" lon="11.267702014668219"><ele>877.0</ele><time>2026-03-29T09:30:30Z</time></trkpt><trkpt lat="46.04446484655189" lon="11.267595307906891"><ele>878.0</ele><time>2026-03-29T09:30:31Z</time></trkpt><trkpt lat="46.044509271662356" lon="11.26744539102532"><ele>879.0</ele><time>2026-03-29T09:30:32Z</time></trkpt><trkpt lat="46.04451824372092" lon="11.26729499081082"><ele>880.0</ele><time>2026-03-29T09:30:32.999Z</time></trkpt><trkpt lat="46.04453485935423" lon="11.267161406910539"><ele>880.6</ele><time>2026-03-29T09:30:33.999Z</time></trkpt><trkpt lat="46.044533178238524" lon="11.266998708361406"><ele>881.2</ele><time>2026-03-29T09:30:34.999Z</time></trkpt><trkpt lat="46.04452077399257" lon="11.266817878151842"><ele>881.8</ele><time>2026-03-29T09:30:35.999Z</time></trkpt><trkpt lat="46.044542733730474" lon="11.266660545871718"><ele>882.4</ele><time>2026-03-29T09:30:36.999Z</time></trkpt><trkpt lat="46.04458639214001" lon="11.266542324898605"><ele>883.0</ele><time>2026-03-29T09:30:37.999Z</time></trkpt><trkpt lat="46.044615526268785" lon="11.266415182226579"><ele>880.5999999999999</ele><time>2026-03-29T09:30:38.999Z</time></trkpt><trkpt lat="46.04464843562243" lon="11.26627658536252"><ele>878.1999999999999</ele><time>2026-03-29T09:30:39.999Z</time></trkpt><trkpt lat="46.04468389193039" lon="11.26613587347305"><ele>875.8</ele><time>2026-03-29T09:30:40.999Z</time></trkpt><trkpt lat="46.0447038509297" lon="11.265986360576532"><ele>873.4</ele><time>2026-03-29T09:30:41.999Z</time></trkpt><trkpt lat="46.0447222633721" lon="11.265888626817222"><ele>871.0</ele><time>2026-03-29T09:30:42.999Z</time></trkpt><trkpt lat="46.04471712359119" lon="11.265790279593377"><ele>871.0</ele><time>2026-03-29T09:30:43.999Z</time></trkpt><trkpt lat="46.04464896605543" lon="11.265683008140742"><ele>870.9999999999999</ele><time>2026-03-29T09:30:44.999Z</time></trkpt><trkpt lat="46.04458214476666" lon="11.265575501154656"><ele>870.9999999999999</ele><time>2026-03-29T09:30:45.999Z</time></trkpt><trkpt lat="46.04449918770956" lon="11.26546533516809"><ele>871.0</ele><time>2026-03-29T09:30:46.999Z</time></trkpt><trkpt lat="46.044408000495494" lon="11.26536247040642"><ele>871.0</ele><time>2026-03-29T09:30:47.999Z</time></trkpt><trkpt lat="46.044266393532794" lon="11.26524255385345"><ele>872.3333333333333</ele><time>2026-03-29T09:30:48.999Z</time></trkpt><trkpt lat="46.04412363599506" lon="11.26514299665559"><ele>873.6666666666667</ele><time>2026-03-29T09:30:49.999Z</time></trkpt><trkpt lat="46.04399080213861" lon="11.265022748455268"><ele>875.0</ele><time>2026-03-29T09:30:50.999Z</time></trkpt><trkpt lat="46.04386444652848" lon="11.26490999955422"><ele>875.0</ele><time>2026-03-29T09:30:51.999Z</time></trkpt><trkpt lat="46.04374164637549" lon="11.264792359393644"><ele>875.0</ele><time>2026-03-29T09:30:52.999Z</time></trkpt><trkpt lat="46.043634069868794" lon="11.26468279725438"><ele>875.0</ele><time>2026-03-29T09:30:53.999Z</time></trkpt><trkpt lat="46.04352297725365" lon="11.264565775398053"><ele>875.0</ele><time>2026-03-29T09:30:54.999Z</time></trkpt><trkpt lat="46.0434097307903" lon="11.264469662961975"><ele>867.5</ele><time>2026-03-29T09:30:55.999Z</time></trkpt><trkpt lat="46.043287202291246" lon="11.26439507606391"><ele>860.0</ele><time>2026-03-29T09:30:56.999Z</time></trkpt><trkpt lat="46.043166997131145" lon="11.264326901539608"><ele>852.5</ele><time>2026-03-29T09:30:57.999Z</time></trkpt><trkpt lat="46.043024259845716" lon="11.264281919994787"><ele>845.0</ele><time>2026-03-29T09:30:58.999Z</time></trkpt><trkpt lat="46.04287791597463" lon="11.264227367536435"><ele>845.0</ele><time>2026-03-29T09:30:59.999Z</time></trkpt><trkpt lat="46.04273358941946" lon="11.264144457870293"><ele>845.0</ele><time>2026-03-29T09:31:00.999Z</time></trkpt><trkpt lat="46.04260244904235" lon="11.264078727770933"><ele>845.0</ele><time>2026-03-29T09:31:01.999Z</time></trkpt><trkpt lat="46.042478936077764" lon="11.263996167487685"><ele>845.0</ele><time>2026-03-29T09:31:02.999Z</time></trkpt><trkpt lat="46.042359483576355" lon="11.263904348686381"><ele>831.3333333333334</ele><time>2026-03-29T09:31:03.999Z</time></trkpt><trkpt lat="46.04224272210428" lon="11.263793061350075"><ele>817.6666666666667</ele><time>2026-03-29T09:31:04.999Z</time></trkpt><trkpt lat="46.04211884796761" lon="11.26367115416704"><ele>804.0</ele><time>2026-03-29T09:31:06Z</time></trkpt><trkpt lat="46.04198858544702" lon="11.263538383081942"><ele>804.0</ele><time>2026-03-29T09:31:07Z</time></trkpt><trkpt lat="46.04186208566585" lon="11.263413841916115"><ele>804.0</ele><time>2026-03-29T09:31:08Z</time></trkpt><trkpt lat="46.04175093867957" lon="11.263306763995262"><ele>804.0</ele><time>2026-03-29T09:31:09Z</time></trkpt><trkpt lat="46.04165456715763" lon="11.26321392079542"><ele>804.0</ele><time>2026-03-29T09:31:10Z</time></trkpt><trkpt lat="46.041585050275586" lon="11.263103666930144"><ele>800.2</ele><time>2026-03-29T09:31:11Z</time></trkpt><trkpt lat="46.04152332439789" lon="11.263029371787272"><ele>796.4000000000001</ele><time>2026-03-29T09:31:12Z</time></trkpt><trkpt lat="46.041456964994794" lon="11.26298631065895"><ele>792.6</ele><time>2026-03-29T09:31:13Z</time></trkpt><trkpt lat="46.041332544205304" lon="11.2630146005151"><ele>788.8</ele><time>2026-03-29T09:31:15Z</time></trkpt><trkpt lat="46.04124684180782" lon="11.263053335491033"><ele>785.0</ele><time>2026-03-29T09:31:16Z</time></trkpt><trkpt lat="46.04114260728149" lon="11.263133939135491"><ele>785.0</ele><time>2026-03-29T09:31:17Z</time></trkpt><trkpt lat="46.04103233913263" lon="11.263212434510944"><ele>785.0</ele><time>2026-03-29T09:31:18Z</time></trkpt><trkpt lat="46.040909799086975" lon="11.2632985957349"><ele>785.0</ele><time>2026-03-29T09:31:19Z</time></trkpt><trkpt lat="46.040791874670376" lon="11.263378126643326"><ele>785.0</ele><time>2026-03-29T09:31:20Z</time></trkpt><trkpt lat="46.040671716968674" lon="11.263462053995093"><ele>775.6666666666667</ele><time>2026-03-29T09:31:21Z</time></trkpt><trkpt lat="46.04053510288482" lon="11.263537053981834"><ele>766.3333333333334</ele><time>2026-03-29T09:31:22Z</time></trkpt><trkpt lat="46.040379687672676" lon="11.263586023625374"><ele>757.0</ele><time>2026-03-29T09:31:23Z</time></trkpt><trkpt lat="46.040232538477284" lon="11.26364184206783"><ele>757.0</ele><time>2026-03-29T09:31:24Z</time></trkpt><trkpt lat="46.040103641212134" lon="11.263688570992016"><ele>757.0</ele><time>2026-03-29T09:31:25Z</time></trkpt><trkpt lat="46.03996435999286" lon="11.263751613294769"><ele>757.0</ele><time>2026-03-29T09:31:26Z</time></trkpt><trkpt lat="46.03982532381894" lon="11.263800271369918"><ele>757.0</ele><time>2026-03-29T09:31:27Z</time></trkpt><trkpt lat="46.039677059365445" lon="11.263839536220459"><ele>754.0</ele><time>2026-03-29T09:31:28Z</time></trkpt><trkpt lat="46.0395326251667" lon="11.26383997698557"><ele>751.0</ele><time>2026-03-29T09:31:29Z</time></trkpt><trkpt lat="46.039376862136734" lon="11.263854922616549"><ele>748.0</ele><time>2026-03-29T09:31:30Z</time></trkpt><trkpt lat="46.03923535824768" lon="11.263861468882922"><ele>745.0</ele><time>2026-03-29T09:31:31Z</time></trkpt><trkpt lat="46.039087198113656" lon="11.263866086228166"><ele>742.5</ele><time>2026-03-29T09:31:32Z</time></trkpt><trkpt lat="46.03893915597463" lon="11.263887055123664"><ele>740.0</ele><time>2026-03-29T09:31:33Z</time></trkpt><trkpt lat="46.038810138998045" lon="11.263858680647761"><ele>737.5</ele><time>2026-03-29T09:31:34Z</time></trkpt><trkpt lat="46.038681235423105" lon="11.26384468011182"><ele>735.0</ele><time>2026-03-29T09:31:35Z</time></trkpt><trkpt lat="46.03856941513686" lon="11.263815918304557"><ele>735.0</ele><time>2026-03-29T09:31:36Z</time></trkpt><trkpt lat="46.03847084130309" lon="11.263780379523896"><ele>735.0</ele><time>2026-03-29T09:31:37Z</time></trkpt><trkpt lat="46.03838608591242" lon="11.263775537141527"><ele>735.0</ele><time>2026-03-29T09:31:38Z</time></trkpt><trkpt lat="46.03829604574774" lon="11.263802017550702"><ele>735.0</ele><time>2026-03-29T09:31:39Z</time></trkpt><trkpt lat="46.038194041818734" lon="11.263890594670777"><ele>735.0</ele><time>2026-03-29T09:31:40Z</time></trkpt><trkpt lat="46.03807839085308" lon="11.263987376421326"><ele>734.0</ele><time>2026-03-29T09:31:41Z</time></trkpt><trkpt lat="46.03796954383032" lon="11.26407078827556"><ele>733.0</ele><time>2026-03-29T09:31:42Z</time></trkpt><trkpt lat="46.03786719422709" lon="11.26414204309519"><ele>732.0</ele><time>2026-03-29T09:31:43Z</time></trkpt><trkpt lat="46.037774857978086" lon="11.264225498069795"><ele>731.0</ele><time>2026-03-29T09:31:44Z</time></trkpt><trkpt lat="46.03770706547391" lon="11.26435356403799"><ele>731.0</ele><time>2026-03-29T09:31:45Z</time></trkpt><trkpt lat="46.03765675087828" lon="11.264513774016933"><ele>731.0</ele><time>2026-03-29T09:31:46Z</time></trkpt><trkpt lat="46.03760727102448" lon="11.264702615591634"><ele>731.0</ele><time>2026-03-29T09:31:47Z</time></trkpt><trkpt lat="46.03752367451866" lon="11.264849299752102"><ele>731.0</ele><time>2026-03-29T09:31:48Z</time></trkpt><trkpt lat="46.03745941385152" lon="11.264996489068842"><ele>728.8333333333333</ele><time>2026-03-29T09:31:49Z</time></trkpt><trkpt lat="46.0373850057588" lon="11.265110562879423"><ele>726.6666666666666</ele><time>2026-03-29T09:31:50Z</time></trkpt><trkpt lat="46.0373326618999" lon="11.265208040918655"><ele>724.5</ele><time>2026-03-29T09:31:51Z</time></trkpt><trkpt lat="46.03728246797811" lon="11.265263984652037"><ele>722.3333333333334</ele><time>2026-03-29T09:31:52Z</time></trkpt><trkpt lat="46.03721475587829" lon="11.265222768478022"><ele>720.1666666666667</ele><time>2026-03-29T09:31:53Z</time></trkpt><trkpt lat="46.03718492651578" lon="11.265084328465594"><ele>718.0</ele><time>2026-03-29T09:31:55Z</time></trkpt><trkpt lat="46.03722832493966" lon="11.264974545903929"><ele>718.0</ele><time>2026-03-29T09:31:56Z</time></trkpt><trkpt lat="46.03733243277157" lon="11.264915382578602"><ele>718.0</ele><time>2026-03-29T09:31:57Z</time></trkpt><trkpt lat="46.037430808131" lon="11.264789073930348"><ele>718.0</ele><time>2026-03-29T09:31:58Z</time></trkpt><trkpt lat="46.03750181953004" lon="11.264633376281914"><ele>718.0</ele><time>2026-03-29T09:31:59Z</time></trkpt><trkpt lat="46.03754115747453" lon="11.264432874611025"><ele>717.0</ele><time>2026-03-29T09:32:00Z</time></trkpt><trkpt lat="46.03757658250358" lon="11.264208285562315"><ele>716.0</ele><time>2026-03-29T09:32:01Z</time></trkpt><trkpt lat="46.03760585335113" lon="11.264000431023728"><ele>715.0</ele><time>2026-03-29T09:32:02Z</time></trkpt><trkpt lat="46.03770354818568" lon="11.263859278942052"><ele>714.0</ele><time>2026-03-29T09:32:03Z</time></trkpt><trkpt lat="46.03778310273551" lon="11.263683456575551"><ele>714.0</ele><time>2026-03-29T09:32:04Z</time></trkpt><trkpt lat="46.037805773829525" lon="11.263494397118881"><ele>714.0</ele><time>2026-03-29T09:32:05Z</time></trkpt><trkpt lat="46.03782789010462" lon="11.263356807454404"><ele>714.0</ele><time>2026-03-29T09:32:06Z</time></trkpt><trkpt lat="46.03785281549828" lon="11.26324243273126"><ele>714.0</ele><time>2026-03-29T09:32:07Z</time></trkpt><trkpt lat="46.03788812335301" lon="11.26314850199431"><ele>714.0</ele><time>2026-03-29T09:32:08Z</time></trkpt><trkpt lat="46.037970809710366" lon="11.26317476511093"><ele>714.0</ele><time>2026-03-29T09:32:09Z</time></trkpt><trkpt lat="46.03804569364031" lon="11.263207424162738"><ele>714.0</ele><time>2026-03-29T09:32:10Z</time></trkpt><trkpt lat="46.03812852330705" lon="11.263166478392161"><ele>714.0</ele><time>2026-03-29T09:32:11Z</time></trkpt><trkpt lat="46.038224744792295" lon="11.263066012978344"><ele>714.0</ele><time>2026-03-29T09:32:12Z</time></trkpt><trkpt lat="46.038321514833484" lon="11.262954986222143"><ele>714.0</ele><time>2026-03-29T09:32:13Z</time></trkpt><trkpt lat="46.038407133446505" lon="11.262891880998081"><ele>710.8000000000001</ele><time>2026-03-29T09:32:14Z</time></trkpt><trkpt lat="46.03849446516676" lon="11.262850309626886"><ele>707.6</ele><time>2026-03-29T09:32:15Z</time></trkpt><trkpt lat="46.03857210656331" lon="11.262862496357544"><ele>704.4</ele><time>2026-03-29T09:32:16Z</time></trkpt><trkpt lat="46.03865710914548" lon="11.262931508970349"><ele>701.2</ele><time>2026-03-29T09:32:17Z</time></trkpt><trkpt lat="46.038772506866266" lon="11.262982016774991"><ele>698.0</ele><time>2026-03-29T09:32:18Z</time></trkpt><trkpt lat="46.03890281976327" lon="11.26299179888018"><ele>698.0</ele><time>2026-03-29T09:32:19Z</time></trkpt><trkpt lat="46.03904048312329" lon="11.262956193576125"><ele>698.0</ele><time>2026-03-29T09:32:20Z</time></trkpt><trkpt lat="46.039171689673736" lon="11.262911101385734"><ele>698.0</ele><time>2026-03-29T09:32:21Z</time></trkpt><trkpt lat="46.039310750622796" lon="11.262799113002254"><ele>698.0</ele><time>2026-03-29T09:32:22Z</time></trkpt><trkpt lat="46.03945137852766" lon="11.26270812640592"><ele>700.3333333333333</ele><time>2026-03-29T09:32:23Z</time></trkpt><trkpt lat="46.03959175685827" lon="11.262600438791807"><ele>702.6666666666666</ele><time>2026-03-29T09:32:24Z</time></trkpt><trkpt lat="46.03973919908984" lon="11.262529413358934"><ele>705.0</ele><time>2026-03-29T09:32:25Z</time></trkpt><trkpt lat="46.03986925623857" lon="11.262441759136163"><ele>706.0</ele><time>2026-03-29T09:32:26Z</time></trkpt><trkpt lat="46.03998158321972" lon="11.262307076872268"><ele>707.0</ele><time>2026-03-29T09:32:27Z</time></trkpt><trkpt lat="46.040111961877116" lon="11.262194156141076"><ele>708.0</ele><time>2026-03-29T09:32:28Z</time></trkpt><trkpt lat="46.04024657311933" lon="11.262093631781974"><ele>708.0</ele><time>2026-03-29T09:32:29Z</time></trkpt><trkpt lat="46.04037674731553" lon="11.261979038367363"><ele>708.0</ele><time>2026-03-29T09:32:30Z</time></trkpt><trkpt lat="46.04051033008313" lon="11.261880501537966"><ele>708.0</ele><time>2026-03-29T09:32:31Z</time></trkpt><trkpt lat="46.04064750370577" lon="11.261772910457791"><ele>708.0</ele><time>2026-03-29T09:32:32Z</time></trkpt><trkpt lat="46.04078241074954" lon="11.261674694200256"><ele>708.0</ele><time>2026-03-29T09:32:33Z</time></trkpt><trkpt lat="46.04090815172847" lon="11.261569882105801"><ele>708.0</ele><time>2026-03-29T09:32:34Z</time></trkpt><trkpt lat="46.04103854194411" lon="11.261522796877143"><ele>708.0</ele><time>2026-03-29T09:32:35Z</time></trkpt><trkpt lat="46.041161869960455" lon="11.261452734888769"><ele>705.25</ele><time>2026-03-29T09:32:35.999Z</time></trkpt><trkpt lat="46.0412703753751" lon="11.261368260740724"><ele>702.5</ele><time>2026-03-29T09:32:36.999Z</time></trkpt><trkpt lat="46.041343893906365" lon="11.261233442252355"><ele>699.75</ele><time>2026-03-29T09:32:37.999Z</time></trkpt><trkpt lat="46.04141015420798" lon="11.261086695398111"><ele>697.0</ele><time>2026-03-29T09:32:38.999Z</time></trkpt><trkpt lat="46.04145486943586" lon="11.260961497137767"><ele>697.0</ele><time>2026-03-29T09:32:39.999Z</time></trkpt><trkpt lat="46.041503568429405" lon="11.260847334246971"><ele>697.0</ele><time>2026-03-29T09:32:40.999Z</time></trkpt><trkpt lat="46.041569503951614" lon="11.260832692568624"><ele>697.0</ele><time>2026-03-29T09:32:41.999Z</time></trkpt><trkpt lat="46.041713399772306" lon="11.260848313798286"><ele>697.0</ele><time>2026-03-29T09:32:43.999Z</time></trkpt><trkpt lat="46.04181794337676" lon="11.260835158925985"><ele>697.0</ele><time>2026-03-29T09:32:44.999Z</time></trkpt><trkpt lat="46.041942814366365" lon="11.26081611794699"><ele>693.75</ele><time>2026-03-29T09:32:45.999Z</time></trkpt><trkpt lat="46.0420813873749" lon="11.260797073343733"><ele>690.5</ele><time>2026-03-29T09:32:46.999Z</time></trkpt><trkpt lat="46.042212540217214" lon="11.260788999298216"><ele>687.25</ele><time>2026-03-29T09:32:47.999Z</time></trkpt><trkpt lat="46.04232331019058" lon="11.260807555235015"><ele>684.0</ele><time>2026-03-29T09:32:48.999Z</time></trkpt><trkpt lat="46.04245230568335" lon="11.260873757595807"><ele>684.25</ele><time>2026-03-29T09:32:49.999Z</time></trkpt><trkpt lat="46.042579091701064" lon="11.260886996550859"><ele>684.5</ele><time>2026-03-29T09:32:50.999Z</time></trkpt><trkpt lat="46.04272932688094" lon="11.260908174879475"><ele>684.75</ele><time>2026-03-29T09:32:51.999Z</time></trkpt><trkpt lat="46.04284891616974" lon="11.260927727619926"><ele>685.0</ele><time>2026-03-29T09:32:52.999Z</time></trkpt><trkpt lat="46.04296677376086" lon="11.260924320639136"><ele>685.0</ele><time>2026-03-29T09:32:53.999Z</time></trkpt><trkpt lat="46.043094711637" lon="11.260895076588625"><ele>685.0</ele><time>2026-03-29T09:32:54.999Z</time></trkpt><trkpt lat="46.0432486168576" lon="11.260875546367792"><ele>685.0</ele><time>2026-03-29T09:32:55.999Z</time></trkpt><trkpt lat="46.043393579403805" lon="11.260854920788383"><ele>685.0</ele><time>2026-03-29T09:32:56.999Z</time></trkpt><trkpt lat="46.04355208263058" lon="11.260825126362654"><ele>683.75</ele><time>2026-03-29T09:32:57.999Z</time></trkpt><trkpt lat="46.04370175403717" lon="11.260798412513344"><ele>682.5</ele><time>2026-03-29T09:32:58.999Z</time></trkpt><trkpt lat="46.04384583010466" lon="11.260785444308892"><ele>681.25</ele><time>2026-03-29T09:32:59.999Z</time></trkpt><trkpt lat="46.043981906168156" lon="11.26080357985136"><ele>680.0</ele><time>2026-03-29T09:33:00.999Z</time></trkpt><trkpt lat="46.0441190034606" lon="11.260816593753459"><ele>678.25</ele><time>2026-03-29T09:33:01.999Z</time></trkpt><trkpt lat="46.04428111860896" lon="11.260788027026898"><ele>676.5</ele><time>2026-03-29T09:33:02.999Z</time></trkpt><trkpt lat="46.04442220819185" lon="11.260740455209584"><ele>674.75</ele><time>2026-03-29T09:33:03.999Z</time></trkpt><trkpt lat="46.04455887462401" lon="11.2607107955233"><ele>673.0</ele><time>2026-03-29T09:33:04.999Z</time></trkpt><trkpt lat="46.04469206108594" lon="11.260721627470906"><ele>673.0</ele><time>2026-03-29T09:33:05.999Z</time></trkpt><trkpt lat="46.04484167568588" lon="11.260740598657664"><ele>673.0</ele><time>2026-03-29T09:33:06.999Z</time></trkpt><trkpt lat="46.04497870539168" lon="11.26069321027701"><ele>673.0</ele><time>2026-03-29T09:33:07.999Z</time></trkpt><trkpt lat="46.04510334671881" lon="11.260678561993554"><ele>673.0</ele><time>2026-03-29T09:33:08.999Z</time></trkpt><trkpt lat="46.04522962908847" lon="11.260704356016717"><ele>671.0</ele><time>2026-03-29T09:33:09.999Z</time></trkpt><trkpt lat="46.04537292112332" lon="11.260742300932398"><ele>669.0</ele><time>2026-03-29T09:33:10.999Z</time></trkpt><trkpt lat="46.04551244353531" lon="11.260779691604675"><ele>667.0</ele><time>2026-03-29T09:33:12Z</time></trkpt><trkpt lat="46.04564184998694" lon="11.260788858687528"><ele>665.0</ele><time>2026-03-29T09:33:13Z</time></trkpt><trkpt lat="46.04576323466884" lon="11.260769256684732"><ele>659.8</ele><time>2026-03-29T09:33:14Z</time></trkpt><trkpt lat="46.045866234968614" lon="11.260747955776147"><ele>654.6</ele><time>2026-03-29T09:33:15Z</time></trkpt><trkpt lat="46.04596815925711" lon="11.260730103961924"><ele>649.4</ele><time>2026-03-29T09:33:16Z</time></trkpt><trkpt lat="46.046046698958726" lon="11.26072719870342"><ele>644.2</ele><time>2026-03-29T09:33:17Z</time></trkpt><trkpt lat="46.04610862181572" lon="11.260749402369626"><ele>639.0</ele><time>2026-03-29T09:33:18Z</time></trkpt><trkpt lat="46.04615641895695" lon="11.26091055669968"><ele>639.0</ele><time>2026-03-29T09:33:20Z</time></trkpt><trkpt lat="46.04616467594789" lon="11.26103370516571"><ele>639.0</ele><time>2026-03-29T09:33:21Z</time></trkpt><trkpt lat="46.04618715925857" lon="11.261178630898184"><ele>639.0</ele><time>2026-03-29T09:33:22Z</time></trkpt><trkpt lat="46.04621489052764" lon="11.26134792562297"><ele>639.0</ele><time>2026-03-29T09:33:23Z</time></trkpt><trkpt lat="46.046245225527045" lon="11.261522767659853"><ele>639.0</ele><time>2026-03-29T09:33:24Z</time></trkpt><trkpt lat="46.04626657255512" lon="11.26168923904477"><ele>646.8</ele><time>2026-03-29T09:33:25Z</time></trkpt><trkpt lat="46.04626336870156" lon="11.261847997796762"><ele>654.5999999999999</ele><time>2026-03-29T09:33:26Z</time></trkpt><trkpt lat="46.04624012285431" lon="11.262001462078368"><ele>662.4</ele><time>2026-03-29T09:33:27Z</time></trkpt><trkpt lat="46.04623835421589" lon="11.262136171477923"><ele>670.1999999999999</ele><time>2026-03-29T09:33:28Z</time></trkpt><trkpt lat="46.046289987350995" lon="11.262239120649213"><ele>678.0</ele><time>2026-03-29T09:33:29Z</time></trkpt><trkpt lat="46.046347703823905" lon="11.262293104988327"><ele>679.5999999999999</ele><time>2026-03-29T09:33:30Z</time></trkpt><trkpt lat="46.046427164002615" lon="11.26232454223351"><ele>681.1999999999999</ele><time>2026-03-29T09:33:31Z</time></trkpt><trkpt lat="46.04653377674756" lon="11.262340482159882"><ele>682.8</ele><time>2026-03-29T09:33:32Z</time></trkpt><trkpt lat="46.04663510885659" lon="11.26231001562117"><ele>684.4</ele><time>2026-03-29T09:33:33Z</time></trkpt><trkpt lat="46.04673886738189" lon="11.262257234110438"><ele>686.0</ele><time>2026-03-29T09:33:34Z</time></trkpt><trkpt lat="46.04685488739824" lon="11.262196708911064"><ele>666.3333333333333</ele><time>2026-03-29T09:33:35Z</time></trkpt><trkpt lat="46.04699316012922" lon="11.26212885835683"><ele>646.6666666666666</ele><time>2026-03-29T09:33:36Z</time></trkpt><trkpt lat="46.04714510440242" lon="11.262057698209473"><ele>627.0</ele><time>2026-03-29T09:33:37Z</time></trkpt><trkpt lat="46.04729559966972" lon="11.26198939242495"><ele>627.0</ele><time>2026-03-29T09:33:38Z</time></trkpt><trkpt lat="46.04743140602299" lon="11.261951339055342"><ele>627.0</ele><time>2026-03-29T09:33:39Z</time></trkpt><trkpt lat="46.04755812586762" lon="11.261898506994077"><ele>627.0</ele><time>2026-03-29T09:33:40Z</time></trkpt><trkpt lat="46.04767507043111" lon="11.261840749399228"><ele>627.0</ele><time>2026-03-29T09:33:41Z</time></trkpt><trkpt lat="46.047769697533404" lon="11.261752390541965"><ele>626.75</ele><time>2026-03-29T09:33:42Z</time></trkpt><trkpt lat="46.04785602772926" lon="11.261664157228243"><ele>626.5</ele><time>2026-03-29T09:33:43Z</time></trkpt><trkpt lat="46.047947332391125" lon="11.261545278671841"><ele>626.25</ele><time>2026-03-29T09:33:44Z</time></trkpt><trkpt lat="46.048037575348395" lon="11.261407119151025"><ele>626.0</ele><time>2026-03-29T09:33:45Z</time></trkpt><trkpt lat="46.048135104939895" lon="11.261266337135165"><ele>623.0</ele><time>2026-03-29T09:33:46Z</time></trkpt><trkpt lat="46.04821438106522" lon="11.261132148599444"><ele>620.0</ele><time>2026-03-29T09:33:47Z</time></trkpt><trkpt lat="46.048301666341146" lon="11.26104170419179"><ele>617.0</ele><time>2026-03-29T09:33:48Z</time></trkpt><trkpt lat="46.04837833825561" lon="11.260974489327578"><ele>614.0</ele><time>2026-03-29T09:33:49Z</time></trkpt><trkpt lat="46.048457451480054" lon="11.260958403455383"><ele>611.0</ele><time>2026-03-29T09:33:50Z</time></trkpt><trkpt lat="46.04854540706961" lon="11.260992642934784"><ele>611.0</ele><time>2026-03-29T09:33:51Z</time></trkpt><trkpt lat="46.048662020481295" lon="11.261004331303186"><ele>611.0</ele><time>2026-03-29T09:33:52Z</time></trkpt><trkpt lat="46.04879067100895" lon="11.26099278562188"><ele>611.0</ele><time>2026-03-29T09:33:53Z</time></trkpt><trkpt lat="46.04892256306407" lon="11.260931237463662"><ele>611.0</ele><time>2026-03-29T09:33:54Z</time></trkpt><trkpt lat="46.0490691055616" lon="11.260846112229064"><ele>613.25</ele><time>2026-03-29T09:33:55Z</time></trkpt><trkpt lat="46.04919688544051" lon="11.260779549760608"><ele>615.5</ele><time>2026-03-29T09:33:56Z</time></trkpt><trkpt lat="46.049308227150284" lon="11.260721178767561"><ele>617.75</ele><time>2026-03-29T09:33:57Z</time></trkpt><trkpt lat="46.04938927756889" lon="11.26062837150624"><ele>620.0</ele><time>2026-03-29T09:33:58Z</time></trkpt><trkpt lat="46.049444987070736" lon="11.260518119030682"><ele>615.1666666666666</ele><time>2026-03-29T09:33:59Z</time></trkpt><trkpt lat="46.049475530954965" lon="11.260394856504318"><ele>610.3333333333333</ele><time>2026-03-29T09:34:00Z</time></trkpt><trkpt lat="46.04952369862186" lon="11.260304014800571"><ele>605.5</ele><time>2026-03-29T09:34:01Z</time></trkpt><trkpt lat="46.049593546338144" lon="11.260258148264148"><ele>600.6666666666666</ele><time>2026-03-29T09:34:02Z</time></trkpt><trkpt lat="46.049669063553836" lon="11.260327315506249"><ele>595.8333333333334</ele><time>2026-03-29T09:34:03Z</time></trkpt><trkpt lat="46.04975805680437" lon="11.260382741219138"><ele>591.0</ele><time>2026-03-29T09:34:04Z</time></trkpt><trkpt lat="46.04984639688078" lon="11.260406916681902"><ele>591.0</ele><time>2026-03-29T09:34:05Z</time></trkpt><trkpt lat="46.04993664134387" lon="11.260377212794642"><ele>591.0</ele><time>2026-03-29T09:34:06Z</time></trkpt><trkpt lat="46.05001577349884" lon="11.260274873076309"><ele>591.0</ele><time>2026-03-29T09:34:07Z</time></trkpt><trkpt lat="46.050099553785074" lon="11.26015499975068"><ele>591.0</ele><time>2026-03-29T09:34:08Z</time></trkpt><trkpt lat="46.05018571096958" lon="11.26002581558994"><ele>591.0</ele><time>2026-03-29T09:34:09Z</time></trkpt><trkpt lat="46.05028543382692" lon="11.259886402873574"><ele>588.75</ele><time>2026-03-29T09:34:10Z</time></trkpt><trkpt lat="46.05037135620401" lon="11.259753672693082"><ele>586.5</ele><time>2026-03-29T09:34:11Z</time></trkpt><trkpt lat="46.050442062523516" lon="11.259612932677133"><ele>584.25</ele><time>2026-03-29T09:34:12Z</time></trkpt><trkpt lat="46.05049407689562" lon="11.259454613631663"><ele>582.0</ele><time>2026-03-29T09:34:13Z</time></trkpt><trkpt lat="46.05052711901943" lon="11.259292019037387"><ele>582.0</ele><time>2026-03-29T09:34:14Z</time></trkpt><trkpt lat="46.050538337028414" lon="11.25911178947897"><ele>582.0</ele><time>2026-03-29T09:34:15Z</time></trkpt><trkpt lat="46.050555488266134" lon="11.258911214530448"><ele>582.0</ele><time>2026-03-29T09:34:16Z</time></trkpt><trkpt lat="46.05057352797962" lon="11.258706766596513"><ele>582.0</ele><time>2026-03-29T09:34:17Z</time></trkpt><trkpt lat="46.05058255637752" lon="11.258486281592623"><ele>578.3333333333334</ele><time>2026-03-29T09:34:18Z</time></trkpt><trkpt lat="46.05059231090261" lon="11.258253251043696"><ele>574.6666666666667</ele><time>2026-03-29T09:34:19Z</time></trkpt><trkpt lat="46.05060111290656" lon="11.25801423551641"><ele>571.0</ele><time>2026-03-29T09:34:20Z</time></trkpt><trkpt lat="46.05060598206271" lon="11.25778296684065"><ele>569.5</ele><time>2026-03-29T09:34:21Z</time></trkpt><trkpt lat="46.050606530006384" lon="11.257565302334298"><ele>568.0</ele><time>2026-03-29T09:34:22Z</time></trkpt><trkpt lat="46.05059685013779" lon="11.257358556373882"><ele>566.5</ele><time>2026-03-29T09:34:23Z</time></trkpt><trkpt lat="46.050578439839086" lon="11.257159231932373"><ele>565.0</ele><time>2026-03-29T09:34:24Z</time></trkpt><trkpt lat="46.05054611843347" lon="11.256997453354439"><ele>564.0</ele><time>2026-03-29T09:34:25Z</time></trkpt><trkpt lat="46.05052420570454" lon="11.256838724020737"><ele>563.0</ele><time>2026-03-29T09:34:26Z</time></trkpt><trkpt lat="46.050488903827095" lon="11.256706338213261"><ele>562.0</ele><time>2026-03-29T09:34:27Z</time></trkpt><trkpt lat="46.05042250821308" lon="11.25659579484005"><ele>561.0</ele><time>2026-03-29T09:34:28Z</time></trkpt><trkpt lat="46.050336803869385" lon="11.256497214255859"><ele>560.0</ele><time>2026-03-29T09:34:29Z</time></trkpt><trkpt lat="46.05025064491614" lon="11.25636248685503"><ele>558.25</ele><time>2026-03-29T09:34:30Z</time></trkpt><trkpt lat="46.050163817351866" lon="11.256214823469069"><ele>556.5</ele><time>2026-03-29T09:34:31Z</time></trkpt><trkpt lat="46.050082445277525" lon="11.256040469524802"><ele>554.75</ele><time>2026-03-29T09:34:32Z</time></trkpt><trkpt lat="46.04999990363622" lon="11.255843111757452"><ele>553.0</ele><time>2026-03-29T09:34:33Z</time></trkpt><trkpt lat="46.04996126946101" lon="11.25563393288934"><ele>551.75</ele><time>2026-03-29T09:34:34Z</time></trkpt><trkpt lat="46.04993123735177" lon="11.25543198158309"><ele>550.5</ele><time>2026-03-29T09:34:35Z</time></trkpt><trkpt lat="46.04989959001979" lon="11.2552184479349"><ele>549.25</ele><time>2026-03-29T09:34:36Z</time></trkpt><trkpt lat="46.049860868864826" lon="11.255015574410939"><ele>548.0</ele><time>2026-03-29T09:34:37Z</time></trkpt><trkpt lat="46.049801555335755" lon="11.254837517636654"><ele>546.25</ele><time>2026-03-29T09:34:38Z</time></trkpt><trkpt lat="46.04974687526048" lon="11.254650667107226"><ele>544.5</ele><time>2026-03-29T09:34:38.999Z</time></trkpt><trkpt lat="46.04969423414455" lon="11.254472462661218"><ele>542.75</ele><time>2026-03-29T09:34:39.999Z</time></trkpt><trkpt lat="46.04964591713227" lon="11.254311788243676"><ele>541.0</ele><time>2026-03-29T09:34:40.999Z</time></trkpt><trkpt lat="46.04961485095579" lon="11.254154481644886"><ele>541.0</ele><time>2026-03-29T09:34:41.999Z</time></trkpt><trkpt lat="46.04962676620046" lon="11.253990309353805"><ele>541.0</ele><time>2026-03-29T09:34:42.999Z</time></trkpt><trkpt lat="46.04962315926435" lon="11.253813631624377"><ele>541.0</ele><time>2026-03-29T09:34:43.999Z</time></trkpt><trkpt lat="46.04960357661278" lon="11.253618676153376"><ele>541.0</ele><time>2026-03-29T09:34:44.999Z</time></trkpt><trkpt lat="46.04960786349989" lon="11.253446291044177"><ele>540.25</ele><time>2026-03-29T09:34:45.999Z</time></trkpt><trkpt lat="46.04960888180243" lon="11.253282785595685"><ele>539.5</ele><time>2026-03-29T09:34:46.999Z</time></trkpt><trkpt lat="46.04961742104609" lon="11.253104204253786"><ele>538.75</ele><time>2026-03-29T09:34:47.999Z</time></trkpt><trkpt lat="46.04965033083539" lon="11.252958798235186"><ele>538.0</ele><time>2026-03-29T09:34:48.999Z</time></trkpt><trkpt lat="46.049710426860486" lon="11.252800990380315"><ele>536.6666666666667</ele><time>2026-03-29T09:34:49.999Z</time></trkpt><trkpt lat="46.049829790129685" lon="11.252656210129107"><ele>535.3333333333334</ele><time>2026-03-29T09:34:50.999Z</time></trkpt><trkpt lat="46.0499581108719" lon="11.252433057163897"><ele>534.0</ele><time>2026-03-29T09:34:51.999Z</time></trkpt><trkpt lat="46.05010382233221" lon="11.252192131343602"><ele>533.3333333333334</ele><time>2026-03-29T09:34:52.999Z</time></trkpt><trkpt lat="46.05023726096224" lon="11.251990657398837"><ele>532.6666666666667</ele><time>2026-03-29T09:34:53.999Z</time></trkpt><trkpt lat="46.050359674269544" lon="11.251823869032052"><ele>532.0</ele><time>2026-03-29T09:34:54.999Z</time></trkpt><trkpt lat="46.05048993215029" lon="11.251666695392457"><ele>532.0</ele><time>2026-03-29T09:34:55.999Z</time></trkpt><trkpt lat="46.05062992355773" lon="11.25150715444439"><ele>532.0</ele><time>2026-03-29T09:34:56.999Z</time></trkpt><trkpt lat="46.0507689902468" lon="11.251348765425487"><ele>532.0</ele><time>2026-03-29T09:34:57.999Z</time></trkpt><trkpt lat="46.050907668342006" lon="11.251190839872311"><ele>531.25</ele><time>2026-03-29T09:34:58.999Z</time></trkpt><trkpt lat="46.05103026034552" lon="11.251051232833127"><ele>530.5</ele><time>2026-03-29T09:34:59.999Z</time></trkpt><trkpt lat="46.05114172089082" lon="11.250924302606686"><ele>529.75</ele><time>2026-03-29T09:35:00.999Z</time></trkpt><trkpt lat="46.05124242233338" lon="11.250809624532748"><ele>529.0</ele><time>2026-03-29T09:35:01.999Z</time></trkpt><trkpt lat="46.05134138286766" lon="11.250696929153507"><ele>530.25</ele><time>2026-03-29T09:35:02.999Z</time></trkpt><trkpt lat="46.051432704609304" lon="11.250565229388208"><ele>531.5</ele><time>2026-03-29T09:35:03.999Z</time></trkpt><trkpt lat="46.05153277488661" lon="11.25045344009125"><ele>532.75</ele><time>2026-03-29T09:35:04.999Z</time></trkpt><trkpt lat="46.051621870625375" lon="11.250352481815835"><ele>534.0</ele><time>2026-03-29T09:35:05.999Z</time></trkpt><trkpt lat="46.05171111704348" lon="11.250256337366984"><ele>534.0</ele><time>2026-03-29T09:35:06.999Z</time></trkpt><trkpt lat="46.051804602121834" lon="11.250157707000776"><ele>534.0</ele><time>2026-03-29T09:35:07.999Z</time></trkpt><trkpt lat="46.05189891646564" lon="11.250061314885476"><ele>534.0</ele><time>2026-03-29T09:35:08.999Z</time></trkpt><trkpt lat="46.05200298838429" lon="11.24997224490684"><ele>534.0</ele><time>2026-03-29T09:35:09.999Z</time></trkpt><trkpt lat="46.052122534610305" lon="11.249915815474731"><ele>534.0</ele><time>2026-03-29T09:35:10.999Z</time></trkpt><trkpt lat="46.052249200437814" lon="11.249849106456704"><ele>534.0</ele><time>2026-03-29T09:35:11.999Z</time></trkpt><trkpt lat="46.052374350295054" lon="11.249779574511244"><ele>534.0</ele><time>2026-03-29T09:35:12.999Z</time></trkpt><trkpt lat="46.052468712979625" lon="11.249696690919805"><ele>534.0</ele><time>2026-03-29T09:35:13.999Z</time></trkpt><trkpt lat="46.05256369400683" lon="11.249598731458402"><ele>533.5</ele><time>2026-03-29T09:35:14.999Z</time></trkpt><trkpt lat="46.05264497483738" lon="11.249465024157692"><ele>533.0</ele><time>2026-03-29T09:35:15.999Z</time></trkpt><trkpt lat="46.05271172235623" lon="11.249307477557089"><ele>532.5</ele><time>2026-03-29T09:35:16.999Z</time></trkpt><trkpt lat="46.052755863942394" lon="11.249127991721126"><ele>532.0</ele><time>2026-03-29T09:35:18Z</time></trkpt><trkpt lat="46.052783182486905" lon="11.248918604104341"><ele>530.75</ele><time>2026-03-29T09:35:19Z</time></trkpt><trkpt lat="46.05280654456443" lon="11.248724958005598"><ele>529.5</ele><time>2026-03-29T09:35:20Z</time></trkpt><trkpt lat="46.05282898181791" lon="11.248537223736752"><ele>528.25</ele><time>2026-03-29T09:35:21Z</time></trkpt><trkpt lat="46.052851301217444" lon="11.24835912434402"><ele>527.0</ele><time>2026-03-29T09:35:22Z</time></trkpt><trkpt lat="46.052872895895035" lon="11.248204358245006"><ele>527.75</ele><time>2026-03-29T09:35:23Z</time></trkpt><trkpt lat="46.05288966803014" lon="11.2480431350283"><ele>528.5</ele><time>2026-03-29T09:35:24Z</time></trkpt><trkpt lat="46.05290700347989" lon="11.247873557263809"><ele>529.25</ele><time>2026-03-29T09:35:25Z</time></trkpt><trkpt lat="46.052908141402874" lon="11.247691765359978"><ele>530.0</ele><time>2026-03-29T09:35:26Z</time></trkpt><trkpt lat="46.052900347176816" lon="11.247495329930643"><ele>528.0</ele><time>2026-03-29T09:35:27Z</time></trkpt><trkpt lat="46.052876274689915" lon="11.247290357092767"><ele>526.0</ele><time>2026-03-29T09:35:28Z</time></trkpt><trkpt lat="46.052867030853335" lon="11.247085109808031"><ele>524.0</ele><time>2026-03-29T09:35:29Z</time></trkpt><trkpt lat="46.05285034804205" lon="11.246894322384927"><ele>522.0</ele><time>2026-03-29T09:35:30Z</time></trkpt><trkpt lat="46.05283158788734" lon="11.2466972165806"><ele>522.0</ele><time>2026-03-29T09:35:31Z</time></trkpt><trkpt lat="46.05281645191834" lon="11.246483362027984"><ele>522.0</ele><time>2026-03-29T09:35:32Z</time></trkpt><trkpt lat="46.05279851406607" lon="11.246269886730714"><ele>522.0</ele><time>2026-03-29T09:35:33Z</time></trkpt><trkpt lat="46.05278690854645" lon="11.246064879546292"><ele>522.0</ele><time>2026-03-29T09:35:34Z</time></trkpt><trkpt lat="46.052776552268085" lon="11.245876645369236"><ele>518.0</ele><time>2026-03-29T09:35:35Z</time></trkpt><trkpt lat="46.052759664362895" lon="11.245689077926135"><ele>514.0</ele><time>2026-03-29T09:35:36Z</time></trkpt><trkpt lat="46.05274594705438" lon="11.245508398818988"><ele>510.0</ele><time>2026-03-29T09:35:37Z</time></trkpt><trkpt lat="46.05274419984228" lon="11.245335503218138"><ele>506.0</ele><time>2026-03-29T09:35:38Z</time></trkpt><trkpt lat="46.05278465129414" lon="11.245166715828237"><ele>503.5</ele><time>2026-03-29T09:35:39Z</time></trkpt><trkpt lat="46.05282773554599" lon="11.244996101555664"><ele>501.0</ele><time>2026-03-29T09:35:40Z</time></trkpt><trkpt lat="46.05288595628572" lon="11.244828423852496"><ele>498.5</ele><time>2026-03-29T09:35:41Z</time></trkpt><trkpt lat="46.052964559597974" lon="11.244676451502112"><ele>496.0</ele><time>2026-03-29T09:35:42Z</time></trkpt><trkpt lat="46.05304899752723" lon="11.244504472095848"><ele>494.33333333333337</ele><time>2026-03-29T09:35:43Z</time></trkpt><trkpt lat="46.05313712118074" lon="11.244324986350843"><ele>492.66666666666663</ele><time>2026-03-29T09:35:44Z</time></trkpt><trkpt lat="46.05322867457554" lon="11.244138514836326"><ele>491.0</ele><time>2026-03-29T09:35:45Z</time></trkpt><trkpt lat="46.0533230691908" lon="11.243944272905793"><ele>491.0</ele><time>2026-03-29T09:35:46Z</time></trkpt><trkpt lat="46.05340083478187" lon="11.243725473043163"><ele>491.0</ele><time>2026-03-29T09:35:47Z</time></trkpt><trkpt lat="46.0535030331609" lon="11.243525310735437"><ele>491.0</ele><time>2026-03-29T09:35:48Z</time></trkpt><trkpt lat="46.05359607709124" lon="11.243343142565783"><ele>491.0</ele><time>2026-03-29T09:35:49Z</time></trkpt><trkpt lat="46.053683124022925" lon="11.243170637104395"><ele>491.0</ele><time>2026-03-29T09:35:50Z</time></trkpt><trkpt lat="46.053767537917714" lon="11.242992159238147"><ele>491.0</ele><time>2026-03-29T09:35:51Z</time></trkpt><trkpt lat="46.05386251770257" lon="11.24282829348619"><ele>491.0</ele><time>2026-03-29T09:35:52Z</time></trkpt><trkpt lat="46.05393195644549" lon="11.242639291586844"><ele>492.0</ele><time>2026-03-29T09:35:53Z</time></trkpt><trkpt lat="46.05400889989842" lon="11.242454490078721"><ele>493.0</ele><time>2026-03-29T09:35:54Z</time></trkpt><trkpt lat="46.05407232008713" lon="11.242262467009317"><ele>494.0</ele><time>2026-03-29T09:35:55Z</time></trkpt><trkpt lat="46.054122331131666" lon="11.242061857546377"><ele>495.0</ele><time>2026-03-29T09:35:56Z</time></trkpt><trkpt lat="46.054153205473526" lon="11.24187540021394"><ele>495.0</ele><time>2026-03-29T09:35:57Z</time></trkpt><trkpt lat="46.05417470752224" lon="11.241703888689127"><ele>495.0</ele><time>2026-03-29T09:35:58Z</time></trkpt><trkpt lat="46.054188590610906" lon="11.241534123142504"><ele>495.0</ele><time>2026-03-29T09:35:59Z</time></trkpt><trkpt lat="46.054195102999785" lon="11.241350788395422"><ele>495.0</ele><time>2026-03-29T09:36:00Z</time></trkpt><trkpt lat="46.0541962359551" lon="11.241183544141844"><ele>494.2</ele><time>2026-03-29T09:36:01Z</time></trkpt><trkpt lat="46.05419869578756" lon="11.241037838286003"><ele>493.4</ele><time>2026-03-29T09:36:02Z</time></trkpt><trkpt lat="46.05420093679274" lon="11.24090319708803"><ele>492.6</ele><time>2026-03-29T09:36:03Z</time></trkpt><trkpt lat="46.054204497189666" lon="11.240780575390108"><ele>491.8</ele><time>2026-03-29T09:36:04Z</time></trkpt><trkpt lat="46.054207446570096" lon="11.240654994751463"><ele>491.0</ele><time>2026-03-29T09:36:05Z</time></trkpt><trkpt lat="46.05421319325315" lon="11.240527922017534"><ele>490.16666666666663</ele><time>2026-03-29T09:36:06Z</time></trkpt><trkpt lat="46.05421585497432" lon="11.24041722869092"><ele>489.3333333333333</ele><time>2026-03-29T09:36:07Z</time></trkpt><trkpt lat="46.05421947766953" lon="11.24030808505921"><ele>488.5</ele><time>2026-03-29T09:36:08Z</time></trkpt><trkpt lat="46.054225492911236" lon="11.240194650396452"><ele>487.66666666666663</ele><time>2026-03-29T09:36:09Z</time></trkpt><trkpt lat="46.05422936844881" lon="11.240070640346369"><ele>486.8333333333333</ele><time>2026-03-29T09:36:10Z</time></trkpt><trkpt lat="46.054234944068966" lon="11.239948606612472"><ele>486.0</ele><time>2026-03-29T09:36:11Z</time></trkpt><trkpt lat="46.05424169306849" lon="11.239840668172558"><ele>484.3333333333333</ele><time>2026-03-29T09:36:12Z</time></trkpt><trkpt lat="46.05425287837334" lon="11.239719785068557"><ele>482.66666666666663</ele><time>2026-03-29T09:36:13Z</time></trkpt><trkpt lat="46.054260931793635" lon="11.239607168533455"><ele>481.0</ele><time>2026-03-29T09:36:14Z</time></trkpt><trkpt lat="46.05429080490143" lon="11.239484677851898"><ele>479.3333333333333</ele><time>2026-03-29T09:36:15Z</time></trkpt><trkpt lat="46.05433814113964" lon="11.239388595719655"><ele>477.66666666666663</ele><time>2026-03-29T09:36:16Z</time></trkpt><trkpt lat="46.05438449549443" lon="11.239287647297461"><ele>476.0</ele><time>2026-03-29T09:36:17Z</time></trkpt><trkpt lat="46.05443840226273" lon="11.239193448891672"><ele>475.99999999999994</ele><time>2026-03-29T09:36:18Z</time></trkpt><trkpt lat="46.054487272481715" lon="11.239088515919986"><ele>476.0</ele><time>2026-03-29T09:36:19Z</time></trkpt><trkpt lat="46.05456859502938" lon="11.239023001566022"><ele>476.0</ele><time>2026-03-29T09:36:20Z</time></trkpt><trkpt lat="46.05464525752232" lon="11.238950023041285"><ele>476.0</ele><time>2026-03-29T09:36:21Z</time></trkpt><trkpt lat="46.054715785097216" lon="11.238883052247193"><ele>475.99999999999994</ele><time>2026-03-29T09:36:22Z</time></trkpt><trkpt lat="46.05478338237727" lon="11.238818359392766"><ele>476.0</ele><time>2026-03-29T09:36:23Z</time></trkpt><trkpt lat="46.05485432612974" lon="11.23875002251983"><ele>475.8333333333333</ele><time>2026-03-29T09:36:24Z</time></trkpt><trkpt lat="46.05492770785329" lon="11.238679152141529"><ele>475.66666666666663</ele><time>2026-03-29T09:36:25Z</time></trkpt><trkpt lat="46.055000599987984" lon="11.238608754519342"><ele>475.5</ele><time>2026-03-29T09:36:26Z</time></trkpt><trkpt lat="46.05507417533225" lon="11.238537696549276"><ele>475.33333333333337</ele><time>2026-03-29T09:36:27Z</time></trkpt><trkpt lat="46.05514784655254" lon="11.238467377705101"><ele>475.1666666666667</ele><time>2026-03-29T09:36:28Z</time></trkpt><trkpt lat="46.055228096440594" lon="11.238390593247036"><ele>475.0</ele><time>2026-03-29T09:36:29Z</time></trkpt><trkpt lat="46.055308283841306" lon="11.238313868635407"><ele>475.0</ele><time>2026-03-29T09:36:30Z</time></trkpt><trkpt lat="46.05537809209472" lon="11.238221488159077"><ele>475.0</ele><time>2026-03-29T09:36:31Z</time></trkpt><trkpt lat="46.05546611526598" lon="11.23813424241408"><ele>475.0</ele><time>2026-03-29T09:36:32Z</time></trkpt><trkpt lat="46.055562758102255" lon="11.238070383484462"><ele>475.0</ele><time>2026-03-29T09:36:33Z</time></trkpt><trkpt lat="46.05565729820752" lon="11.237979925938156"><ele>475.0</ele><time>2026-03-29T09:36:34Z</time></trkpt><trkpt lat="46.05574394346765" lon="11.237868072940639"><ele>474.25</ele><time>2026-03-29T09:36:35Z</time></trkpt><trkpt lat="46.05585471675951" lon="11.237789594827044"><ele>473.5</ele><time>2026-03-29T09:36:36Z</time></trkpt><trkpt lat="46.05595737788452" lon="11.237690147509172"><ele>472.75</ele><time>2026-03-29T09:36:37Z</time></trkpt><trkpt lat="46.05606742618444" lon="11.237586109264432"><ele>472.0</ele><time>2026-03-29T09:36:38Z</time></trkpt><trkpt lat="46.056197919728646" lon="11.237474657517451"><ele>472.0</ele><time>2026-03-29T09:36:38.999Z</time></trkpt><trkpt lat="46.056327881701684" lon="11.237392409215051"><ele>472.0</ele><time>2026-03-29T09:36:39.999Z</time></trkpt><trkpt lat="46.05644418910871" lon="11.237339985360215"><ele>472.0</ele><time>2026-03-29T09:36:40.999Z</time></trkpt><trkpt lat="46.05655386601731" lon="11.237301678163206"><ele>472.0</ele><time>2026-03-29T09:36:41.999Z</time></trkpt><trkpt lat="46.05665731478216" lon="11.237272140241545"><ele>471.0</ele><time>2026-03-29T09:36:42.999Z</time></trkpt><trkpt lat="46.05674854272943" lon="11.2372671034648"><ele>470.00000000000006</ele><time>2026-03-29T09:36:43.999Z</time></trkpt><trkpt lat="46.056857940304866" lon="11.237269803463365"><ele>469.00000000000006</ele><time>2026-03-29T09:36:44.999Z</time></trkpt><trkpt lat="46.05694043643383" lon="11.237262135882421"><ele>468.0</ele><time>2026-03-29T09:36:45.999Z</time></trkpt><trkpt lat="46.05704714277829" lon="11.237242458969892"><ele>467.0</ele><time>2026-03-29T09:36:47.999Z</time></trkpt><trkpt lat="46.0571832750458" lon="11.23725406210417"><ele>466.99999999999994</ele><time>2026-03-29T09:36:49.999Z</time></trkpt><trkpt lat="46.057257959889554" lon="11.237284386846826"><ele>467.0</ele><time>2026-03-29T09:36:50.999Z</time></trkpt><trkpt lat="46.057329101875496" lon="11.237290094781025"><ele>467.0</ele><time>2026-03-29T09:36:51.999Z</time></trkpt><trkpt lat="46.05739981233075" lon="11.237298042325214"><ele>467.0</ele><time>2026-03-29T09:36:52.999Z</time></trkpt><trkpt lat="46.057480432183965" lon="11.237195623892177"><ele>466.99999999999994</ele><time>2026-03-29T09:36:54.999Z</time></trkpt><trkpt lat="46.05744597925092" lon="11.237069246075908"><ele>467.0</ele><time>2026-03-29T09:36:55.999Z</time></trkpt><trkpt lat="46.05739102026757" lon="11.23700672040738"><ele>467.0</ele><time>2026-03-29T09:36:56.999Z</time></trkpt><trkpt lat="46.05731257155977" lon="11.236968035238968"><ele>467.00000000000006</ele><time>2026-03-29T09:36:57.999Z</time></trkpt><trkpt lat="46.0572237108356" lon="11.236930657991527"><ele>467.00000000000006</ele><time>2026-03-29T09:36:58.999Z</time></trkpt><trkpt lat="46.057122430364366" lon="11.236919778559933"><ele>467.0</ele><time>2026-03-29T09:36:59.999Z</time></trkpt><trkpt lat="46.057040907681454" lon="11.23684499166514"><ele>467.0</ele><time>2026-03-29T09:37:00.999Z</time></trkpt><trkpt lat="46.056962976067375" lon="11.236804500987539"><ele>467.0</ele><time>2026-03-29T09:37:01.999Z</time></trkpt><trkpt lat="46.05687590467167" lon="11.236754429010317"><ele>467.00000000000006</ele><time>2026-03-29T09:37:02.999Z</time></trkpt><trkpt lat="46.056781163123" lon="11.236708245627199"><ele>467.00000000000006</ele><time>2026-03-29T09:37:03.999Z</time></trkpt><trkpt lat="46.05668384354482" lon="11.236650420299316"><ele>467.0</ele><time>2026-03-29T09:37:04.999Z</time></trkpt><trkpt lat="46.05658574247978" lon="11.236591912765038"><ele>467.0</ele><time>2026-03-29T09:37:05.999Z</time></trkpt><trkpt lat="46.05650512160421" lon="11.236556672844722"><ele>466.40000000000003</ele><time>2026-03-29T09:37:06.999Z</time></trkpt><trkpt lat="46.056451936024324" lon="11.236427374175454"><ele>465.80000000000007</ele><time>2026-03-29T09:37:07.999Z</time></trkpt><trkpt lat="46.05639725239018" lon="11.236306929654452"><ele>465.2</ele><time>2026-03-29T09:37:08.999Z</time></trkpt><trkpt lat="46.056350578919016" lon="11.236183952033686"><ele>464.6</ele><time>2026-03-29T09:37:09.999Z</time></trkpt><trkpt lat="46.05630906280379" lon="11.236081846951375"><ele>464.0</ele><time>2026-03-29T09:37:10.999Z</time></trkpt><trkpt lat="46.05626187847464" lon="11.235969723766614"><ele>464.0</ele><time>2026-03-29T09:37:11.999Z</time></trkpt><trkpt lat="46.05622595289518" lon="11.23585714520143"><ele>464.0</ele><time>2026-03-29T09:37:12.999Z</time></trkpt><trkpt lat="46.0561546110981" lon="11.235787717394853"><ele>464.0</ele><time>2026-03-29T09:37:13.999Z</time></trkpt><trkpt lat="46.05607100952475" lon="11.235710157804986"><ele>464.0</ele><time>2026-03-29T09:37:14.999Z</time></trkpt><trkpt lat="46.05597834498012" lon="11.235638483960436"><ele>464.0</ele><time>2026-03-29T09:37:15.999Z</time></trkpt><trkpt lat="46.05587273204054" lon="11.235552700317687"><ele>464.0</ele><time>2026-03-29T09:37:16.999Z</time></trkpt><trkpt lat="46.0557667472602" lon="11.235456483495629"><ele>464.0</ele><time>2026-03-29T09:37:17.999Z</time></trkpt><trkpt lat="46.0556707820012" lon="11.235329939845977"><ele>464.0</ele><time>2026-03-29T09:37:18.999Z</time></trkpt><trkpt lat="46.05558548781507" lon="11.235178872273933"><ele>464.0</ele><time>2026-03-29T09:37:19.999Z</time></trkpt><trkpt lat="46.05553159140769" lon="11.234995840735163"><ele>463.75</ele><time>2026-03-29T09:37:20.999Z</time></trkpt><trkpt lat="46.05547520358138" lon="11.234802237229424"><ele>463.5</ele><time>2026-03-29T09:37:21.999Z</time></trkpt><trkpt lat="46.05542657601957" lon="11.234602462667917"><ele>463.25</ele><time>2026-03-29T09:37:22.999Z</time></trkpt><trkpt lat="46.0553720044661" lon="11.234394877789875"><ele>463.0</ele><time>2026-03-29T09:37:24Z</time></trkpt><trkpt lat="46.05531214756303" lon="11.234167187263429"><ele>462.6666666666667</ele><time>2026-03-29T09:37:25Z</time></trkpt><trkpt lat="46.055243110481136" lon="11.233904575793598"><ele>462.33333333333337</ele><time>2026-03-29T09:37:26Z</time></trkpt><trkpt lat="46.05518702899845" lon="11.233690912747202"><ele>462.0</ele><time>2026-03-29T09:37:27Z</time></trkpt><trkpt lat="46.05514233592649" lon="11.233517041858432"><ele>462.0</ele><time>2026-03-29T09:37:28Z</time></trkpt><trkpt lat="46.05510810775908" lon="11.233383883305413"><ele>462.00000000000006</ele><time>2026-03-29T09:37:29Z</time></trkpt><trkpt lat="46.05508240056295" lon="11.233270768711234"><ele>462.00000000000006</ele><time>2026-03-29T09:37:30Z</time></trkpt><trkpt lat="46.05504707894406" lon="11.233177850390502"><ele>462.0</ele><time>2026-03-29T09:37:31Z</time></trkpt><trkpt lat="46.05505171829114" lon="11.23305686676749"><ele>462.0</ele><time>2026-03-29T09:37:33Z</time></trkpt><trkpt lat="46.055188163745385" lon="11.233017138642966"><ele>462.25</ele><time>2026-03-29T09:37:34Z</time></trkpt><trkpt lat="46.05529961584145" lon="11.23294613141561"><ele>462.5</ele><time>2026-03-29T09:37:35Z</time></trkpt><trkpt lat="46.05544305357485" lon="11.232849616453631"><ele>462.75</ele><time>2026-03-29T09:37:36Z</time></trkpt><trkpt lat="46.05559179048044" lon="11.232742534593418"><ele>463.0</ele><time>2026-03-29T09:37:37Z</time></trkpt><trkpt lat="46.05571891488315" lon="11.232656996214699"><ele>463.00000000000006</ele><time>2026-03-29T09:37:38Z</time></trkpt><trkpt lat="46.05581593447086" lon="11.232593549872405"><ele>463.0</ele><time>2026-03-29T09:37:39Z</time></trkpt><trkpt lat="46.055892535187816" lon="11.232540167626"><ele>463.0</ele><time>2026-03-29T09:37:40Z</time></trkpt><trkpt lat="46.05596264235171" lon="11.23248515584238"><ele>463.0</ele><time>2026-03-29T09:37:41Z</time></trkpt><trkpt lat="46.05589473418905" lon="11.232525987242845"><ele>463.00000000000006</ele><time>2026-03-29T09:39:45Z</time></trkpt><trkpt lat="46.05583546994869" lon="11.232585395879784"><ele>463.0</ele><time>2026-03-29T09:39:50Z</time></trkpt><trkpt lat="46.05578097143161" lon="11.232648125690787"><ele>463.0</ele><time>2026-03-29T09:39:57Z</time></trkpt><trkpt lat="46.055704023872714" lon="11.232683256077753"><ele>462.99999999999994</ele><time>2026-03-29T09:40:04Z</time></trkpt><trkpt lat="46.0556436127382" lon="11.232718204799593"><ele>463.0</ele><time>2026-03-29T09:40:09Z</time></trkpt><trkpt lat="46.055590874648985" lon="11.232771275115038"><ele>463.0</ele><time>2026-03-29T09:40:14Z</time></trkpt><trkpt lat="46.05553792064555" lon="11.23282878725734"><ele>462.99999999999994</ele><time>2026-03-29T09:40:20Z</time></trkpt><trkpt lat="46.05558502413831" lon="11.232745505886381"><ele>463.0</ele><time>2026-03-29T09:40:41Z</time></trkpt><trkpt lat="46.05564515252573" lon="11.232698800127489"><ele>463.0</ele><time>2026-03-29T09:40:47Z</time></trkpt><trkpt lat="46.05570524290513" lon="11.232642249892002"><ele>463.0</ele><time>2026-03-29T09:41:09.999Z</time></trkpt><trkpt lat="46.05576947247071" lon="11.232596665552041"><ele>462.99999999999994</ele><time>2026-03-29T09:41:15.999Z</time></trkpt><trkpt lat="46.05583075880678" lon="11.232543667844702"><ele>463.0</ele><time>2026-03-29T09:41:21.999Z</time></trkpt><trkpt lat="46.05589233608422" lon="11.232504684635646"><ele>463.0</ele><time>2026-03-29T09:41:26.999Z</time></trkpt><trkpt lat="46.05583927257652" lon="11.23258513750709"><ele>462.99999999999994</ele><time>2026-03-29T09:43:27.999Z</time></trkpt><trkpt lat="46.05578270206234" lon="11.232627945908874"><ele>463.0</ele><time>2026-03-29T09:43:32.999Z</time></trkpt><trkpt lat="46.05571495686407" lon="11.23267728704054"><ele>463.0</ele><time>2026-03-29T09:43:38.999Z</time></trkpt><trkpt lat="46.055644663020466" lon="11.232723498750184"><ele>463.0</ele><time>2026-03-29T09:43:46Z</time></trkpt><trkpt lat="46.05558079991327" lon="11.232762060921319"><ele>462.99999999999994</ele><time>2026-03-29T09:43:51Z</time></trkpt><trkpt lat="46.055517116750494" lon="11.232800086311522"><ele>463.0</ele><time>2026-03-29T09:43:57Z</time></trkpt><trkpt lat="46.05545657991228" lon="11.23283025903555"><ele>463.0</ele><time>2026-03-29T09:44:04Z</time></trkpt><trkpt lat="46.05538670174406" lon="11.232878457976183"><ele>462.99999999999994</ele><time>2026-03-29T09:44:15Z</time></trkpt><trkpt lat="46.05532431340263" lon="11.232925309361974"><ele>463.0</ele><time>2026-03-29T09:44:23Z</time></trkpt><trkpt lat="46.05525845003934" lon="11.232963831842069"><ele>463.0</ele><time>2026-03-29T09:44:29Z</time></trkpt><trkpt lat="46.05531063593051" lon="11.2328997421121"><ele>463.0</ele><time>2026-03-29T09:44:39Z</time></trkpt><trkpt lat="46.05536944277894" lon="11.232851635657797"><ele>462.99999999999994</ele><time>2026-03-29T09:44:45Z</time></trkpt><trkpt lat="46.05542831411593" lon="11.232796176363596"><ele>463.0</ele><time>2026-03-29T09:44:51.999Z</time></trkpt><trkpt lat="46.055492187047555" lon="11.23279912693164"><ele>463.0</ele><time>2026-03-29T09:44:58.999Z</time></trkpt><trkpt lat="46.05555309995929" lon="11.23273416547535"><ele>462.99999999999994</ele><time>2026-03-29T09:45:07.999Z</time></trkpt><trkpt lat="46.055619256147395" lon="11.232693351032774"><ele>463.0</ele><time>2026-03-29T09:45:15.999Z</time></trkpt><trkpt lat="46.05567812961881" lon="11.232660157530491"><ele>463.0</ele><time>2026-03-29T09:45:25.999Z</time></trkpt><trkpt lat="46.055735782812405" lon="11.23261859162948"><ele>463.0</ele><time>2026-03-29T09:45:32.999Z</time></trkpt><trkpt lat="46.055794335697776" lon="11.23257763547199"><ele>462.99999999999994</ele><time>2026-03-29T09:45:40.999Z</time></trkpt><trkpt lat="46.055855616150914" lon="11.232528895559431"><ele>463.0</ele><time>2026-03-29T09:45:46.999Z</time></trkpt><trkpt lat="46.05591525337154" lon="11.232490770600249"><ele>463.0</ele><time>2026-03-29T09:45:53Z</time></trkpt><trkpt lat="46.0559095086935" lon="11.232593466987947"><ele>462.99999999999994</ele><time>2026-03-29T09:47:09.999Z</time></trkpt><trkpt lat="46.055837299932044" lon="11.23259314848101"><ele>463.0</ele><time>2026-03-29T09:47:15.999Z</time></trkpt><trkpt lat="46.055773768662" lon="11.232631516156761"><ele>463.0</ele><time>2026-03-29T09:47:23.999Z</time></trkpt><trkpt lat="46.05571346961584" lon="11.23266154531243"><ele>463.0</ele><time>2026-03-29T09:47:30.999Z</time></trkpt><trkpt lat="46.055648396522244" lon="11.23271047217452"><ele>462.99999999999994</ele><time>2026-03-29T09:47:37.999Z</time></trkpt><trkpt lat="46.055584953273204" lon="11.232756191081323"><ele>463.0</ele><time>2026-03-29T09:47:44.999Z</time></trkpt><trkpt lat="46.055549488699896" lon="11.232835871700347"><ele>463.0</ele><time>2026-03-29T09:47:51.999Z</time></trkpt><trkpt lat="46.055488180869794" lon="11.232865144286535"><ele>462.99999999999994</ele><time>2026-03-29T09:47:58Z</time></trkpt><trkpt lat="46.05543367527169" lon="11.232912183692967"><ele>463.0</ele><time>2026-03-29T09:48:06Z</time></trkpt><trkpt lat="46.05537218611694" lon="11.232887238764258"><ele>463.0</ele><time>2026-03-29T09:48:12Z</time></trkpt><trkpt lat="46.055315917200495" lon="11.23292910324444"><ele>463.0</ele><time>2026-03-29T09:48:18Z</time></trkpt><trkpt lat="46.05525290400377" lon="11.232971374682837"><ele>462.99999999999994</ele><time>2026-03-29T09:48:27Z</time></trkpt><trkpt lat="46.05519134128064" lon="11.233003788084844"><ele>463.0</ele><time>2026-03-29T09:48:35Z</time></trkpt><trkpt lat="46.05514066989092" lon="11.233059992999761"><ele>463.0</ele><time>2026-03-29T09:48:49Z</time></trkpt><trkpt lat="46.0550712764177" lon="11.233035982165092"><ele>462.99999999999994</ele><time>2026-03-29T09:48:56Z</time></trkpt><trkpt lat="46.05513062163049" lon="11.233004155288809"><ele>463.0</ele><time>2026-03-29T09:49:10.999Z</time></trkpt><trkpt lat="46.05519304471083" lon="11.232982836992068"><ele>463.0</ele><time>2026-03-29T09:49:21.999Z</time></trkpt><trkpt lat="46.0552622070229" lon="11.232986937876996"><ele>463.0</ele><time>2026-03-29T09:49:36.999Z</time></trkpt><trkpt lat="46.05530189194634" lon="11.232908603096528"><ele>462.99999999999994</ele><time>2026-03-29T09:49:54.999Z</time></trkpt><trkpt lat="46.055362769167964" lon="11.232935911238654"><ele>463.0</ele><time>2026-03-29T09:50:05Z</time></trkpt><trkpt lat="46.05530551566262" lon="11.232981468103864"><ele>463.0</ele><time>2026-03-29T09:50:13Z</time></trkpt><trkpt lat="46.05531105451078" lon="11.23289035488766"><ele>462.99999999999994</ele><time>2026-03-29T09:50:24Z</time></trkpt><trkpt lat="46.05537208215238" lon="11.232865178502522"><ele>463.0</ele><time>2026-03-29T09:50:30Z</time></trkpt><trkpt lat="46.055432436918736" lon="11.232829211603018"><ele>463.0</ele><time>2026-03-29T09:50:38Z</time></trkpt><trkpt lat="46.05549746032892" lon="11.232801938027679"><ele>463.0</ele><time>2026-03-29T09:50:47Z</time></trkpt><trkpt lat="46.055563481455536" lon="11.232759811244769"><ele>462.99999999999994</ele><time>2026-03-29T09:51:03Z</time></trkpt><trkpt lat="46.055521638029056" lon="11.23282942571313"><ele>463.0</ele><time>2026-03-29T09:51:27.999Z</time></trkpt><trkpt lat="46.05546188628147" lon="11.232874699236016"><ele>463.0</ele><time>2026-03-29T09:51:40.999Z</time></trkpt><trkpt lat="46.05540275526381" lon="11.232913005518363"><ele>462.99999999999994</ele><time>2026-03-29T09:51:52.999Z</time></trkpt><trkpt lat="46.05533761550833" lon="11.232951798089086"><ele>463.0</ele><time>2026-03-29T09:52:00.999Z</time></trkpt><trkpt lat="46.05528271809133" lon="11.233010306488096"><ele>463.0</ele><time>2026-03-29T09:52:09Z</time></trkpt><trkpt lat="46.055222248853156" lon="11.233052549464006"><ele>463.0</ele><time>2026-03-29T09:52:18Z</time></trkpt><trkpt lat="46.05515281472777" lon="11.233031066331646"><ele>462.99999999999994</ele><time>2026-03-29T09:52:26Z</time></trkpt><trkpt lat="46.05508429855343" lon="11.233040064772355"><ele>463.0</ele><time>2026-03-29T09:52:33Z</time></trkpt><trkpt lat="46.05514822593483" lon="11.233011930851584"><ele>463.0</ele><time>2026-03-29T09:53:42.999Z</time></trkpt><trkpt lat="46.055211100867595" lon="11.232962920240187"><ele>462.99999999999994</ele><time>2026-03-29T09:53:53.999Z</time></trkpt><trkpt lat="46.05527203134338" lon="11.232913960672546"><ele>463.0</ele><time>2026-03-29T09:54:08.999Z</time></trkpt><trkpt lat="46.055336196524074" lon="11.23288399740995"><ele>463.0</ele><time>2026-03-29T09:54:20Z</time></trkpt><trkpt lat="46.05539776266926" lon="11.232831364969206"><ele>463.0</ele><time>2026-03-29T09:54:29Z</time></trkpt><trkpt lat="46.05545805537877" lon="11.232792894542"><ele>462.99999999999994</ele><time>2026-03-29T09:54:36Z</time></trkpt><trkpt lat="46.05551717614714" lon="11.232747252846774"><ele>463.0</ele><time>2026-03-29T09:54:49Z</time></trkpt><trkpt lat="46.05557995917232" lon="11.232704078462918"><ele>463.0</ele><time>2026-03-29T09:54:56Z</time></trkpt><trkpt lat="46.055643671359135" lon="11.232683645016655"><ele>462.99999999999994</ele><time>2026-03-29T09:55:03Z</time></trkpt><trkpt lat="46.05570961295628" lon="11.23268605046492"><ele>463.0</ele><time>2026-03-29T09:55:13Z</time></trkpt><trkpt lat="46.05573787760713" lon="11.232604673242646"><ele>463.0</ele><time>2026-03-29T09:55:18.999Z</time></trkpt><trkpt lat="46.05580292630799" lon="11.232586629077003"><ele>463.0</ele><time>2026-03-29T09:55:29.999Z</time></trkpt><trkpt lat="46.055872253582315" lon="11.232556710619818"><ele>462.99999999999994</ele><time>2026-03-29T09:55:40.999Z</time></trkpt><trkpt lat="46.055834666010234" lon="11.232641153659152"><ele>463.0</ele><time>2026-03-29T09:55:51.999Z</time></trkpt><trkpt lat="46.055774536871006" lon="11.232684782967281"><ele>463.0</ele><time>2026-03-29T09:55:58.999Z</time></trkpt><trkpt lat="46.05570869126513" lon="11.232717457114266"><ele>462.99999999999994</ele><time>2026-03-29T09:56:05.999Z</time></trkpt><trkpt lat="46.055653590179546" lon="11.232766234121168"><ele>463.0</ele><time>2026-03-29T09:56:12.999Z</time></trkpt><trkpt lat="46.05559333277277" lon="11.232807394429214"><ele>463.0</ele><time>2026-03-29T09:56:21Z</time></trkpt><trkpt lat="46.0554724510695" lon="11.232880120523674"><ele>463.0</ele><time>2026-03-29T09:56:40Z</time></trkpt><trkpt lat="46.05541415737918" lon="11.232917899343036"><ele>462.99999999999994</ele><time>2026-03-29T09:56:46Z</time></trkpt><trkpt lat="46.05535164072074" lon="11.232956945269361"><ele>463.0</ele><time>2026-03-29T09:56:53Z</time></trkpt><trkpt lat="46.05529299776881" lon="11.233010569889494"><ele>463.0</ele><time>2026-03-29T09:57:03Z</time></trkpt><trkpt lat="46.05523573058644" lon="11.233051568772172"><ele>462.99999999999994</ele><time>2026-03-29T09:57:12Z</time></trkpt><trkpt lat="46.05517477693346" lon="11.233090340734984"><ele>463.0</ele><time>2026-03-29T09:57:21Z</time></trkpt><trkpt lat="46.05511353213865" lon="11.233064772850657"><ele>463.0</ele><time>2026-03-29T09:57:27.999Z</time></trkpt><trkpt lat="46.055060724683024" lon="11.233012117655182"><ele>463.0</ele><time>2026-03-29T10:02:47Z</time></trkpt></trkseg><trkseg><trkpt lat="46.08277397413396" lon="11.230899834839251"><ele>557.0</ele><time>2026-03-29T12:45:02Z</time></trkpt><trkpt lat="46.082709142505394" lon="11.230877122634128"><ele>557.0</ele><time>2026-03-29T12:45:33.999Z</time></trkpt><trkpt lat="46.08264207341623" lon="11.230966524742525"><ele>557.0</ele><time>2026-03-29T12:45:37.999Z</time></trkpt><trkpt lat="46.08258954082959" lon="11.231064557272282"><ele>557.0</ele><time>2026-03-29T12:45:39.999Z</time></trkpt><trkpt lat="46.08253823271672" lon="11.231118259445234"><ele>557.0</ele><time>2026-03-29T12:45:40.999Z</time></trkpt><trkpt lat="46.08246673155175" lon="11.231184721812209"><ele>557.0</ele><time>2026-03-29T12:45:41.999Z</time></trkpt><trkpt lat="46.082391767377196" lon="11.23125824701675"><ele>558.3333333333333</ele><time>2026-03-29T12:45:42.999Z</time></trkpt><trkpt lat="46.08232850770277" lon="11.231317885918518"><ele>559.6666666666666</ele><time>2026-03-29T12:45:43.999Z</time></trkpt><trkpt lat="46.08227007723604" lon="11.231379874186084"><ele>561.0</ele><time>2026-03-29T12:45:44.999Z</time></trkpt><trkpt lat="46.08217341332959" lon="11.231457943979104"><ele>562.3333333333334</ele><time>2026-03-29T12:45:46.999Z</time></trkpt><trkpt lat="46.0821009758891" lon="11.231526336522615"><ele>563.6666666666667</ele><time>2026-03-29T12:45:48.999Z</time></trkpt><trkpt lat="46.08204263456647" lon="11.231583679212026"><ele>565.0</ele><time>2026-03-29T12:45:51.999Z</time></trkpt><trkpt lat="46.08212537544899" lon="11.23151699710817"><ele>563.4</ele><time>2026-03-29T12:45:59.999Z</time></trkpt><trkpt lat="46.08221076812318" lon="11.231437091981588"><ele>561.8</ele><time>2026-03-29T12:46:01.999Z</time></trkpt><trkpt lat="46.082320603080916" lon="11.231324002181543"><ele>560.2</ele><time>2026-03-29T12:46:03.999Z</time></trkpt><trkpt lat="46.08238879164476" lon="11.231264423297533"><ele>558.6</ele><time>2026-03-29T12:46:04.999Z</time></trkpt><trkpt lat="46.082452071396716" lon="11.231187386745352"><ele>557.0</ele><time>2026-03-29T12:46:05.999Z</time></trkpt><trkpt lat="46.082530902638446" lon="11.2311248343733"><ele>557.0</ele><time>2026-03-29T12:46:06.999Z</time></trkpt><trkpt lat="46.0825944803697" lon="11.23106386269322"><ele>557.0</ele><time>2026-03-29T12:46:07.999Z</time></trkpt><trkpt lat="46.08263994131521" lon="11.230933261626554"><ele>557.0</ele><time>2026-03-29T12:46:09.999Z</time></trkpt><trkpt lat="46.08263404530306" lon="11.230664899255371"><ele>557.0</ele><time>2026-03-29T12:46:11.999Z</time></trkpt><trkpt lat="46.08265037545536" lon="11.230525100194598"><ele>556.75</ele><time>2026-03-29T12:46:12.999Z</time></trkpt><trkpt lat="46.082684691369856" lon="11.230388818428745"><ele>556.5</ele><time>2026-03-29T12:46:13.999Z</time></trkpt><trkpt lat="46.08273847791215" lon="11.230241858558891"><ele>556.25</ele><time>2026-03-29T12:46:14.999Z</time></trkpt><trkpt lat="46.08280583447592" lon="11.230104347037377"><ele>556.0</ele><time>2026-03-29T12:46:15.999Z</time></trkpt><trkpt lat="46.082899428716125" lon="11.229962782701572"><ele>557.6666666666667</ele><time>2026-03-29T12:46:16.999Z</time></trkpt><trkpt lat="46.08298415794312" lon="11.229767351176683"><ele>559.3333333333334</ele><time>2026-03-29T12:46:17.999Z</time></trkpt><trkpt lat="46.08308562604218" lon="11.229584563303206"><ele>561.0</ele><time>2026-03-29T12:46:18.999Z</time></trkpt><trkpt lat="46.083174531075365" lon="11.229423969729964"><ele>561.0</ele><time>2026-03-29T12:46:19.999Z</time></trkpt><trkpt lat="46.08325076148148" lon="11.229282764376316"><ele>561.0</ele><time>2026-03-29T12:46:20.999Z</time></trkpt><trkpt lat="46.08331343391944" lon="11.22913022635618"><ele>561.0</ele><time>2026-03-29T12:46:21.999Z</time></trkpt><trkpt lat="46.08335907695761" lon="11.228961298083895"><ele>561.0</ele><time>2026-03-29T12:46:22.999Z</time></trkpt><trkpt lat="46.083381381259" lon="11.228770970519745"><ele>558.5</ele><time>2026-03-29T12:46:24Z</time></trkpt><trkpt lat="46.08340318793983" lon="11.228581712098352"><ele>556.0</ele><time>2026-03-29T12:46:25Z</time></trkpt><trkpt lat="46.08342704729672" lon="11.22838368395294"><ele>553.5</ele><time>2026-03-29T12:46:26Z</time></trkpt><trkpt lat="46.08344907412009" lon="11.228184410673885"><ele>551.0</ele><time>2026-03-29T12:46:27Z</time></trkpt><trkpt lat="46.083456494930836" lon="11.227978151132916"><ele>549.0</ele><time>2026-03-29T12:46:28Z</time></trkpt><trkpt lat="46.0834457993401" lon="11.227771488919569"><ele>547.0</ele><time>2026-03-29T12:46:29Z</time></trkpt><trkpt lat="46.0834044903804" lon="11.227554630709747"><ele>545.0</ele><time>2026-03-29T12:46:30Z</time></trkpt><trkpt lat="46.08338973982948" lon="11.227379141043368"><ele>543.0</ele><time>2026-03-29T12:46:31Z</time></trkpt><trkpt lat="46.08344269810639" lon="11.22720585854178"><ele>543.0</ele><time>2026-03-29T12:46:32Z</time></trkpt><trkpt lat="46.08348978681766" lon="11.227010209271995"><ele>543.0</ele><time>2026-03-29T12:46:33Z</time></trkpt><trkpt lat="46.08352370095979" lon="11.226800022021513"><ele>543.0</ele><time>2026-03-29T12:46:34Z</time></trkpt><trkpt lat="46.0835761035493" lon="11.226601036509793"><ele>543.0</ele><time>2026-03-29T12:46:35Z</time></trkpt><trkpt lat="46.08362671424402" lon="11.22638885576535"><ele>543.0</ele><time>2026-03-29T12:46:36Z</time></trkpt><trkpt lat="46.083675918207106" lon="11.22617613930831"><ele>543.0</ele><time>2026-03-29T12:46:37Z</time></trkpt><trkpt lat="46.0837219789043" lon="11.225992581381917"><ele>543.0</ele><time>2026-03-29T12:46:38Z</time></trkpt><trkpt lat="46.0837930714017" lon="11.225841672894916"><ele>543.0</ele><time>2026-03-29T12:46:39Z</time></trkpt><trkpt lat="46.08387758882" lon="11.225694784935508"><ele>544.6666666666666</ele><time>2026-03-29T12:46:40Z</time></trkpt><trkpt lat="46.083972570386734" lon="11.225529444087229"><ele>546.3333333333333</ele><time>2026-03-29T12:46:41Z</time></trkpt><trkpt lat="46.08406981033255" lon="11.22536017191825"><ele>548.0</ele><time>2026-03-29T12:46:42Z</time></trkpt><trkpt lat="46.08417072824701" lon="11.225184913790397"><ele>549.0</ele><time>2026-03-29T12:46:43Z</time></trkpt><trkpt lat="46.084254373325386" lon="11.225009420431345"><ele>550.0</ele><time>2026-03-29T12:46:44Z</time></trkpt><trkpt lat="46.08433312508855" lon="11.22485945081482"><ele>551.0</ele><time>2026-03-29T12:46:45Z</time></trkpt><trkpt lat="46.08439661624592" lon="11.224693310225096"><ele>552.0</ele><time>2026-03-29T12:46:46Z</time></trkpt><trkpt lat="46.08443562056901" lon="11.224509336817558"><ele>550.25</ele><time>2026-03-29T12:46:47Z</time></trkpt><trkpt lat="46.084444571581166" lon="11.224298878062136"><ele>548.5</ele><time>2026-03-29T12:46:48Z</time></trkpt><trkpt lat="46.08444824109788" lon="11.224085353322462"><ele>546.75</ele><time>2026-03-29T12:46:49Z</time></trkpt><trkpt lat="46.08444840235041" lon="11.223866544767704"><ele>545.0</ele><time>2026-03-29T12:46:50Z</time></trkpt><trkpt lat="46.08444269940435" lon="11.223676324440735"><ele>545.0</ele><time>2026-03-29T12:46:51Z</time></trkpt><trkpt lat="46.08443734125062" lon="11.223505921035281"><ele>545.0</ele><time>2026-03-29T12:46:52Z</time></trkpt><trkpt lat="46.08440683012645" lon="11.223337752835244"><ele>545.0</ele><time>2026-03-29T12:46:53Z</time></trkpt><trkpt lat="46.0843799007514" lon="11.223174609820783"><ele>545.0</ele><time>2026-03-29T12:46:54Z</time></trkpt><trkpt lat="46.08434396635085" lon="11.223016765987895"><ele>544.8</ele><time>2026-03-29T12:46:55Z</time></trkpt><trkpt lat="46.08431003151128" lon="11.222865677908443"><ele>544.6</ele><time>2026-03-29T12:46:56Z</time></trkpt><trkpt lat="46.08427412083184" lon="11.222723959290986"><ele>544.4</ele><time>2026-03-29T12:46:57Z</time></trkpt><trkpt lat="46.084230416024624" lon="11.2225781102523"><ele>544.2</ele><time>2026-03-29T12:46:58Z</time></trkpt><trkpt lat="46.08418402966225" lon="11.222429673411055"><ele>544.0</ele><time>2026-03-29T12:46:59Z</time></trkpt><trkpt lat="46.084139782542216" lon="11.222269881343596"><ele>545.8</ele><time>2026-03-29T12:47:00Z</time></trkpt><trkpt lat="46.08409512574182" lon="11.222108972933338"><ele>547.5999999999999</ele><time>2026-03-29T12:47:01Z</time></trkpt><trkpt lat="46.084053768048115" lon="11.22195260021785"><ele>549.4</ele><time>2026-03-29T12:47:02Z</time></trkpt><trkpt lat="46.084023057999005" lon="11.221825427476132"><ele>551.1999999999999</ele><time>2026-03-29T12:47:03Z</time></trkpt><trkpt lat="46.083993703951485" lon="11.221714528167773"><ele>553.0</ele><time>2026-03-29T12:47:04Z</time></trkpt><trkpt lat="46.08396384586336" lon="11.221633649178873"><ele>553.0</ele><time>2026-03-29T12:47:05Z</time></trkpt><trkpt lat="46.083865501078705" lon="11.221508285963681"><ele>553.0</ele><time>2026-03-29T12:47:07Z</time></trkpt><trkpt lat="46.08378602367442" lon="11.221453574989665"><ele>553.0</ele><time>2026-03-29T12:47:08Z</time></trkpt><trkpt lat="46.08370691189345" lon="11.221411818385223"><ele>553.0</ele><time>2026-03-29T12:47:09Z</time></trkpt><trkpt lat="46.08361432444349" lon="11.22134119002903"><ele>553.0</ele><time>2026-03-29T12:47:10Z</time></trkpt><trkpt lat="46.08353765728037" lon="11.221304360154116"><ele>552.8333333333334</ele><time>2026-03-29T12:47:11Z</time></trkpt><trkpt lat="46.083486846167915" lon="11.221238958935501"><ele>552.6666666666667</ele><time>2026-03-29T12:47:12Z</time></trkpt><trkpt lat="46.08338667066218" lon="11.22118025985286"><ele>552.5</ele><time>2026-03-29T12:47:14Z</time></trkpt><trkpt lat="46.08333849981038" lon="11.221119263194913"><ele>552.3333333333334</ele><time>2026-03-29T12:47:15Z</time></trkpt><trkpt lat="46.08329880086223" lon="11.221037281821593"><ele>552.1666666666666</ele><time>2026-03-29T12:47:15.999Z</time></trkpt><trkpt lat="46.083252740712034" lon="11.22095645688576"><ele>552.0</ele><time>2026-03-29T12:47:16.999Z</time></trkpt><trkpt lat="46.083207003127825" lon="11.220821314247742"><ele>550.8000000000001</ele><time>2026-03-29T12:47:18.999Z</time></trkpt><trkpt lat="46.08319613066081" lon="11.220727850428753"><ele>549.6</ele><time>2026-03-29T12:47:20.999Z</time></trkpt><trkpt lat="46.08322085880078" lon="11.220592589532174"><ele>548.4000000000001</ele><time>2026-03-29T12:47:22.999Z</time></trkpt><trkpt lat="46.08329556926615" lon="11.220498860398846"><ele>547.2</ele><time>2026-03-29T12:47:23.999Z</time></trkpt><trkpt lat="46.08333378959381" lon="11.22036091875658"><ele>546.0</ele><time>2026-03-29T12:47:24.999Z</time></trkpt><trkpt lat="46.083371594186204" lon="11.22021849924621"><ele>546.0</ele><time>2026-03-29T12:47:25.999Z</time></trkpt><trkpt lat="46.08342822872792" lon="11.220078363512389"><ele>546.0</ele><time>2026-03-29T12:47:26.999Z</time></trkpt><trkpt lat="46.08348687779954" lon="11.21993939248148"><ele>546.0</ele><time>2026-03-29T12:47:27.999Z</time></trkpt><trkpt lat="46.083552645042936" lon="11.219796060123578"><ele>546.0</ele><time>2026-03-29T12:47:28.999Z</time></trkpt><trkpt lat="46.08360714076804" lon="11.219634290584526"><ele>545.5</ele><time>2026-03-29T12:47:29.999Z</time></trkpt><trkpt lat="46.08367007548577" lon="11.219479103842348"><ele>545.0</ele><time>2026-03-29T12:47:30.999Z</time></trkpt><trkpt lat="46.08374892515016" lon="11.21932861659604"><ele>544.5</ele><time>2026-03-29T12:47:31.999Z</time></trkpt><trkpt lat="46.083813989559964" lon="11.219168584065171"><ele>544.0</ele><time>2026-03-29T12:47:32.999Z</time></trkpt><trkpt lat="46.08387399620682" lon="11.219020991613432"><ele>544.2</ele><time>2026-03-29T12:47:33.999Z</time></trkpt><trkpt lat="46.08393229512415" lon="11.2188775995078"><ele>544.4</ele><time>2026-03-29T12:47:34.999Z</time></trkpt><trkpt lat="46.08398376681211" lon="11.218750999655686"><ele>544.6</ele><time>2026-03-29T12:47:35.999Z</time></trkpt><trkpt lat="46.08402189844557" lon="11.2186088224352"><ele>544.8</ele><time>2026-03-29T12:47:36.999Z</time></trkpt><trkpt lat="46.084078637958264" lon="11.218476804673369"><ele>545.0</ele><time>2026-03-29T12:47:37.999Z</time></trkpt><trkpt lat="46.0841364941729" lon="11.218340355350062"><ele>545.0</ele><time>2026-03-29T12:47:38.999Z</time></trkpt><trkpt lat="46.08421476517243" lon="11.218199542333492"><ele>545.0</ele><time>2026-03-29T12:47:39.999Z</time></trkpt><trkpt lat="46.08428039215649" lon="11.218057253627338"><ele>545.0</ele><time>2026-03-29T12:47:40.999Z</time></trkpt><trkpt lat="46.08434988152397" lon="11.217906590716554"><ele>545.0</ele><time>2026-03-29T12:47:41.999Z</time></trkpt><trkpt lat="46.08442354753826" lon="11.217746872259852"><ele>544.6</ele><time>2026-03-29T12:47:42.999Z</time></trkpt><trkpt lat="46.08448961751818" lon="11.217603623070064"><ele>544.2</ele><time>2026-03-29T12:47:43.999Z</time></trkpt><trkpt lat="46.08454382012871" lon="11.217486104044069"><ele>543.8</ele><time>2026-03-29T12:47:44.999Z</time></trkpt><trkpt lat="46.084594708862625" lon="11.21737576997137"><ele>543.4</ele><time>2026-03-29T12:47:45.999Z</time></trkpt><trkpt lat="46.084637844064865" lon="11.217267847184962"><ele>543.0</ele><time>2026-03-29T12:47:46.999Z</time></trkpt><trkpt lat="46.08467298093298" lon="11.217180932990074"><ele>542.6666666666666</ele><time>2026-03-29T12:47:47.999Z</time></trkpt><trkpt lat="46.08472471543124" lon="11.217061858632116"><ele>542.3333333333334</ele><time>2026-03-29T12:47:49.999Z</time></trkpt><trkpt lat="46.084763652971745" lon="11.216969725268223"><ele>542.0</ele><time>2026-03-29T12:47:51.999Z</time></trkpt><trkpt lat="46.08480082050489" lon="11.216884053921946"><ele>541.6666666666667</ele><time>2026-03-29T12:47:54.999Z</time></trkpt><trkpt lat="46.084839721337794" lon="11.216809314024946"><ele>541.3333333333334</ele><time>2026-03-29T12:49:08Z</time></trkpt><trkpt lat="46.08487696747516" lon="11.216652612918917"><ele>541.0</ele><time>2026-03-29T12:49:10Z</time></trkpt><trkpt lat="46.08490401925388" lon="11.216561092454219"><ele>542.6666666666667</ele><time>2026-03-29T12:49:11Z</time></trkpt><trkpt lat="46.084960467030086" lon="11.216488600428768"><ele>544.3333333333334</ele><time>2026-03-29T12:49:12Z</time></trkpt><trkpt lat="46.08499418687462" lon="11.216403117170369"><ele>546.0</ele><time>2026-03-29T12:49:13Z</time></trkpt><trkpt lat="46.085026680308154" lon="11.216320743082148"><ele>547.6666666666666</ele><time>2026-03-29T12:49:14Z</time></trkpt><trkpt lat="46.085060096911484" lon="11.216236028622586"><ele>549.3333333333333</ele><time>2026-03-29T12:49:15Z</time></trkpt><trkpt lat="46.08512227977806" lon="11.216078388753298"><ele>551.0</ele><time>2026-03-29T12:49:17Z</time></trkpt><trkpt lat="46.08515729915593" lon="11.215989611269665"><ele>551.1666666666666</ele><time>2026-03-29T12:49:18Z</time></trkpt><trkpt lat="46.08519118546737" lon="11.2159037066382"><ele>551.3333333333333</ele><time>2026-03-29T12:49:19Z</time></trkpt><trkpt lat="46.0852277675269" lon="11.215811184396395"><ele>551.5</ele><time>2026-03-29T12:49:20Z</time></trkpt><trkpt lat="46.08525834894341" lon="11.21570934983942"><ele>551.6666666666666</ele><time>2026-03-29T12:49:21Z</time></trkpt><trkpt lat="46.08531207494799" lon="11.215634302749411"><ele>551.8333333333334</ele><time>2026-03-29T12:49:22Z</time></trkpt><trkpt lat="46.085383171462254" lon="11.215510971011158"><ele>552.0</ele><time>2026-03-29T12:49:24Z</time></trkpt><trkpt lat="46.08542091444307" lon="11.21543413755345"><ele>551.4</ele><time>2026-03-29T12:49:25Z</time></trkpt><trkpt lat="46.085455557946325" lon="11.215341887634484"><ele>550.8000000000001</ele><time>2026-03-29T12:49:26Z</time></trkpt><trkpt lat="46.08550716871335" lon="11.215253513575522"><ele>550.2</ele><time>2026-03-29T12:49:27Z</time></trkpt><trkpt lat="46.08558839214712" lon="11.215161176910417"><ele>549.6</ele><time>2026-03-29T12:49:28Z</time></trkpt><trkpt lat="46.08566245432001" lon="11.21508641640103"><ele>549.0</ele><time>2026-03-29T12:49:29Z</time></trkpt><trkpt lat="46.08574919889248" lon="11.215000826953053"><ele>548.1666666666666</ele><time>2026-03-29T12:49:30Z</time></trkpt><trkpt lat="46.085836411894604" lon="11.214914775316444"><ele>547.3333333333334</ele><time>2026-03-29T12:49:31Z</time></trkpt><trkpt lat="46.08590681667772" lon="11.21484530806946"><ele>546.5</ele><time>2026-03-29T12:49:32Z</time></trkpt><trkpt lat="46.08597899476387" lon="11.214773296304406"><ele>545.6666666666667</ele><time>2026-03-29T12:49:33Z</time></trkpt><trkpt lat="46.08604597830084" lon="11.214703780909117"><ele>544.8333333333334</ele><time>2026-03-29T12:49:34Z</time></trkpt><trkpt lat="46.08609363371484" lon="11.214626279216182"><ele>544.0</ele><time>2026-03-29T12:49:35Z</time></trkpt><trkpt lat="46.08617817935043" lon="11.214524714447903"><ele>542.6</ele><time>2026-03-29T12:49:37Z</time></trkpt><trkpt lat="46.08624831827488" lon="11.21444910051673"><ele>541.2</ele><time>2026-03-29T12:49:39Z</time></trkpt><trkpt lat="46.086240091389804" lon="11.214344233279482"><ele>539.8000000000001</ele><time>2026-03-29T12:49:41Z</time></trkpt><trkpt lat="46.086134914066" lon="11.214217889381377"><ele>538.4</ele><time>2026-03-29T12:49:43Z</time></trkpt><trkpt lat="46.086051624553065" lon="11.214123954362597"><ele>537.0</ele><time>2026-03-29T12:49:44Z</time></trkpt><trkpt lat="46.08597700777538" lon="11.21399754925597"><ele>536.75</ele><time>2026-03-29T12:49:45Z</time></trkpt><trkpt lat="46.08592072433635" lon="11.213855567194834"><ele>536.5</ele><time>2026-03-29T12:49:46Z</time></trkpt><trkpt lat="46.08589770293842" lon="11.213712833175347"><ele>536.25</ele><time>2026-03-29T12:49:47Z</time></trkpt><trkpt lat="46.08589791851423" lon="11.213545799034188"><ele>536.0</ele><time>2026-03-29T12:49:48Z</time></trkpt><trkpt lat="46.08594876624009" lon="11.213375989534832"><ele>536.0</ele><time>2026-03-29T12:49:49Z</time></trkpt><trkpt lat="46.08600163861738" lon="11.213196819037805"><ele>536.0</ele><time>2026-03-29T12:49:50Z</time></trkpt><trkpt lat="46.08604860501473" lon="11.213003658482016"><ele>536.0</ele><time>2026-03-29T12:49:51Z</time></trkpt><trkpt lat="46.086089227362564" lon="11.212783510328778"><ele>536.0</ele><time>2026-03-29T12:49:52Z</time></trkpt><trkpt lat="46.08614094843043" lon="11.212561030981805"><ele>535.3333333333333</ele><time>2026-03-29T12:49:53Z</time></trkpt><trkpt lat="46.08620156612205" lon="11.212331145041523"><ele>534.6666666666666</ele><time>2026-03-29T12:49:54Z</time></trkpt><trkpt lat="46.08625137384537" lon="11.212128261970152"><ele>534.0</ele><time>2026-03-29T12:49:55Z</time></trkpt><trkpt lat="46.0863062834238" lon="11.211940494568845"><ele>532.25</ele><time>2026-03-29T12:49:56Z</time></trkpt><trkpt lat="46.08633455323939" lon="11.211757875876003"><ele>530.5</ele><time>2026-03-29T12:49:57Z</time></trkpt><trkpt lat="46.08634269528123" lon="11.21157449303065"><ele>528.75</ele><time>2026-03-29T12:49:58Z</time></trkpt><trkpt lat="46.086330095311226" lon="11.211395492564478"><ele>527.0</ele><time>2026-03-29T12:49:59Z</time></trkpt><trkpt lat="46.08628494295009" lon="11.211236244794472"><ele>525.75</ele><time>2026-03-29T12:50:00Z</time></trkpt><trkpt lat="46.08620892237684" lon="11.211084850038498"><ele>524.5</ele><time>2026-03-29T12:50:01Z</time></trkpt><trkpt lat="46.08611833994801" lon="11.210934933429385"><ele>523.25</ele><time>2026-03-29T12:50:02Z</time></trkpt><trkpt lat="46.086027117675506" lon="11.210780079662205"><ele>522.0</ele><time>2026-03-29T12:50:03Z</time></trkpt><trkpt lat="46.08594239806069" lon="11.21063194928823"><ele>521.8000000000001</ele><time>2026-03-29T12:50:03.999Z</time></trkpt><trkpt lat="46.08587335091977" lon="11.210495848886698"><ele>521.6</ele><time>2026-03-29T12:50:04.999Z</time></trkpt><trkpt lat="46.085808765137884" lon="11.210375780274058"><ele>521.4000000000001</ele><time>2026-03-29T12:50:05.999Z</time></trkpt><trkpt lat="46.08572955890518" lon="11.21026292521082"><ele>521.2</ele><time>2026-03-29T12:50:06.999Z</time></trkpt><trkpt lat="46.08564883134954" lon="11.210168841120106"><ele>521.0</ele><time>2026-03-29T12:50:07.999Z</time></trkpt><trkpt lat="46.08554671827473" lon="11.210103029909572"><ele>520.0</ele><time>2026-03-29T12:50:08.999Z</time></trkpt><trkpt lat="46.08542974979011" lon="11.210063153250383"><ele>519.0</ele><time>2026-03-29T12:50:09.999Z</time></trkpt><trkpt lat="46.08530865083824" lon="11.210013599699195"><ele>518.0</ele><time>2026-03-29T12:50:10.999Z</time></trkpt><trkpt lat="46.085190636614215" lon="11.209993784025066"><ele>517.0</ele><time>2026-03-29T12:50:11.999Z</time></trkpt><trkpt lat="46.08505746807502" lon="11.21014950611084"><ele>514.6666666666667</ele><time>2026-03-29T12:50:12.999Z</time></trkpt><trkpt lat="46.084926997891735" lon="11.210245664948681"><ele>512.3333333333334</ele><time>2026-03-29T12:50:13.999Z</time></trkpt><trkpt lat="46.084776462039585" lon="11.21036659178085"><ele>510.0</ele><time>2026-03-29T12:50:14.999Z</time></trkpt><trkpt lat="46.084607185002874" lon="11.210498923608705"><ele>510.5</ele><time>2026-03-29T12:50:15.999Z</time></trkpt><trkpt lat="46.0844088711022" lon="11.210662721526793"><ele>511.0</ele><time>2026-03-29T12:50:16.999Z</time></trkpt><trkpt lat="46.08418316768771" lon="11.210814496687677"><ele>509.0</ele><time>2026-03-29T12:50:17.999Z</time></trkpt><trkpt lat="46.0839613905422" lon="11.210954560585382"><ele>507.0</ele><time>2026-03-29T12:50:18.999Z</time></trkpt><trkpt lat="46.08377430347763" lon="11.21109293980279"><ele>507.0</ele><time>2026-03-29T12:50:19.999Z</time></trkpt><trkpt lat="46.083611990699225" lon="11.2112067354048"><ele>507.0</ele><time>2026-03-29T12:50:20.999Z</time></trkpt><trkpt lat="46.08346741752805" lon="11.211291554732988"><ele>507.0</ele><time>2026-03-29T12:50:21.999Z</time></trkpt><trkpt lat="46.08332749427459" lon="11.211320089252368"><ele>505.0</ele><time>2026-03-29T12:50:22.999Z</time></trkpt><trkpt lat="46.08319709351638" lon="11.21130773819729"><ele>503.0</ele><time>2026-03-29T12:50:23.999Z</time></trkpt><trkpt lat="46.08307674948923" lon="11.211241859724039"><ele>501.0</ele><time>2026-03-29T12:50:24.999Z</time></trkpt><trkpt lat="46.08296852743839" lon="11.211130959472696"><ele>499.0</ele><time>2026-03-29T12:50:25.999Z</time></trkpt><trkpt lat="46.082874316327654" lon="11.210986699485883"><ele>499.0</ele><time>2026-03-29T12:50:26.999Z</time></trkpt><trkpt lat="46.08282232455645" lon="11.210806774236383"><ele>499.0</ele><time>2026-03-29T12:50:27.999Z</time></trkpt><trkpt lat="46.082795443790104" lon="11.21060639866348"><ele>499.0</ele><time>2026-03-29T12:50:29Z</time></trkpt><trkpt lat="46.08280931646721" lon="11.21040271253136"><ele>499.0</ele><time>2026-03-29T12:50:30Z</time></trkpt><trkpt lat="46.08283500170428" lon="11.210173248848147"><ele>498.0</ele><time>2026-03-29T12:50:31Z</time></trkpt><trkpt lat="46.08286230800023" lon="11.209930987492063"><ele>497.0</ele><time>2026-03-29T12:50:32Z</time></trkpt><trkpt lat="46.08288690733582" lon="11.209678126539398"><ele>496.0</ele><time>2026-03-29T12:50:33Z</time></trkpt><trkpt lat="46.08292115954674" lon="11.209422256851443"><ele>494.33333333333337</ele><time>2026-03-29T12:50:34Z</time></trkpt><trkpt lat="46.08298343672616" lon="11.209195570539105"><ele>492.66666666666663</ele><time>2026-03-29T12:50:35Z</time></trkpt><trkpt lat="46.08306684148952" lon="11.209005994692783"><ele>491.0</ele><time>2026-03-29T12:50:36Z</time></trkpt><trkpt lat="46.08317958077827" lon="11.208810807600495"><ele>488.3333333333333</ele><time>2026-03-29T12:50:37Z</time></trkpt><trkpt lat="46.08331915607707" lon="11.208636011427698"><ele>485.66666666666663</ele><time>2026-03-29T12:50:38Z</time></trkpt><trkpt lat="46.08347694416199" lon="11.208452296032057"><ele>483.0</ele><time>2026-03-29T12:50:39Z</time></trkpt><trkpt lat="46.08364516045061" lon="11.208260074202228"><ele>479.66666666666663</ele><time>2026-03-29T12:50:40Z</time></trkpt><trkpt lat="46.083814994552405" lon="11.20805986741436"><ele>476.3333333333333</ele><time>2026-03-29T12:50:41Z</time></trkpt><trkpt lat="46.083945627230975" lon="11.207849499399838"><ele>473.0</ele><time>2026-03-29T12:50:42Z</time></trkpt><trkpt lat="46.084076051436995" lon="11.207632335341481"><ele>472.0</ele><time>2026-03-29T12:50:43Z</time></trkpt><trkpt lat="46.08418453808003" lon="11.207379719715366"><ele>471.0</ele><time>2026-03-29T12:50:44Z</time></trkpt><trkpt lat="46.08429006071827" lon="11.207104254601111"><ele>470.0</ele><time>2026-03-29T12:50:45Z</time></trkpt><trkpt lat="46.08440333667331" lon="11.206858131721884"><ele>470.0</ele><time>2026-03-29T12:50:46Z</time></trkpt><trkpt lat="46.08453883948268" lon="11.206675197494008"><ele>470.0</ele><time>2026-03-29T12:50:47Z</time></trkpt><trkpt lat="46.084687467659606" lon="11.206481951001825"><ele>470.0</ele><time>2026-03-29T12:50:48Z</time></trkpt><trkpt lat="46.0848393415238" lon="11.206281774359056"><ele>469.0</ele><time>2026-03-29T12:50:49Z</time></trkpt><trkpt lat="46.0849803790787" lon="11.206069057389929"><ele>468.0</ele><time>2026-03-29T12:50:50Z</time></trkpt><trkpt lat="46.08511498167685" lon="11.205888662179762"><ele>467.0</ele><time>2026-03-29T12:50:51Z</time></trkpt><trkpt lat="46.085243109236735" lon="11.20575572018739"><ele>462.5</ele><time>2026-03-29T12:50:52Z</time></trkpt><trkpt lat="46.085364546468846" lon="11.205637922703664"><ele>458.0</ele><time>2026-03-29T12:50:53Z</time></trkpt><trkpt lat="46.08549332084874" lon="11.20556353435397"><ele>453.5</ele><time>2026-03-29T12:50:54Z</time></trkpt><trkpt lat="46.08562363119585" lon="11.205527723278061"><ele>449.0</ele><time>2026-03-29T12:50:55Z</time></trkpt><trkpt lat="46.08575918039958" lon="11.20553201171098"><ele>452.0</ele><time>2026-03-29T12:50:56Z</time></trkpt><trkpt lat="46.085879994894775" lon="11.205569023105468"><ele>455.0</ele><time>2026-03-29T12:50:57Z</time></trkpt><trkpt lat="46.086008460847204" lon="11.205642858069078"><ele>458.0</ele><time>2026-03-29T12:50:58Z</time></trkpt><trkpt lat="46.086122398288026" lon="11.205760247681557"><ele>461.0</ele><time>2026-03-29T12:50:59Z</time></trkpt><trkpt lat="46.08623159555692" lon="11.205910868533907"><ele>459.0</ele><time>2026-03-29T12:51:00Z</time></trkpt><trkpt lat="46.08635044902297" lon="11.2060731488737"><ele>457.0</ele><time>2026-03-29T12:51:01Z</time></trkpt><trkpt lat="46.08647186493949" lon="11.206239786843502"><ele>455.0</ele><time>2026-03-29T12:51:02Z</time></trkpt><trkpt lat="46.08659533730684" lon="11.206407966310788"><ele>459.5</ele><time>2026-03-29T12:51:03Z</time></trkpt><trkpt lat="46.0867091553127" lon="11.206562581696375"><ele>464.0</ele><time>2026-03-29T12:51:04Z</time></trkpt><trkpt lat="46.08681255772044" lon="11.206703047988755"><ele>468.5</ele><time>2026-03-29T12:51:05Z</time></trkpt><trkpt lat="46.08691748270564" lon="11.206845569189543"><ele>473.0</ele><time>2026-03-29T12:51:06Z</time></trkpt><trkpt lat="46.08701971698646" lon="11.2069843399808"><ele>473.0</ele><time>2026-03-29T12:51:07Z</time></trkpt><trkpt lat="46.0871240645586" lon="11.207125979170588"><ele>473.0</ele><time>2026-03-29T12:51:08Z</time></trkpt><trkpt lat="46.08722289670109" lon="11.207259971142781"><ele>473.0</ele><time>2026-03-29T12:51:09Z</time></trkpt><trkpt lat="46.087317667327504" lon="11.207388282177712"><ele>473.0</ele><time>2026-03-29T12:51:10Z</time></trkpt><trkpt lat="46.087411343303295" lon="11.207482281567966"><ele>471.99999999999994</ele><time>2026-03-29T12:51:11Z</time></trkpt><trkpt lat="46.087491405545805" lon="11.207583130678724"><ele>471.0</ele><time>2026-03-29T12:51:12Z</time></trkpt><trkpt lat="46.087566909306574" lon="11.20766727970625"><ele>470.0</ele><time>2026-03-29T12:51:13Z</time></trkpt><trkpt lat="46.08764659237493" lon="11.207692391088289"><ele>469.0</ele><time>2026-03-29T12:51:14Z</time></trkpt><trkpt lat="46.08772617261928" lon="11.207662220623464"><ele>467.99999999999994</ele><time>2026-03-29T12:51:15Z</time></trkpt><trkpt lat="46.08778741081706" lon="11.20759303533351"><ele>467.0</ele><time>2026-03-29T12:51:16Z</time></trkpt><trkpt lat="46.08782325821224" lon="11.207467324176879"><ele>466.99999999999994</ele><time>2026-03-29T12:51:17Z</time></trkpt><trkpt lat="46.08781692370852" lon="11.207335902797283"><ele>467.0</ele><time>2026-03-29T12:51:18Z</time></trkpt><trkpt lat="46.08776461455162" lon="11.207246397333058"><ele>467.0</ele><time>2026-03-29T12:51:19Z</time></trkpt><trkpt lat="46.087703880606796" lon="11.207168764386394"><ele>467.0</ele><time>2026-03-29T12:51:20Z</time></trkpt><trkpt lat="46.087624956821436" lon="11.207105079477921"><ele>466.99999999999994</ele><time>2026-03-29T12:51:21Z</time></trkpt><trkpt lat="46.08754317620264" lon="11.207039024512458"><ele>467.0</ele><time>2026-03-29T12:51:22Z</time></trkpt><trkpt lat="46.08745698704304" lon="11.206972171584292"><ele>468.20000000000005</ele><time>2026-03-29T12:51:23Z</time></trkpt><trkpt lat="46.087367366380754" lon="11.206893943874558"><ele>469.40000000000003</ele><time>2026-03-29T12:51:24Z</time></trkpt><trkpt lat="46.08728429211423" lon="11.206817074966716"><ele>470.59999999999997</ele><time>2026-03-29T12:51:25Z</time></trkpt><trkpt lat="46.08721837690399" lon="11.206730716952654"><ele>471.79999999999995</ele><time>2026-03-29T12:51:26Z</time></trkpt><trkpt lat="46.087183541511116" lon="11.206624030027847"><ele>473.0</ele><time>2026-03-29T12:51:27Z</time></trkpt><trkpt lat="46.08718075095041" lon="11.206511480887627"><ele>469.99999999999994</ele><time>2026-03-29T12:51:28Z</time></trkpt><trkpt lat="46.087201417993406" lon="11.20639966985164"><ele>467.0</ele><time>2026-03-29T12:51:29Z</time></trkpt><trkpt lat="46.08725279773917" lon="11.206288860359649"><ele>464.0</ele><time>2026-03-29T12:51:30Z</time></trkpt><trkpt lat="46.087306058673846" lon="11.20618329712923"><ele>461.0</ele><time>2026-03-29T12:51:31Z</time></trkpt><trkpt lat="46.08732614806284" lon="11.206081539913447"><ele>457.99999999999994</ele><time>2026-03-29T12:51:32Z</time></trkpt><trkpt lat="46.08730853812307" lon="11.205991032716636"><ele>455.0</ele><time>2026-03-29T12:51:33Z</time></trkpt><trkpt lat="46.0872658896102" lon="11.205919658234036"><ele>454.99999999999994</ele><time>2026-03-29T12:51:34Z</time></trkpt><trkpt lat="46.08720676778657" lon="11.20588315273424"><ele>455.0</ele><time>2026-03-29T12:51:35Z</time></trkpt><trkpt lat="46.087134362103335" lon="11.205877916327857"><ele>455.0</ele><time>2026-03-29T12:51:36Z</time></trkpt><trkpt lat="46.087049068915825" lon="11.205872495052882"><ele>455.0</ele><time>2026-03-29T12:51:37Z</time></trkpt><trkpt lat="46.0869713033802" lon="11.205892344275231"><ele>454.99999999999994</ele><time>2026-03-29T12:51:38Z</time></trkpt><trkpt lat="46.08689240477168" lon="11.205744022705888"><ele>455.0</ele><time>2026-03-29T12:51:39Z</time></trkpt><trkpt lat="46.08683090670995" lon="11.205622717296087"><ele>453.0</ele><time>2026-03-29T12:51:40Z</time></trkpt><trkpt lat="46.08678313623851" lon="11.205455415166847"><ele>451.0</ele><time>2026-03-29T12:51:41Z</time></trkpt><trkpt lat="46.086744666161934" lon="11.205262395986068"><ele>449.0</ele><time>2026-03-29T12:51:42Z</time></trkpt><trkpt lat="46.08670463212188" lon="11.205065035327854"><ele>447.0</ele><time>2026-03-29T12:51:43Z</time></trkpt><trkpt lat="46.08666292014178" lon="11.204852086733665"><ele>444.25</ele><time>2026-03-29T12:51:44Z</time></trkpt><trkpt lat="46.08663628488558" lon="11.204633089206247"><ele>441.5</ele><time>2026-03-29T12:51:45Z</time></trkpt><trkpt lat="46.086622933929426" lon="11.204428020378867"><ele>438.75</ele><time>2026-03-29T12:51:46Z</time></trkpt><trkpt lat="46.086618521510886" lon="11.20421567671493"><ele>436.0</ele><time>2026-03-29T12:51:47Z</time></trkpt><trkpt lat="46.08661059809667" lon="11.204012046954993"><ele>433.5</ele><time>2026-03-29T12:51:48Z</time></trkpt><trkpt lat="46.08658542378802" lon="11.203812146833716"><ele>431.0</ele><time>2026-03-29T12:51:49Z</time></trkpt><trkpt lat="46.08654965727875" lon="11.203609117548236"><ele>428.5</ele><time>2026-03-29T12:51:50Z</time></trkpt><trkpt lat="46.08649165946918" lon="11.203422944356074"><ele>426.0</ele><time>2026-03-29T12:51:51Z</time></trkpt><trkpt lat="46.08640977800345" lon="11.203253780283447"><ele>427.33333333333337</ele><time>2026-03-29T12:51:52Z</time></trkpt><trkpt lat="46.08630693390627" lon="11.203093032802695"><ele>428.6666666666667</ele><time>2026-03-29T12:51:53Z</time></trkpt><trkpt lat="46.08618232877517" lon="11.202946052617264"><ele>430.0</ele><time>2026-03-29T12:51:54Z</time></trkpt><trkpt lat="46.086027402862726" lon="11.202804433668904"><ele>430.0</ele><time>2026-03-29T12:51:55Z</time></trkpt><trkpt lat="46.08586817521632" lon="11.20264883203236"><ele>430.0</ele><time>2026-03-29T12:51:56Z</time></trkpt><trkpt lat="46.085702736239405" lon="11.2024631813337"><ele>430.0</ele><time>2026-03-29T12:51:57Z</time></trkpt><trkpt lat="46.08550243781247" lon="11.202246545553558"><ele>430.0</ele><time>2026-03-29T12:51:58Z</time></trkpt><trkpt lat="46.08532140009213" lon="11.202016973449066"><ele>430.0</ele><time>2026-03-29T12:51:59Z</time></trkpt><trkpt lat="46.08516554174044" lon="11.2018402383504"><ele>430.0</ele><time>2026-03-29T12:52:00Z</time></trkpt><trkpt lat="46.08502304943802" lon="11.201688826486446"><ele>430.0</ele><time>2026-03-29T12:52:01Z</time></trkpt><trkpt lat="46.0848985818331" lon="11.20154445250135"><ele>430.0</ele><time>2026-03-29T12:52:02Z</time></trkpt><trkpt lat="46.08478587285758" lon="11.201407694558828"><ele>430.0</ele><time>2026-03-29T12:52:03Z</time></trkpt><trkpt lat="46.08467251025049" lon="11.201279013641942"><ele>431.0</ele><time>2026-03-29T12:52:04Z</time></trkpt><trkpt lat="46.084562916363026" lon="11.201145030828942"><ele>432.0</ele><time>2026-03-29T12:52:05Z</time></trkpt><trkpt lat="46.084454713945924" lon="11.20101748882456"><ele>433.0</ele><time>2026-03-29T12:52:06Z</time></trkpt><trkpt lat="46.084350848226336" lon="11.200902478406109"><ele>434.0</ele><time>2026-03-29T12:52:07Z</time></trkpt><trkpt lat="46.0842536246534" lon="11.200792649813446"><ele>434.0</ele><time>2026-03-29T12:52:08Z</time></trkpt><trkpt lat="46.084150887375536" lon="11.200682800993103"><ele>434.0</ele><time>2026-03-29T12:52:09Z</time></trkpt><trkpt lat="46.084049271841224" lon="11.200574475244487"><ele>434.0</ele><time>2026-03-29T12:52:10Z</time></trkpt><trkpt lat="46.08395649609238" lon="11.200483382657021"><ele>434.0</ele><time>2026-03-29T12:52:11Z</time></trkpt><trkpt lat="46.083868872020375" lon="11.200408850564541"><ele>431.79999999999995</ele><time>2026-03-29T12:52:12Z</time></trkpt><trkpt lat="46.083779188137065" lon="11.200339321029675"><ele>429.59999999999997</ele><time>2026-03-29T12:52:13Z</time></trkpt><trkpt lat="46.08368825831246" lon="11.200265081558577"><ele>427.4</ele><time>2026-03-29T12:52:14Z</time></trkpt><trkpt lat="46.083604342031215" lon="11.20020327810124"><ele>425.2</ele><time>2026-03-29T12:52:15Z</time></trkpt><trkpt lat="46.08353118123266" lon="11.200140525589635"><ele>423.0</ele><time>2026-03-29T12:52:16Z</time></trkpt><trkpt lat="46.08346254083594" lon="11.200082696767959"><ele>423.0</ele><time>2026-03-29T12:52:17Z</time></trkpt><trkpt lat="46.083413334495866" lon="11.200019375610225"><ele>423.0</ele><time>2026-03-29T12:52:18Z</time></trkpt><trkpt lat="46.08335870127293" lon="11.199896505649315"><ele>423.0</ele><time>2026-03-29T12:52:20Z</time></trkpt><trkpt lat="46.0832653487112" lon="11.19986455080049"><ele>423.0</ele><time>2026-03-29T12:52:22Z</time></trkpt><trkpt lat="46.08312714985862" lon="11.1998359030268"><ele>423.0</ele><time>2026-03-29T12:52:24Z</time></trkpt><trkpt lat="46.08303067470152" lon="11.199827698019158"><ele>421.79999999999995</ele><time>2026-03-29T12:52:25Z</time></trkpt><trkpt lat="46.08292992984285" lon="11.19979797895593"><ele>420.6</ele><time>2026-03-29T12:52:26Z</time></trkpt><trkpt lat="46.08283463616285" lon="11.199752721569691"><ele>419.4</ele><time>2026-03-29T12:52:27Z</time></trkpt><trkpt lat="46.082738182201886" lon="11.199693446084144"><ele>418.20000000000005</ele><time>2026-03-29T12:52:27.999Z</time></trkpt><trkpt lat="46.08263429715576" lon="11.199629833627682"><ele>417.0</ele><time>2026-03-29T12:52:28.999Z</time></trkpt><trkpt lat="46.082531643332004" lon="11.199568497006785"><ele>417.0</ele><time>2026-03-29T12:52:29.999Z</time></trkpt><trkpt lat="46.08244422262828" lon="11.19950521509049"><ele>417.0</ele><time>2026-03-29T12:52:30.999Z</time></trkpt><trkpt lat="46.08236043003195" lon="11.19941488089778"><ele>417.0</ele><time>2026-03-29T12:52:31.999Z</time></trkpt><trkpt lat="46.08228057421325" lon="11.199297515235468"><ele>417.0</ele><time>2026-03-29T12:52:32.999Z</time></trkpt><trkpt lat="46.08219918659841" lon="11.199155919324955"><ele>417.0</ele><time>2026-03-29T12:52:33.999Z</time></trkpt><trkpt lat="46.08211027828805" lon="11.198987464323462"><ele>413.66666666666663</ele><time>2026-03-29T12:52:35Z</time></trkpt><trkpt lat="46.08202889045811" lon="11.198805697970256"><ele>410.3333333333333</ele><time>2026-03-29T12:52:36Z</time></trkpt><trkpt lat="46.08194223841734" lon="11.198616431852853"><ele>407.0</ele><time>2026-03-29T12:52:37Z</time></trkpt><trkpt lat="46.08185017970779" lon="11.198427036639092"><ele>407.0</ele><time>2026-03-29T12:52:38Z</time></trkpt><trkpt lat="46.081755010761455" lon="11.198226848010206"><ele>407.0</ele><time>2026-03-29T12:52:39Z</time></trkpt><trkpt lat="46.0816901006427" lon="11.198026232081181"><ele>407.0</ele><time>2026-03-29T12:52:40Z</time></trkpt><trkpt lat="46.08165936621224" lon="11.197834897538367"><ele>407.0</ele><time>2026-03-29T12:52:41Z</time></trkpt><trkpt lat="46.08166435002086" lon="11.19764811400924"><ele>407.0</ele><time>2026-03-29T12:52:42Z</time></trkpt><trkpt lat="46.081693675732595" lon="11.197480916812848"><ele>407.0</ele><time>2026-03-29T12:52:43Z</time></trkpt><trkpt lat="46.08172673415593" lon="11.197343292442358"><ele>407.0</ele><time>2026-03-29T12:52:44Z</time></trkpt><trkpt lat="46.0817657851338" lon="11.19717025994892"><ele>406.0</ele><time>2026-03-29T12:52:45Z</time></trkpt><trkpt lat="46.08181742971657" lon="11.196959004209296"><ele>405.0</ele><time>2026-03-29T12:52:46Z</time></trkpt><trkpt lat="46.081868891355036" lon="11.196725888121914"><ele>404.0</ele><time>2026-03-29T12:52:47Z</time></trkpt><trkpt lat="46.081906324748644" lon="11.196453459975926"><ele>404.0</ele><time>2026-03-29T12:52:48Z</time></trkpt><trkpt lat="46.081934239544225" lon="11.196138937313439"><ele>404.0</ele><time>2026-03-29T12:52:49Z</time></trkpt><trkpt lat="46.08195672932504" lon="11.195824003288525"><ele>404.0</ele><time>2026-03-29T12:52:50Z</time></trkpt><trkpt lat="46.08197858453559" lon="11.195534290193011"><ele>403.3333333333333</ele><time>2026-03-29T12:52:51Z</time></trkpt><trkpt lat="46.081996728957115" lon="11.195254524442008"><ele>402.66666666666663</ele><time>2026-03-29T12:52:52Z</time></trkpt><trkpt lat="46.08201988550996" lon="11.1949614323401"><ele>402.0</ele><time>2026-03-29T12:52:53Z</time></trkpt><trkpt lat="46.08203792016054" lon="11.194637600279766"><ele>400.5</ele><time>2026-03-29T12:52:54Z</time></trkpt><trkpt lat="46.08206241569152" lon="11.194259837229511"><ele>399.0</ele><time>2026-03-29T12:52:55Z</time></trkpt><trkpt lat="46.08209441873964" lon="11.193864884353404"><ele>397.5</ele><time>2026-03-29T12:52:56Z</time></trkpt><trkpt lat="46.082132118153424" lon="11.193460716888426"><ele>396.0</ele><time>2026-03-29T12:52:57Z</time></trkpt><trkpt lat="46.08216777288209" lon="11.19309902679573"><ele>394.66666666666663</ele><time>2026-03-29T12:52:58Z</time></trkpt><trkpt lat="46.08219833444777" lon="11.192775571975533"><ele>393.3333333333333</ele><time>2026-03-29T12:52:59Z</time></trkpt><trkpt lat="46.08222443395992" lon="11.192470092344479"><ele>392.0</ele><time>2026-03-29T12:53:00Z</time></trkpt><trkpt lat="46.08224776093973" lon="11.192185716580127"><ele>391.0</ele><time>2026-03-29T12:53:01Z</time></trkpt><trkpt lat="46.08227047491558" lon="11.19192314978695"><ele>390.0</ele><time>2026-03-29T12:53:02Z</time></trkpt><trkpt lat="46.08229070233135" lon="11.191672337359236"><ele>389.0</ele><time>2026-03-29T12:53:03Z</time></trkpt><trkpt lat="46.08231015464148" lon="11.191403663231528"><ele>388.0</ele><time>2026-03-29T12:53:04Z</time></trkpt><trkpt lat="46.08233350602883" lon="11.191144207867566"><ele>387.0</ele><time>2026-03-29T12:53:05Z</time></trkpt><trkpt lat="46.08236476248142" lon="11.190884546161756"><ele>386.0</ele><time>2026-03-29T12:53:06Z</time></trkpt><trkpt lat="46.082396777977976" lon="11.190627351557781"><ele>385.66666666666663</ele><time>2026-03-29T12:53:07Z</time></trkpt><trkpt lat="46.08243101520754" lon="11.190369860609305"><ele>385.33333333333337</ele><time>2026-03-29T12:53:08Z</time></trkpt><trkpt lat="46.08246402373101" lon="11.190112791858143"><ele>385.0</ele><time>2026-03-29T12:53:09Z</time></trkpt><trkpt lat="46.082487123178204" lon="11.189855920088212"><ele>388.0</ele><time>2026-03-29T12:53:10Z</time></trkpt><trkpt lat="46.0825072376424" lon="11.189598982029022"><ele>391.0</ele><time>2026-03-29T12:53:11Z</time></trkpt><trkpt lat="46.08251628764173" lon="11.18934313755854"><ele>394.0</ele><time>2026-03-29T12:53:12Z</time></trkpt><trkpt lat="46.0825110526681" lon="11.189080406287943"><ele>393.0</ele><time>2026-03-29T12:53:13Z</time></trkpt><trkpt lat="46.082504292203154" lon="11.188827314933489"><ele>392.0</ele><time>2026-03-29T12:53:14Z</time></trkpt><trkpt lat="46.082490562031126" lon="11.188575461880982"><ele>391.0</ele><time>2026-03-29T12:53:15Z</time></trkpt><trkpt lat="46.08245781710194" lon="11.188312989305313"><ele>388.0</ele><time>2026-03-29T12:53:16Z</time></trkpt><trkpt lat="46.082427881776674" lon="11.188064280425854"><ele>385.0</ele><time>2026-03-29T12:53:17Z</time></trkpt><trkpt lat="46.08240801832762" lon="11.187829971094645"><ele>382.0</ele><time>2026-03-29T12:53:18Z</time></trkpt><trkpt lat="46.082381286487994" lon="11.187575689304516"><ele>382.66666666666663</ele><time>2026-03-29T12:53:19Z</time></trkpt><trkpt lat="46.082360741296455" lon="11.187333007710754"><ele>383.3333333333333</ele><time>2026-03-29T12:53:20Z</time></trkpt><trkpt lat="46.0823382112876" lon="11.18708924603753"><ele>384.0</ele><time>2026-03-29T12:53:21Z</time></trkpt><trkpt lat="46.08232762197088" lon="11.186850539119188"><ele>384.0</ele><time>2026-03-29T12:53:22Z</time></trkpt><trkpt lat="46.08230709874168" lon="11.186607408824045"><ele>384.0</ele><time>2026-03-29T12:53:23Z</time></trkpt><trkpt lat="46.08231885882885" lon="11.18634506696389"><ele>384.0</ele><time>2026-03-29T12:53:24Z</time></trkpt><trkpt lat="46.08234117334561" lon="11.186084704518493"><ele>384.66666666666663</ele><time>2026-03-29T12:53:25Z</time></trkpt><trkpt lat="46.08238346926236" lon="11.18582823880628"><ele>385.3333333333333</ele><time>2026-03-29T12:53:26Z</time></trkpt><trkpt lat="46.08245141281211" lon="11.185578446770904"><ele>386.0</ele><time>2026-03-29T12:53:27Z</time></trkpt><trkpt lat="46.08254144811532" lon="11.185338172030564"><ele>386.0</ele><time>2026-03-29T12:53:28Z</time></trkpt><trkpt lat="46.082630684776355" lon="11.185101240170907"><ele>386.0</ele><time>2026-03-29T12:53:29Z</time></trkpt><trkpt lat="46.08272355034336" lon="11.184859052215327"><ele>386.0</ele><time>2026-03-29T12:53:30Z</time></trkpt><trkpt lat="46.082814160744036" lon="11.184636058300363"><ele>386.0</ele><time>2026-03-29T12:53:31Z</time></trkpt><trkpt lat="46.082891845952844" lon="11.184426585821868"><ele>386.0</ele><time>2026-03-29T12:53:32Z</time></trkpt><trkpt lat="46.082968349034076" lon="11.184217856132957"><ele>386.0</ele><time>2026-03-29T12:53:33Z</time></trkpt><trkpt lat="46.083042550411875" lon="11.184015250282197"><ele>385.0</ele><time>2026-03-29T12:53:34Z</time></trkpt><trkpt lat="46.08311477164189" lon="11.183816144021353"><ele>384.0</ele><time>2026-03-29T12:53:35Z</time></trkpt><trkpt lat="46.083188586173144" lon="11.183621685669662"><ele>383.0</ele><time>2026-03-29T12:53:36Z</time></trkpt><trkpt lat="46.08326189788924" lon="11.18342356578543"><ele>388.6666666666667</ele><time>2026-03-29T12:53:37Z</time></trkpt><trkpt lat="46.08332088355125" lon="11.183223098695448"><ele>394.33333333333337</ele><time>2026-03-29T12:53:38Z</time></trkpt><trkpt lat="46.08337386481857" lon="11.18301874829019"><ele>400.0</ele><time>2026-03-29T12:53:39Z</time></trkpt><trkpt lat="46.08341325350889" lon="11.182808801051316"><ele>400.0</ele><time>2026-03-29T12:53:40Z</time></trkpt><trkpt lat="46.083445243906795" lon="11.182590605072114"><ele>400.0</ele><time>2026-03-29T12:53:41Z</time></trkpt><trkpt lat="46.083462126082544" lon="11.18236131375033"><ele>400.0</ele><time>2026-03-29T12:53:42Z</time></trkpt><trkpt lat="46.08345666354925" lon="11.182130573576035"><ele>401.0</ele><time>2026-03-29T12:53:43Z</time></trkpt><trkpt lat="46.08343230774672" lon="11.18190035898877"><ele>402.0</ele><time>2026-03-29T12:53:44Z</time></trkpt><trkpt lat="46.08339551007004" lon="11.181670239130362"><ele>403.0</ele><time>2026-03-29T12:53:45Z</time></trkpt><trkpt lat="46.083342752878174" lon="11.181426259795495"><ele>405.6666666666667</ele><time>2026-03-29T12:53:46Z</time></trkpt><trkpt lat="46.0832950890441" lon="11.18115381802383"><ele>408.33333333333337</ele><time>2026-03-29T12:53:47Z</time></trkpt><trkpt lat="46.083234825281465" lon="11.180893749958987"><ele>411.0</ele><time>2026-03-29T12:53:48Z</time></trkpt><trkpt lat="46.083181361177175" lon="11.180633498794299"><ele>400.6666666666667</ele><time>2026-03-29T12:53:49Z</time></trkpt><trkpt lat="46.083127054744686" lon="11.180368688450212"><ele>390.33333333333337</ele><time>2026-03-29T12:53:50.018Z</time></trkpt><trkpt lat="46.083073755714075" lon="11.180108793881812"><ele>380.0</ele><time>2026-03-29T12:53:51.018Z</time></trkpt><trkpt lat="46.08307771494541" lon="11.179852606489296"><ele>380.5</ele><time>2026-03-29T12:53:52Z</time></trkpt><trkpt lat="46.08314156890225" lon="11.179216817752186"><ele>381.0</ele><time>2026-03-29T12:53:53Z</time></trkpt><trkpt lat="46.083144787582235" lon="11.178896389599156"><ele>380.0</ele><time>2026-03-29T12:53:54Z</time></trkpt><trkpt lat="46.08314319243649" lon="11.178594792492348"><ele>379.0</ele><time>2026-03-29T12:53:55Z</time></trkpt><trkpt lat="46.0831449903427" lon="11.178298681945966"><ele>378.0</ele><time>2026-03-29T12:53:56Z</time></trkpt><trkpt lat="46.08313583371944" lon="11.178001586771998"><ele>377.6666666666667</ele><time>2026-03-29T12:53:57Z</time></trkpt><trkpt lat="46.083124867736814" lon="11.177702830176894"><ele>377.33333333333337</ele><time>2026-03-29T12:53:58Z</time></trkpt><trkpt lat="46.083102459786474" lon="11.177398979507606"><ele>377.0</ele><time>2026-03-29T12:53:59Z</time></trkpt><trkpt lat="46.08308594603036" lon="11.177123129129301"><ele>377.0</ele><time>2026-03-29T12:54:00Z</time></trkpt><trkpt lat="46.08306085162354" lon="11.17686902588621"><ele>377.0</ele><time>2026-03-29T12:54:01Z</time></trkpt><trkpt lat="46.083032140033666" lon="11.176616293062734"><ele>377.0</ele><time>2026-03-29T12:54:02Z</time></trkpt><trkpt lat="46.08300462671173" lon="11.176355404292124"><ele>383.6666666666667</ele><time>2026-03-29T12:54:03Z</time></trkpt><trkpt lat="46.08297905510482" lon="11.176088982849354"><ele>390.33333333333337</ele><time>2026-03-29T12:54:04Z</time></trkpt><trkpt lat="46.08295331191116" lon="11.175824350571759"><ele>397.0</ele><time>2026-03-29T12:54:05Z</time></trkpt><trkpt lat="46.082927105303995" lon="11.175554961185359"><ele>421.5</ele><time>2026-03-29T12:54:06.018Z</time></trkpt><trkpt lat="46.08290135154" lon="11.175290233447004"><ele>446.0</ele><time>2026-03-29T12:54:07.018Z</time></trkpt><trkpt lat="46.08259345616982" lon="11.172410582093246"><ele>345.0</ele><time>2026-03-29T12:54:10.23Z</time></trkpt><trkpt lat="46.07786716896112" lon="11.15511495529208"><ele>345.0</ele><time>2026-03-29T12:55:20.999Z</time></trkpt><trkpt lat="46.077785390224854" lon="11.154888261616657"><ele>345.0</ele><time>2026-03-29T12:55:21.999Z</time></trkpt><trkpt lat="46.07773545450679" lon="11.154629458523674"><ele>345.0</ele><time>2026-03-29T12:55:22.999Z</time></trkpt><trkpt lat="46.077679473336225" lon="11.15436389463863"><ele>350.3333333333333</ele><time>2026-03-29T12:55:23.999Z</time></trkpt><trkpt lat="46.07761033537709" lon="11.154101794181122"><ele>355.66666666666663</ele><time>2026-03-29T12:55:24.999Z</time></trkpt><trkpt lat="46.07755693367455" lon="11.153833010099065"><ele>361.0</ele><time>2026-03-29T12:55:25.999Z</time></trkpt><trkpt lat="46.07750415522957" lon="11.153569069270077"><ele>357.66666666666663</ele><time>2026-03-29T12:55:27.001Z</time></trkpt><trkpt lat="46.07745267055752" lon="11.153309368406982"><ele>354.3333333333333</ele><time>2026-03-29T12:55:28.001Z</time></trkpt><trkpt lat="46.07741146688907" lon="11.153053621185087"><ele>351.0</ele><time>2026-03-29T12:55:29.001Z</time></trkpt><trkpt lat="46.07737513849928" lon="11.152811636070455"><ele>351.0</ele><time>2026-03-29T12:55:30.001Z</time></trkpt><trkpt lat="46.07735179026073" lon="11.152607053305996"><ele>351.0</ele><time>2026-03-29T12:55:31.016Z</time></trkpt><trkpt lat="46.07723559747621" lon="11.151812799596119"><ele>354.75</ele><time>2026-03-29T12:55:34.229Z</time></trkpt><trkpt lat="46.07722446938093" lon="11.151629336559973"><ele>358.5</ele><time>2026-03-29T12:55:35.226Z</time></trkpt><trkpt lat="46.07723160621741" lon="11.151410592432896"><ele>362.25</ele><time>2026-03-29T12:55:36.23Z</time></trkpt><trkpt lat="46.077241950712576" lon="11.151204242246177"><ele>366.0</ele><time>2026-03-29T12:55:37.225Z</time></trkpt><trkpt lat="46.07725505986825" lon="11.151013179903986"><ele>370.0</ele><time>2026-03-29T12:55:38.225Z</time></trkpt><trkpt lat="46.07726956509795" lon="11.150834418065461"><ele>374.0</ele><time>2026-03-29T12:55:39.228Z</time></trkpt><trkpt lat="46.07728413387532" lon="11.150674845466568"><ele>378.0</ele><time>2026-03-29T12:55:40.229Z</time></trkpt><trkpt lat="46.077298697247876" lon="11.150533769755567"><ele>382.0</ele><time>2026-03-29T12:55:41.228Z</time></trkpt><trkpt lat="46.07731577535685" lon="11.15039522887758"><ele>386.0</ele><time>2026-03-29T12:55:42.228Z</time></trkpt><trkpt lat="46.077331401598435" lon="11.15027589086865"><ele>388.0</ele><time>2026-03-29T12:55:43.226Z</time></trkpt><trkpt lat="46.077347005594596" lon="11.150159153189989"><ele>390.0</ele><time>2026-03-29T12:55:44.229Z</time></trkpt><trkpt lat="46.078151799690026" lon="11.144478401287286"><ele>196.0</ele><time>2026-03-29T12:55:51.227Z</time></trkpt><trkpt lat="46.09493696884607" lon="11.121440899499273"><ele>196.0</ele><time>2026-03-29T12:57:56Z</time></trkpt><trkpt lat="46.09511128551356" lon="11.121330931748385"><ele>196.0</ele><time>2026-03-29T12:57:57Z</time></trkpt><trkpt lat="46.09529253385892" lon="11.121155873025273"><ele>196.0</ele><time>2026-03-29T12:57:58Z</time></trkpt><trkpt lat="46.09546122695525" lon="11.120943596145542"><ele>194.5</ele><time>2026-03-29T12:57:59Z</time></trkpt><trkpt lat="46.095624641326296" lon="11.120718603430475"><ele>193.0</ele><time>2026-03-29T12:58:00Z</time></trkpt><trkpt lat="46.09576970394123" lon="11.120465644896898"><ele>193.0</ele><time>2026-03-29T12:58:01Z</time></trkpt><trkpt lat="46.095895221929474" lon="11.12018770557287"><ele>193.0</ele><time>2026-03-29T12:58:02Z</time></trkpt><trkpt lat="46.09600420792393" lon="11.119893397787315"><ele>191.5</ele><time>2026-03-29T12:58:03Z</time></trkpt><trkpt lat="46.096101087283444" lon="11.119575317197373"><ele>190.0</ele><time>2026-03-29T12:58:04Z</time></trkpt><trkpt lat="46.096178288613" lon="11.119227001333817"><ele>191.5</ele><time>2026-03-29T12:58:05Z</time></trkpt><trkpt lat="46.09625215734779" lon="11.118880208116856"><ele>193.0</ele><time>2026-03-29T12:58:06Z</time></trkpt><trkpt lat="46.0963395601054" lon="11.118540662688517"><ele>193.5</ele><time>2026-03-29T12:58:07Z</time></trkpt><trkpt lat="46.09642888333148" lon="11.118198054448872"><ele>194.0</ele><time>2026-03-29T12:58:08Z</time></trkpt><trkpt lat="46.09651044611704" lon="11.117864100428"><ele>192.5</ele><time>2026-03-29T12:58:09Z</time></trkpt><trkpt lat="46.09658788174952" lon="11.117540739400118"><ele>191.0</ele><time>2026-03-29T12:58:10Z</time></trkpt><trkpt lat="46.09663693891892" lon="11.117238628654025"><ele>191.0</ele><time>2026-03-29T12:58:11Z</time></trkpt><trkpt lat="46.09666240753461" lon="11.116932398214585"><ele>191.0</ele><time>2026-03-29T12:58:12Z</time></trkpt><trkpt lat="46.09666735449454" lon="11.116625589116756"><ele>191.0</ele><time>2026-03-29T12:58:13Z</time></trkpt><trkpt lat="46.09668332941634" lon="11.116327523058228"><ele>190.66666666666666</ele><time>2026-03-29T12:58:14Z</time></trkpt><trkpt lat="46.09664057680683" lon="11.116018233110802"><ele>190.33333333333334</ele><time>2026-03-29T12:58:15Z</time></trkpt><trkpt lat="46.096604751362214" lon="11.115718318111158"><ele>190.0</ele><time>2026-03-29T12:58:16Z</time></trkpt><trkpt lat="46.0965552529152" lon="11.115419981468564"><ele>190.0</ele><time>2026-03-29T12:58:17Z</time></trkpt><trkpt lat="46.096486576917954" lon="11.115108944283376"><ele>190.0</ele><time>2026-03-29T12:58:18Z</time></trkpt><trkpt lat="46.09642456387131" lon="11.114801813855312"><ele>190.0</ele><time>2026-03-29T12:58:19Z</time></trkpt><trkpt lat="46.09636103188817" lon="11.114489752012759"><ele>190.0</ele><time>2026-03-29T12:58:20Z</time></trkpt><trkpt lat="46.096297672184456" lon="11.114185120278593"><ele>190.0</ele><time>2026-03-29T12:58:21Z</time></trkpt><trkpt lat="46.09624410102726" lon="11.113892518641624"><ele>190.0</ele><time>2026-03-29T12:58:22Z</time></trkpt><trkpt lat="46.09619100542479" lon="11.113606614879833"><ele>191.0</ele><time>2026-03-29T12:58:23Z</time></trkpt><trkpt lat="46.09613388396182" lon="11.11332346658998"><ele>192.0</ele><time>2026-03-29T12:58:24Z</time></trkpt><trkpt lat="46.096073873518314" lon="11.113032396993637"><ele>193.0</ele><time>2026-03-29T12:58:25Z</time></trkpt><trkpt lat="46.096016534445226" lon="11.112742853185582"><ele>193.66666666666666</ele><time>2026-03-29T12:58:26Z</time></trkpt><trkpt lat="46.09595485607396" lon="11.112451876718916"><ele>194.33333333333331</ele><time>2026-03-29T12:58:27Z</time></trkpt><trkpt lat="46.0958812060145" lon="11.11214085675366"><ele>195.0</ele><time>2026-03-29T12:58:28Z</time></trkpt><trkpt lat="46.09580841260679" lon="11.111795391494542"><ele>193.0</ele><time>2026-03-29T12:58:29Z</time></trkpt><trkpt lat="46.095742601620884" lon="11.11142819001883"><ele>191.0</ele><time>2026-03-29T12:58:30Z</time></trkpt><trkpt lat="46.0956792822245" lon="11.111045037613891"><ele>191.5</ele><time>2026-03-29T12:58:31Z</time></trkpt><trkpt lat="46.0956216933938" lon="11.110703451044214"><ele>192.0</ele><time>2026-03-29T12:58:32Z</time></trkpt><trkpt lat="46.09556672973151" lon="11.110389450285112"><ele>192.0</ele><time>2026-03-29T12:58:33Z</time></trkpt><trkpt lat="46.09551523896582" lon="11.110095311616496"><ele>192.0</ele><time>2026-03-29T12:58:34Z</time></trkpt><trkpt lat="46.09546648350566" lon="11.109798369046167"><ele>192.0</ele><time>2026-03-29T12:58:35Z</time></trkpt><trkpt lat="46.09541625714951" lon="11.109500348510386"><ele>192.0</ele><time>2026-03-29T12:58:36Z</time></trkpt><trkpt lat="46.09535944966173" lon="11.10921030092698"><ele>192.0</ele><time>2026-03-29T12:58:37Z</time></trkpt><trkpt lat="46.09530912655555" lon="11.108917893034723"><ele>192.0</ele><time>2026-03-29T12:58:38Z</time></trkpt><trkpt lat="46.09525284355936" lon="11.108617462589027"><ele>192.0</ele><time>2026-03-29T12:58:39Z</time></trkpt><trkpt lat="46.09520056627447" lon="11.10832096572734"><ele>192.0</ele><time>2026-03-29T12:58:40Z</time></trkpt><trkpt lat="46.095152006464325" lon="11.108045977605936"><ele>192.0</ele><time>2026-03-29T12:58:41Z</time></trkpt><trkpt lat="46.095097848064185" lon="11.107762430655141"><ele>192.0</ele><time>2026-03-29T12:58:42Z</time></trkpt><trkpt lat="46.095030412419376" lon="11.107479476958243"><ele>192.0</ele><time>2026-03-29T12:58:43Z</time></trkpt><trkpt lat="46.09495159279742" lon="11.107201200284731"><ele>192.0</ele><time>2026-03-29T12:58:44Z</time></trkpt><trkpt lat="46.09485996247006" lon="11.106919543818595"><ele>192.66666666666669</ele><time>2026-03-29T12:58:45Z</time></trkpt><trkpt lat="46.094759678751494" lon="11.106642543584831"><ele>193.33333333333334</ele><time>2026-03-29T12:58:46Z</time></trkpt><trkpt lat="46.09466380531148" lon="11.106362881327192"><ele>194.0</ele><time>2026-03-29T12:58:47Z</time></trkpt><trkpt lat="46.09456693111271" lon="11.106083221651849"><ele>194.0</ele><time>2026-03-29T12:58:48Z</time></trkpt><trkpt lat="46.0944683684711" lon="11.105799621890242"><ele>194.0</ele><time>2026-03-29T12:58:49Z</time></trkpt><trkpt lat="46.094375226278075" lon="11.105534502977743"><ele>194.0</ele><time>2026-03-29T12:58:50Z</time></trkpt><trkpt lat="46.094280748526856" lon="11.105263168877366"><ele>193.33333333333334</ele><time>2026-03-29T12:58:51Z</time></trkpt><trkpt lat="46.09418782598055" lon="11.104988533148184"><ele>192.66666666666669</ele><time>2026-03-29T12:58:52Z</time></trkpt><trkpt lat="46.09408867485961" lon="11.104710072930454"><ele>192.0</ele><time>2026-03-29T12:58:53Z</time></trkpt><trkpt lat="46.09398894148153" lon="11.104431986376435"><ele>192.33333333333331</ele><time>2026-03-29T12:58:54Z</time></trkpt><trkpt lat="46.09388576559977" lon="11.104153680944346"><ele>192.66666666666666</ele><time>2026-03-29T12:58:55Z</time></trkpt><trkpt lat="46.09378198300271" lon="11.103873309014501"><ele>193.0</ele><time>2026-03-29T12:58:56Z</time></trkpt><trkpt lat="46.09367364497818" lon="11.103589462973199"><ele>193.0</ele><time>2026-03-29T12:58:57Z</time></trkpt><trkpt lat="46.093552688148975" lon="11.103309500485642"><ele>193.0</ele><time>2026-03-29T12:58:58Z</time></trkpt><trkpt lat="46.09342759974061" lon="11.103063828874355"><ele>193.0</ele><time>2026-03-29T12:58:59Z</time></trkpt><trkpt lat="46.09328958201565" lon="11.102848370585384"><ele>192.33333333333331</ele><time>2026-03-29T12:59:00Z</time></trkpt><trkpt lat="46.09312966545802" lon="11.102660192318696"><ele>191.66666666666666</ele><time>2026-03-29T12:59:01Z</time></trkpt><trkpt lat="46.092953873329506" lon="11.10249373245931"><ele>191.0</ele><time>2026-03-29T12:59:02Z</time></trkpt><trkpt lat="46.092765771278216" lon="11.102352302377296"><ele>191.0</ele><time>2026-03-29T12:59:03Z</time></trkpt><trkpt lat="46.09257044718683" lon="11.102227857395938"><ele>191.0</ele><time>2026-03-29T12:59:04Z</time></trkpt><trkpt lat="46.09237311097129" lon="11.102140547102035"><ele>191.0</ele><time>2026-03-29T12:59:05Z</time></trkpt><trkpt lat="46.09217054322612" lon="11.102083824072905"><ele>191.0</ele><time>2026-03-29T12:59:06Z</time></trkpt><trkpt lat="46.091960186686286" lon="11.102062714500645"><ele>191.0</ele><time>2026-03-29T12:59:07Z</time></trkpt><trkpt lat="46.09175483281924" lon="11.10206370899514"><ele>191.0</ele><time>2026-03-29T12:59:08Z</time></trkpt><trkpt lat="46.0915480901566" lon="11.102090781582286"><ele>190.66666666666666</ele><time>2026-03-29T12:59:09Z</time></trkpt><trkpt lat="46.09134117067827" lon="11.102153783149921"><ele>190.33333333333334</ele><time>2026-03-29T12:59:10Z</time></trkpt><trkpt lat="46.09113723286219" lon="11.102247011426831"><ele>190.0</ele><time>2026-03-29T12:59:11Z</time></trkpt><trkpt lat="46.09093933814699" lon="11.102365686296793"><ele>190.0</ele><time>2026-03-29T12:59:12Z</time></trkpt><trkpt lat="46.0907403922038" lon="11.102501595578623"><ele>190.0</ele><time>2026-03-29T12:59:13Z</time></trkpt><trkpt lat="46.09053452236984" lon="11.10265108663605"><ele>190.0</ele><time>2026-03-29T12:59:14Z</time></trkpt><trkpt lat="46.09032331756643" lon="11.102808130014292"><ele>190.0</ele><time>2026-03-29T12:59:15Z</time></trkpt><trkpt lat="46.09011234988025" lon="11.102977187418086"><ele>190.0</ele><time>2026-03-29T12:59:16Z</time></trkpt><trkpt lat="46.089892142391705" lon="11.103132508050107"><ele>190.0</ele><time>2026-03-29T12:59:16.999Z</time></trkpt><trkpt lat="46.089684383834594" lon="11.103273967306844"><ele>190.0</ele><time>2026-03-29T12:59:17.999Z</time></trkpt><trkpt lat="46.08948272438495" lon="11.10340632000561"><ele>190.0</ele><time>2026-03-29T12:59:18.999Z</time></trkpt><trkpt lat="46.08927625572652" lon="11.103529934720141"><ele>190.0</ele><time>2026-03-29T12:59:19.999Z</time></trkpt><trkpt lat="46.08907511346836" lon="11.103643046631596"><ele>190.0</ele><time>2026-03-29T12:59:20.999Z</time></trkpt><trkpt lat="46.08888764325495" lon="11.103760096893811"><ele>190.0</ele><time>2026-03-29T12:59:21.999Z</time></trkpt><trkpt lat="46.08869618802333" lon="11.10389319171354"><ele>190.0</ele><time>2026-03-29T12:59:22.999Z</time></trkpt><trkpt lat="46.08850728365081" lon="11.104030272788426"><ele>190.33333333333334</ele><time>2026-03-29T12:59:23.999Z</time></trkpt><trkpt lat="46.08832104176583" lon="11.104169795677677"><ele>190.66666666666666</ele><time>2026-03-29T12:59:24.999Z</time></trkpt><trkpt lat="46.088142175779815" lon="11.104318773774338"><ele>191.0</ele><time>2026-03-29T12:59:25.999Z</time></trkpt><trkpt lat="46.08796711250527" lon="11.104478045977553"><ele>191.0</ele><time>2026-03-29T12:59:26.999Z</time></trkpt><trkpt lat="46.08779905140802" lon="11.104640493415133"><ele>191.0</ele><time>2026-03-29T12:59:27.999Z</time></trkpt><trkpt lat="46.08763298835819" lon="11.104809769529378"><ele>191.0</ele><time>2026-03-29T12:59:28.999Z</time></trkpt><trkpt lat="46.087476200981975" lon="11.104987088888883"><ele>191.0</ele><time>2026-03-29T12:59:29.999Z</time></trkpt><trkpt lat="46.08732991293163" lon="11.10517652389094"><ele>191.0</ele><time>2026-03-29T12:59:30.999Z</time></trkpt><trkpt lat="46.087183582999465" lon="11.10537284643277"><ele>191.0</ele><time>2026-03-29T12:59:31.999Z</time></trkpt><trkpt lat="46.08704283657541" lon="11.105572946202116"><ele>191.0</ele><time>2026-03-29T12:59:32.999Z</time></trkpt><trkpt lat="46.08691296760292" lon="11.10578946712236"><ele>191.0</ele><time>2026-03-29T12:59:33.999Z</time></trkpt><trkpt lat="46.08677834475555" lon="11.106026921965599"><ele>191.0</ele><time>2026-03-29T12:59:34.999Z</time></trkpt><trkpt lat="46.08664124301606" lon="11.1062655347785"><ele>190.66666666666666</ele><time>2026-03-29T12:59:35.999Z</time></trkpt><trkpt lat="46.08650652676431" lon="11.106511043967737"><ele>190.33333333333334</ele><time>2026-03-29T12:59:36.999Z</time></trkpt><trkpt lat="46.08637336194127" lon="11.106765508915418"><ele>190.0</ele><time>2026-03-29T12:59:37.999Z</time></trkpt><trkpt lat="46.08623680899638" lon="11.107016853797528"><ele>190.0</ele><time>2026-03-29T12:59:38.999Z</time></trkpt><trkpt lat="46.086108774084344" lon="11.107262586808455"><ele>190.0</ele><time>2026-03-29T12:59:39.999Z</time></trkpt><trkpt lat="46.085983512552225" lon="11.107486920109572"><ele>190.0</ele><time>2026-03-29T12:59:40.999Z</time></trkpt><trkpt lat="46.085858096451055" lon="11.10771273965115"><ele>190.0</ele><time>2026-03-29T12:59:41.999Z</time></trkpt><trkpt lat="46.085731182870234" lon="11.107938134594685"><ele>190.0</ele><time>2026-03-29T12:59:42.999Z</time></trkpt><trkpt lat="46.08560921563611" lon="11.108160054632783"><ele>190.0</ele><time>2026-03-29T12:59:43.999Z</time></trkpt><trkpt lat="46.08548313115518" lon="11.10838411058431"><ele>190.33333333333334</ele><time>2026-03-29T12:59:44.999Z</time></trkpt><trkpt lat="46.08535904266711" lon="11.108607019016297"><ele>190.66666666666666</ele><time>2026-03-29T12:59:45.999Z</time></trkpt><trkpt lat="46.08524012798462" lon="11.108826819693613"><ele>191.0</ele><time>2026-03-29T12:59:46.999Z</time></trkpt><trkpt lat="46.08512549968136" lon="11.109036744434201"><ele>190.66666666666666</ele><time>2026-03-29T12:59:48Z</time></trkpt><trkpt lat="46.085009316667566" lon="11.109247776588346"><ele>190.33333333333334</ele><time>2026-03-29T12:59:49Z</time></trkpt><trkpt lat="46.08489458005178" lon="11.109462630004217"><ele>190.0</ele><time>2026-03-29T12:59:50Z</time></trkpt><trkpt lat="46.084776178769246" lon="11.109673773089433"><ele>189.66666666666669</ele><time>2026-03-29T12:59:51Z</time></trkpt><trkpt lat="46.08465568043385" lon="11.109890265570233"><ele>189.33333333333334</ele><time>2026-03-29T12:59:52Z</time></trkpt><trkpt lat="46.0845341120176" lon="11.110105861468567"><ele>189.0</ele><time>2026-03-29T12:59:53Z</time></trkpt><trkpt lat="46.08440686247607" lon="11.110332767187053"><ele>189.66666666666666</ele><time>2026-03-29T12:59:54Z</time></trkpt><trkpt lat="46.08428248349941" lon="11.110564648544935"><ele>190.33333333333331</ele><time>2026-03-29T12:59:55Z</time></trkpt><trkpt lat="46.08414951468551" lon="11.110808970985168"><ele>191.0</ele><time>2026-03-29T12:59:56Z</time></trkpt><trkpt lat="46.08401417341493" lon="11.111050577415574"><ele>191.66666666666666</ele><time>2026-03-29T12:59:57Z</time></trkpt><trkpt lat="46.083872146163664" lon="11.111300863889841"><ele>192.33333333333331</ele><time>2026-03-29T12:59:58Z</time></trkpt><trkpt lat="46.08373223233652" lon="11.111545914449104"><ele>193.0</ele><time>2026-03-29T12:59:59Z</time></trkpt><trkpt lat="46.083592376013044" lon="11.111768236759278"><ele>193.33333333333331</ele><time>2026-03-29T13:00:00Z</time></trkpt><trkpt lat="46.083455919636144" lon="11.111993074849103"><ele>193.66666666666669</ele><time>2026-03-29T13:00:01Z</time></trkpt><trkpt lat="46.083330194312545" lon="11.112225591614084"><ele>194.0</ele><time>2026-03-29T13:00:02Z</time></trkpt><trkpt lat="46.083204263412455" lon="11.112453777204205"><ele>192.66666666666669</ele><time>2026-03-29T13:00:03Z</time></trkpt><trkpt lat="46.083085773928524" lon="11.112658125986684"><ele>191.33333333333334</ele><time>2026-03-29T13:00:04Z</time></trkpt><trkpt lat="46.082952914119566" lon="11.112848566070943"><ele>190.0</ele><time>2026-03-29T13:00:05Z</time></trkpt><trkpt lat="46.08280322071261" lon="11.113016093220757"><ele>190.0</ele><time>2026-03-29T13:00:06Z</time></trkpt><trkpt lat="46.082637866458306" lon="11.113166513626018"><ele>190.0</ele><time>2026-03-29T13:00:07Z</time></trkpt><trkpt lat="46.08245234891619" lon="11.113301164774409"><ele>190.0</ele><time>2026-03-29T13:00:08Z</time></trkpt><trkpt lat="46.082261604549" lon="11.113409927632135"><ele>190.66666666666669</ele><time>2026-03-29T13:00:09Z</time></trkpt><trkpt lat="46.08207616740233" lon="11.113473233189577"><ele>191.33333333333334</ele><time>2026-03-29T13:00:10Z</time></trkpt><trkpt lat="46.08187902769619" lon="11.113512372800626"><ele>192.0</ele><time>2026-03-29T13:00:11Z</time></trkpt><trkpt lat="46.08168207167373" lon="11.113537508155753"><ele>191.33333333333334</ele><time>2026-03-29T13:00:12Z</time></trkpt><trkpt lat="46.08149088558323" lon="11.113521528687732"><ele>190.66666666666669</ele><time>2026-03-29T13:00:13Z</time></trkpt><trkpt lat="46.08129893882057" lon="11.11347455861514"><ele>190.0</ele><time>2026-03-29T13:00:14Z</time></trkpt><trkpt lat="46.081112512026216" lon="11.113396064883196"><ele>190.0</ele><time>2026-03-29T13:00:15Z</time></trkpt><trkpt lat="46.08092535114896" lon="11.113299333188378"><ele>190.0</ele><time>2026-03-29T13:00:16Z</time></trkpt><trkpt lat="46.080736286533615" lon="11.113195056087928"><ele>190.0</ele><time>2026-03-29T13:00:17Z</time></trkpt><trkpt lat="46.080545353595426" lon="11.113080489514836"><ele>190.0</ele><time>2026-03-29T13:00:18Z</time></trkpt><trkpt lat="46.080359494042575" lon="11.112966798660027"><ele>190.0</ele><time>2026-03-29T13:00:19Z</time></trkpt><trkpt lat="46.0801703548854" lon="11.11285901057068"><ele>190.0</ele><time>2026-03-29T13:00:20Z</time></trkpt><trkpt lat="46.07998654246808" lon="11.112752771678048"><ele>190.0</ele><time>2026-03-29T13:00:21Z</time></trkpt><trkpt lat="46.07980773354721" lon="11.112653167294887"><ele>190.0</ele><time>2026-03-29T13:00:22Z</time></trkpt><trkpt lat="46.0796418250106" lon="11.11255764046114"><ele>190.0</ele><time>2026-03-29T13:00:23Z</time></trkpt><trkpt lat="46.079479798869244" lon="11.112463405703538"><ele>189.33333333333334</ele><time>2026-03-29T13:00:24Z</time></trkpt><trkpt lat="46.07932234993563" lon="11.112366577068858"><ele>188.66666666666666</ele><time>2026-03-29T13:00:25Z</time></trkpt><trkpt lat="46.079164317028514" lon="11.112252738057489"><ele>188.0</ele><time>2026-03-29T13:00:26Z</time></trkpt><trkpt lat="46.07901370729129" lon="11.112142365433535"><ele>188.0</ele><time>2026-03-29T13:00:27Z</time></trkpt><trkpt lat="46.078868589483925" lon="11.112063305580389"><ele>188.0</ele><time>2026-03-29T13:00:28Z</time></trkpt><trkpt lat="46.07873217270512" lon="11.111994548473193"><ele>188.0</ele><time>2026-03-29T13:00:29Z</time></trkpt><trkpt lat="46.07860478965471" lon="11.111952432977237"><ele>188.0</ele><time>2026-03-29T13:00:30Z</time></trkpt><trkpt lat="46.07848872032013" lon="11.111932278414345"><ele>188.0</ele><time>2026-03-29T13:00:31Z</time></trkpt><trkpt lat="46.07839401336818" lon="11.111932438116925"><ele>188.0</ele><time>2026-03-29T13:00:32Z</time></trkpt><trkpt lat="46.07831488109193" lon="11.111948148213397"><ele>188.0</ele><time>2026-03-29T13:00:33Z</time></trkpt><trkpt lat="46.07823735814617" lon="11.111961298516265"><ele>188.0</ele><time>2026-03-29T13:00:34Z</time></trkpt><trkpt lat="46.078160610510395" lon="11.111958717586196"><ele>188.0</ele><time>2026-03-29T13:00:35Z</time></trkpt><trkpt lat="46.0780806650483" lon="11.111959726809175"><ele>188.0</ele><time>2026-03-29T13:00:36Z</time></trkpt><trkpt lat="46.07799530315764" lon="11.11197631048291"><ele>188.60000000000002</ele><time>2026-03-29T13:00:37Z</time></trkpt><trkpt lat="46.07791416856226" lon="11.111999974510077"><ele>189.20000000000002</ele><time>2026-03-29T13:00:38Z</time></trkpt><trkpt lat="46.077844937345745" lon="11.112022624215731"><ele>189.8</ele><time>2026-03-29T13:00:39Z</time></trkpt><trkpt lat="46.077737026160634" lon="11.11205393145392"><ele>190.4</ele><time>2026-03-29T13:00:41Z</time></trkpt><trkpt lat="46.07762573900343" lon="11.112055063484283"><ele>191.0</ele><time>2026-03-29T13:00:43Z</time></trkpt><trkpt lat="46.07754419162619" lon="11.112044655396735"><ele>191.0</ele><time>2026-03-29T13:00:44Z</time></trkpt><trkpt lat="46.0774541202475" lon="11.112035181475871"><ele>191.0</ele><time>2026-03-29T13:00:45Z</time></trkpt><trkpt lat="46.07738830525453" lon="11.112015192866874"><ele>191.0</ele><time>2026-03-29T13:00:46Z</time></trkpt><trkpt lat="46.07731586607681" lon="11.11196976694569"><ele>191.0</ele><time>2026-03-29T13:00:48Z</time></trkpt><trkpt lat="46.077226463312876" lon="11.111867289832613"><ele>191.0</ele><time>2026-03-29T13:00:51Z</time></trkpt><trkpt lat="46.077175431046975" lon="11.111777822414414"><ele>191.0</ele><time>2026-03-29T13:00:52Z</time></trkpt><trkpt lat="46.077093266620494" lon="11.111624520609686"><ele>190.20000000000002</ele><time>2026-03-29T13:00:54Z</time></trkpt><trkpt lat="46.07703558176426" lon="11.111540618101253"><ele>189.4</ele><time>2026-03-29T13:00:55Z</time></trkpt><trkpt lat="46.07696508155517" lon="11.111456002759642"><ele>188.6</ele><time>2026-03-29T13:00:56Z</time></trkpt><trkpt lat="46.076878751009595" lon="11.11139474241792"><ele>187.8</ele><time>2026-03-29T13:00:57Z</time></trkpt><trkpt lat="46.076787202354495" lon="11.111359566168295"><ele>187.0</ele><time>2026-03-29T13:00:58Z</time></trkpt><trkpt lat="46.076689943967914" lon="11.111335729852765"><ele>187.0</ele><time>2026-03-29T13:00:59Z</time></trkpt><trkpt lat="46.07658699376979" lon="11.111328220031922"><ele>187.0</ele><time>2026-03-29T13:01:00Z</time></trkpt><trkpt lat="46.07648743106458" lon="11.111345374391336"><ele>187.0</ele><time>2026-03-29T13:01:01Z</time></trkpt><trkpt lat="46.07640726042279" lon="11.111371639188063"><ele>187.0</ele><time>2026-03-29T13:01:02Z</time></trkpt><trkpt lat="46.07631021311428" lon="11.111355657458194"><ele>187.0</ele><time>2026-03-29T13:01:03Z</time></trkpt><trkpt lat="46.07621530343059" lon="11.111299111232013"><ele>187.0</ele><time>2026-03-29T13:01:04Z</time></trkpt><trkpt lat="46.076121068209254" lon="11.111210382477429"><ele>187.0</ele><time>2026-03-29T13:01:05Z</time></trkpt><trkpt lat="46.07602775734776" lon="11.11109249740601"><ele>187.0</ele><time>2026-03-29T13:01:06Z</time></trkpt><trkpt lat="46.075939674125536" lon="11.11094931043008"><ele>187.0</ele><time>2026-03-29T13:01:07Z</time></trkpt><trkpt lat="46.075851330643474" lon="11.110775130845326"><ele>190.33333333333334</ele><time>2026-03-29T13:01:08Z</time></trkpt><trkpt lat="46.075744465757275" lon="11.110570069077063"><ele>193.66666666666669</ele><time>2026-03-29T13:01:08.999Z</time></trkpt><trkpt lat="46.07562210686512" lon="11.110358112826402"><ele>197.0</ele><time>2026-03-29T13:01:09.999Z</time></trkpt><trkpt lat="46.075496786000805" lon="11.11014341019795"><ele>197.0</ele><time>2026-03-29T13:01:10.999Z</time></trkpt><trkpt lat="46.07537090825759" lon="11.109915808116519"><ele>197.0</ele><time>2026-03-29T13:01:11.999Z</time></trkpt><trkpt lat="46.07525344300817" lon="11.109686604173875"><ele>197.0</ele><time>2026-03-29T13:01:12.999Z</time></trkpt><trkpt lat="46.07514945142567" lon="11.109442133770965"><ele>196.66666666666669</ele><time>2026-03-29T13:01:13.999Z</time></trkpt><trkpt lat="46.07504905509026" lon="11.109163523891626"><ele>196.33333333333331</ele><time>2026-03-29T13:01:14.999Z</time></trkpt><trkpt lat="46.07494860658087" lon="11.1088641148059"><ele>196.0</ele><time>2026-03-29T13:01:15.999Z</time></trkpt><trkpt lat="46.07486955916805" lon="11.108538196310795"><ele>200.0</ele><time>2026-03-29T13:01:16.999Z</time></trkpt><trkpt lat="46.074803938353746" lon="11.1082026546743"><ele>204.0</ele><time>2026-03-29T13:01:17.999Z</time></trkpt><trkpt lat="46.07474635227648" lon="11.107894178304461"><ele>204.0</ele><time>2026-03-29T13:01:18.999Z</time></trkpt><trkpt lat="46.074689198321444" lon="11.10759969606373"><ele>204.0</ele><time>2026-03-29T13:01:19.999Z</time></trkpt><trkpt lat="46.074630670766616" lon="11.107301850616203"><ele>204.0</ele><time>2026-03-29T13:01:20.999Z</time></trkpt><trkpt lat="46.074573380326115" lon="11.107003865101674"><ele>204.0</ele><time>2026-03-29T13:01:21.999Z</time></trkpt><trkpt lat="46.07451314770332" lon="11.106706705562384"><ele>204.0</ele><time>2026-03-29T13:01:22.999Z</time></trkpt><trkpt lat="46.074448133646015" lon="11.106401573627533"><ele>204.0</ele><time>2026-03-29T13:01:23.999Z</time></trkpt><trkpt lat="46.07437749665612" lon="11.106079282090372"><ele>204.0</ele><time>2026-03-29T13:01:24.999Z</time></trkpt><trkpt lat="46.07431308412591" lon="11.105759088457386"><ele>204.0</ele><time>2026-03-29T13:01:25.999Z</time></trkpt><trkpt lat="46.07426017717255" lon="11.105482234933818"><ele>204.0</ele><time>2026-03-29T13:01:26.999Z</time></trkpt><trkpt lat="46.074203862542156" lon="11.105205300393186"><ele>206.33333333333331</ele><time>2026-03-29T13:01:27.999Z</time></trkpt><trkpt lat="46.07415078959484" lon="11.10492193727941"><ele>208.66666666666666</ele><time>2026-03-29T13:01:28.999Z</time></trkpt><trkpt lat="46.07410806109512" lon="11.104641392718362"><ele>211.0</ele><time>2026-03-29T13:01:29.999Z</time></trkpt><trkpt lat="46.074080543897544" lon="11.104343460153085"><ele>220.33333333333331</ele><time>2026-03-29T13:01:30.999Z</time></trkpt><trkpt lat="46.07408775065782" lon="11.104029026674983"><ele>229.66666666666669</ele><time>2026-03-29T13:01:31.999Z</time></trkpt><trkpt lat="46.07412300478238" lon="11.103753533696544"><ele>239.0</ele><time>2026-03-29T13:01:32.999Z</time></trkpt><trkpt lat="46.07418463877344" lon="11.103478307998875"><ele>244.33333333333334</ele><time>2026-03-29T13:01:33.999Z</time></trkpt><trkpt lat="46.074265750826235" lon="11.1032030243629"><ele>249.66666666666669</ele><time>2026-03-29T13:01:34.999Z</time></trkpt><trkpt lat="46.07434212215315" lon="11.102912784876585"><ele>255.0</ele><time>2026-03-29T13:01:35.999Z</time></trkpt><trkpt lat="46.074407975643204" lon="11.10266455677937"><ele>255.0</ele><time>2026-03-29T13:01:36.999Z</time></trkpt><trkpt lat="46.07447401074313" lon="11.102441257445951"><ele>255.0</ele><time>2026-03-29T13:01:37.999Z</time></trkpt><trkpt lat="46.07454420120582" lon="11.102239228351594"><ele>255.0</ele><time>2026-03-29T13:01:38.999Z</time></trkpt><trkpt lat="46.07463353659236" lon="11.102062804076509"><ele>254.25</ele><time>2026-03-29T13:01:39.999Z</time></trkpt><trkpt lat="46.07474264157837" lon="11.10191228171727"><ele>253.5</ele><time>2026-03-29T13:01:40.999Z</time></trkpt><trkpt lat="46.074861088523356" lon="11.101780407359417"><ele>252.75</ele><time>2026-03-29T13:01:41.999Z</time></trkpt><trkpt lat="46.074979503115436" lon="11.10167182866153"><ele>252.0</ele><time>2026-03-29T13:01:42.999Z</time></trkpt><trkpt lat="46.075102337387534" lon="11.101566630414917"><ele>253.0</ele><time>2026-03-29T13:01:43.999Z</time></trkpt><trkpt lat="46.07522807276411" lon="11.101453585521382"><ele>254.0</ele><time>2026-03-29T13:01:44.999Z</time></trkpt><trkpt lat="46.075353732846054" lon="11.101354753233998"><ele>255.0</ele><time>2026-03-29T13:01:45.999Z</time></trkpt><trkpt lat="46.075479487848526" lon="11.10124641671989"><ele>256.0</ele><time>2026-03-29T13:01:47.016Z</time></trkpt><trkpt lat="46.075975179805134" lon="11.100819378113947"><ele>259.2</ele><time>2026-03-29T13:01:51.022Z</time></trkpt><trkpt lat="46.07605656874967" lon="11.100707437905813"><ele>262.40000000000003</ele><time>2026-03-29T13:01:51.999Z</time></trkpt><trkpt lat="46.07613585305103" lon="11.100637495513707"><ele>265.6</ele><time>2026-03-29T13:01:52.999Z</time></trkpt><trkpt lat="46.076231481449874" lon="11.100532394492072"><ele>268.8</ele><time>2026-03-29T13:01:53.999Z</time></trkpt><trkpt lat="46.076322633764946" lon="11.100448029792235"><ele>272.0</ele><time>2026-03-29T13:01:54.999Z</time></trkpt><trkpt lat="46.076437926652076" lon="11.100396456785129"><ele>272.0</ele><time>2026-03-29T13:01:55.999Z</time></trkpt><trkpt lat="46.07652916345436" lon="11.100306441876315"><ele>272.0</ele><time>2026-03-29T13:01:56.999Z</time></trkpt><trkpt lat="46.07662784524462" lon="11.100232524538661"><ele>272.0</ele><time>2026-03-29T13:01:58Z</time></trkpt><trkpt lat="46.07673954854153" lon="11.100167209375481"><ele>272.0</ele><time>2026-03-29T13:01:59Z</time></trkpt><trkpt lat="46.07686107470482" lon="11.100094130380846"><ele>273.0</ele><time>2026-03-29T13:02:00Z</time></trkpt><trkpt lat="46.07699248997374" lon="11.100015104687754"><ele>274.0</ele><time>2026-03-29T13:02:01Z</time></trkpt><trkpt lat="46.07712743618822" lon="11.099933955672407"><ele>275.0</ele><time>2026-03-29T13:02:02Z</time></trkpt><trkpt lat="46.077267149259406" lon="11.099849940080464"><ele>276.0</ele><time>2026-03-29T13:02:03Z</time></trkpt><trkpt lat="46.07740458761437" lon="11.09976749234589"><ele>276.3333333333333</ele><time>2026-03-29T13:02:04Z</time></trkpt><trkpt lat="46.077563427724954" lon="11.099672199301802"><ele>276.66666666666663</ele><time>2026-03-29T13:02:05Z</time></trkpt><trkpt lat="46.07774768786361" lon="11.099561655991902"><ele>277.0</ele><time>2026-03-29T13:02:06Z</time></trkpt><trkpt lat="46.077927242866004" lon="11.09945247473008"><ele>277.0</ele><time>2026-03-29T13:02:07Z</time></trkpt><trkpt lat="46.078064788448735" lon="11.099372186316229"><ele>277.0</ele><time>2026-03-29T13:02:08Z</time></trkpt><trkpt lat="46.07817795416011" lon="11.099318202408595"><ele>277.0</ele><time>2026-03-29T13:02:09Z</time></trkpt><trkpt lat="46.07827849791618" lon="11.099285698773713"><ele>277.0</ele><time>2026-03-29T13:02:10Z</time></trkpt><trkpt lat="46.07839238533528" lon="11.099250393672204"><ele>275.66666666666663</ele><time>2026-03-29T13:02:11Z</time></trkpt><trkpt lat="46.07854724508425" lon="11.099207974490211"><ele>274.3333333333333</ele><time>2026-03-29T13:02:12Z</time></trkpt><trkpt lat="46.07873769944156" lon="11.099159062423707"><ele>273.0</ele><time>2026-03-29T13:02:13Z</time></trkpt><trkpt lat="46.078933666616514" lon="11.09908272756494"><ele>283.6666666666667</ele><time>2026-03-29T13:02:14Z</time></trkpt><trkpt lat="46.07909500414327" lon="11.099051986644652"><ele>294.33333333333337</ele><time>2026-03-29T13:02:15Z</time></trkpt><trkpt lat="46.07926142616676" lon="11.09899794242625"><ele>305.0</ele><time>2026-03-29T13:02:16Z</time></trkpt><trkpt lat="46.07946751933045" lon="11.098932631938704"><ele>305.0</ele><time>2026-03-29T13:02:17Z</time></trkpt><trkpt lat="46.079681812479045" lon="11.098847458976477"><ele>305.0</ele><time>2026-03-29T13:02:18Z</time></trkpt><trkpt lat="46.07987975620585" lon="11.098730449631732"><ele>305.0</ele><time>2026-03-29T13:02:19Z</time></trkpt><trkpt lat="46.0800521893378" lon="11.098621766988412"><ele>300.25</ele><time>2026-03-29T13:02:20Z</time></trkpt><trkpt lat="46.080197887656" lon="11.09854954641282"><ele>295.5</ele><time>2026-03-29T13:02:21Z</time></trkpt><trkpt lat="46.08032925287377" lon="11.09849603073671"><ele>290.75</ele><time>2026-03-29T13:02:22Z</time></trkpt><trkpt lat="46.08041463662702" lon="11.098382641112526"><ele>286.0</ele><time>2026-03-29T13:02:23Z</time></trkpt><trkpt lat="46.08049173952335" lon="11.098314637157147"><ele>287.40000000000003</ele><time>2026-03-29T13:02:24Z</time></trkpt><trkpt lat="46.0804669526855" lon="11.098160773102961"><ele>288.8</ele><time>2026-03-29T13:02:25Z</time></trkpt><trkpt lat="46.08043992903797" lon="11.098043697525739"><ele>290.20000000000005</ele><time>2026-03-29T13:02:26Z</time></trkpt><trkpt lat="46.080390662901145" lon="11.097917160009128"><ele>291.6</ele><time>2026-03-29T13:02:27Z</time></trkpt><trkpt lat="46.08032048825229" lon="11.097755310200496"><ele>293.0</ele><time>2026-03-29T13:02:28Z</time></trkpt><trkpt lat="46.0802397519105" lon="11.097574097641665"><ele>284.6666666666667</ele><time>2026-03-29T13:02:29Z</time></trkpt><trkpt lat="46.08015021276234" lon="11.09739741085015"><ele>276.3333333333333</ele><time>2026-03-29T13:02:30Z</time></trkpt><trkpt lat="46.08005684583342" lon="11.097217781629283"><ele>268.0</ele><time>2026-03-29T13:02:31Z</time></trkpt><trkpt lat="46.07993491726212" lon="11.097066708783847"><ele>283.0</ele><time>2026-03-29T13:02:32Z</time></trkpt><trkpt lat="46.07982900623683" lon="11.096871452102949"><ele>298.0</ele><time>2026-03-29T13:02:33Z</time></trkpt><trkpt lat="46.07965124790901" lon="11.096796325992392"><ele>313.0</ele><time>2026-03-29T13:02:34Z</time></trkpt><trkpt lat="46.07950534168857" lon="11.096656897692007"><ele>305.66666666666663</ele><time>2026-03-29T13:02:35Z</time></trkpt><trkpt lat="46.079371969893096" lon="11.09651028679823"><ele>298.3333333333333</ele><time>2026-03-29T13:02:36Z</time></trkpt><trkpt lat="46.07925402325107" lon="11.0963549577699"><ele>291.0</ele><time>2026-03-29T13:02:37Z</time></trkpt><trkpt lat="46.07915611059899" lon="11.096167474330501"><ele>316.3333333333333</ele><time>2026-03-29T13:02:38Z</time></trkpt><trkpt lat="46.07907035879806" lon="11.095977034639965"><ele>341.66666666666663</ele><time>2026-03-29T13:02:39Z</time></trkpt><trkpt lat="46.07897665144694" lon="11.095775249919757"><ele>367.0</ele><time>2026-03-29T13:02:40Z</time></trkpt><trkpt lat="46.07890284734263" lon="11.095543565452775"><ele>367.0</ele><time>2026-03-29T13:02:41Z</time></trkpt><trkpt lat="46.07885323769162" lon="11.095295948308818"><ele>367.0</ele><time>2026-03-29T13:02:42Z</time></trkpt><trkpt lat="46.07882739448731" lon="11.095042133224307"><ele>367.0</ele><time>2026-03-29T13:02:43Z</time></trkpt><trkpt lat="46.07885974023278" lon="11.094777877579588"><ele>371.0</ele><time>2026-03-29T13:02:44Z</time></trkpt><trkpt lat="46.078897588408296" lon="11.094510957221697"><ele>375.0</ele><time>2026-03-29T13:02:45Z</time></trkpt><trkpt lat="46.078927700572336" lon="11.094228016667447"><ele>379.0</ele><time>2026-03-29T13:02:46Z</time></trkpt><trkpt lat="46.078969929709956" lon="11.093941896662782"><ele>381.0</ele><time>2026-03-29T13:02:47Z</time></trkpt><trkpt lat="46.07901046397811" lon="11.09363704815339"><ele>383.0</ele><time>2026-03-29T13:02:48Z</time></trkpt><trkpt lat="46.07905208340941" lon="11.093323664846388"><ele>385.0</ele><time>2026-03-29T13:02:49Z</time></trkpt><trkpt lat="46.07907539803346" lon="11.093060393570461"><ele>386.0</ele><time>2026-03-29T13:02:50Z</time></trkpt><trkpt lat="46.07905959189032" lon="11.09279609740325"><ele>387.0</ele><time>2026-03-29T13:02:51Z</time></trkpt><trkpt lat="46.079018389922425" lon="11.092504817187692"><ele>388.0</ele><time>2026-03-29T13:02:52Z</time></trkpt><trkpt lat="46.07897454363739" lon="11.092212230207846"><ele>394.33333333333337</ele><time>2026-03-29T13:02:53Z</time></trkpt><trkpt lat="46.07894335047179" lon="11.09191022292211"><ele>400.66666666666663</ele><time>2026-03-29T13:02:54Z</time></trkpt><trkpt lat="46.07892303259497" lon="11.091631053636155"><ele>407.0</ele><time>2026-03-29T13:02:55Z</time></trkpt><trkpt lat="46.07894151543817" lon="11.091388270247734"><ele>415.66666666666663</ele><time>2026-03-29T13:02:56Z</time></trkpt><trkpt lat="46.07898961484649" lon="11.091127353899962"><ele>424.33333333333337</ele><time>2026-03-29T13:02:57Z</time></trkpt><trkpt lat="46.079059918302264" lon="11.090852900643664"><ele>433.0</ele><time>2026-03-29T13:02:58Z</time></trkpt><trkpt lat="46.07912048255165" lon="11.090569375033061"><ele>415.0</ele><time>2026-03-29T13:02:59Z</time></trkpt><trkpt lat="46.079168887571136" lon="11.090322526389553"><ele>397.0</ele><time>2026-03-29T13:03:00Z</time></trkpt><trkpt lat="46.07926336172755" lon="11.090148090316273"><ele>379.0</ele><time>2026-03-29T13:03:01Z</time></trkpt><trkpt lat="46.07939005034165" lon="11.089974634813009"><ele>393.66666666666663</ele><time>2026-03-29T13:03:02Z</time></trkpt><trkpt lat="46.07952295487116" lon="11.08978596464034"><ele>408.3333333333333</ele><time>2026-03-29T13:03:03Z</time></trkpt><trkpt lat="46.07967263371995" lon="11.089587279349482"><ele>423.0</ele><time>2026-03-29T13:03:04Z</time></trkpt><trkpt lat="46.07981810979361" lon="11.08937371356425"><ele>408.0</ele><time>2026-03-29T13:03:05Z</time></trkpt><trkpt lat="46.079965069441194" lon="11.089143327851518"><ele>393.0</ele><time>2026-03-29T13:03:06Z</time></trkpt><trkpt lat="46.080113294749104" lon="11.0889042310465"><ele>378.0</ele><time>2026-03-29T13:03:06.999Z</time></trkpt><trkpt lat="46.08022587349385" lon="11.088658605629865"><ele>378.0</ele><time>2026-03-29T13:03:07.999Z</time></trkpt><trkpt lat="46.08033332287031" lon="11.08844733195489"><ele>378.0</ele><time>2026-03-29T13:03:08.999Z</time></trkpt><trkpt lat="46.08046122654682" lon="11.08828149412538"><ele>378.0</ele><time>2026-03-29T13:03:09.999Z</time></trkpt><trkpt lat="46.08054650090972" lon="11.088132430038806"><ele>387.33333333333337</ele><time>2026-03-29T13:03:10.999Z</time></trkpt><trkpt lat="46.08061488488402" lon="11.08795657276075"><ele>396.6666666666667</ele><time>2026-03-29T13:03:11.999Z</time></trkpt><trkpt lat="46.08063478731169" lon="11.087708160112804"><ele>406.0</ele><time>2026-03-29T13:03:12.999Z</time></trkpt><trkpt lat="46.0806700848037" lon="11.087426222436331"><ele>412.6666666666667</ele><time>2026-03-29T13:03:13.999Z</time></trkpt><trkpt lat="46.08074706501039" lon="11.087168238610882"><ele>419.33333333333337</ele><time>2026-03-29T13:03:14.999Z</time></trkpt><trkpt lat="46.080830043137695" lon="11.086897792167482"><ele>426.0</ele><time>2026-03-29T13:03:15.999Z</time></trkpt><trkpt lat="46.08089023378798" lon="11.08660244036106"><ele>397.5</ele><time>2026-03-29T13:03:16.999Z</time></trkpt><trkpt lat="46.080923270837886" lon="11.086270096524947"><ele>369.0</ele><time>2026-03-29T13:03:17.999Z</time></trkpt><trkpt lat="46.0809322767967" lon="11.085932300232821"><ele>372.0</ele><time>2026-03-29T13:03:18.999Z</time></trkpt><trkpt lat="46.08095143596258" lon="11.085590482602719"><ele>375.0</ele><time>2026-03-29T13:03:19.999Z</time></trkpt><trkpt lat="46.080989390672265" lon="11.085303102616981"><ele>378.0</ele><time>2026-03-29T13:03:20.999Z</time></trkpt><trkpt lat="46.08107534599105" lon="11.08507401988273"><ele>383.33333333333337</ele><time>2026-03-29T13:03:21.999Z</time></trkpt><trkpt lat="46.08115565917517" lon="11.08484448672997"><ele>388.6666666666667</ele><time>2026-03-29T13:03:22.999Z</time></trkpt><trkpt lat="46.08124046716497" lon="11.084647735444634"><ele>394.0</ele><time>2026-03-29T13:03:23.999Z</time></trkpt><trkpt lat="46.081271670156816" lon="11.08441529783097"><ele>394.0</ele><time>2026-03-29T13:03:24.999Z</time></trkpt><trkpt lat="46.081276960442025" lon="11.084163105736746"><ele>394.0</ele><time>2026-03-29T13:03:25.999Z</time></trkpt><trkpt lat="46.0812502704183" lon="11.083906744857083"><ele>394.0</ele><time>2026-03-29T13:03:26.999Z</time></trkpt><trkpt lat="46.08119861703024" lon="11.083653711013945"><ele>395.0</ele><time>2026-03-29T13:03:27.999Z</time></trkpt><trkpt lat="46.081158987411406" lon="11.083427480113693"><ele>396.0</ele><time>2026-03-29T13:03:28.999Z</time></trkpt><trkpt lat="46.08112197072742" lon="11.083210613795542"><ele>397.0</ele><time>2026-03-29T13:03:29.999Z</time></trkpt><trkpt lat="46.08110518514355" lon="11.08297844416956"><ele>397.0</ele><time>2026-03-29T13:03:30.999Z</time></trkpt><trkpt lat="46.08110306586989" lon="11.082772079789768"><ele>397.0</ele><time>2026-03-29T13:03:31.999Z</time></trkpt><trkpt lat="46.08112969313512" lon="11.082558727607772"><ele>397.0</ele><time>2026-03-29T13:03:32.999Z</time></trkpt><trkpt lat="46.081179733143244" lon="11.08233847331091"><ele>396.6666666666667</ele><time>2026-03-29T13:03:33.999Z</time></trkpt><trkpt lat="46.08123304379927" lon="11.082123980553286"><ele>396.33333333333337</ele><time>2026-03-29T13:03:34.999Z</time></trkpt><trkpt lat="46.08129042717092" lon="11.081904734425075"><ele>396.0</ele><time>2026-03-29T13:03:35.999Z</time></trkpt><trkpt lat="46.08134762781336" lon="11.081658673458362"><ele>396.66666666666663</ele><time>2026-03-29T13:03:36.999Z</time></trkpt><trkpt lat="46.0814142784819" lon="11.081415106309258"><ele>397.3333333333333</ele><time>2026-03-29T13:03:37.999Z</time></trkpt><trkpt lat="46.081489387678694" lon="11.081123920372573"><ele>398.0</ele><time>2026-03-29T13:03:38.999Z</time></trkpt><trkpt lat="46.081559936091416" lon="11.080847038719043"><ele>522.0</ele><time>2026-03-29T13:03:40.021Z</time></trkpt><trkpt lat="46.0826726079451" lon="11.07739729488438"><ele>487.0</ele><time>2026-03-29T13:03:44.223Z</time></trkpt><trkpt lat="46.0829282931262" lon="11.076569118100213"><ele>455.0</ele><time>2026-03-29T13:03:45.225Z</time></trkpt><trkpt lat="46.083182500556156" lon="11.075743665420141"><ele>474.0</ele><time>2026-03-29T13:03:46.222Z</time></trkpt><trkpt lat="46.08343801001216" lon="11.074913984850712"><ele>442.0</ele><time>2026-03-29T13:03:47.225Z</time></trkpt><trkpt lat="46.083692337316364" lon="11.074087835906253"><ele>430.0</ele><time>2026-03-29T13:03:48.223Z</time></trkpt><trkpt lat="46.083948093818925" lon="11.07325906984193"><ele>428.0</ele><time>2026-03-29T13:03:49.225Z</time></trkpt><trkpt lat="46.084204366348274" lon="11.072437281193158"><ele>428.0</ele><time>2026-03-29T13:03:50.22Z</time></trkpt><trkpt lat="46.08445829110131" lon="11.072058820057617"><ele>428.0</ele><time>2026-03-29T13:04:13.999Z</time></trkpt><trkpt lat="46.084562076686396" lon="11.071586443793812"><ele>427.66666666666663</ele><time>2026-03-29T13:04:14.999Z</time></trkpt><trkpt lat="46.084696753646114" lon="11.071444786920054"><ele>427.33333333333337</ele><time>2026-03-29T13:04:15.999Z</time></trkpt><trkpt lat="46.084811323368925" lon="11.07126088225182"><ele>427.0</ele><time>2026-03-29T13:04:16.999Z</time></trkpt><trkpt lat="46.08493451820407" lon="11.071071794173294"><ele>427.0</ele><time>2026-03-29T13:04:17.999Z</time></trkpt><trkpt lat="46.085069231138846" lon="11.070895363012742"><ele>427.0</ele><time>2026-03-29T13:04:18.999Z</time></trkpt><trkpt lat="46.085216621135174" lon="11.070728349333448"><ele>427.0</ele><time>2026-03-29T13:04:20Z</time></trkpt><trkpt lat="46.0853825875087" lon="11.070574454554691"><ele>428.33333333333337</ele><time>2026-03-29T13:04:21Z</time></trkpt><trkpt lat="46.085555466317984" lon="11.070433053024884"><ele>429.66666666666663</ele><time>2026-03-29T13:04:22Z</time></trkpt><trkpt lat="46.08573183496443" lon="11.070287075077623"><ele>431.0</ele><time>2026-03-29T13:04:23Z</time></trkpt><trkpt lat="46.08592059115997" lon="11.070142853173502"><ele>431.0</ele><time>2026-03-29T13:04:24Z</time></trkpt><trkpt lat="46.0861030709492" lon="11.06999110086491"><ele>431.0</ele><time>2026-03-29T13:04:25Z</time></trkpt><trkpt lat="46.08628097009261" lon="11.069826468383607"><ele>431.0</ele><time>2026-03-29T13:04:26Z</time></trkpt><trkpt lat="46.08646381271494" lon="11.069657660509844"><ele>434.0</ele><time>2026-03-29T13:04:27Z</time></trkpt><trkpt lat="46.08664328026748" lon="11.069467882274992"><ele>437.0</ele><time>2026-03-29T13:04:28Z</time></trkpt><trkpt lat="46.08681115314783" lon="11.069263301965638"><ele>440.0</ele><time>2026-03-29T13:04:29Z</time></trkpt><trkpt lat="46.086959387759414" lon="11.069063799815323"><ele>440.0</ele><time>2026-03-29T13:04:30Z</time></trkpt><trkpt lat="46.08707991934999" lon="11.068870917999666"><ele>440.0</ele><time>2026-03-29T13:04:31Z</time></trkpt><trkpt lat="46.08722283635014" lon="11.068678184327297"><ele>440.0</ele><time>2026-03-29T13:04:32Z</time></trkpt><trkpt lat="46.0873345792696" lon="11.068451771770318"><ele>447.5</ele><time>2026-03-29T13:04:33Z</time></trkpt><trkpt lat="46.08748446215522" lon="11.068187125427837"><ele>455.0</ele><time>2026-03-29T13:04:34.021Z</time></trkpt><trkpt lat="46.08790348271555" lon="11.067447264804999"><ele>461.0</ele><time>2026-03-29T13:04:37.223Z</time></trkpt><trkpt lat="46.08805134345772" lon="11.067186189140042"><ele>467.0</ele><time>2026-03-29T13:04:38.22Z</time></trkpt><trkpt lat="46.088236555705116" lon="11.06686100284893"><ele>470.5</ele><time>2026-03-29T13:04:39.224Z</time></trkpt><trkpt lat="46.0884912940407" lon="11.066409684117604"><ele>474.0</ele><time>2026-03-29T13:04:40.224Z</time></trkpt><trkpt lat="46.088888654231326" lon="11.0657057503748"><ele>502.0</ele><time>2026-03-29T13:04:41.224Z</time></trkpt><trkpt lat="46.09054839945256" lon="11.062176125715126"><ele>502.0</ele><time>2026-03-29T13:05:02Z</time></trkpt><trkpt lat="46.09063673918625" lon="11.061980890064849"><ele>502.0</ele><time>2026-03-29T13:05:03Z</time></trkpt><trkpt lat="46.09071575014456" lon="11.061771087165937"><ele>502.0</ele><time>2026-03-29T13:05:04Z</time></trkpt><trkpt lat="46.090788460413265" lon="11.06157681032725"><ele>500.75</ele><time>2026-03-29T13:05:05Z</time></trkpt><trkpt lat="46.090871097342564" lon="11.06138837486494"><ele>499.5</ele><time>2026-03-29T13:05:06Z</time></trkpt><trkpt lat="46.09094626122878" lon="11.061208771147133"><ele>498.25</ele><time>2026-03-29T13:05:07Z</time></trkpt><trkpt lat="46.09101731674585" lon="11.061029711396692"><ele>497.0</ele><time>2026-03-29T13:05:08Z</time></trkpt><trkpt lat="46.09106801396871" lon="11.06083682950728"><ele>505.0</ele><time>2026-03-29T13:05:09Z</time></trkpt><trkpt lat="46.09113366660442" lon="11.06064882944158"><ele>513.0</ele><time>2026-03-29T13:05:10Z</time></trkpt><trkpt lat="46.091209043439335" lon="11.060443273011868"><ele>521.0</ele><time>2026-03-29T13:05:11Z</time></trkpt><trkpt lat="46.091290384824354" lon="11.06021760057653"><ele>521.0</ele><time>2026-03-29T13:05:12Z</time></trkpt><trkpt lat="46.09137698977759" lon="11.059983282937097"><ele>521.0</ele><time>2026-03-29T13:05:13Z</time></trkpt><trkpt lat="46.091456209178396" lon="11.059785881839394"><ele>521.0</ele><time>2026-03-29T13:05:14Z</time></trkpt><trkpt lat="46.09152185950468" lon="11.05960225683578"><ele>518.75</ele><time>2026-03-29T13:05:15Z</time></trkpt><trkpt lat="46.09158338870386" lon="11.05943296534107"><ele>516.5</ele><time>2026-03-29T13:05:16Z</time></trkpt><trkpt lat="46.09165146923778" lon="11.059254028197499"><ele>514.25</ele><time>2026-03-29T13:05:17Z</time></trkpt><trkpt lat="46.09171846760465" lon="11.059089889104435"><ele>512.0</ele><time>2026-03-29T13:05:18Z</time></trkpt><trkpt lat="46.09179406996527" lon="11.05894403163378"><ele>512.0</ele><time>2026-03-29T13:05:19Z</time></trkpt><trkpt lat="46.091863062147745" lon="11.058774087622432"><ele>512.0</ele><time>2026-03-29T13:05:20Z</time></trkpt><trkpt lat="46.09192901951827" lon="11.058616895493648"><ele>512.0</ele><time>2026-03-29T13:05:21Z</time></trkpt><trkpt lat="46.09199559545591" lon="11.05846879206204"><ele>512.0</ele><time>2026-03-29T13:05:22Z</time></trkpt><trkpt lat="46.09205907524245" lon="11.05831745193112"><ele>514.0</ele><time>2026-03-29T13:05:23Z</time></trkpt><trkpt lat="46.09212592443344" lon="11.05816280704445"><ele>516.0</ele><time>2026-03-29T13:05:24Z</time></trkpt><trkpt lat="46.092197515665696" lon="11.057998756460824"><ele>518.0</ele><time>2026-03-29T13:05:25Z</time></trkpt><trkpt lat="46.09226973488296" lon="11.057830544288972"><ele>520.0</ele><time>2026-03-29T13:05:26Z</time></trkpt><trkpt lat="46.092356148493955" lon="11.05764795261082"><ele>510.5</ele><time>2026-03-29T13:05:27Z</time></trkpt><trkpt lat="46.092437837028136" lon="11.05749320990029"><ele>501.0</ele><time>2026-03-29T13:05:28Z</time></trkpt><trkpt lat="46.092498941841335" lon="11.057336432747668"><ele>491.5</ele><time>2026-03-29T13:05:28.999Z</time></trkpt><trkpt lat="46.09253757370988" lon="11.057148046221972"><ele>482.0</ele><time>2026-03-29T13:05:29.999Z</time></trkpt><trkpt lat="46.09254294828759" lon="11.056943184244833"><ele>482.0</ele><time>2026-03-29T13:05:30.999Z</time></trkpt><trkpt lat="46.09251379747297" lon="11.056744166563574"><ele>482.0</ele><time>2026-03-29T13:05:31.999Z</time></trkpt><trkpt lat="46.09244201207004" lon="11.056540828912613"><ele>482.0</ele><time>2026-03-29T13:05:32.999Z</time></trkpt><trkpt lat="46.09234311642609" lon="11.056356153276582"><ele>484.66666666666663</ele><time>2026-03-29T13:05:33.999Z</time></trkpt><trkpt lat="46.09221990593563" lon="11.056162608378033"><ele>487.33333333333337</ele><time>2026-03-29T13:05:34.999Z</time></trkpt><trkpt lat="46.092099562026526" lon="11.055954791284316"><ele>490.0</ele><time>2026-03-29T13:05:35.999Z</time></trkpt><trkpt lat="46.09197728082895" lon="11.055732833050518"><ele>490.0</ele><time>2026-03-29T13:05:36.999Z</time></trkpt><trkpt lat="46.09186228033118" lon="11.055504900151117"><ele>490.0</ele><time>2026-03-29T13:05:37.999Z</time></trkpt><trkpt lat="46.09176216876904" lon="11.055300209969653"><ele>490.0</ele><time>2026-03-29T13:05:38.999Z</time></trkpt><trkpt lat="46.091657531437505" lon="11.055093489933856"><ele>492.6666666666667</ele><time>2026-03-29T13:05:39.999Z</time></trkpt><trkpt lat="46.09154683418467" lon="11.054897972424962"><ele>495.33333333333337</ele><time>2026-03-29T13:05:40.999Z</time></trkpt><trkpt lat="46.09142574636871" lon="11.054713088239723"><ele>498.0</ele><time>2026-03-29T13:05:41.999Z</time></trkpt><trkpt lat="46.09130146300789" lon="11.054538330274617"><ele>498.0</ele><time>2026-03-29T13:05:42.999Z</time></trkpt><trkpt lat="46.09116488335032" lon="11.054385422931064"><ele>498.0</ele><time>2026-03-29T13:05:43.999Z</time></trkpt><trkpt lat="46.09102142492782" lon="11.0542398771803"><ele>498.0</ele><time>2026-03-29T13:05:44.999Z</time></trkpt><trkpt lat="46.090863637295996" lon="11.054094749827078"><ele>495.33333333333337</ele><time>2026-03-29T13:05:45.999Z</time></trkpt><trkpt lat="46.09070788424537" lon="11.053943791267741"><ele>492.6666666666667</ele><time>2026-03-29T13:05:46.999Z</time></trkpt><trkpt lat="46.090554917502196" lon="11.053789466765577"><ele>490.0</ele><time>2026-03-29T13:05:47.999Z</time></trkpt><trkpt lat="46.09040351075659" lon="11.053629958895328"><ele>490.0</ele><time>2026-03-29T13:05:48.999Z</time></trkpt><trkpt lat="46.09025603690108" lon="11.05347053106937"><ele>490.0</ele><time>2026-03-29T13:05:49.999Z</time></trkpt><trkpt lat="46.09010223888916" lon="11.053313564259195"><ele>490.0</ele><time>2026-03-29T13:05:50.999Z</time></trkpt><trkpt lat="46.089928189828974" lon="11.05316878598747"><ele>485.0</ele><time>2026-03-29T13:05:51.999Z</time></trkpt><trkpt lat="46.089746254831496" lon="11.05305890108154"><ele>480.0</ele><time>2026-03-29T13:05:52.999Z</time></trkpt><trkpt lat="46.089567405588504" lon="11.052987166366822"><ele>475.0</ele><time>2026-03-29T13:05:53.999Z</time></trkpt><trkpt lat="46.089391224985704" lon="11.052908286425069"><ele>475.0</ele><time>2026-03-29T13:05:54.999Z</time></trkpt><trkpt lat="46.08920899506085" lon="11.052823277961432"><ele>475.0</ele><time>2026-03-29T13:05:55.999Z</time></trkpt><trkpt lat="46.089028243039934" lon="11.052740345982015"><ele>475.0</ele><time>2026-03-29T13:05:56.999Z</time></trkpt><trkpt lat="46.08885102318913" lon="11.052645760141564"><ele>469.33333333333337</ele><time>2026-03-29T13:05:57.999Z</time></trkpt><trkpt lat="46.088670924310456" lon="11.052556857505714"><ele>463.66666666666663</ele><time>2026-03-29T13:05:58.999Z</time></trkpt><trkpt lat="46.0884913781596" lon="11.05246470061922"><ele>458.0</ele><time>2026-03-29T13:05:59.999Z</time></trkpt><trkpt lat="46.08830739579388" lon="11.052372776066708"><ele>465.3333333333333</ele><time>2026-03-29T13:06:00.999Z</time></trkpt><trkpt lat="46.08812723942536" lon="11.052274477998774"><ele>472.66666666666663</ele><time>2026-03-29T13:06:01.999Z</time></trkpt><trkpt lat="46.08794376036955" lon="11.052181249185743"><ele>480.0</ele><time>2026-03-29T13:06:02.999Z</time></trkpt><trkpt lat="46.08776236628829" lon="11.05209155919249"><ele>480.0</ele><time>2026-03-29T13:06:03.999Z</time></trkpt><trkpt lat="46.087583001271646" lon="11.052005296862838"><ele>480.0</ele><time>2026-03-29T13:06:04.999Z</time></trkpt><trkpt lat="46.08740553373539" lon="11.05191507974653"><ele>480.0</ele><time>2026-03-29T13:06:05.999Z</time></trkpt><trkpt lat="46.08722773557054" lon="11.051826566692828"><ele>484.0</ele><time>2026-03-29T13:06:06.999Z</time></trkpt><trkpt lat="46.08705013840641" lon="11.051726058122783"><ele>488.0</ele><time>2026-03-29T13:06:07.999Z</time></trkpt><trkpt lat="46.08687538782951" lon="11.051627417386694"><ele>492.0</ele><time>2026-03-29T13:06:08.999Z</time></trkpt><trkpt lat="46.0866979235341" lon="11.051531319800818"><ele>487.66666666666663</ele><time>2026-03-29T13:06:09.999Z</time></trkpt><trkpt lat="46.086513638262126" lon="11.051429694589451"><ele>483.3333333333333</ele><time>2026-03-29T13:06:10.999Z</time></trkpt><trkpt lat="46.08632363270536" lon="11.051333279299199"><ele>479.0</ele><time>2026-03-29T13:06:11.999Z</time></trkpt><trkpt lat="46.08613369792497" lon="11.051245468691576"><ele>479.0</ele><time>2026-03-29T13:06:12.999Z</time></trkpt><trkpt lat="46.085933956485945" lon="11.051161241295114"><ele>479.0</ele><time>2026-03-29T13:06:13.999Z</time></trkpt><trkpt lat="46.085736893538595" lon="11.051083387793039"><ele>479.0</ele><time>2026-03-29T13:06:14.999Z</time></trkpt><trkpt lat="46.08553925736243" lon="11.05100472370425"><ele>475.3333333333333</ele><time>2026-03-29T13:06:15.999Z</time></trkpt><trkpt lat="46.085346585083876" lon="11.050926876229031"><ele>471.66666666666663</ele><time>2026-03-29T13:06:16.999Z</time></trkpt><trkpt lat="46.08515769920564" lon="11.050838083684772"><ele>468.0</ele><time>2026-03-29T13:06:17.999Z</time></trkpt><trkpt lat="46.08496811461814" lon="11.050742706491462"><ele>474.33333333333337</ele><time>2026-03-29T13:06:18.999Z</time></trkpt><trkpt lat="46.0847733612889" lon="11.05063997190712"><ele>480.6666666666667</ele><time>2026-03-29T13:06:19.999Z</time></trkpt><trkpt lat="46.084596279273704" lon="11.05053018946477"><ele>487.0</ele><time>2026-03-29T13:06:20.999Z</time></trkpt><trkpt lat="46.08443937283403" lon="11.050401787568688"><ele>487.0</ele><time>2026-03-29T13:06:21.999Z</time></trkpt><trkpt lat="46.08428333753458" lon="11.050243035223346"><ele>487.0</ele><time>2026-03-29T13:06:22.999Z</time></trkpt><trkpt lat="46.08413879799506" lon="11.050064739055628"><ele>487.0</ele><time>2026-03-29T13:06:23.999Z</time></trkpt><trkpt lat="46.08399041839163" lon="11.04989223744428"><ele>485.6666666666667</ele><time>2026-03-29T13:06:24.999Z</time></trkpt><trkpt lat="46.08384604367993" lon="11.049713588823922"><ele>484.33333333333337</ele><time>2026-03-29T13:06:26Z</time></trkpt><trkpt lat="46.0836944144912" lon="11.04954330030208"><ele>483.0</ele><time>2026-03-29T13:06:27Z</time></trkpt><trkpt lat="46.083536425208315" lon="11.049385183613168"><ele>483.0</ele><time>2026-03-29T13:06:28Z</time></trkpt><trkpt lat="46.08337076518069" lon="11.049238214513247"><ele>483.0</ele><time>2026-03-29T13:06:29Z</time></trkpt><trkpt lat="46.0831952203749" lon="11.049105893303105"><ele>483.0</ele><time>2026-03-29T13:06:30Z</time></trkpt><trkpt lat="46.08301180521218" lon="11.048989664869037"><ele>483.0</ele><time>2026-03-29T13:06:31Z</time></trkpt><trkpt lat="46.082818282999675" lon="11.048881199771477"><ele>483.0</ele><time>2026-03-29T13:06:32Z</time></trkpt><trkpt lat="46.08262696864023" lon="11.048762955897004"><ele>483.0</ele><time>2026-03-29T13:06:33Z</time></trkpt><trkpt lat="46.08245426502442" lon="11.048654892994438"><ele>488.0</ele><time>2026-03-29T13:06:34Z</time></trkpt><trkpt lat="46.082296754960474" lon="11.048556742731122"><ele>493.0</ele><time>2026-03-29T13:06:35Z</time></trkpt><trkpt lat="46.08214816586244" lon="11.048443920297716"><ele>498.0</ele><time>2026-03-29T13:06:36Z</time></trkpt><trkpt lat="46.08200603106068" lon="11.048306925058078"><ele>495.33333333333337</ele><time>2026-03-29T13:06:37Z</time></trkpt><trkpt lat="46.08189192715665" lon="11.048130325090417"><ele>492.6666666666667</ele><time>2026-03-29T13:06:38Z</time></trkpt><trkpt lat="46.081761372414284" lon="11.047973262094803"><ele>490.0</ele><time>2026-03-29T13:06:39Z</time></trkpt><trkpt lat="46.08165455947837" lon="11.047783672738289"><ele>495.75</ele><time>2026-03-29T13:06:40Z</time></trkpt><trkpt lat="46.081552640657556" lon="11.047587728238161"><ele>501.5</ele><time>2026-03-29T13:06:41Z</time></trkpt><trkpt lat="46.081506687775146" lon="11.047379695512321"><ele>507.25</ele><time>2026-03-29T13:06:42Z</time></trkpt><trkpt lat="46.08147233728444" lon="11.047206619351847"><ele>513.0</ele><time>2026-03-29T13:06:43Z</time></trkpt><trkpt lat="46.08145674069202" lon="11.04705332657262"><ele>513.4</ele><time>2026-03-29T13:06:44Z</time></trkpt><trkpt lat="46.081442356042494" lon="11.046925518990097"><ele>513.8</ele><time>2026-03-29T13:06:45Z</time></trkpt><trkpt lat="46.08139765798501" lon="11.046824033178005"><ele>514.2</ele><time>2026-03-29T13:07:18Z</time></trkpt><trkpt lat="46.08139769975914" lon="11.04672354759508"><ele>514.6</ele><time>2026-03-29T13:07:19Z</time></trkpt><trkpt lat="46.08138465560283" lon="11.046587393882536"><ele>515.0</ele><time>2026-03-29T13:07:20Z</time></trkpt><trkpt lat="46.08137266881599" lon="11.046412158834945"><ele>515.75</ele><time>2026-03-29T13:07:21Z</time></trkpt><trkpt lat="46.08135568875452" lon="11.046234540688841"><ele>516.5</ele><time>2026-03-29T13:07:22Z</time></trkpt><trkpt lat="46.081335264000266" lon="11.04603536935864"><ele>517.25</ele><time>2026-03-29T13:07:23Z</time></trkpt><trkpt lat="46.081322417618736" lon="11.045817097345257"><ele>518.0</ele><time>2026-03-29T13:07:24Z</time></trkpt><trkpt lat="46.08129149359164" lon="11.04558914859358"><ele>516.0</ele><time>2026-03-29T13:07:25Z</time></trkpt><trkpt lat="46.08125856876601" lon="11.045362120352609"><ele>514.0</ele><time>2026-03-29T13:07:26Z</time></trkpt><trkpt lat="46.08123206282589" lon="11.045126749672239"><ele>512.0</ele><time>2026-03-29T13:07:27Z</time></trkpt><trkpt lat="46.0812025710336" lon="11.044892845386482"><ele>507.66666666666663</ele><time>2026-03-29T13:07:28Z</time></trkpt><trkpt lat="46.08118584659191" lon="11.044649940279738"><ele>503.33333333333337</ele><time>2026-03-29T13:07:29Z</time></trkpt><trkpt lat="46.08115328710617" lon="11.044408567376507"><ele>499.0</ele><time>2026-03-29T13:07:30Z</time></trkpt><trkpt lat="46.08111028405897" lon="11.044171397962774"><ele>496.0</ele><time>2026-03-29T13:07:31Z</time></trkpt><trkpt lat="46.08104952486186" lon="11.04394263658772"><ele>493.0</ele><time>2026-03-29T13:07:32Z</time></trkpt><trkpt lat="46.08096579809713" lon="11.043736841304238"><ele>490.0</ele><time>2026-03-29T13:07:33Z</time></trkpt><trkpt lat="46.08087567392488" lon="11.043526783626994"><ele>490.0</ele><time>2026-03-29T13:07:34Z</time></trkpt><trkpt lat="46.08078010296519" lon="11.043317939032123"><ele>490.0</ele><time>2026-03-29T13:07:35Z</time></trkpt><trkpt lat="46.080677902259914" lon="11.043109918323426"><ele>490.0</ele><time>2026-03-29T13:07:36Z</time></trkpt><trkpt lat="46.08057804600384" lon="11.042887072432992"><ele>489.6666666666667</ele><time>2026-03-29T13:07:37Z</time></trkpt><trkpt lat="46.08048001032414" lon="11.042659637370646"><ele>489.33333333333337</ele><time>2026-03-29T13:07:38Z</time></trkpt><trkpt lat="46.08037910712682" lon="11.042430077641063"><ele>489.0</ele><time>2026-03-29T13:07:39Z</time></trkpt><trkpt lat="46.08027056675055" lon="11.042194345965223"><ele>489.0</ele><time>2026-03-29T13:07:40Z</time></trkpt><trkpt lat="46.08016168920908" lon="11.041953584195719"><ele>489.0</ele><time>2026-03-29T13:07:41Z</time></trkpt><trkpt lat="46.08004882681394" lon="11.041708747994349"><ele>489.0</ele><time>2026-03-29T13:07:41.999Z</time></trkpt><trkpt lat="46.07993861704889" lon="11.041457816081643"><ele>490.0</ele><time>2026-03-29T13:07:42.999Z</time></trkpt><trkpt lat="46.079825560305835" lon="11.041204806032294"><ele>491.0</ele><time>2026-03-29T13:07:43.999Z</time></trkpt><trkpt lat="46.079714020313276" lon="11.040956571553973"><ele>492.0</ele><time>2026-03-29T13:07:44.999Z</time></trkpt><trkpt lat="46.07960523164532" lon="11.040718521486152"><ele>492.0</ele><time>2026-03-29T13:07:45.999Z</time></trkpt><trkpt lat="46.07950410644156" lon="11.040491880443401"><ele>492.0</ele><time>2026-03-29T13:07:46.999Z</time></trkpt><trkpt lat="46.07940066869753" lon="11.04025871640504"><ele>492.0</ele><time>2026-03-29T13:07:47.999Z</time></trkpt><trkpt lat="46.07929469240948" lon="11.040017520698807"><ele>493.0</ele><time>2026-03-29T13:07:48.999Z</time></trkpt><trkpt lat="46.07918616808047" lon="11.039777961006715"><ele>494.0</ele><time>2026-03-29T13:07:49.999Z</time></trkpt><trkpt lat="46.079077012277025" lon="11.039535266381703"><ele>495.0</ele><time>2026-03-29T13:07:50.999Z</time></trkpt><trkpt lat="46.07896788887598" lon="11.039301284356387"><ele>491.66666666666663</ele><time>2026-03-29T13:07:51.999Z</time></trkpt><trkpt lat="46.078868980974995" lon="11.039093417291983"><ele>488.3333333333333</ele><time>2026-03-29T13:07:52.999Z</time></trkpt><trkpt lat="46.07874550298102" lon="11.038898268704388"><ele>485.0</ele><time>2026-03-29T13:07:53.999Z</time></trkpt><trkpt lat="46.07859335604533" lon="11.03873417614708"><ele>485.0</ele><time>2026-03-29T13:07:54.999Z</time></trkpt><trkpt lat="46.07841956119194" lon="11.038583469399562"><ele>485.0</ele><time>2026-03-29T13:07:55.999Z</time></trkpt><trkpt lat="46.07824046333354" lon="11.038420858462077"><ele>485.0</ele><time>2026-03-29T13:07:56.999Z</time></trkpt><trkpt lat="46.07806240797205" lon="11.03823927065672"><ele>487.3333333333333</ele><time>2026-03-29T13:07:57.999Z</time></trkpt><trkpt lat="46.077905700858516" lon="11.038040661921517"><ele>489.66666666666663</ele><time>2026-03-29T13:07:58.999Z</time></trkpt><trkpt lat="46.07777873902108" lon="11.037800812866024"><ele>492.0</ele><time>2026-03-29T13:07:59.999Z</time></trkpt><trkpt lat="46.07763665664948" lon="11.037559397498047"><ele>488.0</ele><time>2026-03-29T13:08:00.999Z</time></trkpt><trkpt lat="46.07750901933851" lon="11.0372886060835"><ele>484.0</ele><time>2026-03-29T13:08:01.999Z</time></trkpt><trkpt lat="46.07737372377305" lon="11.037018016358237"><ele>489.0</ele><time>2026-03-29T13:08:02.999Z</time></trkpt><trkpt lat="46.077235391864605" lon="11.03675547832445"><ele>494.0</ele><time>2026-03-29T13:08:03.999Z</time></trkpt><trkpt lat="46.07709700859372" lon="11.036485519344314"><ele>494.0</ele><time>2026-03-29T13:08:04.999Z</time></trkpt><trkpt lat="46.07696529905097" lon="11.036215663874666"><ele>494.0</ele><time>2026-03-29T13:08:05.999Z</time></trkpt><trkpt lat="46.07683961285615" lon="11.035977480668695"><ele>494.0</ele><time>2026-03-29T13:08:06.999Z</time></trkpt><trkpt lat="46.076722077626286" lon="11.035760812545192"><ele>492.3333333333333</ele><time>2026-03-29T13:08:07.999Z</time></trkpt><trkpt lat="46.07661919004418" lon="11.035559820725826"><ele>490.66666666666663</ele><time>2026-03-29T13:08:08.999Z</time></trkpt><trkpt lat="46.076524351077914" lon="11.035388443222379"><ele>489.0</ele><time>2026-03-29T13:08:09.999Z</time></trkpt><trkpt lat="46.07644602649554" lon="11.035237057137813"><ele>490.6</ele><time>2026-03-29T13:08:10.999Z</time></trkpt><trkpt lat="46.076392525598806" lon="11.035096594820692"><ele>492.2</ele><time>2026-03-29T13:08:11.999Z</time></trkpt><trkpt lat="46.07639832951807" lon="11.034953927602974"><ele>493.80000000000007</ele><time>2026-03-29T13:08:12.999Z</time></trkpt><trkpt lat="46.076459817790614" lon="11.034854707270219"><ele>495.40000000000003</ele><time>2026-03-29T13:08:13.999Z</time></trkpt><trkpt lat="46.07654071382183" lon="11.034823462742374"><ele>497.0</ele><time>2026-03-29T13:08:14.999Z</time></trkpt><trkpt lat="46.07664596937601" lon="11.034797432723488"><ele>497.0</ele><time>2026-03-29T13:08:15.999Z</time></trkpt><trkpt lat="46.07679723757965" lon="11.034748434457507"><ele>497.0</ele><time>2026-03-29T13:08:16.999Z</time></trkpt><trkpt lat="46.07694639830276" lon="11.034677395460724"><ele>497.0</ele><time>2026-03-29T13:08:17.999Z</time></trkpt><trkpt lat="46.077106141947866" lon="11.034608861582136"><ele>497.0</ele><time>2026-03-29T13:08:18.999Z</time></trkpt><trkpt lat="46.0772594173788" lon="11.034504587181322"><ele>497.0</ele><time>2026-03-29T13:08:19.999Z</time></trkpt><trkpt lat="46.07737654161666" lon="11.03436382988335"><ele>497.0</ele><time>2026-03-29T13:08:20.999Z</time></trkpt><trkpt lat="46.07746622519034" lon="11.034156002254274"><ele>495.0</ele><time>2026-03-29T13:08:21.999Z</time></trkpt><trkpt lat="46.07752327682872" lon="11.03389031428971"><ele>493.0</ele><time>2026-03-29T13:08:22.999Z</time></trkpt><trkpt lat="46.07754477577482" lon="11.033585381853602"><ele>491.0</ele><time>2026-03-29T13:08:23.999Z</time></trkpt><trkpt lat="46.0775508842362" lon="11.03326222735813"><ele>491.0</ele><time>2026-03-29T13:08:24.999Z</time></trkpt><trkpt lat="46.077578268393516" lon="11.032905492330228"><ele>491.0</ele><time>2026-03-29T13:08:25.999Z</time></trkpt><trkpt lat="46.07760885221522" lon="11.032536292745142"><ele>492.3333333333333</ele><time>2026-03-29T13:08:26.999Z</time></trkpt><trkpt lat="46.07766169456895" lon="11.032216447671425"><ele>493.66666666666663</ele><time>2026-03-29T13:08:27.999Z</time></trkpt><trkpt lat="46.07778614031403" lon="11.03197929044663"><ele>495.0</ele><time>2026-03-29T13:08:28.999Z</time></trkpt><trkpt lat="46.0779258343142" lon="11.031784814015609"><ele>496.5</ele><time>2026-03-29T13:08:29.999Z</time></trkpt><trkpt lat="46.07809527529407" lon="11.03156244697625"><ele>498.0</ele><time>2026-03-29T13:08:30.999Z</time></trkpt><trkpt lat="46.07828426841357" lon="11.031319584247473"><ele>494.5</ele><time>2026-03-29T13:08:32Z</time></trkpt><trkpt lat="46.07847723805307" lon="11.031071679030122"><ele>491.0</ele><time>2026-03-29T13:08:33Z</time></trkpt><trkpt lat="46.078643332152076" lon="11.030834327894222"><ele>492.3333333333333</ele><time>2026-03-29T13:08:34Z</time></trkpt><trkpt lat="46.07880476987541" lon="11.030639804905267"><ele>493.66666666666663</ele><time>2026-03-29T13:08:35Z</time></trkpt><trkpt lat="46.07895096930217" lon="11.030452727110381"><ele>495.0</ele><time>2026-03-29T13:08:36Z</time></trkpt><trkpt lat="46.07909286033398" lon="11.030271784892694"><ele>494.0</ele><time>2026-03-29T13:08:37Z</time></trkpt><trkpt lat="46.07922364569198" lon="11.030102925837948"><ele>493.0</ele><time>2026-03-29T13:08:38Z</time></trkpt><trkpt lat="46.07934365293674" lon="11.029916062475603"><ele>492.0</ele><time>2026-03-29T13:08:39Z</time></trkpt><trkpt lat="46.07943188742626" lon="11.02970039671324"><ele>491.66666666666663</ele><time>2026-03-29T13:08:40Z</time></trkpt><trkpt lat="46.07949293197081" lon="11.029459171608316"><ele>491.3333333333333</ele><time>2026-03-29T13:08:41Z</time></trkpt><trkpt lat="46.07952903145185" lon="11.029204360934175"><ele>491.0</ele><time>2026-03-29T13:08:42Z</time></trkpt><trkpt lat="46.07952497029226" lon="11.028941913092172"><ele>491.0</ele><time>2026-03-29T13:08:43Z</time></trkpt><trkpt lat="46.07947211442567" lon="11.028711453635758"><ele>491.0</ele><time>2026-03-29T13:08:44Z</time></trkpt><trkpt lat="46.07939029968373" lon="11.028483513819674"><ele>491.0</ele><time>2026-03-29T13:08:45Z</time></trkpt><trkpt lat="46.079249212044935" lon="11.028279654548705"><ele>487.66666666666663</ele><time>2026-03-29T13:08:46Z</time></trkpt><trkpt lat="46.07909936538762" lon="11.028115393945814"><ele>484.33333333333337</ele><time>2026-03-29T13:08:47Z</time></trkpt><trkpt lat="46.07894203129473" lon="11.028017634263032"><ele>481.0</ele><time>2026-03-29T13:08:48Z</time></trkpt><trkpt lat="46.078730920021684" lon="11.02796205604155"><ele>481.0</ele><time>2026-03-29T13:08:49Z</time></trkpt><trkpt lat="46.07849900401212" lon="11.027917036962275"><ele>481.0</ele><time>2026-03-29T13:08:50Z</time></trkpt><trkpt lat="46.07826015218536" lon="11.027849251240172"><ele>482.5</ele><time>2026-03-29T13:08:51Z</time></trkpt><trkpt lat="46.07801356438643" lon="11.027772559712627"><ele>484.0</ele><time>2026-03-29T13:08:52Z</time></trkpt><trkpt lat="46.077758407662735" lon="11.027678981458052"><ele>484.0</ele><time>2026-03-29T13:08:53Z</time></trkpt><trkpt lat="46.07750140165649" lon="11.027578095030128"><ele>484.0</ele><time>2026-03-29T13:08:54Z</time></trkpt><trkpt lat="46.0772787206349" lon="11.027495491959893"><ele>484.0</ele><time>2026-03-29T13:08:55Z</time></trkpt><trkpt lat="46.07707836589307" lon="11.027407347068785"><ele>484.0</ele><time>2026-03-29T13:08:56Z</time></trkpt><trkpt lat="46.07694010962522" lon="11.027233556320896"><ele>484.0</ele><time>2026-03-29T13:08:57Z</time></trkpt><trkpt lat="46.076833161786595" lon="11.027054256101476"><ele>484.0</ele><time>2026-03-29T13:08:58Z</time></trkpt><trkpt lat="46.07674632962506" lon="11.026835329462175"><ele>484.0</ele><time>2026-03-29T13:08:59Z</time></trkpt><trkpt lat="46.07668413507045" lon="11.0265855452228"><ele>484.0</ele><time>2026-03-29T13:09:00Z</time></trkpt><trkpt lat="46.076663123949025" lon="11.026298621774755"><ele>483.0</ele><time>2026-03-29T13:09:01Z</time></trkpt><trkpt lat="46.07663724464681" lon="11.025962876400843"><ele>482.0</ele><time>2026-03-29T13:09:02Z</time></trkpt><trkpt lat="46.076608404606425" lon="11.025592839912953"><ele>488.0</ele><time>2026-03-29T13:09:03Z</time></trkpt><trkpt lat="46.07657578048722" lon="11.025197319146255"><ele>494.0</ele><time>2026-03-29T13:09:04Z</time></trkpt><trkpt lat="46.07654564350606" lon="11.02479158285165"><ele>494.5</ele><time>2026-03-29T13:09:05Z</time></trkpt><trkpt lat="46.076516473184164" lon="11.024399016055774"><ele>495.0</ele><time>2026-03-29T13:09:06Z</time></trkpt><trkpt lat="46.07649096065291" lon="11.024059388199365"><ele>494.0</ele><time>2026-03-29T13:09:07Z</time></trkpt><trkpt lat="46.076470125922384" lon="11.023729208525472"><ele>493.0</ele><time>2026-03-29T13:09:08Z</time></trkpt><trkpt lat="46.076488819322954" lon="11.023438538356272"><ele>492.0</ele><time>2026-03-29T13:09:09Z</time></trkpt><trkpt lat="46.076543420522015" lon="11.023158295505425"><ele>487.0</ele><time>2026-03-29T13:09:10Z</time></trkpt><trkpt lat="46.07662267379227" lon="11.022858361403706"><ele>482.0</ele><time>2026-03-29T13:09:11Z</time></trkpt><trkpt lat="46.076705853725855" lon="11.022546732954932"><ele>483.0</ele><time>2026-03-29T13:09:12Z</time></trkpt><trkpt lat="46.07678203668714" lon="11.022259366258385"><ele>484.0</ele><time>2026-03-29T13:09:13Z</time></trkpt><trkpt lat="46.076828284644485" lon="11.021999528751671"><ele>485.0</ele><time>2026-03-29T13:09:14Z</time></trkpt><trkpt lat="46.076864009097555" lon="11.021737175611191"><ele>485.3333333333333</ele><time>2026-03-29T13:09:15Z</time></trkpt><trkpt lat="46.076866654605155" lon="11.021452993587811"><ele>485.66666666666663</ele><time>2026-03-29T13:09:16Z</time></trkpt><trkpt lat="46.07686103962332" lon="11.021152950468228"><ele>486.0</ele><time>2026-03-29T13:09:17Z</time></trkpt><trkpt lat="46.076847770649465" lon="11.02087806810117"><ele>482.66666666666663</ele><time>2026-03-29T13:09:18Z</time></trkpt><trkpt lat="46.07680463750155" lon="11.020598897037571"><ele>479.3333333333333</ele><time>2026-03-29T13:09:19Z</time></trkpt><trkpt lat="46.07673224176448" lon="11.020317008889783"><ele>476.0</ele><time>2026-03-29T13:09:20Z</time></trkpt><trkpt lat="46.07664691279344" lon="11.020036286150129"><ele>478.0</ele><time>2026-03-29T13:09:21Z</time></trkpt><trkpt lat="46.07656186458338" lon="11.0197484201269"><ele>480.0</ele><time>2026-03-29T13:09:22Z</time></trkpt><trkpt lat="46.076476181191694" lon="11.019455883536512"><ele>482.0</ele><time>2026-03-29T13:09:23Z</time></trkpt><trkpt lat="46.076390671676336" lon="11.019163859771012"><ele>478.3333333333333</ele><time>2026-03-29T13:09:24Z</time></trkpt><trkpt lat="46.07630889501016" lon="11.01887079204332"><ele>474.66666666666663</ele><time>2026-03-29T13:09:25Z</time></trkpt><trkpt lat="46.076223955360696" lon="11.018581708519543"><ele>471.0</ele><time>2026-03-29T13:09:26Z</time></trkpt><trkpt lat="46.07614354775905" lon="11.01829441111353"><ele>469.33333333333337</ele><time>2026-03-29T13:09:27Z</time></trkpt><trkpt lat="46.07606552112683" lon="11.018012734302365"><ele>467.6666666666667</ele><time>2026-03-29T13:09:28Z</time></trkpt><trkpt lat="46.075989052347936" lon="11.017727553375458"><ele>466.0</ele><time>2026-03-29T13:09:29Z</time></trkpt><trkpt lat="46.07591565945352" lon="11.017440283953745"><ele>464.33333333333337</ele><time>2026-03-29T13:09:30Z</time></trkpt><trkpt lat="46.07583702039228" lon="11.017150451501907"><ele>462.66666666666663</ele><time>2026-03-29T13:09:31Z</time></trkpt><trkpt lat="46.0757595763414" lon="11.01685779786619"><ele>461.0</ele><time>2026-03-29T13:09:32Z</time></trkpt><trkpt lat="46.07570334465469" lon="11.016549681241047"><ele>476.0</ele><time>2026-03-29T13:09:33Z</time></trkpt><trkpt lat="46.07565223759159" lon="11.016228321982041"><ele>491.0</ele><time>2026-03-29T13:09:34Z</time></trkpt><trkpt lat="46.07561161317693" lon="11.01590025452944"><ele>491.0</ele><time>2026-03-29T13:09:35Z</time></trkpt><trkpt lat="46.07558698186269" lon="11.015560216075432"><ele>491.0</ele><time>2026-03-29T13:09:36Z</time></trkpt><trkpt lat="46.07557054727371" lon="11.015218202086581"><ele>494.0</ele><time>2026-03-29T13:09:37Z</time></trkpt><trkpt lat="46.075552470902636" lon="11.014878709190198"><ele>497.0</ele><time>2026-03-29T13:09:38Z</time></trkpt><trkpt lat="46.075523942752355" lon="11.01454072326545"><ele>497.0</ele><time>2026-03-29T13:09:39Z</time></trkpt><trkpt lat="46.075501908053866" lon="11.01422940254372"><ele>497.0</ele><time>2026-03-29T13:09:40Z</time></trkpt><trkpt lat="46.075483112180805" lon="11.013922450554986"><ele>497.0</ele><time>2026-03-29T13:09:41Z</time></trkpt><trkpt lat="46.07546046105968" lon="11.013613922597019"><ele>498.3333333333333</ele><time>2026-03-29T13:09:42Z</time></trkpt><trkpt lat="46.07544554808749" lon="11.013330355242104"><ele>499.66666666666663</ele><time>2026-03-29T13:09:42.999Z</time></trkpt><trkpt lat="46.07543591286223" lon="11.01307960998336"><ele>501.0</ele><time>2026-03-29T13:09:43.999Z</time></trkpt><trkpt lat="46.07545840281689" lon="11.012828736600449"><ele>504.0</ele><time>2026-03-29T13:09:44.999Z</time></trkpt><trkpt lat="46.07551088869512" lon="11.012573662060882"><ele>507.0</ele><time>2026-03-29T13:09:45.999Z</time></trkpt><trkpt lat="46.0756071512786" lon="11.012327717504144"><ele>510.0</ele><time>2026-03-29T13:09:46.999Z</time></trkpt><trkpt lat="46.07573344296963" lon="11.012094061762042"><ele>497.33333333333337</ele><time>2026-03-29T13:09:47.999Z</time></trkpt><trkpt lat="46.075863962130654" lon="11.011852674103736"><ele>484.6666666666667</ele><time>2026-03-29T13:09:48.999Z</time></trkpt><trkpt lat="46.07599945120016" lon="11.01159759006164"><ele>472.0</ele><time>2026-03-29T13:09:49.999Z</time></trkpt><trkpt lat="46.0761544110376" lon="11.011348056716592"><ele>472.0</ele><time>2026-03-29T13:09:50.999Z</time></trkpt><trkpt lat="46.076324534432615" lon="11.011127837420002"><ele>472.0</ele><time>2026-03-29T13:09:51.999Z</time></trkpt><trkpt lat="46.07651450980272" lon="11.01094324433268"><ele>464.0</ele><time>2026-03-29T13:09:52.999Z</time></trkpt><trkpt lat="46.076733480438065" lon="11.010792234779498"><ele>456.0</ele><time>2026-03-29T13:09:53.999Z</time></trkpt><trkpt lat="46.07696238957966" lon="11.010634023659117"><ele>456.0</ele><time>2026-03-29T13:09:54.999Z</time></trkpt><trkpt lat="46.0771787022452" lon="11.010463117890964"><ele>456.0</ele><time>2026-03-29T13:09:55.999Z</time></trkpt><trkpt lat="46.07737749010351" lon="11.010313560512873"><ele>451.33333333333337</ele><time>2026-03-29T13:09:56.999Z</time></trkpt><trkpt lat="46.07756493970935" lon="11.010171055039423"><ele>446.6666666666667</ele><time>2026-03-29T13:09:57.999Z</time></trkpt><trkpt lat="46.07773623355774" lon="11.010029177375959"><ele>442.0</ele><time>2026-03-29T13:09:58.999Z</time></trkpt><trkpt lat="46.077888789076724" lon="11.009875509399109"><ele>440.6666666666667</ele><time>2026-03-29T13:09:59.999Z</time></trkpt><trkpt lat="46.07799647272328" lon="11.009697340532876"><ele>439.33333333333337</ele><time>2026-03-29T13:10:00.999Z</time></trkpt><trkpt lat="46.078063047920665" lon="11.009483215680769"><ele>438.0</ele><time>2026-03-29T13:10:01.999Z</time></trkpt><trkpt lat="46.07809869977483" lon="11.009225070744634"><ele>440.0</ele><time>2026-03-29T13:10:02.999Z</time></trkpt><trkpt lat="46.07811346513651" lon="11.008937337862843"><ele>442.0</ele><time>2026-03-29T13:10:03.999Z</time></trkpt><trkpt lat="46.07811210534924" lon="11.008634892582805"><ele>444.0</ele><time>2026-03-29T13:10:04.999Z</time></trkpt><trkpt lat="46.07811720702348" lon="11.00833152956181"><ele>446.33333333333337</ele><time>2026-03-29T13:10:05.999Z</time></trkpt><trkpt lat="46.07812534381039" lon="11.008023201692044"><ele>448.6666666666667</ele><time>2026-03-29T13:10:06.999Z</time></trkpt><trkpt lat="46.07814204674305" lon="11.00769996189719"><ele>451.0</ele><time>2026-03-29T13:10:07.999Z</time></trkpt><trkpt lat="46.07815937729872" lon="11.007396685038835"><ele>451.0</ele><time>2026-03-29T13:10:08.999Z</time></trkpt><trkpt lat="46.07817116730388" lon="11.007113330904234"><ele>451.0</ele><time>2026-03-29T13:10:09.999Z</time></trkpt><trkpt lat="46.078183864202764" lon="11.006838129872907"><ele>451.0</ele><time>2026-03-29T13:10:10.999Z</time></trkpt><trkpt lat="46.07818789130899" lon="11.006577575972328"><ele>447.33333333333337</ele><time>2026-03-29T13:10:11.999Z</time></trkpt><trkpt lat="46.07816807214421" lon="11.006327127564042"><ele>443.66666666666663</ele><time>2026-03-29T13:10:12.999Z</time></trkpt><trkpt lat="46.078110816029245" lon="11.006096282202849"><ele>440.0</ele><time>2026-03-29T13:10:13.999Z</time></trkpt><trkpt lat="46.07801780183159" lon="11.0058782377248"><ele>433.66666666666663</ele><time>2026-03-29T13:10:14.999Z</time></trkpt><trkpt lat="46.077890038527" lon="11.005672244719447"><ele>427.33333333333337</ele><time>2026-03-29T13:10:15.999Z</time></trkpt><trkpt lat="46.07773758379147" lon="11.005484601534253"><ele>421.0</ele><time>2026-03-29T13:10:16.999Z</time></trkpt><trkpt lat="46.077565101593834" lon="11.005291046300057"><ele>423.6666666666667</ele><time>2026-03-29T13:10:17.999Z</time></trkpt><trkpt lat="46.077397933858045" lon="11.005088550732557"><ele>426.33333333333337</ele><time>2026-03-29T13:10:18.999Z</time></trkpt><trkpt lat="46.077236547582054" lon="11.004885323734209"><ele>429.0</ele><time>2026-03-29T13:10:19.999Z</time></trkpt><trkpt lat="46.07709111714187" lon="11.004690337586172"><ele>429.0</ele><time>2026-03-29T13:10:20.999Z</time></trkpt><trkpt lat="46.076951124405255" lon="11.004520782517694"><ele>429.0</ele><time>2026-03-29T13:10:21.999Z</time></trkpt><trkpt lat="46.07683192620225" lon="11.004339318500984"><ele>429.0</ele><time>2026-03-29T13:10:22.999Z</time></trkpt><trkpt lat="46.07675466412928" lon="11.004130855674967"><ele>426.66666666666663</ele><time>2026-03-29T13:10:23.999Z</time></trkpt><trkpt lat="46.076718906350166" lon="11.003898637090183"><ele>424.3333333333333</ele><time>2026-03-29T13:10:24.999Z</time></trkpt><trkpt lat="46.07671966264875" lon="11.003656249493904"><ele>422.0</ele><time>2026-03-29T13:10:25.999Z</time></trkpt><trkpt lat="46.07676711705239" lon="11.003441619314676"><ele>418.66666666666663</ele><time>2026-03-29T13:10:26.999Z</time></trkpt><trkpt lat="46.07686186303977" lon="11.003243977042708"><ele>415.33333333333337</ele><time>2026-03-29T13:10:27.999Z</time></trkpt><trkpt lat="46.076985941625985" lon="11.003098105054148"><ele>412.0</ele><time>2026-03-29T13:10:28.999Z</time></trkpt><trkpt lat="46.07711786264027" lon="11.002972896875"><ele>412.0</ele><time>2026-03-29T13:10:29.999Z</time></trkpt><trkpt lat="46.077275874719895" lon="11.002894050911694"><ele>412.0</ele><time>2026-03-29T13:10:30.999Z</time></trkpt><trkpt lat="46.07744729049959" lon="11.002856561914873"><ele>412.0</ele><time>2026-03-29T13:10:31.999Z</time></trkpt><trkpt lat="46.07763758159952" lon="11.002889971441434"><ele>408.33333333333337</ele><time>2026-03-29T13:10:32.999Z</time></trkpt><trkpt lat="46.077812605912314" lon="11.002838083698318"><ele>404.66666666666663</ele><time>2026-03-29T13:10:33.999Z</time></trkpt><trkpt lat="46.07798153888991" lon="11.002765224830789"><ele>401.0</ele><time>2026-03-29T13:10:34.999Z</time></trkpt><trkpt lat="46.0781495591947" lon="11.00272869414972"><ele>400.66666666666663</ele><time>2026-03-29T13:10:35.999Z</time></trkpt><trkpt lat="46.07831386820373" lon="11.00268365559357"><ele>400.33333333333337</ele><time>2026-03-29T13:10:36.999Z</time></trkpt><trkpt lat="46.0784758245141" lon="11.002642677326438"><ele>400.0</ele><time>2026-03-29T13:10:38Z</time></trkpt><trkpt lat="46.07864297698502" lon="11.002627326029147"><ele>400.0</ele><time>2026-03-29T13:10:39Z</time></trkpt><trkpt lat="46.07880817161657" lon="11.002664540759673"><ele>400.0</ele><time>2026-03-29T13:10:40Z</time></trkpt><trkpt lat="46.07896923374863" lon="11.002706550904671"><ele>400.0</ele><time>2026-03-29T13:10:41Z</time></trkpt><trkpt lat="46.07913195133156" lon="11.00275691465159"><ele>399.6666666666667</ele><time>2026-03-29T13:10:42Z</time></trkpt><trkpt lat="46.079298321755296" lon="11.002809510136913"><ele>399.33333333333337</ele><time>2026-03-29T13:10:43Z</time></trkpt><trkpt lat="46.07946303953929" lon="11.002859163113497"><ele>399.0</ele><time>2026-03-29T13:10:44Z</time></trkpt><trkpt lat="46.07962262262917" lon="11.002869713674277"><ele>399.0</ele><time>2026-03-29T13:10:45Z</time></trkpt><trkpt lat="46.07978773947363" lon="11.002822926947719"><ele>399.0</ele><time>2026-03-29T13:10:46Z</time></trkpt><trkpt lat="46.07994960429155" lon="11.002748640340076"><ele>399.0</ele><time>2026-03-29T13:10:47Z</time></trkpt><trkpt lat="46.08008494202267" lon="11.002614228734064"><ele>396.66666666666663</ele><time>2026-03-29T13:10:48Z</time></trkpt><trkpt lat="46.080195363776774" lon="11.002419795597882"><ele>394.3333333333333</ele><time>2026-03-29T13:10:49Z</time></trkpt><trkpt lat="46.08026633744271" lon="11.002173972478305"><ele>392.0</ele><time>2026-03-29T13:10:50Z</time></trkpt><trkpt lat="46.08036100282533" lon="11.001976210204575"><ele>392.0</ele><time>2026-03-29T13:10:51Z</time></trkpt><trkpt lat="46.080386836547724" lon="11.001741280240198"><ele>392.0</ele><time>2026-03-29T13:10:52Z</time></trkpt><trkpt lat="46.080256138379546" lon="11.001336912588425"><ele>392.0</ele><time>2026-03-29T13:10:53Z</time></trkpt><trkpt lat="46.0802662783106" lon="11.00098777592755"><ele>392.0</ele><time>2026-03-29T13:10:54Z</time></trkpt><trkpt lat="46.08025216151544" lon="11.000659849829315"><ele>391.66666666666663</ele><time>2026-03-29T13:10:55Z</time></trkpt><trkpt lat="46.08020000407939" lon="11.000390657362967"><ele>391.33333333333337</ele><time>2026-03-29T13:10:56Z</time></trkpt><trkpt lat="46.08017347663778" lon="11.000140035582737"><ele>391.0</ele><time>2026-03-29T13:10:57Z</time></trkpt><trkpt lat="46.08011303667677" lon="10.999900622597574"><ele>391.0</ele><time>2026-03-29T13:10:58Z</time></trkpt><trkpt lat="46.08002887567058" lon="10.999678601580614"><ele>391.0</ele><time>2026-03-29T13:10:59Z</time></trkpt><trkpt lat="46.079912244913125" lon="10.999489073666327"><ele>391.0</ele><time>2026-03-29T13:11:00Z</time></trkpt><trkpt lat="46.079763155494696" lon="10.999325465431248"><ele>390.0</ele><time>2026-03-29T13:11:01Z</time></trkpt><trkpt lat="46.079577185944174" lon="10.999193655944465"><ele>389.0</ele><time>2026-03-29T13:11:02Z</time></trkpt><trkpt lat="46.07937744333345" lon="10.999053668566882"><ele>388.0</ele><time>2026-03-29T13:11:03Z</time></trkpt><trkpt lat="46.07917143720566" lon="10.998901246487806"><ele>385.5</ele><time>2026-03-29T13:11:04Z</time></trkpt><trkpt lat="46.078969775716416" lon="10.99874152755205"><ele>383.0</ele><time>2026-03-29T13:11:05Z</time></trkpt><trkpt lat="46.07873990067744" lon="10.998582819386339"><ele>383.0</ele><time>2026-03-29T13:11:06Z</time></trkpt><trkpt lat="46.078510635348714" lon="10.998419949904156"><ele>383.0</ele><time>2026-03-29T13:11:07Z</time></trkpt><trkpt lat="46.07830300284569" lon="10.99824905865435"><ele>381.5</ele><time>2026-03-29T13:11:08Z</time></trkpt><trkpt lat="46.07810774095453" lon="10.998095307213703"><ele>380.0</ele><time>2026-03-29T13:11:09Z</time></trkpt><trkpt lat="46.07790414898499" lon="10.997942650630247"><ele>380.0</ele><time>2026-03-29T13:11:10Z</time></trkpt><trkpt lat="46.07770071162822" lon="10.9977866821054"><ele>380.0</ele><time>2026-03-29T13:11:11Z</time></trkpt><trkpt lat="46.07750158712004" lon="10.997635689135834"><ele>378.0</ele><time>2026-03-29T13:11:12Z</time></trkpt><trkpt lat="46.07732108238205" lon="10.997491919183858"><ele>376.0</ele><time>2026-03-29T13:11:13Z</time></trkpt><trkpt lat="46.07715619066484" lon="10.997354970872657"><ele>374.0</ele><time>2026-03-29T13:11:14Z</time></trkpt><trkpt lat="46.076999940645635" lon="10.997233339694356"><ele>374.0</ele><time>2026-03-29T13:11:15Z</time></trkpt><trkpt lat="46.07684828489966" lon="10.997118749298815"><ele>374.0</ele><time>2026-03-29T13:11:16Z</time></trkpt><trkpt lat="46.076707600930604" lon="10.997006539650753"><ele>374.0</ele><time>2026-03-29T13:11:17Z</time></trkpt><trkpt lat="46.076568813359046" lon="10.996903641052347"><ele>373.5</ele><time>2026-03-29T13:11:18Z</time></trkpt><trkpt lat="46.076442596919485" lon="10.996800700399262"><ele>373.0</ele><time>2026-03-29T13:11:19Z</time></trkpt><trkpt lat="46.07632209809233" lon="10.996705329707574"><ele>372.5</ele><time>2026-03-29T13:11:20Z</time></trkpt><trkpt lat="46.07620719169978" lon="10.996614899262514"><ele>372.0</ele><time>2026-03-29T13:11:21Z</time></trkpt><trkpt lat="46.07608707771142" lon="10.996513061287837"><ele>371.25</ele><time>2026-03-29T13:11:22Z</time></trkpt><trkpt lat="46.07596652637706" lon="10.996417417808875"><ele>370.5</ele><time>2026-03-29T13:11:23Z</time></trkpt><trkpt lat="46.07584095123533" lon="10.996316052242184"><ele>369.75</ele><time>2026-03-29T13:11:24Z</time></trkpt><trkpt lat="46.07571625262558" lon="10.996218425937153"><ele>369.0</ele><time>2026-03-29T13:11:25Z</time></trkpt><trkpt lat="46.07559042825196" lon="10.99611937186764"><ele>368.6666666666667</ele><time>2026-03-29T13:11:26Z</time></trkpt><trkpt lat="46.07545773570118" lon="10.996016755753503"><ele>368.33333333333337</ele><time>2026-03-29T13:11:27Z</time></trkpt><trkpt lat="46.07532836866162" lon="10.99591590732222"><ele>368.0</ele><time>2026-03-29T13:11:28Z</time></trkpt><trkpt lat="46.07519192851983" lon="10.995818204559221"><ele>368.0</ele><time>2026-03-29T13:11:29Z</time></trkpt><trkpt lat="46.0750640979064" lon="10.995709392262656"><ele>368.0</ele><time>2026-03-29T13:11:30Z</time></trkpt><trkpt lat="46.07494513848243" lon="10.995613677579902"><ele>368.0</ele><time>2026-03-29T13:11:31Z</time></trkpt><trkpt lat="46.07483383252305" lon="10.995523188723908"><ele>368.0</ele><time>2026-03-29T13:11:32Z</time></trkpt><trkpt lat="46.07472069984933" lon="10.995435009949794"><ele>367.75</ele><time>2026-03-29T13:11:33Z</time></trkpt><trkpt lat="46.07460694026734" lon="10.995355270530984"><ele>367.5</ele><time>2026-03-29T13:11:34Z</time></trkpt><trkpt lat="46.07449277000075" lon="10.995276263764104"><ele>367.25</ele><time>2026-03-29T13:11:35Z</time></trkpt><trkpt lat="46.07436873531806" lon="10.9951891835771"><ele>367.0</ele><time>2026-03-29T13:11:36Z</time></trkpt><trkpt lat="46.07423987361533" lon="10.995112969729442"><ele>367.0</ele><time>2026-03-29T13:11:37Z</time></trkpt><trkpt lat="46.07410197345016" lon="10.995042897992048"><ele>367.0</ele><time>2026-03-29T13:11:38Z</time></trkpt><trkpt lat="46.073958941038406" lon="10.994964503638704"><ele>367.0</ele><time>2026-03-29T13:11:39Z</time></trkpt><trkpt lat="46.073813073465864" lon="10.994883723303516"><ele>367.0</ele><time>2026-03-29T13:11:40Z</time></trkpt><trkpt lat="46.073657948328695" lon="10.994804218266774"><ele>367.0</ele><time>2026-03-29T13:11:41Z</time></trkpt><trkpt lat="46.073497273928" lon="10.99471624208245"><ele>367.0</ele><time>2026-03-29T13:11:42Z</time></trkpt><trkpt lat="46.07333423524383" lon="10.994627744594501"><ele>367.0</ele><time>2026-03-29T13:11:43Z</time></trkpt><trkpt lat="46.07316710471653" lon="10.994542860374649"><ele>367.0</ele><time>2026-03-29T13:11:44Z</time></trkpt><trkpt lat="46.07299564234371" lon="10.994455555080025"><ele>367.0</ele><time>2026-03-29T13:11:45Z</time></trkpt><trkpt lat="46.072824678128946" lon="10.994359724014918"><ele>367.0</ele><time>2026-03-29T13:11:46Z</time></trkpt><trkpt lat="46.07265042213939" lon="10.994261685463542"><ele>367.0</ele><time>2026-03-29T13:11:46.999Z</time></trkpt><trkpt lat="46.07247655002971" lon="10.994165681309184"><ele>367.0</ele><time>2026-03-29T13:11:47.999Z</time></trkpt><trkpt lat="46.07229363324805" lon="10.994062337680866"><ele>363.66666666666663</ele><time>2026-03-29T13:11:48.999Z</time></trkpt><trkpt lat="46.07211232224234" lon="10.993969407583094"><ele>360.3333333333333</ele><time>2026-03-29T13:11:49.999Z</time></trkpt><trkpt lat="46.07193096503687" lon="10.993870613208692"><ele>357.0</ele><time>2026-03-29T13:11:50.999Z</time></trkpt><trkpt lat="46.07174921426538" lon="10.993771903342893"><ele>355.6666666666667</ele><time>2026-03-29T13:11:51.999Z</time></trkpt><trkpt lat="46.071564215144875" lon="10.993676154833036"><ele>354.33333333333337</ele><time>2026-03-29T13:11:52.999Z</time></trkpt><trkpt lat="46.07137836142933" lon="10.99357153954283"><ele>353.0</ele><time>2026-03-29T13:11:53.999Z</time></trkpt><trkpt lat="46.071189339715275" lon="10.993473912405195"><ele>353.0</ele><time>2026-03-29T13:11:54.999Z</time></trkpt><trkpt lat="46.07099727670614" lon="10.993371652324836"><ele>353.0</ele><time>2026-03-29T13:11:55.999Z</time></trkpt><trkpt lat="46.07080528763525" lon="10.993250749789297"><ele>353.0</ele><time>2026-03-29T13:11:56.999Z</time></trkpt><trkpt lat="46.07061480364714" lon="10.993117848260109"><ele>348.33333333333337</ele><time>2026-03-29T13:11:57.999Z</time></trkpt><trkpt lat="46.07042873268361" lon="10.992968863373296"><ele>343.6666666666667</ele><time>2026-03-29T13:11:58.999Z</time></trkpt><trkpt lat="46.07024252550647" lon="10.992813628466104"><ele>339.0</ele><time>2026-03-29T13:11:59.999Z</time></trkpt><trkpt lat="46.07005413929315" lon="10.992656067276524"><ele>335.6666666666667</ele><time>2026-03-29T13:12:00.999Z</time></trkpt><trkpt lat="46.06986664826331" lon="10.992489362979654"><ele>332.33333333333337</ele><time>2026-03-29T13:12:01.999Z</time></trkpt><trkpt lat="46.069682209856225" lon="10.992317898666284"><ele>329.0</ele><time>2026-03-29T13:12:02.999Z</time></trkpt><trkpt lat="46.06949722936838" lon="10.992144230500765"><ele>329.0</ele><time>2026-03-29T13:12:03.999Z</time></trkpt><trkpt lat="46.0693100081216" lon="10.991971217926569"><ele>329.0</ele><time>2026-03-29T13:12:04.999Z</time></trkpt><trkpt lat="46.06912323950024" lon="10.991801182030565"><ele>329.0</ele><time>2026-03-29T13:12:05.999Z</time></trkpt><trkpt lat="46.06893696881092" lon="10.991635401827384"><ele>325.0</ele><time>2026-03-29T13:12:06.999Z</time></trkpt><trkpt lat="46.06874909300824" lon="10.991468439439007"><ele>321.0</ele><time>2026-03-29T13:12:07.999Z</time></trkpt><trkpt lat="46.068558409003565" lon="10.99130251136241"><ele>317.0</ele><time>2026-03-29T13:12:08.999Z</time></trkpt><trkpt lat="46.068367596983926" lon="10.991143105498253"><ele>316.0</ele><time>2026-03-29T13:12:09.999Z</time></trkpt><trkpt lat="46.06817002771551" lon="10.990996781914282"><ele>315.0</ele><time>2026-03-29T13:12:10.999Z</time></trkpt><trkpt lat="46.06797058198027" lon="10.990859806841856"><ele>314.0</ele><time>2026-03-29T13:12:11.999Z</time></trkpt><trkpt lat="46.06776784695801" lon="10.990725673700952"><ele>314.0</ele><time>2026-03-29T13:12:12.999Z</time></trkpt><trkpt lat="46.0675623566397" lon="10.99058694205095"><ele>314.0</ele><time>2026-03-29T13:12:13.999Z</time></trkpt><trkpt lat="46.06735098456134" lon="10.990444802055762"><ele>305.5</ele><time>2026-03-29T13:12:14.999Z</time></trkpt><trkpt lat="46.067139878706406" lon="10.990301689048604"><ele>297.0</ele><time>2026-03-29T13:12:15.999Z</time></trkpt><trkpt lat="46.06693439356297" lon="10.990161614893896"><ele>297.0</ele><time>2026-03-29T13:12:16.999Z</time></trkpt><trkpt lat="46.066722886141115" lon="10.990027200442848"><ele>297.0</ele><time>2026-03-29T13:12:17.999Z</time></trkpt><trkpt lat="46.06650853504678" lon="10.989905752262022"><ele>294.0</ele><time>2026-03-29T13:12:18.999Z</time></trkpt><trkpt lat="46.06628569649466" lon="10.989812197882294"><ele>291.0</ele><time>2026-03-29T13:12:19.999Z</time></trkpt><trkpt lat="46.066055313893024" lon="10.989737555825984"><ele>291.0</ele><time>2026-03-29T13:12:20.999Z</time></trkpt><trkpt lat="46.065815171524456" lon="10.98967840508196"><ele>291.0</ele><time>2026-03-29T13:12:21.999Z</time></trkpt><trkpt lat="46.0655704747439" lon="10.989624961252808"><ele>292.5</ele><time>2026-03-29T13:12:22.999Z</time></trkpt><trkpt lat="46.065322922343015" lon="10.989558304086977"><ele>294.0</ele><time>2026-03-29T13:12:23.999Z</time></trkpt><trkpt lat="46.06507402890851" lon="10.989457942003204"><ele>302.5</ele><time>2026-03-29T13:12:24.999Z</time></trkpt><trkpt lat="46.06483987536139" lon="10.989303930702935"><ele>311.0</ele><time>2026-03-29T13:12:25.999Z</time></trkpt><trkpt lat="46.06460076462648" lon="10.989140728112993"><ele>312.5</ele><time>2026-03-29T13:12:26.999Z</time></trkpt><trkpt lat="46.064351873975745" lon="10.988981832171985"><ele>314.0</ele><time>2026-03-29T13:12:27.999Z</time></trkpt><trkpt lat="46.06409971553897" lon="10.988792866820697"><ele>309.5</ele><time>2026-03-29T13:12:28.999Z</time></trkpt><trkpt lat="46.06386050100925" lon="10.988628618412218"><ele>305.0</ele><time>2026-03-29T13:12:29.999Z</time></trkpt><trkpt lat="46.063634745536326" lon="10.988469355511096"><ele>301.0</ele><time>2026-03-29T13:12:30.999Z</time></trkpt><trkpt lat="46.06342239927324" lon="10.988321833114673"><ele>297.0</ele><time>2026-03-29T13:12:31.999Z</time></trkpt><trkpt lat="46.06321945031277" lon="10.988175855742085"><ele>293.6666666666667</ele><time>2026-03-29T13:12:32.999Z</time></trkpt><trkpt lat="46.06303293960978" lon="10.98803243711162"><ele>290.33333333333337</ele><time>2026-03-29T13:12:33.999Z</time></trkpt><trkpt lat="46.06288417557254" lon="10.987838704855447"><ele>287.0</ele><time>2026-03-29T13:12:34.999Z</time></trkpt><trkpt lat="46.0627488604059" lon="10.987650054061767"><ele>286.0</ele><time>2026-03-29T13:12:35.999Z</time></trkpt><trkpt lat="46.06263333262692" lon="10.987448508651742"><ele>285.0</ele><time>2026-03-29T13:12:36.999Z</time></trkpt><trkpt lat="46.06251267152559" lon="10.987216807446034"><ele>284.0</ele><time>2026-03-29T13:12:37.999Z</time></trkpt><trkpt lat="46.062377553779775" lon="10.986986816029889"><ele>281.33333333333337</ele><time>2026-03-29T13:12:38.999Z</time></trkpt><trkpt lat="46.062259610467805" lon="10.986738805949658"><ele>278.6666666666667</ele><time>2026-03-29T13:12:39.999Z</time></trkpt><trkpt lat="46.062136940841825" lon="10.986485023832001"><ele>276.0</ele><time>2026-03-29T13:12:40.999Z</time></trkpt><trkpt lat="46.06200539691871" lon="10.986232661526449"><ele>276.3333333333333</ele><time>2026-03-29T13:12:41.999Z</time></trkpt><trkpt lat="46.06186130217447" lon="10.98599781312787"><ele>276.66666666666663</ele><time>2026-03-29T13:12:42.999Z</time></trkpt><trkpt lat="46.061707684321945" lon="10.985772984448298"><ele>277.0</ele><time>2026-03-29T13:12:44Z</time></trkpt><trkpt lat="46.06154167480248" lon="10.985563808066512"><ele>275.3333333333333</ele><time>2026-03-29T13:12:45Z</time></trkpt><trkpt lat="46.06138283071312" lon="10.985347888736019"><ele>273.6666666666667</ele><time>2026-03-29T13:12:46Z</time></trkpt><trkpt lat="46.061202858936284" lon="10.985151290982202"><ele>272.0</ele><time>2026-03-29T13:12:47Z</time></trkpt><trkpt lat="46.0610631270931" lon="10.98494165528669"><ele>272.0</ele><time>2026-03-29T13:12:48Z</time></trkpt><trkpt lat="46.06091992449071" lon="10.984753900270306"><ele>272.0</ele><time>2026-03-29T13:12:49Z</time></trkpt><trkpt lat="46.06076319539841" lon="10.984571730781512"><ele>272.0</ele><time>2026-03-29T13:12:50Z</time></trkpt><trkpt lat="46.06060642036798" lon="10.984373675738974"><ele>268.33333333333337</ele><time>2026-03-29T13:12:51Z</time></trkpt><trkpt lat="46.06045426799161" lon="10.984156641790678"><ele>264.6666666666667</ele><time>2026-03-29T13:12:52Z</time></trkpt><trkpt lat="46.06029453095921" lon="10.983941866099979"><ele>261.0</ele><time>2026-03-29T13:12:53Z</time></trkpt><trkpt lat="46.060131346134455" lon="10.983721258531276"><ele>261.0</ele><time>2026-03-29T13:12:54Z</time></trkpt><trkpt lat="46.05996536269979" lon="10.983506018977051"><ele>261.0</ele><time>2026-03-29T13:12:55Z</time></trkpt><trkpt lat="46.059810172281544" lon="10.983306093641161"><ele>261.0</ele><time>2026-03-29T13:12:56Z</time></trkpt><trkpt lat="46.05965501046455" lon="10.983097965253409"><ele>259.0</ele><time>2026-03-29T13:12:57Z</time></trkpt><trkpt lat="46.059502759563166" lon="10.982898245186982"><ele>257.0</ele><time>2026-03-29T13:12:58Z</time></trkpt><trkpt lat="46.05935766200795" lon="10.982705409884375"><ele>255.0</ele><time>2026-03-29T13:12:59Z</time></trkpt><trkpt lat="46.05921876680289" lon="10.982520075477474"><ele>256.6666666666667</ele><time>2026-03-29T13:13:00Z</time></trkpt><trkpt lat="46.05908658642549" lon="10.982330586755218"><ele>258.33333333333337</ele><time>2026-03-29T13:13:01Z</time></trkpt><trkpt lat="46.05896803174484" lon="10.982146548955752"><ele>260.0</ele><time>2026-03-29T13:13:02Z</time></trkpt><trkpt lat="46.05886278084335" lon="10.981958229843126"><ele>260.0</ele><time>2026-03-29T13:13:03Z</time></trkpt><trkpt lat="46.058784061320196" lon="10.981742592042371"><ele>260.0</ele><time>2026-03-29T13:13:04Z</time></trkpt><trkpt lat="46.05871762835251" lon="10.981513972257021"><ele>260.0</ele><time>2026-03-29T13:13:05Z</time></trkpt><trkpt lat="46.058671579901365" lon="10.981281319602319"><ele>257.33333333333337</ele><time>2026-03-29T13:13:06Z</time></trkpt><trkpt lat="46.058643973022754" lon="10.98104869448087"><ele>254.66666666666669</ele><time>2026-03-29T13:13:07Z</time></trkpt><trkpt lat="46.05863341421409" lon="10.98080570493604"><ele>252.0</ele><time>2026-03-29T13:13:08Z</time></trkpt><trkpt lat="46.05864224260941" lon="10.980575432856684"><ele>251.5</ele><time>2026-03-29T13:13:09Z</time></trkpt><trkpt lat="46.05866246150622" lon="10.980358786199716"><ele>251.0</ele><time>2026-03-29T13:13:10Z</time></trkpt><trkpt lat="46.058693230961005" lon="10.980150010340033"><ele>250.5</ele><time>2026-03-29T13:13:11Z</time></trkpt><trkpt lat="46.05872600679558" lon="10.979951058233533"><ele>250.0</ele><time>2026-03-29T13:13:12Z</time></trkpt><trkpt lat="46.05874632515692" lon="10.979763063587088"><ele>249.5</ele><time>2026-03-29T13:13:13Z</time></trkpt><trkpt lat="46.05876848223613" lon="10.979574465168184"><ele>249.0</ele><time>2026-03-29T13:13:14Z</time></trkpt><trkpt lat="46.058793076380816" lon="10.979394294002143"><ele>248.5</ele><time>2026-03-29T13:13:15Z</time></trkpt><trkpt lat="46.05881836575053" lon="10.979211099148685"><ele>248.0</ele><time>2026-03-29T13:13:16Z</time></trkpt><trkpt lat="46.058837675017024" lon="10.979031415433644"><ele>248.0</ele><time>2026-03-29T13:13:17Z</time></trkpt><trkpt lat="46.05886307762308" lon="10.978865810579352"><ele>248.0</ele><time>2026-03-29T13:13:18Z</time></trkpt><trkpt lat="46.05888450304776" lon="10.978733205526925"><ele>248.0</ele><time>2026-03-29T13:13:19Z</time></trkpt><trkpt lat="46.058901846820675" lon="10.978617588331206"><ele>248.0</ele><time>2026-03-29T13:13:20Z</time></trkpt><trkpt lat="46.058912203070115" lon="10.978518625667512"><ele>248.0</ele><time>2026-03-29T13:13:21Z</time></trkpt><trkpt lat="46.05892644265329" lon="10.97837984413985"><ele>248.8</ele><time>2026-03-29T13:13:23Z</time></trkpt><trkpt lat="46.05895467446033" lon="10.978264067563419"><ele>249.60000000000002</ele><time>2026-03-29T13:13:28Z</time></trkpt><trkpt lat="46.05897948954161" lon="10.978080933504197"><ele>250.39999999999998</ele><time>2026-03-29T13:13:30Z</time></trkpt><trkpt lat="46.058997344111276" lon="10.977975252987756"><ele>251.2</ele><time>2026-03-29T13:13:31Z</time></trkpt><trkpt lat="46.05901217838081" lon="10.9778535086803"><ele>252.0</ele><time>2026-03-29T13:13:32Z</time></trkpt><trkpt lat="46.05902025840945" lon="10.977744932934689"><ele>252.0</ele><time>2026-03-29T13:13:33Z</time></trkpt><trkpt lat="46.059021327626596" lon="10.977647757647194"><ele>252.0</ele><time>2026-03-29T13:13:34Z</time></trkpt><trkpt lat="46.059018490367045" lon="10.977533698190697"><ele>252.0</ele><time>2026-03-29T13:13:35Z</time></trkpt><trkpt lat="46.05901035111861" lon="10.977433667881487"><ele>252.0</ele><time>2026-03-29T13:13:36Z</time></trkpt><trkpt lat="46.05899977709829" lon="10.97732453543964"><ele>252.0</ele><time>2026-03-29T13:13:37Z</time></trkpt><trkpt lat="46.05898340857327" lon="10.977220618435135"><ele>252.0</ele><time>2026-03-29T13:13:38Z</time></trkpt><trkpt lat="46.0589788512228" lon="10.977115017080257"><ele>252.0</ele><time>2026-03-29T13:13:39Z</time></trkpt><trkpt lat="46.05895864443902" lon="10.976949693947292"><ele>251.0</ele><time>2026-03-29T13:13:41Z</time></trkpt><trkpt lat="46.05887417039306" lon="10.976785412119552"><ele>250.0</ele><time>2026-03-29T13:13:43Z</time></trkpt><trkpt lat="46.058795924269695" lon="10.976713967222725"><ele>249.0</ele><time>2026-03-29T13:13:44Z</time></trkpt><trkpt lat="46.05871424764869" lon="10.976627024552563"><ele>248.0</ele><time>2026-03-29T13:13:45Z</time></trkpt><trkpt lat="46.05862939762464" lon="10.976523756135148"><ele>247.0</ele><time>2026-03-29T13:13:46Z</time></trkpt><trkpt lat="46.05854227464054" lon="10.976413247951395"><ele>246.75</ele><time>2026-03-29T13:13:47Z</time></trkpt><trkpt lat="46.05845967235742" lon="10.976304658157877"><ele>246.5</ele><time>2026-03-29T13:13:48Z</time></trkpt><trkpt lat="46.05837924655691" lon="10.976182483667932"><ele>246.25</ele><time>2026-03-29T13:13:49Z</time></trkpt><trkpt lat="46.05829977799665" lon="10.976062223992347"><ele>246.0</ele><time>2026-03-29T13:13:50Z</time></trkpt><trkpt lat="46.05821424212494" lon="10.97592421661786"><ele>246.25</ele><time>2026-03-29T13:13:51Z</time></trkpt><trkpt lat="46.05812774419848" lon="10.975785607597942"><ele>246.5</ele><time>2026-03-29T13:13:52Z</time></trkpt><trkpt lat="46.05806721842547" lon="10.975645428930711"><ele>246.75</ele><time>2026-03-29T13:13:53Z</time></trkpt><trkpt lat="46.058016016523" lon="10.975500946386532"><ele>247.0</ele><time>2026-03-29T13:13:54Z</time></trkpt><trkpt lat="46.057960994469816" lon="10.975354333992758"><ele>247.0</ele><time>2026-03-29T13:13:55Z</time></trkpt><trkpt lat="46.057926477356844" lon="10.975189677202776"><ele>247.0</ele><time>2026-03-29T13:13:55.999Z</time></trkpt><trkpt lat="46.057897556398146" lon="10.97501528027745"><ele>247.0</ele><time>2026-03-29T13:13:56.999Z</time></trkpt><trkpt lat="46.057873489047005" lon="10.974832336471085"><ele>247.0</ele><time>2026-03-29T13:13:57.999Z</time></trkpt><trkpt lat="46.057851041983454" lon="10.974645222509656"><ele>247.0</ele><time>2026-03-29T13:13:58.999Z</time></trkpt><trkpt lat="46.05782947294463" lon="10.974453586068448"><ele>247.0</ele><time>2026-03-29T13:13:59.999Z</time></trkpt><trkpt lat="46.05780460141764" lon="10.974264288925223"><ele>247.0</ele><time>2026-03-29T13:14:00.999Z</time></trkpt><trkpt lat="46.05777849311762" lon="10.97407278951193"><ele>247.0</ele><time>2026-03-29T13:14:01.999Z</time></trkpt><trkpt lat="46.05775709345899" lon="10.97390481369298"><ele>247.0</ele><time>2026-03-29T13:14:02.999Z</time></trkpt><trkpt lat="46.05773735824292" lon="10.973736547400804"><ele>247.0</ele><time>2026-03-29T13:14:03.999Z</time></trkpt><trkpt lat="46.057719625981875" lon="10.973568369134316"><ele>247.0</ele><time>2026-03-29T13:14:04.999Z</time></trkpt><trkpt lat="46.05769821546854" lon="10.973402305125923"><ele>247.0</ele><time>2026-03-29T13:14:05.999Z</time></trkpt><trkpt lat="46.057681413643884" lon="10.973250201671982"><ele>246.8</ele><time>2026-03-29T13:14:06.999Z</time></trkpt><trkpt lat="46.057664630513784" lon="10.973103095434034"><ele>246.6</ele><time>2026-03-29T13:14:07.999Z</time></trkpt><trkpt lat="46.05764575131071" lon="10.972955149933977"><ele>246.40000000000003</ele><time>2026-03-29T13:14:08.999Z</time></trkpt><trkpt lat="46.05762417713817" lon="10.972805081756295"><ele>246.20000000000002</ele><time>2026-03-29T13:14:09.999Z</time></trkpt><trkpt lat="46.057610351875525" lon="10.972675838985822"><ele>246.0</ele><time>2026-03-29T13:14:10.999Z</time></trkpt><trkpt lat="46.05760650468037" lon="10.972565236256274"><ele>246.0</ele><time>2026-03-29T13:14:11.999Z</time></trkpt><trkpt lat="46.05761426716558" lon="10.972456223787228"><ele>246.0</ele><time>2026-03-29T13:14:12.999Z</time></trkpt><trkpt lat="46.05764184766601" lon="10.972355227291995"><ele>246.0</ele><time>2026-03-29T13:14:13.999Z</time></trkpt><trkpt lat="46.057689529936546" lon="10.972259175757342"><ele>246.0</ele><time>2026-03-29T13:14:14.999Z</time></trkpt><trkpt lat="46.05774457109502" lon="10.972182031511629"><ele>246.0</ele><time>2026-03-29T13:14:15.999Z</time></trkpt><trkpt lat="46.05782844047602" lon="10.972148911338413"><ele>246.0</ele><time>2026-03-29T13:14:16.999Z</time></trkpt><trkpt lat="46.05791351249357" lon="10.97212283096938"><ele>246.0</ele><time>2026-03-29T13:14:17.999Z</time></trkpt><trkpt lat="46.0580092194919" lon="10.972101088458537"><ele>246.00000000000003</ele><time>2026-03-29T13:14:18.999Z</time></trkpt><trkpt lat="46.05811024636338" lon="10.972077948137409"><ele>246.00000000000003</ele><time>2026-03-29T13:14:19.999Z</time></trkpt><trkpt lat="46.058208741076" lon="10.97202175209092"><ele>246.0</ele><time>2026-03-29T13:14:20.999Z</time></trkpt><trkpt lat="46.05831018540071" lon="10.971976517251095"><ele>246.0</ele><time>2026-03-29T13:14:21.999Z</time></trkpt><trkpt lat="46.05840044309647" lon="10.971895732162832"><ele>247.25</ele><time>2026-03-29T13:14:22.999Z</time></trkpt><trkpt lat="46.058473029591156" lon="10.971770987533631"><ele>248.5</ele><time>2026-03-29T13:14:23.999Z</time></trkpt><trkpt lat="46.058531283968144" lon="10.97162123447403"><ele>249.75</ele><time>2026-03-29T13:14:24.999Z</time></trkpt><trkpt lat="46.05854752938007" lon="10.971456646597488"><ele>251.0</ele><time>2026-03-29T13:14:25.999Z</time></trkpt><trkpt lat="46.058544135642684" lon="10.971283327259092"><ele>251.0</ele><time>2026-03-29T13:14:26.999Z</time></trkpt><trkpt lat="46.05851157643025" lon="10.971111725579059"><ele>251.0</ele><time>2026-03-29T13:14:27.999Z</time></trkpt><trkpt lat="46.05845274069282" lon="10.970951743751915"><ele>251.0</ele><time>2026-03-29T13:14:28.999Z</time></trkpt><trkpt lat="46.058376946996106" lon="10.97080221034047"><ele>251.0</ele><time>2026-03-29T13:14:29.999Z</time></trkpt><trkpt lat="46.058287415609335" lon="10.970661995982127"><ele>249.0</ele><time>2026-03-29T13:14:30.999Z</time></trkpt><trkpt lat="46.058196015707026" lon="10.970516355258399"><ele>247.0</ele><time>2026-03-29T13:14:31.999Z</time></trkpt><trkpt lat="46.05810718318238" lon="10.970378933883142"><ele>245.0</ele><time>2026-03-29T13:14:32.999Z</time></trkpt><trkpt lat="46.05802387707625" lon="10.970254227617092"><ele>243.0</ele><time>2026-03-29T13:14:33.999Z</time></trkpt><trkpt lat="46.05793234176469" lon="10.9701266389116"><ele>244.0</ele><time>2026-03-29T13:14:34.999Z</time></trkpt><trkpt lat="46.057842594260194" lon="10.969995112749134"><ele>245.0</ele><time>2026-03-29T13:14:35.999Z</time></trkpt><trkpt lat="46.05775900706175" lon="10.969859851375343"><ele>246.0</ele><time>2026-03-29T13:14:36.999Z</time></trkpt><trkpt lat="46.05766742151855" lon="10.969720886315546"><ele>247.0</ele><time>2026-03-29T13:14:37.999Z</time></trkpt><trkpt lat="46.057576588225814" lon="10.969581805131174"><ele>247.0</ele><time>2026-03-29T13:14:38.999Z</time></trkpt><trkpt lat="46.05748541131429" lon="10.969445299097698"><ele>247.0</ele><time>2026-03-29T13:14:39.999Z</time></trkpt><trkpt lat="46.05739797501017" lon="10.969303547404735"><ele>247.0</ele><time>2026-03-29T13:14:40.999Z</time></trkpt><trkpt lat="46.05731167273826" lon="10.969155383941779"><ele>247.0</ele><time>2026-03-29T13:14:41.999Z</time></trkpt><trkpt lat="46.057228583711286" lon="10.969005269137412"><ele>246.5</ele><time>2026-03-29T13:14:42.999Z</time></trkpt><trkpt lat="46.05714812538114" lon="10.96885147024417"><ele>246.0</ele><time>2026-03-29T13:14:43.999Z</time></trkpt><trkpt lat="46.05706502344947" lon="10.96868338497372"><ele>245.5</ele><time>2026-03-29T13:14:44.999Z</time></trkpt><trkpt lat="46.056978889934015" lon="10.968510584523974"><ele>245.0</ele><time>2026-03-29T13:14:45.999Z</time></trkpt><trkpt lat="46.056894618712036" lon="10.96833438755882"><ele>245.0</ele><time>2026-03-29T13:14:46.999Z</time></trkpt><trkpt lat="46.05681323091381" lon="10.968162252154796"><ele>245.0</ele><time>2026-03-29T13:14:47.999Z</time></trkpt><trkpt lat="46.056742706925114" lon="10.968003954579368"><ele>245.0</ele><time>2026-03-29T13:14:49Z</time></trkpt><trkpt lat="46.056668474064075" lon="10.967847612367445"><ele>245.0</ele><time>2026-03-29T13:14:50Z</time></trkpt><trkpt lat="46.05659188432505" lon="10.967689918228706"><ele>244.8</ele><time>2026-03-29T13:14:51Z</time></trkpt><trkpt lat="46.05652379399868" lon="10.967549240404212"><ele>244.6</ele><time>2026-03-29T13:14:52Z</time></trkpt><trkpt lat="46.05645852578476" lon="10.967408414762136"><ele>244.39999999999998</ele><time>2026-03-29T13:14:53Z</time></trkpt><trkpt lat="46.05640101980447" lon="10.967275195570704"><ele>244.2</ele><time>2026-03-29T13:14:54Z</time></trkpt><trkpt lat="46.05634830183393" lon="10.967159060197929"><ele>244.0</ele><time>2026-03-29T13:14:55Z</time></trkpt><trkpt lat="46.05630792154809" lon="10.967033169853892"><ele>244.39999999999998</ele><time>2026-03-29T13:14:56Z</time></trkpt><trkpt lat="46.056284038581886" lon="10.966900888056546"><ele>244.79999999999998</ele><time>2026-03-29T13:14:57Z</time></trkpt><trkpt lat="46.0562854913522" lon="10.966740153840709"><ele>245.20000000000002</ele><time>2026-03-29T13:14:58Z</time></trkpt><trkpt lat="46.05630620023197" lon="10.966575278620581"><ele>245.60000000000002</ele><time>2026-03-29T13:14:59Z</time></trkpt><trkpt lat="46.05631563015888" lon="10.966398832079664"><ele>246.0</ele><time>2026-03-29T13:15:00Z</time></trkpt><trkpt lat="46.05632429736164" lon="10.966221996851246"><ele>246.0</ele><time>2026-03-29T13:15:01Z</time></trkpt><trkpt lat="46.056331753347436" lon="10.96604250389766"><ele>246.0</ele><time>2026-03-29T13:15:02Z</time></trkpt><trkpt lat="46.05633993285798" lon="10.965877093896598"><ele>246.0</ele><time>2026-03-29T13:15:03Z</time></trkpt><trkpt lat="46.056350528328345" lon="10.965714411046312"><ele>246.0</ele><time>2026-03-29T13:15:04Z</time></trkpt><trkpt lat="46.056359816666635" lon="10.96555657732952"><ele>246.20000000000002</ele><time>2026-03-29T13:15:05Z</time></trkpt><trkpt lat="46.05636917150271" lon="10.965401078835697"><ele>246.40000000000003</ele><time>2026-03-29T13:15:06Z</time></trkpt><trkpt lat="46.0563805299978" lon="10.965247072358043"><ele>246.6</ele><time>2026-03-29T13:15:07Z</time></trkpt><trkpt lat="46.0563915442007" lon="10.965093908927232"><ele>246.8</ele><time>2026-03-29T13:15:08Z</time></trkpt><trkpt lat="46.05639973556427" lon="10.96494143364398"><ele>247.0</ele><time>2026-03-29T13:15:09Z</time></trkpt><trkpt lat="46.05640659886309" lon="10.964796916510817"><ele>247.39999999999998</ele><time>2026-03-29T13:15:10Z</time></trkpt><trkpt lat="46.056411931824115" lon="10.964669764764023"><ele>247.79999999999998</ele><time>2026-03-29T13:15:11Z</time></trkpt><trkpt lat="46.056403554852096" lon="10.964534146247155"><ele>248.2</ele><time>2026-03-29T13:15:12Z</time></trkpt><trkpt lat="46.0563782667385" lon="10.964395650248651"><ele>248.6</ele><time>2026-03-29T13:15:13Z</time></trkpt><trkpt lat="46.05632526932179" lon="10.964265440013534"><ele>249.0</ele><time>2026-03-29T13:15:14Z</time></trkpt><trkpt lat="46.05625521452904" lon="10.964130587987912"><ele>249.5</ele><time>2026-03-29T13:15:15Z</time></trkpt><trkpt lat="46.056169097656905" lon="10.963999779020167"><ele>250.0</ele><time>2026-03-29T13:15:16Z</time></trkpt><trkpt lat="46.05608427717963" lon="10.96385696827471"><ele>250.5</ele><time>2026-03-29T13:15:17Z</time></trkpt><trkpt lat="46.055998741681464" lon="10.963709912681137"><ele>251.0</ele><time>2026-03-29T13:15:18Z</time></trkpt><trkpt lat="46.05591422634954" lon="10.963561030022275"><ele>251.0</ele><time>2026-03-29T13:15:19Z</time></trkpt><trkpt lat="46.0558273759279" lon="10.96340647546674"><ele>251.0</ele><time>2026-03-29T13:15:20Z</time></trkpt><trkpt lat="46.05574446415677" lon="10.963249812465097"><ele>251.0</ele><time>2026-03-29T13:15:21Z</time></trkpt><trkpt lat="46.05565285188018" lon="10.963095392145027"><ele>251.0</ele><time>2026-03-29T13:15:22Z</time></trkpt><trkpt lat="46.05556250833048" lon="10.962936726044717"><ele>250.0</ele><time>2026-03-29T13:15:23Z</time></trkpt><trkpt lat="46.05547445104934" lon="10.962770308492924"><ele>249.0</ele><time>2026-03-29T13:15:24Z</time></trkpt><trkpt lat="46.05539448410244" lon="10.962590263735422"><ele>248.0</ele><time>2026-03-29T13:15:25Z</time></trkpt><trkpt lat="46.055320559566255" lon="10.962414570220918"><ele>247.0</ele><time>2026-03-29T13:15:26Z</time></trkpt><trkpt lat="46.05524829918865" lon="10.962243935921691"><ele>247.0</ele><time>2026-03-29T13:15:27Z</time></trkpt><trkpt lat="46.05518874462188" lon="10.962073102618264"><ele>247.0</ele><time>2026-03-29T13:15:28Z</time></trkpt><trkpt lat="46.05513019557426" lon="10.961899119348134"><ele>247.0</ele><time>2026-03-29T13:15:29Z</time></trkpt><trkpt lat="46.05506917068348" lon="10.961722453163542"><ele>247.0</ele><time>2026-03-29T13:15:30Z</time></trkpt><trkpt lat="46.05500596966201" lon="10.961551278989393"><ele>246.5</ele><time>2026-03-29T13:15:31Z</time></trkpt><trkpt lat="46.05494319403131" lon="10.961366468251205"><ele>246.0</ele><time>2026-03-29T13:15:32Z</time></trkpt><trkpt lat="46.05487556606075" lon="10.96118986744451"><ele>245.5</ele><time>2026-03-29T13:15:33Z</time></trkpt><trkpt lat="46.05480731746332" lon="10.961011421748797"><ele>245.0</ele><time>2026-03-29T13:15:34Z</time></trkpt><trkpt lat="46.054746394704814" lon="10.960834315973958"><ele>245.0</ele><time>2026-03-29T13:15:35Z</time></trkpt><trkpt lat="46.054679172848275" lon="10.960657178675506"><ele>245.0</ele><time>2026-03-29T13:15:36Z</time></trkpt><trkpt lat="46.054611435359625" lon="10.960481811231126"><ele>245.0</ele><time>2026-03-29T13:15:37Z</time></trkpt><trkpt lat="46.05455422642571" lon="10.96029759798969"><ele>245.0</ele><time>2026-03-29T13:15:38Z</time></trkpt><trkpt lat="46.05448629937596" lon="10.96014365303484"><ele>247.5</ele><time>2026-03-29T13:15:39Z</time></trkpt><trkpt lat="46.05441062479585" lon="10.959996932858456"><ele>250.0</ele><time>2026-03-29T13:15:40Z</time></trkpt><trkpt lat="46.05432648693975" lon="10.959856075806348"><ele>252.5</ele><time>2026-03-29T13:15:41Z</time></trkpt><trkpt lat="46.05423933493536" lon="10.959707627789749"><ele>255.0</ele><time>2026-03-29T13:15:42Z</time></trkpt><trkpt lat="46.05415150491701" lon="10.959560232796882"><ele>254.0</ele><time>2026-03-29T13:15:43Z</time></trkpt><trkpt lat="46.054065843941274" lon="10.95943338011696"><ele>253.0</ele><time>2026-03-29T13:15:44Z</time></trkpt><trkpt lat="46.053992435161895" lon="10.959300669074851"><ele>252.0</ele><time>2026-03-29T13:15:45Z</time></trkpt><trkpt lat="46.053912136113134" lon="10.959176904400746"><ele>251.0</ele><time>2026-03-29T13:15:46Z</time></trkpt><trkpt lat="46.05381940763953" lon="10.95907422686819"><ele>251.0</ele><time>2026-03-29T13:15:47Z</time></trkpt><trkpt lat="46.053707385255386" lon="10.959010571214254"><ele>251.0</ele><time>2026-03-29T13:15:48Z</time></trkpt><trkpt lat="46.053577733629496" lon="10.958979190189178"><ele>251.0</ele><time>2026-03-29T13:15:49Z</time></trkpt><trkpt lat="46.05342908150037" lon="10.95894700263503"><ele>251.0</ele><time>2026-03-29T13:15:50Z</time></trkpt><trkpt lat="46.05330810347522" lon="10.958909486890763"><ele>250.25</ele><time>2026-03-29T13:15:51Z</time></trkpt><trkpt lat="46.05317347776016" lon="10.95887128925588"><ele>249.5</ele><time>2026-03-29T13:15:52Z</time></trkpt><trkpt lat="46.05303605511107" lon="10.958827450621534"><ele>248.75</ele><time>2026-03-29T13:15:53Z</time></trkpt><trkpt lat="46.05291107640864" lon="10.958790070076674"><ele>248.0</ele><time>2026-03-29T13:15:54Z</time></trkpt><trkpt lat="46.05278992871973" lon="10.958750474696764"><ele>248.0</ele><time>2026-03-29T13:15:55Z</time></trkpt><trkpt lat="46.052666740498545" lon="10.95871208308008"><ele>248.0</ele><time>2026-03-29T13:15:55.999Z</time></trkpt><trkpt lat="46.05254336036349" lon="10.958671897068536"><ele>248.0</ele><time>2026-03-29T13:15:56.999Z</time></trkpt><trkpt lat="46.05242645354044" lon="10.958646368179563"><ele>248.0</ele><time>2026-03-29T13:15:57.999Z</time></trkpt><trkpt lat="46.05231321610719" lon="10.95858565589569"><ele>247.5</ele><time>2026-03-29T13:15:58.999Z</time></trkpt><trkpt lat="46.052184151649776" lon="10.958552547953538"><ele>247.0</ele><time>2026-03-29T13:15:59.999Z</time></trkpt><trkpt lat="46.05206239768943" lon="10.958510124409743"><ele>246.5</ele><time>2026-03-29T13:16:00.999Z</time></trkpt><trkpt lat="46.05194444569353" lon="10.9584782322349"><ele>246.0</ele><time>2026-03-29T13:16:01.999Z</time></trkpt><trkpt lat="46.05181285379385" lon="10.958429511853934"><ele>246.0</ele><time>2026-03-29T13:16:02.999Z</time></trkpt><trkpt lat="46.051680391167764" lon="10.95839348298355"><ele>246.0</ele><time>2026-03-29T13:16:03.999Z</time></trkpt><trkpt lat="46.051555441875536" lon="10.958349176803015"><ele>246.0</ele><time>2026-03-29T13:16:04.999Z</time></trkpt><trkpt lat="46.05144495497793" lon="10.958274583231615"><ele>246.0</ele><time>2026-03-29T13:16:05.999Z</time></trkpt><trkpt lat="46.05133261526111" lon="10.958175502320572"><ele>246.25</ele><time>2026-03-29T13:16:06.999Z</time></trkpt><trkpt lat="46.051223960999806" lon="10.958054978047544"><ele>246.5</ele><time>2026-03-29T13:16:07.999Z</time></trkpt><trkpt lat="46.05111347425782" lon="10.957941868788117"><ele>246.75</ele><time>2026-03-29T13:16:08.999Z</time></trkpt><trkpt lat="46.0510021074275" lon="10.957832742746664"><ele>247.0</ele><time>2026-03-29T13:16:09.999Z</time></trkpt><trkpt lat="46.05089069998595" lon="10.957728953617105"><ele>246.75</ele><time>2026-03-29T13:16:10.999Z</time></trkpt><trkpt lat="46.05078466763616" lon="10.957628018683673"><ele>246.5</ele><time>2026-03-29T13:16:11.999Z</time></trkpt><trkpt lat="46.05068851672105" lon="10.95753032644246"><ele>246.25</ele><time>2026-03-29T13:16:12.999Z</time></trkpt><trkpt lat="46.050593001726504" lon="10.957437717611104"><ele>246.0</ele><time>2026-03-29T13:16:13.999Z</time></trkpt><trkpt lat="46.05049666260949" lon="10.957345878772994"><ele>246.0</ele><time>2026-03-29T13:16:14.999Z</time></trkpt><trkpt lat="46.05039956452083" lon="10.957246146657294"><ele>246.00000000000003</ele><time>2026-03-29T13:16:15.999Z</time></trkpt><trkpt lat="46.050305273582545" lon="10.957149144689735"><ele>246.00000000000003</ele><time>2026-03-29T13:16:16.999Z</time></trkpt><trkpt lat="46.050219020134826" lon="10.95706266553326"><ele>246.0</ele><time>2026-03-29T13:16:17.999Z</time></trkpt><trkpt lat="46.050128227867155" lon="10.956977951059274"><ele>246.0</ele><time>2026-03-29T13:16:18.999Z</time></trkpt><trkpt lat="46.05003845564235" lon="10.956886565155964"><ele>245.75</ele><time>2026-03-29T13:16:19.999Z</time></trkpt><trkpt lat="46.04994646274008" lon="10.956787964741542"><ele>245.5</ele><time>2026-03-29T13:16:20.999Z</time></trkpt><trkpt lat="46.04985329846632" lon="10.956686173885467"><ele>245.25</ele><time>2026-03-29T13:16:21.999Z</time></trkpt><trkpt lat="46.04975881665457" lon="10.956587930658948"><ele>245.0</ele><time>2026-03-29T13:16:22.999Z</time></trkpt><trkpt lat="46.049663026507716" lon="10.95647740373492"><ele>245.0</ele><time>2026-03-29T13:16:23.999Z</time></trkpt><trkpt lat="46.04956407780347" lon="10.956367086857083"><ele>245.0</ele><time>2026-03-29T13:16:24.999Z</time></trkpt><trkpt lat="46.04947484794429" lon="10.956242582815964"><ele>245.0</ele><time>2026-03-29T13:16:25.999Z</time></trkpt><trkpt lat="46.04939448522047" lon="10.956133250880614"><ele>245.0</ele><time>2026-03-29T13:16:26.999Z</time></trkpt><trkpt lat="46.04932268046362" lon="10.956029151038319"><ele>245.0</ele><time>2026-03-29T13:16:27.999Z</time></trkpt><trkpt lat="46.049253283978366" lon="10.955918310980918"><ele>245.0</ele><time>2026-03-29T13:16:28.999Z</time></trkpt><trkpt lat="46.049180234852905" lon="10.955801533427564"><ele>245.0</ele><time>2026-03-29T13:16:29.999Z</time></trkpt><trkpt lat="46.0491012985388" lon="10.955689985332995"><ele>245.0</ele><time>2026-03-29T13:16:30.999Z</time></trkpt><trkpt lat="46.04902037845377" lon="10.955571000301726"><ele>245.0</ele><time>2026-03-29T13:16:31.999Z</time></trkpt><trkpt lat="46.048953001754086" lon="10.955449829118205"><ele>245.4</ele><time>2026-03-29T13:16:32.999Z</time></trkpt><trkpt lat="46.048878041990655" lon="10.955335577337372"><ele>245.8</ele><time>2026-03-29T13:16:33.999Z</time></trkpt><trkpt lat="46.04881309348237" lon="10.955223446617582"><ele>246.2</ele><time>2026-03-29T13:16:34.999Z</time></trkpt><trkpt lat="46.04875325603661" lon="10.955127164657979"><ele>246.6</ele><time>2026-03-29T13:16:35.999Z</time></trkpt><trkpt lat="46.048700944386944" lon="10.95504095441333"><ele>247.0</ele><time>2026-03-29T13:16:36.999Z</time></trkpt><trkpt lat="46.04864973344084" lon="10.954960834686924"><ele>247.33333333333331</ele><time>2026-03-29T13:16:37.999Z</time></trkpt><trkpt lat="46.04860281825928" lon="10.954883439573324"><ele>247.66666666666666</ele><time>2026-03-29T13:16:38.999Z</time></trkpt><trkpt lat="46.048549448096914" lon="10.954805981465839"><ele>248.0</ele><time>2026-03-29T13:16:39.999Z</time></trkpt><trkpt lat="46.048497930945025" lon="10.95472063965866"><ele>248.33333333333331</ele><time>2026-03-29T13:16:40.999Z</time></trkpt><trkpt lat="46.048445101467756" lon="10.954635760080809"><ele>248.66666666666666</ele><time>2026-03-29T13:16:41.999Z</time></trkpt><trkpt lat="46.04839219248004" lon="10.954548418293367"><ele>249.0</ele><time>2026-03-29T13:16:42.999Z</time></trkpt><trkpt lat="46.048334061581414" lon="10.9544640390094"><ele>248.83333333333334</ele><time>2026-03-29T13:16:43.999Z</time></trkpt><trkpt lat="46.04827863386195" lon="10.954375668226216"><ele>248.66666666666669</ele><time>2026-03-29T13:16:44.999Z</time></trkpt><trkpt lat="46.0482210103819" lon="10.954283245256233"><ele>248.5</ele><time>2026-03-29T13:16:45.999Z</time></trkpt><trkpt lat="46.0481632036669" lon="10.954194745734075"><ele>248.33333333333334</ele><time>2026-03-29T13:16:46.999Z</time></trkpt><trkpt lat="46.04810551285239" lon="10.954106558817662"><ele>248.16666666666669</ele><time>2026-03-29T13:16:47.999Z</time></trkpt><trkpt lat="46.048049346470776" lon="10.954013625477096"><ele>248.0</ele><time>2026-03-29T13:16:48.999Z</time></trkpt><trkpt lat="46.04799172264538" lon="10.953920664252372"><ele>247.83333333333334</ele><time>2026-03-29T13:16:49.999Z</time></trkpt><trkpt lat="46.04794013241906" lon="10.953841827684728"><ele>247.66666666666669</ele><time>2026-03-29T13:16:50.999Z</time></trkpt><trkpt lat="46.04789170053555" lon="10.953767137461037"><ele>247.5</ele><time>2026-03-29T13:16:51.999Z</time></trkpt><trkpt lat="46.04782071457385" lon="10.953654337159639"><ele>247.33333333333331</ele><time>2026-03-29T13:16:53.999Z</time></trkpt><trkpt lat="46.04775665160795" lon="10.953558588287859"><ele>247.16666666666666</ele><time>2026-03-29T13:16:56Z</time></trkpt><trkpt lat="46.04769790571775" lon="10.953464910750657"><ele>247.0</ele><time>2026-03-29T13:16:58Z</time></trkpt><trkpt lat="46.04764422942305" lon="10.953376113328376"><ele>247.2</ele><time>2026-03-29T13:17:00Z</time></trkpt><trkpt lat="46.047600961454464" lon="10.953300602086884"><ele>247.39999999999998</ele><time>2026-03-29T13:17:02Z</time></trkpt><trkpt lat="46.04754754176204" lon="10.953221702163134"><ele>247.60000000000002</ele><time>2026-03-29T13:17:04Z</time></trkpt><trkpt lat="46.04748438939837" lon="10.953101161542998"><ele>247.8</ele><time>2026-03-29T13:17:06Z</time></trkpt><trkpt lat="46.04742227848544" lon="10.952979643731899"><ele>248.0</ele><time>2026-03-29T13:17:08Z</time></trkpt><trkpt lat="46.04736297107975" lon="10.952854930617459"><ele>248.0</ele><time>2026-03-29T13:17:10Z</time></trkpt><trkpt lat="46.0473077177785" lon="10.952713759006217"><ele>248.0</ele><time>2026-03-29T13:17:12Z</time></trkpt><trkpt lat="46.04726260538299" lon="10.95255840385859"><ele>248.0</ele><time>2026-03-29T13:17:14Z</time></trkpt><trkpt lat="46.04723179580393" lon="10.952450855262853"><ele>248.0</ele><time>2026-03-29T13:17:16Z</time></trkpt><trkpt lat="46.047212261352946" lon="10.952330212119568"><ele>248.0</ele><time>2026-03-29T13:17:18Z</time></trkpt><trkpt lat="46.04717162056998" lon="10.95224194279233"><ele>248.2</ele><time>2026-03-29T13:17:20Z</time></trkpt><trkpt lat="46.04701959305676" lon="10.952298588381444"><ele>248.4</ele><time>2026-03-29T13:17:32Z</time></trkpt><trkpt lat="46.04692613416769" lon="10.952288233078804"><ele>248.59999999999997</ele><time>2026-03-29T13:17:34Z</time></trkpt><trkpt lat="46.04685495078111" lon="10.952298219872507"><ele>248.79999999999998</ele><time>2026-03-29T13:17:37Z</time></trkpt><trkpt lat="46.046787658115264" lon="10.952303713663479"><ele>249.0</ele><time>2026-03-29T13:17:43Z</time></trkpt><trkpt lat="46.04671179242126" lon="10.95226529486063"><ele>248.83333333333334</ele><time>2026-03-29T13:17:47Z</time></trkpt><trkpt lat="46.046615320767124" lon="10.952232324647667"><ele>248.66666666666669</ele><time>2026-03-29T13:17:49Z</time></trkpt><trkpt lat="46.046536847725974" lon="10.952215085771368"><ele>248.5</ele><time>2026-03-29T13:17:50Z</time></trkpt><trkpt lat="46.04644576496254" lon="10.952189480608244"><ele>248.33333333333334</ele><time>2026-03-29T13:17:51Z</time></trkpt><trkpt lat="46.0463570774126" lon="10.952161129538718"><ele>248.16666666666669</ele><time>2026-03-29T13:17:52Z</time></trkpt><trkpt lat="46.04628157198089" lon="10.95214180258877"><ele>248.0</ele><time>2026-03-29T13:17:53Z</time></trkpt><trkpt lat="46.04621734553159" lon="10.952126948375271"><ele>248.00000000000003</ele><time>2026-03-29T13:17:54Z</time></trkpt><trkpt lat="46.046148462537" lon="10.952111772704468"><ele>248.0</ele><time>2026-03-29T13:17:55Z</time></trkpt><trkpt lat="46.04608076441029" lon="10.952092702357474"><ele>248.0</ele><time>2026-03-29T13:17:56Z</time></trkpt><trkpt lat="46.04600872578188" lon="10.952069004889612"><ele>248.0</ele><time>2026-03-29T13:17:57Z</time></trkpt><trkpt lat="46.04592487446689" lon="10.952039423714686"><ele>248.00000000000003</ele><time>2026-03-29T13:17:58Z</time></trkpt><trkpt lat="46.04583655502155" lon="10.952020305721764"><ele>248.0</ele><time>2026-03-29T13:17:59Z</time></trkpt><trkpt lat="46.04574708555493" lon="10.951996638129058"><ele>248.4</ele><time>2026-03-29T13:17:59.999Z</time></trkpt><trkpt lat="46.045656488382676" lon="10.951967972222372"><ele>248.8</ele><time>2026-03-29T13:18:00.999Z</time></trkpt><trkpt lat="46.045565178850474" lon="10.951934522006024"><ele>249.2</ele><time>2026-03-29T13:18:01.999Z</time></trkpt><trkpt lat="46.0454745083691" lon="10.951907766863627"><ele>249.6</ele><time>2026-03-29T13:18:02.999Z</time></trkpt><trkpt lat="46.045380693345685" lon="10.951881022848811"><ele>250.0</ele><time>2026-03-29T13:18:03.999Z</time></trkpt><trkpt lat="46.0452897013122" lon="10.951856428840319"><ele>249.99999999999997</ele><time>2026-03-29T13:18:04.999Z</time></trkpt><trkpt lat="46.045204705455006" lon="10.951835126149186"><ele>250.0</ele><time>2026-03-29T13:18:05.999Z</time></trkpt><trkpt lat="46.045131274777646" lon="10.951817002630689"><ele>250.0</ele><time>2026-03-29T13:18:06.999Z</time></trkpt><trkpt lat="46.04505989441535" lon="10.951795632604137"><ele>250.0</ele><time>2026-03-29T13:18:07.999Z</time></trkpt><trkpt lat="46.04498585224542" lon="10.951764622876663"><ele>249.99999999999997</ele><time>2026-03-29T13:18:08.999Z</time></trkpt><trkpt lat="46.04491539632244" lon="10.95170360466865"><ele>250.0</ele><time>2026-03-29T13:18:09.999Z</time></trkpt><trkpt lat="46.044857005912704" lon="10.951626296320281"><ele>249.83333333333331</ele><time>2026-03-29T13:18:10.999Z</time></trkpt><trkpt lat="46.04480589142746" lon="10.951566994665313"><ele>249.66666666666666</ele><time>2026-03-29T13:18:11.999Z</time></trkpt><trkpt lat="46.04473703118693" lon="10.95153660902197"><ele>249.5</ele><time>2026-03-29T13:18:12.999Z</time></trkpt><trkpt lat="46.044653936067114" lon="10.951539474009937"><ele>249.33333333333331</ele><time>2026-03-29T13:18:13.999Z</time></trkpt><trkpt lat="46.04456117311431" lon="10.951567449765276"><ele>249.16666666666666</ele><time>2026-03-29T13:18:14.999Z</time></trkpt><trkpt lat="46.04445982060389" lon="10.951596184503094"><ele>249.0</ele><time>2026-03-29T13:18:15.999Z</time></trkpt><trkpt lat="46.044344014133344" lon="10.951593348925797"><ele>249.0</ele><time>2026-03-29T13:18:16.999Z</time></trkpt><trkpt lat="46.04420832393926" lon="10.951563542555222"><ele>249.0</ele><time>2026-03-29T13:18:17.999Z</time></trkpt><trkpt lat="46.04407139968614" lon="10.951524516189385"><ele>249.0</ele><time>2026-03-29T13:18:18.999Z</time></trkpt><trkpt lat="46.04394191914683" lon="10.951486556698615"><ele>249.0</ele><time>2026-03-29T13:18:19.999Z</time></trkpt><trkpt lat="46.04382073288163" lon="10.951452978606566"><ele>249.0</ele><time>2026-03-29T13:18:20.999Z</time></trkpt><trkpt lat="46.043692809491766" lon="10.95141747944052"><ele>249.0</ele><time>2026-03-29T13:18:21.999Z</time></trkpt><trkpt lat="46.043561062393586" lon="10.9513776715469"><ele>249.0</ele><time>2026-03-29T13:18:22.999Z</time></trkpt><trkpt lat="46.04342223175731" lon="10.951342130367156"><ele>249.0</ele><time>2026-03-29T13:18:23.999Z</time></trkpt><trkpt lat="46.04327748009984" lon="10.951288777642851"><ele>248.33333333333331</ele><time>2026-03-29T13:18:24.999Z</time></trkpt><trkpt lat="46.04310312512333" lon="10.951240401982792"><ele>247.66666666666666</ele><time>2026-03-29T13:18:25.999Z</time></trkpt><trkpt lat="46.04289459858418" lon="10.9511825452541"><ele>247.0</ele><time>2026-03-29T13:18:26.999Z</time></trkpt><trkpt lat="46.04266899850197" lon="10.951141217667715"><ele>247.0</ele><time>2026-03-29T13:18:27.999Z</time></trkpt><trkpt lat="46.0424888908308" lon="10.951085110102696"><ele>247.0</ele><time>2026-03-29T13:18:28.999Z</time></trkpt><trkpt lat="46.04232427450254" lon="10.951039831381502"><ele>247.0</ele><time>2026-03-29T13:18:29.999Z</time></trkpt><trkpt lat="46.04217291504442" lon="10.95099515980791"><ele>247.33333333333331</ele><time>2026-03-29T13:18:30.999Z</time></trkpt><trkpt lat="46.04202952808589" lon="10.95094890730538"><ele>247.66666666666669</ele><time>2026-03-29T13:18:31.999Z</time></trkpt><trkpt lat="46.04188053808479" lon="10.950909373962734"><ele>248.0</ele><time>2026-03-29T13:18:32.999Z</time></trkpt><trkpt lat="46.041727951173016" lon="10.950870243848023"><ele>248.33333333333334</ele><time>2026-03-29T13:18:33.999Z</time></trkpt><trkpt lat="46.041573922528144" lon="10.950828459150188"><ele>248.66666666666669</ele><time>2026-03-29T13:18:34.999Z</time></trkpt><trkpt lat="46.041417438205315" lon="10.950783964953278"><ele>249.0</ele><time>2026-03-29T13:18:35.999Z</time></trkpt><trkpt lat="46.04126556218905" lon="10.950744291136004"><ele>249.0</ele><time>2026-03-29T13:18:36.999Z</time></trkpt><trkpt lat="46.041113555884756" lon="10.950700396158906"><ele>249.0</ele><time>2026-03-29T13:18:37.999Z</time></trkpt><trkpt lat="46.04096039562549" lon="10.950654601303794"><ele>249.0</ele><time>2026-03-29T13:18:38.999Z</time></trkpt><trkpt lat="46.04078988615211" lon="10.950617368687572"><ele>249.0</ele><time>2026-03-29T13:18:39.999Z</time></trkpt><trkpt lat="46.040574423923765" lon="10.95053131374063"><ele>249.0</ele><time>2026-03-29T13:18:40.999Z</time></trkpt><trkpt lat="46.040329731344315" lon="10.9504574177001"><ele>249.0</ele><time>2026-03-29T13:18:41.999Z</time></trkpt><trkpt lat="46.04006576678651" lon="10.950374694703063"><ele>249.0</ele><time>2026-03-29T13:18:42.999Z</time></trkpt><trkpt lat="46.0397832074775" lon="10.950270116474654"><ele>248.0</ele><time>2026-03-29T13:18:43.999Z</time></trkpt><trkpt lat="46.03948971548671" lon="10.95016463550078"><ele>247.0</ele><time>2026-03-29T13:18:44.999Z</time></trkpt><trkpt lat="46.03920092906769" lon="10.950033163456744"><ele>246.0</ele><time>2026-03-29T13:18:45.999Z</time></trkpt><trkpt lat="46.03895102643152" lon="10.94993269521388"><ele>245.0</ele><time>2026-03-29T13:18:46.999Z</time></trkpt><trkpt lat="46.03871727205408" lon="10.949835290157731"><ele>245.0</ele><time>2026-03-29T13:18:47.999Z</time></trkpt><trkpt lat="46.03846969692194" lon="10.94973636874375"><ele>245.0</ele><time>2026-03-29T13:18:48.999Z</time></trkpt><trkpt lat="46.038220853838446" lon="10.94962974231828"><ele>245.0</ele><time>2026-03-29T13:18:49.999Z</time></trkpt><trkpt lat="46.037971326821065" lon="10.949519266409164"><ele>245.0</ele><time>2026-03-29T13:18:50.999Z</time></trkpt><trkpt lat="46.037717685003294" lon="10.949415568426186"><ele>245.0</ele><time>2026-03-29T13:18:51.999Z</time></trkpt><trkpt lat="46.03748661954292" lon="10.949315691526"><ele>245.0</ele><time>2026-03-29T13:18:52.999Z</time></trkpt><trkpt lat="46.03725615824046" lon="10.949220453036569"><ele>244.0</ele><time>2026-03-29T13:18:53.999Z</time></trkpt><trkpt lat="46.03703065630055" lon="10.949128402170075"><ele>243.0</ele><time>2026-03-29T13:18:54.999Z</time></trkpt><trkpt lat="46.03680459635362" lon="10.949035997382126"><ele>243.5</ele><time>2026-03-29T13:18:55.999Z</time></trkpt><trkpt lat="46.03657477395506" lon="10.948939531274974"><ele>244.0</ele><time>2026-03-29T13:18:56.999Z</time></trkpt><trkpt lat="46.036338291528274" lon="10.948838721210128"><ele>244.0</ele><time>2026-03-29T13:18:57.999Z</time></trkpt><trkpt lat="46.03609808019311" lon="10.948738497216501"><ele>244.0</ele><time>2026-03-29T13:18:58.999Z</time></trkpt><trkpt lat="46.035876257029955" lon="10.948647352845903"><ele>243.66666666666666</ele><time>2026-03-29T13:18:59.999Z</time></trkpt><trkpt lat="46.03567173614762" lon="10.94855597181995"><ele>243.33333333333331</ele><time>2026-03-29T13:19:01Z</time></trkpt><trkpt lat="46.03547469691874" lon="10.948476269024598"><ele>243.0</ele><time>2026-03-29T13:19:02Z</time></trkpt><trkpt lat="46.035284625202074" lon="10.948402604808702"><ele>243.0</ele><time>2026-03-29T13:19:03Z</time></trkpt><trkpt lat="46.035099636925345" lon="10.948326113817958"><ele>243.0</ele><time>2026-03-29T13:19:04Z</time></trkpt><trkpt lat="46.03491389163849" lon="10.948250808902305"><ele>243.0</ele><time>2026-03-29T13:19:05Z</time></trkpt><trkpt lat="46.03472997315567" lon="10.94816514754355"><ele>244.0</ele><time>2026-03-29T13:19:06Z</time></trkpt><trkpt lat="46.034540910962775" lon="10.948087465794877"><ele>245.0</ele><time>2026-03-29T13:19:07Z</time></trkpt><trkpt lat="46.034375428829556" lon="10.9480134322861"><ele>246.0</ele><time>2026-03-29T13:19:08Z</time></trkpt><trkpt lat="46.034226812975454" lon="10.947939144426897"><ele>246.33333333333331</ele><time>2026-03-29T13:19:09Z</time></trkpt><trkpt lat="46.03409255396719" lon="10.947859469556438"><ele>246.66666666666666</ele><time>2026-03-29T13:19:10Z</time></trkpt><trkpt lat="46.03395346868661" lon="10.947764367860152"><ele>247.0</ele><time>2026-03-29T13:19:11Z</time></trkpt><trkpt lat="46.03381367196219" lon="10.947659068841755"><ele>247.0</ele><time>2026-03-29T13:19:12Z</time></trkpt><trkpt lat="46.03367381608943" lon="10.947561635248844"><ele>247.0</ele><time>2026-03-29T13:19:13Z</time></trkpt><trkpt lat="46.03354042625085" lon="10.947468740798522"><ele>247.0</ele><time>2026-03-29T13:19:14Z</time></trkpt><trkpt lat="46.03341411260938" lon="10.947379078247597"><ele>247.0</ele><time>2026-03-29T13:19:15Z</time></trkpt><trkpt lat="46.033316945563996" lon="10.947264130390144"><ele>247.0</ele><time>2026-03-29T13:19:16Z</time></trkpt><trkpt lat="46.03323995393516" lon="10.947151417619855"><ele>247.0</ele><time>2026-03-29T13:19:17Z</time></trkpt><trkpt lat="46.03317847076748" lon="10.947016942336848"><ele>247.0</ele><time>2026-03-29T13:19:18Z</time></trkpt><trkpt lat="46.0331428721055" lon="10.946880901954973"><ele>247.0</ele><time>2026-03-29T13:19:19Z</time></trkpt><trkpt lat="46.03310417580647" lon="10.946731983788258"><ele>247.0</ele><time>2026-03-29T13:19:20Z</time></trkpt><trkpt lat="46.03304642003292" lon="10.946580345447256"><ele>247.0</ele><time>2026-03-29T13:19:21Z</time></trkpt><trkpt lat="46.033014355741095" lon="10.946413734963151"><ele>247.0</ele><time>2026-03-29T13:19:22Z</time></trkpt><trkpt lat="46.03297465665433" lon="10.946273625898792"><ele>247.0</ele><time>2026-03-29T13:19:23Z</time></trkpt><trkpt lat="46.03294329497815" lon="10.946149871895722"><ele>247.0</ele><time>2026-03-29T13:19:24Z</time></trkpt><trkpt lat="46.03292237614568" lon="10.94604412305143"><ele>247.0</ele><time>2026-03-29T13:19:25Z</time></trkpt><trkpt lat="46.032715211963264" lon="10.946010076340334"><ele>247.0</ele><time>2026-03-29T13:19:27Z</time></trkpt><trkpt lat="46.032606892241255" lon="10.946043263748"><ele>247.0</ele><time>2026-03-29T13:19:28Z</time></trkpt><trkpt lat="46.03248085888287" lon="10.94609566352187"><ele>247.0</ele><time>2026-03-29T13:19:29Z</time></trkpt><trkpt lat="46.032351856077845" lon="10.946135650442805"><ele>247.0</ele><time>2026-03-29T13:19:30Z</time></trkpt><trkpt lat="46.03221478228487" lon="10.946169143458393"><ele>247.0</ele><time>2026-03-29T13:19:31Z</time></trkpt><trkpt lat="46.032074402938356" lon="10.94621203421711"><ele>247.0</ele><time>2026-03-29T13:19:32Z</time></trkpt><trkpt lat="46.03194653223796" lon="10.946247584992623"><ele>247.0</ele><time>2026-03-29T13:19:33Z</time></trkpt><trkpt lat="46.0318235249164" lon="10.946281143678213"><ele>247.0</ele><time>2026-03-29T13:19:34Z</time></trkpt><trkpt lat="46.03170351033091" lon="10.946305694940559"><ele>247.0</ele><time>2026-03-29T13:19:35Z</time></trkpt><trkpt lat="46.031581814961235" lon="10.9463173430996"><ele>247.0</ele><time>2026-03-29T13:19:36Z</time></trkpt><trkpt lat="46.031458844326295" lon="10.946316778859432"><ele>247.0</ele><time>2026-03-29T13:19:37Z</time></trkpt><trkpt lat="46.03133330033169" lon="10.946296928717732"><ele>247.0</ele><time>2026-03-29T13:19:38Z</time></trkpt><trkpt lat="46.03120536228512" lon="10.946275146881279"><ele>247.0</ele><time>2026-03-29T13:19:39Z</time></trkpt><trkpt lat="46.03107294500573" lon="10.946238294710005"><ele>247.0</ele><time>2026-03-29T13:19:40Z</time></trkpt><trkpt lat="46.03093968602713" lon="10.94619946879495"><ele>247.0</ele><time>2026-03-29T13:19:41Z</time></trkpt><trkpt lat="46.03079890294446" lon="10.946162014761272"><ele>247.0</ele><time>2026-03-29T13:19:42Z</time></trkpt><trkpt lat="46.03065637984895" lon="10.946132323722145"><ele>247.0</ele><time>2026-03-29T13:19:43Z</time></trkpt><trkpt lat="46.03051434258593" lon="10.946097095759676"><ele>247.0</ele><time>2026-03-29T13:19:44Z</time></trkpt><trkpt lat="46.03037256049098" lon="10.946063338167628"><ele>247.0</ele><time>2026-03-29T13:19:45Z</time></trkpt><trkpt lat="46.030245834354865" lon="10.946032224982563"><ele>247.0</ele><time>2026-03-29T13:19:46Z</time></trkpt><trkpt lat="46.03011972604629" lon="10.945997931066"><ele>247.0</ele><time>2026-03-29T13:19:47Z</time></trkpt><trkpt lat="46.02999798939564" lon="10.945962582777973"><ele>247.0</ele><time>2026-03-29T13:19:48Z</time></trkpt><trkpt lat="46.029888709345656" lon="10.945926952499716"><ele>247.0</ele><time>2026-03-29T13:19:49Z</time></trkpt><trkpt lat="46.02979078185147" lon="10.94589533299059"><ele>247.0</ele><time>2026-03-29T13:19:50Z</time></trkpt><trkpt lat="46.0297086054486" lon="10.945863114438144"><ele>247.0</ele><time>2026-03-29T13:19:51Z</time></trkpt><trkpt lat="46.02963527633115" lon="10.945829419432572"><ele>246.99999999999997</ele><time>2026-03-29T13:19:52Z</time></trkpt><trkpt lat="46.029562307131734" lon="10.945799498888917"><ele>247.0</ele><time>2026-03-29T13:19:53Z</time></trkpt><trkpt lat="46.02949391543975" lon="10.94574514523346"><ele>247.0</ele><time>2026-03-29T13:19:54Z</time></trkpt><trkpt lat="46.02942511258991" lon="10.94566579169114"><ele>247.0</ele><time>2026-03-29T13:19:55Z</time></trkpt><trkpt lat="46.02935516703839" lon="10.945601683730679"><ele>246.99999999999997</ele><time>2026-03-29T13:19:56Z</time></trkpt><trkpt lat="46.02926968284369" lon="10.945589064774175"><ele>247.0</ele><time>2026-03-29T13:19:57Z</time></trkpt><trkpt lat="46.02917853507737" lon="10.945632057607519"><ele>247.39999999999998</ele><time>2026-03-29T13:19:58Z</time></trkpt><trkpt lat="46.029081481953504" lon="10.945677168797708"><ele>247.79999999999998</ele><time>2026-03-29T13:19:59Z</time></trkpt><trkpt lat="46.02898175535333" lon="10.945697288831042"><ele>248.2</ele><time>2026-03-29T13:20:00Z</time></trkpt><trkpt lat="46.028867979042246" lon="10.94568563049772"><ele>248.6</ele><time>2026-03-29T13:20:01Z</time></trkpt><trkpt lat="46.02875484933286" lon="10.94566194959427"><ele>249.0</ele><time>2026-03-29T13:20:02Z</time></trkpt><trkpt lat="46.02863154838519" lon="10.945637204826586"><ele>249.0</ele><time>2026-03-29T13:20:03Z</time></trkpt><trkpt lat="46.02850556268832" lon="10.945612875680096"><ele>249.0</ele><time>2026-03-29T13:20:04Z</time></trkpt><trkpt lat="46.028371536021965" lon="10.945593977671198"><ele>249.0</ele><time>2026-03-29T13:20:05Z</time></trkpt><trkpt lat="46.02823515936164" lon="10.945575446795985"><ele>249.0</ele><time>2026-03-29T13:20:06Z</time></trkpt><trkpt lat="46.02808914596642" lon="10.945559956754042"><ele>249.5</ele><time>2026-03-29T13:20:06.999Z</time></trkpt><trkpt lat="46.02792401345148" lon="10.945532715047603"><ele>250.0</ele><time>2026-03-29T13:20:07.999Z</time></trkpt><trkpt lat="46.027772472177695" lon="10.94548787582841"><ele>250.5</ele><time>2026-03-29T13:20:08.999Z</time></trkpt><trkpt lat="46.027646979108475" lon="10.94545102632127"><ele>251.0</ele><time>2026-03-29T13:20:09.999Z</time></trkpt><trkpt lat="46.02752653439653" lon="10.945422156304614"><ele>250.75</ele><time>2026-03-29T13:20:10.999Z</time></trkpt><trkpt lat="46.02740067511123" lon="10.945383095988776"><ele>250.5</ele><time>2026-03-29T13:20:11.999Z</time></trkpt><trkpt lat="46.02726599970572" lon="10.945354309848458"><ele>250.25</ele><time>2026-03-29T13:20:12.999Z</time></trkpt><trkpt lat="46.02712418718117" lon="10.945322957794174"><ele>250.0</ele><time>2026-03-29T13:20:13.999Z</time></trkpt><trkpt lat="46.02698536163966" lon="10.945290494371068"><ele>250.0</ele><time>2026-03-29T13:20:14.999Z</time></trkpt><trkpt lat="46.02685604437537" lon="10.945259675036674"><ele>250.0</ele><time>2026-03-29T13:20:15.999Z</time></trkpt><trkpt lat="46.02673038676547" lon="10.945217497506286"><ele>250.0</ele><time>2026-03-29T13:20:16.999Z</time></trkpt><trkpt lat="46.02659582707204" lon="10.94518681187339"><ele>250.0</ele><time>2026-03-29T13:20:17.999Z</time></trkpt><trkpt lat="46.02645900377619" lon="10.945145482475699"><ele>250.0</ele><time>2026-03-29T13:20:18.999Z</time></trkpt><trkpt lat="46.02632579927671" lon="10.945118555178016"><ele>250.0</ele><time>2026-03-29T13:20:19.999Z</time></trkpt><trkpt lat="46.02618463049525" lon="10.945085064412194"><ele>250.0</ele><time>2026-03-29T13:20:20.999Z</time></trkpt><trkpt lat="46.02604843942887" lon="10.945050744378191"><ele>250.0</ele><time>2026-03-29T13:20:21.999Z</time></trkpt><trkpt lat="46.025930269591775" lon="10.9450124133434"><ele>249.8</ele><time>2026-03-29T13:20:22.999Z</time></trkpt><trkpt lat="46.02582180287124" lon="10.9449801973775"><ele>249.6</ele><time>2026-03-29T13:20:23.999Z</time></trkpt><trkpt lat="46.025712976270306" lon="10.944946320058827"><ele>249.39999999999998</ele><time>2026-03-29T13:20:24.999Z</time></trkpt><trkpt lat="46.02560740175154" lon="10.944911116839366"><ele>249.2</ele><time>2026-03-29T13:20:25.999Z</time></trkpt><trkpt lat="46.02550622722356" lon="10.944870961655646"><ele>249.0</ele><time>2026-03-29T13:20:26.999Z</time></trkpt><trkpt lat="46.0254032121866" lon="10.94483697663557"><ele>249.75</ele><time>2026-03-29T13:20:27.999Z</time></trkpt><trkpt lat="46.0252972204117" lon="10.944806911183521"><ele>250.5</ele><time>2026-03-29T13:20:28.999Z</time></trkpt><trkpt lat="46.02518817813566" lon="10.94476239139213"><ele>251.25</ele><time>2026-03-29T13:20:29.999Z</time></trkpt><trkpt lat="46.025068535093084" lon="10.94471153183963"><ele>252.0</ele><time>2026-03-29T13:20:30.999Z</time></trkpt><trkpt lat="46.024943578215044" lon="10.944659417748243"><ele>252.0</ele><time>2026-03-29T13:20:31.999Z</time></trkpt><trkpt lat="46.02481284763804" lon="10.944603912306514"><ele>252.0</ele><time>2026-03-29T13:20:32.999Z</time></trkpt><trkpt lat="46.02467890959312" lon="10.944544711676498"><ele>252.0</ele><time>2026-03-29T13:20:33.999Z</time></trkpt><trkpt lat="46.0245470562605" lon="10.944484067770805"><ele>252.0</ele><time>2026-03-29T13:20:34.999Z</time></trkpt><trkpt lat="46.02443284257963" lon="10.944429233525888"><ele>252.0</ele><time>2026-03-29T13:20:35.999Z</time></trkpt><trkpt lat="46.02431766029389" lon="10.94436967925944"><ele>252.0</ele><time>2026-03-29T13:20:36.999Z</time></trkpt><trkpt lat="46.024191468414394" lon="10.944305190380577"><ele>252.0</ele><time>2026-03-29T13:20:37.999Z</time></trkpt><trkpt lat="46.024062423752376" lon="10.944234334228668"><ele>252.0</ele><time>2026-03-29T13:20:38.999Z</time></trkpt><trkpt lat="46.02394143111049" lon="10.944163692540426"><ele>252.5</ele><time>2026-03-29T13:20:39.999Z</time></trkpt><trkpt lat="46.02382500839975" lon="10.94408869900712"><ele>253.0</ele><time>2026-03-29T13:20:40.999Z</time></trkpt><trkpt lat="46.02370224688017" lon="10.944016466036643"><ele>253.5</ele><time>2026-03-29T13:20:41.999Z</time></trkpt><trkpt lat="46.02358026344521" lon="10.943933214329792"><ele>254.0</ele><time>2026-03-29T13:20:42.999Z</time></trkpt><trkpt lat="46.023458230480124" lon="10.943845656048646"><ele>254.0</ele><time>2026-03-29T13:20:43.999Z</time></trkpt><trkpt lat="46.02333266351299" lon="10.94375479269939"><ele>254.0</ele><time>2026-03-29T13:20:44.999Z</time></trkpt><trkpt lat="46.02319704076443" lon="10.943665131262954"><ele>254.0</ele><time>2026-03-29T13:20:45.999Z</time></trkpt><trkpt lat="46.023062143680804" lon="10.94356516278023"><ele>254.0</ele><time>2026-03-29T13:20:46.999Z</time></trkpt><trkpt lat="46.02292362364369" lon="10.943464265167682"><ele>254.33333333333334</ele><time>2026-03-29T13:20:47.999Z</time></trkpt><trkpt lat="46.02277929937367" lon="10.9433697719578"><ele>254.66666666666669</ele><time>2026-03-29T13:20:48.999Z</time></trkpt><trkpt lat="46.02264212406955" lon="10.943258554503371"><ele>255.0</ele><time>2026-03-29T13:20:49.999Z</time></trkpt><trkpt lat="46.02249950631638" lon="10.943153783208357"><ele>254.75</ele><time>2026-03-29T13:20:50.999Z</time></trkpt><trkpt lat="46.02237425017637" lon="10.943067881607819"><ele>254.5</ele><time>2026-03-29T13:20:51.999Z</time></trkpt><trkpt lat="46.0222725759517" lon="10.942995102295276"><ele>254.25</ele><time>2026-03-29T13:20:52.999Z</time></trkpt><trkpt lat="46.022175587493514" lon="10.94292592931866"><ele>254.0</ele><time>2026-03-29T13:20:53.999Z</time></trkpt><trkpt lat="46.022081490455086" lon="10.94285505653846"><ele>254.0</ele><time>2026-03-29T13:20:54.999Z</time></trkpt><trkpt lat="46.02197441529145" lon="10.942781091156194"><ele>254.0</ele><time>2026-03-29T13:20:55.999Z</time></trkpt><trkpt lat="46.021851927953215" lon="10.942697261004962"><ele>254.0</ele><time>2026-03-29T13:20:56.999Z</time></trkpt><trkpt lat="46.021725907002754" lon="10.942606118286873"><ele>254.0</ele><time>2026-03-29T13:20:57.999Z</time></trkpt><trkpt lat="46.02159223962464" lon="10.94250994184994"><ele>254.33333333333334</ele><time>2026-03-29T13:20:58.999Z</time></trkpt><trkpt lat="46.02145525400042" lon="10.942412332520506"><ele>254.66666666666669</ele><time>2026-03-29T13:20:59.999Z</time></trkpt><trkpt lat="46.02131230389596" lon="10.942313665446168"><ele>255.0</ele><time>2026-03-29T13:21:00.999Z</time></trkpt><trkpt lat="46.021171181034596" lon="10.942214031734144"><ele>255.0</ele><time>2026-03-29T13:21:01.999Z</time></trkpt><trkpt lat="46.021030147614404" lon="10.942118106801566"><ele>255.0</ele><time>2026-03-29T13:21:02.999Z</time></trkpt><trkpt lat="46.02089127151807" lon="10.942015672764713"><ele>255.0</ele><time>2026-03-29T13:21:03.999Z</time></trkpt><trkpt lat="46.020751854007734" lon="10.941916746722203"><ele>256.3333333333333</ele><time>2026-03-29T13:21:04.999Z</time></trkpt><trkpt lat="46.020616661306754" lon="10.941815294667443"><ele>257.66666666666663</ele><time>2026-03-29T13:21:05.999Z</time></trkpt><trkpt lat="46.02047685454094" lon="10.941714384544067"><ele>259.0</ele><time>2026-03-29T13:21:07Z</time></trkpt><trkpt lat="46.02034153710405" lon="10.941621851106111"><ele>259.3333333333333</ele><time>2026-03-29T13:21:08Z</time></trkpt><trkpt lat="46.02020530477919" lon="10.94152567950122"><ele>259.6666666666667</ele><time>2026-03-29T13:21:09Z</time></trkpt><trkpt lat="46.02006677513967" lon="10.941435793070799"><ele>260.0</ele><time>2026-03-29T13:21:10Z</time></trkpt><trkpt lat="46.019929798890935" lon="10.94134350288009"><ele>258.25</ele><time>2026-03-29T13:21:11Z</time></trkpt><trkpt lat="46.01978760249588" lon="10.941261455347723"><ele>256.5</ele><time>2026-03-29T13:21:12Z</time></trkpt><trkpt lat="46.019640380831575" lon="10.941190797612203"><ele>254.75</ele><time>2026-03-29T13:21:13Z</time></trkpt><trkpt lat="46.01950685071981" lon="10.941140329024558"><ele>253.0</ele><time>2026-03-29T13:21:14Z</time></trkpt><trkpt lat="46.01936628836663" lon="10.941102307616317"><ele>253.0</ele><time>2026-03-29T13:21:15Z</time></trkpt><trkpt lat="46.01922454417046" lon="10.941093995508451"><ele>253.0</ele><time>2026-03-29T13:21:16Z</time></trkpt><trkpt lat="46.0190759725775" lon="10.941015394451036"><ele>253.0</ele><time>2026-03-29T13:21:17Z</time></trkpt><trkpt lat="46.018948419929735" lon="10.941188438753304"><ele>253.4</ele><time>2026-03-29T13:21:18Z</time></trkpt><trkpt lat="46.01883390539597" lon="10.941270970022558"><ele>253.8</ele><time>2026-03-29T13:21:19Z</time></trkpt><trkpt lat="46.01874021102975" lon="10.941347199738757"><ele>254.2</ele><time>2026-03-29T13:21:20Z</time></trkpt><trkpt lat="46.01867313007064" lon="10.941390156741482"><ele>254.6</ele><time>2026-03-29T13:21:21Z</time></trkpt><trkpt lat="46.01857516006235" lon="10.941386517628336"><ele>255.0</ele><time>2026-03-29T13:21:23Z</time></trkpt><trkpt lat="46.018490538121654" lon="10.94148423651307"><ele>255.0</ele><time>2026-03-29T13:21:25Z</time></trkpt><trkpt lat="46.01843184482872" lon="10.941558223163934"><ele>255.0</ele><time>2026-03-29T13:21:27Z</time></trkpt><trkpt lat="46.018390334238795" lon="10.941634225071544"><ele>255.0</ele><time>2026-03-29T13:28:46Z</time></trkpt><trkpt lat="46.01831541206615" lon="10.94172287025327"><ele>255.0</ele><time>2026-03-29T13:28:49Z</time></trkpt><trkpt lat="46.01821985462738" lon="10.941809297969966"><ele>255.0</ele><time>2026-03-29T13:28:51Z</time></trkpt><trkpt lat="46.01814287428795" lon="10.94184825661628"><ele>255.0</ele><time>2026-03-29T13:28:52Z</time></trkpt><trkpt lat="46.01806933234878" lon="10.941899759742295"><ele>253.8</ele><time>2026-03-29T13:28:53Z</time></trkpt><trkpt lat="46.01799273977574" lon="10.941935386182827"><ele>252.6</ele><time>2026-03-29T13:28:54Z</time></trkpt><trkpt lat="46.017885647463736" lon="10.94195076992505"><ele>251.39999999999998</ele><time>2026-03-29T13:28:55.999Z</time></trkpt><trkpt lat="46.017811177858" lon="10.941963070699076"><ele>250.2</ele><time>2026-03-29T13:28:57.999Z</time></trkpt><trkpt lat="46.01773173053796" lon="10.941981436954306"><ele>249.0</ele><time>2026-03-29T13:29:03.999Z</time></trkpt><trkpt lat="46.01758786926291" lon="10.941974486533136"><ele>248.5</ele><time>2026-03-29T13:29:05.999Z</time></trkpt><trkpt lat="46.01748232377347" lon="10.941959939717263"><ele>248.0</ele><time>2026-03-29T13:29:06.999Z</time></trkpt><trkpt lat="46.01737218106285" lon="10.94194331786718"><ele>247.5</ele><time>2026-03-29T13:29:07.999Z</time></trkpt><trkpt lat="46.01725368587758" lon="10.941926240612608"><ele>247.0</ele><time>2026-03-29T13:29:08.999Z</time></trkpt><trkpt lat="46.017132467529095" lon="10.941912619599478"><ele>247.0</ele><time>2026-03-29T13:29:09.999Z</time></trkpt><trkpt lat="46.0170053686737" lon="10.941898474733154"><ele>247.0</ele><time>2026-03-29T13:29:10.999Z</time></trkpt><trkpt lat="46.016876981334626" lon="10.941865237819512"><ele>247.0</ele><time>2026-03-29T13:29:11.999Z</time></trkpt><trkpt lat="46.01676924164966" lon="10.941771169067799"><ele>247.0</ele><time>2026-03-29T13:29:12.999Z</time></trkpt><trkpt lat="46.01664920862181" lon="10.941677841870128"><ele>246.66666666666666</ele><time>2026-03-29T13:29:13.999Z</time></trkpt><trkpt lat="46.016512037164006" lon="10.941572240765145"><ele>246.33333333333331</ele><time>2026-03-29T13:29:14.999Z</time></trkpt><trkpt lat="46.016367121817666" lon="10.94145164927247"><ele>246.0</ele><time>2026-03-29T13:29:15.999Z</time></trkpt><trkpt lat="46.01622205371261" lon="10.941328579713394"><ele>246.0</ele><time>2026-03-29T13:29:16.999Z</time></trkpt><trkpt lat="46.01606799376758" lon="10.941202387684722"><ele>246.0</ele><time>2026-03-29T13:29:17.999Z</time></trkpt><trkpt lat="46.01590831439721" lon="10.941071108643538"><ele>246.0</ele><time>2026-03-29T13:29:18.999Z</time></trkpt><trkpt lat="46.015744894386785" lon="10.940935329524233"><ele>245.0</ele><time>2026-03-29T13:29:19.999Z</time></trkpt><trkpt lat="46.01558153904904" lon="10.9407993397256"><ele>244.0</ele><time>2026-03-29T13:29:20.999Z</time></trkpt><trkpt lat="46.01541803870587" lon="10.94066448467932"><ele>243.0</ele><time>2026-03-29T13:29:21.999Z</time></trkpt><trkpt lat="46.01526569228928" lon="10.940518047061213"><ele>243.0</ele><time>2026-03-29T13:29:22.999Z</time></trkpt><trkpt lat="46.015123205476904" lon="10.94035648128409"><ele>243.0</ele><time>2026-03-29T13:29:23.999Z</time></trkpt><trkpt lat="46.014985451682755" lon="10.940213335005819"><ele>243.0</ele><time>2026-03-29T13:29:24.999Z</time></trkpt><trkpt lat="46.01484475449614" lon="10.940094762068801"><ele>246.0</ele><time>2026-03-29T13:29:25.999Z</time></trkpt><trkpt lat="46.0146962812692" lon="10.940010666131116"><ele>249.0</ele><time>2026-03-29T13:29:26.999Z</time></trkpt><trkpt lat="46.0145421649519" lon="10.93996018422275"><ele>252.0</ele><time>2026-03-29T13:29:27.999Z</time></trkpt><trkpt lat="46.0143861563696" lon="10.939932633783348"><ele>252.0</ele><time>2026-03-29T13:29:28.999Z</time></trkpt><trkpt lat="46.01422630840433" lon="10.939908118673374"><ele>252.0</ele><time>2026-03-29T13:29:29.999Z</time></trkpt><trkpt lat="46.01406609336206" lon="10.939829085025481"><ele>252.0</ele><time>2026-03-29T13:29:31Z</time></trkpt><trkpt lat="46.01392170867389" lon="10.939701647602675"><ele>249.66666666666669</ele><time>2026-03-29T13:29:32Z</time></trkpt><trkpt lat="46.01378215563349" lon="10.939557729704108"><ele>247.33333333333334</ele><time>2026-03-29T13:29:33Z</time></trkpt><trkpt lat="46.013635829172394" lon="10.939411695087797"><ele>245.0</ele><time>2026-03-29T13:29:34Z</time></trkpt><trkpt lat="46.01348485913271" lon="10.939268816174387"><ele>243.66666666666669</ele><time>2026-03-29T13:29:35Z</time></trkpt><trkpt lat="46.013358585561086" lon="10.93907906021496"><ele>242.33333333333331</ele><time>2026-03-29T13:29:36Z</time></trkpt><trkpt lat="46.01323709913861" lon="10.938885687758074"><ele>241.0</ele><time>2026-03-29T13:29:37Z</time></trkpt><trkpt lat="46.013118411584536" lon="10.938683028578124"><ele>241.0</ele><time>2026-03-29T13:29:38Z</time></trkpt><trkpt lat="46.01298578689906" lon="10.938493530200097"><ele>241.0</ele><time>2026-03-29T13:29:39Z</time></trkpt><trkpt lat="46.012864797523086" lon="10.938293523467271"><ele>241.0</ele><time>2026-03-29T13:29:40Z</time></trkpt><trkpt lat="46.0127363126988" lon="10.938105785391604"><ele>241.0</ele><time>2026-03-29T13:29:41Z</time></trkpt><trkpt lat="46.01258152991313" lon="10.937962590024119"><ele>241.0</ele><time>2026-03-29T13:29:42Z</time></trkpt><trkpt lat="46.0124208132869" lon="10.937825833779241"><ele>241.0</ele><time>2026-03-29T13:29:43Z</time></trkpt><trkpt lat="46.012270892833385" lon="10.93767881748004"><ele>243.0</ele><time>2026-03-29T13:29:44Z</time></trkpt><trkpt lat="46.01212541210056" lon="10.937525612971056"><ele>245.0</ele><time>2026-03-29T13:29:45Z</time></trkpt><trkpt lat="46.01198542777236" lon="10.937367990756083"><ele>247.0</ele><time>2026-03-29T13:29:46Z</time></trkpt><trkpt lat="46.01185552090308" lon="10.937198439129375"><ele>247.0</ele><time>2026-03-29T13:29:47Z</time></trkpt><trkpt lat="46.01173939963159" lon="10.937048402171554"><ele>247.0</ele><time>2026-03-29T13:29:48Z</time></trkpt><trkpt lat="46.01161994090914" lon="10.936938461006763"><ele>247.0</ele><time>2026-03-29T13:29:49Z</time></trkpt><trkpt lat="46.01147662611399" lon="10.936862165675649"><ele>246.0</ele><time>2026-03-29T13:29:50Z</time></trkpt><trkpt lat="46.01132080592582" lon="10.936828163399193"><ele>245.0</ele><time>2026-03-29T13:29:51Z</time></trkpt><trkpt lat="46.01115626522306" lon="10.936841868767054"><ele>244.0</ele><time>2026-03-29T13:29:52Z</time></trkpt><trkpt lat="46.01099476523309" lon="10.936853093545269"><ele>244.0</ele><time>2026-03-29T13:29:53Z</time></trkpt><trkpt lat="46.01085359163545" lon="10.936840344964292"><ele>244.0</ele><time>2026-03-29T13:29:54Z</time></trkpt><trkpt lat="46.0107290380845" lon="10.936806067035807"><ele>244.0</ele><time>2026-03-29T13:29:55Z</time></trkpt><trkpt lat="46.01059976905815" lon="10.936752455679688"><ele>244.0</ele><time>2026-03-29T13:29:56Z</time></trkpt><trkpt lat="46.01047302571434" lon="10.93668116988478"><ele>245.33333333333331</ele><time>2026-03-29T13:29:57Z</time></trkpt><trkpt lat="46.010343153322566" lon="10.936580829570493"><ele>246.66666666666669</ele><time>2026-03-29T13:29:58Z</time></trkpt><trkpt lat="46.01019030276217" lon="10.936490978066898"><ele>248.0</ele><time>2026-03-29T13:29:59Z</time></trkpt><trkpt lat="46.01002059327564" lon="10.936390590228303"><ele>246.66666666666669</ele><time>2026-03-29T13:30:00Z</time></trkpt><trkpt lat="46.009834143925644" lon="10.936280300126981"><ele>245.33333333333331</ele><time>2026-03-29T13:30:01Z</time></trkpt><trkpt lat="46.00960404215161" lon="10.936178247983309"><ele>244.0</ele><time>2026-03-29T13:30:02Z</time></trkpt><trkpt lat="46.00936885231515" lon="10.93601456003952"><ele>244.5</ele><time>2026-03-29T13:30:03Z</time></trkpt><trkpt lat="46.0091445003527" lon="10.935832380138182"><ele>245.0</ele><time>2026-03-29T13:30:04Z</time></trkpt><trkpt lat="46.00894788668419" lon="10.935692164421702"><ele>245.0</ele><time>2026-03-29T13:30:05Z</time></trkpt><trkpt lat="46.00874825053369" lon="10.935581700147873"><ele>245.0</ele><time>2026-03-29T13:30:06Z</time></trkpt><trkpt lat="46.008545531712365" lon="10.935479996149331"><ele>245.0</ele><time>2026-03-29T13:30:07Z</time></trkpt><trkpt lat="46.00836972634475" lon="10.935378554566332"><ele>244.0</ele><time>2026-03-29T13:30:08Z</time></trkpt><trkpt lat="46.008226580690945" lon="10.935248820563377"><ele>243.0</ele><time>2026-03-29T13:30:09Z</time></trkpt><trkpt lat="46.008109354229056" lon="10.935105323446711"><ele>242.0</ele><time>2026-03-29T13:30:10Z</time></trkpt><trkpt lat="46.007986464171864" lon="10.93498164541035"><ele>242.0</ele><time>2026-03-29T13:30:11Z</time></trkpt><trkpt lat="46.00791497626741" lon="10.934784300828998"><ele>242.0</ele><time>2026-03-29T13:30:12Z</time></trkpt><trkpt lat="46.00786626203972" lon="10.934540652216342"><ele>242.0</ele><time>2026-03-29T13:30:13Z</time></trkpt><trkpt lat="46.007830408453955" lon="10.93430051806252"><ele>243.0</ele><time>2026-03-29T13:30:14Z</time></trkpt><trkpt lat="46.0078051637663" lon="10.934048188326122"><ele>244.0</ele><time>2026-03-29T13:30:15Z</time></trkpt><trkpt lat="46.007728806888274" lon="10.933835493756627"><ele>245.0</ele><time>2026-03-29T13:30:16Z</time></trkpt><trkpt lat="46.00765620438743" lon="10.933653147719337"><ele>245.0</ele><time>2026-03-29T13:30:17Z</time></trkpt><trkpt lat="46.00754235192162" lon="10.933508293230235"><ele>245.0</ele><time>2026-03-29T13:30:18Z</time></trkpt><trkpt lat="46.00739625052444" lon="10.933425304954335"><ele>245.0</ele><time>2026-03-29T13:30:19Z</time></trkpt><trkpt lat="46.00724896690025" lon="10.933389673133545"><ele>242.66666666666669</ele><time>2026-03-29T13:30:20Z</time></trkpt><trkpt lat="46.007088749892795" lon="10.933407311317184"><ele>240.33333333333331</ele><time>2026-03-29T13:30:21Z</time></trkpt><trkpt lat="46.00692599450592" lon="10.933467253271541"><ele>238.0</ele><time>2026-03-29T13:30:22Z</time></trkpt><trkpt lat="46.00676205146017" lon="10.933545604876112"><ele>239.66666666666666</ele><time>2026-03-29T13:30:23Z</time></trkpt><trkpt lat="46.006599288803486" lon="10.933614287958472"><ele>241.33333333333331</ele><time>2026-03-29T13:30:24Z</time></trkpt><trkpt lat="46.00643210425577" lon="10.93367269895366"><ele>243.0</ele><time>2026-03-29T13:30:25Z</time></trkpt><trkpt lat="46.00626354279998" lon="10.933731255105718"><ele>243.0</ele><time>2026-03-29T13:30:26Z</time></trkpt><trkpt lat="46.00611615455565" lon="10.933783123051187"><ele>243.0</ele><time>2026-03-29T13:30:27Z</time></trkpt><trkpt lat="46.00597437508325" lon="10.933764628502637"><ele>243.0</ele><time>2026-03-29T13:30:28Z</time></trkpt><trkpt lat="46.00584220859512" lon="10.933723334961227"><ele>243.0</ele><time>2026-03-29T13:30:29Z</time></trkpt><trkpt lat="46.00569740661021" lon="10.933654696440257"><ele>243.33333333333331</ele><time>2026-03-29T13:30:30Z</time></trkpt><trkpt lat="46.00554466524552" lon="10.933569137290867"><ele>243.66666666666666</ele><time>2026-03-29T13:30:31Z</time></trkpt><trkpt lat="46.00538605224922" lon="10.933479512983721"><ele>244.0</ele><time>2026-03-29T13:30:32Z</time></trkpt><trkpt lat="46.00521807850557" lon="10.933402484617675"><ele>242.66666666666666</ele><time>2026-03-29T13:30:33Z</time></trkpt><trkpt lat="46.00505845133299" lon="10.93331043837595"><ele>241.33333333333331</ele><time>2026-03-29T13:30:34Z</time></trkpt><trkpt lat="46.004889678733676" lon="10.93322635075123"><ele>240.0</ele><time>2026-03-29T13:30:35Z</time></trkpt><trkpt lat="46.0047192688679" lon="10.933111968240345"><ele>240.0</ele><time>2026-03-29T13:30:36Z</time></trkpt><trkpt lat="46.004539807835314" lon="10.933040291552414"><ele>240.0</ele><time>2026-03-29T13:30:37Z</time></trkpt><trkpt lat="46.004375765741344" lon="10.93294925373541"><ele>240.0</ele><time>2026-03-29T13:30:38Z</time></trkpt><trkpt lat="46.00421464197647" lon="10.932859959170223"><ele>240.0</ele><time>2026-03-29T13:30:39Z</time></trkpt><trkpt lat="46.004058098945436" lon="10.932765999923497"><ele>240.0</ele><time>2026-03-29T13:30:40Z</time></trkpt><trkpt lat="46.00392210549372" lon="10.9326510392375"><ele>240.0</ele><time>2026-03-29T13:30:41Z</time></trkpt><trkpt lat="46.00379166175859" lon="10.932518284435151"><ele>240.0</ele><time>2026-03-29T13:30:42Z</time></trkpt><trkpt lat="46.003670207417265" lon="10.932359254995838"><ele>240.0</ele><time>2026-03-29T13:30:43Z</time></trkpt><trkpt lat="46.00355694112758" lon="10.932177368664565"><ele>240.0</ele><time>2026-03-29T13:30:44Z</time></trkpt><trkpt lat="46.00345466865663" lon="10.931976062935243"><ele>240.0</ele><time>2026-03-29T13:30:45Z</time></trkpt><trkpt lat="46.00336615157162" lon="10.93175693872207"><ele>240.0</ele><time>2026-03-29T13:30:46Z</time></trkpt><trkpt lat="46.0033023179041" lon="10.931520725627996"><ele>240.0</ele><time>2026-03-29T13:30:47Z</time></trkpt><trkpt lat="46.003256890117605" lon="10.93127380108036"><ele>240.0</ele><time>2026-03-29T13:30:48Z</time></trkpt><trkpt lat="46.00324070303322" lon="10.931017095599948"><ele>240.0</ele><time>2026-03-29T13:30:49Z</time></trkpt><trkpt lat="46.00324283524957" lon="10.93074844692081"><ele>240.0</ele><time>2026-03-29T13:30:50Z</time></trkpt><trkpt lat="46.00325147504567" lon="10.930476345689216"><ele>240.0</ele><time>2026-03-29T13:30:50.999Z</time></trkpt><trkpt lat="46.003260946102" lon="10.930199728118255"><ele>240.0</ele><time>2026-03-29T13:30:51.999Z</time></trkpt><trkpt lat="46.003270381360174" lon="10.929918512483301"><ele>240.0</ele><time>2026-03-29T13:30:52.999Z</time></trkpt><trkpt lat="46.0032698323466" lon="10.929637374899952"><ele>239.0</ele><time>2026-03-29T13:30:53.999Z</time></trkpt><trkpt lat="46.00324336281925" lon="10.929359176622087"><ele>238.0</ele><time>2026-03-29T13:30:54.999Z</time></trkpt><trkpt lat="46.003192809934006" lon="10.929087784135481"><ele>237.0</ele><time>2026-03-29T13:30:55.999Z</time></trkpt><trkpt lat="46.00309853018765" lon="10.92883653945088"><ele>236.0</ele><time>2026-03-29T13:30:56.999Z</time></trkpt><trkpt lat="46.00299771372639" lon="10.928576899719912"><ele>235.0</ele><time>2026-03-29T13:30:57.999Z</time></trkpt><trkpt lat="46.00290722654983" lon="10.928310329832431"><ele>234.0</ele><time>2026-03-29T13:30:58.999Z</time></trkpt><trkpt lat="46.002814447562805" lon="10.928043234588877"><ele>233.66666666666669</ele><time>2026-03-29T13:30:59.999Z</time></trkpt><trkpt lat="46.00272125685201" lon="10.92778500237977"><ele>233.33333333333334</ele><time>2026-03-29T13:31:00.999Z</time></trkpt><trkpt lat="46.00262317493476" lon="10.927535836389572"><ele>233.0</ele><time>2026-03-29T13:31:01.999Z</time></trkpt><trkpt lat="46.002520206972655" lon="10.927295016195245"><ele>231.66666666666669</ele><time>2026-03-29T13:31:02.999Z</time></trkpt><trkpt lat="46.00241762333348" lon="10.927057623195989"><ele>230.33333333333331</ele><time>2026-03-29T13:31:03.999Z</time></trkpt><trkpt lat="46.002322926922645" lon="10.926815850288598"><ele>229.0</ele><time>2026-03-29T13:31:04.999Z</time></trkpt><trkpt lat="46.002222809155775" lon="10.926575537854744"><ele>228.0</ele><time>2026-03-29T13:31:05.999Z</time></trkpt><trkpt lat="46.00213036113604" lon="10.926339907873064"><ele>227.0</ele><time>2026-03-29T13:31:06.999Z</time></trkpt><trkpt lat="46.00202925280661" lon="10.926116446970202"><ele>226.0</ele><time>2026-03-29T13:31:07.999Z</time></trkpt><trkpt lat="46.001906253276" lon="10.925918950870072"><ele>225.66666666666666</ele><time>2026-03-29T13:31:08.999Z</time></trkpt><trkpt lat="46.00175478807642" lon="10.925754292430806"><ele>225.33333333333331</ele><time>2026-03-29T13:31:09.999Z</time></trkpt><trkpt lat="46.00159226995332" lon="10.925608239078214"><ele>225.0</ele><time>2026-03-29T13:31:10.999Z</time></trkpt><trkpt lat="46.001432020613734" lon="10.925461060112484"><ele>225.0</ele><time>2026-03-29T13:31:11.999Z</time></trkpt><trkpt lat="46.00127067858347" lon="10.925321791262803"><ele>225.0</ele><time>2026-03-29T13:31:12.999Z</time></trkpt><trkpt lat="46.00110106502573" lon="10.925209850852593"><ele>225.0</ele><time>2026-03-29T13:31:13.999Z</time></trkpt><trkpt lat="46.00091669750888" lon="10.925157150590788"><ele>225.0</ele><time>2026-03-29T13:31:14.999Z</time></trkpt><trkpt lat="46.000726971222235" lon="10.92515142406881"><ele>225.0</ele><time>2026-03-29T13:31:15.999Z</time></trkpt><trkpt lat="46.00052955388241" lon="10.925188268853132"><ele>225.0</ele><time>2026-03-29T13:31:16.999Z</time></trkpt><trkpt lat="46.00033047245663" lon="10.925228149867438"><ele>225.0</ele><time>2026-03-29T13:31:17.999Z</time></trkpt><trkpt lat="46.000130693709096" lon="10.925256942971387"><ele>225.0</ele><time>2026-03-29T13:31:18.999Z</time></trkpt><trkpt lat="45.99993099854551" lon="10.92527653856555"><ele>225.0</ele><time>2026-03-29T13:31:19.999Z</time></trkpt><trkpt lat="45.999732557782224" lon="10.925293979250217"><ele>225.0</ele><time>2026-03-29T13:31:20.999Z</time></trkpt><trkpt lat="45.99954764859255" lon="10.925308700635574"><ele>225.0</ele><time>2026-03-29T13:31:21.999Z</time></trkpt><trkpt lat="45.99937308143156" lon="10.925321334650317"><ele>225.0</ele><time>2026-03-29T13:31:22.999Z</time></trkpt><trkpt lat="45.999200451582034" lon="10.925340856549669"><ele>224.33333333333331</ele><time>2026-03-29T13:31:23.999Z</time></trkpt><trkpt lat="45.999024514258316" lon="10.925362435470909"><ele>223.66666666666666</ele><time>2026-03-29T13:31:24.999Z</time></trkpt><trkpt lat="45.99884935817349" lon="10.925383914468128"><ele>223.0</ele><time>2026-03-29T13:31:25.999Z</time></trkpt><trkpt lat="45.998667526637504" lon="10.925400238805166"><ele>223.0</ele><time>2026-03-29T13:31:26.999Z</time></trkpt><trkpt lat="45.99848609297721" lon="10.925416669697812"><ele>223.0</ele><time>2026-03-29T13:31:27.999Z</time></trkpt><trkpt lat="45.99832506656492" lon="10.92542571479615"><ele>223.0</ele><time>2026-03-29T13:31:28.999Z</time></trkpt><trkpt lat="45.99817793123698" lon="10.925437062839823"><ele>222.5</ele><time>2026-03-29T13:31:29.999Z</time></trkpt><trkpt lat="45.99803143002639" lon="10.925430292508661"><ele>222.0</ele><time>2026-03-29T13:31:30.999Z</time></trkpt><trkpt lat="45.99788958637818" lon="10.925478825324673"><ele>221.5</ele><time>2026-03-29T13:31:31.999Z</time></trkpt><trkpt lat="45.99775226588116" lon="10.925531745869174"><ele>221.0</ele><time>2026-03-29T13:31:32.999Z</time></trkpt><trkpt lat="45.997618330792925" lon="10.925624026699605"><ele>221.0</ele><time>2026-03-29T13:31:33.999Z</time></trkpt><trkpt lat="45.99750420662999" lon="10.925751984502908"><ele>221.0</ele><time>2026-03-29T13:31:34.999Z</time></trkpt><trkpt lat="45.997382210932976" lon="10.925909042967755"><ele>221.0</ele><time>2026-03-29T13:31:35.999Z</time></trkpt><trkpt lat="45.99726169500901" lon="10.926052304012144"><ele>221.25</ele><time>2026-03-29T13:31:37Z</time></trkpt><trkpt lat="45.997160460171045" lon="10.926169135838702"><ele>221.5</ele><time>2026-03-29T13:31:38Z</time></trkpt><trkpt lat="45.99703258432026" lon="10.92625506513316"><ele>221.75</ele><time>2026-03-29T13:31:39Z</time></trkpt><trkpt lat="45.99690542882361" lon="10.926328668026505"><ele>222.0</ele><time>2026-03-29T13:31:40Z</time></trkpt><trkpt lat="45.99677272956097" lon="10.92637884093611"><ele>221.66666666666669</ele><time>2026-03-29T13:31:41Z</time></trkpt><trkpt lat="45.996633202268406" lon="10.926411087669905"><ele>221.33333333333334</ele><time>2026-03-29T13:31:42Z</time></trkpt><trkpt lat="45.99647823639755" lon="10.92643896419064"><ele>221.0</ele><time>2026-03-29T13:31:43Z</time></trkpt><trkpt lat="45.99631172334557" lon="10.926468288667323"><ele>221.0</ele><time>2026-03-29T13:31:44Z</time></trkpt><trkpt lat="45.99613891535268" lon="10.92649872180963"><ele>221.0</ele><time>2026-03-29T13:31:45Z</time></trkpt><trkpt lat="45.995938367553414" lon="10.926534040223277"><ele>221.0</ele><time>2026-03-29T13:31:46Z</time></trkpt><trkpt lat="45.995716396203385" lon="10.926566012138471"><ele>221.5</ele><time>2026-03-29T13:31:47Z</time></trkpt><trkpt lat="45.995468256175045" lon="10.926591492043583"><ele>222.0</ele><time>2026-03-29T13:31:48Z</time></trkpt><trkpt lat="45.995198854714914" lon="10.926602303336566"><ele>221.0</ele><time>2026-03-29T13:31:49Z</time></trkpt><trkpt lat="45.994963717623236" lon="10.926603019792624"><ele>220.0</ele><time>2026-03-29T13:31:50Z</time></trkpt><trkpt lat="45.994753309992596" lon="10.926603019789756"><ele>219.0</ele><time>2026-03-29T13:31:51Z</time></trkpt><trkpt lat="45.994557821492336" lon="10.926602556908009"><ele>219.0</ele><time>2026-03-29T13:31:52Z</time></trkpt><trkpt lat="45.9943666085665" lon="10.926601195649786"><ele>219.0</ele><time>2026-03-29T13:31:53Z</time></trkpt><trkpt lat="45.994174405628904" lon="10.926599827346674"><ele>219.0</ele><time>2026-03-29T13:31:54Z</time></trkpt><trkpt lat="45.99398497091004" lon="10.926619453630549"><ele>218.33333333333331</ele><time>2026-03-29T13:31:55Z</time></trkpt><trkpt lat="45.99379587683931" lon="10.926597132576097"><ele>217.66666666666666</ele><time>2026-03-29T13:31:56Z</time></trkpt><trkpt lat="45.99361250974813" lon="10.926618840244275"><ele>217.0</ele><time>2026-03-29T13:31:57Z</time></trkpt><trkpt lat="45.99342965979264" lon="10.9266120224148"><ele>217.0</ele><time>2026-03-29T13:31:58Z</time></trkpt><trkpt lat="45.99324154236577" lon="10.92660624483618"><ele>217.0</ele><time>2026-03-29T13:31:59Z</time></trkpt><trkpt lat="45.99305245418065" lon="10.92660578331792"><ele>217.0</ele><time>2026-03-29T13:32:00Z</time></trkpt><trkpt lat="45.99286792085254" lon="10.926599864875847"><ele>217.0</ele><time>2026-03-29T13:32:01Z</time></trkpt><trkpt lat="45.992674636301565" lon="10.926600504189144"><ele>217.0</ele><time>2026-03-29T13:32:02Z</time></trkpt><trkpt lat="45.9924857763263" lon="10.926599221618332"><ele>217.0</ele><time>2026-03-29T13:32:03Z</time></trkpt><trkpt lat="45.99229697200888" lon="10.926601597615804"><ele>217.0</ele><time>2026-03-29T13:32:04Z</time></trkpt><trkpt lat="45.99211078854334" lon="10.926603277585658"><ele>217.0</ele><time>2026-03-29T13:32:05Z</time></trkpt><trkpt lat="45.99192189438625" lon="10.926600699490749"><ele>217.0</ele><time>2026-03-29T13:32:06Z</time></trkpt><trkpt lat="45.991745818399735" lon="10.926572066080954"><ele>216.0</ele><time>2026-03-29T13:32:07Z</time></trkpt><trkpt lat="45.99158074123984" lon="10.926553963340718"><ele>215.0</ele><time>2026-03-29T13:32:08Z</time></trkpt><trkpt lat="45.991418247013975" lon="10.926510292294962"><ele>214.0</ele><time>2026-03-29T13:32:09Z</time></trkpt><trkpt lat="45.99125799020344" lon="10.926436917690987"><ele>214.0</ele><time>2026-03-29T13:32:10Z</time></trkpt><trkpt lat="45.99109885448439" lon="10.926336712557665"><ele>214.0</ele><time>2026-03-29T13:32:11Z</time></trkpt><trkpt lat="45.990942850951555" lon="10.926235232092449"><ele>214.0</ele><time>2026-03-29T13:32:12Z</time></trkpt><trkpt lat="45.9907859998286" lon="10.92613359346276"><ele>212.0</ele><time>2026-03-29T13:32:13Z</time></trkpt><trkpt lat="45.990623156720716" lon="10.926032444174833"><ele>210.0</ele><time>2026-03-29T13:32:14Z</time></trkpt><trkpt lat="45.9904554765196" lon="10.925951454202185"><ele>208.0</ele><time>2026-03-29T13:32:15Z</time></trkpt><trkpt lat="45.990302777229154" lon="10.925930386317916"><ele>208.0</ele><time>2026-03-29T13:32:16Z</time></trkpt><trkpt lat="45.99014921148029" lon="10.92593169522929"><ele>208.0</ele><time>2026-03-29T13:32:17Z</time></trkpt><trkpt lat="45.98999519312573" lon="10.925991087490912"><ele>208.0</ele><time>2026-03-29T13:32:18Z</time></trkpt><trkpt lat="45.98984029118913" lon="10.926109508868315"><ele>205.66666666666666</ele><time>2026-03-29T13:32:19Z</time></trkpt><trkpt lat="45.989703679321686" lon="10.926278280132374"><ele>203.33333333333331</ele><time>2026-03-29T13:32:20Z</time></trkpt><trkpt lat="45.989551754171266" lon="10.926434094201596"><ele>201.0</ele><time>2026-03-29T13:32:21Z</time></trkpt><trkpt lat="45.9893980253063" lon="10.92656744923178"><ele>201.0</ele><time>2026-03-29T13:32:22Z</time></trkpt><trkpt lat="45.98924547960262" lon="10.926655021556412"><ele>201.0</ele><time>2026-03-29T13:32:23Z</time></trkpt><trkpt lat="45.98908792088406" lon="10.926730147157047"><ele>201.0</ele><time>2026-03-29T13:32:24Z</time></trkpt><trkpt lat="45.98891749029858" lon="10.9267901868874"><ele>197.33333333333334</ele><time>2026-03-29T13:32:25Z</time></trkpt><trkpt lat="45.98873912560505" lon="10.926830737472537"><ele>193.66666666666669</ele><time>2026-03-29T13:32:26Z</time></trkpt><trkpt lat="45.98855072056075" lon="10.92684583291831"><ele>190.0</ele><time>2026-03-29T13:32:27Z</time></trkpt><trkpt lat="45.98836591868001" lon="10.926856679807926"><ele>190.33333333333334</ele><time>2026-03-29T13:32:28Z</time></trkpt><trkpt lat="45.98817364666236" lon="10.92686745631717"><ele>190.66666666666666</ele><time>2026-03-29T13:32:29Z</time></trkpt><trkpt lat="45.98797695782413" lon="10.926876104800495"><ele>191.0</ele><time>2026-03-29T13:32:30Z</time></trkpt><trkpt lat="45.987780491410014" lon="10.926884743521349"><ele>191.0</ele><time>2026-03-29T13:32:31Z</time></trkpt><trkpt lat="45.987585664644314" lon="10.926911700601043"><ele>191.0</ele><time>2026-03-29T13:32:32Z</time></trkpt><trkpt lat="45.98739319907468" lon="10.926915194554907"><ele>191.0</ele><time>2026-03-29T13:32:33Z</time></trkpt><trkpt lat="45.98720288288937" lon="10.926917738906516"><ele>189.66666666666666</ele><time>2026-03-29T13:32:34Z</time></trkpt><trkpt lat="45.9870109387809" lon="10.926916520727136"><ele>188.33333333333334</ele><time>2026-03-29T13:32:35Z</time></trkpt><trkpt lat="45.986819790348456" lon="10.926921747452129"><ele>187.0</ele><time>2026-03-29T13:32:36Z</time></trkpt><trkpt lat="45.98663033845176" lon="10.926919804013464"><ele>187.0</ele><time>2026-03-29T13:32:37Z</time></trkpt><trkpt lat="45.986441141167234" lon="10.92692306085996"><ele>187.0</ele><time>2026-03-29T13:32:38Z</time></trkpt><trkpt lat="45.9862538856231" lon="10.926926451027365"><ele>187.0</ele><time>2026-03-29T13:32:39Z</time></trkpt><trkpt lat="45.986060177289794" lon="10.926925594051161"><ele>187.0</ele><time>2026-03-29T13:32:40Z</time></trkpt><trkpt lat="45.98587428256146" lon="10.92692656205719"><ele>187.0</ele><time>2026-03-29T13:32:41Z</time></trkpt><trkpt lat="45.98570176147373" lon="10.926927202231598"><ele>187.0</ele><time>2026-03-29T13:32:42Z</time></trkpt><trkpt lat="45.985545745014775" lon="10.926886031620189"><ele>184.66666666666669</ele><time>2026-03-29T13:32:43Z</time></trkpt><trkpt lat="45.985391326697275" lon="10.92682103332217"><ele>182.33333333333334</ele><time>2026-03-29T13:32:44Z</time></trkpt><trkpt lat="45.98523517105979" lon="10.926725729657848"><ele>180.0</ele><time>2026-03-29T13:32:45Z</time></trkpt><trkpt lat="45.98506397306412" lon="10.926618809681777"><ele>180.66666666666666</ele><time>2026-03-29T13:32:46Z</time></trkpt><trkpt lat="45.984890693030984" lon="10.926510589151956"><ele>181.33333333333331</ele><time>2026-03-29T13:32:46.999Z</time></trkpt><trkpt lat="45.98471851273601" lon="10.926403274885512"><ele>182.0</ele><time>2026-03-29T13:32:47.999Z</time></trkpt><trkpt lat="45.9845433009936" lon="10.926319022046982"><ele>182.0</ele><time>2026-03-29T13:32:48.999Z</time></trkpt><trkpt lat="45.98437785108231" lon="10.926210931465462"><ele>182.0</ele><time>2026-03-29T13:32:49.999Z</time></trkpt><trkpt lat="45.98420754068745" lon="10.926110063601438"><ele>182.0</ele><time>2026-03-29T13:32:50.999Z</time></trkpt><trkpt lat="45.98404261680285" lon="10.925982310371902"><ele>180.66666666666666</ele><time>2026-03-29T13:32:51.999Z</time></trkpt><trkpt lat="45.983865819624484" lon="10.925891938453697"><ele>179.33333333333334</ele><time>2026-03-29T13:32:52.999Z</time></trkpt><trkpt lat="45.983699258609036" lon="10.925780819792902"><ele>178.0</ele><time>2026-03-29T13:32:53.999Z</time></trkpt><trkpt lat="45.98353245053207" lon="10.925678056794256"><ele>178.0</ele><time>2026-03-29T13:32:54.999Z</time></trkpt><trkpt lat="45.98336567096242" lon="10.925572474373809"><ele>178.0</ele><time>2026-03-29T13:32:55.999Z</time></trkpt><trkpt lat="45.98319438551618" lon="10.925470079068162"><ele>178.0</ele><time>2026-03-29T13:32:56.999Z</time></trkpt><trkpt lat="45.98302248100608" lon="10.9253611875165"><ele>177.66666666666669</ele><time>2026-03-29T13:32:57.999Z</time></trkpt><trkpt lat="45.98284897944775" lon="10.925251605883991"><ele>177.33333333333334</ele><time>2026-03-29T13:32:58.999Z</time></trkpt><trkpt lat="45.98267707165006" lon="10.925140836124143"><ele>177.0</ele><time>2026-03-29T13:32:59.999Z</time></trkpt><trkpt lat="45.98250286485104" lon="10.925026953045883"><ele>176.33333333333334</ele><time>2026-03-29T13:33:00.999Z</time></trkpt><trkpt lat="45.98232734421866" lon="10.924922979336259"><ele>175.66666666666669</ele><time>2026-03-29T13:33:01.999Z</time></trkpt><trkpt lat="45.982149661871134" lon="10.92481593666619"><ele>175.0</ele><time>2026-03-29T13:33:02.999Z</time></trkpt><trkpt lat="45.98197012809749" lon="10.92470624641832"><ele>175.0</ele><time>2026-03-29T13:33:03.999Z</time></trkpt><trkpt lat="45.98179362798619" lon="10.924591792554791"><ele>175.0</ele><time>2026-03-29T13:33:04.999Z</time></trkpt><trkpt lat="45.98161687030141" lon="10.92448174809371"><ele>175.0</ele><time>2026-03-29T13:33:05.999Z</time></trkpt><trkpt lat="45.98143998770006" lon="10.924370213505734"><ele>174.33333333333334</ele><time>2026-03-29T13:33:06.999Z</time></trkpt><trkpt lat="45.981258318786125" lon="10.924259056982347"><ele>173.66666666666666</ele><time>2026-03-29T13:33:07.999Z</time></trkpt><trkpt lat="45.981077333500146" lon="10.924147046058955"><ele>173.0</ele><time>2026-03-29T13:33:08.999Z</time></trkpt><trkpt lat="45.98089482141177" lon="10.924034784890436"><ele>171.0</ele><time>2026-03-29T13:33:09.999Z</time></trkpt><trkpt lat="45.980714548265766" lon="10.923923063257309"><ele>169.0</ele><time>2026-03-29T13:33:10.999Z</time></trkpt><trkpt lat="45.98053360679825" lon="10.92380830539505"><ele>167.0</ele><time>2026-03-29T13:33:11.999Z</time></trkpt><trkpt lat="45.9803497656482" lon="10.923713750836912"><ele>167.0</ele><time>2026-03-29T13:33:12.999Z</time></trkpt><trkpt lat="45.980167211153514" lon="10.923626092864188"><ele>167.0</ele><time>2026-03-29T13:33:13.999Z</time></trkpt><trkpt lat="45.97998818782883" lon="10.923544134608065"><ele>167.0</ele><time>2026-03-29T13:33:14.999Z</time></trkpt><trkpt lat="45.979803203455354" lon="10.923464783039204"><ele>170.66666666666666</ele><time>2026-03-29T13:33:15.999Z</time></trkpt><trkpt lat="45.979616820471755" lon="10.923388873791275"><ele>174.33333333333334</ele><time>2026-03-29T13:33:16.999Z</time></trkpt><trkpt lat="45.979426654930904" lon="10.923313500247774"><ele>178.0</ele><time>2026-03-29T13:33:17.999Z</time></trkpt><trkpt lat="45.97923444798718" lon="10.923257103455665"><ele>176.66666666666669</ele><time>2026-03-29T13:33:18.999Z</time></trkpt><trkpt lat="45.9790358292479" lon="10.923244202733908"><ele>175.33333333333334</ele><time>2026-03-29T13:33:19.999Z</time></trkpt><trkpt lat="45.978839353603874" lon="10.923259502889238"><ele>174.0</ele><time>2026-03-29T13:33:20.999Z</time></trkpt><trkpt lat="45.978647817910314" lon="10.923296583963468"><ele>174.0</ele><time>2026-03-29T13:33:21.999Z</time></trkpt><trkpt lat="45.97846409860145" lon="10.92336823443112"><ele>174.0</ele><time>2026-03-29T13:33:22.999Z</time></trkpt><trkpt lat="45.9782858957874" lon="10.923476692544117"><ele>174.0</ele><time>2026-03-29T13:33:23.999Z</time></trkpt><trkpt lat="45.97812295635953" lon="10.923623830566044"><ele>168.33333333333334</ele><time>2026-03-29T13:33:24.999Z</time></trkpt><trkpt lat="45.977978055087725" lon="10.923802925736343"><ele>162.66666666666669</ele><time>2026-03-29T13:33:25.999Z</time></trkpt><trkpt lat="45.977849037568504" lon="10.924005158602789"><ele>157.0</ele><time>2026-03-29T13:33:26.999Z</time></trkpt><trkpt lat="45.97772308916647" lon="10.924228351125224"><ele>158.0</ele><time>2026-03-29T13:33:27.999Z</time></trkpt><trkpt lat="45.977589084701805" lon="10.924458711298671"><ele>159.0</ele><time>2026-03-29T13:33:28.999Z</time></trkpt><trkpt lat="45.977439795665035" lon="10.924663253556348"><ele>160.0</ele><time>2026-03-29T13:33:29.999Z</time></trkpt><trkpt lat="45.977305203111854" lon="10.92484738469471"><ele>160.0</ele><time>2026-03-29T13:33:30.999Z</time></trkpt><trkpt lat="45.977165946727965" lon="10.924977472855545"><ele>160.0</ele><time>2026-03-29T13:33:31.999Z</time></trkpt><trkpt lat="45.977012995601505" lon="10.925075950912612"><ele>160.0</ele><time>2026-03-29T13:33:32.999Z</time></trkpt><trkpt lat="45.976839629321894" lon="10.925188887769359"><ele>157.66666666666669</ele><time>2026-03-29T13:33:33.999Z</time></trkpt><trkpt lat="45.976665897977654" lon="10.92530206240559"><ele>155.33333333333334</ele><time>2026-03-29T13:33:34.999Z</time></trkpt><trkpt lat="45.97648252337936" lon="10.925408830799157"><ele>153.0</ele><time>2026-03-29T13:33:35.999Z</time></trkpt><trkpt lat="45.97630314902402" lon="10.92548372520026"><ele>153.0</ele><time>2026-03-29T13:33:36.999Z</time></trkpt><trkpt lat="45.976137026354046" lon="10.925509830687686"><ele>153.0</ele><time>2026-03-29T13:33:37.999Z</time></trkpt><trkpt lat="45.975958377702895" lon="10.925501129592448"><ele>153.0</ele><time>2026-03-29T13:33:38.999Z</time></trkpt><trkpt lat="45.97577613739936" lon="10.925452163788057"><ele>152.0</ele><time>2026-03-29T13:33:39.999Z</time></trkpt><trkpt lat="45.975585204993905" lon="10.925382743815135"><ele>151.0</ele><time>2026-03-29T13:33:40.999Z</time></trkpt><trkpt lat="45.97538068566758" lon="10.925308837429945"><ele>150.0</ele><time>2026-03-29T13:33:41.999Z</time></trkpt><trkpt lat="45.97516455746349" lon="10.92523076033808"><ele>150.0</ele><time>2026-03-29T13:33:43Z</time></trkpt><trkpt lat="45.97493832824261" lon="10.925149857579157"><ele>150.0</ele><time>2026-03-29T13:33:44Z</time></trkpt><trkpt lat="45.97471640122524" lon="10.925070493339978"><ele>150.5</ele><time>2026-03-29T13:33:45Z</time></trkpt><trkpt lat="45.97448852486238" lon="10.92498900151829"><ele>151.0</ele><time>2026-03-29T13:33:46Z</time></trkpt><trkpt lat="45.974254730470896" lon="10.92492627986753"><ele>150.0</ele><time>2026-03-29T13:33:47Z</time></trkpt><trkpt lat="45.974031995429876" lon="10.924843376301773"><ele>149.0</ele><time>2026-03-29T13:33:48Z</time></trkpt><trkpt lat="45.97380791544443" lon="10.924761154138762"><ele>149.0</ele><time>2026-03-29T13:33:49Z</time></trkpt><trkpt lat="45.9735859542114" lon="10.924676395975476"><ele>149.0</ele><time>2026-03-29T13:33:50Z</time></trkpt><trkpt lat="45.97336207543862" lon="10.92459589247657"><ele>146.5</ele><time>2026-03-29T13:33:51Z</time></trkpt><trkpt lat="45.97314251084591" lon="10.924515766830144"><ele>144.0</ele><time>2026-03-29T13:33:52Z</time></trkpt><trkpt lat="45.97292098700938" lon="10.924437231100224"><ele>144.0</ele><time>2026-03-29T13:33:53Z</time></trkpt><trkpt lat="45.972701184770465" lon="10.92435906920529"><ele>144.0</ele><time>2026-03-29T13:33:54Z</time></trkpt><trkpt lat="45.97247974099441" lon="10.92428272666662"><ele>143.33333333333334</ele><time>2026-03-29T13:33:55Z</time></trkpt><trkpt lat="45.97226152869646" lon="10.924201778358793"><ele>142.66666666666669</ele><time>2026-03-29T13:33:56Z</time></trkpt><trkpt lat="45.97204827572491" lon="10.924120660916945"><ele>142.0</ele><time>2026-03-29T13:33:57Z</time></trkpt><trkpt lat="45.97183689448315" lon="10.924040792665696"><ele>142.0</ele><time>2026-03-29T13:33:58Z</time></trkpt><trkpt lat="45.971626069102854" lon="10.923963185518001"><ele>142.0</ele><time>2026-03-29T13:33:59Z</time></trkpt><trkpt lat="45.971414371194" lon="10.923887643478677"><ele>142.0</ele><time>2026-03-29T13:34:00Z</time></trkpt><trkpt lat="45.971201341323805" lon="10.923813078929836"><ele>142.0</ele><time>2026-03-29T13:34:01Z</time></trkpt><trkpt lat="45.97098991087153" lon="10.92373549833614"><ele>142.0</ele><time>2026-03-29T13:34:02Z</time></trkpt><trkpt lat="45.97078378290564" lon="10.923655876119115"><ele>142.0</ele><time>2026-03-29T13:34:03Z</time></trkpt><trkpt lat="45.97057275826961" lon="10.923580381940114"><ele>141.0</ele><time>2026-03-29T13:34:04Z</time></trkpt><trkpt lat="45.97036896223322" lon="10.923506578306803"><ele>140.0</ele><time>2026-03-29T13:34:05Z</time></trkpt><trkpt lat="45.97016541326887" lon="10.923430322073886"><ele>139.0</ele><time>2026-03-29T13:34:06Z</time></trkpt><trkpt lat="45.96996488259396" lon="10.923358117688938"><ele>138.66666666666669</ele><time>2026-03-29T13:34:07Z</time></trkpt><trkpt lat="45.96976680775814" lon="10.923286689408858"><ele>138.33333333333334</ele><time>2026-03-29T13:34:08Z</time></trkpt><trkpt lat="45.96956190933788" lon="10.923219521182938"><ele>138.0</ele><time>2026-03-29T13:34:09Z</time></trkpt><trkpt lat="45.969355871060166" lon="10.923147435004813"><ele>136.33333333333334</ele><time>2026-03-29T13:34:10Z</time></trkpt><trkpt lat="45.96915362536804" lon="10.92307457968688"><ele>134.66666666666669</ele><time>2026-03-29T13:34:11Z</time></trkpt><trkpt lat="45.96894977534788" lon="10.923002474796998"><ele>133.0</ele><time>2026-03-29T13:34:12Z</time></trkpt><trkpt lat="45.96875105852278" lon="10.922928251195705"><ele>133.0</ele><time>2026-03-29T13:34:13Z</time></trkpt><trkpt lat="45.968559348795125" lon="10.922857707822226"><ele>133.0</ele><time>2026-03-29T13:34:14Z</time></trkpt><trkpt lat="45.968366722574174" lon="10.922789392348472"><ele>133.0</ele><time>2026-03-29T13:34:15Z</time></trkpt><trkpt lat="45.968173308948394" lon="10.92272178701518"><ele>131.66666666666669</ele><time>2026-03-29T13:34:16Z</time></trkpt><trkpt lat="45.9679820000446" lon="10.922649787418576"><ele>130.33333333333334</ele><time>2026-03-29T13:34:17Z</time></trkpt><trkpt lat="45.967791383082286" lon="10.922577719220888"><ele>129.0</ele><time>2026-03-29T13:34:18Z</time></trkpt><trkpt lat="45.96759965788927" lon="10.922502000588432"><ele>130.33333333333334</ele><time>2026-03-29T13:34:19Z</time></trkpt><trkpt lat="45.96741010014416" lon="10.922434953957193"><ele>131.66666666666669</ele><time>2026-03-29T13:34:20Z</time></trkpt><trkpt lat="45.96722312109691" lon="10.92236657935967"><ele>133.0</ele><time>2026-03-29T13:34:21Z</time></trkpt><trkpt lat="45.96703788962636" lon="10.92229959795364"><ele>133.0</ele><time>2026-03-29T13:34:22Z</time></trkpt><trkpt lat="45.96685044552209" lon="10.922232729942287"><ele>133.0</ele><time>2026-03-29T13:34:23Z</time></trkpt><trkpt lat="45.96666368556377" lon="10.92216174669535"><ele>133.0</ele><time>2026-03-29T13:34:24Z</time></trkpt><trkpt lat="45.96648082794829" lon="10.922088793667541"><ele>133.0</ele><time>2026-03-29T13:34:25Z</time></trkpt><trkpt lat="45.96630086490661" lon="10.921994887887621"><ele>133.0</ele><time>2026-03-29T13:34:26Z</time></trkpt><trkpt lat="45.96612645782595" lon="10.921882667791781"><ele>133.0</ele><time>2026-03-29T13:34:27Z</time></trkpt><trkpt lat="45.96595293671767" lon="10.921756283239285"><ele>133.0</ele><time>2026-03-29T13:34:28Z</time></trkpt><trkpt lat="45.965780450779725" lon="10.921628923046523"><ele>133.0</ele><time>2026-03-29T13:34:29Z</time></trkpt><trkpt lat="45.965608916018994" lon="10.921493446734143"><ele>133.0</ele><time>2026-03-29T13:34:30Z</time></trkpt><trkpt lat="45.965436675702" lon="10.921343636766785"><ele>133.0</ele><time>2026-03-29T13:34:31Z</time></trkpt><trkpt lat="45.9652712082299" lon="10.921183482037993"><ele>133.0</ele><time>2026-03-29T13:34:32Z</time></trkpt><trkpt lat="45.96511413812684" lon="10.921009873475152"><ele>133.0</ele><time>2026-03-29T13:34:33Z</time></trkpt><trkpt lat="45.96495952274583" lon="10.92082740672908"><ele>131.33333333333334</ele><time>2026-03-29T13:34:34Z</time></trkpt><trkpt lat="45.964807425175785" lon="10.920636376432432"><ele>129.66666666666666</ele><time>2026-03-29T13:34:35Z</time></trkpt><trkpt lat="45.96466505288693" lon="10.920434728755119"><ele>128.0</ele><time>2026-03-29T13:34:36Z</time></trkpt><trkpt lat="45.96452574263793" lon="10.920227023961653"><ele>128.0</ele><time>2026-03-29T13:34:37Z</time></trkpt><trkpt lat="45.964387473677824" lon="10.920022564692818"><ele>128.0</ele><time>2026-03-29T13:34:38Z</time></trkpt><trkpt lat="45.964247281752" lon="10.919820380732554"><ele>128.0</ele><time>2026-03-29T13:34:39Z</time></trkpt><trkpt lat="45.96410884819407" lon="10.919620416287579"><ele>127.33333333333333</ele><time>2026-03-29T13:34:40Z</time></trkpt><trkpt lat="45.96396792829765" lon="10.919422945278985"><ele>126.66666666666666</ele><time>2026-03-29T13:34:41Z</time></trkpt><trkpt lat="45.96382358086418" lon="10.91923096760177"><ele>126.0</ele><time>2026-03-29T13:34:42Z</time></trkpt><trkpt lat="45.96368218413157" lon="10.91903413634566"><ele>125.66666666666666</ele><time>2026-03-29T13:34:43Z</time></trkpt><trkpt lat="45.96354469260833" lon="10.918837863340473"><ele>125.33333333333333</ele><time>2026-03-29T13:34:44Z</time></trkpt><trkpt lat="45.96340802620624" lon="10.918644095020936"><ele>125.0</ele><time>2026-03-29T13:34:45Z</time></trkpt><trkpt lat="45.96327388116214" lon="10.918455459238176"><ele>124.66666666666666</ele><time>2026-03-29T13:34:46Z</time></trkpt><trkpt lat="45.963150094353516" lon="10.918277045604837"><ele>124.33333333333334</ele><time>2026-03-29T13:34:47Z</time></trkpt><trkpt lat="45.96302759188536" lon="10.918102024305167"><ele>124.0</ele><time>2026-03-29T13:34:48Z</time></trkpt><trkpt lat="45.96290084014837" lon="10.917937432456169"><ele>124.0</ele><time>2026-03-29T13:34:48.999Z</time></trkpt><trkpt lat="45.96278477854248" lon="10.917768758657365"><ele>124.0</ele><time>2026-03-29T13:34:49.999Z</time></trkpt><trkpt lat="45.96266816057545" lon="10.917605421736246"><ele>124.0</ele><time>2026-03-29T13:34:50.999Z</time></trkpt><trkpt lat="45.96255673282307" lon="10.917447125721374"><ele>123.33333333333334</ele><time>2026-03-29T13:34:51.999Z</time></trkpt><trkpt lat="45.96244451445667" lon="10.91728927828413"><ele>122.66666666666666</ele><time>2026-03-29T13:34:52.999Z</time></trkpt><trkpt lat="45.96233514047598" lon="10.917135714880235"><ele>122.0</ele><time>2026-03-29T13:34:53.999Z</time></trkpt><trkpt lat="45.96222575689743" lon="10.916984280395214"><ele>122.0</ele><time>2026-03-29T13:34:54.999Z</time></trkpt><trkpt lat="45.96212025883362" lon="10.916834433734087"><ele>122.0</ele><time>2026-03-29T13:34:55.999Z</time></trkpt><trkpt lat="45.96201415439494" lon="10.916687080647398"><ele>122.0</ele><time>2026-03-29T13:34:56.999Z</time></trkpt><trkpt lat="45.96190949189032" lon="10.916541711596143"><ele>122.0</ele><time>2026-03-29T13:34:57.999Z</time></trkpt><trkpt lat="45.96180602440174" lon="10.91638974390551"><ele>122.0</ele><time>2026-03-29T13:34:58.999Z</time></trkpt><trkpt lat="45.961691052985664" lon="10.916240008254748"><ele>122.0</ele><time>2026-03-29T13:34:59.999Z</time></trkpt><trkpt lat="45.96157641078314" lon="10.916083075337665"><ele>122.0</ele><time>2026-03-29T13:35:00.999Z</time></trkpt><trkpt lat="45.961456392782864" lon="10.915917901624125"><ele>122.33333333333333</ele><time>2026-03-29T13:35:01.999Z</time></trkpt><trkpt lat="45.96133630470207" lon="10.915747452560757"><ele>122.66666666666666</ele><time>2026-03-29T13:35:02.999Z</time></trkpt><trkpt lat="45.961222524433005" lon="10.91558833578363"><ele>123.0</ele><time>2026-03-29T13:35:03.999Z</time></trkpt><trkpt lat="45.96110913888504" lon="10.915429330460157"><ele>123.0</ele><time>2026-03-29T13:35:04.999Z</time></trkpt><trkpt lat="45.960998912122065" lon="10.915274237642945"><ele>123.0</ele><time>2026-03-29T13:35:05.999Z</time></trkpt><trkpt lat="45.96088742652812" lon="10.915124591649143"><ele>123.0</ele><time>2026-03-29T13:35:06.999Z</time></trkpt><trkpt lat="45.960774436500564" lon="10.91496526887474"><ele>123.0</ele><time>2026-03-29T13:35:07.999Z</time></trkpt><trkpt lat="45.9606538346018" lon="10.914797737730728"><ele>123.0</ele><time>2026-03-29T13:35:08.999Z</time></trkpt><trkpt lat="45.96052754455176" lon="10.914626569988318"><ele>123.0</ele><time>2026-03-29T13:35:09.999Z</time></trkpt><trkpt lat="45.96039959421502" lon="10.91445328359182"><ele>123.0</ele><time>2026-03-29T13:35:10.999Z</time></trkpt><trkpt lat="45.96027125321841" lon="10.914272351270222"><ele>123.0</ele><time>2026-03-29T13:35:11.999Z</time></trkpt><trkpt lat="45.96014413236032" lon="10.914085442379047"><ele>123.0</ele><time>2026-03-29T13:35:12.999Z</time></trkpt><trkpt lat="45.96001568523446" lon="10.913887547302565"><ele>123.33333333333334</ele><time>2026-03-29T13:35:13.999Z</time></trkpt><trkpt lat="45.95988555015541" lon="10.913707100376211"><ele>123.66666666666667</ele><time>2026-03-29T13:35:14.999Z</time></trkpt><trkpt lat="45.95977117123254" lon="10.91354771518129"><ele>124.0</ele><time>2026-03-29T13:35:15.999Z</time></trkpt><trkpt lat="45.95966811180196" lon="10.91341267841457"><ele>123.75</ele><time>2026-03-29T13:35:16.999Z</time></trkpt><trkpt lat="45.95958430642129" lon="10.913291318753858"><ele>123.5</ele><time>2026-03-29T13:35:17.999Z</time></trkpt><trkpt lat="45.95950435115721" lon="10.913176275424721"><ele>123.25</ele><time>2026-03-29T13:35:18.999Z</time></trkpt><trkpt lat="45.959430156213685" lon="10.913062780720779"><ele>123.0</ele><time>2026-03-29T13:35:19.999Z</time></trkpt><trkpt lat="45.9593502064549" lon="10.912949903687045"><ele>123.0</ele><time>2026-03-29T13:35:20.999Z</time></trkpt><trkpt lat="45.959275707621494" lon="10.91286005079583"><ele>123.00000000000001</ele><time>2026-03-29T13:35:21.999Z</time></trkpt><trkpt lat="45.95922049574149" lon="10.91278574367258"><ele>123.00000000000001</ele><time>2026-03-29T13:35:22.999Z</time></trkpt><trkpt lat="45.959155788957176" lon="10.912686464788102"><ele>123.0</ele><time>2026-03-29T13:35:24.999Z</time></trkpt><trkpt lat="45.95911905687049" lon="10.912612779851964"><ele>123.0</ele><time>2026-03-29T13:35:28.999Z</time></trkpt><trkpt lat="45.95906541743184" lon="10.912455378051144"><ele>122.0</ele><time>2026-03-29T13:35:31.999Z</time></trkpt><trkpt lat="45.95900180709731" lon="10.912349251289822"><ele>121.0</ele><time>2026-03-29T13:35:32.999Z</time></trkpt><trkpt lat="45.95890273132356" lon="10.912251702971327"><ele>120.0</ele><time>2026-03-29T13:35:33.999Z</time></trkpt><trkpt lat="45.95876946026704" lon="10.91213105168392"><ele>119.0</ele><time>2026-03-29T13:35:34.999Z</time></trkpt><trkpt lat="45.958626100024176" lon="10.911961861856453"><ele>119.0</ele><time>2026-03-29T13:35:35.999Z</time></trkpt><trkpt lat="45.958471570674426" lon="10.911761310659351"><ele>119.0</ele><time>2026-03-29T13:35:36.999Z</time></trkpt><trkpt lat="45.95833697962481" lon="10.911601351200877"><ele>119.0</ele><time>2026-03-29T13:35:37.999Z</time></trkpt><trkpt lat="45.95820644602506" lon="10.911434673412266"><ele>118.66666666666666</ele><time>2026-03-29T13:35:38.999Z</time></trkpt><trkpt lat="45.95806137534002" lon="10.911277632217862"><ele>118.33333333333334</ele><time>2026-03-29T13:35:39.999Z</time></trkpt><trkpt lat="45.95789128371203" lon="10.911127026941076"><ele>118.0</ele><time>2026-03-29T13:35:40.999Z</time></trkpt><trkpt lat="45.95769003653612" lon="10.910942391899821"><ele>119.0</ele><time>2026-03-29T13:35:41.999Z</time></trkpt><trkpt lat="45.95744635609388" lon="10.91076006948453"><ele>120.0</ele><time>2026-03-29T13:35:42.999Z</time></trkpt><trkpt lat="45.95719906933035" lon="10.910539249812157"><ele>120.0</ele><time>2026-03-29T13:35:43.999Z</time></trkpt><trkpt lat="45.956928722218166" lon="10.910346507534417"><ele>120.0</ele><time>2026-03-29T13:35:44.999Z</time></trkpt><trkpt lat="45.9566460983563" lon="10.910163505740348"><ele>120.5</ele><time>2026-03-29T13:35:45.999Z</time></trkpt><trkpt lat="45.95635699258826" lon="10.909957819259178"><ele>121.0</ele><time>2026-03-29T13:35:46.999Z</time></trkpt><trkpt lat="45.95605903178473" lon="10.909748582356874"><ele>119.5</ele><time>2026-03-29T13:35:47.999Z</time></trkpt><trkpt lat="45.9557517198928" lon="10.909538412842915"><ele>118.0</ele><time>2026-03-29T13:35:49Z</time></trkpt><trkpt lat="45.95544075446311" lon="10.909291744423552"><ele>118.5</ele><time>2026-03-29T13:35:50Z</time></trkpt><trkpt lat="45.955118538005266" lon="10.909081376098726"><ele>119.0</ele><time>2026-03-29T13:35:51Z</time></trkpt><trkpt lat="45.954843976841865" lon="10.90887425566028"><ele>116.5</ele><time>2026-03-29T13:35:52Z</time></trkpt><trkpt lat="45.954589672919994" lon="10.908689719547949"><ele>114.0</ele><time>2026-03-29T13:35:53Z</time></trkpt><trkpt lat="45.95433965510212" lon="10.90851036401393"><ele>111.5</ele><time>2026-03-29T13:35:54Z</time></trkpt><trkpt lat="45.954095446227115" lon="10.9083392892008"><ele>109.0</ele><time>2026-03-29T13:35:55Z</time></trkpt><trkpt lat="45.95385220489449" lon="10.908165757972677"><ele>109.0</ele><time>2026-03-29T13:35:56Z</time></trkpt><trkpt lat="45.95361559775511" lon="10.90799356829317"><ele>109.0</ele><time>2026-03-29T13:35:57Z</time></trkpt><trkpt lat="45.95337543182565" lon="10.907825212826086"><ele>109.0</ele><time>2026-03-29T13:35:58Z</time></trkpt><trkpt lat="45.95314130972219" lon="10.90765561972741"><ele>109.0</ele><time>2026-03-29T13:35:59Z</time></trkpt><trkpt lat="45.95290492229779" lon="10.907488091108409"><ele>109.0</ele><time>2026-03-29T13:36:00Z</time></trkpt><trkpt lat="45.95266845645967" lon="10.907317903750748"><ele>109.0</ele><time>2026-03-29T13:36:01Z</time></trkpt><trkpt lat="45.9524363906289" lon="10.907153993031939"><ele>109.5</ele><time>2026-03-29T13:36:02Z</time></trkpt><trkpt lat="45.95220747010728" lon="10.906994232762635"><ele>110.0</ele><time>2026-03-29T13:36:03Z</time></trkpt><trkpt lat="45.95197969148952" lon="10.906825419308001"><ele>110.5</ele><time>2026-03-29T13:36:04Z</time></trkpt><trkpt lat="45.9517527783434" lon="10.90666336112845"><ele>111.0</ele><time>2026-03-29T13:36:05Z</time></trkpt><trkpt lat="45.951525112618704" lon="10.906505483982745"><ele>112.0</ele><time>2026-03-29T13:36:06Z</time></trkpt><trkpt lat="45.95130196373439" lon="10.906345129057474"><ele>113.0</ele><time>2026-03-29T13:36:07Z</time></trkpt><trkpt lat="45.951079703492425" lon="10.906186635689808"><ele>111.5</ele><time>2026-03-29T13:36:08Z</time></trkpt><trkpt lat="45.950855706260725" lon="10.906026868738067"><ele>110.0</ele><time>2026-03-29T13:36:09Z</time></trkpt><trkpt lat="45.95063451714168" lon="10.905861891155924"><ele>110.0</ele><time>2026-03-29T13:36:10Z</time></trkpt><trkpt lat="45.95041340352358" lon="10.905702887984399"><ele>110.0</ele><time>2026-03-29T13:36:11Z</time></trkpt><trkpt lat="45.95019380891034" lon="10.905549383654028"><ele>108.0</ele><time>2026-03-29T13:36:12Z</time></trkpt><trkpt lat="45.949976561163886" lon="10.905386844086392"><ele>106.0</ele><time>2026-03-29T13:36:13Z</time></trkpt><trkpt lat="45.94975430943056" lon="10.905235002924284"><ele>107.0</ele><time>2026-03-29T13:36:14Z</time></trkpt><trkpt lat="45.94953651615986" lon="10.905072422829155"><ele>108.0</ele><time>2026-03-29T13:36:15Z</time></trkpt><trkpt lat="45.9493180974619" lon="10.904909331298096"><ele>106.5</ele><time>2026-03-29T13:36:16Z</time></trkpt><trkpt lat="45.94909363290052" lon="10.904755067019222"><ele>105.0</ele><time>2026-03-29T13:36:17Z</time></trkpt><trkpt lat="45.94887242782563" lon="10.9045999687486"><ele>105.0</ele><time>2026-03-29T13:36:18Z</time></trkpt><trkpt lat="45.94866215472257" lon="10.904447577628464"><ele>105.0</ele><time>2026-03-29T13:36:19Z</time></trkpt><trkpt lat="45.94847049985605" lon="10.904307881988403"><ele>105.0</ele><time>2026-03-29T13:36:20Z</time></trkpt><trkpt lat="45.948284940235325" lon="10.90418582278505"><ele>105.0</ele><time>2026-03-29T13:36:21Z</time></trkpt><trkpt lat="45.94810618444118" lon="10.904067990895424"><ele>105.0</ele><time>2026-03-29T13:36:22Z</time></trkpt><trkpt lat="45.94793394982943" lon="10.903961586320582"><ele>105.0</ele><time>2026-03-29T13:36:23Z</time></trkpt><trkpt lat="45.947756449773" lon="10.903866430595604"><ele>105.0</ele><time>2026-03-29T13:36:24Z</time></trkpt><trkpt lat="45.94757006090197" lon="10.903788760816106"><ele>105.0</ele><time>2026-03-29T13:36:25Z</time></trkpt><trkpt lat="45.94738191483679" lon="10.903720941892285"><ele>104.33333333333334</ele><time>2026-03-29T13:36:26Z</time></trkpt><trkpt lat="45.947192259836505" lon="10.903652433609242"><ele>103.66666666666667</ele><time>2026-03-29T13:36:27Z</time></trkpt><trkpt lat="45.94700420236907" lon="10.90358069993276"><ele>103.0</ele><time>2026-03-29T13:36:28Z</time></trkpt><trkpt lat="45.946819714154735" lon="10.90350267321455"><ele>102.5</ele><time>2026-03-29T13:36:29Z</time></trkpt><trkpt lat="45.94654774578711" lon="10.903822013323031"><ele>102.0</ele><time>2026-03-29T13:36:30Z</time></trkpt><trkpt lat="45.9463461080279" lon="10.903711525256599"><ele>102.0</ele><time>2026-03-29T13:36:31Z</time></trkpt><trkpt lat="45.946157506533034" lon="10.903613571179012"><ele>102.0</ele><time>2026-03-29T13:36:32Z</time></trkpt><trkpt lat="45.94597275898094" lon="10.903498662264456"><ele>102.0</ele><time>2026-03-29T13:36:33Z</time></trkpt><trkpt lat="45.94586637163066" lon="10.903102388730364"><ele>102.0</ele><time>2026-03-29T13:36:34Z</time></trkpt><trkpt lat="45.945677887706246" lon="10.903018480097861"><ele>102.0</ele><time>2026-03-29T13:36:35Z</time></trkpt><trkpt lat="45.94549159791243" lon="10.902942294685873"><ele>102.0</ele><time>2026-03-29T13:36:36Z</time></trkpt><trkpt lat="45.94530158935102" lon="10.902876387109217"><ele>102.0</ele><time>2026-03-29T13:36:37Z</time></trkpt><trkpt lat="45.94510824232443" lon="10.902804601824254"><ele>102.0</ele><time>2026-03-29T13:36:38Z</time></trkpt><trkpt lat="45.944919359158305" lon="10.902730488268269"><ele>102.0</ele><time>2026-03-29T13:36:39Z</time></trkpt><trkpt lat="45.94472638209325" lon="10.902661026201296"><ele>101.66666666666666</ele><time>2026-03-29T13:36:40Z</time></trkpt><trkpt lat="45.944532149076664" lon="10.902589955566398"><ele>101.33333333333333</ele><time>2026-03-29T13:36:41Z</time></trkpt><trkpt lat="45.94433635299006" lon="10.902516420669782"><ele>101.0</ele><time>2026-03-29T13:36:42Z</time></trkpt><trkpt lat="45.94414229134819" lon="10.90244615625992"><ele>100.33333333333333</ele><time>2026-03-29T13:36:43Z</time></trkpt><trkpt lat="45.943958265119925" lon="10.902372301584464"><ele>99.66666666666666</ele><time>2026-03-29T13:36:44Z</time></trkpt><trkpt lat="45.94377580750631" lon="10.902298296093168"><ele>99.0</ele><time>2026-03-29T13:36:45Z</time></trkpt><trkpt lat="45.94359683156818" lon="10.902223671227336"><ele>99.0</ele><time>2026-03-29T13:36:46Z</time></trkpt><trkpt lat="45.94341937257569" lon="10.902148960503512"><ele>99.0</ele><time>2026-03-29T13:36:47Z</time></trkpt><trkpt lat="45.94324105568052" lon="10.902079048749616"><ele>99.0</ele><time>2026-03-29T13:36:48Z</time></trkpt><trkpt lat="45.94307545570791" lon="10.902009809073956"><ele>98.33333333333334</ele><time>2026-03-29T13:36:49Z</time></trkpt><trkpt lat="45.94292339113764" lon="10.901942073892751"><ele>97.66666666666667</ele><time>2026-03-29T13:36:50Z</time></trkpt><trkpt lat="45.94277802576729" lon="10.901886169908131"><ele>97.0</ele><time>2026-03-29T13:36:51Z</time></trkpt><trkpt lat="45.94263029619552" lon="10.901836692824581"><ele>97.5</ele><time>2026-03-29T13:36:52Z</time></trkpt><trkpt lat="45.94248465081508" lon="10.901776913157343"><ele>98.0</ele><time>2026-03-29T13:36:53Z</time></trkpt><trkpt lat="45.94234505331914" lon="10.901717117349822"><ele>98.5</ele><time>2026-03-29T13:36:54Z</time></trkpt><trkpt lat="45.94220881274417" lon="10.901663574917457"><ele>99.0</ele><time>2026-03-29T13:36:55Z</time></trkpt><trkpt lat="45.94206933289081" lon="10.901609503902655"><ele>99.33333333333334</ele><time>2026-03-29T13:36:56Z</time></trkpt><trkpt lat="45.94192641839403" lon="10.901545636461943"><ele>99.66666666666667</ele><time>2026-03-29T13:36:57Z</time></trkpt><trkpt lat="45.941785579001895" lon="10.901484965912962"><ele>100.0</ele><time>2026-03-29T13:36:58Z</time></trkpt><trkpt lat="45.94163673326067" lon="10.901430819749708"><ele>100.0</ele><time>2026-03-29T13:36:59Z</time></trkpt><trkpt lat="45.94149382142417" lon="10.901377536221146"><ele>100.0</ele><time>2026-03-29T13:37:00Z</time></trkpt><trkpt lat="45.94134101714466" lon="10.901341556318583"><ele>100.0</ele><time>2026-03-29T13:37:00.999Z</time></trkpt><trkpt lat="45.94119020923447" lon="10.9013115008704"><ele>100.0</ele><time>2026-03-29T13:37:01.999Z</time></trkpt><trkpt lat="45.94103602468533" lon="10.90129249094761"><ele>100.0</ele><time>2026-03-29T13:37:02.999Z</time></trkpt><trkpt lat="45.94089073055212" lon="10.90127473715803"><ele>100.0</ele><time>2026-03-29T13:37:03.999Z</time></trkpt><trkpt lat="45.94075530543987" lon="10.901259221133074"><ele>100.0</ele><time>2026-03-29T13:37:04.999Z</time></trkpt><trkpt lat="45.94064136432012" lon="10.90125338719119"><ele>99.8</ele><time>2026-03-29T13:37:05.999Z</time></trkpt><trkpt lat="45.94053892093595" lon="10.901245755656722"><ele>99.6</ele><time>2026-03-29T13:37:06.999Z</time></trkpt><trkpt lat="45.94044569357376" lon="10.901239916851015"><ele>99.4</ele><time>2026-03-29T13:37:07.999Z</time></trkpt><trkpt lat="45.9403708582898" lon="10.901234794575934"><ele>99.2</ele><time>2026-03-29T13:37:08.999Z</time></trkpt><trkpt lat="45.940256489482024" lon="10.901224142869655"><ele>99.0</ele><time>2026-03-29T13:37:10.999Z</time></trkpt><trkpt lat="45.940160943768014" lon="10.901183815340863"><ele>99.0</ele><time>2026-03-29T13:37:12.999Z</time></trkpt><trkpt lat="45.94010188715025" lon="10.90114711461834"><ele>99.0</ele><time>2026-03-29T13:37:13.999Z</time></trkpt><trkpt lat="45.940023882841636" lon="10.90112946387164"><ele>99.0</ele><time>2026-03-29T13:37:14.999Z</time></trkpt><trkpt lat="45.939934693094315" lon="10.901128492022417"><ele>99.0</ele><time>2026-03-29T13:37:15.999Z</time></trkpt><trkpt lat="45.93983487060133" lon="10.901135107506564"><ele>99.0</ele><time>2026-03-29T13:37:16.999Z</time></trkpt><trkpt lat="45.93973310007313" lon="10.90111437722494"><ele>99.0</ele><time>2026-03-29T13:37:17.999Z</time></trkpt><trkpt lat="45.93962766594554" lon="10.901070361325713"><ele>98.75</ele><time>2026-03-29T13:37:18.999Z</time></trkpt><trkpt lat="45.93950107861339" lon="10.901023793811246"><ele>98.5</ele><time>2026-03-29T13:37:19.999Z</time></trkpt><trkpt lat="45.93936769758631" lon="10.900986782704939"><ele>98.25</ele><time>2026-03-29T13:37:20.999Z</time></trkpt><trkpt lat="45.93924497454254" lon="10.900951155939277"><ele>98.0</ele><time>2026-03-29T13:37:21.999Z</time></trkpt><trkpt lat="45.93913002058661" lon="10.900907879241096"><ele>97.5</ele><time>2026-03-29T13:37:22.999Z</time></trkpt><trkpt lat="45.93900222393616" lon="10.900861875616688"><ele>97.0</ele><time>2026-03-29T13:37:23.999Z</time></trkpt><trkpt lat="45.93887661943391" lon="10.900804883824106"><ele>96.5</ele><time>2026-03-29T13:37:24.999Z</time></trkpt><trkpt lat="45.938750803303314" lon="10.900740216306877"><ele>96.0</ele><time>2026-03-29T13:37:25.999Z</time></trkpt><trkpt lat="45.938624008743396" lon="10.900674950303985"><ele>96.0</ele><time>2026-03-29T13:37:26.999Z</time></trkpt><trkpt lat="45.93848282414635" lon="10.900599899231073"><ele>96.0</ele><time>2026-03-29T13:37:27.999Z</time></trkpt><trkpt lat="45.93834429783543" lon="10.900513642791532"><ele>96.0</ele><time>2026-03-29T13:37:28.999Z</time></trkpt><trkpt lat="45.93820226547859" lon="10.900418722162346"><ele>96.33333333333334</ele><time>2026-03-29T13:37:29.999Z</time></trkpt><trkpt lat="45.93805337451046" lon="10.900319374480906"><ele>96.66666666666667</ele><time>2026-03-29T13:37:30.999Z</time></trkpt><trkpt lat="45.93790724076573" lon="10.900219201853186"><ele>97.0</ele><time>2026-03-29T13:37:31.999Z</time></trkpt><trkpt lat="45.93776145001617" lon="10.900118458737026"><ele>97.33333333333334</ele><time>2026-03-29T13:37:32.999Z</time></trkpt><trkpt lat="45.93761864161649" lon="10.900003975213288"><ele>97.66666666666666</ele><time>2026-03-29T13:37:33.999Z</time></trkpt><trkpt lat="45.93748210694672" lon="10.899889586747236"><ele>98.0</ele><time>2026-03-29T13:37:34.999Z</time></trkpt><trkpt lat="45.93735850527359" lon="10.899768378464923"><ele>98.0</ele><time>2026-03-29T13:37:35.999Z</time></trkpt><trkpt lat="45.937245506995815" lon="10.899645446834661"><ele>98.0</ele><time>2026-03-29T13:37:36.999Z</time></trkpt><trkpt lat="45.93713557608491" lon="10.899517516172406"><ele>98.0</ele><time>2026-03-29T13:37:37.999Z</time></trkpt><trkpt lat="45.93702397809253" lon="10.899383428707818"><ele>98.0</ele><time>2026-03-29T13:37:38.999Z</time></trkpt><trkpt lat="45.93690639947774" lon="10.899242978351396"><ele>97.33333333333333</ele><time>2026-03-29T13:37:39.999Z</time></trkpt><trkpt lat="45.93678452019999" lon="10.899088291702324"><ele>96.66666666666666</ele><time>2026-03-29T13:37:40.999Z</time></trkpt><trkpt lat="45.93666603202611" lon="10.898934681003398"><ele>96.0</ele><time>2026-03-29T13:37:41.999Z</time></trkpt><trkpt lat="45.936552490270444" lon="10.898798927628405"><ele>96.0</ele><time>2026-03-29T13:37:42.999Z</time></trkpt><trkpt lat="45.93644174438971" lon="10.898663931030901"><ele>96.0</ele><time>2026-03-29T13:37:43.999Z</time></trkpt><trkpt lat="45.93633703719029" lon="10.898538079543876"><ele>96.0</ele><time>2026-03-29T13:37:44.999Z</time></trkpt><trkpt lat="45.93623099627489" lon="10.898418123105976"><ele>96.0</ele><time>2026-03-29T13:37:45.999Z</time></trkpt><trkpt lat="45.936120397868784" lon="10.898293015314175"><ele>95.0</ele><time>2026-03-29T13:37:46.999Z</time></trkpt><trkpt lat="45.93599905118337" lon="10.898178564928003"><ele>94.0</ele><time>2026-03-29T13:37:47.999Z</time></trkpt><trkpt lat="45.93585567406506" lon="10.898098561608698"><ele>93.0</ele><time>2026-03-29T13:37:48.999Z</time></trkpt><trkpt lat="45.93569403333509" lon="10.89800762841703"><ele>93.0</ele><time>2026-03-29T13:37:49.999Z</time></trkpt><trkpt lat="45.93549475960792" lon="10.897928153023056"><ele>93.0</ele><time>2026-03-29T13:37:50.999Z</time></trkpt><trkpt lat="45.93527619123067" lon="10.89781666888871"><ele>93.0</ele><time>2026-03-29T13:37:51.999Z</time></trkpt><trkpt lat="45.93508833665312" lon="10.897730923069721"><ele>93.33333333333333</ele><time>2026-03-29T13:37:52.999Z</time></trkpt><trkpt lat="45.9349172247342" lon="10.89765805330506"><ele>93.66666666666666</ele><time>2026-03-29T13:37:53.999Z</time></trkpt><trkpt lat="45.93475366470963" lon="10.89758737375431"><ele>94.0</ele><time>2026-03-29T13:37:55Z</time></trkpt><trkpt lat="45.934601521299236" lon="10.89751422598126"><ele>94.0</ele><time>2026-03-29T13:37:56Z</time></trkpt><trkpt lat="45.934464644301585" lon="10.897446707736762"><ele>94.0</ele><time>2026-03-29T13:37:57Z</time></trkpt><trkpt lat="45.934337574567294" lon="10.897377751932511"><ele>94.0</ele><time>2026-03-29T13:37:58Z</time></trkpt><trkpt lat="45.93420082167429" lon="10.897323777306232"><ele>94.0</ele><time>2026-03-29T13:37:59Z</time></trkpt><trkpt lat="45.93406996729215" lon="10.897260604525522"><ele>93.75</ele><time>2026-03-29T13:38:00Z</time></trkpt><trkpt lat="45.93394720159493" lon="10.897197286062609"><ele>93.5</ele><time>2026-03-29T13:38:01Z</time></trkpt><trkpt lat="45.9338295749899" lon="10.897146717673685"><ele>93.25</ele><time>2026-03-29T13:38:02Z</time></trkpt><trkpt lat="45.933712750424974" lon="10.897094640669367"><ele>93.0</ele><time>2026-03-29T13:38:03Z</time></trkpt><trkpt lat="45.9335946090699" lon="10.897040973596663"><ele>93.0</ele><time>2026-03-29T13:38:04Z</time></trkpt><trkpt lat="45.93347527047648" lon="10.896988353762245"><ele>93.0</ele><time>2026-03-29T13:38:05Z</time></trkpt><trkpt lat="45.933353823938134" lon="10.89693523776766"><ele>93.0</ele><time>2026-03-29T13:38:06Z</time></trkpt><trkpt lat="45.93322962542125" lon="10.89688061364648"><ele>93.0</ele><time>2026-03-29T13:38:07Z</time></trkpt><trkpt lat="45.9331016497684" lon="10.896820275669622"><ele>93.25</ele><time>2026-03-29T13:38:08Z</time></trkpt><trkpt lat="45.93296747326563" lon="10.89676357162031"><ele>93.5</ele><time>2026-03-29T13:38:09Z</time></trkpt><trkpt lat="45.93283690710169" lon="10.896706634805811"><ele>93.75</ele><time>2026-03-29T13:38:10Z</time></trkpt><trkpt lat="45.93270422954863" lon="10.896655480902506"><ele>94.0</ele><time>2026-03-29T13:38:11Z</time></trkpt><trkpt lat="45.932565148380874" lon="10.896612298508048"><ele>94.0</ele><time>2026-03-29T13:38:12Z</time></trkpt><trkpt lat="45.932423473892584" lon="10.896571928245008"><ele>94.0</ele><time>2026-03-29T13:38:13Z</time></trkpt><trkpt lat="45.9322956924651" lon="10.896532175845909"><ele>94.0</ele><time>2026-03-29T13:38:14Z</time></trkpt><trkpt lat="45.93215543789638" lon="10.896501945756418"><ele>94.0</ele><time>2026-03-29T13:38:15Z</time></trkpt><trkpt lat="45.93203214674868" lon="10.896479326741513"><ele>94.0</ele><time>2026-03-29T13:38:16Z</time></trkpt><trkpt lat="45.931907694368256" lon="10.896456363136238"><ele>94.0</ele><time>2026-03-29T13:38:17Z</time></trkpt><trkpt lat="45.931781792089986" lon="10.896443218343482"><ele>94.0</ele><time>2026-03-29T13:38:18Z</time></trkpt><trkpt lat="45.93165749581471" lon="10.896426913428233"><ele>94.0</ele><time>2026-03-29T13:38:19Z</time></trkpt><trkpt lat="45.931541596918" lon="10.896398837199122"><ele>95.0</ele><time>2026-03-29T13:38:20Z</time></trkpt><trkpt lat="45.93141947002332" lon="10.89638185565849"><ele>96.0</ele><time>2026-03-29T13:38:21Z</time></trkpt><trkpt lat="45.9312969535583" lon="10.896365941525403"><ele>97.0</ele><time>2026-03-29T13:38:22Z</time></trkpt><trkpt lat="45.93117159701752" lon="10.896345411287253"><ele>98.0</ele><time>2026-03-29T13:38:23Z</time></trkpt><trkpt lat="45.93103733964135" lon="10.89631920766945"><ele>98.0</ele><time>2026-03-29T13:38:24Z</time></trkpt><trkpt lat="45.93090187391733" lon="10.896292836323214"><ele>98.0</ele><time>2026-03-29T13:38:25Z</time></trkpt><trkpt lat="45.930767577084445" lon="10.896270679205099"><ele>98.0</ele><time>2026-03-29T13:38:26Z</time></trkpt><trkpt lat="45.930629123513036" lon="10.89625179125221"><ele>98.0</ele><time>2026-03-29T13:38:27Z</time></trkpt><trkpt lat="45.930493865650014" lon="10.896228786302993"><ele>98.0</ele><time>2026-03-29T13:38:28Z</time></trkpt><trkpt lat="45.930380987457525" lon="10.896211375756142"><ele>98.0</ele><time>2026-03-29T13:38:29Z</time></trkpt><trkpt lat="45.93025575483029" lon="10.896197783800059"><ele>98.0</ele><time>2026-03-29T13:38:30Z</time></trkpt><trkpt lat="45.930132002639056" lon="10.896177756298226"><ele>98.0</ele><time>2026-03-29T13:38:31Z</time></trkpt><trkpt lat="45.930007750749766" lon="10.896160314000918"><ele>98.0</ele><time>2026-03-29T13:38:32Z</time></trkpt><trkpt lat="45.929890232463855" lon="10.896141178666698"><ele>98.0</ele><time>2026-03-29T13:38:33Z</time></trkpt><trkpt lat="45.92976935504483" lon="10.89611911090117"><ele>98.0</ele><time>2026-03-29T13:38:34Z</time></trkpt><trkpt lat="45.92965143236305" lon="10.896099415874433"><ele>98.0</ele><time>2026-03-29T13:38:35Z</time></trkpt><trkpt lat="45.92953949795433" lon="10.896078803546581"><ele>98.0</ele><time>2026-03-29T13:38:36Z</time></trkpt><trkpt lat="45.929424542412015" lon="10.896059747948733"><ele>98.0</ele><time>2026-03-29T13:38:37Z</time></trkpt><trkpt lat="45.929312256755814" lon="10.896039835308729"><ele>98.0</ele><time>2026-03-29T13:38:38Z</time></trkpt><trkpt lat="45.9291960875906" lon="10.89602205661462"><ele>98.0</ele><time>2026-03-29T13:38:39Z</time></trkpt><trkpt lat="45.929092754700186" lon="10.896005800145932"><ele>97.0</ele><time>2026-03-29T13:38:40Z</time></trkpt><trkpt lat="45.92898888328153" lon="10.895986436102291"><ele>96.0</ele><time>2026-03-29T13:38:41Z</time></trkpt><trkpt lat="45.92888379362304" lon="10.895967964815075"><ele>95.0</ele><time>2026-03-29T13:38:42Z</time></trkpt><trkpt lat="45.92876359795178" lon="10.895954514709889"><ele>94.0</ele><time>2026-03-29T13:38:43Z</time></trkpt><trkpt lat="45.9286557695821" lon="10.89593777104483"><ele>93.0</ele><time>2026-03-29T13:38:44Z</time></trkpt><trkpt lat="45.92854267465891" lon="10.895918370917585"><ele>92.75</ele><time>2026-03-29T13:38:45Z</time></trkpt><trkpt lat="45.928422994481025" lon="10.895889686040977"><ele>92.5</ele><time>2026-03-29T13:38:46Z</time></trkpt><trkpt lat="45.928309446974666" lon="10.89586221193832"><ele>92.25</ele><time>2026-03-29T13:38:47Z</time></trkpt><trkpt lat="45.92818587491422" lon="10.895844283934137"><ele>92.0</ele><time>2026-03-29T13:38:48Z</time></trkpt><trkpt lat="45.92807007672411" lon="10.895829144370701"><ele>92.0</ele><time>2026-03-29T13:38:49Z</time></trkpt><trkpt lat="45.9279490159179" lon="10.895789992610846"><ele>92.0</ele><time>2026-03-29T13:38:50Z</time></trkpt><trkpt lat="45.92782771914557" lon="10.895736694782808"><ele>92.0</ele><time>2026-03-29T13:38:51Z</time></trkpt><trkpt lat="45.927714622604434" lon="10.89567826176401"><ele>92.0</ele><time>2026-03-29T13:38:52Z</time></trkpt><trkpt lat="45.92758948298902" lon="10.89562235612936"><ele>92.25</ele><time>2026-03-29T13:38:53Z</time></trkpt><trkpt lat="45.92747273195196" lon="10.895564382798748"><ele>92.5</ele><time>2026-03-29T13:38:54Z</time></trkpt><trkpt lat="45.927365697840244" lon="10.895509734172206"><ele>92.75</ele><time>2026-03-29T13:38:55Z</time></trkpt><trkpt lat="45.927262427395206" lon="10.89545587317138"><ele>93.0</ele><time>2026-03-29T13:38:56Z</time></trkpt><trkpt lat="45.927158380183634" lon="10.895403594749954"><ele>93.0</ele><time>2026-03-29T13:38:57Z</time></trkpt><trkpt lat="45.92705713763865" lon="10.8953518605214"><ele>93.0</ele><time>2026-03-29T13:38:58Z</time></trkpt><trkpt lat="45.92695629670045" lon="10.89530431776531"><ele>93.0</ele><time>2026-03-29T13:38:59Z</time></trkpt><trkpt lat="45.92685652201879" lon="10.895255716369997"><ele>93.0</ele><time>2026-03-29T13:39:00Z</time></trkpt><trkpt lat="45.926756264161554" lon="10.895206526336393"><ele>93.0</ele><time>2026-03-29T13:39:01Z</time></trkpt><trkpt lat="45.926654395588116" lon="10.895156792428429"><ele>92.75</ele><time>2026-03-29T13:39:02Z</time></trkpt><trkpt lat="45.92654937187425" lon="10.895105099076666"><ele>92.5</ele><time>2026-03-29T13:39:03Z</time></trkpt><trkpt lat="45.926438651495396" lon="10.89504885409378"><ele>92.25</ele><time>2026-03-29T13:39:04Z</time></trkpt><trkpt lat="45.92632372038735" lon="10.894989697216113"><ele>92.0</ele><time>2026-03-29T13:39:05Z</time></trkpt><trkpt lat="45.926208451037894" lon="10.89492693642618"><ele>92.0</ele><time>2026-03-29T13:39:06Z</time></trkpt><trkpt lat="45.9260886542914" lon="10.894868138390509"><ele>92.0</ele><time>2026-03-29T13:39:06.999Z</time></trkpt><trkpt lat="45.92596960289109" lon="10.894805899439328"><ele>92.0</ele><time>2026-03-29T13:39:07.999Z</time></trkpt><trkpt lat="45.92583505153211" lon="10.894744453738179"><ele>92.0</ele><time>2026-03-29T13:39:08.999Z</time></trkpt><trkpt lat="45.92571406184388" lon="10.89468335230868"><ele>92.0</ele><time>2026-03-29T13:39:09.999Z</time></trkpt><trkpt lat="45.925604379672855" lon="10.894625962864003"><ele>92.0</ele><time>2026-03-29T13:39:10.999Z</time></trkpt><trkpt lat="45.925503567910354" lon="10.894570803607715"><ele>92.0</ele><time>2026-03-29T13:39:11.999Z</time></trkpt><trkpt lat="45.9254002001445" lon="10.894515327091403"><ele>92.0</ele><time>2026-03-29T13:39:12.999Z</time></trkpt><trkpt lat="45.92529296464083" lon="10.894462215110387"><ele>92.0</ele><time>2026-03-29T13:39:13.999Z</time></trkpt><trkpt lat="45.92518687541374" lon="10.894407564431427"><ele>92.0</ele><time>2026-03-29T13:39:14.999Z</time></trkpt><trkpt lat="45.92508188819902" lon="10.894354321381709"><ele>92.0</ele><time>2026-03-29T13:39:15.999Z</time></trkpt><trkpt lat="45.924974521031494" lon="10.894300741002867"><ele>92.0</ele><time>2026-03-29T13:39:16.999Z</time></trkpt><trkpt lat="45.92487443316963" lon="10.894249461125987"><ele>92.0</ele><time>2026-03-29T13:39:17.999Z</time></trkpt><trkpt lat="45.92478547422091" lon="10.894206200438251"><ele>92.0</ele><time>2026-03-29T13:39:18.999Z</time></trkpt><trkpt lat="45.92468996523536" lon="10.89416147872293"><ele>91.8</ele><time>2026-03-29T13:39:19.999Z</time></trkpt><trkpt lat="45.92459666521141" lon="10.894105997041288"><ele>91.6</ele><time>2026-03-29T13:39:20.999Z</time></trkpt><trkpt lat="45.92449736280774" lon="10.894049615635053"><ele>91.39999999999999</ele><time>2026-03-29T13:39:21.999Z</time></trkpt><trkpt lat="45.924398143302525" lon="10.89398448249472"><ele>91.19999999999999</ele><time>2026-03-29T13:39:22.999Z</time></trkpt><trkpt lat="45.92431196045668" lon="10.89392700200087"><ele>91.0</ele><time>2026-03-29T13:39:23.999Z</time></trkpt><trkpt lat="45.92422863312966" lon="10.893863934378054"><ele>91.33333333333333</ele><time>2026-03-29T13:39:24.999Z</time></trkpt><trkpt lat="45.9241461077988" lon="10.893801826908332"><ele>91.66666666666666</ele><time>2026-03-29T13:39:25.999Z</time></trkpt><trkpt lat="45.92407084890781" lon="10.893728285656353"><ele>92.0</ele><time>2026-03-29T13:39:26.999Z</time></trkpt><trkpt lat="45.924004289409595" lon="10.89365165531503"><ele>92.33333333333333</ele><time>2026-03-29T13:39:27.999Z</time></trkpt><trkpt lat="45.923950364323076" lon="10.893584916760686"><ele>92.66666666666667</ele><time>2026-03-29T13:39:28.999Z</time></trkpt><trkpt lat="45.92389353749493" lon="10.893540143964579"><ele>93.0</ele><time>2026-03-29T13:39:29.999Z</time></trkpt><trkpt lat="45.923798260083004" lon="10.893439364524983"><ele>92.16666666666667</ele><time>2026-03-29T13:39:31.999Z</time></trkpt><trkpt lat="45.92375598863731" lon="10.893358465842953"><ele>91.33333333333333</ele><time>2026-03-29T13:39:32.999Z</time></trkpt><trkpt lat="45.92372169392363" lon="10.89325783188449"><ele>90.5</ele><time>2026-03-29T13:39:33.999Z</time></trkpt><trkpt lat="45.92368147712752" lon="10.893148610556338"><ele>89.66666666666666</ele><time>2026-03-29T13:39:34.999Z</time></trkpt><trkpt lat="45.92362795541201" lon="10.893062610273475"><ele>88.83333333333333</ele><time>2026-03-29T13:39:35.999Z</time></trkpt><trkpt lat="45.923564829004135" lon="10.893029915410859"><ele>88.0</ele><time>2026-03-29T13:39:36.999Z</time></trkpt><trkpt lat="45.92349470932293" lon="10.893038167524672"><ele>88.0</ele><time>2026-03-29T13:39:37.999Z</time></trkpt><trkpt lat="45.9234354701304" lon="10.893073038833352"><ele>88.0</ele><time>2026-03-29T13:39:38.999Z</time></trkpt><trkpt lat="45.923392614228625" lon="10.893207607951165"><ele>88.0</ele><time>2026-03-29T13:39:39.999Z</time></trkpt><trkpt lat="45.92334111758017" lon="10.89330827720168"><ele>88.0</ele><time>2026-03-29T13:39:40.999Z</time></trkpt><trkpt lat="45.92326051074386" lon="10.893387602508994"><ele>88.0</ele><time>2026-03-29T13:39:41.999Z</time></trkpt><trkpt lat="45.92316377381794" lon="10.893444196419647"><ele>89.5</ele><time>2026-03-29T13:39:42.999Z</time></trkpt><trkpt lat="45.9230456874208" lon="10.893484574258405"><ele>91.0</ele><time>2026-03-29T13:39:43.999Z</time></trkpt><trkpt lat="45.922912777282946" lon="10.893529813158315"><ele>92.5</ele><time>2026-03-29T13:39:44.999Z</time></trkpt><trkpt lat="45.92277309296176" lon="10.893574108225113"><ele>94.0</ele><time>2026-03-29T13:39:45.999Z</time></trkpt><trkpt lat="45.922621447741726" lon="10.893633342989178"><ele>93.66666666666666</ele><time>2026-03-29T13:39:46.999Z</time></trkpt><trkpt lat="45.92246944942828" lon="10.89369865326964"><ele>93.33333333333333</ele><time>2026-03-29T13:39:47.999Z</time></trkpt><trkpt lat="45.9223250139178" lon="10.89378202261992"><ele>93.0</ele><time>2026-03-29T13:39:48.999Z</time></trkpt><trkpt lat="45.92219239288505" lon="10.89389597797142"><ele>93.0</ele><time>2026-03-29T13:39:49.999Z</time></trkpt><trkpt lat="45.92207281201698" lon="10.894026051651723"><ele>93.0</ele><time>2026-03-29T13:39:50.999Z</time></trkpt><trkpt lat="45.92196550563362" lon="10.894166930702145"><ele>93.0</ele><time>2026-03-29T13:39:51.999Z</time></trkpt><trkpt lat="45.92187075848406" lon="10.894318011706169"><ele>93.0</ele><time>2026-03-29T13:39:52.999Z</time></trkpt><trkpt lat="45.9217953701782" lon="10.894490473391665"><ele>93.75</ele><time>2026-03-29T13:39:53.999Z</time></trkpt><trkpt lat="45.92172868141287" lon="10.894669298636295"><ele>94.5</ele><time>2026-03-29T13:39:54.999Z</time></trkpt><trkpt lat="45.921675010690414" lon="10.894852808186474"><ele>95.25</ele><time>2026-03-29T13:39:55.999Z</time></trkpt><trkpt lat="45.9216040390811" lon="10.895026963975164"><ele>96.0</ele><time>2026-03-29T13:39:56.999Z</time></trkpt><trkpt lat="45.921540028096004" lon="10.895196733721145"><ele>96.5</ele><time>2026-03-29T13:39:57.999Z</time></trkpt><trkpt lat="45.92147007547674" lon="10.895362857514657"><ele>97.0</ele><time>2026-03-29T13:39:58.999Z</time></trkpt><trkpt lat="45.92139200026473" lon="10.895517543765285"><ele>97.5</ele><time>2026-03-29T13:39:59.999Z</time></trkpt><trkpt lat="45.92129426541826" lon="10.89568191221791"><ele>98.0</ele><time>2026-03-29T13:40:01Z</time></trkpt><trkpt lat="45.92118187723914" lon="10.895851097642684"><ele>98.5</ele><time>2026-03-29T13:40:02Z</time></trkpt><trkpt lat="45.921066877392725" lon="10.89599439883935"><ele>99.0</ele><time>2026-03-29T13:40:03Z</time></trkpt><trkpt lat="45.92095603526478" lon="10.896112355871551"><ele>99.5</ele><time>2026-03-29T13:40:04Z</time></trkpt><trkpt lat="45.92083372020598" lon="10.896222974185902"><ele>100.0</ele><time>2026-03-29T13:40:05Z</time></trkpt><trkpt lat="45.92071100458433" lon="10.896318838443824"><ele>100.0</ele><time>2026-03-29T13:40:06Z</time></trkpt><trkpt lat="45.920572799586516" lon="10.896408522409486"><ele>100.0</ele><time>2026-03-29T13:40:07Z</time></trkpt><trkpt lat="45.920434746132855" lon="10.896477019813055"><ele>100.0</ele><time>2026-03-29T13:40:08Z</time></trkpt><trkpt lat="45.920286566320684" lon="10.896534687975032"><ele>100.0</ele><time>2026-03-29T13:40:09Z</time></trkpt><trkpt lat="45.920133472839716" lon="10.896578116109437"><ele>100.0</ele><time>2026-03-29T13:40:10Z</time></trkpt><trkpt lat="45.919983298170635" lon="10.896606572997445"><ele>100.0</ele><time>2026-03-29T13:40:11Z</time></trkpt><trkpt lat="45.919839968886755" lon="10.896613472098323"><ele>100.0</ele><time>2026-03-29T13:40:12Z</time></trkpt><trkpt lat="45.91969153882" lon="10.896604867266841"><ele>100.0</ele><time>2026-03-29T13:40:13Z</time></trkpt><trkpt lat="45.9195424310555" lon="10.896583646141583"><ele>100.0</ele><time>2026-03-29T13:40:14Z</time></trkpt><trkpt lat="45.91939521975985" lon="10.896549276791516"><ele>100.0</ele><time>2026-03-29T13:40:15Z</time></trkpt><trkpt lat="45.91923984951668" lon="10.89650763115411"><ele>100.0</ele><time>2026-03-29T13:40:16Z</time></trkpt><trkpt lat="45.91906746712937" lon="10.896461425567384"><ele>100.0</ele><time>2026-03-29T13:40:17Z</time></trkpt><trkpt lat="45.91886002044282" lon="10.896412890350476"><ele>100.0</ele><time>2026-03-29T13:40:18Z</time></trkpt><trkpt lat="45.91864653764308" lon="10.896358059892842"><ele>100.0</ele><time>2026-03-29T13:40:19Z</time></trkpt><trkpt lat="45.91840749704619" lon="10.896284735039893"><ele>100.0</ele><time>2026-03-29T13:40:20Z</time></trkpt><trkpt lat="45.918201723943184" lon="10.896229900113356"><ele>100.33333333333334</ele><time>2026-03-29T13:40:21Z</time></trkpt><trkpt lat="45.91798093200973" lon="10.896171062824848"><ele>100.66666666666666</ele><time>2026-03-29T13:40:22Z</time></trkpt><trkpt lat="45.91776129973681" lon="10.896112534544505"><ele>101.0</ele><time>2026-03-29T13:40:23Z</time></trkpt><trkpt lat="45.917538904608705" lon="10.896052938100295"><ele>101.0</ele><time>2026-03-29T13:40:24Z</time></trkpt><trkpt lat="45.917314608151365" lon="10.895992621667478"><ele>101.0</ele><time>2026-03-29T13:40:25Z</time></trkpt><trkpt lat="45.91709409394199" lon="10.895933322326043"><ele>100.66666666666666</ele><time>2026-03-29T13:40:26Z</time></trkpt><trkpt lat="45.91689589222018" lon="10.895880023116701"><ele>100.33333333333334</ele><time>2026-03-29T13:40:27Z</time></trkpt><trkpt lat="45.91670326658722" lon="10.895828223398842"><ele>100.0</ele><time>2026-03-29T13:40:28Z</time></trkpt><trkpt lat="45.91651086892596" lon="10.89577648498434"><ele>100.0</ele><time>2026-03-29T13:40:29Z</time></trkpt><trkpt lat="45.91633530821844" lon="10.895749929404833"><ele>100.0</ele><time>2026-03-29T13:40:30Z</time></trkpt><trkpt lat="45.91617030724616" lon="10.89568445309981"><ele>100.0</ele><time>2026-03-29T13:40:31Z</time></trkpt><trkpt lat="45.916005919338666" lon="10.895640409037588"><ele>100.0</ele><time>2026-03-29T13:40:32Z</time></trkpt><trkpt lat="45.91584594653325" lon="10.895615545691895"><ele>100.0</ele><time>2026-03-29T13:40:33Z</time></trkpt><trkpt lat="45.915707447469295" lon="10.895581644868079"><ele>100.0</ele><time>2026-03-29T13:40:34Z</time></trkpt><trkpt lat="45.91558391569243" lon="10.895543306590376"><ele>100.0</ele><time>2026-03-29T13:40:35Z</time></trkpt><trkpt lat="45.91546684764922" lon="10.895505040383611"><ele>100.0</ele><time>2026-03-29T13:40:36Z</time></trkpt><trkpt lat="45.91536329263255" lon="10.895462311363664"><ele>100.0</ele><time>2026-03-29T13:40:37Z</time></trkpt><trkpt lat="45.915273594648106" lon="10.895415528225998"><ele>100.0</ele><time>2026-03-29T13:40:38Z</time></trkpt><trkpt lat="45.915201885744075" lon="10.895376972065234"><ele>100.0</ele><time>2026-03-29T13:40:39Z</time></trkpt><trkpt lat="45.91514034499944" lon="10.895334325946825"><ele>100.0</ele><time>2026-03-29T13:40:40Z</time></trkpt><trkpt lat="45.915054756952124" lon="10.895254798921767"><ele>100.0</ele><time>2026-03-29T13:40:42Z</time></trkpt><trkpt lat="45.91498705885618" lon="10.895152176124727"><ele>100.0</ele><time>2026-03-29T13:40:44Z</time></trkpt><trkpt lat="45.91494409183187" lon="10.895058776320182"><ele>100.0</ele><time>2026-03-29T13:40:45Z</time></trkpt><trkpt lat="45.91490634623944" lon="10.894941918665994"><ele>100.0</ele><time>2026-03-29T13:40:46Z</time></trkpt><trkpt lat="45.914856321531445" lon="10.894822911395663"><ele>100.0</ele><time>2026-03-29T13:40:47Z</time></trkpt><trkpt lat="45.91479092220081" lon="10.894720877921987"><ele>99.6</ele><time>2026-03-29T13:40:48Z</time></trkpt><trkpt lat="45.914705382362996" lon="10.89465811925683"><ele>99.2</ele><time>2026-03-29T13:40:49Z</time></trkpt><trkpt lat="45.91461457699562" lon="10.894620850469593"><ele>98.80000000000001</ele><time>2026-03-29T13:40:50Z</time></trkpt><trkpt lat="45.914519250076836" lon="10.894604404260573"><ele>98.4</ele><time>2026-03-29T13:40:51Z</time></trkpt><trkpt lat="45.914424913497776" lon="10.89460046547543"><ele>98.0</ele><time>2026-03-29T13:40:52Z</time></trkpt><trkpt lat="45.91433015276286" lon="10.894622587559521"><ele>98.0</ele><time>2026-03-29T13:40:53Z</time></trkpt><trkpt lat="45.91424347253085" lon="10.894669577410607"><ele>98.0</ele><time>2026-03-29T13:40:54Z</time></trkpt><trkpt lat="45.91414842140679" lon="10.894727269714199"><ele>98.0</ele><time>2026-03-29T13:40:55Z</time></trkpt><trkpt lat="45.91404291855497" lon="10.894756777821339"><ele>98.0</ele><time>2026-03-29T13:40:56Z</time></trkpt><trkpt lat="45.9139250173566" lon="10.894751740180732"><ele>98.0</ele><time>2026-03-29T13:40:57Z</time></trkpt><trkpt lat="45.913813676960054" lon="10.894752897947102"><ele>98.0</ele><time>2026-03-29T13:40:58Z</time></trkpt><trkpt lat="45.91371299353333" lon="10.894601902794406"><ele>98.0</ele><time>2026-03-29T13:40:59Z</time></trkpt><trkpt lat="45.9136084578581" lon="10.894469387839868"><ele>98.0</ele><time>2026-03-29T13:41:00Z</time></trkpt><trkpt lat="45.91348548864507" lon="10.894298717120527"><ele>97.33333333333333</ele><time>2026-03-29T13:41:01Z</time></trkpt><trkpt lat="45.913374029057884" lon="10.894088596634658"><ele>96.66666666666666</ele><time>2026-03-29T13:41:02Z</time></trkpt><trkpt lat="45.91327637894853" lon="10.893842084858003"><ele>96.0</ele><time>2026-03-29T13:41:03Z</time></trkpt><trkpt lat="45.91319818482171" lon="10.893582745325425"><ele>95.33333333333333</ele><time>2026-03-29T13:41:04Z</time></trkpt><trkpt lat="45.91314690776483" lon="10.89329454644834"><ele>94.66666666666666</ele><time>2026-03-29T13:41:05Z</time></trkpt><trkpt lat="45.9131122639204" lon="10.893023926318417"><ele>94.0</ele><time>2026-03-29T13:41:06Z</time></trkpt><trkpt lat="45.913116617013756" lon="10.892746841397567"><ele>93.66666666666666</ele><time>2026-03-29T13:41:07Z</time></trkpt><trkpt lat="45.913132457077566" lon="10.892462097794608"><ele>93.33333333333333</ele><time>2026-03-29T13:41:08Z</time></trkpt><trkpt lat="45.91317523487436" lon="10.892172811308347"><ele>93.0</ele><time>2026-03-29T13:41:09Z</time></trkpt><trkpt lat="45.9132269856652" lon="10.891887632073953"><ele>92.66666666666667</ele><time>2026-03-29T13:41:10Z</time></trkpt><trkpt lat="45.91328566869013" lon="10.891597982751945"><ele>92.33333333333334</ele><time>2026-03-29T13:41:11Z</time></trkpt><trkpt lat="45.913337539195226" lon="10.891344524272924"><ele>92.0</ele><time>2026-03-29T13:41:11.999Z</time></trkpt><trkpt lat="45.91338802295046" lon="10.891098035524879"><ele>90.0</ele><time>2026-03-29T13:41:12.999Z</time></trkpt><trkpt lat="45.91343758532294" lon="10.890856046979755"><ele>88.0</ele><time>2026-03-29T13:41:13.999Z</time></trkpt><trkpt lat="45.91348609058217" lon="10.890619218185607"><ele>86.0</ele><time>2026-03-29T13:41:14.999Z</time></trkpt><trkpt lat="45.91352362827274" lon="10.890373611978138"><ele>86.0</ele><time>2026-03-29T13:41:15.999Z</time></trkpt><trkpt lat="45.913575459385285" lon="10.890136674336492"><ele>86.0</ele><time>2026-03-29T13:41:16.999Z</time></trkpt><trkpt lat="45.91362652101342" lon="10.889903630639733"><ele>86.0</ele><time>2026-03-29T13:41:17.999Z</time></trkpt><trkpt lat="45.91367727710201" lon="10.889670587211537"><ele>86.0</ele><time>2026-03-29T13:41:18.999Z</time></trkpt><trkpt lat="45.91371818015028" lon="10.889436855860628"><ele>86.0</ele><time>2026-03-29T13:41:19.999Z</time></trkpt><trkpt lat="45.91374882738115" lon="10.88919885231238"><ele>86.0</ele><time>2026-03-29T13:41:20.999Z</time></trkpt><trkpt lat="45.91376340844741" lon="10.888948690007755"><ele>86.0</ele><time>2026-03-29T13:41:21.999Z</time></trkpt><trkpt lat="45.91375861605394" lon="10.888694249862956"><ele>86.0</ele><time>2026-03-29T13:41:22.999Z</time></trkpt><trkpt lat="45.913732937772416" lon="10.888440745898306"><ele>86.0</ele><time>2026-03-29T13:41:23.999Z</time></trkpt><trkpt lat="45.913683328155265" lon="10.888187210749212"><ele>85.33333333333334</ele><time>2026-03-29T13:41:24.999Z</time></trkpt><trkpt lat="45.913622958369984" lon="10.887939466228122"><ele>84.66666666666667</ele><time>2026-03-29T13:41:25.999Z</time></trkpt><trkpt lat="45.913541422545656" lon="10.88768842495436"><ele>84.0</ele><time>2026-03-29T13:41:26.999Z</time></trkpt><trkpt lat="45.913442767322074" lon="10.88744381705577"><ele>83.66666666666667</ele><time>2026-03-29T13:41:27.999Z</time></trkpt><trkpt lat="45.91333358080583" lon="10.887209820655404"><ele>83.33333333333334</ele><time>2026-03-29T13:41:28.999Z</time></trkpt><trkpt lat="45.91321832108842" lon="10.88696999572176"><ele>83.0</ele><time>2026-03-29T13:41:29.999Z</time></trkpt><trkpt lat="45.91309731940521" lon="10.886735510763216"><ele>82.66666666666667</ele><time>2026-03-29T13:41:30.999Z</time></trkpt><trkpt lat="45.91297605832561" lon="10.88649699176398"><ele>82.33333333333333</ele><time>2026-03-29T13:41:31.999Z</time></trkpt><trkpt lat="45.91285460198553" lon="10.886259609407993"><ele>82.0</ele><time>2026-03-29T13:41:32.999Z</time></trkpt><trkpt lat="45.91273383753203" lon="10.886020104655424"><ele>82.0</ele><time>2026-03-29T13:41:33.999Z</time></trkpt><trkpt lat="45.91261912379829" lon="10.885808172232544"><ele>82.0</ele><time>2026-03-29T13:41:34.999Z</time></trkpt><trkpt lat="45.91249725179929" lon="10.885610377798612"><ele>82.0</ele><time>2026-03-29T13:41:35.999Z</time></trkpt><trkpt lat="45.91236335719615" lon="10.885422570739664"><ele>82.33333333333333</ele><time>2026-03-29T13:41:36.999Z</time></trkpt><trkpt lat="45.91222591941111" lon="10.88524635618886"><ele>82.66666666666667</ele><time>2026-03-29T13:41:37.999Z</time></trkpt><trkpt lat="45.91209174781801" lon="10.88508211988133"><ele>83.0</ele><time>2026-03-29T13:41:38.999Z</time></trkpt><trkpt lat="45.91195983052492" lon="10.884935476059356"><ele>83.33333333333334</ele><time>2026-03-29T13:41:39.999Z</time></trkpt><trkpt lat="45.91181451266161" lon="10.88479640285748"><ele>83.66666666666667</ele><time>2026-03-29T13:41:40.999Z</time></trkpt><trkpt lat="45.911661703798764" lon="10.884670997926287"><ele>84.0</ele><time>2026-03-29T13:41:41.999Z</time></trkpt><trkpt lat="45.911499898001594" lon="10.884550229921008"><ele>84.0</ele><time>2026-03-29T13:41:42.999Z</time></trkpt><trkpt lat="45.911326204388494" lon="10.884447204569117"><ele>84.0</ele><time>2026-03-29T13:41:43.999Z</time></trkpt><trkpt lat="45.911140514653965" lon="10.88434961548496"><ele>84.0</ele><time>2026-03-29T13:41:44.999Z</time></trkpt><trkpt lat="45.910948264826416" lon="10.88425045332937"><ele>83.33333333333333</ele><time>2026-03-29T13:41:45.999Z</time></trkpt><trkpt lat="45.91076142868259" lon="10.88416525682308"><ele>82.66666666666666</ele><time>2026-03-29T13:41:46.999Z</time></trkpt><trkpt lat="45.91059177258949" lon="10.884082444018407"><ele>82.0</ele><time>2026-03-29T13:41:47.999Z</time></trkpt><trkpt lat="45.910435034133044" lon="10.884000004059912"><ele>82.0</ele><time>2026-03-29T13:41:48.999Z</time></trkpt><trkpt lat="45.91029457293422" lon="10.883920113623919"><ele>82.0</ele><time>2026-03-29T13:41:49.999Z</time></trkpt><trkpt lat="45.9101537737091" lon="10.883841759480005"><ele>82.0</ele><time>2026-03-29T13:41:50.999Z</time></trkpt><trkpt lat="45.9100205424201" lon="10.883753870227256"><ele>82.0</ele><time>2026-03-29T13:41:51.999Z</time></trkpt><trkpt lat="45.90989873283718" lon="10.88364551712002"><ele>81.75</ele><time>2026-03-29T13:41:52.999Z</time></trkpt><trkpt lat="45.90979643834639" lon="10.883498126577885"><ele>81.5</ele><time>2026-03-29T13:41:53.999Z</time></trkpt><trkpt lat="45.90969370793342" lon="10.883361679643922"><ele>81.25</ele><time>2026-03-29T13:41:54.999Z</time></trkpt><trkpt lat="45.909597232024765" lon="10.88321526922111"><ele>81.0</ele><time>2026-03-29T13:41:55.999Z</time></trkpt><trkpt lat="45.9095039242807" lon="10.88305136521866"><ele>81.0</ele><time>2026-03-29T13:41:56.999Z</time></trkpt><trkpt lat="45.90942117471079" lon="10.88286881445752"><ele>81.0</ele><time>2026-03-29T13:41:57.999Z</time></trkpt><trkpt lat="45.90935044826113" lon="10.88268227218796"><ele>81.0</ele><time>2026-03-29T13:41:58.999Z</time></trkpt><trkpt lat="45.9092871748384" lon="10.88248396859324"><ele>80.66666666666667</ele><time>2026-03-29T13:41:59.999Z</time></trkpt><trkpt lat="45.90922142357465" lon="10.882265903199817"><ele>80.33333333333334</ele><time>2026-03-29T13:42:00.999Z</time></trkpt><trkpt lat="45.90914963849005" lon="10.88202318914114"><ele>80.0</ele><time>2026-03-29T13:42:01.999Z</time></trkpt><trkpt lat="45.90906883437295" lon="10.88175015161962"><ele>80.0</ele><time>2026-03-29T13:42:02.999Z</time></trkpt><trkpt lat="45.90899760475112" lon="10.88150685550279"><ele>80.0</ele><time>2026-03-29T13:42:03.999Z</time></trkpt><trkpt lat="45.90892290754645" lon="10.881302045967118"><ele>80.0</ele><time>2026-03-29T13:42:04.999Z</time></trkpt><trkpt lat="45.90888122746077" lon="10.881126447940058"><ele>80.0</ele><time>2026-03-29T13:42:05.999Z</time></trkpt><trkpt lat="45.90886790864568" lon="10.880961776773983"><ele>80.0</ele><time>2026-03-29T13:42:07Z</time></trkpt><trkpt lat="45.90886247892279" lon="10.880827059636871"><ele>80.0</ele><time>2026-03-29T13:42:08Z</time></trkpt><trkpt lat="45.90886030289257" lon="10.880724452893292"><ele>80.0</ele><time>2026-03-29T13:42:09Z</time></trkpt><trkpt lat="45.9088640433267" lon="10.88059151780807"><ele>80.0</ele><time>2026-03-29T13:42:11Z</time></trkpt><trkpt lat="45.90886767678287" lon="10.8804347856846"><ele>80.0</ele><time>2026-03-29T13:42:13Z</time></trkpt><trkpt lat="45.908915319774835" lon="10.880326493948868"><ele>80.0</ele><time>2026-03-29T13:42:15Z</time></trkpt><trkpt lat="45.9089928654901" lon="10.880176811020567"><ele>80.0</ele><time>2026-03-29T13:42:17Z</time></trkpt><trkpt lat="45.90905818572273" lon="10.880081048413999"><ele>80.0</ele><time>2026-03-29T13:42:18Z</time></trkpt><trkpt lat="45.90912520151296" lon="10.879954540286851"><ele>80.0</ele><time>2026-03-29T13:42:19Z</time></trkpt><trkpt lat="45.9091683676357" lon="10.879783982753883"><ele>80.0</ele><time>2026-03-29T13:42:20Z</time></trkpt><trkpt lat="45.90920206818766" lon="10.879607813629889"><ele>80.0</ele><time>2026-03-29T13:42:21Z</time></trkpt><trkpt lat="45.909218949471004" lon="10.879462041303634"><ele>80.0</ele><time>2026-03-29T13:42:22Z</time></trkpt><trkpt lat="45.90921138948208" lon="10.879319300117627"><ele>80.0</ele><time>2026-03-29T13:42:23Z</time></trkpt><trkpt lat="45.909162351223785" lon="10.879179806826036"><ele>80.0</ele><time>2026-03-29T13:42:24Z</time></trkpt><trkpt lat="45.909083316453106" lon="10.879053805830916"><ele>80.0</ele><time>2026-03-29T13:42:25Z</time></trkpt><trkpt lat="45.9089974016742" lon="10.878963445952378"><ele>80.0</ele><time>2026-03-29T13:42:26Z</time></trkpt><trkpt lat="45.909047635485855" lon="10.878656820130548"><ele>80.0</ele><time>2026-03-29T13:42:27Z</time></trkpt><trkpt lat="45.909090549026395" lon="10.87845891377927"><ele>80.33333333333334</ele><time>2026-03-29T13:42:28Z</time></trkpt><trkpt lat="45.90911565794355" lon="10.878229180927933"><ele>80.66666666666667</ele><time>2026-03-29T13:42:29Z</time></trkpt><trkpt lat="45.90915510757029" lon="10.877987132167037"><ele>81.0</ele><time>2026-03-29T13:42:30Z</time></trkpt><trkpt lat="45.90918924074938" lon="10.877731800778697"><ele>81.0</ele><time>2026-03-29T13:42:31Z</time></trkpt><trkpt lat="45.909229258953424" lon="10.87745068734723"><ele>81.0</ele><time>2026-03-29T13:42:32Z</time></trkpt><trkpt lat="45.90927775413282" lon="10.877151431715083"><ele>81.0</ele><time>2026-03-29T13:42:33Z</time></trkpt><trkpt lat="45.90931922280545" lon="10.87680301138079"><ele>80.66666666666667</ele><time>2026-03-29T13:42:34Z</time></trkpt><trkpt lat="45.90937198291169" lon="10.876464130913824"><ele>80.33333333333334</ele><time>2026-03-29T13:42:35Z</time></trkpt><trkpt lat="45.909411227743746" lon="10.876191186399058"><ele>80.0</ele><time>2026-03-29T13:42:36Z</time></trkpt><trkpt lat="45.909442976568954" lon="10.875952664174852"><ele>80.33333333333334</ele><time>2026-03-29T13:42:37Z</time></trkpt><trkpt lat="45.90947694184405" lon="10.875733861430765"><ele>80.66666666666667</ele><time>2026-03-29T13:42:38Z</time></trkpt><trkpt lat="45.909511249819296" lon="10.875517437519834"><ele>81.0</ele><time>2026-03-29T13:42:39Z</time></trkpt><trkpt lat="45.90954318704429" lon="10.875306485195884"><ele>81.0</ele><time>2026-03-29T13:42:40Z</time></trkpt><trkpt lat="45.9095747891138" lon="10.875104544594132"><ele>81.0</ele><time>2026-03-29T13:42:41Z</time></trkpt><trkpt lat="45.90960086083233" lon="10.874903365163583"><ele>81.0</ele><time>2026-03-29T13:42:42Z</time></trkpt><trkpt lat="45.909629594763146" lon="10.8747114860777"><ele>81.0</ele><time>2026-03-29T13:42:43Z</time></trkpt><trkpt lat="45.909656619323556" lon="10.874520154601695"><ele>81.0</ele><time>2026-03-29T13:42:44Z</time></trkpt><trkpt lat="45.909683718382695" lon="10.874330387079459"><ele>81.0</ele><time>2026-03-29T13:42:45Z</time></trkpt><trkpt lat="45.90970791183224" lon="10.874147038918643"><ele>81.0</ele><time>2026-03-29T13:42:46Z</time></trkpt><trkpt lat="45.909730057591354" lon="10.873992083454095"><ele>81.0</ele><time>2026-03-29T13:42:47Z</time></trkpt><trkpt lat="45.90975238435197" lon="10.873845527499796"><ele>81.0</ele><time>2026-03-29T13:42:48Z</time></trkpt><trkpt lat="45.90977177070269" lon="10.873708216033705"><ele>81.0</ele><time>2026-03-29T13:42:49Z</time></trkpt><trkpt lat="45.90979333797399" lon="10.873566858626587"><ele>81.0</ele><time>2026-03-29T13:42:50Z</time></trkpt><trkpt lat="45.909809035620945" lon="10.87344253706102"><ele>81.0</ele><time>2026-03-29T13:42:51Z</time></trkpt><trkpt lat="45.90982654785372" lon="10.873321190362445"><ele>81.0</ele><time>2026-03-29T13:42:52Z</time></trkpt><trkpt lat="45.90984577395308" lon="10.873185638022226"><ele>81.0</ele><time>2026-03-29T13:42:53Z</time></trkpt><trkpt lat="45.90986553740462" lon="10.873051038355806"><ele>81.0</ele><time>2026-03-29T13:42:54Z</time></trkpt><trkpt lat="45.90988231122975" lon="10.872940425134106"><ele>81.0</ele><time>2026-03-29T13:42:55Z</time></trkpt><trkpt lat="45.90989938518131" lon="10.872836228079224"><ele>81.0</ele><time>2026-03-29T13:42:56Z</time></trkpt><trkpt lat="45.90992027410609" lon="10.87268250759475"><ele>81.0</ele><time>2026-03-29T13:42:58Z</time></trkpt><trkpt lat="45.909939198157176" lon="10.872548484188995"><ele>80.8</ele><time>2026-03-29T13:43:01Z</time></trkpt><trkpt lat="45.90996754259763" lon="10.872396187217475"><ele>80.6</ele><time>2026-03-29T13:43:03Z</time></trkpt><trkpt lat="45.91002348542796" lon="10.87227998954962"><ele>80.4</ele><time>2026-03-29T13:43:05Z</time></trkpt><trkpt lat="45.91010542560395" lon="10.872212352700151"><ele>80.2</ele><time>2026-03-29T13:43:07Z</time></trkpt><trkpt lat="45.91023515704551" lon="10.872151815457288"><ele>80.0</ele><time>2026-03-29T13:43:09Z</time></trkpt><trkpt lat="45.910316978409355" lon="10.87208300645989"><ele>80.0</ele><time>2026-03-29T13:43:10Z</time></trkpt><trkpt lat="45.91036776725484" lon="10.87197605077508"><ele>80.0</ele><time>2026-03-29T13:43:11Z</time></trkpt><trkpt lat="45.9103873464614" lon="10.871833248847715"><ele>80.0</ele><time>2026-03-29T13:43:12Z</time></trkpt><trkpt lat="45.910351319724555" lon="10.87168325088291"><ele>80.0</ele><time>2026-03-29T13:43:13Z</time></trkpt><trkpt lat="45.91026713698542" lon="10.871563235425914"><ele>80.0</ele><time>2026-03-29T13:43:14Z</time></trkpt><trkpt lat="45.910181796240714" lon="10.871453268811486"><ele>79.8</ele><time>2026-03-29T13:43:15Z</time></trkpt><trkpt lat="45.91009855844257" lon="10.871329303986633"><ele>79.6</ele><time>2026-03-29T13:43:16Z</time></trkpt><trkpt lat="45.91002641348301" lon="10.871226959800275"><ele>79.4</ele><time>2026-03-29T13:43:17Z</time></trkpt><trkpt lat="45.90995686070844" lon="10.871109552156128"><ele>79.2</ele><time>2026-03-29T13:43:18Z</time></trkpt><trkpt lat="45.90988397103717" lon="10.870998491936275"><ele>79.0</ele><time>2026-03-29T13:43:19Z</time></trkpt><trkpt lat="45.90981294852083" lon="10.870877593911299"><ele>79.6</ele><time>2026-03-29T13:43:20Z</time></trkpt><trkpt lat="45.90974077219516" lon="10.870753966827653"><ele>80.2</ele><time>2026-03-29T13:43:21Z</time></trkpt><trkpt lat="45.90966816592547" lon="10.870636253660711"><ele>80.8</ele><time>2026-03-29T13:43:22Z</time></trkpt><trkpt lat="45.90959936263779" lon="10.870521682186228"><ele>81.39999999999999</ele><time>2026-03-29T13:43:23Z</time></trkpt><trkpt lat="45.90954127226441" lon="10.87043386826689"><ele>82.0</ele><time>2026-03-29T13:43:24Z</time></trkpt><trkpt lat="45.909483766011455" lon="10.870346621293749"><ele>82.0</ele><time>2026-03-29T13:43:25Z</time></trkpt><trkpt lat="45.90942594936211" lon="10.870252060987868"><ele>82.0</ele><time>2026-03-29T13:43:25.999Z</time></trkpt><trkpt lat="45.90936215392104" lon="10.870151553899412"><ele>82.0</ele><time>2026-03-29T13:43:26.999Z</time></trkpt><trkpt lat="45.90929641993124" lon="10.870048792179304"><ele>82.0</ele><time>2026-03-29T13:43:27.999Z</time></trkpt><trkpt lat="45.90923203437228" lon="10.86994943416874"><ele>82.0</ele><time>2026-03-29T13:43:28.999Z</time></trkpt><trkpt lat="45.90917826840401" lon="10.869864595452368"><ele>81.39999999999999</ele><time>2026-03-29T13:43:29.999Z</time></trkpt><trkpt lat="45.90912073065704" lon="10.869777169726719"><ele>80.8</ele><time>2026-03-29T13:43:30.999Z</time></trkpt><trkpt lat="45.90906185026824" lon="10.869683634418193"><ele>80.2</ele><time>2026-03-29T13:43:31.999Z</time></trkpt><trkpt lat="45.90899743593016" lon="10.869583239512213"><ele>79.6</ele><time>2026-03-29T13:43:32.999Z</time></trkpt><trkpt lat="45.90892533829561" lon="10.86947874752029"><ele>79.0</ele><time>2026-03-29T13:43:33.999Z</time></trkpt><trkpt lat="45.90885894541249" lon="10.869373261671097"><ele>79.0</ele><time>2026-03-29T13:43:34.999Z</time></trkpt><trkpt lat="45.908799721627524" lon="10.869278703401763"><ele>79.0</ele><time>2026-03-29T13:43:35.999Z</time></trkpt><trkpt lat="45.90874230529443" lon="10.869195676377288"><ele>79.0</ele><time>2026-03-29T13:43:36.999Z</time></trkpt><trkpt lat="45.90868945666781" lon="10.86911608358381"><ele>79.0</ele><time>2026-03-29T13:43:37.999Z</time></trkpt><trkpt lat="45.90864039426125" lon="10.869035854283913"><ele>79.0</ele><time>2026-03-29T13:43:38.999Z</time></trkpt><trkpt lat="45.9085847318154" lon="10.868953065056452"><ele>79.0</ele><time>2026-03-29T13:43:39.999Z</time></trkpt><trkpt lat="45.90852802366402" lon="10.868871627432695"><ele>78.83333333333333</ele><time>2026-03-29T13:43:40.999Z</time></trkpt><trkpt lat="45.908476359176525" lon="10.86879668171971"><ele>78.66666666666666</ele><time>2026-03-29T13:43:41.999Z</time></trkpt><trkpt lat="45.90842730167722" lon="10.868719662145834"><ele>78.5</ele><time>2026-03-29T13:43:42.999Z</time></trkpt><trkpt lat="45.908371491777565" lon="10.868648469390083"><ele>78.33333333333333</ele><time>2026-03-29T13:43:43.999Z</time></trkpt><trkpt lat="45.90830147475402" lon="10.868549941492937"><ele>78.16666666666667</ele><time>2026-03-29T13:43:45.999Z</time></trkpt><trkpt lat="45.9082554849095" lon="10.868478136185587"><ele>78.0</ele><time>2026-03-29T13:43:57.999Z</time></trkpt><trkpt lat="45.90818665022368" lon="10.868388994439602"><ele>78.0</ele><time>2026-03-29T13:44:00.999Z</time></trkpt><trkpt lat="45.90812274223866" lon="10.868294411602927"><ele>78.0</ele><time>2026-03-29T13:44:02.999Z</time></trkpt><trkpt lat="45.90803356674172" lon="10.868162303927368"><ele>78.0</ele><time>2026-03-29T13:44:04.999Z</time></trkpt><trkpt lat="45.90798496859147" lon="10.8680935004826"><ele>78.0</ele><time>2026-03-29T13:44:05.999Z</time></trkpt><trkpt lat="45.907910229252444" lon="10.867984479059121"><ele>78.0</ele><time>2026-03-29T13:44:07.999Z</time></trkpt><trkpt lat="45.907815699096474" lon="10.867851588539875"><ele>78.0</ele><time>2026-03-29T13:44:09.999Z</time></trkpt><trkpt lat="45.90775792545308" lon="10.867777058639131"><ele>78.0</ele><time>2026-03-29T13:44:10.999Z</time></trkpt><trkpt lat="45.90770149957871" lon="10.867700726190273"><ele>78.0</ele><time>2026-03-29T13:44:11.999Z</time></trkpt><trkpt lat="45.907650902628696" lon="10.867618640082851"><ele>78.0</ele><time>2026-03-29T13:44:13Z</time></trkpt><trkpt lat="45.90760751033226" lon="10.867529491893801"><ele>78.0</ele><time>2026-03-29T13:44:14Z</time></trkpt><trkpt lat="45.90757255018767" lon="10.867426210274266"><ele>78.0</ele><time>2026-03-29T13:44:15Z</time></trkpt><trkpt lat="45.907546062964514" lon="10.867308405226144"><ele>77.66666666666667</ele><time>2026-03-29T13:44:16Z</time></trkpt><trkpt lat="45.907527960466055" lon="10.86721050339444"><ele>77.33333333333333</ele><time>2026-03-29T13:44:17Z</time></trkpt><trkpt lat="45.90748980828541" lon="10.867109248243912"><ele>77.0</ele><time>2026-03-29T13:44:18Z</time></trkpt><trkpt lat="45.90742164783964" lon="10.867041367396054"><ele>76.66666666666666</ele><time>2026-03-29T13:44:19Z</time></trkpt><trkpt lat="45.90734344830734" lon="10.867007671795486"><ele>76.33333333333333</ele><time>2026-03-29T13:44:20Z</time></trkpt><trkpt lat="45.90726700710285" lon="10.867001524711103"><ele>76.0</ele><time>2026-03-29T13:44:21Z</time></trkpt><trkpt lat="45.907189774340964" lon="10.86700787242023"><ele>76.0</ele><time>2026-03-29T13:44:22Z</time></trkpt><trkpt lat="45.90712536024153" lon="10.867056052407445"><ele>76.0</ele><time>2026-03-29T13:44:23Z</time></trkpt><trkpt lat="45.90703875408457" lon="10.866940564684878"><ele>76.0</ele><time>2026-03-29T13:44:24Z</time></trkpt><trkpt lat="45.90697032051075" lon="10.866871788836804"><ele>76.0</ele><time>2026-03-29T13:44:25Z</time></trkpt><trkpt lat="45.90688708270355" lon="10.866781703592395"><ele>76.0</ele><time>2026-03-29T13:44:26Z</time></trkpt><trkpt lat="45.906779185953106" lon="10.866651354767914"><ele>76.0</ele><time>2026-03-29T13:44:27Z</time></trkpt><trkpt lat="45.90664850323018" lon="10.866480305021948"><ele>76.0</ele><time>2026-03-29T13:44:28Z</time></trkpt><trkpt lat="45.90651423754207" lon="10.866292408255223"><ele>76.0</ele><time>2026-03-29T13:44:29Z</time></trkpt><trkpt lat="45.90639613317898" lon="10.866132082882558"><ele>76.0</ele><time>2026-03-29T13:44:30Z</time></trkpt><trkpt lat="45.90628109107619" lon="10.86599475049592"><ele>76.0</ele><time>2026-03-29T13:44:31Z</time></trkpt><trkpt lat="45.90616761881541" lon="10.8658545312866"><ele>76.0</ele><time>2026-03-29T13:44:32Z</time></trkpt><trkpt lat="45.9060580970017" lon="10.865707719937726"><ele>76.0</ele><time>2026-03-29T13:44:33Z</time></trkpt><trkpt lat="45.905955720364005" lon="10.865576396753893"><ele>76.25</ele><time>2026-03-29T13:44:34Z</time></trkpt><trkpt lat="45.90585327719119" lon="10.865455084313723"><ele>76.5</ele><time>2026-03-29T13:44:35Z</time></trkpt><trkpt lat="45.905749949389076" lon="10.86533579491844"><ele>76.75</ele><time>2026-03-29T13:44:36Z</time></trkpt><trkpt lat="45.9056561004833" lon="10.865210903470604"><ele>77.0</ele><time>2026-03-29T13:44:37Z</time></trkpt><trkpt lat="45.90555962348964" lon="10.8650872180351"><ele>76.5</ele><time>2026-03-29T13:44:38Z</time></trkpt><trkpt lat="45.90546465195425" lon="10.8649632203806"><ele>76.0</ele><time>2026-03-29T13:44:39Z</time></trkpt><trkpt lat="45.90536745176722" lon="10.864840472424387"><ele>75.5</ele><time>2026-03-29T13:44:40Z</time></trkpt><trkpt lat="45.90527503763839" lon="10.864718106096477"><ele>75.0</ele><time>2026-03-29T13:44:41Z</time></trkpt><trkpt lat="45.905189335277505" lon="10.864595658214562"><ele>75.0</ele><time>2026-03-29T13:44:42Z</time></trkpt><trkpt lat="45.90508854910915" lon="10.864477983026104"><ele>75.0</ele><time>2026-03-29T13:44:43Z</time></trkpt><trkpt lat="45.90499806460197" lon="10.86436272424691"><ele>75.0</ele><time>2026-03-29T13:44:44Z</time></trkpt><trkpt lat="45.904907068633804" lon="10.864252695047345"><ele>75.0</ele><time>2026-03-29T13:44:45Z</time></trkpt><trkpt lat="45.90481827454424" lon="10.864144323741506"><ele>75.0</ele><time>2026-03-29T13:44:46Z</time></trkpt><trkpt lat="45.90473670537152" lon="10.864037069178874"><ele>75.0</ele><time>2026-03-29T13:44:47Z</time></trkpt><trkpt lat="45.90466570259211" lon="10.86394389509758"><ele>75.0</ele><time>2026-03-29T13:44:48Z</time></trkpt><trkpt lat="45.904595395223524" lon="10.86384128038037"><ele>75.0</ele><time>2026-03-29T13:44:49Z</time></trkpt><trkpt lat="45.904518574369924" lon="10.863735279353136"><ele>75.0</ele><time>2026-03-29T13:44:50Z</time></trkpt><trkpt lat="45.904438939153444" lon="10.863607358814077"><ele>75.0</ele><time>2026-03-29T13:44:51Z</time></trkpt><trkpt lat="45.90435895926157" lon="10.863470665900952"><ele>75.0</ele><time>2026-03-29T13:44:52Z</time></trkpt><trkpt lat="45.90426973551735" lon="10.863340228370554"><ele>75.0</ele><time>2026-03-29T13:44:53Z</time></trkpt><trkpt lat="45.90418287816646" lon="10.86319948682166"><ele>75.0</ele><time>2026-03-29T13:44:54Z</time></trkpt><trkpt lat="45.90409627972315" lon="10.86305719573749"><ele>75.25</ele><time>2026-03-29T13:44:55Z</time></trkpt><trkpt lat="45.904017460041985" lon="10.862925763557646"><ele>75.5</ele><time>2026-03-29T13:44:56Z</time></trkpt><trkpt lat="45.90393841584736" lon="10.862798631776414"><ele>75.75</ele><time>2026-03-29T13:44:57Z</time></trkpt><trkpt lat="45.903857069089675" lon="10.862662736231002"><ele>76.0</ele><time>2026-03-29T13:44:58Z</time></trkpt><trkpt lat="45.90377930542072" lon="10.86253259561274"><ele>76.25</ele><time>2026-03-29T13:44:59Z</time></trkpt><trkpt lat="45.90370258639319" lon="10.862399321556056"><ele>76.5</ele><time>2026-03-29T13:45:00Z</time></trkpt><trkpt lat="45.90363586790991" lon="10.862272729766458"><ele>76.75</ele><time>2026-03-29T13:45:01Z</time></trkpt><trkpt lat="45.90355871924054" lon="10.862139961647783"><ele>77.0</ele><time>2026-03-29T13:45:02Z</time></trkpt><trkpt lat="45.903480778869664" lon="10.862013063340585"><ele>76.8</ele><time>2026-03-29T13:45:03Z</time></trkpt><trkpt lat="45.90340910020466" lon="10.86188952146447"><ele>76.6</ele><time>2026-03-29T13:45:04Z</time></trkpt><trkpt lat="45.90333447342196" lon="10.861763913274464"><ele>76.39999999999999</ele><time>2026-03-29T13:45:05Z</time></trkpt><trkpt lat="45.90327751859586" lon="10.861665636378518"><ele>76.2</ele><time>2026-03-29T13:45:06Z</time></trkpt><trkpt lat="45.90323518279476" lon="10.861592996032767"><ele>76.0</ele><time>2026-03-29T13:45:07Z</time></trkpt><trkpt lat="45.90316514785318" lon="10.861482951992834"><ele>76.0</ele><time>2026-03-29T13:45:09Z</time></trkpt><trkpt lat="45.90311869718511" lon="10.861412416268989"><ele>76.0</ele><time>2026-03-29T13:45:10Z</time></trkpt><trkpt lat="45.903040934338485" lon="10.86124375695795"><ele>76.0</ele><time>2026-03-29T13:45:12Z</time></trkpt><trkpt lat="45.90297711120898" lon="10.861131156258054"><ele>76.0</ele><time>2026-03-29T13:45:13Z</time></trkpt><trkpt lat="45.902901856127464" lon="10.86099838764761"><ele>76.0</ele><time>2026-03-29T13:45:14Z</time></trkpt><trkpt lat="45.90282045100891" lon="10.86085476838816"><ele>76.8</ele><time>2026-03-29T13:45:15Z</time></trkpt><trkpt lat="45.902733509180834" lon="10.86073803053909"><ele>77.6</ele><time>2026-03-29T13:45:16Z</time></trkpt><trkpt lat="45.90266571643407" lon="10.860619591396675"><ele>78.4</ele><time>2026-03-29T13:45:17Z</time></trkpt><trkpt lat="45.90260025308378" lon="10.86050437418694"><ele>79.2</ele><time>2026-03-29T13:45:18Z</time></trkpt><trkpt lat="45.90253725208331" lon="10.860384781660846"><ele>80.0</ele><time>2026-03-29T13:45:19Z</time></trkpt><trkpt lat="45.902473248613276" lon="10.860272679826435"><ele>80.0</ele><time>2026-03-29T13:45:20Z</time></trkpt><trkpt lat="45.9024165084866" lon="10.8601608066819"><ele>80.0</ele><time>2026-03-29T13:45:21Z</time></trkpt><trkpt lat="45.90234821171795" lon="10.860050935477355"><ele>80.0</ele><time>2026-03-29T13:45:22Z</time></trkpt><trkpt lat="45.902281354797125" lon="10.859940298766155"><ele>80.0</ele><time>2026-03-29T13:45:23Z</time></trkpt><trkpt lat="45.902201487287975" lon="10.859812869333279"><ele>80.0</ele><time>2026-03-29T13:45:24Z</time></trkpt><trkpt lat="45.90211848285985" lon="10.859671675558479"><ele>80.0</ele><time>2026-03-29T13:45:25Z</time></trkpt><trkpt lat="45.902053784899174" lon="10.859552010631713"><ele>80.0</ele><time>2026-03-29T13:45:26Z</time></trkpt><trkpt lat="45.90199653414005" lon="10.859450187449191"><ele>80.0</ele><time>2026-03-29T13:45:27Z</time></trkpt><trkpt lat="45.901936246615186" lon="10.85934985189401"><ele>80.0</ele><time>2026-03-29T13:45:28Z</time></trkpt><trkpt lat="45.90187715730615" lon="10.859247591413974"><ele>80.0</ele><time>2026-03-29T13:45:29Z</time></trkpt><trkpt lat="45.90181922067952" lon="10.859147003480016"><ele>80.0</ele><time>2026-03-29T13:45:30Z</time></trkpt><trkpt lat="45.90176183225967" lon="10.859046560940882"><ele>80.0</ele><time>2026-03-29T13:45:31Z</time></trkpt><trkpt lat="45.90170936893033" lon="10.858945465500769"><ele>80.0</ele><time>2026-03-29T13:45:32Z</time></trkpt><trkpt lat="45.90164641304197" lon="10.85884571073782"><ele>80.0</ele><time>2026-03-29T13:45:33Z</time></trkpt><trkpt lat="45.901579560358456" lon="10.858733550416376"><ele>80.0</ele><time>2026-03-29T13:45:34Z</time></trkpt><trkpt lat="45.90151246368114" lon="10.85861812028303"><ele>80.0</ele><time>2026-03-29T13:45:35Z</time></trkpt><trkpt lat="45.90144226768973" lon="10.858496488863477"><ele>80.0</ele><time>2026-03-29T13:45:36Z</time></trkpt><trkpt lat="45.90137311221126" lon="10.858367644206703"><ele>80.0</ele><time>2026-03-29T13:45:37Z</time></trkpt><trkpt lat="45.90129780494779" lon="10.858238230020376"><ele>80.0</ele><time>2026-03-29T13:45:38Z</time></trkpt><trkpt lat="45.901223857203576" lon="10.858104982942253"><ele>80.25</ele><time>2026-03-29T13:45:38.999Z</time></trkpt><trkpt lat="45.901153522032914" lon="10.857969450872085"><ele>80.5</ele><time>2026-03-29T13:45:39.999Z</time></trkpt><trkpt lat="45.901082570809194" lon="10.85785424535252"><ele>80.75</ele><time>2026-03-29T13:45:40.999Z</time></trkpt><trkpt lat="45.90101115763691" lon="10.857734670026236"><ele>81.0</ele><time>2026-03-29T13:45:41.999Z</time></trkpt><trkpt lat="45.90093483841315" lon="10.857610606837039"><ele>81.0</ele><time>2026-03-29T13:45:42.999Z</time></trkpt><trkpt lat="45.90085932042668" lon="10.857484049670763"><ele>81.0</ele><time>2026-03-29T13:45:43.999Z</time></trkpt><trkpt lat="45.9007797236477" lon="10.857352881845005"><ele>81.0</ele><time>2026-03-29T13:45:44.999Z</time></trkpt><trkpt lat="45.90070202050526" lon="10.857222445274125"><ele>81.0</ele><time>2026-03-29T13:45:45.999Z</time></trkpt><trkpt lat="45.90062398739622" lon="10.857091451322555"><ele>81.0</ele><time>2026-03-29T13:45:46.999Z</time></trkpt><trkpt lat="45.9005476264772" lon="10.856968207170354"><ele>81.0</ele><time>2026-03-29T13:45:47.999Z</time></trkpt><trkpt lat="45.900476094907674" lon="10.856843583630253"><ele>81.0</ele><time>2026-03-29T13:45:48.999Z</time></trkpt><trkpt lat="45.90041039410784" lon="10.856722201184642"><ele>81.0</ele><time>2026-03-29T13:45:49.999Z</time></trkpt><trkpt lat="45.9003439352568" lon="10.856606082191117"><ele>81.0</ele><time>2026-03-29T13:45:50.999Z</time></trkpt><trkpt lat="45.900273764383265" lon="10.856488186892891"><ele>81.25</ele><time>2026-03-29T13:45:51.999Z</time></trkpt><trkpt lat="45.900199838474485" lon="10.85637111645338"><ele>81.5</ele><time>2026-03-29T13:45:52.999Z</time></trkpt><trkpt lat="45.900127566760005" lon="10.856244487986768"><ele>81.75</ele><time>2026-03-29T13:45:53.999Z</time></trkpt><trkpt lat="45.90005305436665" lon="10.856114253321756"><ele>82.0</ele><time>2026-03-29T13:45:54.999Z</time></trkpt><trkpt lat="45.89997781635228" lon="10.855986930293982"><ele>82.5</ele><time>2026-03-29T13:45:55.999Z</time></trkpt><trkpt lat="45.89989892096481" lon="10.855860326504008"><ele>83.0</ele><time>2026-03-29T13:45:56.999Z</time></trkpt><trkpt lat="45.89982613232251" lon="10.855727820123136"><ele>83.5</ele><time>2026-03-29T13:45:57.999Z</time></trkpt><trkpt lat="45.89975519926025" lon="10.855599932609888"><ele>84.0</ele><time>2026-03-29T13:45:58.999Z</time></trkpt><trkpt lat="45.89968645129021" lon="10.855476194268904"><ele>84.0</ele><time>2026-03-29T13:45:59.999Z</time></trkpt><trkpt lat="45.89961796896657" lon="10.855363624717535"><ele>84.0</ele><time>2026-03-29T13:46:00.999Z</time></trkpt><trkpt lat="45.89954916068523" lon="10.855250628341087"><ele>84.0</ele><time>2026-03-29T13:46:01.999Z</time></trkpt><trkpt lat="45.899485856946214" lon="10.855137067374715"><ele>84.0</ele><time>2026-03-29T13:46:02.999Z</time></trkpt><trkpt lat="45.89942495007385" lon="10.855020912224687"><ele>84.0</ele><time>2026-03-29T13:46:03.999Z</time></trkpt><trkpt lat="45.89936180182525" lon="10.854906427127231"><ele>84.0</ele><time>2026-03-29T13:46:04.999Z</time></trkpt><trkpt lat="45.89930064921152" lon="10.854794306265815"><ele>84.0</ele><time>2026-03-29T13:46:05.999Z</time></trkpt><trkpt lat="45.89923864588428" lon="10.854684537594547"><ele>84.0</ele><time>2026-03-29T13:46:06.999Z</time></trkpt><trkpt lat="45.89917418787372" lon="10.854574902487979"><ele>84.0</ele><time>2026-03-29T13:46:07.999Z</time></trkpt><trkpt lat="45.899102672303705" lon="10.854452321063969"><ele>84.0</ele><time>2026-03-29T13:46:08.999Z</time></trkpt><trkpt lat="45.89903117677692" lon="10.85432037523612"><ele>85.25</ele><time>2026-03-29T13:46:09.999Z</time></trkpt><trkpt lat="45.89895299033141" lon="10.854188934710887"><ele>86.5</ele><time>2026-03-29T13:46:10.999Z</time></trkpt><trkpt lat="45.89887150065102" lon="10.854056041474834"><ele>87.75</ele><time>2026-03-29T13:46:11.999Z</time></trkpt><trkpt lat="45.89879355635552" lon="10.85392164986163"><ele>89.0</ele><time>2026-03-29T13:46:12.999Z</time></trkpt><trkpt lat="45.898718115180735" lon="10.85378204616569"><ele>89.0</ele><time>2026-03-29T13:46:13.999Z</time></trkpt><trkpt lat="45.898647557174534" lon="10.85366980940274"><ele>89.0</ele><time>2026-03-29T13:46:14.999Z</time></trkpt><trkpt lat="45.89857955483313" lon="10.85356493769671"><ele>89.0</ele><time>2026-03-29T13:46:15.999Z</time></trkpt><trkpt lat="45.898507890643614" lon="10.853455177963419"><ele>89.0</ele><time>2026-03-29T13:46:16.999Z</time></trkpt><trkpt lat="45.89843364899823" lon="10.853348899656778"><ele>89.0</ele><time>2026-03-29T13:46:17.999Z</time></trkpt><trkpt lat="45.898353300120746" lon="10.853238485730172"><ele>89.5</ele><time>2026-03-29T13:46:19Z</time></trkpt><trkpt lat="45.89827374259107" lon="10.853123122234223"><ele>90.0</ele><time>2026-03-29T13:46:20Z</time></trkpt><trkpt lat="45.89819110134273" lon="10.85301051059671"><ele>90.5</ele><time>2026-03-29T13:46:21Z</time></trkpt><trkpt lat="45.89810046218513" lon="10.852903249079292"><ele>91.0</ele><time>2026-03-29T13:46:22Z</time></trkpt><trkpt lat="45.8980128765145" lon="10.852794809162003"><ele>91.0</ele><time>2026-03-29T13:46:23Z</time></trkpt><trkpt lat="45.89793411082917" lon="10.85270480233877"><ele>91.0</ele><time>2026-03-29T13:46:24Z</time></trkpt><trkpt lat="45.89786272784437" lon="10.852630848327864"><ele>91.0</ele><time>2026-03-29T13:46:25Z</time></trkpt><trkpt lat="45.89779233006623" lon="10.852565312715795"><ele>91.0</ele><time>2026-03-29T13:46:26Z</time></trkpt><trkpt lat="45.897726969401944" lon="10.852505145464976"><ele>91.0</ele><time>2026-03-29T13:46:27Z</time></trkpt><trkpt lat="45.897670943298195" lon="10.852452615168165"><ele>91.0</ele><time>2026-03-29T13:46:28Z</time></trkpt><trkpt lat="45.89757166347879" lon="10.852367681372577"><ele>90.8</ele><time>2026-03-29T13:46:30Z</time></trkpt><trkpt lat="45.8974583847974" lon="10.852257623074186"><ele>90.6</ele><time>2026-03-29T13:46:32Z</time></trkpt><trkpt lat="45.897391841301264" lon="10.852181894888513"><ele>90.4</ele><time>2026-03-29T13:46:33Z</time></trkpt><trkpt lat="45.897323425131816" lon="10.852095913062373"><ele>90.2</ele><time>2026-03-29T13:46:34Z</time></trkpt><trkpt lat="45.89724223758979" lon="10.852015934451929"><ele>90.0</ele><time>2026-03-29T13:46:35Z</time></trkpt><trkpt lat="45.8971679428303" lon="10.851942765704317"><ele>90.0</ele><time>2026-03-29T13:46:36Z</time></trkpt><trkpt lat="45.89708968293262" lon="10.851872094499756"><ele>90.0</ele><time>2026-03-29T13:46:37Z</time></trkpt><trkpt lat="45.89700991786316" lon="10.851793268240678"><ele>90.0</ele><time>2026-03-29T13:46:38Z</time></trkpt><trkpt lat="45.896925958656" lon="10.851710250261705"><ele>90.0</ele><time>2026-03-29T13:46:39Z</time></trkpt><trkpt lat="45.89684216159111" lon="10.851623738605111"><ele>90.0</ele><time>2026-03-29T13:46:40Z</time></trkpt><trkpt lat="45.896753029835956" lon="10.851539410489584"><ele>90.2</ele><time>2026-03-29T13:46:41Z</time></trkpt><trkpt lat="45.896670793503674" lon="10.851452675449478"><ele>90.4</ele><time>2026-03-29T13:46:42Z</time></trkpt><trkpt lat="45.89658583979177" lon="10.851362797269912"><ele>90.6</ele><time>2026-03-29T13:46:43Z</time></trkpt><trkpt lat="45.89649690089107" lon="10.851275918848991"><ele>90.8</ele><time>2026-03-29T13:46:44Z</time></trkpt><trkpt lat="45.896415779247654" lon="10.851192915206857"><ele>91.0</ele><time>2026-03-29T13:46:45Z</time></trkpt><trkpt lat="45.896346550183736" lon="10.85108736165275"><ele>91.0</ele><time>2026-03-29T13:46:46Z</time></trkpt><trkpt lat="45.8962522024792" lon="10.850999475456478"><ele>91.0</ele><time>2026-03-29T13:46:47Z</time></trkpt><trkpt lat="45.89615933963274" lon="10.850926703604918"><ele>91.0</ele><time>2026-03-29T13:46:48Z</time></trkpt><trkpt lat="45.8960710248405" lon="10.850831601563883"><ele>91.0</ele><time>2026-03-29T13:46:49Z</time></trkpt><trkpt lat="45.89598969376661" lon="10.850760776367629"><ele>91.0</ele><time>2026-03-29T13:46:50Z</time></trkpt><trkpt lat="45.895915171435284" lon="10.850684097047086"><ele>90.66666666666666</ele><time>2026-03-29T13:46:51Z</time></trkpt><trkpt lat="45.89584259429993" lon="10.85058987360857"><ele>90.33333333333333</ele><time>2026-03-29T13:46:52Z</time></trkpt><trkpt lat="45.895776517267684" lon="10.850508785373796"><ele>90.0</ele><time>2026-03-29T13:46:53Z</time></trkpt><trkpt lat="45.89571134762209" lon="10.850437335711646"><ele>89.66666666666667</ele><time>2026-03-29T13:46:54Z</time></trkpt><trkpt lat="45.89564387324651" lon="10.850372085100297"><ele>89.33333333333334</ele><time>2026-03-29T13:46:55Z</time></trkpt><trkpt lat="45.8955734478973" lon="10.850302881427845"><ele>89.0</ele><time>2026-03-29T13:46:56Z</time></trkpt><trkpt lat="45.89550341210412" lon="10.850226634670896"><ele>88.99999999999999</ele><time>2026-03-29T13:46:57Z</time></trkpt><trkpt lat="45.89544713788312" lon="10.850160560788774"><ele>89.0</ele><time>2026-03-29T13:46:58Z</time></trkpt><trkpt lat="45.89539469595849" lon="10.85010962154223"><ele>89.0</ele><time>2026-03-29T13:46:59Z</time></trkpt><trkpt lat="45.89533975090309" lon="10.850055325639524"><ele>89.0</ele><time>2026-03-29T13:47:00Z</time></trkpt><trkpt lat="45.89528842770285" lon="10.850001275954082"><ele>89.0</ele><time>2026-03-29T13:47:01Z</time></trkpt><trkpt lat="45.895217833215746" lon="10.849909644394625"><ele>88.99999999999999</ele><time>2026-03-29T13:47:03Z</time></trkpt><trkpt lat="45.89514514352476" lon="10.849862332265129"><ele>89.0</ele><time>2026-03-29T13:47:06Z</time></trkpt><trkpt lat="45.89508352567248" lon="10.84981123478838"><ele>88.6</ele><time>2026-03-29T13:47:10Z</time></trkpt><trkpt lat="45.895021719532174" lon="10.849721040099524"><ele>88.2</ele><time>2026-03-29T13:47:56.999Z</time></trkpt><trkpt lat="45.89494927347644" lon="10.84963073411093"><ele>87.8</ele><time>2026-03-29T13:47:57.999Z</time></trkpt><trkpt lat="45.894863883480255" lon="10.849519543486524"><ele>87.39999999999999</ele><time>2026-03-29T13:47:58.999Z</time></trkpt><trkpt lat="45.89477112486403" lon="10.84940775012066"><ele>87.0</ele><time>2026-03-29T13:47:59.999Z</time></trkpt><trkpt lat="45.89465736351671" lon="10.849292628362072"><ele>87.0</ele><time>2026-03-29T13:48:00.999Z</time></trkpt><trkpt lat="45.89454970374843" lon="10.849183200705456"><ele>87.0</ele><time>2026-03-29T13:48:01.999Z</time></trkpt><trkpt lat="45.89443800049106" lon="10.849069662315395"><ele>87.0</ele><time>2026-03-29T13:48:02.999Z</time></trkpt><trkpt lat="45.89432382790454" lon="10.848949077360498"><ele>87.0</ele><time>2026-03-29T13:48:03.999Z</time></trkpt><trkpt lat="45.89420401086303" lon="10.848826263925575"><ele>86.25</ele><time>2026-03-29T13:48:04.999Z</time></trkpt><trkpt lat="45.89408872431513" lon="10.848703173454986"><ele>85.5</ele><time>2026-03-29T13:48:05.999Z</time></trkpt><trkpt lat="45.89397589380249" lon="10.848586778131471"><ele>84.75</ele><time>2026-03-29T13:48:06.999Z</time></trkpt><trkpt lat="45.893867466335806" lon="10.848467717825825"><ele>84.0</ele><time>2026-03-29T13:48:07.999Z</time></trkpt><trkpt lat="45.893760158998575" lon="10.848349930250903"><ele>84.0</ele><time>2026-03-29T13:48:08.999Z</time></trkpt><trkpt lat="45.893653147028594" lon="10.848235278930273"><ele>84.0</ele><time>2026-03-29T13:48:09.999Z</time></trkpt><trkpt lat="45.89355079928495" lon="10.848125360123623"><ele>84.0</ele><time>2026-03-29T13:48:10.999Z</time></trkpt><trkpt lat="45.89344900825896" lon="10.848020846559285"><ele>84.0</ele><time>2026-03-29T13:48:11.999Z</time></trkpt><trkpt lat="45.8933464521259" lon="10.847909908045953"><ele>84.0</ele><time>2026-03-29T13:48:12.999Z</time></trkpt><trkpt lat="45.893243555008006" lon="10.847806573571276"><ele>84.0</ele><time>2026-03-29T13:48:13.999Z</time></trkpt><trkpt lat="45.893134650142244" lon="10.847695257950116"><ele>84.0</ele><time>2026-03-29T13:48:14.999Z</time></trkpt><trkpt lat="45.893030141653036" lon="10.847577450343437"><ele>84.0</ele><time>2026-03-29T13:48:15.999Z</time></trkpt><trkpt lat="45.89292601908156" lon="10.847461611884848"><ele>84.0</ele><time>2026-03-29T13:48:16.999Z</time></trkpt><trkpt lat="45.89281228995392" lon="10.847352976184"><ele>84.0</ele><time>2026-03-29T13:48:17.999Z</time></trkpt><trkpt lat="45.89269952496416" lon="10.847235393438659"><ele>84.0</ele><time>2026-03-29T13:48:18.999Z</time></trkpt><trkpt lat="45.892587634733815" lon="10.847110920079214"><ele>84.0</ele><time>2026-03-29T13:48:19.999Z</time></trkpt><trkpt lat="45.8924846695992" lon="10.84700042605498"><ele>84.0</ele><time>2026-03-29T13:48:20.999Z</time></trkpt><trkpt lat="45.892391298088775" lon="10.846903321350188"><ele>84.0</ele><time>2026-03-29T13:48:21.999Z</time></trkpt><trkpt lat="45.892308822838054" lon="10.846822574120592"><ele>84.0</ele><time>2026-03-29T13:48:22.999Z</time></trkpt><trkpt lat="45.892252916780166" lon="10.846755490619477"><ele>84.0</ele><time>2026-03-29T13:48:23.999Z</time></trkpt><trkpt lat="45.89221362443921" lon="10.846683826992576"><ele>84.0</ele><time>2026-03-29T13:48:25Z</time></trkpt><trkpt lat="45.892196849382344" lon="10.846585610283073"><ele>84.0</ele><time>2026-03-29T13:48:26Z</time></trkpt><trkpt lat="45.89220138781449" lon="10.846465835869317"><ele>84.0</ele><time>2026-03-29T13:48:27Z</time></trkpt><trkpt lat="45.89218966713028" lon="10.846368206489156"><ele>84.0</ele><time>2026-03-29T13:48:28Z</time></trkpt><trkpt lat="45.89205688918746" lon="10.846318551043154"><ele>84.0</ele><time>2026-03-29T13:48:30Z</time></trkpt><trkpt lat="45.89196223365871" lon="10.8463375278551"><ele>84.0</ele><time>2026-03-29T13:48:31Z</time></trkpt><trkpt lat="45.89186396928944" lon="10.846309520323079"><ele>84.0</ele><time>2026-03-29T13:48:32Z</time></trkpt><trkpt lat="45.89175177178818" lon="10.846232478239054"><ele>83.25</ele><time>2026-03-29T13:48:33Z</time></trkpt><trkpt lat="45.89165355055722" lon="10.84612616708745"><ele>82.5</ele><time>2026-03-29T13:48:34Z</time></trkpt><trkpt lat="45.89155653301154" lon="10.846003171026108"><ele>81.75</ele><time>2026-03-29T13:48:35Z</time></trkpt><trkpt lat="45.891458203213" lon="10.845890899599889"><ele>81.0</ele><time>2026-03-29T13:48:36Z</time></trkpt><trkpt lat="45.89135844713232" lon="10.845777814349812"><ele>80.75</ele><time>2026-03-29T13:48:37Z</time></trkpt><trkpt lat="45.89125732322986" lon="10.845666190072263"><ele>80.5</ele><time>2026-03-29T13:48:38Z</time></trkpt><trkpt lat="45.8911551368386" lon="10.845557535158466"><ele>80.25</ele><time>2026-03-29T13:48:39Z</time></trkpt><trkpt lat="45.89105418426161" lon="10.845444648172903"><ele>80.0</ele><time>2026-03-29T13:48:40Z</time></trkpt><trkpt lat="45.890948098848874" lon="10.845337013545151"><ele>80.0</ele><time>2026-03-29T13:48:41Z</time></trkpt><trkpt lat="45.89084881255439" lon="10.845227678012792"><ele>80.0</ele><time>2026-03-29T13:48:42Z</time></trkpt><trkpt lat="45.890745171479196" lon="10.84511569276515"><ele>80.0</ele><time>2026-03-29T13:48:43Z</time></trkpt><trkpt lat="45.89064785011811" lon="10.84500459221937"><ele>80.0</ele><time>2026-03-29T13:48:44Z</time></trkpt><trkpt lat="45.89054897521479" lon="10.844899363303538"><ele>80.0</ele><time>2026-03-29T13:48:45Z</time></trkpt><trkpt lat="45.89044941432525" lon="10.844795448214645"><ele>80.0</ele><time>2026-03-29T13:48:46Z</time></trkpt><trkpt lat="45.89034878846068" lon="10.84468049759168"><ele>80.0</ele><time>2026-03-29T13:48:47Z</time></trkpt><trkpt lat="45.89024662430613" lon="10.844562250116299"><ele>80.0</ele><time>2026-03-29T13:48:48Z</time></trkpt><trkpt lat="45.89014581461111" lon="10.84445600952917"><ele>79.75</ele><time>2026-03-29T13:48:49Z</time></trkpt><trkpt lat="45.89004935533263" lon="10.844346218265374"><ele>79.5</ele><time>2026-03-29T13:48:50Z</time></trkpt><trkpt lat="45.889957531009756" lon="10.84424057439738"><ele>79.25</ele><time>2026-03-29T13:48:51Z</time></trkpt><trkpt lat="45.889864378694135" lon="10.844132938454086"><ele>79.0</ele><time>2026-03-29T13:48:52Z</time></trkpt><trkpt lat="45.889767448488286" lon="10.844024984098565"><ele>79.0</ele><time>2026-03-29T13:48:53Z</time></trkpt><trkpt lat="45.88966935753112" lon="10.843914972883367"><ele>79.0</ele><time>2026-03-29T13:48:54Z</time></trkpt><trkpt lat="45.88957096131453" lon="10.843800318077761"><ele>79.0</ele><time>2026-03-29T13:48:55Z</time></trkpt><trkpt lat="45.889485071230396" lon="10.843695163531523"><ele>79.0</ele><time>2026-03-29T13:48:56Z</time></trkpt><trkpt lat="45.88940668131337" lon="10.843598177195112"><ele>79.0</ele><time>2026-03-29T13:48:57Z</time></trkpt><trkpt lat="45.889343399162264" lon="10.843498031803092"><ele>79.0</ele><time>2026-03-29T13:48:58Z</time></trkpt><trkpt lat="45.889290203131246" lon="10.843401535411957"><ele>79.0</ele><time>2026-03-29T13:48:59Z</time></trkpt><trkpt lat="45.88926906422948" lon="10.843310714330018"><ele>79.0</ele><time>2026-03-29T13:49:00Z</time></trkpt><trkpt lat="45.88925417515109" lon="10.8432018758299"><ele>79.0</ele><time>2026-03-29T13:49:01Z</time></trkpt><trkpt lat="45.88926062296367" lon="10.843076778160054"><ele>79.0</ele><time>2026-03-29T13:49:02Z</time></trkpt><trkpt lat="45.8892606454899" lon="10.842967784579622"><ele>78.8</ele><time>2026-03-29T13:49:03Z</time></trkpt><trkpt lat="45.889217720897996" lon="10.842891000234669"><ele>78.60000000000001</ele><time>2026-03-29T13:49:04Z</time></trkpt><trkpt lat="45.88913667401374" lon="10.842842665297685"><ele>78.4</ele><time>2026-03-29T13:49:05Z</time></trkpt><trkpt lat="45.88904218643279" lon="10.84278307465603"><ele>78.2</ele><time>2026-03-29T13:49:06Z</time></trkpt><trkpt lat="45.888937477383344" lon="10.842689039266492"><ele>78.0</ele><time>2026-03-29T13:49:07Z</time></trkpt><trkpt lat="45.888828818113524" lon="10.842586196168986"><ele>78.4</ele><time>2026-03-29T13:49:08Z</time></trkpt><trkpt lat="45.88873501633991" lon="10.84249632512597"><ele>78.8</ele><time>2026-03-29T13:49:09Z</time></trkpt><trkpt lat="45.88865002091803" lon="10.842407689396662"><ele>79.2</ele><time>2026-03-29T13:49:10Z</time></trkpt><trkpt lat="45.88857720236624" lon="10.842291459201824"><ele>79.6</ele><time>2026-03-29T13:49:11Z</time></trkpt><trkpt lat="45.888524502998386" lon="10.842150064623716"><ele>80.0</ele><time>2026-03-29T13:49:12Z</time></trkpt><trkpt lat="45.888491099222094" lon="10.841995779082131"><ele>80.0</ele><time>2026-03-29T13:49:13Z</time></trkpt><trkpt lat="45.88849487618497" lon="10.841821208513101"><ele>80.0</ele><time>2026-03-29T13:49:14Z</time></trkpt><trkpt lat="45.88847895363918" lon="10.841639109292592"><ele>80.0</ele><time>2026-03-29T13:49:15Z</time></trkpt><trkpt lat="45.88855489289837" lon="10.84145479190577"><ele>80.0</ele><time>2026-03-29T13:49:16Z</time></trkpt><trkpt lat="45.88856627223177" lon="10.841253074060877"><ele>80.75</ele><time>2026-03-29T13:49:17Z</time></trkpt><trkpt lat="45.888577173476634" lon="10.841041368035704"><ele>81.5</ele><time>2026-03-29T13:49:18Z</time></trkpt><trkpt lat="45.888588374809494" lon="10.840819848641116"><ele>82.25</ele><time>2026-03-29T13:49:19Z</time></trkpt><trkpt lat="45.88859689864975" lon="10.840629510176441"><ele>83.0</ele><time>2026-03-29T13:49:20Z</time></trkpt><trkpt lat="45.88860560996775" lon="10.840434985618133"><ele>83.25</ele><time>2026-03-29T13:49:21Z</time></trkpt><trkpt lat="45.88859967675348" lon="10.840239891034852"><ele>83.5</ele><time>2026-03-29T13:49:22Z</time></trkpt><trkpt lat="45.88862563612969" lon="10.840055159419494"><ele>83.75</ele><time>2026-03-29T13:49:23Z</time></trkpt><trkpt lat="45.888622880593424" lon="10.839872039203323"><ele>84.0</ele><time>2026-03-29T13:49:24Z</time></trkpt><trkpt lat="45.88862581307246" lon="10.839711133093797"><ele>84.0</ele><time>2026-03-29T13:49:25Z</time></trkpt><trkpt lat="45.888613413948825" lon="10.839553762140735"><ele>84.0</ele><time>2026-03-29T13:49:26Z</time></trkpt><trkpt lat="45.88858488978247" lon="10.839386274438901"><ele>84.0</ele><time>2026-03-29T13:49:27Z</time></trkpt><trkpt lat="45.88852370503572" lon="10.839222802835819"><ele>84.0</ele><time>2026-03-29T13:49:28Z</time></trkpt><trkpt lat="45.88844171612622" lon="10.839063679702287"><ele>84.0</ele><time>2026-03-29T13:49:29Z</time></trkpt><trkpt lat="45.88832173627575" lon="10.838932183759825"><ele>84.0</ele><time>2026-03-29T13:49:30Z</time></trkpt><trkpt lat="45.888192595527485" lon="10.838821666160177"><ele>84.0</ele><time>2026-03-29T13:49:31Z</time></trkpt><trkpt lat="45.888036466126074" lon="10.838709457255108"><ele>84.0</ele><time>2026-03-29T13:49:32Z</time></trkpt><trkpt lat="45.88787858224577" lon="10.838590038785043"><ele>84.0</ele><time>2026-03-29T13:49:33Z</time></trkpt><trkpt lat="45.887753917821016" lon="10.838485635293798"><ele>84.0</ele><time>2026-03-29T13:49:34Z</time></trkpt><trkpt lat="45.88764187640873" lon="10.838395153451982"><ele>84.4</ele><time>2026-03-29T13:49:35Z</time></trkpt><trkpt lat="45.88755187228537" lon="10.838332321855159"><ele>84.80000000000001</ele><time>2026-03-29T13:49:36Z</time></trkpt><trkpt lat="45.88748669161779" lon="10.83828635314355"><ele>85.19999999999999</ele><time>2026-03-29T13:49:37Z</time></trkpt><trkpt lat="45.88740392966" lon="10.838157368092716"><ele>85.6</ele><time>2026-03-29T13:49:39Z</time></trkpt><trkpt lat="45.88739202843479" lon="10.838029340030884"><ele>86.0</ele><time>2026-03-29T13:49:40Z</time></trkpt><trkpt lat="45.88736625909591" lon="10.837918919125936"><ele>86.0</ele><time>2026-03-29T13:49:41Z</time></trkpt><trkpt lat="45.88733134962387" lon="10.837837334717259"><ele>86.0</ele><time>2026-03-29T13:49:42Z</time></trkpt><trkpt lat="45.8872203593168" lon="10.837794375081337"><ele>86.0</ele><time>2026-03-29T13:49:44Z</time></trkpt><trkpt lat="45.887124658552636" lon="10.83785899520702"><ele>86.0</ele><time>2026-03-29T13:49:46Z</time></trkpt><trkpt lat="45.88697701854993" lon="10.83786480346458"><ele>86.0</ele><time>2026-03-29T13:49:48Z</time></trkpt><trkpt lat="45.88687800845636" lon="10.837842600710939"><ele>86.0</ele><time>2026-03-29T13:49:49Z</time></trkpt><trkpt lat="45.88677144805868" lon="10.83780562805133"><ele>86.0</ele><time>2026-03-29T13:49:50Z</time></trkpt><trkpt lat="45.88670506032496" lon="10.837805862373122"><ele>86.0</ele><time>2026-03-29T13:49:52Z</time></trkpt><trkpt lat="45.886611756799724" lon="10.837815467403177"><ele>86.0</ele><time>2026-03-29T13:49:59Z</time></trkpt><trkpt lat="45.886543418156464" lon="10.837816127114712"><ele>86.0</ele><time>2026-03-29T13:50:00Z</time></trkpt><trkpt lat="45.88646243094481" lon="10.837821054912016"><ele>86.0</ele><time>2026-03-29T13:50:01Z</time></trkpt><trkpt lat="45.88638009146203" lon="10.837823100686803"><ele>86.0</ele><time>2026-03-29T13:50:02Z</time></trkpt><trkpt lat="45.886293886635386" lon="10.837824056696261"><ele>86.0</ele><time>2026-03-29T13:50:03Z</time></trkpt><trkpt lat="45.886220118750686" lon="10.83782283997299"><ele>86.0</ele><time>2026-03-29T13:50:03.999Z</time></trkpt><trkpt lat="45.88613615571414" lon="10.837826734538126"><ele>86.0</ele><time>2026-03-29T13:50:04.999Z</time></trkpt><trkpt lat="45.88605405510002" lon="10.83782959373718"><ele>86.0</ele><time>2026-03-29T13:50:05.999Z</time></trkpt><trkpt lat="45.885976554380974" lon="10.837829560998545"><ele>86.0</ele><time>2026-03-29T13:50:06.999Z</time></trkpt><trkpt lat="45.88589597479485" lon="10.837845273100797"><ele>85.5</ele><time>2026-03-29T13:50:07.999Z</time></trkpt><trkpt lat="45.88583060030244" lon="10.837848558665446"><ele>85.0</ele><time>2026-03-29T13:50:08.999Z</time></trkpt><trkpt lat="45.885764086292035" lon="10.837850908343242"><ele>84.5</ele><time>2026-03-29T13:50:09.999Z</time></trkpt><trkpt lat="45.88569218801891" lon="10.837858826356072"><ele>84.0</ele><time>2026-03-29T13:50:10.999Z</time></trkpt><trkpt lat="45.88556443001088" lon="10.837862718891135"><ele>83.5</ele><time>2026-03-29T13:50:12.999Z</time></trkpt><trkpt lat="45.88548236795594" lon="10.837874911510431"><ele>83.0</ele><time>2026-03-29T13:50:13.999Z</time></trkpt><trkpt lat="45.885377339911706" lon="10.837874216384312"><ele>83.0</ele><time>2026-03-29T13:50:14.999Z</time></trkpt><trkpt lat="45.885251870305396" lon="10.837874426578955"><ele>83.0</ele><time>2026-03-29T13:50:15.999Z</time></trkpt><trkpt lat="45.88511193977205" lon="10.837877620485825"><ele>83.0</ele><time>2026-03-29T13:50:16.999Z</time></trkpt><trkpt lat="45.88496427882872" lon="10.837876705327496"><ele>83.0</ele><time>2026-03-29T13:50:17.999Z</time></trkpt><trkpt lat="45.884816184971285" lon="10.837892997145198"><ele>81.75</ele><time>2026-03-29T13:50:18.999Z</time></trkpt><trkpt lat="45.88468611681493" lon="10.837912445001457"><ele>80.5</ele><time>2026-03-29T13:50:19.999Z</time></trkpt><trkpt lat="45.88456500436386" lon="10.837965794757451"><ele>79.25</ele><time>2026-03-29T13:50:20.999Z</time></trkpt><trkpt lat="45.88443589348967" lon="10.838050752192636"><ele>78.0</ele><time>2026-03-29T13:50:21.999Z</time></trkpt><trkpt lat="45.88431201218749" lon="10.838157759277568"><ele>77.5</ele><time>2026-03-29T13:50:22.999Z</time></trkpt><trkpt lat="45.884198045068864" lon="10.83825989608431"><ele>77.0</ele><time>2026-03-29T13:50:23.999Z</time></trkpt><trkpt lat="45.88407939315944" lon="10.83835045052804"><ele>76.5</ele><time>2026-03-29T13:50:24.999Z</time></trkpt><trkpt lat="45.88395412056925" lon="10.83844829520241"><ele>76.0</ele><time>2026-03-29T13:50:25.999Z</time></trkpt><trkpt lat="45.88383638372308" lon="10.838538857318733"><ele>74.25</ele><time>2026-03-29T13:50:26.999Z</time></trkpt><trkpt lat="45.88371924090294" lon="10.83859728605811"><ele>72.5</ele><time>2026-03-29T13:50:27.999Z</time></trkpt><trkpt lat="45.88359397419223" lon="10.838584689510173"><ele>70.75</ele><time>2026-03-29T13:50:28.999Z</time></trkpt><trkpt lat="45.88348261719677" lon="10.83859798664384"><ele>69.0</ele><time>2026-03-29T13:50:29.999Z</time></trkpt><trkpt lat="45.883371625534416" lon="10.838551856628563"><ele>68.25</ele><time>2026-03-29T13:50:31Z</time></trkpt><trkpt lat="45.88326457266112" lon="10.838521702205549"><ele>67.5</ele><time>2026-03-29T13:50:32Z</time></trkpt><trkpt lat="45.88315336479563" lon="10.83847686652803"><ele>66.75</ele><time>2026-03-29T13:50:33Z</time></trkpt><trkpt lat="45.883040745017865" lon="10.838410562642595"><ele>66.0</ele><time>2026-03-29T13:50:34Z</time></trkpt><trkpt lat="45.882927092435864" lon="10.838370031490406"><ele>67.39999999999999</ele><time>2026-03-29T13:50:35Z</time></trkpt><trkpt lat="45.88281407945127" lon="10.838331572717154"><ele>68.8</ele><time>2026-03-29T13:50:36Z</time></trkpt><trkpt lat="45.88270349317569" lon="10.838297543271567"><ele>70.19999999999999</ele><time>2026-03-29T13:50:37Z</time></trkpt><trkpt lat="45.88260731794182" lon="10.838268576899262"><ele>71.6</ele><time>2026-03-29T13:50:38Z</time></trkpt><trkpt lat="45.88251521476807" lon="10.838239987655546"><ele>73.0</ele><time>2026-03-29T13:50:39Z</time></trkpt><trkpt lat="45.882420236261694" lon="10.838214811767177"><ele>73.0</ele><time>2026-03-29T13:50:40Z</time></trkpt><trkpt lat="45.88233946309614" lon="10.838196281787168"><ele>73.0</ele><time>2026-03-29T13:50:41Z</time></trkpt><trkpt lat="45.88226931559548" lon="10.838186518658024"><ele>73.0</ele><time>2026-03-29T13:50:42Z</time></trkpt><trkpt lat="45.88219667199783" lon="10.838155782927121"><ele>73.0</ele><time>2026-03-29T13:50:43Z</time></trkpt><trkpt lat="45.88210883797663" lon="10.838148500269412"><ele>73.0</ele><time>2026-03-29T13:50:44Z</time></trkpt><trkpt lat="45.88201079168602" lon="10.8381410934871"><ele>73.0</ele><time>2026-03-29T13:50:45Z</time></trkpt><trkpt lat="45.881889473148526" lon="10.838117942198908"><ele>74.66666666666666</ele><time>2026-03-29T13:50:46Z</time></trkpt><trkpt lat="45.881755183296114" lon="10.838108228721381"><ele>76.33333333333333</ele><time>2026-03-29T13:50:47Z</time></trkpt><trkpt lat="45.88160224455317" lon="10.838084397738012"><ele>78.0</ele><time>2026-03-29T13:50:48Z</time></trkpt><trkpt lat="45.881426076245695" lon="10.838080359252086"><ele>78.0</ele><time>2026-03-29T13:50:49Z</time></trkpt><trkpt lat="45.881231499941876" lon="10.838046470007548"><ele>78.0</ele><time>2026-03-29T13:50:50Z</time></trkpt><trkpt lat="45.88107016399577" lon="10.838011586476988"><ele>78.0</ele><time>2026-03-29T13:50:51Z</time></trkpt><trkpt lat="45.88090934039616" lon="10.837988671946134"><ele>75.0</ele><time>2026-03-29T13:50:52Z</time></trkpt><trkpt lat="45.88074444028545" lon="10.837952765125372"><ele>72.0</ele><time>2026-03-29T13:50:53Z</time></trkpt><trkpt lat="45.88059501432859" lon="10.837947721780441"><ele>69.0</ele><time>2026-03-29T13:50:54Z</time></trkpt><trkpt lat="45.880466643004326" lon="10.837895041214384"><ele>69.0</ele><time>2026-03-29T13:50:55Z</time></trkpt><trkpt lat="45.880350020755195" lon="10.837876799185905"><ele>69.0</ele><time>2026-03-29T13:50:56Z</time></trkpt><trkpt lat="45.88023757554646" lon="10.837854245249261"><ele>69.0</ele><time>2026-03-29T13:50:57Z</time></trkpt><trkpt lat="45.88013384535384" lon="10.837822088224174"><ele>69.0</ele><time>2026-03-29T13:50:58Z</time></trkpt><trkpt lat="45.8800182663283" lon="10.837799640556991"><ele>68.5</ele><time>2026-03-29T13:50:59Z</time></trkpt><trkpt lat="45.879894367462654" lon="10.83777702159404"><ele>68.0</ele><time>2026-03-29T13:51:00Z</time></trkpt><trkpt lat="45.879773901516224" lon="10.837750051550763"><ele>67.5</ele><time>2026-03-29T13:51:01Z</time></trkpt><trkpt lat="45.87965005449289" lon="10.837716952665245"><ele>67.0</ele><time>2026-03-29T13:51:02Z</time></trkpt><trkpt lat="45.879531764534505" lon="10.83768710437721"><ele>67.0</ele><time>2026-03-29T13:51:03Z</time></trkpt><trkpt lat="45.87942078336924" lon="10.837657401845982"><ele>67.0</ele><time>2026-03-29T13:51:04Z</time></trkpt><trkpt lat="45.879307737411686" lon="10.83762590225942"><ele>67.0</ele><time>2026-03-29T13:51:05Z</time></trkpt><trkpt lat="45.87919506108517" lon="10.837594997554616"><ele>67.0</ele><time>2026-03-29T13:51:06Z</time></trkpt><trkpt lat="45.879084104000036" lon="10.837570010110229"><ele>67.0</ele><time>2026-03-29T13:51:07Z</time></trkpt><trkpt lat="45.87896931300834" lon="10.837540757894393"><ele>67.0</ele><time>2026-03-29T13:51:08.019Z</time></trkpt><trkpt lat="45.878858543672976" lon="10.837506111701721"><ele>67.0</ele><time>2026-03-29T13:51:09.019Z</time></trkpt><trkpt lat="45.87874771330767" lon="10.837469742936761"><ele>67.0</ele><time>2026-03-29T13:51:10.021Z</time></trkpt><trkpt lat="45.878637553056016" lon="10.83743203435204"><ele>67.0</ele><time>2026-03-29T13:51:11.018Z</time></trkpt><trkpt lat="45.87852621039055" lon="10.837394880128176"><ele>67.0</ele><time>2026-03-29T13:51:12.021Z</time></trkpt><trkpt lat="45.877146246316144" lon="10.83686395779544"><ele>67.0</ele><time>2026-03-29T13:51:15.203Z</time></trkpt><trkpt lat="45.87785694258255" lon="10.837151900512522"><ele>67.0</ele><time>2026-03-29T13:51:18.199Z</time></trkpt><trkpt lat="45.87773280890147" lon="10.837101611165359"><ele>67.0</ele><time>2026-03-29T13:51:19.203Z</time></trkpt><trkpt lat="45.87757762121156" lon="10.837039898004045"><ele>67.0</ele><time>2026-03-29T13:51:20.2Z</time></trkpt><trkpt lat="45.87734896911096" lon="10.836949455607508"><ele>67.0</ele><time>2026-03-29T13:51:21.203Z</time></trkpt><trkpt lat="45.871870877111554" lon="10.83575794143648"><ele>67.0</ele><time>2026-03-29T13:51:26.199Z</time></trkpt><trkpt lat="45.87103876642694" lon="10.835600207637079"><ele>62.0</ele><time>2026-03-29T13:51:27.201Z</time></trkpt><trkpt lat="45.86972773079502" lon="10.834758672873932"><ele>62.0</ele><time>2026-03-29T13:52:01Z</time></trkpt><trkpt lat="45.86959013092747" lon="10.834659319466628"><ele>62.0</ele><time>2026-03-29T13:52:02Z</time></trkpt><trkpt lat="45.869468060314574" lon="10.834509677797582"><ele>62.0</ele><time>2026-03-29T13:52:03Z</time></trkpt><trkpt lat="45.86933402384575" lon="10.834437551165497"><ele>62.0</ele><time>2026-03-29T13:52:04Z</time></trkpt><trkpt lat="45.86918630215695" lon="10.834378499785018"><ele>62.0</ele><time>2026-03-29T13:52:05.016Z</time></trkpt><trkpt lat="45.868943015371364" lon="10.83433384040188"><ele>62.0</ele><time>2026-03-29T13:52:06.782Z</time></trkpt><trkpt lat="45.86875231708296" lon="10.834225098954008"><ele>62.0</ele><time>2026-03-29T13:52:08.202Z</time></trkpt><trkpt lat="45.86860167394458" lon="10.834214581734592"><ele>62.0</ele><time>2026-03-29T13:52:09.203Z</time></trkpt><trkpt lat="45.868394718497335" lon="10.834109339822076"><ele>62.0</ele><time>2026-03-29T13:52:10.203Z</time></trkpt><trkpt lat="45.86808386933368" lon="10.834071893845165"><ele>62.0</ele><time>2026-03-29T13:52:11.201Z</time></trkpt><trkpt lat="45.86755634650025" lon="10.834061451781258"><ele>62.0</ele><time>2026-03-29T13:52:12.201Z</time></trkpt><trkpt lat="45.86500158090461" lon="10.834314561528277"><ele>62.0</ele><time>2026-03-29T13:52:15.46Z</time></trkpt><trkpt lat="45.86687202648411" lon="10.833397215103394"><ele>62.0</ele><time>2026-03-29T13:52:22.462Z</time></trkpt><trkpt lat="45.86127552627097" lon="10.832631627978676"><ele>62.0</ele><time>2026-03-29T13:52:56.999Z</time></trkpt><trkpt lat="45.86115857968288" lon="10.832567845426226"><ele>62.0</ele><time>2026-03-29T13:52:59.999Z</time></trkpt><trkpt lat="45.8610518671377" lon="10.832516702343591"><ele>62.0</ele><time>2026-03-29T13:53:01.999Z</time></trkpt><trkpt lat="45.86094208013357" lon="10.832474760849523"><ele>62.0</ele><time>2026-03-29T13:53:03.999Z</time></trkpt><trkpt lat="45.86083767483072" lon="10.832422254273716"><ele>62.0</ele><time>2026-03-29T13:53:06.014Z</time></trkpt><trkpt lat="45.860724322670606" lon="10.832371945138869"><ele>62.0</ele><time>2026-03-29T13:53:08.164Z</time></trkpt><trkpt lat="45.86037482712091" lon="10.832534804761117"><ele>62.0</ele><time>2026-03-29T13:53:09.198Z</time></trkpt><trkpt lat="45.8596970108574" lon="10.83259190776097"><ele>62.0</ele><time>2026-03-29T13:53:16.999Z</time></trkpt><trkpt lat="45.85959320505344" lon="10.832616723692372"><ele>62.0</ele><time>2026-03-29T13:53:17.999Z</time></trkpt><trkpt lat="45.8594893953752" lon="10.832641316691696"><ele>62.0</ele><time>2026-03-29T13:53:19Z</time></trkpt><trkpt lat="45.85938542804281" lon="10.832665969420287"><ele>62.0</ele><time>2026-03-29T13:53:20Z</time></trkpt><trkpt lat="45.85937121054115" lon="10.832567601442097"><ele>62.0</ele><time>2026-03-29T13:53:21Z</time></trkpt><trkpt lat="45.859299257147384" lon="10.832559255445608"><ele>72.0</ele><time>2026-03-29T13:53:22Z</time></trkpt><trkpt lat="45.85918548624889" lon="10.83256411775962"><ele>82.0</ele><time>2026-03-29T13:53:24Z</time></trkpt><trkpt lat="45.859086482303184" lon="10.832528195828319"><ele>91.99999999999999</ele><time>2026-03-29T13:53:25Z</time></trkpt><trkpt lat="45.858992238904" lon="10.832509897217529"><ele>102.0</ele><time>2026-03-29T13:53:26Z</time></trkpt><trkpt lat="45.85887928218031" lon="10.83251194913483"><ele>112.0</ele><time>2026-03-29T13:53:27Z</time></trkpt><trkpt lat="45.85873367073537" lon="10.832557660811561"><ele>112.0</ele><time>2026-03-29T13:53:28Z</time></trkpt><trkpt lat="45.858584633022154" lon="10.832631608301442"><ele>112.0</ele><time>2026-03-29T13:53:29Z</time></trkpt><trkpt lat="45.858472066644104" lon="10.83268346801734"><ele>112.0</ele><time>2026-03-29T13:53:30Z</time></trkpt><trkpt lat="45.858372586634836" lon="10.832734354443787"><ele>112.0</ele><time>2026-03-29T13:53:31Z</time></trkpt><trkpt lat="45.85827417703081" lon="10.832735321414232"><ele>103.66666666666667</ele><time>2026-03-29T13:53:32Z</time></trkpt><trkpt lat="45.85818526124706" lon="10.832775301380467"><ele>95.33333333333334</ele><time>2026-03-29T13:53:33Z</time></trkpt><trkpt lat="45.85811094421316" lon="10.832794315549513"><ele>87.0</ele><time>2026-03-29T13:53:34Z</time></trkpt><trkpt lat="45.85802699355996" lon="10.83281264812806"><ele>78.66666666666667</ele><time>2026-03-29T13:53:35Z</time></trkpt><trkpt lat="45.857941755521445" lon="10.832830611533794"><ele>70.33333333333334</ele><time>2026-03-29T13:53:36.018Z</time></trkpt><trkpt lat="45.85785828350806" lon="10.832849400204559"><ele>62.0</ele><time>2026-03-29T13:53:37.016Z</time></trkpt><trkpt lat="45.857774591383304" lon="10.832868340766632"><ele>62.00000000000001</ele><time>2026-03-29T13:53:38.016Z</time></trkpt><trkpt lat="45.85769113056134" lon="10.832888841712817"><ele>62.0</ele><time>2026-03-29T13:53:39.017Z</time></trkpt><trkpt lat="45.857607501155464" lon="10.832908790040063"><ele>62.0</ele><time>2026-03-29T13:53:40.018Z</time></trkpt><trkpt lat="45.85754727648891" lon="10.832979475370298"><ele>62.0</ele><time>2026-03-29T13:53:44Z</time></trkpt><trkpt lat="45.85748764370069" lon="10.832945899557107"><ele>62.00000000000001</ele><time>2026-03-29T13:53:45Z</time></trkpt><trkpt lat="45.85740061082331" lon="10.83297706818402"><ele>62.0</ele><time>2026-03-29T13:53:47Z</time></trkpt><trkpt lat="45.85729391107708" lon="10.833008211329357"><ele>62.0</ele><time>2026-03-29T13:53:49Z</time></trkpt><trkpt lat="45.857188925242696" lon="10.833036822798002"><ele>62.0</ele><time>2026-03-29T13:53:51.021Z</time></trkpt><trkpt lat="45.857088595131806" lon="10.833072945709908"><ele>62.0</ele><time>2026-03-29T13:53:53.018Z</time></trkpt><trkpt lat="45.85698770958536" lon="10.833109798890984"><ele>62.0</ele><time>2026-03-29T13:53:55.017Z</time></trkpt><trkpt lat="45.85568299212019" lon="10.833963268647263"><ele>71.0</ele><time>2026-03-29T13:53:58.199Z</time></trkpt><trkpt lat="45.85523979981798" lon="10.834074845862057"><ele>77.0</ele><time>2026-03-29T13:53:59.202Z</time></trkpt><trkpt lat="45.85479362596679" lon="10.83402122075686"><ele>83.0</ele><time>2026-03-29T13:54:00.2Z</time></trkpt><trkpt lat="45.85436774724785" lon="10.833815695007859"><ele>84.0</ele><time>2026-03-29T13:54:01.202Z</time></trkpt><trkpt lat="45.853965254062636" lon="10.83353356033366"><ele>85.0</ele><time>2026-03-29T13:54:02.198Z</time></trkpt><trkpt lat="45.85355985565992" lon="10.833255007678847"><ele>76.0</ele><time>2026-03-29T13:54:03.198Z</time></trkpt><trkpt lat="45.85314804114777" lon="10.832989670038472"><ele>76.0</ele><time>2026-03-29T13:54:04.202Z</time></trkpt><trkpt lat="45.852737873242084" lon="10.832728413675108"><ele>76.0</ele><time>2026-03-29T13:54:05.2Z</time></trkpt><trkpt lat="45.8524051" lon="10.8325195"><ele>83.0</ele><time>2026-03-29T13:54:06.198Z</time></trkpt><trkpt lat="45.85442929067263" lon="10.833783857534485"><ele>83.66666666666667</ele><time>2026-03-29T13:54:10Z</time></trkpt><trkpt lat="45.85424949891758" lon="10.833777541172317"><ele>84.33333333333333</ele><time>2026-03-29T13:54:11Z</time></trkpt><trkpt lat="45.854159807294714" lon="10.83354621845908"><ele>85.0</ele><time>2026-03-29T13:54:12Z</time></trkpt><trkpt lat="45.85400406458051" lon="10.833473898582598"><ele>90.66666666666666</ele><time>2026-03-29T13:54:13Z</time></trkpt><trkpt lat="45.85384832517356" lon="10.833402270478603"><ele>96.33333333333333</ele><time>2026-03-29T13:54:14Z</time></trkpt><trkpt lat="45.85371620359395" lon="10.833274744728755"><ele>102.0</ele><time>2026-03-29T13:54:15Z</time></trkpt><trkpt lat="45.85358059985894" lon="10.833199054244801"><ele>93.33333333333333</ele><time>2026-03-29T13:54:16Z</time></trkpt><trkpt lat="45.853431631980804" lon="10.833131749096703"><ele>84.66666666666666</ele><time>2026-03-29T13:54:17Z</time></trkpt><trkpt lat="45.8532865408003" lon="10.833051659529959"><ele>76.0</ele><time>2026-03-29T13:54:18Z</time></trkpt><trkpt lat="45.85313609693101" lon="10.832958728530397"><ele>76.0</ele><time>2026-03-29T13:54:19Z</time></trkpt><trkpt lat="45.85298191809675" lon="10.832876271336426"><ele>76.0</ele><time>2026-03-29T13:54:20Z</time></trkpt><trkpt lat="45.85283396323704" lon="10.832764349259447"><ele>76.0</ele><time>2026-03-29T13:54:21Z</time></trkpt><trkpt lat="45.85268521208712" lon="10.83266826418393"><ele>77.66666666666666</ele><time>2026-03-29T13:54:22Z</time></trkpt><trkpt lat="45.8525330522752" lon="10.83257273817266"><ele>79.33333333333333</ele><time>2026-03-29T13:54:23.018Z</time></trkpt><trkpt lat="45.85236593619385" lon="10.832457036524826"><ele>81.0</ele><time>2026-03-29T13:54:24.019Z</time></trkpt><trkpt lat="45.85098275663564" lon="10.831944628655616"><ele>76.0</ele><time>2026-03-29T13:54:27.199Z</time></trkpt><trkpt lat="45.850535428856695" lon="10.83185229396541"><ele>75.0</ele><time>2026-03-29T13:54:28.202Z</time></trkpt><trkpt lat="45.85010810553767" lon="10.831655303009299"><ele>74.0</ele><time>2026-03-29T13:54:29.202Z</time></trkpt><trkpt lat="45.84971468905419" lon="10.831343119493795"><ele>74.0</ele><time>2026-03-29T13:54:30.202Z</time></trkpt><trkpt lat="45.84929992640926" lon="10.831096996021278"><ele>74.0</ele><time>2026-03-29T13:54:31.198Z</time></trkpt><trkpt lat="45.84918761972344" lon="10.831021599513159"><ele>78.6</ele><time>2026-03-29T13:54:44Z</time></trkpt><trkpt lat="45.849055989156156" lon="10.830963060449024"><ele>83.2</ele><time>2026-03-29T13:54:45Z</time></trkpt><trkpt lat="45.8489276715089" lon="10.830923445784494"><ele>87.8</ele><time>2026-03-29T13:54:46Z</time></trkpt><trkpt lat="45.84885570406838" lon="10.830869951694938"><ele>92.39999999999999</ele><time>2026-03-29T13:54:47Z</time></trkpt><trkpt lat="45.848787524501525" lon="10.830860040132752"><ele>97.0</ele><time>2026-03-29T13:54:48Z</time></trkpt><trkpt lat="45.848699935550904" lon="10.830789926489603"><ele>97.00000000000001</ele><time>2026-03-29T13:54:50Z</time></trkpt><trkpt lat="45.84862102721298" lon="10.830754244281929"><ele>97.0</ele><time>2026-03-29T13:54:52Z</time></trkpt><trkpt lat="45.84856002644257" lon="10.830724526145108"><ele>97.0</ele><time>2026-03-29T13:54:53Z</time></trkpt><trkpt lat="45.84849485799255" lon="10.8306940405733"><ele>97.0</ele><time>2026-03-29T13:54:54Z</time></trkpt><trkpt lat="45.848419311873855" lon="10.83066204180599"><ele>97.00000000000001</ele><time>2026-03-29T13:54:55Z</time></trkpt><trkpt lat="45.84833895529025" lon="10.830628422879492"><ele>97.0</ele><time>2026-03-29T13:54:56Z</time></trkpt><trkpt lat="45.84825257855247" lon="10.830589091569616"><ele>92.39999999999999</ele><time>2026-03-29T13:54:57Z</time></trkpt><trkpt lat="45.84816616840777" lon="10.83055182525177"><ele>87.8</ele><time>2026-03-29T13:54:58Z</time></trkpt><trkpt lat="45.84806300119553" lon="10.830522206451162"><ele>83.2</ele><time>2026-03-29T13:54:59Z</time></trkpt><trkpt lat="45.84794912950283" lon="10.830518432260664"><ele>78.6</ele><time>2026-03-29T13:55:00Z</time></trkpt><trkpt lat="45.84782937890548" lon="10.830506590611705"><ele>74.0</ele><time>2026-03-29T13:55:00.999Z</time></trkpt><trkpt lat="45.84770776732233" lon="10.830492551302001"><ele>72.0</ele><time>2026-03-29T13:55:01.999Z</time></trkpt><trkpt lat="45.84757934477364" lon="10.830480358165751"><ele>70.0</ele><time>2026-03-29T13:55:02.999Z</time></trkpt><trkpt lat="45.8474553341578" lon="10.830469038310328"><ele>68.0</ele><time>2026-03-29T13:55:03.999Z</time></trkpt><trkpt lat="45.847330144808595" lon="10.830457181074586"><ele>66.0</ele><time>2026-03-29T13:55:04.999Z</time></trkpt><trkpt lat="45.84722002806628" lon="10.830450627546648"><ele>66.0</ele><time>2026-03-29T13:55:05.999Z</time></trkpt><trkpt lat="45.84709920516418" lon="10.830437366493792"><ele>66.0</ele><time>2026-03-29T13:55:06.999Z</time></trkpt><trkpt lat="45.84697532538782" lon="10.830401825500461"><ele>66.0</ele><time>2026-03-29T13:55:07.999Z</time></trkpt><trkpt lat="45.84685098055489" lon="10.830361715878361"><ele>66.0</ele><time>2026-03-29T13:55:08.999Z</time></trkpt><trkpt lat="45.84673234704035" lon="10.830322795255768"><ele>65.8</ele><time>2026-03-29T13:55:09.999Z</time></trkpt><trkpt lat="45.84662966588828" lon="10.830283554684474"><ele>65.6</ele><time>2026-03-29T13:55:10.999Z</time></trkpt><trkpt lat="45.84652899791886" lon="10.83024717364576"><ele>65.4</ele><time>2026-03-29T13:55:11.999Z</time></trkpt><trkpt lat="45.846428941627465" lon="10.830212202195398"><ele>65.2</ele><time>2026-03-29T13:55:12.999Z</time></trkpt><trkpt lat="45.84633975954265" lon="10.8301758936382"><ele>65.0</ele><time>2026-03-29T13:55:13.999Z</time></trkpt><trkpt lat="45.84627010016065" lon="10.83013982281458"><ele>67.4</ele><time>2026-03-29T13:55:14.999Z</time></trkpt><trkpt lat="45.84620514441375" lon="10.830110867550694"><ele>69.8</ele><time>2026-03-29T13:55:15.999Z</time></trkpt><trkpt lat="45.84609967688787" lon="10.83006715561503"><ele>72.2</ele><time>2026-03-29T13:55:17.999Z</time></trkpt><trkpt lat="45.84602152489436" lon="10.8299987955548"><ele>74.6</ele><time>2026-03-29T13:55:19.999Z</time></trkpt><trkpt lat="45.845939355875494" lon="10.82992305319475"><ele>77.0</ele><time>2026-03-29T13:55:21.999Z</time></trkpt><trkpt lat="45.84588235312524" lon="10.829822603320709"><ele>77.0</ele><time>2026-03-29T13:55:23.999Z</time></trkpt><trkpt lat="45.84583169505436" lon="10.829759162294604"><ele>77.0</ele><time>2026-03-29T13:55:26Z</time></trkpt><trkpt lat="45.84576584280567" lon="10.829622952042806"><ele>77.0</ele><time>2026-03-29T13:55:27Z</time></trkpt><trkpt lat="45.8457191977458" lon="10.829539803585597"><ele>77.0</ele><time>2026-03-29T13:55:28Z</time></trkpt><trkpt lat="45.84566979442786" lon="10.829440367093694"><ele>77.0</ele><time>2026-03-29T13:55:29Z</time></trkpt><trkpt lat="45.84560710777029" lon="10.829328095424081"><ele>77.0</ele><time>2026-03-29T13:55:30Z</time></trkpt><trkpt lat="45.84555077387248" lon="10.82922685852367"><ele>83.4</ele><time>2026-03-29T13:55:31Z</time></trkpt><trkpt lat="45.84549683550564" lon="10.829106033309287"><ele>89.80000000000001</ele><time>2026-03-29T13:55:32Z</time></trkpt><trkpt lat="45.84542616103325" lon="10.829002393479639"><ele>96.2</ele><time>2026-03-29T13:55:33Z</time></trkpt><trkpt lat="45.845354489755806" lon="10.828895669790889"><ele>102.60000000000001</ele><time>2026-03-29T13:55:34Z</time></trkpt><trkpt lat="45.845280226169905" lon="10.828799648277338"><ele>109.0</ele><time>2026-03-29T13:55:35Z</time></trkpt><trkpt lat="45.845198293354926" lon="10.82870938557404"><ele>104.83333333333334</ele><time>2026-03-29T13:55:36Z</time></trkpt><trkpt lat="45.845116752632066" lon="10.82865204520419"><ele>100.66666666666667</ele><time>2026-03-29T13:55:37Z</time></trkpt><trkpt lat="45.84504898188126" lon="10.82859626931926"><ele>96.5</ele><time>2026-03-29T13:55:38Z</time></trkpt><trkpt lat="45.84497984883434" lon="10.828541933054044"><ele>92.33333333333334</ele><time>2026-03-29T13:55:39Z</time></trkpt><trkpt lat="45.844908648437865" lon="10.828481059211153"><ele>88.16666666666667</ele><time>2026-03-29T13:55:40Z</time></trkpt><trkpt lat="45.84484338076342" lon="10.828425069063298"><ele>84.0</ele><time>2026-03-29T13:55:41Z</time></trkpt><trkpt lat="45.84477167761361" lon="10.828368373928567"><ele>84.0</ele><time>2026-03-29T13:55:42Z</time></trkpt><trkpt lat="45.84470987612357" lon="10.828302220184959"><ele>84.0</ele><time>2026-03-29T13:55:43Z</time></trkpt><trkpt lat="45.84464536322759" lon="10.828249229306463"><ele>84.0</ele><time>2026-03-29T13:55:44Z</time></trkpt><trkpt lat="45.84457583235685" lon="10.828206801783434"><ele>84.0</ele><time>2026-03-29T13:55:45Z</time></trkpt><trkpt lat="45.84452004285073" lon="10.828140057295144"><ele>84.0</ele><time>2026-03-29T13:55:46Z</time></trkpt><trkpt lat="45.84445921647856" lon="10.82807226303333"><ele>84.0</ele><time>2026-03-29T13:55:47Z</time></trkpt><trkpt lat="45.84440383462074" lon="10.828001104620755"><ele>84.0</ele><time>2026-03-29T13:55:48Z</time></trkpt><trkpt lat="45.84431497716186" lon="10.827877112486263"><ele>84.0</ele><time>2026-03-29T13:55:50Z</time></trkpt><trkpt lat="45.844266457276206" lon="10.827813614014321"><ele>84.0</ele><time>2026-03-29T13:55:51Z</time></trkpt><trkpt lat="45.844217443660554" lon="10.82773813669297"><ele>84.0</ele><time>2026-03-29T13:55:52Z</time></trkpt><trkpt lat="45.84417435936242" lon="10.827644924723359"><ele>84.0</ele><time>2026-03-29T13:55:53Z</time></trkpt><trkpt lat="45.84411869645146" lon="10.82756129396934"><ele>84.0</ele><time>2026-03-29T13:55:54Z</time></trkpt><trkpt lat="45.84406152832823" lon="10.827475538123501"><ele>84.16666666666667</ele><time>2026-03-29T13:55:55Z</time></trkpt><trkpt lat="45.84399890727495" lon="10.827389270550059"><ele>84.33333333333333</ele><time>2026-03-29T13:55:56Z</time></trkpt><trkpt lat="45.843938887600125" lon="10.827302258756378"><ele>84.5</ele><time>2026-03-29T13:55:57Z</time></trkpt><trkpt lat="45.843880830135745" lon="10.827212335961917"><ele>84.66666666666666</ele><time>2026-03-29T13:55:58Z</time></trkpt><trkpt lat="45.84381781423613" lon="10.82713761254136"><ele>84.83333333333333</ele><time>2026-03-29T13:55:59Z</time></trkpt><trkpt lat="45.843743919332766" lon="10.827074420560052"><ele>85.0</ele><time>2026-03-29T13:56:00Z</time></trkpt><trkpt lat="45.843667881442" lon="10.827007574792848"><ele>85.0</ele><time>2026-03-29T13:56:01Z</time></trkpt><trkpt lat="45.84360067298994" lon="10.826933893144462"><ele>85.0</ele><time>2026-03-29T13:56:02Z</time></trkpt><trkpt lat="45.84350946369393" lon="10.826891311868978"><ele>85.0</ele><time>2026-03-29T13:56:03Z</time></trkpt><trkpt lat="45.84343020015704" lon="10.826817820374572"><ele>85.0</ele><time>2026-03-29T13:56:04Z</time></trkpt><trkpt lat="45.84334210812394" lon="10.826758098103877"><ele>85.0</ele><time>2026-03-29T13:56:05Z</time></trkpt><trkpt lat="45.84326210997619" lon="10.82671174902601"><ele>86.33333333333333</ele><time>2026-03-29T13:56:06Z</time></trkpt><trkpt lat="45.843184263359056" lon="10.826668132994527"><ele>87.66666666666666</ele><time>2026-03-29T13:56:07Z</time></trkpt><trkpt lat="45.84310531995408" lon="10.826627169782196"><ele>89.0</ele><time>2026-03-29T13:56:08Z</time></trkpt><trkpt lat="45.84302179560559" lon="10.826581111361214"><ele>90.33333333333333</ele><time>2026-03-29T13:56:09Z</time></trkpt><trkpt lat="45.842938531081124" lon="10.826543652178676"><ele>91.66666666666667</ele><time>2026-03-29T13:56:10Z</time></trkpt><trkpt lat="45.842855248699955" lon="10.826503897872422"><ele>93.0</ele><time>2026-03-29T13:56:11Z</time></trkpt><trkpt lat="45.84275922611058" lon="10.826468325577473"><ele>93.0</ele><time>2026-03-29T13:56:12Z</time></trkpt><trkpt lat="45.842667917081435" lon="10.826412922816802"><ele>93.0</ele><time>2026-03-29T13:56:13Z</time></trkpt><trkpt lat="45.84257051890405" lon="10.826382625574583"><ele>93.0</ele><time>2026-03-29T13:56:14Z</time></trkpt><trkpt lat="45.842472475796995" lon="10.826341350520115"><ele>93.0</ele><time>2026-03-29T13:56:15Z</time></trkpt><trkpt lat="45.84237517140263" lon="10.82630518436859"><ele>93.0</ele><time>2026-03-29T13:56:16Z</time></trkpt><trkpt lat="45.842285838739926" lon="10.826270921754311"><ele>95.2</ele><time>2026-03-29T13:56:17Z</time></trkpt><trkpt lat="45.84218929894059" lon="10.82622667228448"><ele>97.4</ele><time>2026-03-29T13:56:18Z</time></trkpt><trkpt lat="45.84210086733815" lon="10.826116672586627"><ele>99.60000000000001</ele><time>2026-03-29T13:56:19Z</time></trkpt><trkpt lat="45.84201617643545" lon="10.826053479621834"><ele>101.80000000000001</ele><time>2026-03-29T13:56:20Z</time></trkpt><trkpt lat="45.84194193979881" lon="10.82598438183627"><ele>104.0</ele><time>2026-03-29T13:56:21Z</time></trkpt><trkpt lat="45.84187638050264" lon="10.825944489919634"><ele>103.99999999999999</ele><time>2026-03-29T13:56:22Z</time></trkpt><trkpt lat="45.841800005326355" lon="10.825906801741274"><ele>104.0</ele><time>2026-03-29T13:56:23Z</time></trkpt><trkpt lat="45.84173651973793" lon="10.82587175798249"><ele>104.0</ele><time>2026-03-29T13:56:24Z</time></trkpt><trkpt lat="45.84162554735406" lon="10.825843190913872"><ele>104.0</ele><time>2026-03-29T13:56:26Z</time></trkpt><trkpt lat="45.8415289293124" lon="10.825816177761565"><ele>103.99999999999999</ele><time>2026-03-29T13:56:28Z</time></trkpt><trkpt lat="45.84145309161972" lon="10.825790146916956"><ele>104.0</ele><time>2026-03-29T13:56:30Z</time></trkpt><trkpt lat="45.841383323794" lon="10.825783917536715"><ele>101.6</ele><time>2026-03-29T13:56:33Z</time></trkpt><trkpt lat="45.84130443789431" lon="10.825770947957402"><ele>99.2</ele><time>2026-03-29T13:56:40Z</time></trkpt><trkpt lat="45.84121307747132" lon="10.825760852586127"><ele>96.8</ele><time>2026-03-29T13:56:42Z</time></trkpt><trkpt lat="45.8411131581834" lon="10.825746588036722"><ele>94.39999999999999</ele><time>2026-03-29T13:56:44Z</time></trkpt><trkpt lat="45.84100075487027" lon="10.825733024262945"><ele>92.0</ele><time>2026-03-29T13:56:46Z</time></trkpt><trkpt lat="45.84092622506938" lon="10.825723500305395"><ele>89.0</ele><time>2026-03-29T13:56:47Z</time></trkpt><trkpt lat="45.84078506080769" lon="10.82568784346691"><ele>86.0</ele><time>2026-03-29T13:56:48Z</time></trkpt><trkpt lat="45.84061687050125" lon="10.825789547801389"><ele>83.0</ele><time>2026-03-29T13:56:49Z</time></trkpt><trkpt lat="45.840480670236005" lon="10.825835498603002"><ele>83.0</ele><time>2026-03-29T13:56:50Z</time></trkpt><trkpt lat="45.840391408726234" lon="10.82584162148194"><ele>83.0</ele><time>2026-03-29T13:56:51Z</time></trkpt><trkpt lat="45.84031394322348" lon="10.825876359798976"><ele>83.0</ele><time>2026-03-29T13:56:52Z</time></trkpt><trkpt lat="45.84023832898737" lon="10.825904620804907"><ele>83.0</ele><time>2026-03-29T13:56:53Z</time></trkpt><trkpt lat="45.84016850017561" lon="10.825930391372202"><ele>83.0</ele><time>2026-03-29T13:56:54Z</time></trkpt><trkpt lat="45.840082638102935" lon="10.825954662431931"><ele>83.0</ele><time>2026-03-29T13:56:55Z</time></trkpt><trkpt lat="45.83999572216761" lon="10.825983052019886"><ele>78.80000000000001</ele><time>2026-03-29T13:56:56Z</time></trkpt><trkpt lat="45.83990654051322" lon="10.826003306425992"><ele>74.60000000000001</ele><time>2026-03-29T13:56:57Z</time></trkpt><trkpt lat="45.83981508104623" lon="10.826017375326733"><ele>70.4</ele><time>2026-03-29T13:56:58Z</time></trkpt><trkpt lat="45.83972402622942" lon="10.82601987076614"><ele>66.2</ele><time>2026-03-29T13:56:59Z</time></trkpt><trkpt lat="45.83963047389013" lon="10.826021699446237"><ele>62.0</ele><time>2026-03-29T13:57:00Z</time></trkpt><trkpt lat="45.839534503733994" lon="10.826030053636119"><ele>62.00000000000001</ele><time>2026-03-29T13:57:01Z</time></trkpt><trkpt lat="45.83944103381934" lon="10.826029285275526"><ele>62.0</ele><time>2026-03-29T13:57:02Z</time></trkpt><trkpt lat="45.83935171009443" lon="10.826013553856821"><ele>62.0</ele><time>2026-03-29T13:57:02.999Z</time></trkpt><trkpt lat="45.83926022308721" lon="10.825999221926882"><ele>62.0</ele><time>2026-03-29T13:57:03.999Z</time></trkpt><trkpt lat="45.839175133824895" lon="10.82598120361045"><ele>62.00000000000001</ele><time>2026-03-29T13:57:04.999Z</time></trkpt><trkpt lat="45.83909369990244" lon="10.825955532495922"><ele>62.0</ele><time>2026-03-29T13:57:05.999Z</time></trkpt><trkpt lat="45.839008757262974" lon="10.825933715512202"><ele>62.0</ele><time>2026-03-29T13:57:06.999Z</time></trkpt><trkpt lat="45.838923328594944" lon="10.825911813062845"><ele>62.0</ele><time>2026-03-29T13:57:07.999Z</time></trkpt><trkpt lat="45.838836688986916" lon="10.825889403789848"><ele>62.0</ele><time>2026-03-29T13:57:09.019Z</time></trkpt><trkpt lat="45.83875187010503" lon="10.825867464279987"><ele>62.0</ele><time>2026-03-29T13:57:10.017Z</time></trkpt><trkpt lat="45.838660563660405" lon="10.825848711059512"><ele>62.0</ele><time>2026-03-29T13:57:10.999Z</time></trkpt><trkpt lat="45.83846550901642" lon="10.825800792879752"><ele>62.0</ele><time>2026-03-29T13:57:11.999Z</time></trkpt><trkpt lat="45.83836355526344" lon="10.825772761270033"><ele>62.0</ele><time>2026-03-29T13:57:12.999Z</time></trkpt><trkpt lat="45.83825720396684" lon="10.825742649012598"><ele>62.0</ele><time>2026-03-29T13:57:13.999Z</time></trkpt><trkpt lat="45.838155083241254" lon="10.825709288495743"><ele>62.0</ele><time>2026-03-29T13:57:14.999Z</time></trkpt><trkpt lat="45.83806327930693" lon="10.825685977876027"><ele>62.0</ele><time>2026-03-29T13:57:15.999Z</time></trkpt><trkpt lat="45.837972645463495" lon="10.825663048238816"><ele>62.00000000000001</ele><time>2026-03-29T13:57:16.999Z</time></trkpt><trkpt lat="45.83789195800049" lon="10.82564008629858"><ele>62.0</ele><time>2026-03-29T13:57:17.999Z</time></trkpt><trkpt lat="45.83781976011049" lon="10.825624601130672"><ele>62.0</ele><time>2026-03-29T13:57:18.999Z</time></trkpt><trkpt lat="45.83774272790428" lon="10.825597343079123"><ele>62.0</ele><time>2026-03-29T13:57:19.999Z</time></trkpt><trkpt lat="45.83766118628211" lon="10.825567799564537"><ele>62.00000000000001</ele><time>2026-03-29T13:57:20.999Z</time></trkpt><trkpt lat="45.8375832688618" lon="10.82552768382003"><ele>62.0</ele><time>2026-03-29T13:57:21.999Z</time></trkpt><trkpt lat="45.83750399606144" lon="10.82549401431045"><ele>62.00000000000001</ele><time>2026-03-29T13:57:22.999Z</time></trkpt><trkpt lat="45.837425329672385" lon="10.825462639186997"><ele>62.0</ele><time>2026-03-29T13:57:23.999Z</time></trkpt><trkpt lat="45.837298907910345" lon="10.825413587644666"><ele>62.0</ele><time>2026-03-29T13:57:25.999Z</time></trkpt><trkpt lat="45.8372303152652" lon="10.82538810495352"><ele>62.0</ele><time>2026-03-29T13:57:27.017Z</time></trkpt><trkpt lat="45.837163031582826" lon="10.825362580715693"><ele>62.00000000000001</ele><time>2026-03-29T13:57:28.017Z</time></trkpt><trkpt lat="45.83709551911004" lon="10.825336924819387"><ele>62.0</ele><time>2026-03-29T13:57:29.021Z</time></trkpt><trkpt lat="45.83702812013365" lon="10.82531364394133"><ele>62.0</ele><time>2026-03-29T13:57:30.02Z</time></trkpt><trkpt lat="45.836960680704976" lon="10.825289478077744"><ele>62.0</ele><time>2026-03-29T13:57:31.02Z</time></trkpt><trkpt lat="45.83497662781856" lon="10.825358669257366"><ele>62.0</ele><time>2026-03-29T13:57:34.197Z</time></trkpt><trkpt lat="45.83435033639194" lon="10.825449675670479"><ele>89.0</ele><time>2026-03-29T13:57:35.197Z</time></trkpt><trkpt lat="45.83252117239978" lon="10.824931848497531"><ele>62.0</ele><time>2026-03-29T13:57:38.2Z</time></trkpt><trkpt lat="45.83386606794849" lon="10.825343825694096"><ele>62.0</ele><time>2026-03-29T13:57:46.999Z</time></trkpt><trkpt lat="45.833708180828246" lon="10.825417049810827"><ele>62.0</ele><time>2026-03-29T13:57:47.999Z</time></trkpt><trkpt lat="45.8335460752725" lon="10.825373465414996"><ele>62.0</ele><time>2026-03-29T13:57:48.999Z</time></trkpt><trkpt lat="45.83335994375191" lon="10.8253163281788"><ele>63.0</ele><time>2026-03-29T13:57:49.999Z</time></trkpt><trkpt lat="45.8331867111892" lon="10.8252503412244"><ele>64.0</ele><time>2026-03-29T13:57:51Z</time></trkpt><trkpt lat="45.833035377130166" lon="10.825208123340337"><ele>65.0</ele><time>2026-03-29T13:57:52Z</time></trkpt><trkpt lat="45.83288578970509" lon="10.825143192369037"><ele>73.0</ele><time>2026-03-29T13:57:53Z</time></trkpt><trkpt lat="45.83273480602157" lon="10.825037863750536"><ele>81.0</ele><time>2026-03-29T13:57:54Z</time></trkpt><trkpt lat="45.832564753308304" lon="10.824951245649146"><ele>89.0</ele><time>2026-03-29T13:57:55Z</time></trkpt><trkpt lat="45.83239688173747" lon="10.824853657265404"><ele>89.0</ele><time>2026-03-29T13:57:56Z</time></trkpt><trkpt lat="45.832236622560735" lon="10.824757484421186"><ele>89.0</ele><time>2026-03-29T13:57:57Z</time></trkpt><trkpt lat="45.83210964182837" lon="10.824662687856032"><ele>89.0</ele><time>2026-03-29T13:57:58Z</time></trkpt><trkpt lat="45.832011927366814" lon="10.82451608434119"><ele>89.0</ele><time>2026-03-29T13:57:59Z</time></trkpt><trkpt lat="45.83188886196743" lon="10.824371220685839"><ele>89.0</ele><time>2026-03-29T13:58:00Z</time></trkpt><trkpt lat="45.83178140514123" lon="10.824206113430868"><ele>89.0</ele><time>2026-03-29T13:58:01Z</time></trkpt><trkpt lat="45.83166665102291" lon="10.824032573110001"><ele>89.33333333333334</ele><time>2026-03-29T13:58:02Z</time></trkpt><trkpt lat="45.83154610325827" lon="10.823848524206086"><ele>89.66666666666667</ele><time>2026-03-29T13:58:03Z</time></trkpt><trkpt lat="45.831425727948144" lon="10.823661811120399"><ele>90.0</ele><time>2026-03-29T13:58:04Z</time></trkpt><trkpt lat="45.8313014150909" lon="10.82347696494835"><ele>89.66666666666667</ele><time>2026-03-29T13:58:05Z</time></trkpt><trkpt lat="45.83117161883311" lon="10.823310002132494"><ele>89.33333333333334</ele><time>2026-03-29T13:58:06Z</time></trkpt><trkpt lat="45.83101967118192" lon="10.82314622687877"><ele>89.0</ele><time>2026-03-29T13:58:07Z</time></trkpt><trkpt lat="45.830854765711145" lon="10.823005092995357"><ele>89.0</ele><time>2026-03-29T13:58:08Z</time></trkpt><trkpt lat="45.83067180000547" lon="10.822905456286025"><ele>89.0</ele><time>2026-03-29T13:58:09Z</time></trkpt><trkpt lat="45.83047130387995" lon="10.822817076499948"><ele>89.0</ele><time>2026-03-29T13:58:10Z</time></trkpt><trkpt lat="45.83023069081093" lon="10.822706221207985"><ele>98.0</ele><time>2026-03-29T13:58:11Z</time></trkpt><trkpt lat="45.829981802149334" lon="10.822587248776482"><ele>107.0</ele><time>2026-03-29T13:58:12Z</time></trkpt><trkpt lat="45.82975826062567" lon="10.822484994027631"><ele>107.0</ele><time>2026-03-29T13:58:13Z</time></trkpt><trkpt lat="45.82957178838406" lon="10.82239321575803"><ele>107.0</ele><time>2026-03-29T13:58:14Z</time></trkpt><trkpt lat="45.82943492391" lon="10.82228021100306"><ele>107.0</ele><time>2026-03-29T13:58:15Z</time></trkpt><trkpt lat="45.82932002381117" lon="10.822155900784768"><ele>108.66666666666666</ele><time>2026-03-29T13:58:16Z</time></trkpt><trkpt lat="45.82921266887479" lon="10.821996671203857"><ele>110.33333333333334</ele><time>2026-03-29T13:58:17Z</time></trkpt><trkpt lat="45.8290993225792" lon="10.821840732353165"><ele>112.0</ele><time>2026-03-29T13:58:18Z</time></trkpt><trkpt lat="45.82899153707003" lon="10.821692832214541"><ele>112.0</ele><time>2026-03-29T13:58:19Z</time></trkpt><trkpt lat="45.828866842977355" lon="10.82152374788504"><ele>112.0</ele><time>2026-03-29T13:58:20Z</time></trkpt><trkpt lat="45.82860987321818" lon="10.821227358233495"><ele>108.33333333333334</ele><time>2026-03-29T13:58:21Z</time></trkpt><trkpt lat="45.82846308103257" lon="10.821077160072612"><ele>104.66666666666666</ele><time>2026-03-29T13:58:22Z</time></trkpt><trkpt lat="45.82833165551123" lon="10.820930211168468"><ele>101.0</ele><time>2026-03-29T13:58:23Z</time></trkpt><trkpt lat="45.82821354828726" lon="10.820763761575218"><ele>101.0</ele><time>2026-03-29T13:58:24Z</time></trkpt><trkpt lat="45.82810504962564" lon="10.820589004240412"><ele>101.0</ele><time>2026-03-29T13:58:25Z</time></trkpt><trkpt lat="45.828015465907285" lon="10.820408769842404"><ele>101.0</ele><time>2026-03-29T13:58:26Z</time></trkpt><trkpt lat="45.82793443789281" lon="10.82021573838045"><ele>109.0</ele><time>2026-03-29T13:58:27Z</time></trkpt><trkpt lat="45.82786251338922" lon="10.820005685130855"><ele>117.0</ele><time>2026-03-29T13:58:28Z</time></trkpt><trkpt lat="45.82780307697422" lon="10.819776912026505"><ele>125.0</ele><time>2026-03-29T13:58:29Z</time></trkpt><trkpt lat="45.82776002479906" lon="10.819546844010256"><ele>128.66666666666666</ele><time>2026-03-29T13:58:30Z</time></trkpt><trkpt lat="45.827730824420634" lon="10.819307772826896"><ele>132.33333333333334</ele><time>2026-03-29T13:58:31Z</time></trkpt><trkpt lat="45.827719176526" lon="10.819054918671199"><ele>136.0</ele><time>2026-03-29T13:58:32Z</time></trkpt><trkpt lat="45.82765891796275" lon="10.818794124503654"><ele>136.0</ele><time>2026-03-29T13:58:33Z</time></trkpt><trkpt lat="45.82767130790226" lon="10.818531505583765"><ele>136.0</ele><time>2026-03-29T13:58:34Z</time></trkpt><trkpt lat="45.827687638720874" lon="10.818257886546691"><ele>136.0</ele><time>2026-03-29T13:58:35Z</time></trkpt><trkpt lat="45.82768868076116" lon="10.817990222914446"><ele>138.0</ele><time>2026-03-29T13:58:36Z</time></trkpt><trkpt lat="45.82772669108821" lon="10.817709379481675"><ele>140.0</ele><time>2026-03-29T13:58:37Z</time></trkpt><trkpt lat="45.827672382448895" lon="10.817444873021"><ele>142.0</ele><time>2026-03-29T13:58:38Z</time></trkpt><trkpt lat="45.82761357890945" lon="10.817170767161878"><ele>137.66666666666669</ele><time>2026-03-29T13:58:39Z</time></trkpt><trkpt lat="45.827524957660614" lon="10.816920785531945"><ele>133.33333333333334</ele><time>2026-03-29T13:58:40Z</time></trkpt><trkpt lat="45.82743346044846" lon="10.816706297501739"><ele>129.0</ele><time>2026-03-29T13:58:41Z</time></trkpt><trkpt lat="45.82731907987682" lon="10.816505822939133"><ele>129.0</ele><time>2026-03-29T13:58:42Z</time></trkpt><trkpt lat="45.8271964852442" lon="10.81631612306468"><ele>129.0</ele><time>2026-03-29T13:58:43Z</time></trkpt><trkpt lat="45.827052940377214" lon="10.816134497182947"><ele>129.0</ele><time>2026-03-29T13:58:44Z</time></trkpt><trkpt lat="45.82688291253487" lon="10.815968190750155"><ele>124.33333333333334</ele><time>2026-03-29T13:58:45Z</time></trkpt><trkpt lat="45.82670361719517" lon="10.81580927198696"><ele>119.66666666666667</ele><time>2026-03-29T13:58:46Z</time></trkpt><trkpt lat="45.82651879613798" lon="10.815664606058226"><ele>115.0</ele><time>2026-03-29T13:58:47Z</time></trkpt><trkpt lat="45.82636898818832" lon="10.815525074048967"><ele>115.0</ele><time>2026-03-29T13:58:48Z</time></trkpt><trkpt lat="45.826238091530215" lon="10.815385991131233"><ele>115.0</ele><time>2026-03-29T13:58:49Z</time></trkpt><trkpt lat="45.82612154431161" lon="10.81522241693925"><ele>115.0</ele><time>2026-03-29T13:58:50Z</time></trkpt><trkpt lat="45.82601596172042" lon="10.81503225795716"><ele>112.0</ele><time>2026-03-29T13:58:51Z</time></trkpt><trkpt lat="45.82592440873077" lon="10.814812793193866"><ele>109.0</ele><time>2026-03-29T13:58:52Z</time></trkpt><trkpt lat="45.82582982701967" lon="10.814587563995111"><ele>106.0</ele><time>2026-03-29T13:58:53Z</time></trkpt><trkpt lat="45.82570845895138" lon="10.81438389516337"><ele>113.33333333333334</ele><time>2026-03-29T13:58:54Z</time></trkpt><trkpt lat="45.82560063487979" lon="10.814158467123995"><ele>120.66666666666666</ele><time>2026-03-29T13:58:55Z</time></trkpt><trkpt lat="45.825472117914586" lon="10.813953766951371"><ele>128.0</ele><time>2026-03-29T13:58:56Z</time></trkpt><trkpt lat="45.82534345436082" lon="10.813782792186384"><ele>128.0</ele><time>2026-03-29T13:58:57Z</time></trkpt><trkpt lat="45.82520569923953" lon="10.813623892533844"><ele>128.0</ele><time>2026-03-29T13:58:58Z</time></trkpt><trkpt lat="45.82504240882179" lon="10.813456794175613"><ele>128.0</ele><time>2026-03-29T13:58:59Z</time></trkpt><trkpt lat="45.82493296762665" lon="10.813262766873608"><ele>128.33333333333331</ele><time>2026-03-29T13:59:00Z</time></trkpt><trkpt lat="45.824834653123744" lon="10.813088975821872"><ele>128.66666666666666</ele><time>2026-03-29T13:59:01Z</time></trkpt><trkpt lat="45.824739752111924" lon="10.81288522097226"><ele>129.0</ele><time>2026-03-29T13:59:02Z</time></trkpt><trkpt lat="45.824665014099544" lon="10.812647194201423"><ele>129.0</ele><time>2026-03-29T13:59:03Z</time></trkpt><trkpt lat="45.824600274547045" lon="10.812360599229983"><ele>129.0</ele><time>2026-03-29T13:59:04Z</time></trkpt><trkpt lat="45.82453147321365" lon="10.812059812226023"><ele>129.0</ele><time>2026-03-29T13:59:05Z</time></trkpt><trkpt lat="45.82446441970889" lon="10.81176339286869"><ele>131.0</ele><time>2026-03-29T13:59:06Z</time></trkpt><trkpt lat="45.824405795429456" lon="10.811498878811895"><ele>133.0</ele><time>2026-03-29T13:59:07Z</time></trkpt><trkpt lat="45.82434404536412" lon="10.811225304627206"><ele>135.0</ele><time>2026-03-29T13:59:08Z</time></trkpt><trkpt lat="45.824284036675266" lon="10.810957484488869"><ele>125.66666666666666</ele><time>2026-03-29T13:59:09Z</time></trkpt><trkpt lat="45.82424296227973" lon="10.810707230080382"><ele>116.33333333333333</ele><time>2026-03-29T13:59:10Z</time></trkpt><trkpt lat="45.82421828378493" lon="10.810458171579864"><ele>107.0</ele><time>2026-03-29T13:59:11Z</time></trkpt><trkpt lat="45.824214639183104" lon="10.810188148455643"><ele>107.33333333333333</ele><time>2026-03-29T13:59:12Z</time></trkpt><trkpt lat="45.82423113728927" lon="10.80989734755985"><ele>107.66666666666666</ele><time>2026-03-29T13:59:13Z</time></trkpt><trkpt lat="45.82424980421984" lon="10.809640609490199"><ele>108.0</ele><time>2026-03-29T13:59:14Z</time></trkpt><trkpt lat="45.82421704567111" lon="10.809409710352195"><ele>112.0</ele><time>2026-03-29T13:59:15Z</time></trkpt><trkpt lat="45.8241897230954" lon="10.809191609377207"><ele>116.0</ele><time>2026-03-29T13:59:15.999Z</time></trkpt><trkpt lat="45.82412476863863" lon="10.808997044214587"><ele>120.0</ele><time>2026-03-29T13:59:16.999Z</time></trkpt><trkpt lat="45.824033235126294" lon="10.808848862732486"><ele>124.0</ele><time>2026-03-29T13:59:17.999Z</time></trkpt><trkpt lat="45.82392230440001" lon="10.808714809902687"><ele>124.0</ele><time>2026-03-29T13:59:18.999Z</time></trkpt><trkpt lat="45.823796488223955" lon="10.808553324134234"><ele>124.0</ele><time>2026-03-29T13:59:19.999Z</time></trkpt><trkpt lat="45.823683446736226" lon="10.808391450933218"><ele>124.0</ele><time>2026-03-29T13:59:20.999Z</time></trkpt><trkpt lat="45.823541014110006" lon="10.808210588430617"><ele>126.75</ele><time>2026-03-29T13:59:21.999Z</time></trkpt><trkpt lat="45.82343917402797" lon="10.80807236462458"><ele>129.5</ele><time>2026-03-29T13:59:22.999Z</time></trkpt><trkpt lat="45.82332784384786" lon="10.807916139888752"><ele>132.25</ele><time>2026-03-29T13:59:23.999Z</time></trkpt><trkpt lat="45.82328178321722" lon="10.807727741900823"><ele>135.0</ele><time>2026-03-29T13:59:24.999Z</time></trkpt><trkpt lat="45.82320209775516" lon="10.807449571935766"><ele>135.0</ele><time>2026-03-29T13:59:25.999Z</time></trkpt><trkpt lat="45.82315237410683" lon="10.807238399584856"><ele>135.0</ele><time>2026-03-29T13:59:26.999Z</time></trkpt><trkpt lat="45.82310689536623" lon="10.807013565792614"><ele>135.0</ele><time>2026-03-29T13:59:27.999Z</time></trkpt><trkpt lat="45.82303797291296" lon="10.806775599249516"><ele>146.66666666666666</ele><time>2026-03-29T13:59:28.999Z</time></trkpt><trkpt lat="45.82298840363409" lon="10.806535838175352"><ele>158.33333333333331</ele><time>2026-03-29T13:59:29.999Z</time></trkpt><trkpt lat="45.82295937457501" lon="10.806323653237614"><ele>170.0</ele><time>2026-03-29T13:59:31.015Z</time></trkpt><trkpt lat="45.82278412771022" lon="10.805529551590611"><ele>177.0</ele><time>2026-03-29T13:59:33.999Z</time></trkpt><trkpt lat="45.82272469004729" lon="10.805296476382413"><ele>184.0</ele><time>2026-03-29T13:59:34.999Z</time></trkpt><trkpt lat="45.822657039780324" lon="10.805077972784927"><ele>191.0</ele><time>2026-03-29T13:59:35.999Z</time></trkpt><trkpt lat="45.822570074991006" lon="10.80487922103816"><ele>173.0</ele><time>2026-03-29T13:59:36.999Z</time></trkpt><trkpt lat="45.822468568356754" lon="10.804690638779434"><ele>155.0</ele><time>2026-03-29T13:59:37.999Z</time></trkpt><trkpt lat="45.82238301019141" lon="10.80446489419822"><ele>137.0</ele><time>2026-03-29T13:59:38.999Z</time></trkpt><trkpt lat="45.82226269633684" lon="10.804268204911189"><ele>137.0</ele><time>2026-03-29T13:59:39.999Z</time></trkpt><trkpt lat="45.82214713568391" lon="10.804114506463343"><ele>137.0</ele><time>2026-03-29T13:59:40.999Z</time></trkpt><trkpt lat="45.822096537105566" lon="10.803860337317769"><ele>137.0</ele><time>2026-03-29T13:59:41.999Z</time></trkpt><trkpt lat="45.82200927367161" lon="10.803665433073679"><ele>138.66666666666666</ele><time>2026-03-29T13:59:42.999Z</time></trkpt><trkpt lat="45.82192002122037" lon="10.80344816509829"><ele>140.33333333333334</ele><time>2026-03-29T13:59:43.999Z</time></trkpt><trkpt lat="45.82182243593125" lon="10.803227306785612"><ele>142.0</ele><time>2026-03-29T13:59:44.999Z</time></trkpt><trkpt lat="45.821757139532096" lon="10.803039034463312"><ele>132.66666666666669</ele><time>2026-03-29T13:59:45.999Z</time></trkpt><trkpt lat="45.82171441571158" lon="10.802833866185216"><ele>123.33333333333334</ele><time>2026-03-29T13:59:46.999Z</time></trkpt><trkpt lat="45.82168002726267" lon="10.802620994924931"><ele>114.0</ele><time>2026-03-29T13:59:47.999Z</time></trkpt><trkpt lat="45.821662773592045" lon="10.802407436086343"><ele>114.0</ele><time>2026-03-29T13:59:48.999Z</time></trkpt><trkpt lat="45.821662770773465" lon="10.802180823003368"><ele>114.0</ele><time>2026-03-29T13:59:49.999Z</time></trkpt><trkpt lat="45.82167869333836" lon="10.801945267644383"><ele>114.0</ele><time>2026-03-29T13:59:50.999Z</time></trkpt><trkpt lat="45.821695305926404" lon="10.80169183180493"><ele>113.66666666666666</ele><time>2026-03-29T13:59:51.999Z</time></trkpt><trkpt lat="45.82169205823253" lon="10.801432748048503"><ele>113.33333333333333</ele><time>2026-03-29T13:59:52.999Z</time></trkpt><trkpt lat="45.821656051435134" lon="10.801210362041694"><ele>113.0</ele><time>2026-03-29T13:59:53.999Z</time></trkpt><trkpt lat="45.821628041259146" lon="10.800987292492147"><ele>113.0</ele><time>2026-03-29T13:59:54.999Z</time></trkpt><trkpt lat="45.82157980046976" lon="10.800766763923797"><ele>113.0</ele><time>2026-03-29T13:59:55.999Z</time></trkpt><trkpt lat="45.82151045050605" lon="10.800559323758772"><ele>113.0</ele><time>2026-03-29T13:59:57Z</time></trkpt><trkpt lat="45.82142996402718" lon="10.800362875585053"><ele>113.0</ele><time>2026-03-29T13:59:58Z</time></trkpt><trkpt lat="45.82133501017501" lon="10.800175854429474"><ele>113.0</ele><time>2026-03-29T13:59:59Z</time></trkpt><trkpt lat="45.821228321065504" lon="10.800009864316097"><ele>113.0</ele><time>2026-03-29T14:00:00Z</time></trkpt><trkpt lat="45.8211171023537" lon="10.799875074561628"><ele>109.0</ele><time>2026-03-29T14:00:01Z</time></trkpt><trkpt lat="45.82099593097893" lon="10.799769252929556"><ele>105.0</ele><time>2026-03-29T14:00:02Z</time></trkpt><trkpt lat="45.82087731449025" lon="10.799675634562965"><ele>101.0</ele><time>2026-03-29T14:00:03Z</time></trkpt><trkpt lat="45.8207676783755" lon="10.799588781492808"><ele>97.0</ele><time>2026-03-29T14:00:04Z</time></trkpt><trkpt lat="45.820672896406656" lon="10.799489449965966"><ele>97.0</ele><time>2026-03-29T14:00:05Z</time></trkpt><trkpt lat="45.820575160292684" lon="10.799371294676341"><ele>97.0</ele><time>2026-03-29T14:00:06Z</time></trkpt><trkpt lat="45.82049854620281" lon="10.79925282875399"><ele>97.0</ele><time>2026-03-29T14:00:07Z</time></trkpt><trkpt lat="45.82041716174502" lon="10.799136956687391"><ele>97.0</ele><time>2026-03-29T14:00:08Z</time></trkpt><trkpt lat="45.820365870060876" lon="10.798976260064487"><ele>101.75</ele><time>2026-03-29T14:00:09.015Z</time></trkpt><trkpt lat="45.820299828303995" lon="10.798840269997246"><ele>106.5</ele><time>2026-03-29T14:00:10.018Z</time></trkpt><trkpt lat="45.820233461372915" lon="10.798705376776775"><ele>111.25</ele><time>2026-03-29T14:00:11.018Z</time></trkpt><trkpt lat="45.820167109917705" lon="10.798569776506639"><ele>116.0</ele><time>2026-03-29T14:00:12.021Z</time></trkpt><trkpt lat="45.82010137888889" lon="10.798435371112623"><ele>116.0</ele><time>2026-03-29T14:00:13.015Z</time></trkpt><trkpt lat="45.81973060823936" lon="10.797693675193212"><ele>127.0</ele><time>2026-03-29T14:00:16Z</time></trkpt><trkpt lat="45.8196531468681" lon="10.797535712742722"><ele>138.0</ele><time>2026-03-29T14:00:17Z</time></trkpt><trkpt lat="45.81957199245683" lon="10.79736870693286"><ele>149.0</ele><time>2026-03-29T14:00:18Z</time></trkpt><trkpt lat="45.81949643638069" lon="10.797241249759155"><ele>160.0</ele><time>2026-03-29T14:00:19Z</time></trkpt><trkpt lat="45.819418880689994" lon="10.79706082956127"><ele>160.0</ele><time>2026-03-29T14:00:20Z</time></trkpt><trkpt lat="45.81932614367192" lon="10.796881687432327"><ele>160.0</ele><time>2026-03-29T14:00:21Z</time></trkpt><trkpt lat="45.81921300470201" lon="10.79668136831891"><ele>160.0</ele><time>2026-03-29T14:00:22Z</time></trkpt><trkpt lat="45.81910792693902" lon="10.796527221616621"><ele>145.0</ele><time>2026-03-29T14:00:23Z</time></trkpt><trkpt lat="45.818980815812985" lon="10.796384344805533"><ele>130.0</ele><time>2026-03-29T14:00:24Z</time></trkpt><trkpt lat="45.818827898776696" lon="10.79627044559026"><ele>115.0</ele><time>2026-03-29T14:00:25Z</time></trkpt><trkpt lat="45.81867368527748" lon="10.796143642612039"><ele>115.0</ele><time>2026-03-29T14:00:26Z</time></trkpt><trkpt lat="45.81852119726959" lon="10.796008048106412"><ele>115.0</ele><time>2026-03-29T14:00:27Z</time></trkpt><trkpt lat="45.81838727241709" lon="10.795886967024742"><ele>115.0</ele><time>2026-03-29T14:00:28Z</time></trkpt><trkpt lat="45.8182807387924" lon="10.795743001712955"><ele>110.33333333333334</ele><time>2026-03-29T14:00:29Z</time></trkpt><trkpt lat="45.818181104839006" lon="10.795587934833115"><ele>105.66666666666666</ele><time>2026-03-29T14:00:30Z</time></trkpt><trkpt lat="45.81807574520083" lon="10.795415138412137"><ele>101.0</ele><time>2026-03-29T14:00:31Z</time></trkpt><trkpt lat="45.817966623631165" lon="10.795233021111097"><ele>98.66666666666666</ele><time>2026-03-29T14:00:32Z</time></trkpt><trkpt lat="45.8178558679538" lon="10.795048529485191"><ele>96.33333333333333</ele><time>2026-03-29T14:00:33Z</time></trkpt><trkpt lat="45.81773453622491" lon="10.794852041640771"><ele>94.0</ele><time>2026-03-29T14:00:34Z</time></trkpt><trkpt lat="45.81761002928623" lon="10.794646244906806"><ele>94.0</ele><time>2026-03-29T14:00:35Z</time></trkpt><trkpt lat="45.81750775151576" lon="10.79445906874966"><ele>94.0</ele><time>2026-03-29T14:00:36Z</time></trkpt><trkpt lat="45.817430004236556" lon="10.794273356151797"><ele>94.0</ele><time>2026-03-29T14:00:37Z</time></trkpt><trkpt lat="45.817358853191784" lon="10.794067567576588"><ele>103.33333333333333</ele><time>2026-03-29T14:00:38Z</time></trkpt><trkpt lat="45.81728598693588" lon="10.793849629485937"><ele>112.66666666666666</ele><time>2026-03-29T14:00:39Z</time></trkpt><trkpt lat="45.8172134987261" lon="10.793633084830674"><ele>122.0</ele><time>2026-03-29T14:00:40Z</time></trkpt><trkpt lat="45.81714610798496" lon="10.793431306773785"><ele>128.0</ele><time>2026-03-29T14:00:41Z</time></trkpt><trkpt lat="45.81709122420664" lon="10.793268191503076"><ele>134.0</ele><time>2026-03-29T14:00:42Z</time></trkpt><trkpt lat="45.81702171650816" lon="10.793085539349256"><ele>140.0</ele><time>2026-03-29T14:00:43Z</time></trkpt><trkpt lat="45.81695524994813" lon="10.792926023226213"><ele>146.0</ele><time>2026-03-29T14:00:44Z</time></trkpt><trkpt lat="45.81688811344032" lon="10.792772743095924"><ele>142.0</ele><time>2026-03-29T14:00:45Z</time></trkpt><trkpt lat="45.816809268321066" lon="10.792621976267665"><ele>138.0</ele><time>2026-03-29T14:00:46Z</time></trkpt><trkpt lat="45.816719803853" lon="10.792486412642653"><ele>134.0</ele><time>2026-03-29T14:00:47.018Z</time></trkpt><trkpt lat="45.815209401814094" lon="10.791435800502814"><ele>125.5</ele><time>2026-03-29T14:00:58Z</time></trkpt><trkpt lat="45.81506467573099" lon="10.791387987797448"><ele>117.0</ele><time>2026-03-29T14:00:59Z</time></trkpt><trkpt lat="45.81490938357895" lon="10.791389314968912"><ele>108.5</ele><time>2026-03-29T14:01:00Z</time></trkpt><trkpt lat="45.81476922949178" lon="10.791408828506974"><ele>100.0</ele><time>2026-03-29T14:01:01Z</time></trkpt><trkpt lat="45.81462026343167" lon="10.791441044343548"><ele>100.0</ele><time>2026-03-29T14:01:02Z</time></trkpt><trkpt lat="45.8144781429381" lon="10.791483477323009"><ele>100.0</ele><time>2026-03-29T14:01:03Z</time></trkpt><trkpt lat="45.81430953512117" lon="10.79153615356146"><ele>100.0</ele><time>2026-03-29T14:01:04Z</time></trkpt><trkpt lat="45.81417900073575" lon="10.791592024979979"><ele>99.75</ele><time>2026-03-29T14:01:05Z</time></trkpt><trkpt lat="45.814053395824175" lon="10.79166818426919"><ele>99.5</ele><time>2026-03-29T14:01:06Z</time></trkpt><trkpt lat="45.81393273759996" lon="10.791734679143095"><ele>99.25</ele><time>2026-03-29T14:01:07Z</time></trkpt><trkpt lat="45.81382165834095" lon="10.791786360148691"><ele>99.0</ele><time>2026-03-29T14:01:08Z</time></trkpt><trkpt lat="45.8137127855844" lon="10.791848014367266"><ele>97.80000000000001</ele><time>2026-03-29T14:01:09Z</time></trkpt><trkpt lat="45.81361516176074" lon="10.791911480664602"><ele>96.60000000000001</ele><time>2026-03-29T14:01:10Z</time></trkpt><trkpt lat="45.81351477435236" lon="10.791974428894742"><ele>95.4</ele><time>2026-03-29T14:01:11Z</time></trkpt><trkpt lat="45.81342073692231" lon="10.792023486523165"><ele>94.2</ele><time>2026-03-29T14:01:12Z</time></trkpt><trkpt lat="45.813334660109206" lon="10.792063139034353"><ele>93.0</ele><time>2026-03-29T14:01:12.999Z</time></trkpt><trkpt lat="45.813234283187704" lon="10.792114565198258"><ele>93.0</ele><time>2026-03-29T14:01:13.999Z</time></trkpt><trkpt lat="45.813123111595026" lon="10.792154294841964"><ele>93.0</ele><time>2026-03-29T14:01:14.999Z</time></trkpt><trkpt lat="45.81300660689787" lon="10.79219844013233"><ele>93.0</ele><time>2026-03-29T14:01:15.999Z</time></trkpt><trkpt lat="45.81288378096416" lon="10.792230130992046"><ele>93.0</ele><time>2026-03-29T14:01:16.999Z</time></trkpt><trkpt lat="45.812760907371434" lon="10.79226051567917"><ele>93.75</ele><time>2026-03-29T14:01:17.999Z</time></trkpt><trkpt lat="45.812639344661356" lon="10.792266907759421"><ele>94.5</ele><time>2026-03-29T14:01:18.999Z</time></trkpt><trkpt lat="45.8125156784193" lon="10.792284411826744"><ele>95.25</ele><time>2026-03-29T14:01:19.999Z</time></trkpt><trkpt lat="45.81239897945564" lon="10.792264397311795"><ele>96.0</ele><time>2026-03-29T14:01:20.999Z</time></trkpt><trkpt lat="45.812280024473615" lon="10.792254704827576"><ele>96.0</ele><time>2026-03-29T14:01:21.999Z</time></trkpt><trkpt lat="45.81216414942814" lon="10.792250908052472"><ele>96.0</ele><time>2026-03-29T14:01:22.999Z</time></trkpt><trkpt lat="45.81206110465636" lon="10.792232799875428"><ele>96.0</ele><time>2026-03-29T14:01:23.999Z</time></trkpt><trkpt lat="45.81196502846958" lon="10.792216737405257"><ele>96.0</ele><time>2026-03-29T14:01:24.999Z</time></trkpt><trkpt lat="45.81187473819534" lon="10.792184244589253"><ele>96.0</ele><time>2026-03-29T14:01:25.999Z</time></trkpt><trkpt lat="45.81177538217802" lon="10.79215761920941"><ele>95.6</ele><time>2026-03-29T14:01:26.999Z</time></trkpt><trkpt lat="45.81168280305999" lon="10.792119253823188"><ele>95.19999999999999</ele><time>2026-03-29T14:01:27.999Z</time></trkpt><trkpt lat="45.811592359595494" lon="10.792084725644566"><ele>94.80000000000001</ele><time>2026-03-29T14:01:28.999Z</time></trkpt><trkpt lat="45.811508872472864" lon="10.792059297646446"><ele>94.4</ele><time>2026-03-29T14:01:29.999Z</time></trkpt><trkpt lat="45.811420229909466" lon="10.792031142446188"><ele>94.0</ele><time>2026-03-29T14:01:30.999Z</time></trkpt><trkpt lat="45.81133367323917" lon="10.79201070698616"><ele>94.0</ele><time>2026-03-29T14:01:31.999Z</time></trkpt><trkpt lat="45.81124343673184" lon="10.791983661114244"><ele>94.0</ele><time>2026-03-29T14:01:32.999Z</time></trkpt><trkpt lat="45.811166886499755" lon="10.791951132031992"><ele>94.0</ele><time>2026-03-29T14:01:33.999Z</time></trkpt><trkpt lat="45.81106435850924" lon="10.791895820008321"><ele>94.0</ele><time>2026-03-29T14:01:35.999Z</time></trkpt><trkpt lat="45.81098270410123" lon="10.791849936814359"><ele>94.0</ele><time>2026-03-29T14:01:37.999Z</time></trkpt><trkpt lat="45.81086614705059" lon="10.79176554761011"><ele>94.4</ele><time>2026-03-29T14:01:39.999Z</time></trkpt><trkpt lat="45.81079767411267" lon="10.79170376310233"><ele>94.80000000000001</ele><time>2026-03-29T14:01:40.999Z</time></trkpt><trkpt lat="45.81073108138874" lon="10.79161092003563"><ele>95.19999999999999</ele><time>2026-03-29T14:01:41.999Z</time></trkpt><trkpt lat="45.81064868031634" lon="10.791529476628734"><ele>95.6</ele><time>2026-03-29T14:01:42.999Z</time></trkpt><trkpt lat="45.810548226461805" lon="10.79145892468438"><ele>96.0</ele><time>2026-03-29T14:01:43.999Z</time></trkpt><trkpt lat="45.81044781371275" lon="10.791359774022636"><ele>96.0</ele><time>2026-03-29T14:01:44.999Z</time></trkpt><trkpt lat="45.8103338523417" lon="10.791251824391441"><ele>96.0</ele><time>2026-03-29T14:01:45.999Z</time></trkpt><trkpt lat="45.8102273763919" lon="10.791153154027866"><ele>96.0</ele><time>2026-03-29T14:01:46.999Z</time></trkpt><trkpt lat="45.810134289250485" lon="10.791071999773672"><ele>96.0</ele><time>2026-03-29T14:01:47.999Z</time></trkpt><trkpt lat="45.810036426210544" lon="10.790996744500394"><ele>95.6</ele><time>2026-03-29T14:01:48.999Z</time></trkpt><trkpt lat="45.80994927884721" lon="10.790899542253314"><ele>95.19999999999999</ele><time>2026-03-29T14:01:49.999Z</time></trkpt><trkpt lat="45.80985356035249" lon="10.790819714083206"><ele>94.80000000000001</ele><time>2026-03-29T14:01:50.999Z</time></trkpt><trkpt lat="45.80976285728628" lon="10.79074372035985"><ele>94.4</ele><time>2026-03-29T14:01:51.999Z</time></trkpt><trkpt lat="45.80966881311737" lon="10.790665937486203"><ele>94.0</ele><time>2026-03-29T14:01:52.999Z</time></trkpt><trkpt lat="45.80956802952028" lon="10.790582340772158"><ele>94.0</ele><time>2026-03-29T14:01:53.999Z</time></trkpt><trkpt lat="45.80946081879628" lon="10.790492959831235"><ele>94.0</ele><time>2026-03-29T14:01:54.999Z</time></trkpt><trkpt lat="45.809351159161686" lon="10.790401469015915"><ele>94.0</ele><time>2026-03-29T14:01:55.999Z</time></trkpt><trkpt lat="45.809248579918524" lon="10.79032236970425"><ele>94.0</ele><time>2026-03-29T14:01:56.999Z</time></trkpt><trkpt lat="45.809154338421735" lon="10.790235692720659"><ele>94.25</ele><time>2026-03-29T14:01:57.999Z</time></trkpt><trkpt lat="45.80905369465645" lon="10.790148082237755"><ele>94.5</ele><time>2026-03-29T14:01:58.999Z</time></trkpt><trkpt lat="45.80895655438569" lon="10.79004464135567"><ele>94.75</ele><time>2026-03-29T14:01:59.999Z</time></trkpt><trkpt lat="45.808862463321525" lon="10.789932715630684"><ele>95.0</ele><time>2026-03-29T14:02:00.999Z</time></trkpt><trkpt lat="45.808769539696215" lon="10.789821136127072"><ele>95.0</ele><time>2026-03-29T14:02:01.999Z</time></trkpt><trkpt lat="45.80868517287903" lon="10.78969726880168"><ele>95.0</ele><time>2026-03-29T14:02:03Z</time></trkpt><trkpt lat="45.808602866096976" lon="10.789566275879343"><ele>95.0</ele><time>2026-03-29T14:02:04Z</time></trkpt><trkpt lat="45.80852271768116" lon="10.789429741018049"><ele>95.0</ele><time>2026-03-29T14:02:05Z</time></trkpt><trkpt lat="45.808447496388624" lon="10.789288812345392"><ele>93.75</ele><time>2026-03-29T14:02:06Z</time></trkpt><trkpt lat="45.80837323974294" lon="10.789141721559616"><ele>92.5</ele><time>2026-03-29T14:02:07Z</time></trkpt><trkpt lat="45.80830387472658" lon="10.788985437861871"><ele>91.25</ele><time>2026-03-29T14:02:08Z</time></trkpt><trkpt lat="45.80823528120886" lon="10.788838451683894"><ele>90.0</ele><time>2026-03-29T14:02:09Z</time></trkpt><trkpt lat="45.80816274076502" lon="10.78868426721217"><ele>90.0</ele><time>2026-03-29T14:02:10Z</time></trkpt><trkpt lat="45.808091239804696" lon="10.788534498591694"><ele>90.0</ele><time>2026-03-29T14:02:11Z</time></trkpt><trkpt lat="45.808011034895934" lon="10.788386064096292"><ele>90.0</ele><time>2026-03-29T14:02:12Z</time></trkpt><trkpt lat="45.807925311005" lon="10.788252824017148"><ele>90.0</ele><time>2026-03-29T14:02:13Z</time></trkpt><trkpt lat="45.80784207649699" lon="10.788141644355388"><ele>90.75</ele><time>2026-03-29T14:02:14Z</time></trkpt><trkpt lat="45.80776084969773" lon="10.788046527290938"><ele>91.5</ele><time>2026-03-29T14:02:15Z</time></trkpt><trkpt lat="45.80766947351879" lon="10.787946919694082"><ele>92.25</ele><time>2026-03-29T14:02:16Z</time></trkpt><trkpt lat="45.80756819191636" lon="10.787851525426856"><ele>93.0</ele><time>2026-03-29T14:02:17Z</time></trkpt><trkpt lat="45.80744829108896" lon="10.787764403319231"><ele>93.5</ele><time>2026-03-29T14:02:18Z</time></trkpt><trkpt lat="45.807323375348275" lon="10.787679621083287"><ele>94.0</ele><time>2026-03-29T14:02:19Z</time></trkpt><trkpt lat="45.807185588312" lon="10.787616083641224"><ele>94.5</ele><time>2026-03-29T14:02:20Z</time></trkpt><trkpt lat="45.8070329150666" lon="10.787556342595233"><ele>95.0</ele><time>2026-03-29T14:02:21Z</time></trkpt><trkpt lat="45.806878682722605" lon="10.787497780340118"><ele>93.33333333333334</ele><time>2026-03-29T14:02:22Z</time></trkpt><trkpt lat="45.806722511048726" lon="10.78744142303891"><ele>91.66666666666667</ele><time>2026-03-29T14:02:23Z</time></trkpt><trkpt lat="45.80657749248539" lon="10.787402376599506"><ele>90.0</ele><time>2026-03-29T14:02:24Z</time></trkpt><trkpt lat="45.80642540032802" lon="10.787369530362376"><ele>90.0</ele><time>2026-03-29T14:02:25Z</time></trkpt><trkpt lat="45.80627494291808" lon="10.787346102055576"><ele>90.0</ele><time>2026-03-29T14:02:26Z</time></trkpt><trkpt lat="45.806118534588315" lon="10.78733385518696"><ele>90.0</ele><time>2026-03-29T14:02:27Z</time></trkpt><trkpt lat="45.80596097849382" lon="10.787320664992517"><ele>89.0</ele><time>2026-03-29T14:02:28Z</time></trkpt><trkpt lat="45.80580215947386" lon="10.787317701001838"><ele>88.0</ele><time>2026-03-29T14:02:29Z</time></trkpt><trkpt lat="45.805645676707705" lon="10.78733038249247"><ele>87.0</ele><time>2026-03-29T14:02:30Z</time></trkpt><trkpt lat="45.80549702622696" lon="10.787340788996168"><ele>87.0</ele><time>2026-03-29T14:02:31Z</time></trkpt><trkpt lat="45.8053512289896" lon="10.78735077205882"><ele>87.0</ele><time>2026-03-29T14:02:32Z</time></trkpt><trkpt lat="45.80520563996061" lon="10.787362130505327"><ele>87.0</ele><time>2026-03-29T14:02:33Z</time></trkpt><trkpt lat="45.80507291346437" lon="10.787376771456389"><ele>87.0</ele><time>2026-03-29T14:02:34Z</time></trkpt><trkpt lat="45.80493453358117" lon="10.787385546754818"><ele>86.75</ele><time>2026-03-29T14:02:35Z</time></trkpt><trkpt lat="45.80479167104688" lon="10.787390530024767"><ele>86.5</ele><time>2026-03-29T14:02:36Z</time></trkpt><trkpt lat="45.80465437720901" lon="10.787404347084289"><ele>86.25</ele><time>2026-03-29T14:02:37Z</time></trkpt><trkpt lat="45.80453010401542" lon="10.787414617739273"><ele>86.0</ele><time>2026-03-29T14:02:38Z</time></trkpt><trkpt lat="45.80439525609488" lon="10.787424998616158"><ele>85.75</ele><time>2026-03-29T14:02:39Z</time></trkpt><trkpt lat="45.804266127183716" lon="10.787394978135936"><ele>85.5</ele><time>2026-03-29T14:02:40Z</time></trkpt><trkpt lat="45.804139017044996" lon="10.787375318020414"><ele>85.25</ele><time>2026-03-29T14:02:41Z</time></trkpt><trkpt lat="45.80399787518821" lon="10.787347379888404"><ele>85.0</ele><time>2026-03-29T14:02:42Z</time></trkpt><trkpt lat="45.803861717233836" lon="10.787307331460076"><ele>85.0</ele><time>2026-03-29T14:02:43Z</time></trkpt><trkpt lat="45.80372743727574" lon="10.78725966204102"><ele>85.0</ele><time>2026-03-29T14:02:44Z</time></trkpt><trkpt lat="45.80359253846054" lon="10.787204043428122"><ele>85.0</ele><time>2026-03-29T14:02:45Z</time></trkpt><trkpt lat="45.80346085448521" lon="10.787149447119226"><ele>85.0</ele><time>2026-03-29T14:02:46Z</time></trkpt><trkpt lat="45.803335355851836" lon="10.787095241805083"><ele>84.0</ele><time>2026-03-29T14:02:47Z</time></trkpt><trkpt lat="45.80321581421509" lon="10.787043965365836"><ele>83.0</ele><time>2026-03-29T14:02:48Z</time></trkpt><trkpt lat="45.80308912922454" lon="10.786989624845337"><ele>82.0</ele><time>2026-03-29T14:02:49Z</time></trkpt><trkpt lat="45.80296648805094" lon="10.786937534690761"><ele>81.0</ele><time>2026-03-29T14:02:50Z</time></trkpt><trkpt lat="45.802848802595" lon="10.78688837876388"><ele>82.0</ele><time>2026-03-29T14:02:51Z</time></trkpt><trkpt lat="45.80273247415648" lon="10.786839789643741"><ele>83.0</ele><time>2026-03-29T14:02:52Z</time></trkpt><trkpt lat="45.802611390693095" lon="10.786789214401864"><ele>84.0</ele><time>2026-03-29T14:02:53Z</time></trkpt><trkpt lat="45.80248783213484" lon="10.786737605344504"><ele>85.0</ele><time>2026-03-29T14:02:54Z</time></trkpt><trkpt lat="45.80236765490526" lon="10.786684478845494"><ele>85.0</ele><time>2026-03-29T14:02:55Z</time></trkpt><trkpt lat="45.802257508174506" lon="10.78663410603062"><ele>85.0</ele><time>2026-03-29T14:02:56Z</time></trkpt><trkpt lat="45.80214447913745" lon="10.786573383408218"><ele>85.0</ele><time>2026-03-29T14:02:57Z</time></trkpt><trkpt lat="45.802034333344494" lon="10.786506732588872"><ele>85.0</ele><time>2026-03-29T14:02:58Z</time></trkpt><trkpt lat="45.80192855343118" lon="10.786435830598814"><ele>82.75</ele><time>2026-03-29T14:02:59Z</time></trkpt><trkpt lat="45.80181423910234" lon="10.78634878785607"><ele>80.5</ele><time>2026-03-29T14:03:00Z</time></trkpt><trkpt lat="45.801696133599854" lon="10.786248096504227"><ele>78.25</ele><time>2026-03-29T14:03:01Z</time></trkpt><trkpt lat="45.80158175671362" lon="10.786133411538172"><ele>76.0</ele><time>2026-03-29T14:03:02Z</time></trkpt><trkpt lat="45.801477556433724" lon="10.786021188756441"><ele>78.25</ele><time>2026-03-29T14:03:03Z</time></trkpt><trkpt lat="45.80138096087845" lon="10.78591364564519"><ele>80.5</ele><time>2026-03-29T14:03:04Z</time></trkpt><trkpt lat="45.80128980982912" lon="10.785811978480416"><ele>82.75</ele><time>2026-03-29T14:03:05Z</time></trkpt><trkpt lat="45.801200623074955" lon="10.785713748342763"><ele>85.0</ele><time>2026-03-29T14:03:06Z</time></trkpt><trkpt lat="45.80110735416566" lon="10.785606617159106"><ele>85.0</ele><time>2026-03-29T14:03:07Z</time></trkpt><trkpt lat="45.8010023632213" lon="10.785524593053323"><ele>85.0</ele><time>2026-03-29T14:03:08Z</time></trkpt><trkpt lat="45.80092529439459" lon="10.785410574907266"><ele>85.0</ele><time>2026-03-29T14:03:09Z</time></trkpt><trkpt lat="45.80084930499081" lon="10.785290619450237"><ele>85.0</ele><time>2026-03-29T14:03:10Z</time></trkpt><trkpt lat="45.800779228915374" lon="10.78515987652553"><ele>84.25</ele><time>2026-03-29T14:03:11Z</time></trkpt><trkpt lat="45.80071819748516" lon="10.785015545544875"><ele>83.5</ele><time>2026-03-29T14:03:12Z</time></trkpt><trkpt lat="45.800662753198694" lon="10.784850895124654"><ele>82.75</ele><time>2026-03-29T14:03:13Z</time></trkpt><trkpt lat="45.80064928557508" lon="10.78465600640011"><ele>82.0</ele><time>2026-03-29T14:03:14Z</time></trkpt><trkpt lat="45.80059793200288" lon="10.784479700785768"><ele>84.5</ele><time>2026-03-29T14:03:15Z</time></trkpt><trkpt lat="45.80054425863018" lon="10.78429543197214"><ele>87.0</ele><time>2026-03-29T14:03:16Z</time></trkpt><trkpt lat="45.80048988999206" lon="10.784108775318082"><ele>89.5</ele><time>2026-03-29T14:03:16.999Z</time></trkpt><trkpt lat="45.80043270438465" lon="10.783914064432414"><ele>92.0</ele><time>2026-03-29T14:03:17.999Z</time></trkpt><trkpt lat="45.80036061878901" lon="10.783708657498694"><ele>92.0</ele><time>2026-03-29T14:03:18.999Z</time></trkpt><trkpt lat="45.80025889195039" lon="10.783546410043837"><ele>92.0</ele><time>2026-03-29T14:03:19.999Z</time></trkpt><trkpt lat="45.80016345594355" lon="10.78340188311757"><ele>92.0</ele><time>2026-03-29T14:03:20.999Z</time></trkpt><trkpt lat="45.8000427885291" lon="10.783322138763737"><ele>92.0</ele><time>2026-03-29T14:03:21.999Z</time></trkpt><trkpt lat="45.79988430210777" lon="10.783317991655982"><ele>98.33333333333334</ele><time>2026-03-29T14:03:22.999Z</time></trkpt><trkpt lat="45.79971095483146" lon="10.783305179559573"><ele>104.66666666666667</ele><time>2026-03-29T14:03:23.999Z</time></trkpt><trkpt lat="45.799530644226" lon="10.78329698024599"><ele>111.0</ele><time>2026-03-29T14:03:24.999Z</time></trkpt><trkpt lat="45.799365020843695" lon="10.783275645246691"><ele>95.0</ele><time>2026-03-29T14:03:25.999Z</time></trkpt><trkpt lat="45.799183215377944" lon="10.783299581972239"><ele>79.0</ele><time>2026-03-29T14:03:27.015Z</time></trkpt><trkpt lat="45.79887210628562" lon="10.78318037238431"><ele>79.0</ele><time>2026-03-29T14:03:29.02Z</time></trkpt><trkpt lat="45.798614130825335" lon="10.783076770130359"><ele>79.0</ele><time>2026-03-29T14:03:29.999Z</time></trkpt><trkpt lat="45.798448730261704" lon="10.782982860235423"><ele>79.0</ele><time>2026-03-29T14:03:30.999Z</time></trkpt><trkpt lat="45.798275291474276" lon="10.782900094870534"><ele>78.66666666666666</ele><time>2026-03-29T14:03:31.999Z</time></trkpt><trkpt lat="45.798119254801115" lon="10.782843913237619"><ele>78.33333333333333</ele><time>2026-03-29T14:03:32.999Z</time></trkpt><trkpt lat="45.79795797628712" lon="10.78282133857732"><ele>78.0</ele><time>2026-03-29T14:03:33.999Z</time></trkpt><trkpt lat="45.79778470686544" lon="10.782836839004796"><ele>78.0</ele><time>2026-03-29T14:03:34.999Z</time></trkpt><trkpt lat="45.797600792483884" lon="10.782888284566184"><ele>78.0</ele><time>2026-03-29T14:03:35.999Z</time></trkpt><trkpt lat="45.797411840462956" lon="10.78285258947893"><ele>78.0</ele><time>2026-03-29T14:03:36.999Z</time></trkpt><trkpt lat="45.79721086990671" lon="10.782824300536674"><ele>78.0</ele><time>2026-03-29T14:03:37.999Z</time></trkpt><trkpt lat="45.79701524489376" lon="10.782809319549216"><ele>78.0</ele><time>2026-03-29T14:03:38.999Z</time></trkpt><trkpt lat="45.79682192825466" lon="10.782809227368537"><ele>78.0</ele><time>2026-03-29T14:03:39.999Z</time></trkpt><trkpt lat="45.796649425903404" lon="10.782806972432208"><ele>78.0</ele><time>2026-03-29T14:03:40.999Z</time></trkpt><trkpt lat="45.796469410626145" lon="10.782857372040517"><ele>78.0</ele><time>2026-03-29T14:03:41.999Z</time></trkpt><trkpt lat="45.79633164490954" lon="10.782864307629563"><ele>78.0</ele><time>2026-03-29T14:03:42.999Z</time></trkpt><trkpt lat="45.796198291517776" lon="10.782842526166785"><ele>78.0</ele><time>2026-03-29T14:03:43.999Z</time></trkpt><trkpt lat="45.796079864365055" lon="10.78277568052035"><ele>78.0</ele><time>2026-03-29T14:03:44.999Z</time></trkpt><trkpt lat="45.79595356519966" lon="10.78268352258076"><ele>78.0</ele><time>2026-03-29T14:03:45.999Z</time></trkpt><trkpt lat="45.79579990711441" lon="10.782581459622174"><ele>78.0</ele><time>2026-03-29T14:03:46.999Z</time></trkpt><trkpt lat="45.795633275491234" lon="10.782489407012234"><ele>78.0</ele><time>2026-03-29T14:03:47.999Z</time></trkpt><trkpt lat="45.79545870298513" lon="10.782409890534273"><ele>78.0</ele><time>2026-03-29T14:03:48.999Z</time></trkpt><trkpt lat="45.795274507489985" lon="10.782344568229659"><ele>78.0</ele><time>2026-03-29T14:03:49.999Z</time></trkpt><trkpt lat="45.79510690728865" lon="10.78228288570398"><ele>78.0</ele><time>2026-03-29T14:03:50.999Z</time></trkpt><trkpt lat="45.79495584684344" lon="10.782215406714563"><ele>78.0</ele><time>2026-03-29T14:03:51.999Z</time></trkpt><trkpt lat="45.79480418260862" lon="10.78212272550477"><ele>78.0</ele><time>2026-03-29T14:03:52.999Z</time></trkpt><trkpt lat="45.794672921295934" lon="10.782001625057763"><ele>112.0</ele><time>2026-03-29T14:03:53.999Z</time></trkpt><trkpt lat="45.7945389334923" lon="10.781859026316685"><ele>146.0</ele><time>2026-03-29T14:03:54.999Z</time></trkpt><trkpt lat="45.79440024228256" lon="10.78170935650536"><ele>180.0</ele><time>2026-03-29T14:03:55.999Z</time></trkpt><trkpt lat="45.79426134059348" lon="10.781576812622928"><ele>180.0</ele><time>2026-03-29T14:03:56.999Z</time></trkpt><trkpt lat="45.794124744570006" lon="10.781454889661005"><ele>180.0</ele><time>2026-03-29T14:03:57.999Z</time></trkpt><trkpt lat="45.79398482581037" lon="10.78132876082744"><ele>180.0</ele><time>2026-03-29T14:03:58.999Z</time></trkpt><trkpt lat="45.793854731292576" lon="10.781206327443007"><ele>198.33333333333331</ele><time>2026-03-29T14:03:59.999Z</time></trkpt><trkpt lat="45.793722949082095" lon="10.781081419993718"><ele>216.66666666666666</ele><time>2026-03-29T14:04:00.999Z</time></trkpt><trkpt lat="45.793586690232694" lon="10.780950716845965"><ele>235.0</ele><time>2026-03-29T14:04:01.999Z</time></trkpt><trkpt lat="45.79345038559039" lon="10.780821200250537"><ele>235.0</ele><time>2026-03-29T14:04:02.999Z</time></trkpt><trkpt lat="45.793310585054144" lon="10.780697536785832"><ele>235.0</ele><time>2026-03-29T14:04:03.999Z</time></trkpt><trkpt lat="45.793165012723605" lon="10.780584212904655"><ele>235.0</ele><time>2026-03-29T14:04:05.018Z</time></trkpt><trkpt lat="45.79265805237719" lon="10.780249605013621"><ele>239.66666666666666</ele><time>2026-03-29T14:04:07.999Z</time></trkpt><trkpt lat="45.79248847951373" lon="10.780157450022829"><ele>244.33333333333331</ele><time>2026-03-29T14:04:08.999Z</time></trkpt><trkpt lat="45.79231868993878" lon="10.780068303130586"><ele>249.0</ele><time>2026-03-29T14:04:09.999Z</time></trkpt><trkpt lat="45.792147889001896" lon="10.779978625331301"><ele>249.0</ele><time>2026-03-29T14:04:10.999Z</time></trkpt><trkpt lat="45.79198096488569" lon="10.779890982944027"><ele>249.0</ele><time>2026-03-29T14:04:12Z</time></trkpt><trkpt lat="45.791809993957415" lon="10.779810571479793"><ele>249.0</ele><time>2026-03-29T14:04:13Z</time></trkpt><trkpt lat="45.791645604188005" lon="10.77970682538009"><ele>242.0</ele><time>2026-03-29T14:04:14Z</time></trkpt><trkpt lat="45.79148123169492" lon="10.779603406068919"><ele>235.0</ele><time>2026-03-29T14:04:15Z</time></trkpt><trkpt lat="45.789658603146805" lon="10.778467210932334"><ele>235.0</ele><time>2026-03-29T14:04:18.197Z</time></trkpt><trkpt lat="45.789195119104825" lon="10.777861718806264"><ele>262.0</ele><time>2026-03-29T14:04:19.197Z</time></trkpt><trkpt lat="45.78861578287552" lon="10.777512748546835"><ele>286.0</ele><time>2026-03-29T14:04:20.196Z</time></trkpt><trkpt lat="45.78802736247959" lon="10.777194872663427"><ele>286.0</ele><time>2026-03-29T14:04:21.195Z</time></trkpt><trkpt lat="45.787438803660834" lon="10.7768786748125"><ele>286.0</ele><time>2026-03-29T14:04:22.193Z</time></trkpt><trkpt lat="45.78682494743743" lon="10.776687554459112"><ele>286.0</ele><time>2026-03-29T14:04:23.194Z</time></trkpt><trkpt lat="45.78619657771983" lon="10.776720218250484"><ele>286.0</ele><time>2026-03-29T14:04:24.194Z</time></trkpt><trkpt lat="45.78558890632021" lon="10.776947835549954"><ele>286.0</ele><time>2026-03-29T14:04:25.193Z</time></trkpt><trkpt lat="45.784986690099714" lon="10.777215575332386"><ele>190.5</ele><time>2026-03-29T14:04:26.194Z</time></trkpt><trkpt lat="45.7847902" lon="10.7773022"><ele>95.0</ele><time>2026-03-29T14:04:27.196Z</time></trkpt><trkpt lat="45.78426127457385" lon="10.777596066401237"><ele>95.0</ele><time>2026-03-29T14:05:03.015Z</time></trkpt><trkpt lat="45.784143509388315" lon="10.777708378849665"><ele>95.0</ele><time>2026-03-29T14:05:04.016Z</time></trkpt><trkpt lat="45.78403115314018" lon="10.777728713643999"><ele>95.0</ele><time>2026-03-29T14:05:05Z</time></trkpt><trkpt lat="45.78390387223845" lon="10.777614201760414"><ele>95.0</ele><time>2026-03-29T14:05:06Z</time></trkpt><trkpt lat="45.78377756998438" lon="10.77762119194484"><ele>95.0</ele><time>2026-03-29T14:05:07Z</time></trkpt><trkpt lat="45.783642218187154" lon="10.777610783323052"><ele>95.0</ele><time>2026-03-29T14:05:08Z</time></trkpt><trkpt lat="45.78348636712032" lon="10.777591022278175"><ele>95.0</ele><time>2026-03-29T14:05:09Z</time></trkpt><trkpt lat="45.78331969621142" lon="10.777561318082837"><ele>93.0</ele><time>2026-03-29T14:05:10Z</time></trkpt><trkpt lat="45.7831501174243" lon="10.777519916236717"><ele>91.0</ele><time>2026-03-29T14:05:11Z</time></trkpt><trkpt lat="45.782998006664755" lon="10.777467524648369"><ele>89.0</ele><time>2026-03-29T14:05:12Z</time></trkpt><trkpt lat="45.78285595168377" lon="10.777409337760425"><ele>89.0</ele><time>2026-03-29T14:05:13Z</time></trkpt><trkpt lat="45.782708152802634" lon="10.777346649118469"><ele>89.0</ele><time>2026-03-29T14:05:14Z</time></trkpt><trkpt lat="45.78254690808633" lon="10.777278203012287"><ele>89.0</ele><time>2026-03-29T14:05:15Z</time></trkpt><trkpt lat="45.7823376411294" lon="10.77719250331247"><ele>87.66666666666667</ele><time>2026-03-29T14:05:16Z</time></trkpt><trkpt lat="45.782173321004166" lon="10.7771260651421"><ele>86.33333333333333</ele><time>2026-03-29T14:05:17Z</time></trkpt><trkpt lat="45.78202402411944" lon="10.777059532238491"><ele>85.0</ele><time>2026-03-29T14:05:18Z</time></trkpt><trkpt lat="45.78189084922633" lon="10.776991007641643"><ele>87.25</ele><time>2026-03-29T14:05:19Z</time></trkpt><trkpt lat="45.78177417618085" lon="10.77690131479728"><ele>89.5</ele><time>2026-03-29T14:05:20Z</time></trkpt><trkpt lat="45.78168026156717" lon="10.776804610293066"><ele>91.75</ele><time>2026-03-29T14:05:21Z</time></trkpt><trkpt lat="45.78158312451054" lon="10.776674794102929"><ele>94.0</ele><time>2026-03-29T14:05:21.999Z</time></trkpt><trkpt lat="45.781512792474935" lon="10.77654575401331"><ele>94.0</ele><time>2026-03-29T14:05:22.999Z</time></trkpt><trkpt lat="45.7814494447155" lon="10.776378674835879"><ele>94.0</ele><time>2026-03-29T14:05:23.999Z</time></trkpt><trkpt lat="45.781381529380255" lon="10.776101071564304"><ele>94.0</ele><time>2026-03-29T14:05:24.999Z</time></trkpt><trkpt lat="45.781332438711054" lon="10.775857871787933"><ele>102.33333333333333</ele><time>2026-03-29T14:05:25.999Z</time></trkpt><trkpt lat="45.781284958677624" lon="10.775629343150749"><ele>110.66666666666666</ele><time>2026-03-29T14:05:26.999Z</time></trkpt><trkpt lat="45.78123622745589" lon="10.775408750511687"><ele>119.0</ele><time>2026-03-29T14:05:27.999Z</time></trkpt><trkpt lat="45.781179083994104" lon="10.775188410147736"><ele>116.0</ele><time>2026-03-29T14:05:28.999Z</time></trkpt><trkpt lat="45.78112417225952" lon="10.775008585990427"><ele>113.0</ele><time>2026-03-29T14:05:29.999Z</time></trkpt><trkpt lat="45.78106642386893" lon="10.774835716278156"><ele>110.0</ele><time>2026-03-29T14:05:30.999Z</time></trkpt><trkpt lat="45.78100251103609" lon="10.77465900296438"><ele>107.0</ele><time>2026-03-29T14:05:31.999Z</time></trkpt><trkpt lat="45.78093433494057" lon="10.774493512685769"><ele>108.0</ele><time>2026-03-29T14:05:32.999Z</time></trkpt><trkpt lat="45.7808592017936" lon="10.774328926999765"><ele>109.0</ele><time>2026-03-29T14:05:33.999Z</time></trkpt><trkpt lat="45.78076708858438" lon="10.774175697801692"><ele>110.0</ele><time>2026-03-29T14:05:34.999Z</time></trkpt><trkpt lat="45.78063942921022" lon="10.774091621390037"><ele>111.0</ele><time>2026-03-29T14:05:35.999Z</time></trkpt><trkpt lat="45.78050069919835" lon="10.773975635136093"><ele>111.0</ele><time>2026-03-29T14:05:36.999Z</time></trkpt><trkpt lat="45.78035606772839" lon="10.773870462870985"><ele>111.0</ele><time>2026-03-29T14:05:37.999Z</time></trkpt><trkpt lat="45.78022098737465" lon="10.773770177652324"><ele>111.0</ele><time>2026-03-29T14:05:38.999Z</time></trkpt><trkpt lat="45.78008682915817" lon="10.7736679652668"><ele>110.75</ele><time>2026-03-29T14:05:39.999Z</time></trkpt><trkpt lat="45.77996676071255" lon="10.773574894008037"><ele>110.5</ele><time>2026-03-29T14:05:40.999Z</time></trkpt><trkpt lat="45.779854184935544" lon="10.77347789938206"><ele>110.25</ele><time>2026-03-29T14:05:41.999Z</time></trkpt><trkpt lat="45.77975372776433" lon="10.773381947641662"><ele>110.0</ele><time>2026-03-29T14:05:42.999Z</time></trkpt><trkpt lat="45.77965074623306" lon="10.773268487668394"><ele>110.0</ele><time>2026-03-29T14:05:43.999Z</time></trkpt><trkpt lat="45.779546812835775" lon="10.773137006218352"><ele>110.0</ele><time>2026-03-29T14:05:44.999Z</time></trkpt><trkpt lat="45.779458784828996" lon="10.77301790695207"><ele>110.0</ele><time>2026-03-29T14:05:45.999Z</time></trkpt><trkpt lat="45.779370750409775" lon="10.772896653467257"><ele>110.0</ele><time>2026-03-29T14:05:46.999Z</time></trkpt><trkpt lat="45.779285708745334" lon="10.772777778097572"><ele>107.25</ele><time>2026-03-29T14:05:47.999Z</time></trkpt><trkpt lat="45.77920013229607" lon="10.77265815508409"><ele>104.5</ele><time>2026-03-29T14:05:48.999Z</time></trkpt><trkpt lat="45.779113294795955" lon="10.772536769182219"><ele>101.75</ele><time>2026-03-29T14:05:49.999Z</time></trkpt><trkpt lat="45.77902652917359" lon="10.772415484019636"><ele>99.0</ele><time>2026-03-29T14:05:50.999Z</time></trkpt><trkpt lat="45.77893990110633" lon="10.772294390997054"><ele>99.0</ele><time>2026-03-29T14:05:51.999Z</time></trkpt><trkpt lat="45.77881633255853" lon="10.772122931597824"><ele>99.0</ele><time>2026-03-29T14:05:52.999Z</time></trkpt><trkpt lat="45.77866429437129" lon="10.771935282731352"><ele>99.0</ele><time>2026-03-29T14:05:53.999Z</time></trkpt><trkpt lat="45.77853068982854" lon="10.771752174221726"><ele>95.66666666666667</ele><time>2026-03-29T14:05:54.999Z</time></trkpt><trkpt lat="45.77838344674452" lon="10.771518705715886"><ele>92.33333333333334</ele><time>2026-03-29T14:05:55.999Z</time></trkpt><trkpt lat="45.77824432174656" lon="10.771323853944098"><ele>89.0</ele><time>2026-03-29T14:05:56.999Z</time></trkpt><trkpt lat="45.77812292732889" lon="10.77115387912509"><ele>106.66666666666667</ele><time>2026-03-29T14:05:57.999Z</time></trkpt><trkpt lat="45.77800199479511" lon="10.770984553401894"><ele>124.33333333333334</ele><time>2026-03-29T14:05:58.999Z</time></trkpt><trkpt lat="45.77790152150179" lon="10.770843874207365"><ele>142.0</ele><time>2026-03-29T14:05:59.999Z</time></trkpt><trkpt lat="45.777784330518465" lon="10.770680413052728"><ele>142.0</ele><time>2026-03-29T14:06:00.999Z</time></trkpt><trkpt lat="45.777672657285535" lon="10.770524804163301"><ele>142.0</ele><time>2026-03-29T14:06:01.999Z</time></trkpt><trkpt lat="45.77755824848513" lon="10.770366410854779"><ele>142.0</ele><time>2026-03-29T14:06:02.999Z</time></trkpt><trkpt lat="45.77744181977122" lon="10.770210081939197"><ele>142.0</ele><time>2026-03-29T14:06:03.999Z</time></trkpt><trkpt lat="45.77731720346739" lon="10.770055288731239"><ele>142.0</ele><time>2026-03-29T14:06:04.999Z</time></trkpt><trkpt lat="45.77718566957329" lon="10.76991175068883"><ele>142.0</ele><time>2026-03-29T14:06:05.999Z</time></trkpt><trkpt lat="45.77704233886072" lon="10.769763190667236"><ele>142.0</ele><time>2026-03-29T14:06:06.999Z</time></trkpt><trkpt lat="45.77690439324519" lon="10.769621972107526"><ele>142.0</ele><time>2026-03-29T14:06:07.999Z</time></trkpt><trkpt lat="45.77675952016195" lon="10.769488906910809"><ele>142.0</ele><time>2026-03-29T14:06:09.016Z</time></trkpt><trkpt lat="45.77662864220088" lon="10.769334903485396"><ele>142.0</ele><time>2026-03-29T14:06:10.02Z</time></trkpt><trkpt lat="45.77650034313164" lon="10.769205361430588"><ele>142.0</ele><time>2026-03-29T14:06:11.015Z</time></trkpt><trkpt lat="45.77636065993724" lon="10.769062002425706"><ele>142.0</ele><time>2026-03-29T14:06:12.016Z</time></trkpt><trkpt lat="45.776235656077425" lon="10.768932993482522"><ele>142.0</ele><time>2026-03-29T14:06:13.019Z</time></trkpt><trkpt lat="45.776103411188544" lon="10.768795605236626"><ele>142.0</ele><time>2026-03-29T14:06:14.022Z</time></trkpt><trkpt lat="45.77597716926832" lon="10.768664846844315"><ele>142.0</ele><time>2026-03-29T14:06:15.015Z</time></trkpt><trkpt lat="45.77569415373257" lon="10.7684491624306"><ele>263.5</ele><time>2026-03-29T14:06:17.015Z</time></trkpt><trkpt lat="45.77556430326384" lon="10.768319590387764"><ele>385.0</ele><time>2026-03-29T14:06:18.015Z</time></trkpt><trkpt lat="45.7697807285039" lon="10.763649520978857"><ele>385.0</ele><time>2026-03-29T14:07:00.017Z</time></trkpt><trkpt lat="45.769673978032856" lon="10.763483492660798"><ele>385.0</ele><time>2026-03-29T14:07:01.018Z</time></trkpt><trkpt lat="45.769541128764374" lon="10.763286005096043"><ele>385.0</ele><time>2026-03-29T14:07:02.02Z</time></trkpt><trkpt lat="45.76940860717677" lon="10.763181083411"><ele>386.75</ele><time>2026-03-29T14:07:02.999Z</time></trkpt><trkpt lat="45.7693380513062" lon="10.763033819273408"><ele>388.5</ele><time>2026-03-29T14:07:03.999Z</time></trkpt><trkpt lat="45.76922729645355" lon="10.762928139446954"><ele>390.25</ele><time>2026-03-29T14:07:04.999Z</time></trkpt><trkpt lat="45.7691224583619" lon="10.762811067915871"><ele>392.0</ele><time>2026-03-29T14:07:05.999Z</time></trkpt><trkpt lat="45.76904625327824" lon="10.762641170608811"><ele>392.0</ele><time>2026-03-29T14:07:06.999Z</time></trkpt><trkpt lat="45.76894589549304" lon="10.762536758212896"><ele>392.0</ele><time>2026-03-29T14:07:07.999Z</time></trkpt><trkpt lat="45.76884911418995" lon="10.762435555946887"><ele>392.0</ele><time>2026-03-29T14:07:09Z</time></trkpt><trkpt lat="45.768765333720395" lon="10.762347809673415"><ele>392.0</ele><time>2026-03-29T14:07:10Z</time></trkpt><trkpt lat="45.76869228333056" lon="10.76227199875871"><ele>392.0</ele><time>2026-03-29T14:07:11Z</time></trkpt><trkpt lat="45.76862889163029" lon="10.762225205587901"><ele>391.99999999999994</ele><time>2026-03-29T14:07:12Z</time></trkpt><trkpt lat="45.76859233643017" lon="10.762144321591625"><ele>392.0</ele><time>2026-03-29T14:07:13Z</time></trkpt><trkpt lat="45.7685760873407" lon="10.76205617976467"><ele>392.0</ele><time>2026-03-29T14:07:14Z</time></trkpt><trkpt lat="45.768594679776356" lon="10.76190120229738"><ele>392.0</ele><time>2026-03-29T14:07:16Z</time></trkpt><trkpt lat="45.76860471904971" lon="10.761750580413864"><ele>391.99999999999994</ele><time>2026-03-29T14:07:18Z</time></trkpt><trkpt lat="45.76857955920256" lon="10.761627050889054"><ele>392.0</ele><time>2026-03-29T14:07:20Z</time></trkpt><trkpt lat="45.76828607499436" lon="10.761621545617801"><ele>392.0</ele><time>2026-03-29T14:07:23Z</time></trkpt><trkpt lat="45.768060623903224" lon="10.761548539074573"><ele>392.0</ele><time>2026-03-29T14:07:24Z</time></trkpt><trkpt lat="45.76801454354047" lon="10.761450123329979"><ele>392.0</ele><time>2026-03-29T14:07:25Z</time></trkpt><trkpt lat="45.767919192904834" lon="10.761313127384373"><ele>392.0</ele><time>2026-03-29T14:07:27Z</time></trkpt><trkpt lat="45.76785346856004" lon="10.761217183525844"><ele>405.5</ele><time>2026-03-29T14:07:28Z</time></trkpt><trkpt lat="45.76777583717256" lon="10.76111073996608"><ele>419.0</ele><time>2026-03-29T14:07:29Z</time></trkpt><trkpt lat="45.76768731100974" lon="10.760983572086824"><ele>432.5</ele><time>2026-03-29T14:07:30Z</time></trkpt><trkpt lat="45.7675914012474" lon="10.760857978231995"><ele>446.0</ele><time>2026-03-29T14:07:31Z</time></trkpt><trkpt lat="45.767467021076136" lon="10.76076976033957"><ele>446.0</ele><time>2026-03-29T14:07:32Z</time></trkpt><trkpt lat="45.76736943181186" lon="10.760699571797558"><ele>446.0</ele><time>2026-03-29T14:07:33Z</time></trkpt><trkpt lat="45.76727795473714" lon="10.760633039843034"><ele>446.0</ele><time>2026-03-29T14:07:34Z</time></trkpt><trkpt lat="45.76719078964443" lon="10.760563661296096"><ele>446.0</ele><time>2026-03-29T14:07:35Z</time></trkpt><trkpt lat="45.76711354721887" lon="10.760473283501739"><ele>446.0</ele><time>2026-03-29T14:07:36Z</time></trkpt><trkpt lat="45.767030842318974" lon="10.760369445522478"><ele>446.0</ele><time>2026-03-29T14:07:37Z</time></trkpt><trkpt lat="45.76694500361479" lon="10.760263027258125"><ele>446.0</ele><time>2026-03-29T14:07:38Z</time></trkpt><trkpt lat="45.76685493940605" lon="10.760163193135918"><ele>446.0</ele><time>2026-03-29T14:07:39Z</time></trkpt><trkpt lat="45.76677705773069" lon="10.760063553906845"><ele>446.0</ele><time>2026-03-29T14:07:40Z</time></trkpt><trkpt lat="45.76669227226602" lon="10.760011663956204"><ele>446.0</ele><time>2026-03-29T14:07:41Z</time></trkpt><trkpt lat="45.76660232230594" lon="10.759984921455816"><ele>446.6</ele><time>2026-03-29T14:07:42Z</time></trkpt><trkpt lat="45.76653983893968" lon="10.759924194344547"><ele>447.20000000000005</ele><time>2026-03-29T14:07:43Z</time></trkpt><trkpt lat="45.76647212071459" lon="10.759829127045508"><ele>447.79999999999995</ele><time>2026-03-29T14:07:44Z</time></trkpt><trkpt lat="45.76639216386774" lon="10.759708567842825"><ele>448.4</ele><time>2026-03-29T14:07:45Z</time></trkpt><trkpt lat="45.76631901874947" lon="10.759563981293072"><ele>449.0</ele><time>2026-03-29T14:07:46Z</time></trkpt><trkpt lat="45.7662529550112" lon="10.759465956804851"><ele>449.0</ele><time>2026-03-29T14:07:47Z</time></trkpt><trkpt lat="45.76619838873702" lon="10.759377293462158"><ele>449.0</ele><time>2026-03-29T14:07:48Z</time></trkpt><trkpt lat="45.76612841859636" lon="10.759292919341995"><ele>449.0</ele><time>2026-03-29T14:07:49Z</time></trkpt><trkpt lat="45.7660328479312" lon="10.759239859581013"><ele>449.0</ele><time>2026-03-29T14:07:50Z</time></trkpt><trkpt lat="45.765915654857636" lon="10.759192695409382"><ele>449.0</ele><time>2026-03-29T14:07:51Z</time></trkpt><trkpt lat="45.76581969161597" lon="10.759118953650027"><ele>446.49999999999994</ele><time>2026-03-29T14:07:52Z</time></trkpt><trkpt lat="45.765739323160076" lon="10.759046859035495"><ele>444.0</ele><time>2026-03-29T14:07:53Z</time></trkpt><trkpt lat="45.765666545178526" lon="10.759002493039082"><ele>441.5</ele><time>2026-03-29T14:07:54Z</time></trkpt><trkpt lat="45.76560529750615" lon="10.758948740228682"><ele>439.0</ele><time>2026-03-29T14:07:55Z</time></trkpt><trkpt lat="45.76556771654425" lon="10.758836141734209"><ele>436.49999999999994</ele><time>2026-03-29T14:07:56Z</time></trkpt><trkpt lat="45.76554008841481" lon="10.758687846082353"><ele>434.0</ele><time>2026-03-29T14:07:57Z</time></trkpt><trkpt lat="45.765485092295805" lon="10.758564222413147"><ele>432.6</ele><time>2026-03-29T14:07:58Z</time></trkpt><trkpt lat="45.7654378238807" lon="10.758430628979248"><ele>431.2</ele><time>2026-03-29T14:07:59Z</time></trkpt><trkpt lat="45.76538435903411" lon="10.758347905493576"><ele>429.80000000000007</ele><time>2026-03-29T14:08:00Z</time></trkpt><trkpt lat="45.76530152610741" lon="10.758307319508281"><ele>428.40000000000003</ele><time>2026-03-29T14:08:01Z</time></trkpt><trkpt lat="45.76517990225607" lon="10.75837139822865"><ele>427.0</ele><time>2026-03-29T14:08:02Z</time></trkpt><trkpt lat="45.765076160620154" lon="10.758383744053253"><ele>427.0</ele><time>2026-03-29T14:08:03Z</time></trkpt><trkpt lat="45.764975125324625" lon="10.758302808435932"><ele>427.0</ele><time>2026-03-29T14:08:04Z</time></trkpt><trkpt lat="45.76489137089195" lon="10.758203324051621"><ele>427.0</ele><time>2026-03-29T14:08:05Z</time></trkpt><trkpt lat="45.76479152255144" lon="10.758087607451726"><ele>427.0</ele><time>2026-03-29T14:08:06Z</time></trkpt><trkpt lat="45.76468980450984" lon="10.757966828727472"><ele>427.0</ele><time>2026-03-29T14:08:07Z</time></trkpt><trkpt lat="45.76458997916681" lon="10.757847683464723"><ele>427.0</ele><time>2026-03-29T14:08:08Z</time></trkpt><trkpt lat="45.76449488295615" lon="10.75771737146047"><ele>427.0</ele><time>2026-03-29T14:08:09Z</time></trkpt><trkpt lat="45.764435162915056" lon="10.757587639819338"><ele>427.0</ele><time>2026-03-29T14:08:10Z</time></trkpt><trkpt lat="45.76435762386395" lon="10.757435093895092"><ele>420.75</ele><time>2026-03-29T14:08:11Z</time></trkpt><trkpt lat="45.7642751392747" lon="10.757297016758507"><ele>414.5</ele><time>2026-03-29T14:08:12Z</time></trkpt><trkpt lat="45.764184492158044" lon="10.75714974264943"><ele>408.25</ele><time>2026-03-29T14:08:13Z</time></trkpt><trkpt lat="45.76409349667257" lon="10.757024500093793"><ele>402.0</ele><time>2026-03-29T14:08:14Z</time></trkpt><trkpt lat="45.764000256894505" lon="10.756972905112125"><ele>402.0</ele><time>2026-03-29T14:08:15Z</time></trkpt><trkpt lat="45.763918447332095" lon="10.756931392336066"><ele>402.0</ele><time>2026-03-29T14:08:16Z</time></trkpt><trkpt lat="45.763841957724814" lon="10.756895566873867"><ele>402.0</ele><time>2026-03-29T14:08:17Z</time></trkpt><trkpt lat="45.763831894331126" lon="10.756801337300015"><ele>402.0</ele><time>2026-03-29T14:08:18Z</time></trkpt><trkpt lat="45.76389997150896" lon="10.756700599885678"><ele>402.0</ele><time>2026-03-29T14:08:20Z</time></trkpt><trkpt lat="45.76403833199776" lon="10.756682565917828"><ele>402.0</ele><time>2026-03-29T14:08:21.999Z</time></trkpt><trkpt lat="45.76410330689206" lon="10.75676679151809"><ele>402.0</ele><time>2026-03-29T14:08:22.999Z</time></trkpt><trkpt lat="45.764113664286995" lon="10.756903607125121"><ele>402.0</ele><time>2026-03-29T14:08:23.999Z</time></trkpt><trkpt lat="45.76419685583704" lon="10.757021801994043"><ele>402.0</ele><time>2026-03-29T14:08:24.999Z</time></trkpt><trkpt lat="45.76432319862159" lon="10.757201304450303"><ele>419.66666666666663</ele><time>2026-03-29T14:08:25.999Z</time></trkpt><trkpt lat="45.76442217806416" lon="10.757341929704255"><ele>437.3333333333333</ele><time>2026-03-29T14:08:26.999Z</time></trkpt><trkpt lat="45.76454689676489" lon="10.757513925452473"><ele>455.0</ele><time>2026-03-29T14:08:27.999Z</time></trkpt><trkpt lat="45.76464946072703" lon="10.75766357582461"><ele>448.0</ele><time>2026-03-29T14:08:28.999Z</time></trkpt><trkpt lat="45.76473906831892" lon="10.757785478499194"><ele>441.0</ele><time>2026-03-29T14:08:29.999Z</time></trkpt><trkpt lat="45.76482689154295" lon="10.757909743224316"><ele>434.0</ele><time>2026-03-29T14:08:30.999Z</time></trkpt><trkpt lat="45.76491400913089" lon="10.758012938574748"><ele>427.0</ele><time>2026-03-29T14:08:31.999Z</time></trkpt><trkpt lat="45.76501102779402" lon="10.758084002044722"><ele>427.0</ele><time>2026-03-29T14:08:32.999Z</time></trkpt><trkpt lat="45.76511989582153" lon="10.758119060208212"><ele>427.0</ele><time>2026-03-29T14:08:33.999Z</time></trkpt><trkpt lat="45.76525792345858" lon="10.758114981703253"><ele>427.0</ele><time>2026-03-29T14:08:34.999Z</time></trkpt><trkpt lat="45.765421953893856" lon="10.75808159213207"><ele>427.0</ele><time>2026-03-29T14:08:35.999Z</time></trkpt><trkpt lat="45.76561583274712" lon="10.758051823120041"><ele>441.33333333333337</ele><time>2026-03-29T14:08:36.999Z</time></trkpt><trkpt lat="45.76581403648797" lon="10.758016710769335"><ele>455.66666666666663</ele><time>2026-03-29T14:08:37.999Z</time></trkpt><trkpt lat="45.7659977487194" lon="10.75803177749758"><ele>470.0</ele><time>2026-03-29T14:08:38.999Z</time></trkpt><trkpt lat="45.76622775875924" lon="10.758081768830444"><ele>441.0</ele><time>2026-03-29T14:08:40.018Z</time></trkpt><trkpt lat="45.76786955201935" lon="10.759322433091523"><ele>431.0</ele><time>2026-03-29T14:08:44.192Z</time></trkpt><trkpt lat="45.76824468575389" lon="10.759674367692082"><ele>421.0</ele><time>2026-03-29T14:08:45.189Z</time></trkpt><trkpt lat="45.768621274447355" lon="10.760031564953765"><ele>414.0</ele><time>2026-03-29T14:08:46.194Z</time></trkpt><trkpt lat="45.76899516456486" lon="10.760385809019002"><ele>407.0</ele><time>2026-03-29T14:08:47.191Z</time></trkpt><trkpt lat="45.769370758836985" lon="10.760739577129044"><ele>399.5</ele><time>2026-03-29T14:08:48.191Z</time></trkpt><trkpt lat="45.76974281371546" lon="10.761099541081366"><ele>392.0</ele><time>2026-03-29T14:08:49.19Z</time></trkpt><trkpt lat="45.77006080688562" lon="10.761551810862771"><ele>392.0</ele><time>2026-03-29T14:08:50.19Z</time></trkpt><trkpt lat="45.7701866" lon="10.7618119"><ele>392.0</ele><time>2026-03-29T14:08:51.193Z</time></trkpt><trkpt lat="45.7705950458029" lon="10.762809002781998"><ele>392.0</ele><time>2026-03-29T14:09:12.999Z</time></trkpt><trkpt lat="45.77069193247723" lon="10.762950888605491"><ele>392.0</ele><time>2026-03-29T14:09:13.999Z</time></trkpt><trkpt lat="45.77063355144489" lon="10.76309640717884"><ele>392.0</ele><time>2026-03-29T14:09:14.999Z</time></trkpt><trkpt lat="45.77065436394294" lon="10.763203603606307"><ele>392.0</ele><time>2026-03-29T14:09:15.999Z</time></trkpt><trkpt lat="45.77078417638071" lon="10.763309138344358"><ele>392.0</ele><time>2026-03-29T14:09:16.999Z</time></trkpt><trkpt lat="45.7708413895149" lon="10.763494773329823"><ele>392.0</ele><time>2026-03-29T14:09:17.999Z</time></trkpt><trkpt lat="45.770866226907145" lon="10.763618936203802"><ele>392.0</ele><time>2026-03-29T14:09:19Z</time></trkpt><trkpt lat="45.77088917810592" lon="10.763762582588493"><ele>392.0</ele><time>2026-03-29T14:09:20Z</time></trkpt><trkpt lat="45.77092717157081" lon="10.763965616132593"><ele>382.0</ele><time>2026-03-29T14:09:21Z</time></trkpt><trkpt lat="45.7709901590549" lon="10.764118623449265"><ele>372.0</ele><time>2026-03-29T14:09:22Z</time></trkpt><trkpt lat="45.77103159162315" lon="10.764272772277852"><ele>362.0</ele><time>2026-03-29T14:09:23Z</time></trkpt><trkpt lat="45.770993051996925" lon="10.764385461576467"><ele>352.0</ele><time>2026-03-29T14:09:24Z</time></trkpt><trkpt lat="45.77105371771026" lon="10.764635135329515"><ele>352.0</ele><time>2026-03-29T14:09:26Z</time></trkpt><trkpt lat="45.7711479408159" lon="10.76479758859689"><ele>352.0</ele><time>2026-03-29T14:09:27Z</time></trkpt><trkpt lat="45.77122369840274" lon="10.764920743399468"><ele>352.0</ele><time>2026-03-29T14:09:28Z</time></trkpt><trkpt lat="45.77131328590801" lon="10.765010003724601"><ele>352.0</ele><time>2026-03-29T14:09:29Z</time></trkpt><trkpt lat="45.77138002062521" lon="10.765077539617801"><ele>334.0</ele><time>2026-03-29T14:09:30Z</time></trkpt><trkpt lat="45.77145474297096" lon="10.765139745984778"><ele>316.0</ele><time>2026-03-29T14:09:31Z</time></trkpt><trkpt lat="45.771638257437104" lon="10.765226042214676"><ele>298.0</ele><time>2026-03-29T14:09:32Z</time></trkpt><trkpt lat="45.77174905126676" lon="10.76529534712533"><ele>280.0</ele><time>2026-03-29T14:09:33Z</time></trkpt><trkpt lat="45.771913789465756" lon="10.765347267145303"><ele>280.0</ele><time>2026-03-29T14:09:35Z</time></trkpt><trkpt lat="45.772037920761164" lon="10.765367925647379"><ele>280.0</ele><time>2026-03-29T14:09:36Z</time></trkpt><trkpt lat="45.77211954230769" lon="10.765465530263286"><ele>280.0</ele><time>2026-03-29T14:09:37Z</time></trkpt><trkpt lat="45.7722004889025" lon="10.765547577411894"><ele>280.0</ele><time>2026-03-29T14:09:38Z</time></trkpt><trkpt lat="45.77228273438943" lon="10.765634009256656"><ele>280.0</ele><time>2026-03-29T14:09:39Z</time></trkpt><trkpt lat="45.77233644180472" lon="10.765776645905742"><ele>280.0</ele><time>2026-03-29T14:09:40Z</time></trkpt><trkpt lat="45.77240193398585" lon="10.765826189318467"><ele>280.0</ele><time>2026-03-29T14:09:41Z</time></trkpt><trkpt lat="45.7725744637643" lon="10.76585339462799"><ele>280.0</ele><time>2026-03-29T14:09:43Z</time></trkpt><trkpt lat="45.77267605603911" lon="10.765869283276407"><ele>280.0</ele><time>2026-03-29T14:09:44Z</time></trkpt><trkpt lat="45.77278400912265" lon="10.765911786965141"><ele>281.0</ele><time>2026-03-29T14:09:45Z</time></trkpt><trkpt lat="45.772872621714654" lon="10.765972595256216"><ele>282.0</ele><time>2026-03-29T14:09:46Z</time></trkpt><trkpt lat="45.77295568755862" lon="10.76601689204234"><ele>283.0</ele><time>2026-03-29T14:09:47.018Z</time></trkpt><trkpt lat="45.77302854916051" lon="10.76611556867988"><ele>284.0</ele><time>2026-03-29T14:09:48.015Z</time></trkpt><trkpt lat="45.77311180468839" lon="10.766187456151256"><ele>285.0</ele><time>2026-03-29T14:09:49.019Z</time></trkpt><trkpt lat="45.77319279813021" lon="10.76625829260889"><ele>286.5</ele><time>2026-03-29T14:09:50Z</time></trkpt><trkpt lat="45.77333010784301" lon="10.766376624040992"><ele>288.0</ele><time>2026-03-29T14:09:51Z</time></trkpt><trkpt lat="45.773661248197804" lon="10.766451697562943"><ele>288.0</ele><time>2026-03-29T14:09:52Z</time></trkpt><trkpt lat="45.77380570171067" lon="10.76651022771869"><ele>288.0</ele><time>2026-03-29T14:09:53.018Z</time></trkpt><trkpt lat="45.7740788581276" lon="10.766353793452275"><ele>288.0</ele><time>2026-03-29T14:09:57Z</time></trkpt><trkpt lat="45.77415135500325" lon="10.766327166327883"><ele>288.0</ele><time>2026-03-29T14:09:58Z</time></trkpt><trkpt lat="45.77421359763512" lon="10.76623016884529"><ele>288.0</ele><time>2026-03-29T14:10:00Z</time></trkpt><trkpt lat="45.774223227313946" lon="10.766061078499938"><ele>288.0</ele><time>2026-03-29T14:10:02Z</time></trkpt><trkpt lat="45.774161934689644" lon="10.765996587868186"><ele>288.0</ele><time>2026-03-29T14:10:17Z</time></trkpt><trkpt lat="45.77422751363039" lon="10.76601344765967"><ele>288.0</ele><time>2026-03-29T14:12:11Z</time></trkpt><trkpt lat="45.77421773136537" lon="10.766120001248606"><ele>288.0</ele><time>2026-03-29T14:15:06.999Z</time></trkpt><trkpt lat="45.77420302919884" lon="10.766217483862512"><ele>288.0</ele><time>2026-03-29T14:15:12.999Z</time></trkpt><trkpt lat="45.77417030329661" lon="10.766313474617146"><ele>288.0</ele><time>2026-03-29T14:15:18.999Z</time></trkpt><trkpt lat="45.77410696730963" lon="10.766376235724183"><ele>288.0</ele><time>2026-03-29T14:15:40Z</time></trkpt><trkpt lat="45.774017394651224" lon="10.766384290953624"><ele>288.0</ele><time>2026-03-29T14:15:45Z</time></trkpt><trkpt lat="45.773947706510164" lon="10.766411906251749"><ele>288.0</ele><time>2026-03-29T14:15:49Z</time></trkpt><trkpt lat="45.77388695758246" lon="10.766438093725682"><ele>288.0</ele><time>2026-03-29T14:15:54Z</time></trkpt><trkpt lat="45.77389556255616" lon="10.766601297921452"><ele>288.0</ele><time>2026-03-29T14:16:27Z</time></trkpt><trkpt lat="45.77394113422321" lon="10.766492251887005"><ele>288.0</ele><time>2026-03-29T14:16:55.999Z</time></trkpt><trkpt lat="45.773983926285005" lon="10.766420966936616"><ele>288.0</ele><time>2026-03-29T14:16:58.999Z</time></trkpt><trkpt lat="45.77405542226888" lon="10.766355876578796"><ele>288.0</ele><time>2026-03-29T14:17:03.999Z</time></trkpt><trkpt lat="45.77412437952258" lon="10.766317818959712"><ele>288.0</ele><time>2026-03-29T14:17:08.999Z</time></trkpt><trkpt lat="45.77420311396451" lon="10.766295376870904"><ele>288.0</ele><time>2026-03-29T14:17:15.999Z</time></trkpt><trkpt lat="45.774171653927915" lon="10.766210809031424"><ele>288.00000000000006</ele><time>2026-03-29T14:17:30.999Z</time></trkpt><trkpt lat="45.77418811346711" lon="10.766103730661648"><ele>288.0</ele><time>2026-03-29T14:17:37.999Z</time></trkpt><trkpt lat="45.77418720835488" lon="10.766010073339253"><ele>288.0</ele><time>2026-03-29T14:17:47Z</time></trkpt><trkpt lat="45.77423495992356" lon="10.765888686143612"><ele>288.0</ele><time>2026-03-29T14:19:50Z</time></trkpt><trkpt lat="45.77422681680848" lon="10.765790714594239"><ele>288.0</ele><time>2026-03-29T14:19:51Z</time></trkpt><trkpt lat="45.774207693638225" lon="10.765695886366155"><ele>288.00000000000006</ele><time>2026-03-29T14:19:52Z</time></trkpt><trkpt lat="45.774186198022655" lon="10.765604633945594"><ele>288.0</ele><time>2026-03-29T14:19:53Z</time></trkpt><trkpt lat="45.77417242910177" lon="10.765473345433787"><ele>288.5</ele><time>2026-03-29T14:19:54Z</time></trkpt><trkpt lat="45.77413469078412" lon="10.76535853760628"><ele>289.0</ele><time>2026-03-29T14:19:55Z</time></trkpt><trkpt lat="45.77410486934957" lon="10.765230180277305"><ele>289.5</ele><time>2026-03-29T14:19:56Z</time></trkpt><trkpt lat="45.774071434788446" lon="10.765112675552267"><ele>290.0</ele><time>2026-03-29T14:19:57Z</time></trkpt><trkpt lat="45.77406080461301" lon="10.765014045444264"><ele>290.5</ele><time>2026-03-29T14:19:58Z</time></trkpt><trkpt lat="45.77404930246721" lon="10.764915385248647"><ele>291.0</ele><time>2026-03-29T14:19:59Z</time></trkpt><trkpt lat="45.774040421395256" lon="10.76481543360056"><ele>291.0</ele><time>2026-03-29T14:20:00Z</time></trkpt><trkpt lat="45.77403297137721" lon="10.764712671103814"><ele>291.0</ele><time>2026-03-29T14:20:01Z</time></trkpt><trkpt lat="45.77400411111711" lon="10.764584242089983"><ele>291.0</ele><time>2026-03-29T14:20:03Z</time></trkpt><trkpt lat="45.77395020257351" lon="10.764457681602984"><ele>291.0</ele><time>2026-03-29T14:20:06Z</time></trkpt><trkpt lat="45.773825871895255" lon="10.764549760957062"><ele>291.0</ele><time>2026-03-29T14:20:07Z</time></trkpt><trkpt lat="45.77379562598688" lon="10.764669596305366"><ele>291.0</ele><time>2026-03-29T14:20:08Z</time></trkpt><trkpt lat="45.77380320556399" lon="10.764798295371662"><ele>291.0</ele><time>2026-03-29T14:20:09Z</time></trkpt><trkpt lat="45.77379833539035" lon="10.764905327090371"><ele>291.0</ele><time>2026-03-29T14:20:10Z</time></trkpt><trkpt lat="45.773795435131" lon="10.765027620601986"><ele>291.0</ele><time>2026-03-29T14:20:11Z</time></trkpt><trkpt lat="45.773800912574515" lon="10.765168384971888"><ele>291.0</ele><time>2026-03-29T14:20:12Z</time></trkpt><trkpt lat="45.77386975750325" lon="10.765285258399564"><ele>292.6</ele><time>2026-03-29T14:20:13Z</time></trkpt><trkpt lat="45.77389543052326" lon="10.765417689203773"><ele>294.20000000000005</ele><time>2026-03-29T14:20:14Z</time></trkpt><trkpt lat="45.77390542998187" lon="10.765559316460175"><ele>295.79999999999995</ele><time>2026-03-29T14:20:15Z</time></trkpt><trkpt lat="45.77392448827042" lon="10.765717293328997"><ele>297.4</ele><time>2026-03-29T14:20:16Z</time></trkpt><trkpt lat="45.77393773375882" lon="10.765844634043559"><ele>299.0</ele><time>2026-03-29T14:20:17Z</time></trkpt><trkpt lat="45.77394565302309" lon="10.765950700065455"><ele>297.1666666666667</ele><time>2026-03-29T14:20:18Z</time></trkpt><trkpt lat="45.7738841409647" lon="10.766031000784423"><ele>295.33333333333337</ele><time>2026-03-29T14:20:19Z</time></trkpt><trkpt lat="45.77385090444186" lon="10.76616380228101"><ele>293.5</ele><time>2026-03-29T14:20:20Z</time></trkpt><trkpt lat="45.7738304736988" lon="10.766301829050748"><ele>291.6666666666667</ele><time>2026-03-29T14:20:21Z</time></trkpt><trkpt lat="45.77381675857754" lon="10.766409714683226"><ele>289.8333333333333</ele><time>2026-03-29T14:20:22Z</time></trkpt><trkpt lat="45.77373855427848" lon="10.766353994506273"><ele>288.0</ele><time>2026-03-29T14:20:24Z</time></trkpt><trkpt lat="45.77376415226158" lon="10.766218386781658"><ele>288.0</ele><time>2026-03-29T14:20:26Z</time></trkpt><trkpt lat="45.773806813298016" lon="10.766101571532953"><ele>288.0</ele><time>2026-03-29T14:20:27Z</time></trkpt><trkpt lat="45.77384969964185" lon="10.76595954017747"><ele>288.0</ele><time>2026-03-29T14:20:28Z</time></trkpt><trkpt lat="45.773884064245486" lon="10.76582556518914"><ele>288.0</ele><time>2026-03-29T14:20:29Z</time></trkpt><trkpt lat="45.77389803465703" lon="10.765699158961798"><ele>288.0</ele><time>2026-03-29T14:20:30Z</time></trkpt><trkpt lat="45.7738655942968" lon="10.765568906869179"><ele>288.5</ele><time>2026-03-29T14:20:31Z</time></trkpt><trkpt lat="45.773859244580805" lon="10.765433466032842"><ele>289.0</ele><time>2026-03-29T14:20:32Z</time></trkpt><trkpt lat="45.77382500439069" lon="10.765335377334008"><ele>289.5</ele><time>2026-03-29T14:20:33Z</time></trkpt><trkpt lat="45.7737631181691" lon="10.76528869143546"><ele>290.0</ele><time>2026-03-29T14:20:34Z</time></trkpt><trkpt lat="45.77368998214025" lon="10.765211355298673"><ele>290.5</ele><time>2026-03-29T14:20:35Z</time></trkpt><trkpt lat="45.77365584514705" lon="10.765083404156597"><ele>291.0</ele><time>2026-03-29T14:20:36Z</time></trkpt><trkpt lat="45.773679059262456" lon="10.764926063999383"><ele>291.0</ele><time>2026-03-29T14:20:37Z</time></trkpt><trkpt lat="45.773666982205455" lon="10.76475942183025"><ele>291.0</ele><time>2026-03-29T14:20:38Z</time></trkpt><trkpt lat="45.7736872175587" lon="10.764584098605146"><ele>291.0</ele><time>2026-03-29T14:20:39Z</time></trkpt><trkpt lat="45.77370435861648" lon="10.76439997391258"><ele>291.0</ele><time>2026-03-29T14:20:40Z</time></trkpt><trkpt lat="45.77373317282471" lon="10.76420940143346"><ele>292.6</ele><time>2026-03-29T14:20:41Z</time></trkpt><trkpt lat="45.773758061169886" lon="10.764047401682056"><ele>294.20000000000005</ele><time>2026-03-29T14:20:42Z</time></trkpt><trkpt lat="45.7737804523358" lon="10.763917019049668"><ele>295.79999999999995</ele><time>2026-03-29T14:20:43Z</time></trkpt><trkpt lat="45.773796753442454" lon="10.763787835140299"><ele>297.4</ele><time>2026-03-29T14:20:44Z</time></trkpt><trkpt lat="45.7738350196312" lon="10.763693998668023"><ele>299.0</ele><time>2026-03-29T14:20:45Z</time></trkpt><trkpt lat="45.773920308276544" lon="10.76356534655441"><ele>301.8</ele><time>2026-03-29T14:20:46Z</time></trkpt><trkpt lat="45.773955780083874" lon="10.763473083960443"><ele>304.59999999999997</ele><time>2026-03-29T14:20:47Z</time></trkpt><trkpt lat="45.77396175869504" lon="10.763333421793421"><ele>307.4</ele><time>2026-03-29T14:20:48Z</time></trkpt><trkpt lat="45.77398531383957" lon="10.763203227147338"><ele>310.2</ele><time>2026-03-29T14:20:49Z</time></trkpt><trkpt lat="45.774027489286354" lon="10.763069668386889"><ele>313.0</ele><time>2026-03-29T14:20:50Z</time></trkpt><trkpt lat="45.77410507774943" lon="10.762961878176398"><ele>313.0</ele><time>2026-03-29T14:20:52Z</time></trkpt><trkpt lat="45.77417140326093" lon="10.762901696397336"><ele>313.0</ele><time>2026-03-29T14:20:53Z</time></trkpt><trkpt lat="45.77428884789503" lon="10.76288832059245"><ele>313.0</ele><time>2026-03-29T14:20:55Z</time></trkpt><trkpt lat="45.77437084579322" lon="10.762873375052227"><ele>313.0</ele><time>2026-03-29T14:20:57.999Z</time></trkpt><trkpt lat="45.7744715256363" lon="10.762848561545917"><ele>313.0</ele><time>2026-03-29T14:20:59.999Z</time></trkpt><trkpt lat="45.77440599615859" lon="10.762853584514053"><ele>313.0</ele><time>2026-03-29T14:21:00.999Z</time></trkpt><trkpt lat="45.774470605181584" lon="10.762829979034228"><ele>318.0</ele><time>2026-03-29T14:21:01.999Z</time></trkpt><trkpt lat="45.774615709168486" lon="10.76279050393617"><ele>323.0</ele><time>2026-03-29T14:21:02.999Z</time></trkpt><trkpt lat="45.77471093750195" lon="10.762748979704954"><ele>328.0</ele><time>2026-03-29T14:21:03.999Z</time></trkpt><trkpt lat="45.7751908335851" lon="10.762702369364849"><ele>331.25</ele><time>2026-03-29T14:21:10.017Z</time></trkpt><trkpt lat="45.775269085056365" lon="10.762661943855814"><ele>334.5</ele><time>2026-03-29T14:21:11.023Z</time></trkpt><trkpt lat="45.77542570360983" lon="10.762579676280236"><ele>337.75</ele><time>2026-03-29T14:21:12.016Z</time></trkpt><trkpt lat="45.77553320573416" lon="10.762535623863227"><ele>341.0</ele><time>2026-03-29T14:21:13.014Z</time></trkpt><trkpt lat="45.775938355808655" lon="10.762113441960095"><ele>337.6666666666667</ele><time>2026-03-29T14:21:17.019Z</time></trkpt><trkpt lat="45.77605571930078" lon="10.761889778284777"><ele>334.3333333333333</ele><time>2026-03-29T14:21:18.018Z</time></trkpt><trkpt lat="45.77615523721759" lon="10.76162730972675"><ele>331.0</ele><time>2026-03-29T14:21:19.019Z</time></trkpt><trkpt lat="45.77623619429328" lon="10.761497552988363"><ele>331.0</ele><time>2026-03-29T14:21:20.999Z</time></trkpt><trkpt lat="45.77635571603595" lon="10.7611942325123"><ele>331.0</ele><time>2026-03-29T14:21:22.999Z</time></trkpt><trkpt lat="45.776384405715945" lon="10.761061013378185"><ele>331.0</ele><time>2026-03-29T14:21:23.999Z</time></trkpt><trkpt lat="45.776410630402495" lon="10.76092179519435"><ele>331.0</ele><time>2026-03-29T14:21:24.999Z</time></trkpt><trkpt lat="45.77642939698792" lon="10.760805218342774"><ele>327.66666666666663</ele><time>2026-03-29T14:21:25.999Z</time></trkpt><trkpt lat="45.77647131752844" lon="10.760675885505837"><ele>324.3333333333333</ele><time>2026-03-29T14:21:27.999Z</time></trkpt><trkpt lat="45.77651472077145" lon="10.760609042065107"><ele>321.0</ele><time>2026-03-29T14:21:28.999Z</time></trkpt><trkpt lat="45.77657087136948" lon="10.760526974667497"><ele>317.6666666666667</ele><time>2026-03-29T14:21:29.999Z</time></trkpt><trkpt lat="45.77664038441025" lon="10.760440789532428"><ele>314.33333333333337</ele><time>2026-03-29T14:21:30.999Z</time></trkpt><trkpt lat="45.77670977077837" lon="10.760352563683815"><ele>311.0</ele><time>2026-03-29T14:21:31.999Z</time></trkpt><trkpt lat="45.776788472384816" lon="10.760249217346292"><ele>311.0</ele><time>2026-03-29T14:21:32.999Z</time></trkpt><trkpt lat="45.77685154021908" lon="10.760163932754267"><ele>311.0</ele><time>2026-03-29T14:21:33.999Z</time></trkpt><trkpt lat="45.77693260834975" lon="10.760086003526492"><ele>311.0</ele><time>2026-03-29T14:21:34.999Z</time></trkpt><trkpt lat="45.776981604162934" lon="10.760014033083474"><ele>311.0</ele><time>2026-03-29T14:21:35.999Z</time></trkpt><trkpt lat="45.7770303412676" lon="10.759954145598101"><ele>311.0</ele><time>2026-03-29T14:21:36.999Z</time></trkpt><trkpt lat="45.777148564374436" lon="10.759930964914831"><ele>311.0</ele><time>2026-03-29T14:21:38.999Z</time></trkpt><trkpt lat="45.77721627445574" lon="10.75996797179797"><ele>311.0</ele><time>2026-03-29T14:21:39.999Z</time></trkpt><trkpt lat="45.77718824253446" lon="10.76009177133295"><ele>311.0</ele><time>2026-03-29T14:21:40.999Z</time></trkpt><trkpt lat="45.777110488764094" lon="10.760220070395516"><ele>311.0</ele><time>2026-03-29T14:21:42.999Z</time></trkpt><trkpt lat="45.77705157518423" lon="10.760312252494867"><ele>311.0</ele><time>2026-03-29T14:21:43.999Z</time></trkpt><trkpt lat="45.77697888762632" lon="10.760411780730427"><ele>311.0</ele><time>2026-03-29T14:21:44.999Z</time></trkpt><trkpt lat="45.776881603960696" lon="10.760511025026275"><ele>311.0</ele><time>2026-03-29T14:21:45.999Z</time></trkpt><trkpt lat="45.77678288074361" lon="10.760576453377778"><ele>311.0</ele><time>2026-03-29T14:21:46.999Z</time></trkpt><trkpt lat="45.776701603470876" lon="10.760636468072947"><ele>311.0</ele><time>2026-03-29T14:21:47.999Z</time></trkpt><trkpt lat="45.77661461789075" lon="10.760709221578912"><ele>311.0</ele><time>2026-03-29T14:21:49.999Z</time></trkpt><trkpt lat="45.776609024324515" lon="10.760800739251701"><ele>311.0</ele><time>2026-03-29T14:22:16Z</time></trkpt><trkpt lat="45.776556429545614" lon="10.760877145855005"><ele>311.0</ele><time>2026-03-29T14:22:18Z</time></trkpt><trkpt lat="45.77645443312162" lon="10.760966268196626"><ele>311.0</ele><time>2026-03-29T14:22:20Z</time></trkpt><trkpt lat="45.77638311092713" lon="10.760954411016723"><ele>311.0</ele><time>2026-03-29T14:22:21Z</time></trkpt><trkpt lat="45.77632018016085" lon="10.760907172734859"><ele>311.0</ele><time>2026-03-29T14:22:22Z</time></trkpt><trkpt lat="45.77624019191877" lon="10.760817063325643"><ele>311.0</ele><time>2026-03-29T14:22:24Z</time></trkpt><trkpt lat="45.776234687125765" lon="10.760653975077823"><ele>311.0</ele><time>2026-03-29T14:22:26Z</time></trkpt><trkpt lat="45.77628939545845" lon="10.760563671808745"><ele>311.0</ele><time>2026-03-29T14:22:27Z</time></trkpt><trkpt lat="45.77631449926678" lon="10.760434559223532"><ele>311.0</ele><time>2026-03-29T14:22:28Z</time></trkpt><trkpt lat="45.77634225949826" lon="10.76028922893499"><ele>311.0</ele><time>2026-03-29T14:22:29Z</time></trkpt><trkpt lat="45.77637841324132" lon="10.760138020492766"><ele>311.0</ele><time>2026-03-29T14:22:30Z</time></trkpt><trkpt lat="45.77643313500495" lon="10.76005707621574"><ele>311.0</ele><time>2026-03-29T14:22:31Z</time></trkpt><trkpt lat="45.77651342144836" lon="10.760009423757273"><ele>311.0</ele><time>2026-03-29T14:22:32Z</time></trkpt><trkpt lat="45.77659919983665" lon="10.759943744373235"><ele>311.0</ele><time>2026-03-29T14:22:33Z</time></trkpt><trkpt lat="45.7767039964907" lon="10.759863373793378"><ele>311.0</ele><time>2026-03-29T14:22:34Z</time></trkpt><trkpt lat="45.77680223647364" lon="10.759773261970992"><ele>311.0</ele><time>2026-03-29T14:22:35Z</time></trkpt><trkpt lat="45.77687930629904" lon="10.759613719145912"><ele>311.0</ele><time>2026-03-29T14:22:36Z</time></trkpt><trkpt lat="45.77700626869194" lon="10.759454504820154"><ele>310.5</ele><time>2026-03-29T14:22:37Z</time></trkpt><trkpt lat="45.777098808405" lon="10.759307978067751"><ele>310.0</ele><time>2026-03-29T14:22:38Z</time></trkpt><trkpt lat="45.777174680928255" lon="10.75912742718859"><ele>309.5</ele><time>2026-03-29T14:22:39Z</time></trkpt><trkpt lat="45.77725399389042" lon="10.759006667978165"><ele>309.0</ele><time>2026-03-29T14:22:40Z</time></trkpt><trkpt lat="45.77733299782563" lon="10.758917517219503"><ele>309.0</ele><time>2026-03-29T14:22:41Z</time></trkpt><trkpt lat="45.77741644044755" lon="10.75883726258295"><ele>309.0</ele><time>2026-03-29T14:22:42Z</time></trkpt><trkpt lat="45.777491911198716" lon="10.758736499342268"><ele>309.0</ele><time>2026-03-29T14:22:43Z</time></trkpt><trkpt lat="45.777598207349726" lon="10.758605567968928"><ele>309.0</ele><time>2026-03-29T14:22:44Z</time></trkpt><trkpt lat="45.77769946994469" lon="10.758481427078932"><ele>310.0</ele><time>2026-03-29T14:22:45Z</time></trkpt><trkpt lat="45.77777321014277" lon="10.758403287784983"><ele>311.0</ele><time>2026-03-29T14:22:46Z</time></trkpt><trkpt lat="45.77784157794095" lon="10.758355604434334"><ele>312.0</ele><time>2026-03-29T14:22:47Z</time></trkpt><trkpt lat="45.77791488502679" lon="10.758328837156874"><ele>313.0</ele><time>2026-03-29T14:22:48Z</time></trkpt><trkpt lat="45.77802910692574" lon="10.758445323598078"><ele>314.0</ele><time>2026-03-29T14:22:50Z</time></trkpt><trkpt lat="45.77806815709464" lon="10.758556450391414"><ele>314.0</ele><time>2026-03-29T14:22:51Z</time></trkpt><trkpt lat="45.77807602690712" lon="10.758693084880761"><ele>314.0</ele><time>2026-03-29T14:22:52Z</time></trkpt><trkpt lat="45.778018372108136" lon="10.758818398926964"><ele>314.0</ele><time>2026-03-29T14:22:53Z</time></trkpt><trkpt lat="45.77796689993883" lon="10.758965585806278"><ele>314.0</ele><time>2026-03-29T14:22:54Z</time></trkpt><trkpt lat="45.77793440036699" lon="10.759102741831333"><ele>314.0</ele><time>2026-03-29T14:22:55Z</time></trkpt><trkpt lat="45.77797560545354" lon="10.75923333858828"><ele>314.0</ele><time>2026-03-29T14:22:56Z</time></trkpt><trkpt lat="45.778038348105795" lon="10.759353184063391"><ele>314.0</ele><time>2026-03-29T14:22:57Z</time></trkpt><trkpt lat="45.778107588180866" lon="10.7594943278972"><ele>314.0</ele><time>2026-03-29T14:22:57.999Z</time></trkpt><trkpt lat="45.77816316526973" lon="10.75964794536271"><ele>314.0</ele><time>2026-03-29T14:22:58.999Z</time></trkpt><trkpt lat="45.77821621531969" lon="10.759739001969232"><ele>314.0</ele><time>2026-03-29T14:22:59.999Z</time></trkpt><trkpt lat="45.77828211596654" lon="10.759772802373211"><ele>317.0</ele><time>2026-03-29T14:23:00.999Z</time></trkpt><trkpt lat="45.77836786053595" lon="10.75975973871456"><ele>320.0</ele><time>2026-03-29T14:23:01.999Z</time></trkpt><trkpt lat="45.77845083499798" lon="10.759690853308506"><ele>323.0</ele><time>2026-03-29T14:23:02.999Z</time></trkpt><trkpt lat="45.778545750584954" lon="10.75962583776405"><ele>326.0</ele><time>2026-03-29T14:23:03.999Z</time></trkpt><trkpt lat="45.778657687510034" lon="10.75956098405725"><ele>329.0</ele><time>2026-03-29T14:23:04.999Z</time></trkpt><trkpt lat="45.77878240795467" lon="10.759494129185365"><ele>328.25</ele><time>2026-03-29T14:23:05.999Z</time></trkpt><trkpt lat="45.77890854560367" lon="10.759427055252448"><ele>327.5</ele><time>2026-03-29T14:23:06.999Z</time></trkpt><trkpt lat="45.77902847693563" lon="10.75937594080262"><ele>326.75</ele><time>2026-03-29T14:23:07.999Z</time></trkpt><trkpt lat="45.77912933134059" lon="10.759355019057168"><ele>326.0</ele><time>2026-03-29T14:23:08.999Z</time></trkpt><trkpt lat="45.77922499362852" lon="10.75940928420893"><ele>329.20000000000005</ele><time>2026-03-29T14:23:09.999Z</time></trkpt><trkpt lat="45.77934088025058" lon="10.759424232411472"><ele>332.40000000000003</ele><time>2026-03-29T14:23:10.999Z</time></trkpt><trkpt lat="45.77945516143628" lon="10.75947418922467"><ele>335.6</ele><time>2026-03-29T14:23:11.999Z</time></trkpt><trkpt lat="45.77956346160908" lon="10.759509191373768"><ele>338.8</ele><time>2026-03-29T14:23:12.999Z</time></trkpt><trkpt lat="45.77965899346683" lon="10.759530593918026"><ele>342.0</ele><time>2026-03-29T14:23:13.999Z</time></trkpt><trkpt lat="45.77972920285001" lon="10.759471960023463"><ele>340.0</ele><time>2026-03-29T14:23:14.999Z</time></trkpt><trkpt lat="45.77975851345644" lon="10.759366466922792"><ele>338.0</ele><time>2026-03-29T14:23:15.999Z</time></trkpt><trkpt lat="45.77976190445207" lon="10.759255551768247"><ele>336.0</ele><time>2026-03-29T14:23:16.999Z</time></trkpt><trkpt lat="45.779727664321385" lon="10.759128666982118"><ele>334.0</ele><time>2026-03-29T14:23:17.999Z</time></trkpt><trkpt lat="45.77965796127615" lon="10.759028442674529"><ele>332.0</ele><time>2026-03-29T14:23:18.999Z</time></trkpt><trkpt lat="45.779562337285256" lon="10.75895004635431"><ele>332.0</ele><time>2026-03-29T14:23:19.999Z</time></trkpt><trkpt lat="45.779424214201924" lon="10.758879584019532"><ele>332.0</ele><time>2026-03-29T14:23:20.999Z</time></trkpt><trkpt lat="45.7792680378457" lon="10.758803094253961"><ele>332.0</ele><time>2026-03-29T14:23:21.999Z</time></trkpt><trkpt lat="45.77909958643678" lon="10.758758876510075"><ele>330.5</ele><time>2026-03-29T14:23:22.999Z</time></trkpt><trkpt lat="45.77893483737521" lon="10.75875828961006"><ele>329.0</ele><time>2026-03-29T14:23:23.999Z</time></trkpt><trkpt lat="45.77880414226505" lon="10.75873217843968"><ele>327.5</ele><time>2026-03-29T14:23:24.999Z</time></trkpt><trkpt lat="45.77869846029208" lon="10.758697036535358"><ele>326.0</ele><time>2026-03-29T14:23:25.999Z</time></trkpt><trkpt lat="45.77861330884353" lon="10.758631112485928"><ele>326.0</ele><time>2026-03-29T14:23:26.999Z</time></trkpt><trkpt lat="45.77853636413302" lon="10.758558919052547"><ele>326.0</ele><time>2026-03-29T14:23:27.999Z</time></trkpt><trkpt lat="45.778487880190994" lon="10.75849323977572"><ele>326.0</ele><time>2026-03-29T14:23:28.999Z</time></trkpt><trkpt lat="45.778492205731254" lon="10.758312772890312"><ele>326.0</ele><time>2026-03-29T14:23:30.999Z</time></trkpt><trkpt lat="45.77850476047296" lon="10.758165734911803"><ele>326.0</ele><time>2026-03-29T14:23:31.999Z</time></trkpt><trkpt lat="45.77850865083798" lon="10.758018664916126"><ele>326.0</ele><time>2026-03-29T14:23:32.999Z</time></trkpt><trkpt lat="45.778460777040785" lon="10.757864927910948"><ele>326.0</ele><time>2026-03-29T14:23:33.999Z</time></trkpt><trkpt lat="45.778367800775634" lon="10.757765292199334"><ele>326.0</ele><time>2026-03-29T14:23:34.999Z</time></trkpt><trkpt lat="45.77826242872698" lon="10.757670213515954"><ele>326.0</ele><time>2026-03-29T14:23:35.999Z</time></trkpt><trkpt lat="45.77814937598112" lon="10.757579255261337"><ele>332.20000000000005</ele><time>2026-03-29T14:23:36.999Z</time></trkpt><trkpt lat="45.77806408209365" lon="10.757494549068394"><ele>338.40000000000003</ele><time>2026-03-29T14:23:37.999Z</time></trkpt><trkpt lat="45.77802122679706" lon="10.757392524820377"><ele>344.6</ele><time>2026-03-29T14:23:38.999Z</time></trkpt><trkpt lat="45.77805114624007" lon="10.757265596694088"><ele>350.8</ele><time>2026-03-29T14:23:39.999Z</time></trkpt><trkpt lat="45.778023657551564" lon="10.757150677436579"><ele>357.0</ele><time>2026-03-29T14:23:40.999Z</time></trkpt><trkpt lat="45.77793955375692" lon="10.757052350559244"><ele>357.0</ele><time>2026-03-29T14:23:41.999Z</time></trkpt><trkpt lat="45.777820649188186" lon="10.757014256148713"><ele>357.0</ele><time>2026-03-29T14:23:42.999Z</time></trkpt><trkpt lat="45.777757939217594" lon="10.756875194157312"><ele>357.0</ele><time>2026-03-29T14:23:43.999Z</time></trkpt><trkpt lat="45.77771091675312" lon="10.756796316789284"><ele>357.0</ele><time>2026-03-29T14:23:44.999Z</time></trkpt><trkpt lat="45.777586687254804" lon="10.756773787039874"><ele>357.0</ele><time>2026-03-29T14:23:46.999Z</time></trkpt><trkpt lat="45.77751819657069" lon="10.756873087495956"><ele>357.0</ele><time>2026-03-29T14:23:47.999Z</time></trkpt><trkpt lat="45.77751386413044" lon="10.757056079284892"><ele>357.0</ele><time>2026-03-29T14:23:48.999Z</time></trkpt><trkpt lat="45.77752075932153" lon="10.757227044593217"><ele>357.0</ele><time>2026-03-29T14:23:49.999Z</time></trkpt><trkpt lat="45.777525146792115" lon="10.757427130860414"><ele>357.0</ele><time>2026-03-29T14:23:50.999Z</time></trkpt><trkpt lat="45.7775046529391" lon="10.757629626511413"><ele>353.0</ele><time>2026-03-29T14:23:51.999Z</time></trkpt><trkpt lat="45.77747425378076" lon="10.757785192443528"><ele>349.0</ele><time>2026-03-29T14:23:52.999Z</time></trkpt><trkpt lat="45.77742980574955" lon="10.757945567962864"><ele>345.0</ele><time>2026-03-29T14:23:53.999Z</time></trkpt><trkpt lat="45.77737519504636" lon="10.75805623413176"><ele>341.0</ele><time>2026-03-29T14:23:54.999Z</time></trkpt><trkpt lat="45.77731232648402" lon="10.758142420558064"><ele>337.0</ele><time>2026-03-29T14:23:55.999Z</time></trkpt><trkpt lat="45.777236181379386" lon="10.758218697220647"><ele>337.0</ele><time>2026-03-29T14:23:56.999Z</time></trkpt><trkpt lat="45.77714873958915" lon="10.758298669800636"><ele>337.0</ele><time>2026-03-29T14:23:57.999Z</time></trkpt><trkpt lat="45.77704934557778" lon="10.758376737916908"><ele>337.0</ele><time>2026-03-29T14:23:58.999Z</time></trkpt><trkpt lat="45.77694593232272" lon="10.758446494158369"><ele>337.0</ele><time>2026-03-29T14:23:59.999Z</time></trkpt><trkpt lat="45.776837956135196" lon="10.758494848368464"><ele>337.0</ele><time>2026-03-29T14:24:01Z</time></trkpt><trkpt lat="45.77670706699675" lon="10.75854481914903"><ele>338.0</ele><time>2026-03-29T14:24:02Z</time></trkpt><trkpt lat="45.77659525320023" lon="10.75861762168154"><ele>339.0</ele><time>2026-03-29T14:24:03Z</time></trkpt><trkpt lat="45.77648480518093" lon="10.758706544184335"><ele>340.0</ele><time>2026-03-29T14:24:04Z</time></trkpt><trkpt lat="45.77635564831909" lon="10.758713832050976"><ele>341.0</ele><time>2026-03-29T14:24:05Z</time></trkpt><trkpt lat="45.776219110444416" lon="10.758737820846614"><ele>341.0</ele><time>2026-03-29T14:24:06Z</time></trkpt><trkpt lat="45.776081349818625" lon="10.7587568603046"><ele>341.0</ele><time>2026-03-29T14:24:07Z</time></trkpt><trkpt lat="45.77597714678328" lon="10.758786606364431"><ele>341.0</ele><time>2026-03-29T14:24:08Z</time></trkpt><trkpt lat="45.77590019537445" lon="10.758836652350295"><ele>341.0</ele><time>2026-03-29T14:24:09Z</time></trkpt><trkpt lat="45.77585560109204" lon="10.75894563034734"><ele>341.0</ele><time>2026-03-29T14:24:10Z</time></trkpt><trkpt lat="45.77585685473826" lon="10.75909490246804"><ele>344.75</ele><time>2026-03-29T14:24:11Z</time></trkpt><trkpt lat="45.77583715397977" lon="10.759242648216444"><ele>348.5</ele><time>2026-03-29T14:24:12Z</time></trkpt><trkpt lat="45.775794149924394" lon="10.75941777007114"><ele>352.25</ele><time>2026-03-29T14:24:13Z</time></trkpt><trkpt lat="45.77572625757567" lon="10.759587775711346"><ele>356.0</ele><time>2026-03-29T14:24:14Z</time></trkpt><trkpt lat="45.77566508794285" lon="10.759768602901689"><ele>356.0</ele><time>2026-03-29T14:24:15Z</time></trkpt><trkpt lat="45.775600425098055" lon="10.759953468563088"><ele>356.0</ele><time>2026-03-29T14:24:16Z</time></trkpt><trkpt lat="45.77550799229519" lon="10.760128221568236"><ele>356.0</ele><time>2026-03-29T14:24:17Z</time></trkpt><trkpt lat="45.77540236550194" lon="10.760300108346776"><ele>351.33333333333337</ele><time>2026-03-29T14:24:18Z</time></trkpt><trkpt lat="45.775298469995775" lon="10.760474403420055"><ele>346.6666666666667</ele><time>2026-03-29T14:24:19Z</time></trkpt><trkpt lat="45.77519025744377" lon="10.760652556658659"><ele>342.0</ele><time>2026-03-29T14:24:20Z</time></trkpt><trkpt lat="45.775103314597686" lon="10.760800991174381"><ele>347.8</ele><time>2026-03-29T14:24:21Z</time></trkpt><trkpt lat="45.775020433756545" lon="10.760898739736259"><ele>353.6</ele><time>2026-03-29T14:24:22Z</time></trkpt><trkpt lat="45.774951632380514" lon="10.760980154124022"><ele>359.40000000000003</ele><time>2026-03-29T14:24:23Z</time></trkpt><trkpt lat="45.77488051481311" lon="10.761016504226502"><ele>365.20000000000005</ele><time>2026-03-29T14:24:24Z</time></trkpt><trkpt lat="45.774796656798095" lon="10.761009145217633"><ele>371.0</ele><time>2026-03-29T14:24:25Z</time></trkpt><trkpt lat="45.7746827172389" lon="10.76102205951778"><ele>370.0</ele><time>2026-03-29T14:24:26Z</time></trkpt><trkpt lat="45.77455701256008" lon="10.761071558545723"><ele>369.0</ele><time>2026-03-29T14:24:27Z</time></trkpt><trkpt lat="45.77444600689246" lon="10.761175842650603"><ele>368.0</ele><time>2026-03-29T14:24:28Z</time></trkpt><trkpt lat="45.77430162614095" lon="10.761244280702964"><ele>367.0</ele><time>2026-03-29T14:24:29Z</time></trkpt><trkpt lat="45.77414974323268" lon="10.761284244810719"><ele>367.0</ele><time>2026-03-29T14:24:30Z</time></trkpt><trkpt lat="45.77397502611305" lon="10.761327054285312"><ele>367.0</ele><time>2026-03-29T14:24:31Z</time></trkpt><trkpt lat="45.77380885190341" lon="10.761453748399761"><ele>367.0</ele><time>2026-03-29T14:24:32Z</time></trkpt><trkpt lat="45.77367106395532" lon="10.761524322905936"><ele>367.0</ele><time>2026-03-29T14:24:33Z</time></trkpt><trkpt lat="45.77355931699148" lon="10.76157200074453"><ele>367.0</ele><time>2026-03-29T14:24:34Z</time></trkpt><trkpt lat="45.77346822514564" lon="10.761590364946908"><ele>367.0</ele><time>2026-03-29T14:24:35Z</time></trkpt><trkpt lat="45.773395593772975" lon="10.76151853984111"><ele>367.0</ele><time>2026-03-29T14:24:36Z</time></trkpt><trkpt lat="45.77329183420758" lon="10.761430393142943"><ele>367.0</ele><time>2026-03-29T14:24:37Z</time></trkpt><trkpt lat="45.773154853363636" lon="10.761320886367585"><ele>370.66666666666663</ele><time>2026-03-29T14:24:38Z</time></trkpt><trkpt lat="45.77303445225884" lon="10.76120296636659"><ele>374.3333333333333</ele><time>2026-03-29T14:24:39Z</time></trkpt><trkpt lat="45.77292057004453" lon="10.76105537672283"><ele>378.0</ele><time>2026-03-29T14:24:40Z</time></trkpt><trkpt lat="45.772800952792366" lon="10.760891952994404"><ele>382.0</ele><time>2026-03-29T14:24:41Z</time></trkpt><trkpt lat="45.77269575535142" lon="10.760765316526472"><ele>386.0</ele><time>2026-03-29T14:24:42Z</time></trkpt><trkpt lat="45.77258006721084" lon="10.760709747757067"><ele>390.0</ele><time>2026-03-29T14:24:43Z</time></trkpt><trkpt lat="45.772470707552884" lon="10.760719775618199"><ele>394.0</ele><time>2026-03-29T14:24:44Z</time></trkpt><trkpt lat="45.77236830704899" lon="10.760774586945265"><ele>394.0</ele><time>2026-03-29T14:24:45Z</time></trkpt><trkpt lat="45.772287643990296" lon="10.760890512799042"><ele>394.0</ele><time>2026-03-29T14:24:46Z</time></trkpt><trkpt lat="45.77223258703686" lon="10.761063722376198"><ele>394.0</ele><time>2026-03-29T14:24:47Z</time></trkpt><trkpt lat="45.77219144967207" lon="10.761236912419658"><ele>394.0</ele><time>2026-03-29T14:24:48Z</time></trkpt><trkpt lat="45.772154311697236" lon="10.761423270787482"><ele>392.5</ele><time>2026-03-29T14:24:49Z</time></trkpt><trkpt lat="45.77213921397528" lon="10.76162591003777"><ele>391.0</ele><time>2026-03-29T14:24:50Z</time></trkpt><trkpt lat="45.77217077114138" lon="10.761806976796912"><ele>389.5</ele><time>2026-03-29T14:24:51Z</time></trkpt><trkpt lat="45.772207109007596" lon="10.761948758025545"><ele>388.0</ele><time>2026-03-29T14:24:52Z</time></trkpt><trkpt lat="45.772220195227746" lon="10.762063262782059"><ele>388.00000000000006</ele><time>2026-03-29T14:24:53Z</time></trkpt><trkpt lat="45.77218435645421" lon="10.762138271671752"><ele>388.0</ele><time>2026-03-29T14:24:54Z</time></trkpt><trkpt lat="45.77211034513323" lon="10.762093390603445"><ele>388.0</ele><time>2026-03-29T14:24:55Z</time></trkpt><trkpt lat="45.77204946933729" lon="10.761972733686278"><ele>388.0</ele><time>2026-03-29T14:24:57Z</time></trkpt><trkpt lat="45.772054274970316" lon="10.761876855529842"><ele>388.00000000000006</ele><time>2026-03-29T14:24:58Z</time></trkpt><trkpt lat="45.772079439197476" lon="10.761746992739825"><ele>388.0</ele><time>2026-03-29T14:24:59Z</time></trkpt><trkpt lat="45.772100439726024" lon="10.761603061023736"><ele>388.0</ele><time>2026-03-29T14:25:00Z</time></trkpt><trkpt lat="45.77212255578134" lon="10.761446033750664"><ele>388.0</ele><time>2026-03-29T14:25:01Z</time></trkpt><trkpt lat="45.77214261522962" lon="10.76127523228892"><ele>388.0</ele><time>2026-03-29T14:25:02Z</time></trkpt><trkpt lat="45.77215229905801" lon="10.761113000853241"><ele>388.0</ele><time>2026-03-29T14:25:03Z</time></trkpt><trkpt lat="45.77213261497918" lon="10.760951127615838"><ele>394.0</ele><time>2026-03-29T14:25:04Z</time></trkpt><trkpt lat="45.77209015598432" lon="10.760822787128637"><ele>394.0</ele><time>2026-03-29T14:25:05Z</time></trkpt><trkpt lat="45.772055262525" lon="10.760719697842838"><ele>394.0</ele><time>2026-03-29T14:25:06Z</time></trkpt><trkpt lat="45.772005616528986" lon="10.76061294095403"><ele>394.0</ele><time>2026-03-29T14:25:08Z</time></trkpt></trkseg><trkseg><trkpt lat="45.78747905745794" lon="10.752962734221517"><ele>548.0</ele><time>2026-03-29T14:36:10.999Z</time></trkpt><trkpt lat="45.7874041763862" lon="10.753091497156547"><ele>548.0</ele><time>2026-03-29T14:36:11.999Z</time></trkpt><trkpt lat="45.78732905333057" lon="10.753226632120532"><ele>548.0</ele><time>2026-03-29T14:36:12.999Z</time></trkpt><trkpt lat="45.78728788001932" lon="10.753373536099838"><ele>548.0</ele><time>2026-03-29T14:36:13.999Z</time></trkpt><trkpt lat="45.78729845479241" lon="10.75355499700561"><ele>552.75</ele><time>2026-03-29T14:36:14.999Z</time></trkpt><trkpt lat="45.78728215787826" lon="10.753739724639939"><ele>557.5</ele><time>2026-03-29T14:36:15.999Z</time></trkpt><trkpt lat="45.78723811323733" lon="10.753872649493443"><ele>562.25</ele><time>2026-03-29T14:36:16.999Z</time></trkpt><trkpt lat="45.787122733454474" lon="10.753905552525802"><ele>567.0</ele><time>2026-03-29T14:36:17.999Z</time></trkpt><trkpt lat="45.787030486006" lon="10.754002751990294"><ele>567.0</ele><time>2026-03-29T14:36:18.999Z</time></trkpt><trkpt lat="45.7869470926833" lon="10.754129642168778"><ele>567.0</ele><time>2026-03-29T14:36:19.999Z</time></trkpt><trkpt lat="45.78689147125251" lon="10.754273461628467"><ele>567.0</ele><time>2026-03-29T14:36:20.999Z</time></trkpt><trkpt lat="45.78684882121593" lon="10.75444966116866"><ele>567.0</ele><time>2026-03-29T14:36:21.999Z</time></trkpt><trkpt lat="45.78678159074127" lon="10.754617700098997"><ele>565.75</ele><time>2026-03-29T14:36:22.999Z</time></trkpt><trkpt lat="45.78668376978542" lon="10.754791815519905"><ele>564.5</ele><time>2026-03-29T14:36:23.999Z</time></trkpt><trkpt lat="45.78659429001249" lon="10.754923781166793"><ele>563.25</ele><time>2026-03-29T14:36:24.999Z</time></trkpt><trkpt lat="45.78647600832399" lon="10.755027860715456"><ele>562.0</ele><time>2026-03-29T14:36:25.999Z</time></trkpt><trkpt lat="45.78634495360475" lon="10.755174185906528"><ele>558.0</ele><time>2026-03-29T14:36:26.999Z</time></trkpt><trkpt lat="45.78623093325227" lon="10.755324498826639"><ele>554.0</ele><time>2026-03-29T14:36:27.999Z</time></trkpt><trkpt lat="45.78609666109845" lon="10.755472184012543"><ele>550.0</ele><time>2026-03-29T14:36:28.999Z</time></trkpt><trkpt lat="45.78593744761126" lon="10.755592741266712"><ele>550.0</ele><time>2026-03-29T14:36:29.999Z</time></trkpt><trkpt lat="45.785793241935885" lon="10.755726120040665"><ele>550.0</ele><time>2026-03-29T14:36:30.999Z</time></trkpt><trkpt lat="45.78568182179126" lon="10.755889196827114"><ele>550.0</ele><time>2026-03-29T14:36:31.999Z</time></trkpt><trkpt lat="45.78557521653003" lon="10.756065303590363"><ele>559.3333333333334</ele><time>2026-03-29T14:36:32.999Z</time></trkpt><trkpt lat="45.78549322905175" lon="10.75626140903554"><ele>568.6666666666666</ele><time>2026-03-29T14:36:33.999Z</time></trkpt><trkpt lat="45.78542737639726" lon="10.756479016279181"><ele>578.0</ele><time>2026-03-29T14:36:34.999Z</time></trkpt><trkpt lat="45.7853753814538" lon="10.756706267635753"><ele>586.6666666666666</ele><time>2026-03-29T14:36:35.999Z</time></trkpt><trkpt lat="45.785337620437474" lon="10.756941992839229"><ele>595.3333333333334</ele><time>2026-03-29T14:36:37Z</time></trkpt><trkpt lat="45.78530730654889" lon="10.757162246336366"><ele>604.0</ele><time>2026-03-29T14:36:38Z</time></trkpt><trkpt lat="45.78524761729529" lon="10.757338503801735"><ele>604.0</ele><time>2026-03-29T14:36:39Z</time></trkpt><trkpt lat="45.78518584224866" lon="10.757497892722478"><ele>604.0</ele><time>2026-03-29T14:36:40Z</time></trkpt><trkpt lat="45.78514989260993" lon="10.757648842545617"><ele>604.0</ele><time>2026-03-29T14:36:41Z</time></trkpt><trkpt lat="45.78508095043002" lon="10.757728491459865"><ele>604.0</ele><time>2026-03-29T14:36:42Z</time></trkpt><trkpt lat="45.78497245290919" lon="10.757716367231835"><ele>604.0</ele><time>2026-03-29T14:36:43Z</time></trkpt><trkpt lat="45.78490452705076" lon="10.757774680156327"><ele>596.8</ele><time>2026-03-29T14:36:44Z</time></trkpt><trkpt lat="45.784832291379594" lon="10.757876575233702"><ele>589.5999999999999</ele><time>2026-03-29T14:36:45Z</time></trkpt><trkpt lat="45.78477817790105" lon="10.758012932321884"><ele>582.4</ele><time>2026-03-29T14:36:46Z</time></trkpt><trkpt lat="45.78473344338938" lon="10.758151594404207"><ele>575.1999999999999</ele><time>2026-03-29T14:36:47Z</time></trkpt><trkpt lat="45.78472176209108" lon="10.758303693614586"><ele>568.0</ele><time>2026-03-29T14:36:48Z</time></trkpt><trkpt lat="45.784764047206295" lon="10.758454666359292"><ele>569.8</ele><time>2026-03-29T14:36:49Z</time></trkpt><trkpt lat="45.78483970657362" lon="10.758581411840106"><ele>571.5999999999999</ele><time>2026-03-29T14:36:50Z</time></trkpt><trkpt lat="45.78493730822261" lon="10.75870607112768"><ele>573.4000000000001</ele><time>2026-03-29T14:36:51Z</time></trkpt><trkpt lat="45.784972338908524" lon="10.758828872484223"><ele>575.2</ele><time>2026-03-29T14:36:52Z</time></trkpt><trkpt lat="45.784928665700974" lon="10.758956362912306"><ele>577.0</ele><time>2026-03-29T14:36:53Z</time></trkpt><trkpt lat="45.78486801629638" lon="10.759064231545535"><ele>577.0</ele><time>2026-03-29T14:36:54Z</time></trkpt><trkpt lat="45.78478179374324" lon="10.759199762431503"><ele>577.0</ele><time>2026-03-29T14:36:55Z</time></trkpt><trkpt lat="45.78468629400438" lon="10.75937014179441"><ele>577.0</ele><time>2026-03-29T14:36:56Z</time></trkpt><trkpt lat="45.78460496496923" lon="10.759544543042697"><ele>577.0</ele><time>2026-03-29T14:36:57Z</time></trkpt><trkpt lat="45.78449182727594" lon="10.759669123280446"><ele>580.75</ele><time>2026-03-29T14:36:58Z</time></trkpt><trkpt lat="45.784413542922564" lon="10.75979719836554"><ele>584.5</ele><time>2026-03-29T14:36:59Z</time></trkpt><trkpt lat="45.784359358660126" lon="10.759942574941288"><ele>588.25</ele><time>2026-03-29T14:37:00Z</time></trkpt><trkpt lat="45.784323551718145" lon="10.760119141559509"><ele>592.0</ele><time>2026-03-29T14:37:01Z</time></trkpt><trkpt lat="45.78431631817339" lon="10.760313768549231"><ele>580.6666666666667</ele><time>2026-03-29T14:37:02Z</time></trkpt><trkpt lat="45.78431388889538" lon="10.760517833725766"><ele>569.3333333333334</ele><time>2026-03-29T14:37:03Z</time></trkpt><trkpt lat="45.78423459398401" lon="10.760705976760189"><ele>558.0</ele><time>2026-03-29T14:37:04Z</time></trkpt><trkpt lat="45.78414554026293" lon="10.760902278868539"><ele>562.6666666666666</ele><time>2026-03-29T14:37:05Z</time></trkpt><trkpt lat="45.784046450038964" lon="10.761102363904394"><ele>567.3333333333333</ele><time>2026-03-29T14:37:06Z</time></trkpt><trkpt lat="45.78393287219757" lon="10.761241937005893"><ele>572.0</ele><time>2026-03-29T14:37:07Z</time></trkpt><trkpt lat="45.78381893768662" lon="10.761381101182067"><ele>572.0</ele><time>2026-03-29T14:37:08Z</time></trkpt><trkpt lat="45.78373245051128" lon="10.761508929232038"><ele>572.0</ele><time>2026-03-29T14:37:09Z</time></trkpt><trkpt lat="45.78369574940541" lon="10.761670506870317"><ele>572.0</ele><time>2026-03-29T14:37:10Z</time></trkpt><trkpt lat="45.783650958039814" lon="10.761830685867995"><ele>572.0</ele><time>2026-03-29T14:37:11Z</time></trkpt><trkpt lat="45.78361316575025" lon="10.762004783596357"><ele>574.25</ele><time>2026-03-29T14:37:12Z</time></trkpt><trkpt lat="45.78354279929567" lon="10.762178627784847"><ele>576.5</ele><time>2026-03-29T14:37:13Z</time></trkpt><trkpt lat="45.783480430789176" lon="10.762331088348594"><ele>578.75</ele><time>2026-03-29T14:37:14Z</time></trkpt><trkpt lat="45.78341778972886" lon="10.762464652601059"><ele>581.0</ele><time>2026-03-29T14:37:15Z</time></trkpt><trkpt lat="45.78333943579059" lon="10.762574104365076"><ele>576.5</ele><time>2026-03-29T14:37:16Z</time></trkpt><trkpt lat="45.78323957611032" lon="10.762666122303074"><ele>572.0</ele><time>2026-03-29T14:37:17Z</time></trkpt><trkpt lat="45.78312133763339" lon="10.762744488813947"><ele>567.5</ele><time>2026-03-29T14:37:18Z</time></trkpt><trkpt lat="45.783015524137554" lon="10.762802300695252"><ele>563.0</ele><time>2026-03-29T14:37:19Z</time></trkpt><trkpt lat="45.782923589222065" lon="10.762839969689319"><ele>563.0</ele><time>2026-03-29T14:37:20Z</time></trkpt><trkpt lat="45.78284920836691" lon="10.762893435835673"><ele>563.0</ele><time>2026-03-29T14:37:21Z</time></trkpt><trkpt lat="45.78278674432014" lon="10.7629832275053"><ele>563.0</ele><time>2026-03-29T14:37:22Z</time></trkpt><trkpt lat="45.78272837975504" lon="10.763062954956501"><ele>563.0</ele><time>2026-03-29T14:37:23Z</time></trkpt><trkpt lat="45.78269472252059" lon="10.763187846906106"><ele>563.0</ele><time>2026-03-29T14:37:24Z</time></trkpt><trkpt lat="45.78265994574916" lon="10.763314777099772"><ele>563.0</ele><time>2026-03-29T14:37:25Z</time></trkpt><trkpt lat="45.78261785368662" lon="10.763457675132443"><ele>561.0</ele><time>2026-03-29T14:37:26Z</time></trkpt><trkpt lat="45.78257058748185" lon="10.763623134486888"><ele>559.0</ele><time>2026-03-29T14:37:27Z</time></trkpt><trkpt lat="45.78252064312077" lon="10.763807076291698"><ele>557.0</ele><time>2026-03-29T14:37:28Z</time></trkpt><trkpt lat="45.78246904372854" lon="10.76399309229958"><ele>555.0</ele><time>2026-03-29T14:37:29Z</time></trkpt><trkpt lat="45.782416087097864" lon="10.764184530941144"><ele>555.0</ele><time>2026-03-29T14:37:30Z</time></trkpt><trkpt lat="45.78235399617282" lon="10.76434156850039"><ele>555.0</ele><time>2026-03-29T14:37:31Z</time></trkpt><trkpt lat="45.782304425074564" lon="10.764478346839711"><ele>555.0</ele><time>2026-03-29T14:37:32Z</time></trkpt><trkpt lat="45.78224248554301" lon="10.764580531537186"><ele>555.0</ele><time>2026-03-29T14:37:33Z</time></trkpt><trkpt lat="45.782173980259884" lon="10.76464467702265"><ele>555.0</ele><time>2026-03-29T14:37:34Z</time></trkpt><trkpt lat="45.782099297943375" lon="10.764718355967831"><ele>556.0</ele><time>2026-03-29T14:37:35Z</time></trkpt><trkpt lat="45.78203984114412" lon="10.764835698939637"><ele>557.0</ele><time>2026-03-29T14:37:36Z</time></trkpt><trkpt lat="45.78199141830033" lon="10.764944749842575"><ele>558.0</ele><time>2026-03-29T14:37:37Z</time></trkpt><trkpt lat="45.781950709087624" lon="10.765085053851406"><ele>559.0</ele><time>2026-03-29T14:37:38Z</time></trkpt><trkpt lat="45.78188818099778" lon="10.765223332229004"><ele>560.0</ele><time>2026-03-29T14:37:39Z</time></trkpt><trkpt lat="45.78184732290641" lon="10.765378293070397"><ele>553.25</ele><time>2026-03-29T14:37:40Z</time></trkpt><trkpt lat="45.78179971445953" lon="10.765540761408422"><ele>546.5</ele><time>2026-03-29T14:37:41Z</time></trkpt><trkpt lat="45.78175233536086" lon="10.765695635195033"><ele>539.75</ele><time>2026-03-29T14:37:42Z</time></trkpt><trkpt lat="45.78168251183173" lon="10.765839936993427"><ele>533.0</ele><time>2026-03-29T14:37:43Z</time></trkpt><trkpt lat="45.78163870086661" lon="10.766001638814801"><ele>533.75</ele><time>2026-03-29T14:37:43.999Z</time></trkpt><trkpt lat="45.78158091377618" lon="10.766173151848644"><ele>534.5</ele><time>2026-03-29T14:37:44.999Z</time></trkpt><trkpt lat="45.78155272422018" lon="10.766367912905983"><ele>535.25</ele><time>2026-03-29T14:37:45.999Z</time></trkpt><trkpt lat="45.781515190446214" lon="10.766553394505202"><ele>536.0</ele><time>2026-03-29T14:37:46.999Z</time></trkpt><trkpt lat="45.781496820971114" lon="10.76673325172327"><ele>534.6</ele><time>2026-03-29T14:37:47.999Z</time></trkpt><trkpt lat="45.781427497162696" lon="10.766876962818586"><ele>533.2</ele><time>2026-03-29T14:37:48.999Z</time></trkpt><trkpt lat="45.78133778423942" lon="10.766999226573976"><ele>531.8</ele><time>2026-03-29T14:37:49.999Z</time></trkpt><trkpt lat="45.78129030073627" lon="10.76711032286882"><ele>530.4</ele><time>2026-03-29T14:37:50.999Z</time></trkpt><trkpt lat="45.78128315779837" lon="10.767235959681496"><ele>529.0</ele><time>2026-03-29T14:37:51.999Z</time></trkpt><trkpt lat="45.78127794331125" lon="10.767354168081805"><ele>529.0</ele><time>2026-03-29T14:37:52.999Z</time></trkpt><trkpt lat="45.781302264886" lon="10.767462979604524"><ele>529.0</ele><time>2026-03-29T14:37:53.999Z</time></trkpt><trkpt lat="45.78136697675428" lon="10.767559919819886"><ele>529.0</ele><time>2026-03-29T14:37:54.999Z</time></trkpt><trkpt lat="45.7814581529764" lon="10.767648194703504"><ele>529.0</ele><time>2026-03-29T14:37:55.999Z</time></trkpt><trkpt lat="45.781563763561415" lon="10.767724391467345"><ele>529.0</ele><time>2026-03-29T14:37:56.999Z</time></trkpt><trkpt lat="45.78167542587234" lon="10.767783985398523"><ele>526.0</ele><time>2026-03-29T14:37:57.999Z</time></trkpt><trkpt lat="45.78177216200333" lon="10.767861004309726"><ele>523.0</ele><time>2026-03-29T14:37:58.999Z</time></trkpt><trkpt lat="45.78183071516867" lon="10.767977331741537"><ele>520.0</ele><time>2026-03-29T14:37:59.999Z</time></trkpt><trkpt lat="45.781827822187296" lon="10.768121668886716"><ele>517.0</ele><time>2026-03-29T14:38:00.999Z</time></trkpt><trkpt lat="45.78183257266969" lon="10.768287423495085"><ele>514.0</ele><time>2026-03-29T14:38:01.999Z</time></trkpt><trkpt lat="45.781837940766806" lon="10.768463163488802"><ele>513.6</ele><time>2026-03-29T14:38:02.999Z</time></trkpt><trkpt lat="45.78182546566145" lon="10.76862258754152"><ele>513.2</ele><time>2026-03-29T14:38:03.999Z</time></trkpt><trkpt lat="45.78175814652614" lon="10.768742334796023"><ele>512.8000000000001</ele><time>2026-03-29T14:38:04.999Z</time></trkpt><trkpt lat="45.781705682277725" lon="10.768901998506138"><ele>512.4</ele><time>2026-03-29T14:38:05.999Z</time></trkpt><trkpt lat="45.78167860200878" lon="10.769044503162542"><ele>512.0</ele><time>2026-03-29T14:38:06.999Z</time></trkpt><trkpt lat="45.78169253513042" lon="10.769196299850062"><ele>512.0</ele><time>2026-03-29T14:38:07.999Z</time></trkpt><trkpt lat="45.781704143924266" lon="10.769339421050708"><ele>512.0</ele><time>2026-03-29T14:38:08.999Z</time></trkpt><trkpt lat="45.781754766822004" lon="10.769474762509573"><ele>512.0</ele><time>2026-03-29T14:38:09.999Z</time></trkpt><trkpt lat="45.781840566969095" lon="10.769582719518086"><ele>512.0</ele><time>2026-03-29T14:38:10.999Z</time></trkpt><trkpt lat="45.781930497489846" lon="10.76969569171091"><ele>512.0</ele><time>2026-03-29T14:38:11.999Z</time></trkpt><trkpt lat="45.78202048065122" lon="10.769808957847879"><ele>508.20000000000005</ele><time>2026-03-29T14:38:12.999Z</time></trkpt><trkpt lat="45.78209704411222" lon="10.769895641322815"><ele>504.40000000000003</ele><time>2026-03-29T14:38:13.999Z</time></trkpt><trkpt lat="45.782181741353966" lon="10.76996509596629"><ele>500.59999999999997</ele><time>2026-03-29T14:38:14.999Z</time></trkpt><trkpt lat="45.78225907092307" lon="10.769959177298501"><ele>496.79999999999995</ele><time>2026-03-29T14:38:15.999Z</time></trkpt><trkpt lat="45.782317350490636" lon="10.769904544138868"><ele>493.0</ele><time>2026-03-29T14:38:16.999Z</time></trkpt><trkpt lat="45.782433478444936" lon="10.769733243872126"><ele>493.0</ele><time>2026-03-29T14:38:18.999Z</time></trkpt><trkpt lat="45.78253447795419" lon="10.769660773603837"><ele>493.0</ele><time>2026-03-29T14:38:19.999Z</time></trkpt><trkpt lat="45.78264440458737" lon="10.769613908783354"><ele>493.0</ele><time>2026-03-29T14:38:20.999Z</time></trkpt><trkpt lat="45.782776763892585" lon="10.769611930673523"><ele>493.0</ele><time>2026-03-29T14:38:21.999Z</time></trkpt><trkpt lat="45.78291624305978" lon="10.76960572464203"><ele>493.0</ele><time>2026-03-29T14:38:22.999Z</time></trkpt><trkpt lat="45.783052395892824" lon="10.769579584896656"><ele>493.0</ele><time>2026-03-29T14:38:23.999Z</time></trkpt><trkpt lat="45.78316552314447" lon="10.76973995107404"><ele>493.0</ele><time>2026-03-29T14:38:24.999Z</time></trkpt><trkpt lat="45.7832759837927" lon="10.769870210893119"><ele>493.0</ele><time>2026-03-29T14:38:25.999Z</time></trkpt><trkpt lat="45.78336813466808" lon="10.77003996716952"><ele>489.5</ele><time>2026-03-29T14:38:26.999Z</time></trkpt><trkpt lat="45.78344649177507" lon="10.770227337886615"><ele>486.0</ele><time>2026-03-29T14:38:27.999Z</time></trkpt><trkpt lat="45.78351488844648" lon="10.770399180087544"><ele>482.5</ele><time>2026-03-29T14:38:28.999Z</time></trkpt><trkpt lat="45.78359348415972" lon="10.770527480903302"><ele>479.0</ele><time>2026-03-29T14:38:29.999Z</time></trkpt><trkpt lat="45.783691515707154" lon="10.770607545338919"><ele>479.0</ele><time>2026-03-29T14:38:30.999Z</time></trkpt><trkpt lat="45.78379557997635" lon="10.770651963461642"><ele>479.0</ele><time>2026-03-29T14:38:31.999Z</time></trkpt><trkpt lat="45.7839075415521" lon="10.770687289238639"><ele>479.0</ele><time>2026-03-29T14:38:32.999Z</time></trkpt><trkpt lat="45.78403165630379" lon="10.77072406356677"><ele>479.0</ele><time>2026-03-29T14:38:33.999Z</time></trkpt><trkpt lat="45.78416072384787" lon="10.770761880345995"><ele>479.0</ele><time>2026-03-29T14:38:34.999Z</time></trkpt><trkpt lat="45.784288102649484" lon="10.77080096589139"><ele>479.0</ele><time>2026-03-29T14:38:35.999Z</time></trkpt><trkpt lat="45.78440325388947" lon="10.770823548149435"><ele>479.0</ele><time>2026-03-29T14:38:36.999Z</time></trkpt><trkpt lat="45.78452656317675" lon="10.770827331723343"><ele>479.0</ele><time>2026-03-29T14:38:37.999Z</time></trkpt><trkpt lat="45.784647360613135" lon="10.770828379347101"><ele>478.2</ele><time>2026-03-29T14:38:38.999Z</time></trkpt><trkpt lat="45.78475606897608" lon="10.770854741998681"><ele>477.4</ele><time>2026-03-29T14:38:39.999Z</time></trkpt><trkpt lat="45.78486551950442" lon="10.770900502922254"><ele>476.6</ele><time>2026-03-29T14:38:40.999Z</time></trkpt><trkpt lat="45.78496864559328" lon="10.770960592132427"><ele>475.8</ele><time>2026-03-29T14:38:41.999Z</time></trkpt><trkpt lat="45.785061779208554" lon="10.77103981040935"><ele>475.0</ele><time>2026-03-29T14:38:43Z</time></trkpt><trkpt lat="45.78515274105447" lon="10.77113191487742"><ele>469.75</ele><time>2026-03-29T14:38:44Z</time></trkpt><trkpt lat="45.7852487650081" lon="10.771219771158986"><ele>464.5</ele><time>2026-03-29T14:38:45Z</time></trkpt><trkpt lat="45.78536608901842" lon="10.771305568379045"><ele>459.25</ele><time>2026-03-29T14:38:46Z</time></trkpt><trkpt lat="45.78549704044438" lon="10.771362949809255"><ele>454.0</ele><time>2026-03-29T14:38:47Z</time></trkpt><trkpt lat="45.785618523591246" lon="10.771436280904918"><ele>454.0</ele><time>2026-03-29T14:38:48Z</time></trkpt><trkpt lat="45.78573324436146" lon="10.771549839119064"><ele>454.0</ele><time>2026-03-29T14:38:49Z</time></trkpt><trkpt lat="45.78586385953826" lon="10.771688437673"><ele>454.0</ele><time>2026-03-29T14:38:50Z</time></trkpt><trkpt lat="45.785985572560094" lon="10.771803665004676"><ele>454.0</ele><time>2026-03-29T14:38:51Z</time></trkpt><trkpt lat="45.78609896149033" lon="10.7719196210667"><ele>452.6</ele><time>2026-03-29T14:38:52Z</time></trkpt><trkpt lat="45.78619964058847" lon="10.772040151532902"><ele>451.2</ele><time>2026-03-29T14:38:53Z</time></trkpt><trkpt lat="45.786287007664384" lon="10.772148337461106"><ele>449.80000000000007</ele><time>2026-03-29T14:38:54Z</time></trkpt><trkpt lat="45.78636149726559" lon="10.772244607303923"><ele>448.40000000000003</ele><time>2026-03-29T14:38:55Z</time></trkpt><trkpt lat="45.78641014246326" lon="10.77234346020222"><ele>447.0</ele><time>2026-03-29T14:38:56Z</time></trkpt><trkpt lat="45.786397200537" lon="10.772436423011413"><ele>447.0</ele><time>2026-03-29T14:38:57Z</time></trkpt><trkpt lat="45.786378259534445" lon="10.772558416952291"><ele>447.00000000000006</ele><time>2026-03-29T14:38:58Z</time></trkpt><trkpt lat="45.78639026465599" lon="10.7727003788858"><ele>447.00000000000006</ele><time>2026-03-29T14:38:59Z</time></trkpt><trkpt lat="45.78640468744419" lon="10.772832453265462"><ele>447.0</ele><time>2026-03-29T14:39:00Z</time></trkpt><trkpt lat="45.786479960524126" lon="10.77293594599815"><ele>447.0</ele><time>2026-03-29T14:39:01Z</time></trkpt><trkpt lat="45.78655249044228" lon="10.773019776163098"><ele>443.0</ele><time>2026-03-29T14:39:02Z</time></trkpt><trkpt lat="45.78661849864247" lon="10.77307267221981"><ele>439.00000000000006</ele><time>2026-03-29T14:39:03Z</time></trkpt><trkpt lat="45.78671114593094" lon="10.773067113641236"><ele>435.00000000000006</ele><time>2026-03-29T14:39:04Z</time></trkpt><trkpt lat="45.78683282491838" lon="10.773075381465397"><ele>431.0</ele><time>2026-03-29T14:39:05Z</time></trkpt><trkpt lat="45.78696907822783" lon="10.773076806743527"><ele>427.0</ele><time>2026-03-29T14:39:06Z</time></trkpt><trkpt lat="45.78711995283689" lon="10.773065000177551"><ele>425.75</ele><time>2026-03-29T14:39:07Z</time></trkpt><trkpt lat="45.7872416662441" lon="10.773054092771504"><ele>424.5</ele><time>2026-03-29T14:39:08Z</time></trkpt><trkpt lat="45.7873541509092" lon="10.77307662424178"><ele>423.25</ele><time>2026-03-29T14:39:09Z</time></trkpt><trkpt lat="45.787455487102996" lon="10.773151673770741"><ele>422.0</ele><time>2026-03-29T14:39:10Z</time></trkpt><trkpt lat="45.78756153867008" lon="10.773186977512388"><ele>420.75</ele><time>2026-03-29T14:39:11Z</time></trkpt><trkpt lat="45.787680746683556" lon="10.773146697716903"><ele>419.5</ele><time>2026-03-29T14:39:12Z</time></trkpt><trkpt lat="45.78779115574705" lon="10.773059079431768"><ele>418.25</ele><time>2026-03-29T14:39:13Z</time></trkpt><trkpt lat="45.78789952974416" lon="10.77302129029282"><ele>417.0</ele><time>2026-03-29T14:39:14Z</time></trkpt><trkpt lat="45.788023293136604" lon="10.773039816525996"><ele>417.0</ele><time>2026-03-29T14:39:15Z</time></trkpt><trkpt lat="45.7881514202775" lon="10.773104651460224"><ele>417.0</ele><time>2026-03-29T14:39:16Z</time></trkpt><trkpt lat="45.78829934214958" lon="10.773199152311573"><ele>417.0</ele><time>2026-03-29T14:39:17Z</time></trkpt><trkpt lat="45.78844438307635" lon="10.773276119100165"><ele>418.25</ele><time>2026-03-29T14:39:18Z</time></trkpt><trkpt lat="45.7885959425662" lon="10.773347946873441"><ele>419.5</ele><time>2026-03-29T14:39:19Z</time></trkpt><trkpt lat="45.788735609482195" lon="10.773418684401905"><ele>420.75</ele><time>2026-03-29T14:39:20Z</time></trkpt><trkpt lat="45.788863107458575" lon="10.773478343348264"><ele>422.0</ele><time>2026-03-29T14:39:21Z</time></trkpt><trkpt lat="45.78899285253072" lon="10.773536218312245"><ele>415.25</ele><time>2026-03-29T14:39:22Z</time></trkpt><trkpt lat="45.789126894527" lon="10.773559433219244"><ele>408.5</ele><time>2026-03-29T14:39:23Z</time></trkpt><trkpt lat="45.78925450778341" lon="10.773574589737265"><ele>401.75</ele><time>2026-03-29T14:39:24Z</time></trkpt><trkpt lat="45.78937710925679" lon="10.773583479118614"><ele>395.0</ele><time>2026-03-29T14:39:25Z</time></trkpt><trkpt lat="45.789503079723254" lon="10.773564165171615"><ele>399.25</ele><time>2026-03-29T14:39:26Z</time></trkpt><trkpt lat="45.78963444518682" lon="10.773510403295983"><ele>403.5</ele><time>2026-03-29T14:39:27Z</time></trkpt><trkpt lat="45.78977654806431" lon="10.773457782327768"><ele>407.75</ele><time>2026-03-29T14:39:28Z</time></trkpt><trkpt lat="45.78991426334248" lon="10.773426091261605"><ele>412.0</ele><time>2026-03-29T14:39:29Z</time></trkpt><trkpt lat="45.79005053885211" lon="10.773402105772792"><ele>409.0</ele><time>2026-03-29T14:39:30Z</time></trkpt><trkpt lat="45.790189878083" lon="10.77342148566663"><ele>406.0</ele><time>2026-03-29T14:39:31Z</time></trkpt><trkpt lat="45.79031356184156" lon="10.773442185696357"><ele>403.0</ele><time>2026-03-29T14:39:32Z</time></trkpt><trkpt lat="45.790420248745505" lon="10.77346668752031"><ele>400.0</ele><time>2026-03-29T14:39:33Z</time></trkpt><trkpt lat="45.790497977455395" lon="10.773496930546694"><ele>395.8</ele><time>2026-03-29T14:39:34Z</time></trkpt><trkpt lat="45.790580052310325" lon="10.77353581088874"><ele>391.6</ele><time>2026-03-29T14:39:36Z</time></trkpt><trkpt lat="45.79057808631693" lon="10.773680379185274"><ele>387.4</ele><time>2026-03-29T14:39:38Z</time></trkpt><trkpt lat="45.790490825872695" lon="10.773686213697731"><ele>383.2</ele><time>2026-03-29T14:39:39Z</time></trkpt><trkpt lat="45.790422663089494" lon="10.773711156358788"><ele>379.0</ele><time>2026-03-29T14:39:40Z</time></trkpt><trkpt lat="45.79033028737636" lon="10.773787182525943"><ele>379.0</ele><time>2026-03-29T14:39:41Z</time></trkpt><trkpt lat="45.79023810608848" lon="10.773890821026674"><ele>379.0</ele><time>2026-03-29T14:39:42Z</time></trkpt><trkpt lat="45.79013996050462" lon="10.773984456486248"><ele>379.0</ele><time>2026-03-29T14:39:43Z</time></trkpt><trkpt lat="45.79006724387622" lon="10.774078647087562"><ele>379.0</ele><time>2026-03-29T14:39:44Z</time></trkpt><trkpt lat="45.79001901161447" lon="10.774147719300968"><ele>379.0</ele><time>2026-03-29T14:39:45Z</time></trkpt><trkpt lat="45.79002506043847" lon="10.774249782250328"><ele>379.0</ele><time>2026-03-29T14:39:46Z</time></trkpt><trkpt lat="45.79012399986863" lon="10.774336589938995"><ele>379.0</ele><time>2026-03-29T14:39:48Z</time></trkpt><trkpt lat="45.79021262583985" lon="10.774320776968926"><ele>379.0</ele><time>2026-03-29T14:39:48.999Z</time></trkpt><trkpt lat="45.79031197200183" lon="10.774276995445678"><ele>379.0</ele><time>2026-03-29T14:39:49.999Z</time></trkpt><trkpt lat="45.79042341899676" lon="10.774225325179964"><ele>379.0</ele><time>2026-03-29T14:39:50.999Z</time></trkpt><trkpt lat="45.79054397600283" lon="10.774157240830917"><ele>379.0</ele><time>2026-03-29T14:39:51.999Z</time></trkpt><trkpt lat="45.790662473611654" lon="10.774085012521695"><ele>379.0</ele><time>2026-03-29T14:39:52.999Z</time></trkpt><trkpt lat="45.79076298164874" lon="10.774020824467284"><ele>379.0</ele><time>2026-03-29T14:39:53.999Z</time></trkpt><trkpt lat="45.79084807750353" lon="10.773963410452273"><ele>379.0</ele><time>2026-03-29T14:39:54.999Z</time></trkpt><trkpt lat="45.790931127194796" lon="10.773946080321142"><ele>379.0</ele><time>2026-03-29T14:39:55.999Z</time></trkpt><trkpt lat="45.791009843380465" lon="10.773976407198761"><ele>380.2</ele><time>2026-03-29T14:39:56.999Z</time></trkpt><trkpt lat="45.79109152775819" lon="10.774056660394576"><ele>381.4</ele><time>2026-03-29T14:39:57.999Z</time></trkpt><trkpt lat="45.791171422229674" lon="10.774151055507572"><ele>382.6</ele><time>2026-03-29T14:39:58.999Z</time></trkpt><trkpt lat="45.791252036688505" lon="10.774252347237615"><ele>383.8</ele><time>2026-03-29T14:39:59.999Z</time></trkpt><trkpt lat="45.79132455283626" lon="10.77437753532568"><ele>385.0</ele><time>2026-03-29T14:40:00.999Z</time></trkpt><trkpt lat="45.791396491491355" lon="10.77450569316859"><ele>376.25</ele><time>2026-03-29T14:40:01.999Z</time></trkpt><trkpt lat="45.79147337820082" lon="10.774633041800122"><ele>367.5</ele><time>2026-03-29T14:40:02.999Z</time></trkpt><trkpt lat="45.791564386969284" lon="10.77473933589256"><ele>358.75</ele><time>2026-03-29T14:40:03.999Z</time></trkpt><trkpt lat="45.79164911042795" lon="10.77485445398133"><ele>350.0</ele><time>2026-03-29T14:40:04.999Z</time></trkpt><trkpt lat="45.791748570006305" lon="10.774935813721873"><ele>351.25</ele><time>2026-03-29T14:40:05.999Z</time></trkpt><trkpt lat="45.79186247135332" lon="10.77497346392217"><ele>352.5</ele><time>2026-03-29T14:40:06.999Z</time></trkpt><trkpt lat="45.79198187187044" lon="10.775008600678012"><ele>353.75</ele><time>2026-03-29T14:40:07.999Z</time></trkpt><trkpt lat="45.79209100747832" lon="10.775054018444242"><ele>355.0</ele><time>2026-03-29T14:40:08.999Z</time></trkpt><trkpt lat="45.79220132318385" lon="10.775109390788227"><ele>355.0</ele><time>2026-03-29T14:40:09.999Z</time></trkpt><trkpt lat="45.79231201380104" lon="10.77517595291777"><ele>355.0</ele><time>2026-03-29T14:40:10.999Z</time></trkpt><trkpt lat="45.79241581843373" lon="10.77524866005723"><ele>355.0</ele><time>2026-03-29T14:40:11.999Z</time></trkpt><trkpt lat="45.792518332316" lon="10.775322301908629"><ele>355.0</ele><time>2026-03-29T14:40:12.999Z</time></trkpt><trkpt lat="45.79262782485556" lon="10.775392421310604"><ele>354.8</ele><time>2026-03-29T14:40:13.999Z</time></trkpt><trkpt lat="45.792732572202084" lon="10.775469015893416"><ele>354.6</ele><time>2026-03-29T14:40:14.999Z</time></trkpt><trkpt lat="45.79283520776641" lon="10.775543592645795"><ele>354.4</ele><time>2026-03-29T14:40:15.999Z</time></trkpt><trkpt lat="45.79292864626184" lon="10.775621359914027"><ele>354.2</ele><time>2026-03-29T14:40:16.999Z</time></trkpt><trkpt lat="45.79301060734451" lon="10.775686460894583"><ele>354.0</ele><time>2026-03-29T14:40:17.999Z</time></trkpt><trkpt lat="45.793081232962685" lon="10.775730359437226"><ele>354.0</ele><time>2026-03-29T14:40:18.999Z</time></trkpt><trkpt lat="45.79313838829891" lon="10.77579567131933"><ele>354.0</ele><time>2026-03-29T14:40:19.999Z</time></trkpt><trkpt lat="45.79317580817453" lon="10.775895331260152"><ele>354.0</ele><time>2026-03-29T14:40:20.999Z</time></trkpt><trkpt lat="45.793176788474305" lon="10.776019523986667"><ele>354.0</ele><time>2026-03-29T14:40:21.999Z</time></trkpt><trkpt lat="45.79314797406055" lon="10.776140205990426"><ele>354.0</ele><time>2026-03-29T14:40:22.999Z</time></trkpt><trkpt lat="45.79312581871167" lon="10.776274686594606"><ele>354.0</ele><time>2026-03-29T14:40:23.999Z</time></trkpt><trkpt lat="45.79308630315991" lon="10.776419511267246"><ele>350.79999999999995</ele><time>2026-03-29T14:40:24.999Z</time></trkpt><trkpt lat="45.793043505035854" lon="10.776572369129553"><ele>347.59999999999997</ele><time>2026-03-29T14:40:25.999Z</time></trkpt><trkpt lat="45.79301238197347" lon="10.776727187744154"><ele>344.4</ele><time>2026-03-29T14:40:26.999Z</time></trkpt><trkpt lat="45.79300556972807" lon="10.776872870478346"><ele>341.2</ele><time>2026-03-29T14:40:27.999Z</time></trkpt><trkpt lat="45.79302519303467" lon="10.777009594664607"><ele>338.0</ele><time>2026-03-29T14:40:28.999Z</time></trkpt><trkpt lat="45.793047061454104" lon="10.777139334727893"><ele>334.4</ele><time>2026-03-29T14:40:29.999Z</time></trkpt><trkpt lat="45.793092832066556" lon="10.777273058930238"><ele>330.79999999999995</ele><time>2026-03-29T14:40:30.999Z</time></trkpt><trkpt lat="45.79315274802809" lon="10.777404555703672"><ele>327.2</ele><time>2026-03-29T14:40:31.999Z</time></trkpt><trkpt lat="45.7932279213513" lon="10.777523881824406"><ele>323.6</ele><time>2026-03-29T14:40:32.999Z</time></trkpt><trkpt lat="45.793309769984916" lon="10.7776507723962"><ele>320.0</ele><time>2026-03-29T14:40:33.999Z</time></trkpt><trkpt lat="45.79339082706663" lon="10.77778496789696"><ele>314.25</ele><time>2026-03-29T14:40:34.999Z</time></trkpt><trkpt lat="45.79347877945697" lon="10.777900943274934"><ele>308.5</ele><time>2026-03-29T14:40:35.999Z</time></trkpt><trkpt lat="45.79357309147715" lon="10.777998488337444"><ele>302.75</ele><time>2026-03-29T14:40:36.999Z</time></trkpt><trkpt lat="45.79366359225711" lon="10.778085206129873"><ele>297.0</ele><time>2026-03-29T14:40:37.999Z</time></trkpt><trkpt lat="45.79376354943213" lon="10.778141429311441"><ele>296.2</ele><time>2026-03-29T14:40:38.999Z</time></trkpt><trkpt lat="45.793859937503775" lon="10.77817301302658"><ele>295.4</ele><time>2026-03-29T14:40:39.999Z</time></trkpt><trkpt lat="45.79395488871141" lon="10.778160750201275"><ele>294.6</ele><time>2026-03-29T14:40:40.999Z</time></trkpt><trkpt lat="45.794060628286914" lon="10.778107668742198"><ele>293.8</ele><time>2026-03-29T14:40:41.999Z</time></trkpt><trkpt lat="45.794164702039474" lon="10.778025799610688"><ele>293.0</ele><time>2026-03-29T14:40:42.999Z</time></trkpt><trkpt lat="45.794297054045465" lon="10.777992732163955"><ele>293.25</ele><time>2026-03-29T14:40:43.999Z</time></trkpt><trkpt lat="45.79443664402435" lon="10.777975935673307"><ele>293.5</ele><time>2026-03-29T14:40:44.999Z</time></trkpt><trkpt lat="45.79458556349221" lon="10.77795910846615"><ele>293.75</ele><time>2026-03-29T14:40:45.999Z</time></trkpt><trkpt lat="45.79471433773029" lon="10.777941007037454"><ele>294.0</ele><time>2026-03-29T14:40:46.999Z</time></trkpt><trkpt lat="45.79482043559399" lon="10.777924033181694"><ele>294.0</ele><time>2026-03-29T14:40:47.999Z</time></trkpt><trkpt lat="45.7949108282616" lon="10.777945975297065"><ele>294.0</ele><time>2026-03-29T14:40:49Z</time></trkpt><trkpt lat="45.79499024012564" lon="10.778032339682529"><ele>294.0</ele><time>2026-03-29T14:40:50Z</time></trkpt><trkpt lat="45.79507872296999" lon="10.778111226786686"><ele>294.0</ele><time>2026-03-29T14:40:51Z</time></trkpt><trkpt lat="45.79512291005272" lon="10.778239196241481"><ele>294.0</ele><time>2026-03-29T14:40:52Z</time></trkpt><trkpt lat="45.79514367799135" lon="10.778383867539423"><ele>291.75</ele><time>2026-03-29T14:40:53Z</time></trkpt><trkpt lat="45.79518239777438" lon="10.778539120743083"><ele>289.5</ele><time>2026-03-29T14:40:54Z</time></trkpt><trkpt lat="45.79523479386938" lon="10.778687632674053"><ele>287.25</ele><time>2026-03-29T14:40:55Z</time></trkpt><trkpt lat="45.79530489027283" lon="10.778827093399936"><ele>285.0</ele><time>2026-03-29T14:40:56Z</time></trkpt><trkpt lat="45.79537215887044" lon="10.778968566171738"><ele>285.0</ele><time>2026-03-29T14:40:57Z</time></trkpt><trkpt lat="45.795448348029936" lon="10.779103900957148"><ele>285.0</ele><time>2026-03-29T14:40:58Z</time></trkpt><trkpt lat="45.795533624305605" lon="10.779220363594018"><ele>285.0</ele><time>2026-03-29T14:40:59Z</time></trkpt><trkpt lat="45.795629659955424" lon="10.779315123123443"><ele>285.0</ele><time>2026-03-29T14:41:00Z</time></trkpt><trkpt lat="45.79573901894735" lon="10.779392598324932"><ele>283.75</ele><time>2026-03-29T14:41:01Z</time></trkpt><trkpt lat="45.795853716494214" lon="10.779464409051823"><ele>282.5</ele><time>2026-03-29T14:41:02Z</time></trkpt><trkpt lat="45.795975523410895" lon="10.779486700003137"><ele>281.25</ele><time>2026-03-29T14:41:03Z</time></trkpt><trkpt lat="45.79609024556027" lon="10.779495716153857"><ele>280.0</ele><time>2026-03-29T14:41:04Z</time></trkpt><trkpt lat="45.796192260271624" lon="10.779496053087076"><ele>280.0</ele><time>2026-03-29T14:41:05Z</time></trkpt><trkpt lat="45.79627109283288" lon="10.779539296382922"><ele>280.0</ele><time>2026-03-29T14:41:06Z</time></trkpt><trkpt lat="45.79634366823269" lon="10.779609404417334"><ele>280.0</ele><time>2026-03-29T14:41:07Z</time></trkpt><trkpt lat="45.79634090145892" lon="10.77973213171384"><ele>280.0</ele><time>2026-03-29T14:41:08Z</time></trkpt><trkpt lat="45.79633542960135" lon="10.779845715219912"><ele>280.0</ele><time>2026-03-29T14:41:09Z</time></trkpt><trkpt lat="45.7963712538444" lon="10.780009672206063"><ele>275.0</ele><time>2026-03-29T14:41:10Z</time></trkpt><trkpt lat="45.796324746606395" lon="10.780190449595768"><ele>270.0</ele><time>2026-03-29T14:41:11Z</time></trkpt><trkpt lat="45.796285136713045" lon="10.780350867191679"><ele>265.0</ele><time>2026-03-29T14:41:12Z</time></trkpt><trkpt lat="45.79625286579502" lon="10.780498064614761"><ele>260.0</ele><time>2026-03-29T14:41:13Z</time></trkpt><trkpt lat="45.7962152560851" lon="10.780650368810292"><ele>260.0</ele><time>2026-03-29T14:41:14Z</time></trkpt><trkpt lat="45.79627601917867" lon="10.780789497906662"><ele>260.0</ele><time>2026-03-29T14:41:15Z</time></trkpt><trkpt lat="45.79633357725862" lon="10.780900513024305"><ele>260.0</ele><time>2026-03-29T14:41:16Z</time></trkpt><trkpt lat="45.796409197504296" lon="10.780979294281243"><ele>260.0</ele><time>2026-03-29T14:41:17Z</time></trkpt><trkpt lat="45.79650726853626" lon="10.781007594088367"><ele>260.0</ele><time>2026-03-29T14:41:18Z</time></trkpt><trkpt lat="45.79662037116933" lon="10.781030496248919"><ele>256.0</ele><time>2026-03-29T14:41:19Z</time></trkpt><trkpt lat="45.79674128814508" lon="10.781036836816302"><ele>252.0</ele><time>2026-03-29T14:41:20Z</time></trkpt><trkpt lat="45.7968740206883" lon="10.781044780873788"><ele>248.0</ele><time>2026-03-29T14:41:21Z</time></trkpt><trkpt lat="45.79701522157065" lon="10.78105824038658"><ele>244.0</ele><time>2026-03-29T14:41:22Z</time></trkpt><trkpt lat="45.79714503773752" lon="10.781061046635253"><ele>238.5</ele><time>2026-03-29T14:41:23Z</time></trkpt><trkpt lat="45.79728587048478" lon="10.781062338019035"><ele>233.0</ele><time>2026-03-29T14:41:24Z</time></trkpt><trkpt lat="45.79741944607281" lon="10.781053829817786"><ele>227.5</ele><time>2026-03-29T14:41:25Z</time></trkpt><trkpt lat="45.79755546306786" lon="10.781047079535973"><ele>222.0</ele><time>2026-03-29T14:41:26Z</time></trkpt><trkpt lat="45.797671331527596" lon="10.781017301446363"><ele>226.5</ele><time>2026-03-29T14:41:27Z</time></trkpt><trkpt lat="45.797779676062945" lon="10.780956165246973"><ele>231.0</ele><time>2026-03-29T14:41:28Z</time></trkpt><trkpt lat="45.797884574664295" lon="10.780914759628152"><ele>235.5</ele><time>2026-03-29T14:41:29Z</time></trkpt><trkpt lat="45.79800010605299" lon="10.780906088187779"><ele>240.0</ele><time>2026-03-29T14:41:30Z</time></trkpt><trkpt lat="45.79812616230615" lon="10.78091366530726"><ele>240.0</ele><time>2026-03-29T14:41:31Z</time></trkpt><trkpt lat="45.79825519181927" lon="10.780929884179658"><ele>240.0</ele><time>2026-03-29T14:41:32Z</time></trkpt><trkpt lat="45.798389812803215" lon="10.7809613021794"><ele>240.0</ele><time>2026-03-29T14:41:33Z</time></trkpt><trkpt lat="45.798519701378474" lon="10.781022144063048"><ele>240.0</ele><time>2026-03-29T14:41:34Z</time></trkpt><trkpt lat="45.798638669217915" lon="10.781095083508557"><ele>233.75</ele><time>2026-03-29T14:41:35Z</time></trkpt><trkpt lat="45.7987504061506" lon="10.781179817750598"><ele>227.5</ele><time>2026-03-29T14:41:36Z</time></trkpt><trkpt lat="45.798859974056754" lon="10.781259507064652"><ele>221.25</ele><time>2026-03-29T14:41:37Z</time></trkpt><trkpt lat="45.7989580370721" lon="10.781328762256381"><ele>215.0</ele><time>2026-03-29T14:41:38Z</time></trkpt><trkpt lat="45.79904458972097" lon="10.781383403131569"><ele>215.0</ele><time>2026-03-29T14:41:39Z</time></trkpt><trkpt lat="45.79913541801292" lon="10.781393573195604"><ele>215.0</ele><time>2026-03-29T14:41:40Z</time></trkpt><trkpt lat="45.79922465874736" lon="10.781368382561388"><ele>215.0</ele><time>2026-03-29T14:41:41Z</time></trkpt><trkpt lat="45.79930615322999" lon="10.781296319642015"><ele>215.0</ele><time>2026-03-29T14:41:42Z</time></trkpt><trkpt lat="45.79937125037467" lon="10.781201788429057"><ele>215.0</ele><time>2026-03-29T14:41:43Z</time></trkpt><trkpt lat="45.79942803787673" lon="10.781079873991544"><ele>211.0</ele><time>2026-03-29T14:41:44Z</time></trkpt><trkpt lat="45.79948124619763" lon="10.780938411020774"><ele>207.0</ele><time>2026-03-29T14:41:45Z</time></trkpt><trkpt lat="45.79955014916688" lon="10.780807899114901"><ele>203.0</ele><time>2026-03-29T14:41:46Z</time></trkpt><trkpt lat="45.79962402519036" lon="10.780693227380649"><ele>199.0</ele><time>2026-03-29T14:41:47Z</time></trkpt><trkpt lat="45.799707488519054" lon="10.780591354803153"><ele>195.0</ele><time>2026-03-29T14:41:48Z</time></trkpt><trkpt lat="45.79981270288065" lon="10.780515549022514"><ele>195.0</ele><time>2026-03-29T14:41:49Z</time></trkpt><trkpt lat="45.79991502680582" lon="10.780467706846594"><ele>195.0</ele><time>2026-03-29T14:41:50Z</time></trkpt><trkpt lat="45.800012627028664" lon="10.780422241169186"><ele>195.0</ele><time>2026-03-29T14:41:51Z</time></trkpt><trkpt lat="45.800113258474575" lon="10.780392281617862"><ele>195.0</ele><time>2026-03-29T14:41:52Z</time></trkpt><trkpt lat="45.80021410826981" lon="10.780359634251585"><ele>195.0</ele><time>2026-03-29T14:41:52.999Z</time></trkpt><trkpt lat="45.80030749663108" lon="10.780327043282679"><ele>191.8</ele><time>2026-03-29T14:41:53.999Z</time></trkpt><trkpt lat="45.80040717551773" lon="10.780306099384797"><ele>188.6</ele><time>2026-03-29T14:41:54.999Z</time></trkpt><trkpt lat="45.80049541112421" lon="10.780293933994225"><ele>185.39999999999998</ele><time>2026-03-29T14:41:55.999Z</time></trkpt><trkpt lat="45.800587267638576" lon="10.780291606557656"><ele>182.2</ele><time>2026-03-29T14:41:56.999Z</time></trkpt><trkpt lat="45.800674057103365" lon="10.780296288094549"><ele>179.0</ele><time>2026-03-29T14:41:57.999Z</time></trkpt><trkpt lat="45.800771888401385" lon="10.78031048106723"><ele>179.0</ele><time>2026-03-29T14:41:58.999Z</time></trkpt><trkpt lat="45.800881242177184" lon="10.780323596489128"><ele>179.0</ele><time>2026-03-29T14:41:59.999Z</time></trkpt><trkpt lat="45.80099997347132" lon="10.78033307225099"><ele>179.0</ele><time>2026-03-29T14:42:00.999Z</time></trkpt><trkpt lat="45.80111950293621" lon="10.78034332231544"><ele>179.0</ele><time>2026-03-29T14:42:01.999Z</time></trkpt><trkpt lat="45.801254843232336" lon="10.78038152013475"><ele>178.75</ele><time>2026-03-29T14:42:02.999Z</time></trkpt><trkpt lat="45.80137839337784" lon="10.780423126694336"><ele>178.5</ele><time>2026-03-29T14:42:03.999Z</time></trkpt><trkpt lat="45.80149590303256" lon="10.78047884450742"><ele>178.25</ele><time>2026-03-29T14:42:04.999Z</time></trkpt><trkpt lat="45.80162335633998" lon="10.780580632540817"><ele>178.0</ele><time>2026-03-29T14:42:05.999Z</time></trkpt><trkpt lat="45.80175681677131" lon="10.780680518111623"><ele>179.66666666666669</ele><time>2026-03-29T14:42:06.999Z</time></trkpt><trkpt lat="45.80189906478346" lon="10.780773546176103"><ele>181.33333333333334</ele><time>2026-03-29T14:42:07.999Z</time></trkpt><trkpt lat="45.80204271838937" lon="10.780882309905834"><ele>183.0</ele><time>2026-03-29T14:42:08.999Z</time></trkpt><trkpt lat="45.80217320177692" lon="10.780989398088963"><ele>176.75</ele><time>2026-03-29T14:42:09.999Z</time></trkpt><trkpt lat="45.80229180965903" lon="10.78109388528025"><ele>170.5</ele><time>2026-03-29T14:42:10.999Z</time></trkpt><trkpt lat="45.80240332226747" lon="10.781190459256202"><ele>164.25</ele><time>2026-03-29T14:42:11.999Z</time></trkpt><trkpt lat="45.80249685984029" lon="10.781274999583285"><ele>158.0</ele><time>2026-03-29T14:42:12.999Z</time></trkpt><trkpt lat="45.802606575900356" lon="10.78132788284073"><ele>157.0</ele><time>2026-03-29T14:42:13.999Z</time></trkpt><trkpt lat="45.802722019047955" lon="10.781330171157457"><ele>156.0</ele><time>2026-03-29T14:42:14.999Z</time></trkpt><trkpt lat="45.80284853619436" lon="10.781319168520895"><ele>155.0</ele><time>2026-03-29T14:42:15.999Z</time></trkpt><trkpt lat="45.80298146036288" lon="10.781283668772891"><ele>154.0</ele><time>2026-03-29T14:42:16.999Z</time></trkpt><trkpt lat="45.80310006630439" lon="10.781254616649825"><ele>154.0</ele><time>2026-03-29T14:42:17.999Z</time></trkpt><trkpt lat="45.803205989732625" lon="10.78122853336099"><ele>154.0</ele><time>2026-03-29T14:42:18.999Z</time></trkpt><trkpt lat="45.803303342401115" lon="10.781230248387518"><ele>154.0</ele><time>2026-03-29T14:42:19.999Z</time></trkpt><trkpt lat="45.803400812837125" lon="10.78126337283311"><ele>154.0</ele><time>2026-03-29T14:42:20.999Z</time></trkpt><trkpt lat="45.803494941761485" lon="10.781325652859504"><ele>154.0</ele><time>2026-03-29T14:42:21.999Z</time></trkpt><trkpt lat="45.803574078894385" lon="10.781416075988721"><ele>157.2</ele><time>2026-03-29T14:42:22.999Z</time></trkpt><trkpt lat="45.803622049583126" lon="10.781540251533066"><ele>160.4</ele><time>2026-03-29T14:42:23.999Z</time></trkpt><trkpt lat="45.803662647075306" lon="10.781659763644551"><ele>163.6</ele><time>2026-03-29T14:42:24.999Z</time></trkpt><trkpt lat="45.80365217301701" lon="10.781778787430422"><ele>166.8</ele><time>2026-03-29T14:42:25.999Z</time></trkpt><trkpt lat="45.80359702396918" lon="10.781882628617726"><ele>170.0</ele><time>2026-03-29T14:42:26.999Z</time></trkpt><trkpt lat="45.80357984361023" lon="10.782023352486839"><ele>171.0</ele><time>2026-03-29T14:42:27.999Z</time></trkpt><trkpt lat="45.803573692350106" lon="10.78219209316687"><ele>172.0</ele><time>2026-03-29T14:42:28.999Z</time></trkpt><trkpt lat="45.80357088453995" lon="10.782374211997197"><ele>173.0</ele><time>2026-03-29T14:42:29.999Z</time></trkpt><trkpt lat="45.80356551035596" lon="10.782584638810247"><ele>174.0</ele><time>2026-03-29T14:42:30.999Z</time></trkpt><trkpt lat="45.803578553492265" lon="10.782804410369152"><ele>171.75</ele><time>2026-03-29T14:42:31.999Z</time></trkpt><trkpt lat="45.80357691556705" lon="10.783030424203263"><ele>169.5</ele><time>2026-03-29T14:42:32.999Z</time></trkpt><trkpt lat="45.803565048143035" lon="10.783240259718806"><ele>167.25</ele><time>2026-03-29T14:42:33.999Z</time></trkpt><trkpt lat="45.80356422358924" lon="10.78341598106299"><ele>165.0</ele><time>2026-03-29T14:42:34.999Z</time></trkpt><trkpt lat="45.80358360591077" lon="10.783574568109985"><ele>162.6</ele><time>2026-03-29T14:42:35.999Z</time></trkpt><trkpt lat="45.80359205213513" lon="10.783705426684309"><ele>160.2</ele><time>2026-03-29T14:42:36.999Z</time></trkpt><trkpt lat="45.80363244308398" lon="10.783799282913101"><ele>157.8</ele><time>2026-03-29T14:42:37.999Z</time></trkpt><trkpt lat="45.80370112422748" lon="10.783861805930508"><ele>155.4</ele><time>2026-03-29T14:42:38.999Z</time></trkpt><trkpt lat="45.80379729953059" lon="10.78391915876588"><ele>153.0</ele><time>2026-03-29T14:42:39.999Z</time></trkpt><trkpt lat="45.80389081216095" lon="10.78401526273586"><ele>153.0</ele><time>2026-03-29T14:42:40.999Z</time></trkpt><trkpt lat="45.80397628318432" lon="10.784139285352214"><ele>153.0</ele><time>2026-03-29T14:42:41.999Z</time></trkpt><trkpt lat="45.804056183044366" lon="10.78424984233736"><ele>153.0</ele><time>2026-03-29T14:42:42.999Z</time></trkpt><trkpt lat="45.80413227306843" lon="10.784339991993289"><ele>153.0</ele><time>2026-03-29T14:42:43.999Z</time></trkpt><trkpt lat="45.80421150528805" lon="10.784406764597772"><ele>153.0</ele><time>2026-03-29T14:42:44.999Z</time></trkpt><trkpt lat="45.80430462743841" lon="10.784448509039155"><ele>148.25</ele><time>2026-03-29T14:42:45.999Z</time></trkpt><trkpt lat="45.80441387856733" lon="10.784488497749026"><ele>143.5</ele><time>2026-03-29T14:42:46.999Z</time></trkpt><trkpt lat="45.804536117593784" lon="10.784541961932922"><ele>138.75</ele><time>2026-03-29T14:42:47.999Z</time></trkpt><trkpt lat="45.80466812346027" lon="10.784605302561241"><ele>134.0</ele><time>2026-03-29T14:42:48.999Z</time></trkpt><trkpt lat="45.8047985905017" lon="10.784693799761474"><ele>134.0</ele><time>2026-03-29T14:42:49.999Z</time></trkpt><trkpt lat="45.80492112815273" lon="10.784800034768494"><ele>134.0</ele><time>2026-03-29T14:42:50.999Z</time></trkpt><trkpt lat="45.80503811457034" lon="10.78490136176496"><ele>134.0</ele><time>2026-03-29T14:42:51.999Z</time></trkpt><trkpt lat="45.805167624006216" lon="10.784960023799812"><ele>134.0</ele><time>2026-03-29T14:42:52.999Z</time></trkpt><trkpt lat="45.80531447387505" lon="10.784994000436058"><ele>132.75</ele><time>2026-03-29T14:42:53.999Z</time></trkpt><trkpt lat="45.80545829892661" lon="10.785026945253009"><ele>131.5</ele><time>2026-03-29T14:42:55Z</time></trkpt><trkpt lat="45.80558671746059" lon="10.785091616026744"><ele>130.25</ele><time>2026-03-29T14:42:56Z</time></trkpt><trkpt lat="45.80572245327664" lon="10.785176623404322"><ele>129.0</ele><time>2026-03-29T14:42:57Z</time></trkpt><trkpt lat="45.80584877012572" lon="10.7852824697712"><ele>125.75</ele><time>2026-03-29T14:42:58Z</time></trkpt><trkpt lat="45.805965574168376" lon="10.78538549649331"><ele>122.5</ele><time>2026-03-29T14:42:59Z</time></trkpt><trkpt lat="45.806082102000744" lon="10.785485319007964"><ele>119.25</ele><time>2026-03-29T14:43:00Z</time></trkpt><trkpt lat="45.80619116554494" lon="10.785579659660614"><ele>116.0</ele><time>2026-03-29T14:43:01Z</time></trkpt><trkpt lat="45.80630095424908" lon="10.785667811613056"><ele>115.75</ele><time>2026-03-29T14:43:02Z</time></trkpt><trkpt lat="45.80640426683924" lon="10.785762709709564"><ele>115.5</ele><time>2026-03-29T14:43:03Z</time></trkpt><trkpt lat="45.80650764251021" lon="10.78587425864869"><ele>115.25</ele><time>2026-03-29T14:43:04Z</time></trkpt><trkpt lat="45.80660065072752" lon="10.785995145088918"><ele>115.0</ele><time>2026-03-29T14:43:05Z</time></trkpt><trkpt lat="45.806692885417014" lon="10.786115842346788"><ele>112.8</ele><time>2026-03-29T14:43:06Z</time></trkpt><trkpt lat="45.80677603390809" lon="10.786237280267416"><ele>110.6</ele><time>2026-03-29T14:43:07Z</time></trkpt><trkpt lat="45.80685599481456" lon="10.786349087285558"><ele>108.4</ele><time>2026-03-29T14:43:08Z</time></trkpt><trkpt lat="45.80692414841443" lon="10.786445420161035"><ele>106.2</ele><time>2026-03-29T14:43:09Z</time></trkpt><trkpt lat="45.806988940285635" lon="10.786549612477893"><ele>104.0</ele><time>2026-03-29T14:43:10Z</time></trkpt><trkpt lat="45.807048517246166" lon="10.786647231493795"><ele>104.0</ele><time>2026-03-29T14:43:11Z</time></trkpt><trkpt lat="45.80712151627732" lon="10.78675449903297"><ele>104.0</ele><time>2026-03-29T14:43:12Z</time></trkpt><trkpt lat="45.80720225133901" lon="10.786866175337742"><ele>104.0</ele><time>2026-03-29T14:43:13Z</time></trkpt><trkpt lat="45.80728736395011" lon="10.786968241762844"><ele>104.0</ele><time>2026-03-29T14:43:14Z</time></trkpt><trkpt lat="45.80737596794999" lon="10.787061695992449"><ele>104.0</ele><time>2026-03-29T14:43:15Z</time></trkpt><trkpt lat="45.80746399273151" lon="10.787155202142193"><ele>102.6</ele><time>2026-03-29T14:43:16Z</time></trkpt><trkpt lat="45.807548940187424" lon="10.787234816398625"><ele>101.2</ele><time>2026-03-29T14:43:17Z</time></trkpt><trkpt lat="45.807624400504444" lon="10.787330037117167"><ele>99.8</ele><time>2026-03-29T14:43:18Z</time></trkpt><trkpt lat="45.80769625505096" lon="10.7874176005343"><ele>98.39999999999999</ele><time>2026-03-29T14:43:19Z</time></trkpt><trkpt lat="45.80775989261721" lon="10.787496093411777"><ele>97.0</ele><time>2026-03-29T14:43:20Z</time></trkpt><trkpt lat="45.807788407915304" lon="10.787637006430483"><ele>96.33333333333334</ele><time>2026-03-29T14:43:22Z</time></trkpt><trkpt lat="45.807748944894456" lon="10.78770805871883"><ele>95.66666666666667</ele><time>2026-03-29T14:43:24Z</time></trkpt><trkpt lat="45.80771974432521" lon="10.787788626600545"><ele>95.0</ele><time>2026-03-29T14:43:34Z</time></trkpt><trkpt lat="45.807674011981156" lon="10.78786455083459"><ele>94.33333333333334</ele><time>2026-03-29T14:43:38Z</time></trkpt><trkpt lat="45.80760354696744" lon="10.787901528825971"><ele>93.66666666666667</ele><time>2026-03-29T14:44:01Z</time></trkpt><trkpt lat="45.807486218021396" lon="10.787850715898594"><ele>93.0</ele><time>2026-03-29T14:44:03Z</time></trkpt><trkpt lat="45.80740212924749" lon="10.787786778914235"><ele>93.4</ele><time>2026-03-29T14:44:03.999Z</time></trkpt><trkpt lat="45.80730558135005" lon="10.787725379207886"><ele>93.80000000000001</ele><time>2026-03-29T14:44:04.999Z</time></trkpt><trkpt lat="45.80720018807451" lon="10.787667641004226"><ele>94.2</ele><time>2026-03-29T14:44:05.999Z</time></trkpt><trkpt lat="45.80710332088128" lon="10.787617153586314"><ele>94.6</ele><time>2026-03-29T14:44:06.999Z</time></trkpt><trkpt lat="45.80701435065617" lon="10.787575266124007"><ele>95.0</ele><time>2026-03-29T14:44:07.999Z</time></trkpt><trkpt lat="45.80691122834061" lon="10.787544170464248"><ele>93.75</ele><time>2026-03-29T14:44:08.999Z</time></trkpt><trkpt lat="45.80679775991428" lon="10.787497436200523"><ele>92.5</ele><time>2026-03-29T14:44:09.999Z</time></trkpt><trkpt lat="45.80668301896821" lon="10.787466668723884"><ele>91.25</ele><time>2026-03-29T14:44:10.999Z</time></trkpt><trkpt lat="45.80656902182226" lon="10.787434686545057"><ele>90.0</ele><time>2026-03-29T14:44:11.999Z</time></trkpt><trkpt lat="45.80645539632354" lon="10.787407284705383"><ele>90.0</ele><time>2026-03-29T14:44:12.999Z</time></trkpt><trkpt lat="45.80633732404246" lon="10.787384383175956"><ele>90.0</ele><time>2026-03-29T14:44:13.999Z</time></trkpt><trkpt lat="45.80621764147706" lon="10.787365645903554"><ele>90.0</ele><time>2026-03-29T14:44:14.999Z</time></trkpt><trkpt lat="45.80610249135798" lon="10.787345852163584"><ele>90.0</ele><time>2026-03-29T14:44:15.999Z</time></trkpt><trkpt lat="45.80598592901175" lon="10.787340829447487"><ele>89.0</ele><time>2026-03-29T14:44:16.999Z</time></trkpt><trkpt lat="45.80585079053918" lon="10.787341777146517"><ele>88.0</ele><time>2026-03-29T14:44:17.999Z</time></trkpt><trkpt lat="45.805669916651574" lon="10.787358908314054"><ele>87.0</ele><time>2026-03-29T14:44:18.999Z</time></trkpt><trkpt lat="45.8054539863353" lon="10.78736230522931"><ele>87.0</ele><time>2026-03-29T14:44:19.999Z</time></trkpt><trkpt lat="45.80527354407579" lon="10.787360488173713"><ele>87.0</ele><time>2026-03-29T14:44:20.999Z</time></trkpt><trkpt lat="45.805108641228834" lon="10.787371053899333"><ele>87.0</ele><time>2026-03-29T14:44:21.999Z</time></trkpt><trkpt lat="45.80495343659077" lon="10.787394425290955"><ele>86.75</ele><time>2026-03-29T14:44:22.999Z</time></trkpt><trkpt lat="45.804796528437976" lon="10.787400415025056"><ele>86.5</ele><time>2026-03-29T14:44:23.999Z</time></trkpt><trkpt lat="45.80466013778167" lon="10.787407353407424"><ele>86.25</ele><time>2026-03-29T14:44:24.999Z</time></trkpt><trkpt lat="45.804531108877256" lon="10.787416707127349"><ele>86.0</ele><time>2026-03-29T14:44:25.999Z</time></trkpt><trkpt lat="45.80439621979025" lon="10.787423840841623"><ele>85.75</ele><time>2026-03-29T14:44:26.999Z</time></trkpt><trkpt lat="45.804257249274926" lon="10.787394354481904"><ele>85.5</ele><time>2026-03-29T14:44:27.999Z</time></trkpt><trkpt lat="45.804119254529034" lon="10.78737186240824"><ele>85.25</ele><time>2026-03-29T14:44:28.999Z</time></trkpt><trkpt lat="45.80398173969538" lon="10.78734385485294"><ele>85.0</ele><time>2026-03-29T14:44:29.999Z</time></trkpt><trkpt lat="45.80384944595027" lon="10.787303078244303"><ele>85.0</ele><time>2026-03-29T14:44:30.999Z</time></trkpt><trkpt lat="45.8037186543679" lon="10.787256283379106"><ele>85.0</ele><time>2026-03-29T14:44:31.999Z</time></trkpt><trkpt lat="45.80357036063794" lon="10.787194847873781"><ele>85.0</ele><time>2026-03-29T14:44:32.999Z</time></trkpt><trkpt lat="45.803416701780584" lon="10.787131140736049"><ele>85.0</ele><time>2026-03-29T14:44:33.999Z</time></trkpt><trkpt lat="45.80325150867755" lon="10.787059275630684"><ele>83.0</ele><time>2026-03-29T14:44:34.999Z</time></trkpt><trkpt lat="45.80304506458468" lon="10.786970723065863"><ele>81.0</ele><time>2026-03-29T14:44:35.999Z</time></trkpt><trkpt lat="45.80280802712544" lon="10.786871346688622"><ele>82.33333333333333</ele><time>2026-03-29T14:44:36.999Z</time></trkpt><trkpt lat="45.802588812998685" lon="10.786779783343995"><ele>83.66666666666666</ele><time>2026-03-29T14:44:37.999Z</time></trkpt><trkpt lat="45.80239777534981" lon="10.786697954382792"><ele>85.0</ele><time>2026-03-29T14:44:38.999Z</time></trkpt><trkpt lat="45.80221011821269" lon="10.7866114313806"><ele>85.0</ele><time>2026-03-29T14:44:39.999Z</time></trkpt><trkpt lat="45.80203622941479" lon="10.786507890513963"><ele>85.0</ele><time>2026-03-29T14:44:40.999Z</time></trkpt><trkpt lat="45.80188205881872" lon="10.786401572682673"><ele>85.0</ele><time>2026-03-29T14:44:41.999Z</time></trkpt><trkpt lat="45.80172965312284" lon="10.786278417841114"><ele>85.0</ele><time>2026-03-29T14:44:42.999Z</time></trkpt><trkpt lat="45.80158084430786" lon="10.786132474289477"><ele>85.0</ele><time>2026-03-29T14:44:43.999Z</time></trkpt><trkpt lat="45.80144757264396" lon="10.785988022207968"><ele>85.0</ele><time>2026-03-29T14:44:44.999Z</time></trkpt><trkpt lat="45.801326724129154" lon="10.785853134727839"><ele>85.0</ele><time>2026-03-29T14:44:45.999Z</time></trkpt><trkpt lat="45.80121430550697" lon="10.785728859456373"><ele>85.0</ele><time>2026-03-29T14:44:46.999Z</time></trkpt><trkpt lat="45.80108918714857" lon="10.78566660687033"><ele>85.0</ele><time>2026-03-29T14:44:47.999Z</time></trkpt><trkpt lat="45.80100242714665" lon="10.785560679433129"><ele>85.0</ele><time>2026-03-29T14:44:48.999Z</time></trkpt><trkpt lat="45.80093018903606" lon="10.785459453441932"><ele>84.25</ele><time>2026-03-29T14:44:49.999Z</time></trkpt><trkpt lat="45.80086571583549" lon="10.785349275785789"><ele>83.5</ele><time>2026-03-29T14:44:50.999Z</time></trkpt><trkpt lat="45.8008307395646" lon="10.785188900341451"><ele>82.75</ele><time>2026-03-29T14:44:51.999Z</time></trkpt><trkpt lat="45.80072783520673" lon="10.785083358400742"><ele>82.0</ele><time>2026-03-29T14:44:52.999Z</time></trkpt><trkpt lat="45.80066547468229" lon="10.78492436169751"><ele>82.0</ele><time>2026-03-29T14:44:53.999Z</time></trkpt><trkpt lat="45.800612697010855" lon="10.784748465653536"><ele>82.0</ele><time>2026-03-29T14:44:54.999Z</time></trkpt><trkpt lat="45.80056418104547" lon="10.784561144230365"><ele>82.0</ele><time>2026-03-29T14:44:55.999Z</time></trkpt><trkpt lat="45.8005579351201" lon="10.784342384882851"><ele>82.0</ele><time>2026-03-29T14:44:56.999Z</time></trkpt><trkpt lat="45.800500744698205" lon="10.784146040782387"><ele>84.5</ele><time>2026-03-29T14:44:57.999Z</time></trkpt><trkpt lat="45.8004419200514" lon="10.783945397259908"><ele>87.0</ele><time>2026-03-29T14:44:58.999Z</time></trkpt><trkpt lat="45.800375733068506" lon="10.783743548478853"><ele>89.5</ele><time>2026-03-29T14:44:59.999Z</time></trkpt><trkpt lat="45.80028724076401" lon="10.783595170267459"><ele>92.0</ele><time>2026-03-29T14:45:01Z</time></trkpt><trkpt lat="45.8001937004877" lon="10.783463005936921"><ele>96.75</ele><time>2026-03-29T14:45:02Z</time></trkpt><trkpt lat="45.80012982170221" lon="10.7833717639228"><ele>101.5</ele><time>2026-03-29T14:45:03Z</time></trkpt><trkpt lat="45.7999804847505" lon="10.783327397920784"><ele>106.25</ele><time>2026-03-29T14:45:04Z</time></trkpt><trkpt lat="45.79982258121733" lon="10.783323501642458"><ele>111.0</ele><time>2026-03-29T14:45:05Z</time></trkpt><trkpt lat="45.79965197591269" lon="10.783324404998261"><ele>111.0</ele><time>2026-03-29T14:45:06Z</time></trkpt><trkpt lat="45.7994917669752" lon="10.783315369141553"><ele>111.0</ele><time>2026-03-29T14:45:07Z</time></trkpt><trkpt lat="45.79933616948248" lon="10.783302080315334"><ele>111.0</ele><time>2026-03-29T14:45:08Z</time></trkpt><trkpt lat="45.79916408884864" lon="10.783294704189117"><ele>95.0</ele><time>2026-03-29T14:45:09.019Z</time></trkpt><trkpt lat="45.7988380754384" lon="10.783163569308313"><ele>79.0</ele><time>2026-03-29T14:45:11Z</time></trkpt><trkpt lat="45.79855579646528" lon="10.782971916458532"><ele>78.66666666666666</ele><time>2026-03-29T14:45:12Z</time></trkpt><trkpt lat="45.79831129705805" lon="10.78290918809469"><ele>78.33333333333333</ele><time>2026-03-29T14:45:13Z</time></trkpt><trkpt lat="45.79814097361556" lon="10.782824794964563"><ele>78.0</ele><time>2026-03-29T14:45:14Z</time></trkpt><trkpt lat="45.797976154185484" lon="10.782793224217952"><ele>78.0</ele><time>2026-03-29T14:45:15Z</time></trkpt><trkpt lat="45.797799188111924" lon="10.782809251469958"><ele>78.0</ele><time>2026-03-29T14:45:16Z</time></trkpt><trkpt lat="45.7976129543184" lon="10.782871637287679"><ele>78.0</ele><time>2026-03-29T14:45:17Z</time></trkpt><trkpt lat="45.797441529171365" lon="10.78285670213701"><ele>78.0</ele><time>2026-03-29T14:45:18Z</time></trkpt><trkpt lat="45.79726965760158" lon="10.782832893778945"><ele>78.0</ele><time>2026-03-29T14:45:19Z</time></trkpt><trkpt lat="45.797081888421474" lon="10.782811900777224"><ele>78.0</ele><time>2026-03-29T14:45:20Z</time></trkpt><trkpt lat="45.79689798636257" lon="10.782825916569482"><ele>78.0</ele><time>2026-03-29T14:45:21Z</time></trkpt><trkpt lat="45.79671565117882" lon="10.782811085473218"><ele>78.0</ele><time>2026-03-29T14:45:22Z</time></trkpt><trkpt lat="45.79653320054552" lon="10.782796343696843"><ele>78.0</ele><time>2026-03-29T14:45:23Z</time></trkpt><trkpt lat="45.79644257522863" lon="10.782850920908189"><ele>78.0</ele><time>2026-03-29T14:45:24Z</time></trkpt><trkpt lat="45.79631725520838" lon="10.782865238519404"><ele>78.0</ele><time>2026-03-29T14:45:25Z</time></trkpt><trkpt lat="45.7961889933629" lon="10.782840912917383"><ele>78.0</ele><time>2026-03-29T14:45:26Z</time></trkpt><trkpt lat="45.79608955951674" lon="10.782780935501696"><ele>78.0</ele><time>2026-03-29T14:45:27Z</time></trkpt><trkpt lat="45.795982069283525" lon="10.782703090681272"><ele>78.0</ele><time>2026-03-29T14:45:28Z</time></trkpt><trkpt lat="45.79585970181203" lon="10.782618948167283"><ele>78.0</ele><time>2026-03-29T14:45:29Z</time></trkpt><trkpt lat="45.79574928752267" lon="10.782551357099026"><ele>78.0</ele><time>2026-03-29T14:45:30Z</time></trkpt><trkpt lat="45.79565407370236" lon="10.782500513171076"><ele>78.0</ele><time>2026-03-29T14:45:31Z</time></trkpt><trkpt lat="45.79555392088862" lon="10.782452189771519"><ele>78.0</ele><time>2026-03-29T14:45:32Z</time></trkpt><trkpt lat="45.795444344446956" lon="10.782405922908008"><ele>78.0</ele><time>2026-03-29T14:45:33Z</time></trkpt><trkpt lat="45.79532655768316" lon="10.78238685471494"><ele>78.0</ele><time>2026-03-29T14:45:34Z</time></trkpt><trkpt lat="45.79522016844542" lon="10.782324937873387"><ele>78.0</ele><time>2026-03-29T14:45:35Z</time></trkpt><trkpt lat="45.79511764485534" lon="10.782286888355321"><ele>78.0</ele><time>2026-03-29T14:45:36Z</time></trkpt><trkpt lat="45.795008507573534" lon="10.782241299559082"><ele>78.0</ele><time>2026-03-29T14:45:37Z</time></trkpt><trkpt lat="45.794898795236165" lon="10.782184875996258"><ele>78.0</ele><time>2026-03-29T14:45:38Z</time></trkpt><trkpt lat="45.794797606686714" lon="10.782112705525108"><ele>78.0</ele><time>2026-03-29T14:45:39Z</time></trkpt><trkpt lat="45.794693692766764" lon="10.78202488244845"><ele>103.5</ele><time>2026-03-29T14:45:40Z</time></trkpt><trkpt lat="45.79459244252828" lon="10.781915726906606"><ele>129.0</ele><time>2026-03-29T14:45:41Z</time></trkpt><trkpt lat="45.79448556199249" lon="10.781799513752851"><ele>154.5</ele><time>2026-03-29T14:45:42Z</time></trkpt><trkpt lat="45.79437096239159" lon="10.781680153511932"><ele>180.0</ele><time>2026-03-29T14:45:43Z</time></trkpt><trkpt lat="45.794249462356966" lon="10.781565614964725"><ele>180.0</ele><time>2026-03-29T14:45:44Z</time></trkpt><trkpt lat="45.794118027793814" lon="10.781448933268992"><ele>180.0</ele><time>2026-03-29T14:45:45Z</time></trkpt><trkpt lat="45.79398357887081" lon="10.781327633704178"><ele>180.0</ele><time>2026-03-29T14:45:46Z</time></trkpt><trkpt lat="45.79384707161589" lon="10.781199098092038"><ele>193.75</ele><time>2026-03-29T14:45:47Z</time></trkpt><trkpt lat="45.793724775307766" lon="10.781083171836569"><ele>207.5</ele><time>2026-03-29T14:45:48Z</time></trkpt><trkpt lat="45.7936120083111" lon="10.780975002440856"><ele>221.25</ele><time>2026-03-29T14:45:49Z</time></trkpt><trkpt lat="45.7934973582127" lon="10.780865027091494"><ele>235.0</ele><time>2026-03-29T14:45:50Z</time></trkpt><trkpt lat="45.79337816184077" lon="10.780755184305288"><ele>234.5</ele><time>2026-03-29T14:45:51Z</time></trkpt><trkpt lat="45.793246258796096" lon="10.780670687607966"><ele>234.0</ele><time>2026-03-29T14:45:52.019Z</time></trkpt><trkpt lat="45.79140492308447" lon="10.779609161793145"><ele>234.0</ele><time>2026-03-29T14:45:55.175Z</time></trkpt><trkpt lat="45.79271520544784" lon="10.780270699508376"><ele>239.0</ele><time>2026-03-29T14:45:56.019Z</time></trkpt><trkpt lat="45.79248277741622" lon="10.780201802722354"><ele>244.0</ele><time>2026-03-29T14:45:57.016Z</time></trkpt><trkpt lat="45.79234668105097" lon="10.780102467272634"><ele>249.0</ele><time>2026-03-29T14:45:58.015Z</time></trkpt><trkpt lat="45.79220484984385" lon="10.78000424267962"><ele>249.0</ele><time>2026-03-29T14:45:59.022Z</time></trkpt><trkpt lat="45.792064879799376" lon="10.779907307531472"><ele>249.0</ele><time>2026-03-29T14:46:00.015Z</time></trkpt><trkpt lat="45.79186087842058" lon="10.779772062547297"><ele>249.0</ele><time>2026-03-29T14:46:01.018Z</time></trkpt><trkpt lat="45.7841080046466" lon="10.77759944880977"><ele>210.5</ele><time>2026-03-29T14:47:04.999Z</time></trkpt><trkpt lat="45.783976406677255" lon="10.7776035659358"><ele>172.0</ele><time>2026-03-29T14:47:05.999Z</time></trkpt><trkpt lat="45.783848002514645" lon="10.777618289637081"><ele>133.5</ele><time>2026-03-29T14:47:06.999Z</time></trkpt><trkpt lat="45.78369713342786" lon="10.7776401009653"><ele>95.0</ele><time>2026-03-29T14:47:07.999Z</time></trkpt><trkpt lat="45.78354759543846" lon="10.777617974684793"><ele>93.5</ele><time>2026-03-29T14:47:08.999Z</time></trkpt><trkpt lat="45.783397455811034" lon="10.777593201757275"><ele>92.0</ele><time>2026-03-29T14:47:10Z</time></trkpt><trkpt lat="45.78326137955564" lon="10.777564479456895"><ele>90.5</ele><time>2026-03-29T14:47:11Z</time></trkpt><trkpt lat="45.783137295217195" lon="10.777529638897574"><ele>89.0</ele><time>2026-03-29T14:47:12Z</time></trkpt><trkpt lat="45.78300596587389" lon="10.777470337068541"><ele>89.0</ele><time>2026-03-29T14:47:13Z</time></trkpt><trkpt lat="45.78287397848266" lon="10.777416680370266"><ele>89.0</ele><time>2026-03-29T14:47:14Z</time></trkpt><trkpt lat="45.782702574905706" lon="10.777357259458661"><ele>89.0</ele><time>2026-03-29T14:47:15Z</time></trkpt><trkpt lat="45.78257862562098" lon="10.77729161273592"><ele>89.0</ele><time>2026-03-29T14:47:16Z</time></trkpt><trkpt lat="45.782453282473774" lon="10.777235892983372"><ele>88.0</ele><time>2026-03-29T14:47:17Z</time></trkpt><trkpt lat="45.782362551703784" lon="10.777224552813477"><ele>87.0</ele><time>2026-03-29T14:47:18Z</time></trkpt><trkpt lat="45.7822431858577" lon="10.777140833605944"><ele>86.0</ele><time>2026-03-29T14:47:19Z</time></trkpt><trkpt lat="45.78211546913378" lon="10.777092217212136"><ele>85.0</ele><time>2026-03-29T14:47:20Z</time></trkpt><trkpt lat="45.781988857291964" lon="10.777045711756793"><ele>85.0</ele><time>2026-03-29T14:47:21Z</time></trkpt><trkpt lat="45.78187997360567" lon="10.77699423466902"><ele>85.0</ele><time>2026-03-29T14:47:22Z</time></trkpt><trkpt lat="45.78177741352256" lon="10.77690397248261"><ele>85.0</ele><time>2026-03-29T14:47:23Z</time></trkpt><trkpt lat="45.781668376966" lon="10.776791341224158"><ele>85.0</ele><time>2026-03-29T14:47:24Z</time></trkpt><trkpt lat="45.78158719990766" lon="10.776675596555023"><ele>86.8</ele><time>2026-03-29T14:47:25Z</time></trkpt><trkpt lat="45.78150807800627" lon="10.77653749665328"><ele>88.6</ele><time>2026-03-29T14:47:26Z</time></trkpt><trkpt lat="45.78146624747875" lon="10.776424810874872"><ele>90.4</ele><time>2026-03-29T14:47:27Z</time></trkpt><trkpt lat="45.78142150582128" lon="10.776288890321721"><ele>92.2</ele><time>2026-03-29T14:47:28Z</time></trkpt><trkpt lat="45.7813842954608" lon="10.776124365689077"><ele>94.0</ele><time>2026-03-29T14:47:29Z</time></trkpt><trkpt lat="45.78135170429672" lon="10.775951549462988"><ele>100.25</ele><time>2026-03-29T14:47:30Z</time></trkpt><trkpt lat="45.78131493502091" lon="10.775773334243041"><ele>106.5</ele><time>2026-03-29T14:47:31Z</time></trkpt><trkpt lat="45.781277638034204" lon="10.77559439186495"><ele>112.75</ele><time>2026-03-29T14:47:32Z</time></trkpt><trkpt lat="45.78123964053107" lon="10.77542305506114"><ele>119.0</ele><time>2026-03-29T14:47:33Z</time></trkpt><trkpt lat="45.78119583349465" lon="10.775248345786588"><ele>116.0</ele><time>2026-03-29T14:47:34Z</time></trkpt><trkpt lat="45.781144147167204" lon="10.775071223361996"><ele>113.0</ele><time>2026-03-29T14:47:35Z</time></trkpt><trkpt lat="45.78109072690832" lon="10.774907661476863"><ele>110.0</ele><time>2026-03-29T14:47:36Z</time></trkpt><trkpt lat="45.78103236230903" lon="10.77474027765335"><ele>107.0</ele><time>2026-03-29T14:47:37Z</time></trkpt><trkpt lat="45.7809741582629" lon="10.774588945857968"><ele>107.0</ele><time>2026-03-29T14:47:38Z</time></trkpt><trkpt lat="45.78091396149037" lon="10.774447078493354"><ele>107.0</ele><time>2026-03-29T14:47:39Z</time></trkpt><trkpt lat="45.78084760661627" lon="10.774307741363605"><ele>107.0</ele><time>2026-03-29T14:47:40Z</time></trkpt><trkpt lat="45.78075871701272" lon="10.774173122016641"><ele>107.0</ele><time>2026-03-29T14:47:41Z</time></trkpt><trkpt lat="45.780642891144076" lon="10.77406672402272"><ele>108.0</ele><time>2026-03-29T14:47:42Z</time></trkpt><trkpt lat="45.780516849799646" lon="10.773987029835826"><ele>109.0</ele><time>2026-03-29T14:47:43Z</time></trkpt><trkpt lat="45.780420212801815" lon="10.773917853624969"><ele>110.0</ele><time>2026-03-29T14:47:44Z</time></trkpt><trkpt lat="45.780314334578115" lon="10.77383962859694"><ele>111.0</ele><time>2026-03-29T14:47:45Z</time></trkpt><trkpt lat="45.78019733548883" lon="10.773752549271276"><ele>110.75</ele><time>2026-03-29T14:47:46Z</time></trkpt><trkpt lat="45.780080099784655" lon="10.773662788511388"><ele>110.5</ele><time>2026-03-29T14:47:47Z</time></trkpt><trkpt lat="45.77996340687575" lon="10.773572203063306"><ele>110.25</ele><time>2026-03-29T14:47:48Z</time></trkpt><trkpt lat="45.77986572623914" lon="10.773503183646826"><ele>110.0</ele><time>2026-03-29T14:47:49Z</time></trkpt><trkpt lat="45.77977091840511" lon="10.773398871555678"><ele>110.0</ele><time>2026-03-29T14:47:50Z</time></trkpt><trkpt lat="45.77966429110625" lon="10.773283741151262"><ele>110.0</ele><time>2026-03-29T14:47:51Z</time></trkpt><trkpt lat="45.77958076858735" lon="10.77318294841939"><ele>110.0</ele><time>2026-03-29T14:47:52Z</time></trkpt><trkpt lat="45.779495515578496" lon="10.773067603047783"><ele>110.0</ele><time>2026-03-29T14:47:53Z</time></trkpt><trkpt lat="45.77941305746408" lon="10.77295579304944"><ele>107.25</ele><time>2026-03-29T14:47:54Z</time></trkpt><trkpt lat="45.77932982619376" lon="10.77283944827434"><ele>104.5</ele><time>2026-03-29T14:47:55Z</time></trkpt><trkpt lat="45.77924405076409" lon="10.772719547140973"><ele>101.75</ele><time>2026-03-29T14:47:56Z</time></trkpt><trkpt lat="45.779157364681154" lon="10.772598373058099"><ele>99.0</ele><time>2026-03-29T14:47:57Z</time></trkpt><trkpt lat="45.77906913976425" lon="10.772475047898709"><ele>99.0</ele><time>2026-03-29T14:47:58.018Z</time></trkpt><trkpt lat="45.77898211891" lon="10.772353405890748"><ele>99.0</ele><time>2026-03-29T14:47:59.017Z</time></trkpt><trkpt lat="45.778894276653965" lon="10.772231051849895"><ele>99.0</ele><time>2026-03-29T14:48:00.018Z</time></trkpt><trkpt lat="45.778828823535626" lon="10.772140259119618"><ele>99.0</ele><time>2026-03-29T14:48:01.018Z</time></trkpt><trkpt lat="45.778721661767115" lon="10.77199130068452"><ele>99.0</ele><time>2026-03-29T14:48:02.018Z</time></trkpt><trkpt lat="45.77863509306391" lon="10.771871359807305"><ele>99.0</ele><time>2026-03-29T14:48:03.026Z</time></trkpt><trkpt lat="45.778559311777066" lon="10.771766132749685"><ele>99.0</ele><time>2026-03-29T14:48:04Z</time></trkpt><trkpt lat="45.77846368785225" lon="10.77163218151533"><ele>99.0</ele><time>2026-03-29T14:48:05Z</time></trkpt><trkpt lat="45.77837325141661" lon="10.771505438917467"><ele>96.5</ele><time>2026-03-29T14:48:06Z</time></trkpt><trkpt lat="45.7782692434888" lon="10.771357328241837"><ele>94.0</ele><time>2026-03-29T14:48:07Z</time></trkpt><trkpt lat="45.778174483293085" lon="10.77122549720664"><ele>91.5</ele><time>2026-03-29T14:48:08Z</time></trkpt><trkpt lat="45.77810477221955" lon="10.77113472019106"><ele>89.0</ele><time>2026-03-29T14:48:09Z</time></trkpt><trkpt lat="45.778024501343715" lon="10.771020101255473"><ele>102.25</ele><time>2026-03-29T14:48:10Z</time></trkpt><trkpt lat="45.77793879961302" lon="10.770899950409417"><ele>115.5</ele><time>2026-03-29T14:48:11Z</time></trkpt><trkpt lat="45.77784597960852" lon="10.770773065552032"><ele>128.75</ele><time>2026-03-29T14:48:12Z</time></trkpt><trkpt lat="45.7777822333843" lon="10.770643556450297"><ele>142.0</ele><time>2026-03-29T14:48:13Z</time></trkpt><trkpt lat="45.77769546732253" lon="10.770528556140672"><ele>142.0</ele><time>2026-03-29T14:48:14Z</time></trkpt><trkpt lat="45.77760541848816" lon="10.770410614240477"><ele>142.0</ele><time>2026-03-29T14:48:15Z</time></trkpt><trkpt lat="45.777508892816265" lon="10.770289711215042"><ele>142.0</ele><time>2026-03-29T14:48:16Z</time></trkpt><trkpt lat="45.77740635387358" lon="10.770168868412336"><ele>142.0</ele><time>2026-03-29T14:48:17Z</time></trkpt><trkpt lat="45.777332727459495" lon="10.770048945994192"><ele>142.0</ele><time>2026-03-29T14:48:18Z</time></trkpt><trkpt lat="45.77724476228713" lon="10.769962101748712"><ele>142.0</ele><time>2026-03-29T14:48:19Z</time></trkpt><trkpt lat="45.777150126078794" lon="10.769866733817413"><ele>142.0</ele><time>2026-03-29T14:48:20Z</time></trkpt><trkpt lat="45.77705482840405" lon="10.769768895517373"><ele>142.0</ele><time>2026-03-29T14:48:21Z</time></trkpt><trkpt lat="45.776957943418026" lon="10.769671644405786"><ele>142.0</ele><time>2026-03-29T14:48:22Z</time></trkpt><trkpt lat="45.77686008634801" lon="10.769572609993334"><ele>142.0</ele><time>2026-03-29T14:48:23.016Z</time></trkpt><trkpt lat="45.77676466340682" lon="10.769473167552169"><ele>142.0</ele><time>2026-03-29T14:48:24.015Z</time></trkpt><trkpt lat="45.7766687512253" lon="10.769374714203032"><ele>142.0</ele><time>2026-03-29T14:48:25.014Z</time></trkpt><trkpt lat="45.77658301786202" lon="10.769288319839047"><ele>142.0</ele><time>2026-03-29T14:48:26.018Z</time></trkpt><trkpt lat="45.77646387190568" lon="10.769167013714776"><ele>142.0</ele><time>2026-03-29T14:48:27.015Z</time></trkpt><trkpt lat="45.77634368766122" lon="10.76904939935485"><ele>142.0</ele><time>2026-03-29T14:48:28.019Z</time></trkpt><trkpt lat="45.776234569222304" lon="10.768936065450314"><ele>142.0</ele><time>2026-03-29T14:48:28.999Z</time></trkpt><trkpt lat="45.776129560290514" lon="10.768828066782168"><ele>142.0</ele><time>2026-03-29T14:48:29.999Z</time></trkpt><trkpt lat="45.77603342332247" lon="10.768733145114753"><ele>142.0</ele><time>2026-03-29T14:48:30.999Z</time></trkpt><trkpt lat="45.77592848726764" lon="10.768624943804403"><ele>142.0</ele><time>2026-03-29T14:48:31.999Z</time></trkpt><trkpt lat="45.775821172309605" lon="10.76851441488112"><ele>142.0</ele><time>2026-03-29T14:48:33.017Z</time></trkpt><trkpt lat="45.769582849513284" lon="10.763256022135941"><ele>192.0</ele><time>2026-03-29T14:49:31.999Z</time></trkpt><trkpt lat="45.76950044134826" lon="10.763175404632912"><ele>242.0</ele><time>2026-03-29T14:49:32.999Z</time></trkpt><trkpt lat="45.769420970965825" lon="10.763047262349485"><ele>292.0</ele><time>2026-03-29T14:49:33.999Z</time></trkpt><trkpt lat="45.76934498007925" lon="10.762981053755267"><ele>342.0</ele><time>2026-03-29T14:49:34.999Z</time></trkpt><trkpt lat="45.76925938649283" lon="10.7628972892863"><ele>392.0</ele><time>2026-03-29T14:49:35.999Z</time></trkpt><trkpt lat="45.7691701366816" lon="10.762801770668023"><ele>392.0</ele><time>2026-03-29T14:49:36.999Z</time></trkpt><trkpt lat="45.76907918849877" lon="10.762691769688141"><ele>392.0</ele><time>2026-03-29T14:49:38Z</time></trkpt><trkpt lat="45.768991867637475" lon="10.762584587755091"><ele>392.0</ele><time>2026-03-29T14:49:39Z</time></trkpt><trkpt lat="45.768898281083175" lon="10.76248708178232"><ele>392.0</ele><time>2026-03-29T14:49:40Z</time></trkpt><trkpt lat="45.768797107035205" lon="10.762381053439903"><ele>392.0</ele><time>2026-03-29T14:49:41Z</time></trkpt><trkpt lat="45.7686950199744" lon="10.762274838931198"><ele>392.0</ele><time>2026-03-29T14:49:42Z</time></trkpt><trkpt lat="45.76862312653125" lon="10.762201201143297"><ele>392.0</ele><time>2026-03-29T14:49:43Z</time></trkpt><trkpt lat="45.76850569885277" lon="10.7620949246669"><ele>392.0</ele><time>2026-03-29T14:49:45Z</time></trkpt><trkpt lat="45.768410325511105" lon="10.762008903427603"><ele>391.99999999999994</ele><time>2026-03-29T14:49:47Z</time></trkpt><trkpt lat="45.76834862165261" lon="10.761951967171665"><ele>392.0</ele><time>2026-03-29T14:49:48Z</time></trkpt><trkpt lat="45.768281174690294" lon="10.76189127799088"><ele>392.0</ele><time>2026-03-29T14:49:49Z</time></trkpt><trkpt lat="45.76821870192473" lon="10.761801937270894"><ele>392.0</ele><time>2026-03-29T14:49:50Z</time></trkpt><trkpt lat="45.768139512805966" lon="10.761736389670297"><ele>391.99999999999994</ele><time>2026-03-29T14:49:51Z</time></trkpt><trkpt lat="45.768063087755074" lon="10.761661491260417"><ele>392.0</ele><time>2026-03-29T14:49:52Z</time></trkpt><trkpt lat="45.76797973966231" lon="10.761578516064123"><ele>384.40000000000003</ele><time>2026-03-29T14:49:53Z</time></trkpt><trkpt lat="45.76789989325378" lon="10.76146618314708"><ele>376.8</ele><time>2026-03-29T14:49:54Z</time></trkpt><trkpt lat="45.76781419635279" lon="10.761353498000245"><ele>369.2</ele><time>2026-03-29T14:49:55Z</time></trkpt><trkpt lat="45.767755613724425" lon="10.76121423310063"><ele>361.6</ele><time>2026-03-29T14:49:56Z</time></trkpt><trkpt lat="45.76768179886268" lon="10.761121145390842"><ele>354.0</ele><time>2026-03-29T14:49:57Z</time></trkpt><trkpt lat="45.76759781994963" lon="10.761011615967933"><ele>377.0</ele><time>2026-03-29T14:49:58Z</time></trkpt><trkpt lat="45.76750247180396" lon="10.760918734988442"><ele>400.0</ele><time>2026-03-29T14:49:59Z</time></trkpt><trkpt lat="45.76740330592498" lon="10.760815159801998"><ele>423.0</ele><time>2026-03-29T14:50:00Z</time></trkpt><trkpt lat="45.76730632003249" lon="10.76073228778516"><ele>446.0</ele><time>2026-03-29T14:50:01Z</time></trkpt><trkpt lat="45.767211862823395" lon="10.760650027657444"><ele>446.0</ele><time>2026-03-29T14:50:02Z</time></trkpt><trkpt lat="45.76711420139012" lon="10.760559409864284"><ele>446.0</ele><time>2026-03-29T14:50:03Z</time></trkpt><trkpt lat="45.767012092435884" lon="10.76045892016073"><ele>446.0</ele><time>2026-03-29T14:50:04Z</time></trkpt><trkpt lat="45.76690871017904" lon="10.760354909934629"><ele>446.0</ele><time>2026-03-29T14:50:05Z</time></trkpt><trkpt lat="45.766799115860685" lon="10.760250556941076"><ele>446.75</ele><time>2026-03-29T14:50:06Z</time></trkpt><trkpt lat="45.76668238468106" lon="10.760165017577958"><ele>447.5</ele><time>2026-03-29T14:50:07Z</time></trkpt><trkpt lat="45.76657512738182" lon="10.760105254967831"><ele>448.25</ele><time>2026-03-29T14:50:08Z</time></trkpt><trkpt lat="45.76648746596592" lon="10.760027829175643"><ele>449.0</ele><time>2026-03-29T14:50:09Z</time></trkpt><trkpt lat="45.766402669675834" lon="10.759933086000864"><ele>449.0</ele><time>2026-03-29T14:50:10Z</time></trkpt><trkpt lat="45.766327210184215" lon="10.75981610566186"><ele>449.0</ele><time>2026-03-29T14:50:11Z</time></trkpt><trkpt lat="45.766246153309794" lon="10.759692258881701"><ele>449.0</ele><time>2026-03-29T14:50:12Z</time></trkpt><trkpt lat="45.76616319415787" lon="10.759591874933633"><ele>449.0</ele><time>2026-03-29T14:50:13Z</time></trkpt><trkpt lat="45.76606712810579" lon="10.75952961107029"><ele>449.0</ele><time>2026-03-29T14:50:14Z</time></trkpt><trkpt lat="45.765976692822235" lon="10.759439935906325"><ele>446.0</ele><time>2026-03-29T14:50:15Z</time></trkpt><trkpt lat="45.76587445014219" lon="10.759371216982593"><ele>443.0</ele><time>2026-03-29T14:50:16Z</time></trkpt><trkpt lat="45.76577903842026" lon="10.759285066516158"><ele>440.0</ele><time>2026-03-29T14:50:17Z</time></trkpt><trkpt lat="45.765691679958046" lon="10.759178195616606"><ele>437.0</ele><time>2026-03-29T14:50:18Z</time></trkpt><trkpt lat="45.765620688194275" lon="10.759080120391857"><ele>434.0</ele><time>2026-03-29T14:50:19Z</time></trkpt><trkpt lat="45.765551769477625" lon="10.75899090811601"><ele>434.0</ele><time>2026-03-29T14:50:20Z</time></trkpt><trkpt lat="45.76548250125414" lon="10.758908764573517"><ele>434.0</ele><time>2026-03-29T14:50:21Z</time></trkpt><trkpt lat="45.765398632605624" lon="10.758845420127948"><ele>434.0</ele><time>2026-03-29T14:50:22Z</time></trkpt><trkpt lat="45.76532729317517" lon="10.7587991997312"><ele>434.0</ele><time>2026-03-29T14:50:23Z</time></trkpt><trkpt lat="45.76520106135094" lon="10.75875351236961"><ele>434.0</ele><time>2026-03-29T14:50:24Z</time></trkpt><trkpt lat="45.76507789179301" lon="10.758715037396229"><ele>432.6</ele><time>2026-03-29T14:50:25Z</time></trkpt><trkpt lat="45.7649767432833" lon="10.758675686958865"><ele>431.2</ele><time>2026-03-29T14:50:26Z</time></trkpt><trkpt lat="45.76489405124592" lon="10.758622801837591"><ele>429.80000000000007</ele><time>2026-03-29T14:50:27Z</time></trkpt><trkpt lat="45.76480471436707" lon="10.758557526702367"><ele>428.40000000000003</ele><time>2026-03-29T14:50:28Z</time></trkpt><trkpt lat="45.76471071068531" lon="10.758475521510677"><ele>427.0</ele><time>2026-03-29T14:50:29Z</time></trkpt><trkpt lat="45.76461962382131" lon="10.758380700508086"><ele>427.0</ele><time>2026-03-29T14:50:30Z</time></trkpt><trkpt lat="45.76452798381952" lon="10.758283056246501"><ele>427.00000000000006</ele><time>2026-03-29T14:50:31Z</time></trkpt><trkpt lat="45.7644456743023" lon="10.758195353815262"><ele>427.00000000000006</ele><time>2026-03-29T14:50:32Z</time></trkpt><trkpt lat="45.764367343127304" lon="10.758107336219206"><ele>427.0</ele><time>2026-03-29T14:50:33Z</time></trkpt><trkpt lat="45.76429270656532" lon="10.758003718697449"><ele>427.0</ele><time>2026-03-29T14:50:34Z</time></trkpt><trkpt lat="45.764225705026846" lon="10.757895546594945"><ele>420.75</ele><time>2026-03-29T14:50:35Z</time></trkpt><trkpt lat="45.76416570614034" lon="10.757773085072115"><ele>414.5</ele><time>2026-03-29T14:50:36Z</time></trkpt><trkpt lat="45.764102846152554" lon="10.757632998580869"><ele>408.25</ele><time>2026-03-29T14:50:37Z</time></trkpt><trkpt lat="45.764037464588185" lon="10.757487110063888"><ele>402.0</ele><time>2026-03-29T14:50:38Z</time></trkpt><trkpt lat="45.763966696814705" lon="10.757337005051916"><ele>402.0</ele><time>2026-03-29T14:50:39Z</time></trkpt><trkpt lat="45.76388211064751" lon="10.757188272337602"><ele>402.0</ele><time>2026-03-29T14:50:40Z</time></trkpt><trkpt lat="45.76379682991821" lon="10.757060577712084"><ele>402.0</ele><time>2026-03-29T14:50:41Z</time></trkpt><trkpt lat="45.76371748732328" lon="10.756946153822648"><ele>402.0</ele><time>2026-03-29T14:50:42Z</time></trkpt><trkpt lat="45.76363638562962" lon="10.756831125550722"><ele>407.0</ele><time>2026-03-29T14:50:43Z</time></trkpt><trkpt lat="45.763553657034095" lon="10.756713915550002"><ele>412.0</ele><time>2026-03-29T14:50:44Z</time></trkpt><trkpt lat="45.76346817010219" lon="10.756592797705013"><ele>417.0</ele><time>2026-03-29T14:50:45Z</time></trkpt><trkpt lat="45.763380300842265" lon="10.756465620082636"><ele>422.0</ele><time>2026-03-29T14:50:46Z</time></trkpt><trkpt lat="45.763296141923526" lon="10.756339429292192"><ele>415.0</ele><time>2026-03-29T14:50:47Z</time></trkpt><trkpt lat="45.76321056813041" lon="10.756210066191894"><ele>408.0</ele><time>2026-03-29T14:50:48Z</time></trkpt><trkpt lat="45.76313740634885" lon="10.756088683971086"><ele>401.0</ele><time>2026-03-29T14:50:49Z</time></trkpt><trkpt lat="45.76306386168361" lon="10.75595415752111"><ele>394.0</ele><time>2026-03-29T14:50:50Z</time></trkpt><trkpt lat="45.762994937557536" lon="10.755813678058534"><ele>394.0</ele><time>2026-03-29T14:50:51Z</time></trkpt><trkpt lat="45.76292947728982" lon="10.75566047176839"><ele>394.0</ele><time>2026-03-29T14:50:51.999Z</time></trkpt><trkpt lat="45.76286223157647" lon="10.755491294013659"><ele>394.0</ele><time>2026-03-29T14:50:52.999Z</time></trkpt><trkpt lat="45.76279440170244" lon="10.755311871169926"><ele>394.0</ele><time>2026-03-29T14:50:53.999Z</time></trkpt><trkpt lat="45.76272677768661" lon="10.75511799159153"><ele>394.0</ele><time>2026-03-29T14:50:54.999Z</time></trkpt><trkpt lat="45.762663137459526" lon="10.754926765958489"><ele>394.0</ele><time>2026-03-29T14:50:55.999Z</time></trkpt><trkpt lat="45.76256735998763" lon="10.75472245374072"><ele>394.0</ele><time>2026-03-29T14:50:56.999Z</time></trkpt><trkpt lat="45.76246999238112" lon="10.754542732765612"><ele>394.0</ele><time>2026-03-29T14:50:57.999Z</time></trkpt><trkpt lat="45.76237585674451" lon="10.754382480570248"><ele>394.0</ele><time>2026-03-29T14:50:58.999Z</time></trkpt><trkpt lat="45.76226432983671" lon="10.754225963282787"><ele>394.0</ele><time>2026-03-29T14:50:59.999Z</time></trkpt><trkpt lat="45.76215466139035" lon="10.75408817038796"><ele>394.0</ele><time>2026-03-29T14:51:00.999Z</time></trkpt><trkpt lat="45.76205488164347" lon="10.753955052159107"><ele>369.5</ele><time>2026-03-29T14:51:01.999Z</time></trkpt><trkpt lat="45.76196461243852" lon="10.753826515848425"><ele>345.0</ele><time>2026-03-29T14:51:02.999Z</time></trkpt><trkpt lat="45.76186938228927" lon="10.753705919128233"><ele>320.5</ele><time>2026-03-29T14:51:03.999Z</time></trkpt><trkpt lat="45.76177521673294" lon="10.75358220158179"><ele>296.0</ele><time>2026-03-29T14:51:04.999Z</time></trkpt><trkpt lat="45.7616864895304" lon="10.75346070724655"><ele>296.0</ele><time>2026-03-29T14:51:05.999Z</time></trkpt><trkpt lat="45.761594815933066" lon="10.753336688874684"><ele>296.0</ele><time>2026-03-29T14:51:06.999Z</time></trkpt><trkpt lat="45.761499823724414" lon="10.75320616004164"><ele>296.0</ele><time>2026-03-29T14:51:07.999Z</time></trkpt><trkpt lat="45.76140621799944" lon="10.753076440942872"><ele>296.0</ele><time>2026-03-29T14:51:08.999Z</time></trkpt><trkpt lat="45.76131127596816" lon="10.752944951736389"><ele>296.0</ele><time>2026-03-29T14:51:10.019Z</time></trkpt><trkpt lat="45.7612174562425" lon="10.752817264800266"><ele>296.0</ele><time>2026-03-29T14:51:11.018Z</time></trkpt><trkpt lat="45.761123906915195" lon="10.752689276441899"><ele>296.0</ele><time>2026-03-29T14:51:12.016Z</time></trkpt><trkpt lat="45.76103006388578" lon="10.752560833225687"><ele>296.0</ele><time>2026-03-29T14:51:13.018Z</time></trkpt><trkpt lat="45.760936672209695" lon="10.752433003354797"><ele>306.0</ele><time>2026-03-29T14:51:14.015Z</time></trkpt><trkpt lat="45.75949351753851" lon="10.750474445029122"><ele>299.0</ele><time>2026-03-29T14:51:17.171Z</time></trkpt><trkpt lat="45.7599472834967" lon="10.751089172300412"><ele>299.0</ele><time>2026-03-29T14:51:27.285Z</time></trkpt><trkpt lat="45.737319847762336" lon="10.736146172921917"><ele>194.0</ele><time>2026-03-29T14:54:20.024Z</time></trkpt><trkpt lat="45.73726504997102" lon="10.735617670877469"><ele>89.0</ele><time>2026-03-29T14:54:20.998Z</time></trkpt><trkpt lat="45.737151201611596" lon="10.735586787342518"><ele>89.0</ele><time>2026-03-29T14:54:21.998Z</time></trkpt><trkpt lat="45.73703252435214" lon="10.735542472084635"><ele>89.0</ele><time>2026-03-29T14:54:22.998Z</time></trkpt><trkpt lat="45.73691273223903" lon="10.735440493301848"><ele>89.0</ele><time>2026-03-29T14:54:23.998Z</time></trkpt><trkpt lat="45.73676586527266" lon="10.735348110064292"><ele>89.0</ele><time>2026-03-29T14:54:24.998Z</time></trkpt><trkpt lat="45.73660033126382" lon="10.735232810384918"><ele>94.33333333333334</ele><time>2026-03-29T14:54:25.998Z</time></trkpt><trkpt lat="45.73645279895033" lon="10.735126474785229"><ele>99.66666666666667</ele><time>2026-03-29T14:54:27Z</time></trkpt><trkpt lat="45.73631893957732" lon="10.735000094834124"><ele>105.0</ele><time>2026-03-29T14:54:28Z</time></trkpt><trkpt lat="45.73620383702219" lon="10.734896939739013"><ele>105.0</ele><time>2026-03-29T14:54:29Z</time></trkpt><trkpt lat="45.73610330520757" lon="10.734780401020853"><ele>105.0</ele><time>2026-03-29T14:54:30Z</time></trkpt><trkpt lat="45.73601341010531" lon="10.734648436494545"><ele>105.0</ele><time>2026-03-29T14:54:31Z</time></trkpt><trkpt lat="45.735931618789195" lon="10.734506370791435"><ele>105.0</ele><time>2026-03-29T14:54:32Z</time></trkpt><trkpt lat="45.735865732370975" lon="10.734370871034354"><ele>101.25</ele><time>2026-03-29T14:54:33Z</time></trkpt><trkpt lat="45.73580853975677" lon="10.7342214870382"><ele>97.5</ele><time>2026-03-29T14:54:34Z</time></trkpt><trkpt lat="45.73575799658661" lon="10.734066728701501"><ele>93.75</ele><time>2026-03-29T14:54:35Z</time></trkpt><trkpt lat="45.73572008122639" lon="10.733905404485418"><ele>90.0</ele><time>2026-03-29T14:54:36Z</time></trkpt><trkpt lat="45.735692041054946" lon="10.733732130319336"><ele>92.25</ele><time>2026-03-29T14:54:37Z</time></trkpt><trkpt lat="45.73567354760253" lon="10.733550373941387"><ele>94.5</ele><time>2026-03-29T14:54:38Z</time></trkpt><trkpt lat="45.73566209395808" lon="10.733375069783946"><ele>96.75</ele><time>2026-03-29T14:54:39Z</time></trkpt><trkpt lat="45.73565189446812" lon="10.733208478086464"><ele>99.0</ele><time>2026-03-29T14:54:40Z</time></trkpt><trkpt lat="45.73564002157054" lon="10.733043678752958"><ele>99.0</ele><time>2026-03-29T14:54:41Z</time></trkpt><trkpt lat="45.735609679783046" lon="10.732892227035325"><ele>99.0</ele><time>2026-03-29T14:54:42Z</time></trkpt><trkpt lat="45.735576937723316" lon="10.732738471778946"><ele>99.0</ele><time>2026-03-29T14:54:43Z</time></trkpt><trkpt lat="45.735525291054486" lon="10.732588298016717"><ele>99.0</ele><time>2026-03-29T14:54:44Z</time></trkpt><trkpt lat="45.735448872182815" lon="10.732453350262936"><ele>103.25</ele><time>2026-03-29T14:54:45Z</time></trkpt><trkpt lat="45.735350218027065" lon="10.732326494690641"><ele>107.5</ele><time>2026-03-29T14:54:46Z</time></trkpt><trkpt lat="45.73524039653601" lon="10.732191305201669"><ele>111.75</ele><time>2026-03-29T14:54:47Z</time></trkpt><trkpt lat="45.735129699140415" lon="10.732053874069015"><ele>116.0</ele><time>2026-03-29T14:54:48Z</time></trkpt><trkpt lat="45.73502395158684" lon="10.731918025197224"><ele>111.5</ele><time>2026-03-29T14:54:49Z</time></trkpt><trkpt lat="45.734947685530535" lon="10.731775147122415"><ele>107.0</ele><time>2026-03-29T14:54:50.021Z</time></trkpt><trkpt lat="45.73483428238919" lon="10.731611384962532"><ele>102.5</ele><time>2026-03-29T14:54:51.014Z</time></trkpt><trkpt lat="45.7347329027605" lon="10.731467655543481"><ele>98.0</ele><time>2026-03-29T14:54:52.019Z</time></trkpt><trkpt lat="45.734632095501794" lon="10.731325270588156"><ele>98.0</ele><time>2026-03-29T14:54:53.02Z</time></trkpt><trkpt lat="45.734534233375534" lon="10.731186220621517"><ele>98.0</ele><time>2026-03-29T14:54:54Z</time></trkpt><trkpt lat="45.73444561194248" lon="10.73090611424308"><ele>98.0</ele><time>2026-03-29T14:54:55Z</time></trkpt><trkpt lat="45.73434651667298" lon="10.730854010440318"><ele>94.75</ele><time>2026-03-29T14:54:56Z</time></trkpt><trkpt lat="45.734243034494845" lon="10.730723029744372"><ele>91.5</ele><time>2026-03-29T14:54:57Z</time></trkpt><trkpt lat="45.73414370009324" lon="10.73059438613074"><ele>88.25</ele><time>2026-03-29T14:54:58Z</time></trkpt><trkpt lat="45.73403966439736" lon="10.730461913166693"><ele>85.0</ele><time>2026-03-29T14:54:59Z</time></trkpt><trkpt lat="45.73394398856858" lon="10.730321042855243"><ele>91.75</ele><time>2026-03-29T14:55:00Z</time></trkpt><trkpt lat="45.73383986414341" lon="10.730183117752992"><ele>98.5</ele><time>2026-03-29T14:55:01Z</time></trkpt><trkpt lat="45.73374630826436" lon="10.730049825520465"><ele>105.25</ele><time>2026-03-29T14:55:02Z</time></trkpt><trkpt lat="45.73366536134529" lon="10.729902799190324"><ele>112.0</ele><time>2026-03-29T14:55:03Z</time></trkpt><trkpt lat="45.73359284742805" lon="10.729743304890427"><ele>106.75</ele><time>2026-03-29T14:55:04Z</time></trkpt><trkpt lat="45.73352637583082" lon="10.72956534707849"><ele>101.5</ele><time>2026-03-29T14:55:05Z</time></trkpt><trkpt lat="45.73346645981514" lon="10.729377478529443"><ele>96.25</ele><time>2026-03-29T14:55:06Z</time></trkpt><trkpt lat="45.73341024279314" lon="10.729180695263683"><ele>91.0</ele><time>2026-03-29T14:55:07Z</time></trkpt><trkpt lat="45.73333597597915" lon="10.728981870408552"><ele>91.0</ele><time>2026-03-29T14:55:08Z</time></trkpt><trkpt lat="45.73324780644056" lon="10.728786117627628"><ele>91.0</ele><time>2026-03-29T14:55:09Z</time></trkpt><trkpt lat="45.73315998104355" lon="10.728577153939936"><ele>91.0</ele><time>2026-03-29T14:55:10Z</time></trkpt><trkpt lat="45.733044173583544" lon="10.72839415544582"><ele>88.0</ele><time>2026-03-29T14:55:11Z</time></trkpt><trkpt lat="45.73293802672298" lon="10.728235895913206"><ele>85.0</ele><time>2026-03-29T14:55:12Z</time></trkpt><trkpt lat="45.732844810285506" lon="10.7281062941827"><ele>82.0</ele><time>2026-03-29T14:55:13Z</time></trkpt><trkpt lat="45.73275227498653" lon="10.72798389202795"><ele>79.0</ele><time>2026-03-29T14:55:14Z</time></trkpt><trkpt lat="45.732663310106894" lon="10.727857905852394"><ele>83.5</ele><time>2026-03-29T14:55:15Z</time></trkpt><trkpt lat="45.73256407497499" lon="10.727724155828591"><ele>88.0</ele><time>2026-03-29T14:55:16Z</time></trkpt><trkpt lat="45.73248396573048" lon="10.727575037801106"><ele>92.5</ele><time>2026-03-29T14:55:17Z</time></trkpt><trkpt lat="45.73240107953216" lon="10.727417317803868"><ele>97.0</ele><time>2026-03-29T14:55:18Z</time></trkpt><trkpt lat="45.73231243998171" lon="10.72726165603285"><ele>97.0</ele><time>2026-03-29T14:55:19Z</time></trkpt><trkpt lat="45.73223113534767" lon="10.727086115873254"><ele>97.0</ele><time>2026-03-29T14:55:20Z</time></trkpt><trkpt lat="45.732142214892576" lon="10.726916333087617"><ele>97.0</ele><time>2026-03-29T14:55:21Z</time></trkpt><trkpt lat="45.732065918643045" lon="10.7267706480995"><ele>97.0</ele><time>2026-03-29T14:55:22Z</time></trkpt><trkpt lat="45.73200059671616" lon="10.726629822255811"><ele>93.25</ele><time>2026-03-29T14:55:23Z</time></trkpt><trkpt lat="45.731935524044175" lon="10.7265025572717"><ele>89.5</ele><time>2026-03-29T14:55:24Z</time></trkpt><trkpt lat="45.73188411303108" lon="10.726357320468662"><ele>85.75</ele><time>2026-03-29T14:55:25Z</time></trkpt><trkpt lat="45.73181288177531" lon="10.72622553032137"><ele>82.0</ele><time>2026-03-29T14:55:26Z</time></trkpt><trkpt lat="45.73174480491623" lon="10.726093955662925"><ele>85.25</ele><time>2026-03-29T14:55:27Z</time></trkpt><trkpt lat="45.73167208793712" lon="10.72595625463034"><ele>88.5</ele><time>2026-03-29T14:55:28Z</time></trkpt><trkpt lat="45.73160022394212" lon="10.7258188461929"><ele>91.75</ele><time>2026-03-29T14:55:29Z</time></trkpt><trkpt lat="45.73152716598571" lon="10.725666989259926"><ele>95.0</ele><time>2026-03-29T14:55:30Z</time></trkpt><trkpt lat="45.73145473732991" lon="10.725501751040225"><ele>95.0</ele><time>2026-03-29T14:55:31Z</time></trkpt><trkpt lat="45.73139205298672" lon="10.725331838170511"><ele>95.0</ele><time>2026-03-29T14:55:32Z</time></trkpt><trkpt lat="45.73132696124285" lon="10.725155310947553"><ele>95.0</ele><time>2026-03-29T14:55:33Z</time></trkpt><trkpt lat="45.731265842236354" lon="10.72497235931443"><ele>95.0</ele><time>2026-03-29T14:55:34Z</time></trkpt><trkpt lat="45.731203225378565" lon="10.724785520370796"><ele>98.25</ele><time>2026-03-29T14:55:35Z</time></trkpt><trkpt lat="45.73114338262258" lon="10.724610172661178"><ele>101.5</ele><time>2026-03-29T14:55:36Z</time></trkpt><trkpt lat="45.731087310105494" lon="10.724425064264143"><ele>104.75</ele><time>2026-03-29T14:55:37Z</time></trkpt><trkpt lat="45.731016182315955" lon="10.72425289356259"><ele>108.0</ele><time>2026-03-29T14:55:38Z</time></trkpt><trkpt lat="45.73095180280037" lon="10.724081639484117"><ele>101.25</ele><time>2026-03-29T14:55:39Z</time></trkpt><trkpt lat="45.730885761249326" lon="10.723905926983534"><ele>94.5</ele><time>2026-03-29T14:55:40Z</time></trkpt><trkpt lat="45.730823969893635" lon="10.723723751478316"><ele>87.75</ele><time>2026-03-29T14:55:41Z</time></trkpt><trkpt lat="45.73074905204751" lon="10.723553656107926"><ele>81.0</ele><time>2026-03-29T14:55:41.999Z</time></trkpt><trkpt lat="45.73067574351382" lon="10.723379668146027"><ele>80.5</ele><time>2026-03-29T14:55:42.999Z</time></trkpt><trkpt lat="45.73060036712609" lon="10.723206225690165"><ele>80.0</ele><time>2026-03-29T14:55:43.999Z</time></trkpt><trkpt lat="45.73051515063442" lon="10.723037866282201"><ele>79.5</ele><time>2026-03-29T14:55:44.999Z</time></trkpt><trkpt lat="45.73042450423845" lon="10.722868210855554"><ele>79.0</ele><time>2026-03-29T14:55:45.999Z</time></trkpt><trkpt lat="45.73034293948205" lon="10.722723012003913"><ele>77.75</ele><time>2026-03-29T14:55:46.999Z</time></trkpt><trkpt lat="45.73025858780227" lon="10.722565557563838"><ele>76.5</ele><time>2026-03-29T14:55:47.999Z</time></trkpt><trkpt lat="45.73018622887316" lon="10.7223960317726"><ele>75.25</ele><time>2026-03-29T14:55:48.999Z</time></trkpt><trkpt lat="45.730103560409084" lon="10.722240372790397"><ele>74.0</ele><time>2026-03-29T14:55:49.999Z</time></trkpt><trkpt lat="45.730017694598914" lon="10.722073692090538"><ele>74.0</ele><time>2026-03-29T14:55:50.999Z</time></trkpt><trkpt lat="45.72992939401504" lon="10.721907257932099"><ele>74.0</ele><time>2026-03-29T14:55:51.999Z</time></trkpt><trkpt lat="45.72984834945888" lon="10.721752106385866"><ele>74.0</ele><time>2026-03-29T14:55:52.999Z</time></trkpt><trkpt lat="45.729769827571594" lon="10.721596781090653"><ele>74.0</ele><time>2026-03-29T14:55:53.999Z</time></trkpt><trkpt lat="45.72969422513039" lon="10.72144837700957"><ele>88.75</ele><time>2026-03-29T14:55:54.999Z</time></trkpt><trkpt lat="45.72962226774225" lon="10.721305399593463"><ele>103.5</ele><time>2026-03-29T14:55:55.999Z</time></trkpt><trkpt lat="45.72954802700781" lon="10.721154318167088"><ele>118.25</ele><time>2026-03-29T14:55:56.999Z</time></trkpt><trkpt lat="45.729489221287395" lon="10.720983043227752"><ele>133.0</ele><time>2026-03-29T14:55:57.999Z</time></trkpt><trkpt lat="45.729424454725255" lon="10.720820397314831"><ele>115.5</ele><time>2026-03-29T14:55:58.999Z</time></trkpt><trkpt lat="45.729312989624006" lon="10.720765530319385"><ele>98.0</ele><time>2026-03-29T14:56:00.021Z</time></trkpt><trkpt lat="45.72884804774874" lon="10.720343154607596"><ele>98.0</ele><time>2026-03-29T14:56:03.999Z</time></trkpt><trkpt lat="45.728716492647784" lon="10.720285286982904"><ele>98.0</ele><time>2026-03-29T14:56:04.999Z</time></trkpt><trkpt lat="45.72857657151003" lon="10.720239632504274"><ele>98.0</ele><time>2026-03-29T14:56:05.999Z</time></trkpt><trkpt lat="45.728465868263235" lon="10.720197488128553"><ele>98.0</ele><time>2026-03-29T14:56:06.999Z</time></trkpt><trkpt lat="45.72838962542699" lon="10.720164093142284"><ele>93.25</ele><time>2026-03-29T14:56:07.999Z</time></trkpt><trkpt lat="45.72829038253975" lon="10.72010720523195"><ele>88.5</ele><time>2026-03-29T14:56:08.999Z</time></trkpt><trkpt lat="45.72816700210572" lon="10.719981479580005"><ele>83.75</ele><time>2026-03-29T14:56:09.999Z</time></trkpt><trkpt lat="45.72809801449685" lon="10.719873503188524"><ele>79.0</ele><time>2026-03-29T14:56:10.999Z</time></trkpt><trkpt lat="45.72803735439684" lon="10.71975063631872"><ele>79.0</ele><time>2026-03-29T14:56:11.999Z</time></trkpt><trkpt lat="45.727992713841125" lon="10.719612242376524"><ele>79.0</ele><time>2026-03-29T14:56:12.999Z</time></trkpt><trkpt lat="45.72795757081352" lon="10.719449227421297"><ele>79.0</ele><time>2026-03-29T14:56:13.999Z</time></trkpt><trkpt lat="45.727945676499" lon="10.71930309046776"><ele>79.0</ele><time>2026-03-29T14:56:14.999Z</time></trkpt><trkpt lat="45.72794629681642" lon="10.719146037958659"><ele>79.0</ele><time>2026-03-29T14:56:15.999Z</time></trkpt><trkpt lat="45.7279556867726" lon="10.718969466612943"><ele>80.4</ele><time>2026-03-29T14:56:16.999Z</time></trkpt><trkpt lat="45.727965159835264" lon="10.718799049066313"><ele>81.80000000000001</ele><time>2026-03-29T14:56:17.999Z</time></trkpt><trkpt lat="45.72797115418965" lon="10.718637624564787"><ele>83.19999999999999</ele><time>2026-03-29T14:56:18.999Z</time></trkpt><trkpt lat="45.72797244625336" lon="10.718500149175533"><ele>84.6</ele><time>2026-03-29T14:56:19.999Z</time></trkpt><trkpt lat="45.72797107815985" lon="10.718377822724097"><ele>86.0</ele><time>2026-03-29T14:56:20.999Z</time></trkpt><trkpt lat="45.72796629205502" lon="10.718247298127695"><ele>86.0</ele><time>2026-03-29T14:56:21.999Z</time></trkpt><trkpt lat="45.727957896167844" lon="10.718112246838809"><ele>86.0</ele><time>2026-03-29T14:56:22.999Z</time></trkpt><trkpt lat="45.7279428377263" lon="10.71796059215981"><ele>86.0</ele><time>2026-03-29T14:56:23.999Z</time></trkpt><trkpt lat="45.72790514611641" lon="10.717809392804515"><ele>86.0</ele><time>2026-03-29T14:56:24.999Z</time></trkpt><trkpt lat="45.72788720802027" lon="10.717646556810655"><ele>86.0</ele><time>2026-03-29T14:56:25.999Z</time></trkpt><trkpt lat="45.72786577498363" lon="10.717481544710473"><ele>111.25</ele><time>2026-03-29T14:56:26.999Z</time></trkpt><trkpt lat="45.727841347993" lon="10.717308058616416"><ele>136.5</ele><time>2026-03-29T14:56:27.999Z</time></trkpt><trkpt lat="45.727815901351086" lon="10.717134662878047"><ele>161.75</ele><time>2026-03-29T14:56:28.999Z</time></trkpt><trkpt lat="45.727791797782075" lon="10.716962722975413"><ele>187.0</ele><time>2026-03-29T14:56:30.018Z</time></trkpt><trkpt lat="45.72655294474077" lon="10.714777774249285"><ele>279.0</ele><time>2026-03-29T14:56:33.169Z</time></trkpt><trkpt lat="45.72615566365342" lon="10.714083382278307"><ele>246.0</ele><time>2026-03-29T14:56:34.166Z</time></trkpt><trkpt lat="45.725751292774255" lon="10.713390686204422"><ele>246.0</ele><time>2026-03-29T14:56:35.169Z</time></trkpt><trkpt lat="45.725310798931076" lon="10.71275028611758"><ele>276.0</ele><time>2026-03-29T14:56:36.168Z</time></trkpt><trkpt lat="45.7248493589426" lon="10.712136879028087"><ele>288.0</ele><time>2026-03-29T14:56:37.169Z</time></trkpt><trkpt lat="45.7244945" lon="10.7116699"><ele>162.0</ele><time>2026-03-29T14:56:38.165Z</time></trkpt><trkpt lat="45.71796792388767" lon="10.706188028890365"><ele>166.5</ele><time>2026-03-29T14:58:04.998Z</time></trkpt><trkpt lat="45.71784960560113" lon="10.706073316475933"><ele>171.0</ele><time>2026-03-29T14:58:06Z</time></trkpt><trkpt lat="45.717738700470846" lon="10.70594613064941"><ele>175.5</ele><time>2026-03-29T14:58:07Z</time></trkpt><trkpt lat="45.71765442132744" lon="10.705779378634434"><ele>180.0</ele><time>2026-03-29T14:58:08Z</time></trkpt><trkpt lat="45.717547818410296" lon="10.705630206366846"><ele>176.33333333333334</ele><time>2026-03-29T14:58:09Z</time></trkpt><trkpt lat="45.71744295726889" lon="10.705479414337285"><ele>172.66666666666669</ele><time>2026-03-29T14:58:10Z</time></trkpt><trkpt lat="45.71733239229061" lon="10.705316459786806"><ele>169.0</ele><time>2026-03-29T14:58:11Z</time></trkpt><trkpt lat="45.71721755020707" lon="10.705139437698024"><ele>169.0</ele><time>2026-03-29T14:58:12Z</time></trkpt><trkpt lat="45.71710087334868" lon="10.704952400430818"><ele>169.0</ele><time>2026-03-29T14:58:13Z</time></trkpt><trkpt lat="45.71699045080988" lon="10.704768693960279"><ele>169.0</ele><time>2026-03-29T14:58:14Z</time></trkpt><trkpt lat="45.71688357540442" lon="10.70458650861487"><ele>167.25</ele><time>2026-03-29T14:58:15Z</time></trkpt><trkpt lat="45.716791166883496" lon="10.704428502234268"><ele>165.5</ele><time>2026-03-29T14:58:16Z</time></trkpt><trkpt lat="45.71669504137419" lon="10.70426465679782"><ele>163.75</ele><time>2026-03-29T14:58:17Z</time></trkpt><trkpt lat="45.71658086988288" lon="10.704119792731298"><ele>162.0</ele><time>2026-03-29T14:58:18Z</time></trkpt><trkpt lat="45.71647797692052" lon="10.703961214516623"><ele>162.0</ele><time>2026-03-29T14:58:19Z</time></trkpt><trkpt lat="45.7163538030656" lon="10.703821108529098"><ele>162.0</ele><time>2026-03-29T14:58:20Z</time></trkpt><trkpt lat="45.716223601347544" lon="10.703671963993633"><ele>162.0</ele><time>2026-03-29T14:58:21Z</time></trkpt><trkpt lat="45.71608225082279" lon="10.703527482606278"><ele>162.33333333333334</ele><time>2026-03-29T14:58:22Z</time></trkpt><trkpt lat="45.71593446305253" lon="10.703383561728302"><ele>162.66666666666669</ele><time>2026-03-29T14:58:23Z</time></trkpt><trkpt lat="45.715801190874416" lon="10.70325313866954"><ele>163.0</ele><time>2026-03-29T14:58:24Z</time></trkpt><trkpt lat="45.715669995302385" lon="10.703135958454618"><ele>163.0</ele><time>2026-03-29T14:58:25Z</time></trkpt><trkpt lat="45.715542272398494" lon="10.703013354240264"><ele>163.0</ele><time>2026-03-29T14:58:26Z</time></trkpt><trkpt lat="45.715418111548956" lon="10.7028971623918"><ele>163.0</ele><time>2026-03-29T14:58:27Z</time></trkpt><trkpt lat="45.71529255549693" lon="10.702785029942847"><ele>163.25</ele><time>2026-03-29T14:58:28Z</time></trkpt><trkpt lat="45.71517363946632" lon="10.702665530139269"><ele>163.5</ele><time>2026-03-29T14:58:29Z</time></trkpt><trkpt lat="45.71505809781454" lon="10.702547300448954"><ele>163.75</ele><time>2026-03-29T14:58:30Z</time></trkpt><trkpt lat="45.71494024335595" lon="10.702423276437035"><ele>164.0</ele><time>2026-03-29T14:58:31Z</time></trkpt><trkpt lat="45.714824731671804" lon="10.702290494054198"><ele>164.0</ele><time>2026-03-29T14:58:32Z</time></trkpt><trkpt lat="45.71472763535433" lon="10.70212940612212"><ele>164.0</ele><time>2026-03-29T14:58:33Z</time></trkpt><trkpt lat="45.71462169940864" lon="10.701984617833787"><ele>164.0</ele><time>2026-03-29T14:58:34Z</time></trkpt><trkpt lat="45.71451679360455" lon="10.701844543065098"><ele>164.0</ele><time>2026-03-29T14:58:35Z</time></trkpt><trkpt lat="45.71442454177155" lon="10.70171917164844"><ele>164.75</ele><time>2026-03-29T14:58:36Z</time></trkpt><trkpt lat="45.7143447329138" lon="10.701609627312072"><ele>165.5</ele><time>2026-03-29T14:58:37Z</time></trkpt><trkpt lat="45.714259383014124" lon="10.70149823324174"><ele>166.25</ele><time>2026-03-29T14:58:38Z</time></trkpt><trkpt lat="45.71416986932232" lon="10.701392293735246"><ele>167.0</ele><time>2026-03-29T14:58:39Z</time></trkpt><trkpt lat="45.71406255696697" lon="10.70131019773478"><ele>167.0</ele><time>2026-03-29T14:58:40Z</time></trkpt><trkpt lat="45.71394690409324" lon="10.70122148902188"><ele>167.0</ele><time>2026-03-29T14:58:41Z</time></trkpt><trkpt lat="45.71380910292583" lon="10.701136720296137"><ele>167.0</ele><time>2026-03-29T14:58:42Z</time></trkpt><trkpt lat="45.71368565613039" lon="10.70106117149988"><ele>167.0</ele><time>2026-03-29T14:58:43Z</time></trkpt><trkpt lat="45.7135726482873" lon="10.700991811524647"><ele>169.39999999999998</ele><time>2026-03-29T14:58:44Z</time></trkpt><trkpt lat="45.71347277558783" lon="10.7009305134962"><ele>171.79999999999998</ele><time>2026-03-29T14:58:45Z</time></trkpt><trkpt lat="45.713388689551046" lon="10.700880080648387"><ele>174.2</ele><time>2026-03-29T14:58:46Z</time></trkpt><trkpt lat="45.713302399391424" lon="10.700828371552104"><ele>176.6</ele><time>2026-03-29T14:58:47Z</time></trkpt><trkpt lat="45.71319735472401" lon="10.700790079720804"><ele>179.0</ele><time>2026-03-29T14:58:48Z</time></trkpt><trkpt lat="45.71310268019183" lon="10.700705782111195"><ele>179.0</ele><time>2026-03-29T14:58:49Z</time></trkpt><trkpt lat="45.7129992970006" lon="10.700641976970777"><ele>179.0</ele><time>2026-03-29T14:58:50Z</time></trkpt><trkpt lat="45.71289445744606" lon="10.700577864016623"><ele>179.0</ele><time>2026-03-29T14:58:51Z</time></trkpt><trkpt lat="45.71279041940204" lon="10.70051487701412"><ele>179.0</ele><time>2026-03-29T14:58:52Z</time></trkpt><trkpt lat="45.7126896057809" lon="10.700448879533058"><ele>178.79999999999998</ele><time>2026-03-29T14:58:53Z</time></trkpt><trkpt lat="45.71259788876836" lon="10.700387462051099"><ele>178.6</ele><time>2026-03-29T14:58:54Z</time></trkpt><trkpt lat="45.71251982622942" lon="10.700356352145832"><ele>178.4</ele><time>2026-03-29T14:58:55Z</time></trkpt><trkpt lat="45.712461594307534" lon="10.700316382992026"><ele>178.2</ele><time>2026-03-29T14:58:56Z</time></trkpt><trkpt lat="45.71239077475482" lon="10.70021096431131"><ele>178.0</ele><time>2026-03-29T14:58:58Z</time></trkpt><trkpt lat="45.712412144333925" lon="10.700053956097216"><ele>178.0</ele><time>2026-03-29T14:59:00Z</time></trkpt><trkpt lat="45.71241411174401" lon="10.699962645784376"><ele>178.0</ele><time>2026-03-29T14:59:01Z</time></trkpt><trkpt lat="45.71241579144034" lon="10.69986672498192"><ele>178.0</ele><time>2026-03-29T14:59:02Z</time></trkpt><trkpt lat="45.71241748321595" lon="10.69977011413372"><ele>178.0</ele><time>2026-03-29T14:59:03.014Z</time></trkpt><trkpt lat="45.71241894200666" lon="10.699675193623701"><ele>178.0</ele><time>2026-03-29T14:59:04.016Z</time></trkpt><trkpt lat="45.71197553571679" lon="10.698718396932442"><ele>214.5</ele><time>2026-03-29T14:59:07.163Z</time></trkpt><trkpt lat="45.71178167706876" lon="10.698447951622608"><ele>251.0</ele><time>2026-03-29T14:59:08.165Z</time></trkpt><trkpt lat="45.71157733661765" lon="10.698196706432167"><ele>251.0</ele><time>2026-03-29T14:59:09.165Z</time></trkpt><trkpt lat="45.71136216015111" lon="10.697962700060202"><ele>251.0</ele><time>2026-03-29T14:59:10.165Z</time></trkpt><trkpt lat="45.711168998011836" lon="10.697693046818078"><ele>232.5</ele><time>2026-03-29T14:59:11.164Z</time></trkpt><trkpt lat="45.7110844" lon="10.6976201"><ele>214.0</ele><time>2026-03-29T14:59:12.167Z</time></trkpt><trkpt lat="45.70830370569518" lon="10.692044328441705"><ele>224.5</ele><time>2026-03-29T14:59:55.02Z</time></trkpt><trkpt lat="45.70829723801592" lon="10.691837569614025"><ele>235.0</ele><time>2026-03-29T14:59:55.999Z</time></trkpt><trkpt lat="45.708249905374416" lon="10.691672311150498"><ele>245.5</ele><time>2026-03-29T14:59:56.999Z</time></trkpt><trkpt lat="45.7082079631539" lon="10.691511555102895"><ele>256.0</ele><time>2026-03-29T14:59:57.999Z</time></trkpt><trkpt lat="45.708169346420554" lon="10.69134875693349"><ele>256.0</ele><time>2026-03-29T14:59:58.999Z</time></trkpt><trkpt lat="45.708103114311776" lon="10.691187377701015"><ele>256.0</ele><time>2026-03-29T15:00:00.019Z</time></trkpt><trkpt lat="45.70790693111086" lon="10.690755721882159"><ele>266.25</ele><time>2026-03-29T15:00:03.167Z</time></trkpt><trkpt lat="45.70783219629512" lon="10.690627467595936"><ele>276.5</ele><time>2026-03-29T15:00:04.164Z</time></trkpt><trkpt lat="45.70774341422898" lon="10.690471885464063"><ele>286.75</ele><time>2026-03-29T15:00:05.167Z</time></trkpt><trkpt lat="45.70763053000696" lon="10.690274070149709"><ele>297.0</ele><time>2026-03-29T15:00:06.162Z</time></trkpt><trkpt lat="45.706888933873564" lon="10.689139218222577"><ele>271.5</ele><time>2026-03-29T15:00:07.167Z</time></trkpt><trkpt lat="45.70668987776981" lon="10.688811574631249"><ele>246.0</ele><time>2026-03-29T15:00:08.163Z</time></trkpt><trkpt lat="45.70650884537001" lon="10.68850401080888"><ele>246.0</ele><time>2026-03-29T15:00:09.167Z</time></trkpt><trkpt lat="45.70634447929761" lon="10.688193245887081"><ele>246.0</ele><time>2026-03-29T15:00:10.167Z</time></trkpt><trkpt lat="45.70621054449435" lon="10.687857988409739"><ele>222.5</ele><time>2026-03-29T15:00:11.166Z</time></trkpt><trkpt lat="45.70606812769124" lon="10.687529726424248"><ele>199.0</ele><time>2026-03-29T15:00:12.167Z</time></trkpt><trkpt lat="45.705908911917824" lon="10.68721864368905"><ele>234.0</ele><time>2026-03-29T15:00:13.167Z</time></trkpt><trkpt lat="45.705744328396676" lon="10.686913281311645"><ele>269.0</ele><time>2026-03-29T15:00:14.167Z</time></trkpt><trkpt lat="45.70558015537702" lon="10.686609094651228"><ele>269.0</ele><time>2026-03-29T15:00:15.163Z</time></trkpt><trkpt lat="45.70541482472179" lon="10.686302823254879"><ele>269.0</ele><time>2026-03-29T15:00:16.167Z</time></trkpt><trkpt lat="45.70528607305523" lon="10.68602538973769"><ele>241.0</ele><time>2026-03-29T15:00:17.166Z</time></trkpt><trkpt lat="45.70512011600588" lon="10.68578069389087"><ele>213.0</ele><time>2026-03-29T15:00:18.167Z</time></trkpt><trkpt lat="45.704912789611484" lon="10.685479506190644"><ele>244.0</ele><time>2026-03-29T15:00:19.167Z</time></trkpt><trkpt lat="45.70470602890959" lon="10.685188345712103"><ele>275.0</ele><time>2026-03-29T15:00:20.167Z</time></trkpt><trkpt lat="45.70450692042662" lon="10.684906682458623"><ele>246.5</ele><time>2026-03-29T15:00:21.164Z</time></trkpt><trkpt lat="45.704315252856176" lon="10.684622218926302"><ele>218.0</ele><time>2026-03-29T15:00:22.167Z</time></trkpt><trkpt lat="45.70414145581442" lon="10.684322814928498"><ele>218.0</ele><time>2026-03-29T15:00:23.166Z</time></trkpt><trkpt lat="45.7039855603291" lon="10.684005938244193"><ele>218.0</ele><time>2026-03-29T15:00:24.166Z</time></trkpt><trkpt lat="45.70384659118051" lon="10.683675573122486"><ele>251.5</ele><time>2026-03-29T15:00:25.164Z</time></trkpt><trkpt lat="45.7037256238402" lon="10.683331465106214"><ele>285.0</ele><time>2026-03-29T15:00:26.162Z</time></trkpt><trkpt lat="45.7036174927074" lon="10.682976574960653"><ele>221.0</ele><time>2026-03-29T15:00:27.166Z</time></trkpt><trkpt lat="45.70351408846887" lon="10.682620470890894"><ele>157.0</ele><time>2026-03-29T15:00:28.167Z</time></trkpt><trkpt lat="45.70340778842539" lon="10.68226634659479"><ele>157.0</ele><time>2026-03-29T15:00:29.167Z</time></trkpt><trkpt lat="45.70336477370454" lon="10.682123603760495"><ele>157.0</ele><time>2026-03-29T15:00:30.166Z</time></trkpt><trkpt lat="45.70313434526769" lon="10.681364547816543"><ele>158.25</ele><time>2026-03-29T15:01:05.999Z</time></trkpt><trkpt lat="45.70305722368067" lon="10.681174448795932"><ele>159.5</ele><time>2026-03-29T15:01:06.999Z</time></trkpt><trkpt lat="45.70299208963132" lon="10.6810215761154"><ele>160.75</ele><time>2026-03-29T15:01:07.999Z</time></trkpt><trkpt lat="45.702935194673984" lon="10.680881157997659"><ele>162.0</ele><time>2026-03-29T15:01:08.999Z</time></trkpt><trkpt lat="45.70285221868969" lon="10.68073581608586"><ele>160.0</ele><time>2026-03-29T15:01:09.999Z</time></trkpt><trkpt lat="45.702787591671616" lon="10.680562092255785"><ele>158.0</ele><time>2026-03-29T15:01:10.999Z</time></trkpt><trkpt lat="45.70271150532687" lon="10.680460070222818"><ele>156.0</ele><time>2026-03-29T15:01:12Z</time></trkpt><trkpt lat="45.70262240403082" lon="10.680384917841698"><ele>154.0</ele><time>2026-03-29T15:01:13Z</time></trkpt><trkpt lat="45.70251297408778" lon="10.680338478117866"><ele>154.0</ele><time>2026-03-29T15:01:14Z</time></trkpt><trkpt lat="45.70241155708744" lon="10.680293910067972"><ele>154.0</ele><time>2026-03-29T15:01:15Z</time></trkpt><trkpt lat="45.702328804113684" lon="10.680233949451768"><ele>154.0</ele><time>2026-03-29T15:01:16Z</time></trkpt><trkpt lat="45.702250861783774" lon="10.680161254420128"><ele>154.0</ele><time>2026-03-29T15:01:17Z</time></trkpt><trkpt lat="45.702165062220274" lon="10.680064851264104"><ele>154.0</ele><time>2026-03-29T15:01:18Z</time></trkpt><trkpt lat="45.70208627585096" lon="10.679929209425092"><ele>157.0</ele><time>2026-03-29T15:01:19Z</time></trkpt><trkpt lat="45.7020088477302" lon="10.679788964695291"><ele>160.0</ele><time>2026-03-29T15:01:20Z</time></trkpt><trkpt lat="45.70193512084716" lon="10.679623807232066"><ele>163.0</ele><time>2026-03-29T15:01:21Z</time></trkpt><trkpt lat="45.70184860919313" lon="10.679460173203735"><ele>166.0</ele><time>2026-03-29T15:01:22Z</time></trkpt><trkpt lat="45.701760523445515" lon="10.679286651712157"><ele>166.0</ele><time>2026-03-29T15:01:23Z</time></trkpt><trkpt lat="45.70167731341871" lon="10.679114578943045"><ele>166.0</ele><time>2026-03-29T15:01:24Z</time></trkpt><trkpt lat="45.701583375440805" lon="10.678952480507595"><ele>166.0</ele><time>2026-03-29T15:01:25Z</time></trkpt><trkpt lat="45.701487446761966" lon="10.678807057601642"><ele>166.0</ele><time>2026-03-29T15:01:26Z</time></trkpt><trkpt lat="45.70138190265021" lon="10.678682888540642"><ele>162.0</ele><time>2026-03-29T15:01:27Z</time></trkpt><trkpt lat="45.70126730634806" lon="10.678548838851025"><ele>158.0</ele><time>2026-03-29T15:01:28Z</time></trkpt><trkpt lat="45.70114529337575" lon="10.678428400416886"><ele>154.0</ele><time>2026-03-29T15:01:29Z</time></trkpt><trkpt lat="45.701031320060984" lon="10.678311097819293"><ele>150.0</ele><time>2026-03-29T15:01:30Z</time></trkpt><trkpt lat="45.700911412299035" lon="10.67820611403118"><ele>150.0</ele><time>2026-03-29T15:01:31Z</time></trkpt><trkpt lat="45.700792712226615" lon="10.678091315804577"><ele>150.0</ele><time>2026-03-29T15:01:32Z</time></trkpt><trkpt lat="45.70067349310827" lon="10.677973221055833"><ele>150.0</ele><time>2026-03-29T15:01:33Z</time></trkpt><trkpt lat="45.70056024764344" lon="10.677869154422945"><ele>150.0</ele><time>2026-03-29T15:01:34Z</time></trkpt><trkpt lat="45.700452726761455" lon="10.677768075133566"><ele>148.0</ele><time>2026-03-29T15:01:35Z</time></trkpt><trkpt lat="45.70035358346613" lon="10.677673284821013"><ele>146.0</ele><time>2026-03-29T15:01:36Z</time></trkpt><trkpt lat="45.70026053181039" lon="10.677581440890284"><ele>144.0</ele><time>2026-03-29T15:01:37Z</time></trkpt><trkpt lat="45.700173913961585" lon="10.677499931728027"><ele>142.0</ele><time>2026-03-29T15:01:38Z</time></trkpt><trkpt lat="45.70007952295717" lon="10.67740635386941"><ele>142.0</ele><time>2026-03-29T15:01:39Z</time></trkpt><trkpt lat="45.69998679895942" lon="10.677306842086455"><ele>142.0</ele><time>2026-03-29T15:01:40Z</time></trkpt><trkpt lat="45.69988870609825" lon="10.677192237416119"><ele>142.0</ele><time>2026-03-29T15:01:41Z</time></trkpt><trkpt lat="45.69980538906003" lon="10.677086587866818"><ele>142.0</ele><time>2026-03-29T15:01:42Z</time></trkpt><trkpt lat="45.69973241183782" lon="10.676977556188609"><ele>146.0</ele><time>2026-03-29T15:01:43Z</time></trkpt><trkpt lat="45.69965608327478" lon="10.676849073765542"><ele>150.0</ele><time>2026-03-29T15:01:44Z</time></trkpt><trkpt lat="45.699582859974115" lon="10.676711840542074"><ele>154.0</ele><time>2026-03-29T15:01:45Z</time></trkpt><trkpt lat="45.69951190672167" lon="10.676559036321493"><ele>158.0</ele><time>2026-03-29T15:01:46Z</time></trkpt><trkpt lat="45.69943904839638" lon="10.67640529118797"><ele>154.25</ele><time>2026-03-29T15:01:47Z</time></trkpt><trkpt lat="45.6993700975295" lon="10.676242222647984"><ele>150.5</ele><time>2026-03-29T15:01:48Z</time></trkpt><trkpt lat="45.699295142888985" lon="10.676080190166788"><ele>146.75</ele><time>2026-03-29T15:01:49Z</time></trkpt><trkpt lat="45.699202618571945" lon="10.675910620141911"><ele>143.0</ele><time>2026-03-29T15:01:50Z</time></trkpt><trkpt lat="45.699086686142266" lon="10.675736795550444"><ele>143.0</ele><time>2026-03-29T15:01:51Z</time></trkpt><trkpt lat="45.69895963316819" lon="10.675536376171472"><ele>143.0</ele><time>2026-03-29T15:01:52Z</time></trkpt><trkpt lat="45.698788985963766" lon="10.675306057776815"><ele>143.0</ele><time>2026-03-29T15:01:53Z</time></trkpt><trkpt lat="45.69861647833984" lon="10.675049113993884"><ele>139.33333333333331</ele><time>2026-03-29T15:01:54Z</time></trkpt><trkpt lat="45.6984818130259" lon="10.674814307816211"><ele>135.66666666666666</ele><time>2026-03-29T15:01:55Z</time></trkpt><trkpt lat="45.69834597950851" lon="10.674628758992357"><ele>132.0</ele><time>2026-03-29T15:01:56Z</time></trkpt><trkpt lat="45.69823088421099" lon="10.674463558720598"><ele>135.0</ele><time>2026-03-29T15:01:57Z</time></trkpt><trkpt lat="45.69812988093266" lon="10.67431068703329"><ele>138.0</ele><time>2026-03-29T15:01:58Z</time></trkpt><trkpt lat="45.698032575860594" lon="10.674175711483626"><ele>141.0</ele><time>2026-03-29T15:01:59Z</time></trkpt><trkpt lat="45.69793833230553" lon="10.674051216051408"><ele>144.0</ele><time>2026-03-29T15:02:00Z</time></trkpt><trkpt lat="45.69784596965941" lon="10.673923978300056"><ele>140.75</ele><time>2026-03-29T15:02:01Z</time></trkpt><trkpt lat="45.697750717124435" lon="10.673787560081035"><ele>137.5</ele><time>2026-03-29T15:02:02Z</time></trkpt><trkpt lat="45.69765867284561" lon="10.673647560130716"><ele>134.25</ele><time>2026-03-29T15:02:03Z</time></trkpt><trkpt lat="45.697569348678655" lon="10.673491993260843"><ele>131.0</ele><time>2026-03-29T15:02:04Z</time></trkpt><trkpt lat="45.69748863333907" lon="10.673319201114854"><ele>131.0</ele><time>2026-03-29T15:02:05Z</time></trkpt><trkpt lat="45.697402211248736" lon="10.673151168696025"><ele>131.0</ele><time>2026-03-29T15:02:06Z</time></trkpt><trkpt lat="45.69732818208143" lon="10.67298989897596"><ele>131.0</ele><time>2026-03-29T15:02:07Z</time></trkpt><trkpt lat="45.69726603692043" lon="10.672836384383958"><ele>131.0</ele><time>2026-03-29T15:02:08Z</time></trkpt><trkpt lat="45.697178565651804" lon="10.67269479525345"><ele>132.25</ele><time>2026-03-29T15:02:09Z</time></trkpt><trkpt lat="45.69709927461131" lon="10.672551969853876"><ele>133.5</ele><time>2026-03-29T15:02:10Z</time></trkpt><trkpt lat="45.69702051227909" lon="10.672434733458282"><ele>134.75</ele><time>2026-03-29T15:02:11Z</time></trkpt><trkpt lat="45.69693316913881" lon="10.672334015164369"><ele>136.0</ele><time>2026-03-29T15:02:12Z</time></trkpt><trkpt lat="45.69684904311379" lon="10.672220924958822"><ele>135.25</ele><time>2026-03-29T15:02:13Z</time></trkpt><trkpt lat="45.69676079524242" lon="10.67210630135301"><ele>134.5</ele><time>2026-03-29T15:02:14Z</time></trkpt><trkpt lat="45.696677401122415" lon="10.672000256564253"><ele>133.75</ele><time>2026-03-29T15:02:15Z</time></trkpt><trkpt lat="45.69658280534366" lon="10.671893171673215"><ele>133.0</ele><time>2026-03-29T15:02:16Z</time></trkpt><trkpt lat="45.69647748802451" lon="10.671769790829075"><ele>133.0</ele><time>2026-03-29T15:02:17Z</time></trkpt><trkpt lat="45.69636497163968" lon="10.671629458542128"><ele>133.0</ele><time>2026-03-29T15:02:18Z</time></trkpt><trkpt lat="45.69626446221869" lon="10.67147896178674"><ele>133.0</ele><time>2026-03-29T15:02:19Z</time></trkpt><trkpt lat="45.69617622765578" lon="10.671371485681462"><ele>133.0</ele><time>2026-03-29T15:02:20Z</time></trkpt><trkpt lat="45.69610030610028" lon="10.671259883546705"><ele>130.5</ele><time>2026-03-29T15:02:21Z</time></trkpt><trkpt lat="45.69601821939921" lon="10.671165896554138"><ele>128.0</ele><time>2026-03-29T15:02:21.999Z</time></trkpt><trkpt lat="45.695949946496754" lon="10.67103897617929"><ele>125.5</ele><time>2026-03-29T15:02:22.999Z</time></trkpt><trkpt lat="45.69591350257732" lon="10.670868525031802"><ele>123.0</ele><time>2026-03-29T15:02:23.999Z</time></trkpt><trkpt lat="45.69586664168642" lon="10.670699384382894"><ele>123.0</ele><time>2026-03-29T15:02:24.999Z</time></trkpt><trkpt lat="45.69581414118589" lon="10.670517599953584"><ele>123.0</ele><time>2026-03-29T15:02:25.999Z</time></trkpt><trkpt lat="45.695741531050665" lon="10.67034982010905"><ele>123.0</ele><time>2026-03-29T15:02:26.999Z</time></trkpt><trkpt lat="45.69566989631983" lon="10.67017912793882"><ele>123.0</ele><time>2026-03-29T15:02:27.999Z</time></trkpt><trkpt lat="45.69560041972363" lon="10.67000271377782"><ele>125.0</ele><time>2026-03-29T15:02:28.999Z</time></trkpt><trkpt lat="45.69552544755512" lon="10.669836268918084"><ele>127.0</ele><time>2026-03-29T15:02:29.999Z</time></trkpt><trkpt lat="45.69545920804928" lon="10.669679970521187"><ele>129.0</ele><time>2026-03-29T15:02:30.999Z</time></trkpt><trkpt lat="45.69540239200789" lon="10.669513352421163"><ele>131.0</ele><time>2026-03-29T15:02:31.999Z</time></trkpt><trkpt lat="45.695332750465994" lon="10.669348323234182"><ele>134.25</ele><time>2026-03-29T15:02:32.999Z</time></trkpt><trkpt lat="45.69526603526235" lon="10.669185443953534"><ele>137.5</ele><time>2026-03-29T15:02:33.999Z</time></trkpt><trkpt lat="45.695194926511206" lon="10.669017145574907"><ele>140.75</ele><time>2026-03-29T15:02:34.999Z</time></trkpt><trkpt lat="45.69512778408202" lon="10.668855122207033"><ele>144.0</ele><time>2026-03-29T15:02:35.999Z</time></trkpt><trkpt lat="45.695062977349934" lon="10.668715172357915"><ele>140.25</ele><time>2026-03-29T15:02:36.999Z</time></trkpt><trkpt lat="45.69500506073666" lon="10.668575489117098"><ele>136.5</ele><time>2026-03-29T15:02:37.999Z</time></trkpt><trkpt lat="45.69493694972785" lon="10.668456359112716"><ele>132.75</ele><time>2026-03-29T15:02:38.999Z</time></trkpt><trkpt lat="45.6948476002827" lon="10.668340185081453"><ele>129.0</ele><time>2026-03-29T15:02:39.999Z</time></trkpt><trkpt lat="45.69474480567835" lon="10.668240789255501"><ele>129.0</ele><time>2026-03-29T15:02:40.999Z</time></trkpt><trkpt lat="45.69462048181002" lon="10.668171393777829"><ele>129.0</ele><time>2026-03-29T15:02:41.999Z</time></trkpt><trkpt lat="45.694491469074535" lon="10.668112095022073"><ele>129.0</ele><time>2026-03-29T15:02:42.999Z</time></trkpt><trkpt lat="45.694358504970104" lon="10.668061269196246"><ele>129.0</ele><time>2026-03-29T15:02:43.999Z</time></trkpt><trkpt lat="45.69423401116466" lon="10.668020784671231"><ele>127.75</ele><time>2026-03-29T15:02:44.999Z</time></trkpt><trkpt lat="45.69411648672587" lon="10.667975883744987"><ele>126.5</ele><time>2026-03-29T15:02:45.999Z</time></trkpt><trkpt lat="45.69400639151831" lon="10.667888607011173"><ele>125.25</ele><time>2026-03-29T15:02:46.999Z</time></trkpt><trkpt lat="45.69390936740637" lon="10.667787237362905"><ele>124.0</ele><time>2026-03-29T15:02:47.999Z</time></trkpt><trkpt lat="45.69382212597761" lon="10.667666406581771"><ele>124.0</ele><time>2026-03-29T15:02:48.999Z</time></trkpt><trkpt lat="45.693731513110684" lon="10.667542526451038"><ele>124.0</ele><time>2026-03-29T15:02:49.999Z</time></trkpt><trkpt lat="45.6936313532741" lon="10.66744557831821"><ele>124.0</ele><time>2026-03-29T15:02:50.999Z</time></trkpt><trkpt lat="45.69353212513828" lon="10.667346865660662"><ele>124.0</ele><time>2026-03-29T15:02:51.999Z</time></trkpt><trkpt lat="45.69342249614024" lon="10.667269674011791"><ele>120.25</ele><time>2026-03-29T15:02:52.999Z</time></trkpt><trkpt lat="45.69330601462496" lon="10.667225671499077"><ele>116.5</ele><time>2026-03-29T15:02:53.999Z</time></trkpt><trkpt lat="45.6931830103287" lon="10.667206248017784"><ele>112.75</ele><time>2026-03-29T15:02:54.999Z</time></trkpt><trkpt lat="45.693064168973166" lon="10.667193338401548"><ele>109.0</ele><time>2026-03-29T15:02:55.999Z</time></trkpt><trkpt lat="45.69296117565008" lon="10.667179893916693"><ele>109.0</ele><time>2026-03-29T15:02:56.999Z</time></trkpt><trkpt lat="45.6928506259608" lon="10.667166460498683"><ele>109.0</ele><time>2026-03-29T15:02:57.999Z</time></trkpt><trkpt lat="45.692734785176214" lon="10.667148586911608"><ele>109.0</ele><time>2026-03-29T15:02:58.999Z</time></trkpt><trkpt lat="45.69261969265528" lon="10.667128443367737"><ele>109.0</ele><time>2026-03-29T15:02:59.999Z</time></trkpt><trkpt lat="45.69252283178595" lon="10.66711376227683"><ele>109.0</ele><time>2026-03-29T15:03:00.999Z</time></trkpt><trkpt lat="45.69242201787141" lon="10.667091584802803"><ele>109.80000000000001</ele><time>2026-03-29T15:03:01.999Z</time></trkpt><trkpt lat="45.69233466628951" lon="10.66699887748661"><ele>110.60000000000001</ele><time>2026-03-29T15:03:02.999Z</time></trkpt><trkpt lat="45.69223942703936" lon="10.666933820384362"><ele>111.4</ele><time>2026-03-29T15:03:03.999Z</time></trkpt><trkpt lat="45.69216348336746" lon="10.666823103138722"><ele>112.2</ele><time>2026-03-29T15:03:04.999Z</time></trkpt><trkpt lat="45.692086393234945" lon="10.666699577322273"><ele>113.0</ele><time>2026-03-29T15:03:05.999Z</time></trkpt><trkpt lat="45.69200424397816" lon="10.666567140433685"><ele>113.0</ele><time>2026-03-29T15:03:06.999Z</time></trkpt><trkpt lat="45.691931396523444" lon="10.666447095614867"><ele>113.00000000000001</ele><time>2026-03-29T15:03:07.999Z</time></trkpt><trkpt lat="45.691860551430594" lon="10.666330350470375"><ele>113.00000000000001</ele><time>2026-03-29T15:03:08.999Z</time></trkpt><trkpt lat="45.691795783107054" lon="10.666223619093381"><ele>113.0</ele><time>2026-03-29T15:03:09.999Z</time></trkpt><trkpt lat="45.691734517765255" lon="10.6661229035805"><ele>113.0</ele><time>2026-03-29T15:03:10.999Z</time></trkpt><trkpt lat="45.69167924851301" lon="10.6660320276271"><ele>112.28571428571429</ele><time>2026-03-29T15:03:11.999Z</time></trkpt><trkpt lat="45.691620596333536" lon="10.665964914232754"><ele>111.57142857142857</ele><time>2026-03-29T15:03:12.999Z</time></trkpt><trkpt lat="45.69157467967634" lon="10.665887063930583"><ele>110.85714285714286</ele><time>2026-03-29T15:03:13.999Z</time></trkpt><trkpt lat="45.69153959980743" lon="10.665804311650204"><ele>110.14285714285714</ele><time>2026-03-29T15:03:14.999Z</time></trkpt><trkpt lat="45.69148805505104" lon="10.665739129028323"><ele>109.42857142857142</ele><time>2026-03-29T15:03:15.999Z</time></trkpt><trkpt lat="45.69144458075657" lon="10.665655780837504"><ele>108.71428571428571</ele><time>2026-03-29T15:03:16.999Z</time></trkpt><trkpt lat="45.69138289264863" lon="10.665561487638396"><ele>108.0</ele><time>2026-03-29T15:03:18Z</time></trkpt><trkpt lat="45.69132341648135" lon="10.665465514266067"><ele>108.0</ele><time>2026-03-29T15:03:19Z</time></trkpt><trkpt lat="45.6912820651623" lon="10.66537848914017"><ele>108.0</ele><time>2026-03-29T15:03:20Z</time></trkpt><trkpt lat="45.69122427031211" lon="10.665283458128336"><ele>108.0</ele><time>2026-03-29T15:03:21Z</time></trkpt><trkpt lat="45.69116177825616" lon="10.6651807032443"><ele>108.0</ele><time>2026-03-29T15:03:22Z</time></trkpt><trkpt lat="45.69111112232174" lon="10.665096697662415"><ele>108.0</ele><time>2026-03-29T15:03:23Z</time></trkpt><trkpt lat="45.6910658253659" lon="10.66502162686807"><ele>108.0</ele><time>2026-03-29T15:03:24Z</time></trkpt><trkpt lat="45.691011577568126" lon="10.664931721162207"><ele>106.66666666666667</ele><time>2026-03-29T15:03:25Z</time></trkpt><trkpt lat="45.69095489597707" lon="10.664836849924141"><ele>105.33333333333334</ele><time>2026-03-29T15:03:26Z</time></trkpt><trkpt lat="45.69089707765697" lon="10.664742194279366"><ele>104.0</ele><time>2026-03-29T15:03:27Z</time></trkpt><trkpt lat="45.690853272115696" lon="10.664670554501638"><ele>102.66666666666667</ele><time>2026-03-29T15:03:28Z</time></trkpt><trkpt lat="45.690809177389745" lon="10.664599475916482"><ele>101.33333333333334</ele><time>2026-03-29T15:03:31Z</time></trkpt><trkpt lat="45.69075721672584" lon="10.664522502052128"><ele>100.0</ele><time>2026-03-29T15:03:33Z</time></trkpt><trkpt lat="45.69067823231212" lon="10.664487541585268"><ele>100.83333333333334</ele><time>2026-03-29T15:03:35Z</time></trkpt><trkpt lat="45.690655112926784" lon="10.66439957963917"><ele>101.66666666666667</ele><time>2026-03-29T15:03:36Z</time></trkpt><trkpt lat="45.690589397234696" lon="10.664346312910888"><ele>102.5</ele><time>2026-03-29T15:03:37Z</time></trkpt><trkpt lat="45.690526920315534" lon="10.66430177095728"><ele>103.33333333333334</ele><time>2026-03-29T15:03:38Z</time></trkpt><trkpt lat="45.69044842923267" lon="10.664262084548152"><ele>104.16666666666667</ele><time>2026-03-29T15:03:39Z</time></trkpt><trkpt lat="45.690380210725834" lon="10.664237162658363"><ele>105.0</ele><time>2026-03-29T15:03:40Z</time></trkpt><trkpt lat="45.69029397145026" lon="10.664229877025221"><ele>103.8</ele><time>2026-03-29T15:03:41Z</time></trkpt><trkpt lat="45.69021635966356" lon="10.664203132899784"><ele>102.6</ele><time>2026-03-29T15:03:42Z</time></trkpt><trkpt lat="45.69013454992002" lon="10.664167263167878"><ele>101.4</ele><time>2026-03-29T15:03:43Z</time></trkpt><trkpt lat="45.69004429939339" lon="10.664135366438769"><ele>100.2</ele><time>2026-03-29T15:03:44Z</time></trkpt><trkpt lat="45.689948719335064" lon="10.66410134880052"><ele>99.0</ele><time>2026-03-29T15:03:45Z</time></trkpt><trkpt lat="45.68985258299421" lon="10.664063963542057"><ele>99.0</ele><time>2026-03-29T15:03:46Z</time></trkpt><trkpt lat="45.68974933950977" lon="10.66401019635164"><ele>99.0</ele><time>2026-03-29T15:03:47Z</time></trkpt><trkpt lat="45.68965122487795" lon="10.663944728140946"><ele>99.0</ele><time>2026-03-29T15:03:48Z</time></trkpt><trkpt lat="45.68956131868206" lon="10.66384496544711"><ele>99.0</ele><time>2026-03-29T15:03:49Z</time></trkpt><trkpt lat="45.68950011815272" lon="10.663714867923726"><ele>99.0</ele><time>2026-03-29T15:03:50Z</time></trkpt><trkpt lat="45.68943405730475" lon="10.663600890623124"><ele>96.6</ele><time>2026-03-29T15:03:51Z</time></trkpt><trkpt lat="45.68937028225552" lon="10.663477185913068"><ele>94.2</ele><time>2026-03-29T15:03:52Z</time></trkpt><trkpt lat="45.6893058102637" lon="10.663350522936048"><ele>91.8</ele><time>2026-03-29T15:03:53Z</time></trkpt><trkpt lat="45.689244791537185" lon="10.663228559362501"><ele>89.39999999999999</ele><time>2026-03-29T15:03:54Z</time></trkpt><trkpt lat="45.689186821377405" lon="10.663111968664737"><ele>87.0</ele><time>2026-03-29T15:03:55Z</time></trkpt><trkpt lat="45.6891329803941" lon="10.663003223835013"><ele>87.0</ele><time>2026-03-29T15:03:56Z</time></trkpt><trkpt lat="45.68907668171513" lon="10.662889747441731"><ele>87.0</ele><time>2026-03-29T15:03:57Z</time></trkpt><trkpt lat="45.689015337512934" lon="10.66276610108726"><ele>87.0</ele><time>2026-03-29T15:03:58Z</time></trkpt><trkpt lat="45.68895225651222" lon="10.66264092442309"><ele>87.0</ele><time>2026-03-29T15:03:59Z</time></trkpt><trkpt lat="45.688890741109326" lon="10.662520284364817"><ele>87.0</ele><time>2026-03-29T15:04:00Z</time></trkpt><trkpt lat="45.68881480007679" lon="10.662416698496708"><ele>87.19999999999999</ele><time>2026-03-29T15:04:01Z</time></trkpt><trkpt lat="45.688756511154104" lon="10.662301326240634"><ele>87.4</ele><time>2026-03-29T15:04:02Z</time></trkpt><trkpt lat="45.68868458073281" lon="10.662183495028621"><ele>87.6</ele><time>2026-03-29T15:04:03Z</time></trkpt><trkpt lat="45.68861428134881" lon="10.66205785190471"><ele>87.80000000000001</ele><time>2026-03-29T15:04:04Z</time></trkpt><trkpt lat="45.688537384033765" lon="10.661929106884003"><ele>88.0</ele><time>2026-03-29T15:04:05Z</time></trkpt><trkpt lat="45.68846677552311" lon="10.661782887094159"><ele>88.0</ele><time>2026-03-29T15:04:06Z</time></trkpt><trkpt lat="45.688381041517985" lon="10.66165579931525"><ele>88.0</ele><time>2026-03-29T15:04:07Z</time></trkpt><trkpt lat="45.68828522018636" lon="10.661527893824807"><ele>88.0</ele><time>2026-03-29T15:04:08Z</time></trkpt><trkpt lat="45.688187111435084" lon="10.661388638134264"><ele>88.0</ele><time>2026-03-29T15:04:09Z</time></trkpt><trkpt lat="45.688089573077775" lon="10.661262257979345"><ele>88.0</ele><time>2026-03-29T15:04:10Z</time></trkpt><trkpt lat="45.687996366671996" lon="10.661148128180507"><ele>88.0</ele><time>2026-03-29T15:04:11Z</time></trkpt><trkpt lat="45.68789552982311" lon="10.661047239283814"><ele>88.0</ele><time>2026-03-29T15:04:12Z</time></trkpt><trkpt lat="45.68779116131534" lon="10.660949832344318"><ele>88.0</ele><time>2026-03-29T15:04:13Z</time></trkpt><trkpt lat="45.68768511617648" lon="10.660847280205521"><ele>86.0</ele><time>2026-03-29T15:04:14Z</time></trkpt><trkpt lat="45.6875701408688" lon="10.660762189469764"><ele>84.0</ele><time>2026-03-29T15:04:15Z</time></trkpt><trkpt lat="45.68744249588276" lon="10.660673464970532"><ele>82.0</ele><time>2026-03-29T15:04:16Z</time></trkpt><trkpt lat="45.68731673907487" lon="10.660596435344447"><ele>80.0</ele><time>2026-03-29T15:04:17Z</time></trkpt><trkpt lat="45.68719092290036" lon="10.660516989382899"><ele>80.0</ele><time>2026-03-29T15:04:18Z</time></trkpt><trkpt lat="45.68705591456027" lon="10.660437136104964"><ele>80.0</ele><time>2026-03-29T15:04:19Z</time></trkpt><trkpt lat="45.68693167112095" lon="10.660357722905813"><ele>80.0</ele><time>2026-03-29T15:04:20Z</time></trkpt><trkpt lat="45.686816996573995" lon="10.660293449398914"><ele>80.0</ele><time>2026-03-29T15:04:21Z</time></trkpt><trkpt lat="45.686697472555394" lon="10.660218074723035"><ele>81.0</ele><time>2026-03-29T15:04:22Z</time></trkpt><trkpt lat="45.68657654898855" lon="10.660141108355518"><ele>82.0</ele><time>2026-03-29T15:04:23Z</time></trkpt><trkpt lat="45.68646317734219" lon="10.660068925155997"><ele>83.0</ele><time>2026-03-29T15:04:24Z</time></trkpt><trkpt lat="45.68635180115816" lon="10.659997277487209"><ele>84.0</ele><time>2026-03-29T15:04:25Z</time></trkpt><trkpt lat="45.6862399252804" lon="10.659918670217149"><ele>84.0</ele><time>2026-03-29T15:04:26Z</time></trkpt><trkpt lat="45.686131545277526" lon="10.659837757224622"><ele>84.0</ele><time>2026-03-29T15:04:27Z</time></trkpt><trkpt lat="45.68602458136439" lon="10.659749995481754"><ele>84.0</ele><time>2026-03-29T15:04:27.999Z</time></trkpt><trkpt lat="45.68593312366428" lon="10.659628882511663"><ele>84.0</ele><time>2026-03-29T15:04:28.999Z</time></trkpt><trkpt lat="45.6858255239001" lon="10.659528200235913"><ele>84.75</ele><time>2026-03-29T15:04:29.999Z</time></trkpt><trkpt lat="45.68571738808306" lon="10.659425478888945"><ele>85.5</ele><time>2026-03-29T15:04:30.999Z</time></trkpt><trkpt lat="45.68560627435556" lon="10.659319367236364"><ele>86.25</ele><time>2026-03-29T15:04:31.999Z</time></trkpt><trkpt lat="45.68549289939332" lon="10.659213893455474"><ele>87.0</ele><time>2026-03-29T15:04:32.999Z</time></trkpt><trkpt lat="45.685375340183214" lon="10.65910873721899"><ele>87.0</ele><time>2026-03-29T15:04:33.999Z</time></trkpt><trkpt lat="45.68526402756481" lon="10.659004811569176"><ele>87.0</ele><time>2026-03-29T15:04:34.999Z</time></trkpt><trkpt lat="45.685151636908515" lon="10.658898695023403"><ele>87.0</ele><time>2026-03-29T15:04:35.999Z</time></trkpt><trkpt lat="45.685037427188234" lon="10.658792881769253"><ele>87.0</ele><time>2026-03-29T15:04:36.999Z</time></trkpt><trkpt lat="45.68493963439451" lon="10.658681888399899"><ele>87.5</ele><time>2026-03-29T15:04:37.999Z</time></trkpt><trkpt lat="45.68484586499711" lon="10.65859295154203"><ele>88.0</ele><time>2026-03-29T15:04:38.999Z</time></trkpt><trkpt lat="45.684753188851346" lon="10.65850708012148"><ele>88.5</ele><time>2026-03-29T15:04:39.999Z</time></trkpt><trkpt lat="45.684652279054134" lon="10.658419312760508"><ele>89.0</ele><time>2026-03-29T15:04:40.999Z</time></trkpt><trkpt lat="45.68455461814173" lon="10.658325304257144"><ele>89.0</ele><time>2026-03-29T15:04:41.999Z</time></trkpt><trkpt lat="45.684452737723156" lon="10.658229564230608"><ele>89.0</ele><time>2026-03-29T15:04:42.999Z</time></trkpt><trkpt lat="45.684341052887476" lon="10.658131260101747"><ele>89.0</ele><time>2026-03-29T15:04:43.999Z</time></trkpt><trkpt lat="45.68424175572131" lon="10.65804199138768"><ele>89.0</ele><time>2026-03-29T15:04:44.999Z</time></trkpt><trkpt lat="45.68414541699299" lon="10.657948279235194"><ele>88.5</ele><time>2026-03-29T15:04:45.999Z</time></trkpt><trkpt lat="45.684037623294806" lon="10.657848410564409"><ele>88.0</ele><time>2026-03-29T15:04:46.999Z</time></trkpt><trkpt lat="45.68392154845483" lon="10.657743210744794"><ele>87.5</ele><time>2026-03-29T15:04:47.999Z</time></trkpt><trkpt lat="45.68381845292889" lon="10.657611611121785"><ele>87.0</ele><time>2026-03-29T15:04:48.999Z</time></trkpt><trkpt lat="45.683720706789536" lon="10.657509861782236"><ele>87.0</ele><time>2026-03-29T15:04:49.999Z</time></trkpt><trkpt lat="45.68362680689574" lon="10.657396325775563"><ele>87.0</ele><time>2026-03-29T15:04:50.999Z</time></trkpt><trkpt lat="45.68353417342583" lon="10.657268219972726"><ele>87.0</ele><time>2026-03-29T15:04:51.999Z</time></trkpt><trkpt lat="45.68343956405156" lon="10.657134070275369"><ele>87.0</ele><time>2026-03-29T15:04:52.999Z</time></trkpt><trkpt lat="45.6833393445831" lon="10.656992801412985"><ele>86.0</ele><time>2026-03-29T15:04:53.999Z</time></trkpt><trkpt lat="45.68323725630156" lon="10.656848620614355"><ele>85.0</ele><time>2026-03-29T15:04:54.999Z</time></trkpt><trkpt lat="45.68314314343227" lon="10.656717000455597"><ele>84.0</ele><time>2026-03-29T15:04:55.999Z</time></trkpt><trkpt lat="45.68305329961324" lon="10.6565915506591"><ele>83.0</ele><time>2026-03-29T15:04:56.999Z</time></trkpt><trkpt lat="45.68296339211756" lon="10.65646453841042"><ele>83.0</ele><time>2026-03-29T15:04:57.999Z</time></trkpt><trkpt lat="45.68287162896799" lon="10.65633443803517"><ele>83.0</ele><time>2026-03-29T15:04:58.999Z</time></trkpt><trkpt lat="45.68278377525611" lon="10.656209880223772"><ele>83.0</ele><time>2026-03-29T15:04:59.999Z</time></trkpt><trkpt lat="45.682695058438064" lon="10.656084098932462"><ele>83.0</ele><time>2026-03-29T15:05:00.999Z</time></trkpt><trkpt lat="45.68260724275229" lon="10.655959595148827"><ele>82.0</ele><time>2026-03-29T15:05:01.999Z</time></trkpt><trkpt lat="45.682518712825974" lon="10.655834078725006"><ele>81.0</ele><time>2026-03-29T15:05:02.999Z</time></trkpt><trkpt lat="45.6824286468049" lon="10.655706442539087"><ele>80.0</ele><time>2026-03-29T15:05:03.999Z</time></trkpt><trkpt lat="45.6823367574269" lon="10.65557688740274"><ele>79.0</ele><time>2026-03-29T15:05:04.999Z</time></trkpt><trkpt lat="45.68224297755899" lon="10.655444666708444"><ele>79.0</ele><time>2026-03-29T15:05:05.999Z</time></trkpt><trkpt lat="45.68214974509422" lon="10.655313217870972"><ele>79.0</ele><time>2026-03-29T15:05:06.999Z</time></trkpt><trkpt lat="45.682059094112915" lon="10.655181050148293"><ele>79.0</ele><time>2026-03-29T15:05:07.999Z</time></trkpt><trkpt lat="45.68196309828156" lon="10.655048522416203"><ele>79.0</ele><time>2026-03-29T15:05:08.999Z</time></trkpt><trkpt lat="45.681863518821025" lon="10.65492239240288"><ele>77.75</ele><time>2026-03-29T15:05:09.999Z</time></trkpt><trkpt lat="45.68176289826319" lon="10.654801436003847"><ele>76.5</ele><time>2026-03-29T15:05:10.999Z</time></trkpt><trkpt lat="45.681653024009194" lon="10.654694879159628"><ele>75.25</ele><time>2026-03-29T15:05:11.999Z</time></trkpt><trkpt lat="45.68154316255082" lon="10.654601332857697"><ele>74.0</ele><time>2026-03-29T15:05:12.999Z</time></trkpt><trkpt lat="45.681422252757706" lon="10.654527213875618"><ele>74.0</ele><time>2026-03-29T15:05:13.999Z</time></trkpt><trkpt lat="45.681307262911766" lon="10.654455439886044"><ele>74.0</ele><time>2026-03-29T15:05:14.999Z</time></trkpt><trkpt lat="45.681191840985534" lon="10.654392297068327"><ele>74.0</ele><time>2026-03-29T15:05:15.999Z</time></trkpt><trkpt lat="45.68107967037894" lon="10.654309766465724"><ele>74.0</ele><time>2026-03-29T15:05:16.999Z</time></trkpt><trkpt lat="45.68094525973614" lon="10.654289525704268"><ele>74.25</ele><time>2026-03-29T15:05:17.999Z</time></trkpt><trkpt lat="45.68080976375745" lon="10.654250094492618"><ele>74.5</ele><time>2026-03-29T15:05:18.999Z</time></trkpt><trkpt lat="45.68067665939153" lon="10.654221892608541"><ele>74.75</ele><time>2026-03-29T15:05:19.999Z</time></trkpt><trkpt lat="45.68054377481874" lon="10.654168073680836"><ele>75.0</ele><time>2026-03-29T15:05:20.999Z</time></trkpt><trkpt lat="45.680422011334734" lon="10.654140567205113"><ele>75.0</ele><time>2026-03-29T15:05:21.999Z</time></trkpt><trkpt lat="45.68030336084777" lon="10.654113925710146"><ele>75.0</ele><time>2026-03-29T15:05:22.999Z</time></trkpt><trkpt lat="45.680180072844635" lon="10.65411002109645"><ele>75.0</ele><time>2026-03-29T15:05:24Z</time></trkpt><trkpt lat="45.68005613491342" lon="10.654058414208396"><ele>75.0</ele><time>2026-03-29T15:05:25Z</time></trkpt><trkpt lat="45.6799291573099" lon="10.654029479091186"><ele>73.75</ele><time>2026-03-29T15:05:26Z</time></trkpt><trkpt lat="45.67979901945553" lon="10.65399996418356"><ele>72.5</ele><time>2026-03-29T15:05:27Z</time></trkpt><trkpt lat="45.67967062139144" lon="10.65397256640471"><ele>71.25</ele><time>2026-03-29T15:05:28Z</time></trkpt><trkpt lat="45.6795489118717" lon="10.653946595840216"><ele>70.0</ele><time>2026-03-29T15:05:29Z</time></trkpt><trkpt lat="45.679424335292964" lon="10.653920387159955"><ele>69.25</ele><time>2026-03-29T15:05:30Z</time></trkpt><trkpt lat="45.679305981270396" lon="10.653893134181299"><ele>68.5</ele><time>2026-03-29T15:05:31Z</time></trkpt><trkpt lat="45.67918379987718" lon="10.653864923753279"><ele>67.75</ele><time>2026-03-29T15:05:32Z</time></trkpt><trkpt lat="45.679070270109975" lon="10.653838710917558"><ele>67.0</ele><time>2026-03-29T15:05:33Z</time></trkpt><trkpt lat="45.67895123931421" lon="10.653811498664849"><ele>67.0</ele><time>2026-03-29T15:05:34Z</time></trkpt><trkpt lat="45.678836239429124" lon="10.653785307133008"><ele>67.0</ele><time>2026-03-29T15:05:35Z</time></trkpt><trkpt lat="45.6787158379445" lon="10.653757565023783"><ele>67.0</ele><time>2026-03-29T15:05:36Z</time></trkpt><trkpt lat="45.67861264195655" lon="10.653733476921335"><ele>67.0</ele><time>2026-03-29T15:05:37Z</time></trkpt><trkpt lat="45.678499418169" lon="10.653707048124847"><ele>66.25</ele><time>2026-03-29T15:05:38Z</time></trkpt><trkpt lat="45.678380520508725" lon="10.653677182555475"><ele>65.5</ele><time>2026-03-29T15:05:39Z</time></trkpt><trkpt lat="45.67825395521145" lon="10.653644580702673"><ele>64.75</ele><time>2026-03-29T15:05:40Z</time></trkpt><trkpt lat="45.678135730361596" lon="10.653606204614896"><ele>64.0</ele><time>2026-03-29T15:05:41Z</time></trkpt><trkpt lat="45.67801602186645" lon="10.65355514004834"><ele>65.5</ele><time>2026-03-29T15:05:42Z</time></trkpt><trkpt lat="45.67789228868231" lon="10.653494596310814"><ele>67.0</ele><time>2026-03-29T15:05:43Z</time></trkpt><trkpt lat="45.67776587767478" lon="10.65342256071238"><ele>68.5</ele><time>2026-03-29T15:05:44Z</time></trkpt><trkpt lat="45.677656164412255" lon="10.653351986742093"><ele>70.0</ele><time>2026-03-29T15:05:45Z</time></trkpt><trkpt lat="45.67754644218854" lon="10.653276103269144"><ele>70.0</ele><time>2026-03-29T15:05:46Z</time></trkpt><trkpt lat="45.67743377463733" lon="10.653191951073717"><ele>70.0</ele><time>2026-03-29T15:05:47Z</time></trkpt><trkpt lat="45.677319681181736" lon="10.653105802657016"><ele>70.0</ele><time>2026-03-29T15:05:48Z</time></trkpt><trkpt lat="45.67719918387524" lon="10.65301347989591"><ele>70.0</ele><time>2026-03-29T15:05:49Z</time></trkpt><trkpt lat="45.677097056305996" lon="10.652936674801273"><ele>70.0</ele><time>2026-03-29T15:05:50Z</time></trkpt><trkpt lat="45.67699351471454" lon="10.652861519400291"><ele>70.0</ele><time>2026-03-29T15:05:51Z</time></trkpt><trkpt lat="45.67688299172176" lon="10.652780482657167"><ele>70.0</ele><time>2026-03-29T15:05:52Z</time></trkpt><trkpt lat="45.67677628775831" lon="10.65269754397546"><ele>70.0</ele><time>2026-03-29T15:05:53Z</time></trkpt><trkpt lat="45.67666538499964" lon="10.652605123965023"><ele>71.33333333333333</ele><time>2026-03-29T15:05:54Z</time></trkpt><trkpt lat="45.67654748804054" lon="10.65248479123782"><ele>72.66666666666667</ele><time>2026-03-29T15:05:55Z</time></trkpt><trkpt lat="45.67642389053044" lon="10.652328916826653"><ele>74.0</ele><time>2026-03-29T15:05:56Z</time></trkpt><trkpt lat="45.67630818437176" lon="10.65218047392722"><ele>74.0</ele><time>2026-03-29T15:05:57Z</time></trkpt><trkpt lat="45.67619806221993" lon="10.652043811784484"><ele>74.0</ele><time>2026-03-29T15:05:58Z</time></trkpt><trkpt lat="45.6760763333746" lon="10.65191731574581"><ele>74.0</ele><time>2026-03-29T15:05:59Z</time></trkpt><trkpt lat="45.67596885315378" lon="10.651794676946228"><ele>74.0</ele><time>2026-03-29T15:06:00Z</time></trkpt><trkpt lat="45.67587177643034" lon="10.651643837775945"><ele>74.5</ele><time>2026-03-29T15:06:01Z</time></trkpt><trkpt lat="45.67576482931397" lon="10.651511395997234"><ele>75.0</ele><time>2026-03-29T15:06:02Z</time></trkpt><trkpt lat="45.675657335313325" lon="10.651378276939734"><ele>75.5</ele><time>2026-03-29T15:06:03Z</time></trkpt><trkpt lat="45.67555130823399" lon="10.651246983249017"><ele>76.0</ele><time>2026-03-29T15:06:04Z</time></trkpt><trkpt lat="45.675448239555614" lon="10.65111912751299"><ele>76.5</ele><time>2026-03-29T15:06:05Z</time></trkpt><trkpt lat="45.67535807845692" lon="10.651008213186735"><ele>77.0</ele><time>2026-03-29T15:06:06Z</time></trkpt><trkpt lat="45.67526930303185" lon="10.650898838162888"><ele>77.5</ele><time>2026-03-29T15:06:07Z</time></trkpt><trkpt lat="45.67517242405561" lon="10.650807435946817"><ele>78.0</ele><time>2026-03-29T15:06:08Z</time></trkpt><trkpt lat="45.67509981351106" lon="10.650707138129288"><ele>78.0</ele><time>2026-03-29T15:06:09Z</time></trkpt><trkpt lat="45.67503189054381" lon="10.650620509973397"><ele>78.0</ele><time>2026-03-29T15:06:10Z</time></trkpt><trkpt lat="45.67495891008153" lon="10.650564368720607"><ele>78.0</ele><time>2026-03-29T15:06:11Z</time></trkpt><trkpt lat="45.67487717200941" lon="10.650530723543572"><ele>78.0</ele><time>2026-03-29T15:06:12Z</time></trkpt><trkpt lat="45.67479758241222" lon="10.650461346683793"><ele>78.0</ele><time>2026-03-29T15:06:13Z</time></trkpt><trkpt lat="45.674711779523115" lon="10.650440766845835"><ele>78.0</ele><time>2026-03-29T15:06:14Z</time></trkpt><trkpt lat="45.67458838163506" lon="10.650395339942905"><ele>78.0</ele><time>2026-03-29T15:06:16Z</time></trkpt><trkpt lat="45.67453245322756" lon="10.650337828683064"><ele>78.0</ele><time>2026-03-29T15:06:17Z</time></trkpt><trkpt lat="45.674463446709936" lon="10.650262884357126"><ele>78.0</ele><time>2026-03-29T15:06:19Z</time></trkpt><trkpt lat="45.674384713099805" lon="10.650172534426614"><ele>78.0</ele><time>2026-03-29T15:06:21Z</time></trkpt><trkpt lat="45.67429674623027" lon="10.650222904529754"><ele>78.0</ele><time>2026-03-29T15:06:23Z</time></trkpt><trkpt lat="45.67425294271753" lon="10.650306791085898"><ele>78.0</ele><time>2026-03-29T15:06:24Z</time></trkpt><trkpt lat="45.67417808549791" lon="10.650379092726794"><ele>77.25</ele><time>2026-03-29T15:06:25Z</time></trkpt><trkpt lat="45.674082313430944" lon="10.650405625017529"><ele>76.5</ele><time>2026-03-29T15:06:26Z</time></trkpt><trkpt lat="45.67397564323485" lon="10.650452031041624"><ele>75.75</ele><time>2026-03-29T15:06:27Z</time></trkpt><trkpt lat="45.673854038187805" lon="10.650511975515737"><ele>75.0</ele><time>2026-03-29T15:06:28Z</time></trkpt><trkpt lat="45.67373051585894" lon="10.650577255333905"><ele>75.0</ele><time>2026-03-29T15:06:28.999Z</time></trkpt><trkpt lat="45.673611098464654" lon="10.650642556873606"><ele>75.0</ele><time>2026-03-29T15:06:29.999Z</time></trkpt><trkpt lat="45.67349706757121" lon="10.650729104171269"><ele>75.0</ele><time>2026-03-29T15:06:30.999Z</time></trkpt><trkpt lat="45.673375160380544" lon="10.650782422500576"><ele>75.0</ele><time>2026-03-29T15:06:31.999Z</time></trkpt><trkpt lat="45.673263823431796" lon="10.650840333517442"><ele>75.25</ele><time>2026-03-29T15:06:32.999Z</time></trkpt><trkpt lat="45.673146988936956" lon="10.650900583874344"><ele>75.5</ele><time>2026-03-29T15:06:33.999Z</time></trkpt><trkpt lat="45.673028246992374" lon="10.650960124248284"><ele>75.75</ele><time>2026-03-29T15:06:34.999Z</time></trkpt><trkpt lat="45.672906987736795" lon="10.651025315968502"><ele>76.0</ele><time>2026-03-29T15:06:35.999Z</time></trkpt><trkpt lat="45.67278377315495" lon="10.651092025380375"><ele>75.5</ele><time>2026-03-29T15:06:36.999Z</time></trkpt><trkpt lat="45.67265995884106" lon="10.651157662313455"><ele>75.0</ele><time>2026-03-29T15:06:37.999Z</time></trkpt><trkpt lat="45.672536586102275" lon="10.651223688246883"><ele>74.5</ele><time>2026-03-29T15:06:38.999Z</time></trkpt><trkpt lat="45.67241489213896" lon="10.651292827703909"><ele>74.0</ele><time>2026-03-29T15:06:39.999Z</time></trkpt><trkpt lat="45.672285886712544" lon="10.65135840820055"><ele>74.0</ele><time>2026-03-29T15:06:40.999Z</time></trkpt><trkpt lat="45.67215187554066" lon="10.651421663244857"><ele>74.0</ele><time>2026-03-29T15:06:41.999Z</time></trkpt><trkpt lat="45.672014163962" lon="10.651479018886432"><ele>74.0</ele><time>2026-03-29T15:06:42.999Z</time></trkpt><trkpt lat="45.6718911400286" lon="10.651520658602992"><ele>74.0</ele><time>2026-03-29T15:06:43.999Z</time></trkpt><trkpt lat="45.67176117171404" lon="10.65152287457356"><ele>74.75</ele><time>2026-03-29T15:06:44.999Z</time></trkpt><trkpt lat="45.67162790890187" lon="10.651531602434968"><ele>75.5</ele><time>2026-03-29T15:06:45.999Z</time></trkpt><trkpt lat="45.67149268105941" lon="10.651544195129283"><ele>76.25</ele><time>2026-03-29T15:06:46.999Z</time></trkpt><trkpt lat="45.67135304556107" lon="10.651533196268483"><ele>77.0</ele><time>2026-03-29T15:06:47.999Z</time></trkpt><trkpt lat="45.67121541428464" lon="10.651466246333417"><ele>76.75</ele><time>2026-03-29T15:06:48.999Z</time></trkpt><trkpt lat="45.67106909226643" lon="10.6514343954599"><ele>76.5</ele><time>2026-03-29T15:06:49.999Z</time></trkpt><trkpt lat="45.67092655705293" lon="10.651371194968993"><ele>76.25</ele><time>2026-03-29T15:06:50.999Z</time></trkpt><trkpt lat="45.670797319412465" lon="10.651316555631132"><ele>76.0</ele><time>2026-03-29T15:06:51.999Z</time></trkpt><trkpt lat="45.67069900169802" lon="10.651223679699624"><ele>78.25</ele><time>2026-03-29T15:06:52.999Z</time></trkpt><trkpt lat="45.67059870156115" lon="10.651124035901788"><ele>80.5</ele><time>2026-03-29T15:06:53.999Z</time></trkpt><trkpt lat="45.670500964687406" lon="10.651008137839966"><ele>82.75</ele><time>2026-03-29T15:06:54.999Z</time></trkpt><trkpt lat="45.67040025448998" lon="10.650881323302414"><ele>85.0</ele><time>2026-03-29T15:06:55.999Z</time></trkpt><trkpt lat="45.670296125844594" lon="10.65075099402677"><ele>83.5</ele><time>2026-03-29T15:06:56.999Z</time></trkpt><trkpt lat="45.6701919916546" lon="10.650621381830861"><ele>82.0</ele><time>2026-03-29T15:06:57.999Z</time></trkpt><trkpt lat="45.6700965002979" lon="10.650511952911241"><ele>80.5</ele><time>2026-03-29T15:06:58.999Z</time></trkpt><trkpt lat="45.67000304478821" lon="10.65042373984596"><ele>79.0</ele><time>2026-03-29T15:06:59.999Z</time></trkpt><trkpt lat="45.669906246494456" lon="10.65034522507318"><ele>78.75</ele><time>2026-03-29T15:07:00.999Z</time></trkpt><trkpt lat="45.66979340791774" lon="10.650291044526728"><ele>78.5</ele><time>2026-03-29T15:07:01.999Z</time></trkpt><trkpt lat="45.66968072721468" lon="10.650219801188118"><ele>78.25</ele><time>2026-03-29T15:07:02.999Z</time></trkpt><trkpt lat="45.66956111247744" lon="10.650148292089465"><ele>78.0</ele><time>2026-03-29T15:07:03.999Z</time></trkpt><trkpt lat="45.66942825475346" lon="10.650075865933232"><ele>78.0</ele><time>2026-03-29T15:07:04.999Z</time></trkpt><trkpt lat="45.66928849700362" lon="10.650006124499269"><ele>78.0</ele><time>2026-03-29T15:07:05.999Z</time></trkpt><trkpt lat="45.669142047750725" lon="10.64993313889584"><ele>78.0</ele><time>2026-03-29T15:07:06.999Z</time></trkpt><trkpt lat="45.668995221180175" lon="10.649831924597551"><ele>78.0</ele><time>2026-03-29T15:07:07.999Z</time></trkpt><trkpt lat="45.66883986536499" lon="10.649748515466829"><ele>78.0</ele><time>2026-03-29T15:07:08.999Z</time></trkpt><trkpt lat="45.66868741221604" lon="10.649677471370234"><ele>78.0</ele><time>2026-03-29T15:07:09.999Z</time></trkpt><trkpt lat="45.66855359601955" lon="10.649600075448975"><ele>76.5</ele><time>2026-03-29T15:07:10.999Z</time></trkpt><trkpt lat="45.66841882957925" lon="10.649532217929009"><ele>75.0</ele><time>2026-03-29T15:07:11.999Z</time></trkpt><trkpt lat="45.668275092467645" lon="10.649461341595718"><ele>73.5</ele><time>2026-03-29T15:07:12.999Z</time></trkpt><trkpt lat="45.66815020138373" lon="10.649396083609329"><ele>72.0</ele><time>2026-03-29T15:07:13.999Z</time></trkpt><trkpt lat="45.66803371611197" lon="10.649333882148783"><ele>73.5</ele><time>2026-03-29T15:07:14.999Z</time></trkpt><trkpt lat="45.667931424555334" lon="10.649240851210218"><ele>75.0</ele><time>2026-03-29T15:07:15.999Z</time></trkpt><trkpt lat="45.66782712384079" lon="10.649146298586524"><ele>76.5</ele><time>2026-03-29T15:07:16.999Z</time></trkpt><trkpt lat="45.667726724923895" lon="10.649033944828757"><ele>78.0</ele><time>2026-03-29T15:07:17.999Z</time></trkpt><trkpt lat="45.66761921180478" lon="10.64890229580143"><ele>78.0</ele><time>2026-03-29T15:07:18.999Z</time></trkpt><trkpt lat="45.66750784295695" lon="10.648762006264588"><ele>78.0</ele><time>2026-03-29T15:07:19.999Z</time></trkpt><trkpt lat="45.66740299133114" lon="10.64862710344916"><ele>78.0</ele><time>2026-03-29T15:07:20.999Z</time></trkpt><trkpt lat="45.667292351344926" lon="10.648485493447367"><ele>78.0</ele><time>2026-03-29T15:07:21.999Z</time></trkpt><trkpt lat="45.6671964647538" lon="10.648363106888345"><ele>79.25</ele><time>2026-03-29T15:07:22.999Z</time></trkpt><trkpt lat="45.66710926155215" lon="10.648251803299328"><ele>80.5</ele><time>2026-03-29T15:07:23.999Z</time></trkpt><trkpt lat="45.66701479602166" lon="10.648136996963132"><ele>81.75</ele><time>2026-03-29T15:07:24.999Z</time></trkpt><trkpt lat="45.66690241340929" lon="10.648018636834996"><ele>83.0</ele><time>2026-03-29T15:07:25.999Z</time></trkpt><trkpt lat="45.666761883958365" lon="10.647925676298781"><ele>83.0</ele><time>2026-03-29T15:07:26.999Z</time></trkpt><trkpt lat="45.66662694350538" lon="10.64785648968201"><ele>83.0</ele><time>2026-03-29T15:07:27.999Z</time></trkpt><trkpt lat="45.666502667863874" lon="10.647788793012875"><ele>83.0</ele><time>2026-03-29T15:07:28.999Z</time></trkpt><trkpt lat="45.66638423730874" lon="10.64769804049659"><ele>83.0</ele><time>2026-03-29T15:07:30Z</time></trkpt><trkpt lat="45.666260843035104" lon="10.647615602407303"><ele>83.25</ele><time>2026-03-29T15:07:31Z</time></trkpt><trkpt lat="45.666150477572025" lon="10.64751979882068"><ele>83.5</ele><time>2026-03-29T15:07:32Z</time></trkpt><trkpt lat="45.66604622578178" lon="10.647437735462784"><ele>83.75</ele><time>2026-03-29T15:07:33Z</time></trkpt><trkpt lat="45.66593752796682" lon="10.647350250288603"><ele>84.0</ele><time>2026-03-29T15:07:34Z</time></trkpt><trkpt lat="45.66583589062919" lon="10.647269211278171"><ele>84.0</ele><time>2026-03-29T15:07:35Z</time></trkpt><trkpt lat="45.66574034233964" lon="10.647186695098283"><ele>84.0</ele><time>2026-03-29T15:07:36Z</time></trkpt><trkpt lat="45.66564845380732" lon="10.647085865703055"><ele>84.0</ele><time>2026-03-29T15:07:37Z</time></trkpt><trkpt lat="45.66554594247849" lon="10.646984687139506"><ele>84.0</ele><time>2026-03-29T15:07:38Z</time></trkpt><trkpt lat="45.665440915906856" lon="10.646865361698948"><ele>82.5</ele><time>2026-03-29T15:07:39Z</time></trkpt><trkpt lat="45.66534493697682" lon="10.64674786735115"><ele>81.0</ele><time>2026-03-29T15:07:40Z</time></trkpt><trkpt lat="45.66525926600385" lon="10.646628454334596"><ele>79.5</ele><time>2026-03-29T15:07:41Z</time></trkpt><trkpt lat="45.66519416218103" lon="10.646482094839987"><ele>78.0</ele><time>2026-03-29T15:07:42Z</time></trkpt><trkpt lat="45.6651226110846" lon="10.646330852001856"><ele>78.0</ele><time>2026-03-29T15:07:43Z</time></trkpt><trkpt lat="45.665046368744605" lon="10.646166477251453"><ele>78.0</ele><time>2026-03-29T15:07:44Z</time></trkpt><trkpt lat="45.664954311540676" lon="10.646015179289565"><ele>78.0</ele><time>2026-03-29T15:07:45Z</time></trkpt><trkpt lat="45.66486915082305" lon="10.64585998441459"><ele>78.0</ele><time>2026-03-29T15:07:46Z</time></trkpt><trkpt lat="45.66477586053718" lon="10.645720641913433"><ele>82.75</ele><time>2026-03-29T15:07:47Z</time></trkpt><trkpt lat="45.6646910784376" lon="10.645597968466578"><ele>87.5</ele><time>2026-03-29T15:07:48Z</time></trkpt><trkpt lat="45.664602932521454" lon="10.645465365291715"><ele>92.25</ele><time>2026-03-29T15:07:49Z</time></trkpt><trkpt lat="45.664492540318975" lon="10.645360325795396"><ele>97.0</ele><time>2026-03-29T15:07:50Z</time></trkpt><trkpt lat="45.66437208314056" lon="10.645283219651205"><ele>99.0</ele><time>2026-03-29T15:07:51Z</time></trkpt><trkpt lat="45.664251455176256" lon="10.645204975483532"><ele>101.0</ele><time>2026-03-29T15:07:52Z</time></trkpt><trkpt lat="45.664136520057845" lon="10.645149958463948"><ele>103.0</ele><time>2026-03-29T15:07:53Z</time></trkpt><trkpt lat="45.664020762945675" lon="10.645123439183516"><ele>105.0</ele><time>2026-03-29T15:07:54Z</time></trkpt><trkpt lat="45.66392088866083" lon="10.64506034897005"><ele>105.0</ele><time>2026-03-29T15:07:55Z</time></trkpt><trkpt lat="45.663808618593904" lon="10.644986639576517"><ele>105.0</ele><time>2026-03-29T15:07:56Z</time></trkpt><trkpt lat="45.663693456496325" lon="10.644916898132598"><ele>105.0</ele><time>2026-03-29T15:07:57Z</time></trkpt><trkpt lat="45.663578952722894" lon="10.64484624055685"><ele>105.0</ele><time>2026-03-29T15:07:58Z</time></trkpt><trkpt lat="45.66347805153476" lon="10.644739630430921"><ele>105.75</ele><time>2026-03-29T15:07:59Z</time></trkpt><trkpt lat="45.66336920948036" lon="10.64464159966086"><ele>106.5</ele><time>2026-03-29T15:08:00Z</time></trkpt><trkpt lat="45.663276612145445" lon="10.644509798347903"><ele>107.25</ele><time>2026-03-29T15:08:01Z</time></trkpt><trkpt lat="45.66317505895032" lon="10.644390791832738"><ele>108.0</ele><time>2026-03-29T15:08:02Z</time></trkpt><trkpt lat="45.66307716814659" lon="10.644273609672375"><ele>108.0</ele><time>2026-03-29T15:08:03Z</time></trkpt><trkpt lat="45.66298193571088" lon="10.644165587897692"><ele>108.0</ele><time>2026-03-29T15:08:04Z</time></trkpt><trkpt lat="45.66289554212538" lon="10.644060047228516"><ele>108.0</ele><time>2026-03-29T15:08:05Z</time></trkpt><trkpt lat="45.66280881608488" lon="10.643945861263154"><ele>108.0</ele><time>2026-03-29T15:08:06Z</time></trkpt><trkpt lat="45.66272309113192" lon="10.643821594012772"><ele>105.80000000000001</ele><time>2026-03-29T15:08:07Z</time></trkpt><trkpt lat="45.662632186397836" lon="10.643715149608783"><ele>103.60000000000001</ele><time>2026-03-29T15:08:08Z</time></trkpt><trkpt lat="45.66254826324686" lon="10.643624650773106"><ele>101.4</ele><time>2026-03-29T15:08:09Z</time></trkpt><trkpt lat="45.66246684460079" lon="10.643553699901897"><ele>99.19999999999999</ele><time>2026-03-29T15:08:10Z</time></trkpt><trkpt lat="45.6624034456918" lon="10.643474000628453"><ele>97.0</ele><time>2026-03-29T15:08:11Z</time></trkpt><trkpt lat="45.662349935701634" lon="10.643414632979722"><ele>97.0</ele><time>2026-03-29T15:08:12Z</time></trkpt><trkpt lat="45.66228119917421" lon="10.643338371839443"><ele>97.0</ele><time>2026-03-29T15:08:14Z</time></trkpt></trkseg><trkseg><trkpt lat="45.654845203053625" lon="10.633004244911826"><ele>86.0</ele><time>2026-03-29T15:19:57.999Z</time></trkpt><trkpt lat="45.65473823364432" lon="10.63284331718807"><ele>86.0</ele><time>2026-03-29T15:19:58.999Z</time></trkpt><trkpt lat="45.65464970773075" lon="10.632685477349051"><ele>86.0</ele><time>2026-03-29T15:19:59.999Z</time></trkpt><trkpt lat="45.654577752927985" lon="10.63251036597162"><ele>86.0</ele><time>2026-03-29T15:20:00.999Z</time></trkpt><trkpt lat="45.65449855074428" lon="10.632322830582405"><ele>85.0</ele><time>2026-03-29T15:20:01.999Z</time></trkpt><trkpt lat="45.65444588359283" lon="10.632114707144463"><ele>84.0</ele><time>2026-03-29T15:20:02.999Z</time></trkpt><trkpt lat="45.65437251519144" lon="10.631914158041996"><ele>83.0</ele><time>2026-03-29T15:20:03.999Z</time></trkpt><trkpt lat="45.65428835892658" lon="10.631718339201122"><ele>83.0</ele><time>2026-03-29T15:20:04.999Z</time></trkpt><trkpt lat="45.6542031466744" lon="10.631494573383845"><ele>83.0</ele><time>2026-03-29T15:20:06Z</time></trkpt><trkpt lat="45.654116435132046" lon="10.631284314385105"><ele>83.0</ele><time>2026-03-29T15:20:07Z</time></trkpt><trkpt lat="45.65402722688497" lon="10.631053974148285"><ele>88.0</ele><time>2026-03-29T15:20:08Z</time></trkpt><trkpt lat="45.65393384415649" lon="10.630808784703152"><ele>93.0</ele><time>2026-03-29T15:20:09Z</time></trkpt><trkpt lat="45.65383345344325" lon="10.63058348462849"><ele>98.0</ele><time>2026-03-29T15:20:10Z</time></trkpt><trkpt lat="45.65372542225139" lon="10.630359988930593"><ele>94.33333333333333</ele><time>2026-03-29T15:20:11Z</time></trkpt><trkpt lat="45.65360981947789" lon="10.630143112259832"><ele>90.66666666666666</ele><time>2026-03-29T15:20:12Z</time></trkpt><trkpt lat="45.653490623698644" lon="10.629921667192306"><ele>87.0</ele><time>2026-03-29T15:20:13Z</time></trkpt><trkpt lat="45.65337524832867" lon="10.629692446887278"><ele>87.0</ele><time>2026-03-29T15:20:14Z</time></trkpt><trkpt lat="45.6532719627375" lon="10.62950151019941"><ele>87.0</ele><time>2026-03-29T15:20:15Z</time></trkpt><trkpt lat="45.653177644236735" lon="10.629318572007012"><ele>87.0</ele><time>2026-03-29T15:20:16Z</time></trkpt><trkpt lat="45.65308085350596" lon="10.629149083776033"><ele>83.5</ele><time>2026-03-29T15:20:17Z</time></trkpt><trkpt lat="45.652982391752474" lon="10.628986567641764"><ele>80.0</ele><time>2026-03-29T15:20:18Z</time></trkpt><trkpt lat="45.65287813720142" lon="10.628837568927304"><ele>76.5</ele><time>2026-03-29T15:20:19Z</time></trkpt><trkpt lat="45.6527668292232" lon="10.628694150293546"><ele>73.0</ele><time>2026-03-29T15:20:20Z</time></trkpt><trkpt lat="45.652651741337266" lon="10.628567261011185"><ele>84.33333333333333</ele><time>2026-03-29T15:20:21Z</time></trkpt><trkpt lat="45.65249740296413" lon="10.62847523246073"><ele>95.66666666666666</ele><time>2026-03-29T15:20:22Z</time></trkpt><trkpt lat="45.652342960091445" lon="10.628381655115357"><ele>107.0</ele><time>2026-03-29T15:20:23Z</time></trkpt><trkpt lat="45.652184542686754" lon="10.628270603554336"><ele>107.0</ele><time>2026-03-29T15:20:24Z</time></trkpt><trkpt lat="45.652039645741695" lon="10.6281789669968"><ele>107.0</ele><time>2026-03-29T15:20:25Z</time></trkpt><trkpt lat="45.65188269127599" lon="10.628021837671223"><ele>107.0</ele><time>2026-03-29T15:20:26Z</time></trkpt><trkpt lat="45.65171538952078" lon="10.627804708865083"><ele>104.0</ele><time>2026-03-29T15:20:27Z</time></trkpt><trkpt lat="45.65151092725548" lon="10.627570204182371"><ele>101.0</ele><time>2026-03-29T15:20:28Z</time></trkpt><trkpt lat="45.65133271741111" lon="10.627382601585264"><ele>101.0</ele><time>2026-03-29T15:20:29Z</time></trkpt><trkpt lat="45.651185652684354" lon="10.627186687908935"><ele>101.0</ele><time>2026-03-29T15:20:30Z</time></trkpt><trkpt lat="45.6510574561916" lon="10.626954340130922"><ele>101.0</ele><time>2026-03-29T15:20:31Z</time></trkpt><trkpt lat="45.65093807935237" lon="10.626704422772962"><ele>98.33333333333333</ele><time>2026-03-29T15:20:32Z</time></trkpt><trkpt lat="45.650812168503734" lon="10.626453977407397"><ele>95.66666666666666</ele><time>2026-03-29T15:20:33Z</time></trkpt><trkpt lat="45.65068687714766" lon="10.626209338486968"><ele>93.0</ele><time>2026-03-29T15:20:34Z</time></trkpt><trkpt lat="45.650562523807395" lon="10.625965748056116"><ele>93.0</ele><time>2026-03-29T15:20:35Z</time></trkpt><trkpt lat="45.65042151834327" lon="10.625740517131781"><ele>93.0</ele><time>2026-03-29T15:20:36Z</time></trkpt><trkpt lat="45.65026714956087" lon="10.625516490373517"><ele>93.0</ele><time>2026-03-29T15:20:37Z</time></trkpt><trkpt lat="45.650102045309936" lon="10.625296617745507"><ele>90.0</ele><time>2026-03-29T15:20:38Z</time></trkpt><trkpt lat="45.6499462967034" lon="10.625086408885576"><ele>87.0</ele><time>2026-03-29T15:20:39Z</time></trkpt><trkpt lat="45.649808350232576" lon="10.624890865293828"><ele>84.0</ele><time>2026-03-29T15:20:40Z</time></trkpt><trkpt lat="45.649678717093664" lon="10.624684101696534"><ele>79.66666666666667</ele><time>2026-03-29T15:20:41Z</time></trkpt><trkpt lat="45.649555476332885" lon="10.624466112496929"><ele>75.33333333333334</ele><time>2026-03-29T15:20:42Z</time></trkpt><trkpt lat="45.64943491191612" lon="10.624237591027802"><ele>71.0</ele><time>2026-03-29T15:20:43Z</time></trkpt><trkpt lat="45.64931557686374" lon="10.623993022704754"><ele>71.0</ele><time>2026-03-29T15:20:44Z</time></trkpt><trkpt lat="45.649208751856065" lon="10.62373219819345"><ele>71.0</ele><time>2026-03-29T15:20:45Z</time></trkpt><trkpt lat="45.64909724636656" lon="10.62346421442229"><ele>71.0</ele><time>2026-03-29T15:20:46Z</time></trkpt><trkpt lat="45.64898074492241" lon="10.623194977410844"><ele>80.0</ele><time>2026-03-29T15:20:47Z</time></trkpt><trkpt lat="45.64885446435083" lon="10.622929559967611"><ele>89.0</ele><time>2026-03-29T15:20:48Z</time></trkpt><trkpt lat="45.64870418209176" lon="10.622685956654179"><ele>82.5</ele><time>2026-03-29T15:20:49Z</time></trkpt><trkpt lat="45.64853624525043" lon="10.622422210126295"><ele>76.0</ele><time>2026-03-29T15:20:50Z</time></trkpt><trkpt lat="45.64837061249655" lon="10.622197495715046"><ele>76.0</ele><time>2026-03-29T15:20:51Z</time></trkpt><trkpt lat="45.648216188461966" lon="10.622001074734259"><ele>76.0</ele><time>2026-03-29T15:20:52Z</time></trkpt><trkpt lat="45.64808350319567" lon="10.621805052889927"><ele>76.0</ele><time>2026-03-29T15:20:53Z</time></trkpt><trkpt lat="45.64795823954174" lon="10.6215819507257"><ele>77.66666666666666</ele><time>2026-03-29T15:20:54Z</time></trkpt><trkpt lat="45.64784191905479" lon="10.621337935264563"><ele>79.33333333333333</ele><time>2026-03-29T15:20:55Z</time></trkpt><trkpt lat="45.64773327239836" lon="10.621083049976999"><ele>81.0</ele><time>2026-03-29T15:20:56Z</time></trkpt><trkpt lat="45.64762060280554" lon="10.620831703894073"><ele>81.0</ele><time>2026-03-29T15:20:57Z</time></trkpt><trkpt lat="45.647520613484026" lon="10.620598171791467"><ele>81.0</ele><time>2026-03-29T15:20:58Z</time></trkpt><trkpt lat="45.6474263607664" lon="10.620404122848232"><ele>81.0</ele><time>2026-03-29T15:20:59Z</time></trkpt><trkpt lat="45.64733238744076" lon="10.62020646217983"><ele>90.66666666666666</ele><time>2026-03-29T15:21:00Z</time></trkpt><trkpt lat="45.64724082327215" lon="10.61999430324771"><ele>100.33333333333333</ele><time>2026-03-29T15:21:01Z</time></trkpt><trkpt lat="45.647148580350404" lon="10.619775474272457"><ele>110.0</ele><time>2026-03-29T15:21:02Z</time></trkpt><trkpt lat="45.64705857856344" lon="10.619554055180597"><ele>100.66666666666666</ele><time>2026-03-29T15:21:03Z</time></trkpt><trkpt lat="45.64696774588136" lon="10.619340879060676"><ele>91.33333333333333</ele><time>2026-03-29T15:21:04Z</time></trkpt><trkpt lat="45.646888059513714" lon="10.619159526199605"><ele>82.0</ele><time>2026-03-29T15:21:05Z</time></trkpt><trkpt lat="45.64680691214997" lon="10.619007118417494"><ele>82.0</ele><time>2026-03-29T15:21:06Z</time></trkpt><trkpt lat="45.64673218378617" lon="10.618871671391979"><ele>82.0</ele><time>2026-03-29T15:21:07Z</time></trkpt><trkpt lat="45.64664940432614" lon="10.618744293884216"><ele>82.0</ele><time>2026-03-29T15:21:08Z</time></trkpt><trkpt lat="45.64656963183294" lon="10.61861803568207"><ele>82.0</ele><time>2026-03-29T15:21:09Z</time></trkpt><trkpt lat="45.646487656448016" lon="10.618498448637942"><ele>89.25</ele><time>2026-03-29T15:21:10Z</time></trkpt><trkpt lat="45.64640256354514" lon="10.618371448293109"><ele>96.5</ele><time>2026-03-29T15:21:11Z</time></trkpt><trkpt lat="45.64631942404361" lon="10.61822472957199"><ele>103.75</ele><time>2026-03-29T15:21:12Z</time></trkpt><trkpt lat="45.646241531402204" lon="10.618072435378153"><ele>111.0</ele><time>2026-03-29T15:21:13Z</time></trkpt><trkpt lat="45.64616521511393" lon="10.617925273092963"><ele>107.0</ele><time>2026-03-29T15:21:14Z</time></trkpt><trkpt lat="45.64610753381157" lon="10.617787165075631"><ele>103.0</ele><time>2026-03-29T15:21:14.999Z</time></trkpt><trkpt lat="45.64605131733111" lon="10.617664433333488"><ele>99.0</ele><time>2026-03-29T15:21:15.999Z</time></trkpt><trkpt lat="45.64599390478195" lon="10.617549186480689"><ele>95.0</ele><time>2026-03-29T15:21:16.999Z</time></trkpt><trkpt lat="45.64591348938135" lon="10.617442968299828"><ele>91.0</ele><time>2026-03-29T15:21:17.999Z</time></trkpt><trkpt lat="45.645810414174" lon="10.617371304768684"><ele>91.0</ele><time>2026-03-29T15:21:18.999Z</time></trkpt><trkpt lat="45.645691157913966" lon="10.617317318156875"><ele>91.0</ele><time>2026-03-29T15:21:19.999Z</time></trkpt><trkpt lat="45.645551473992974" lon="10.617287053500942"><ele>91.0</ele><time>2026-03-29T15:21:20.999Z</time></trkpt><trkpt lat="45.64541237779418" lon="10.617252496511673"><ele>91.0</ele><time>2026-03-29T15:21:21.999Z</time></trkpt><trkpt lat="45.645286058352454" lon="10.617218189595619"><ele>87.5</ele><time>2026-03-29T15:21:22.999Z</time></trkpt><trkpt lat="45.64516938251143" lon="10.617180692028588"><ele>84.0</ele><time>2026-03-29T15:21:23.999Z</time></trkpt><trkpt lat="45.645045671171786" lon="10.617141773776689"><ele>80.5</ele><time>2026-03-29T15:21:24.999Z</time></trkpt><trkpt lat="45.64492111533703" lon="10.617096132972836"><ele>77.0</ele><time>2026-03-29T15:21:25.999Z</time></trkpt><trkpt lat="45.64479974052975" lon="10.617052190983578"><ele>77.0</ele><time>2026-03-29T15:21:26.999Z</time></trkpt><trkpt lat="45.64467726134258" lon="10.617003344700843"><ele>77.0</ele><time>2026-03-29T15:21:27.999Z</time></trkpt><trkpt lat="45.64455130297688" lon="10.616941077512223"><ele>77.0</ele><time>2026-03-29T15:21:28.999Z</time></trkpt><trkpt lat="45.64443478329288" lon="10.616838466186096"><ele>77.0</ele><time>2026-03-29T15:21:29.999Z</time></trkpt><trkpt lat="45.64431640713301" lon="10.616739180113065"><ele>78.33333333333334</ele><time>2026-03-29T15:21:30.999Z</time></trkpt><trkpt lat="45.644205016997894" lon="10.6166040579294"><ele>79.66666666666667</ele><time>2026-03-29T15:21:31.999Z</time></trkpt><trkpt lat="45.644085471784386" lon="10.616466616300018"><ele>81.0</ele><time>2026-03-29T15:21:32.999Z</time></trkpt><trkpt lat="45.64397816849373" lon="10.616305854595813"><ele>81.0</ele><time>2026-03-29T15:21:33.999Z</time></trkpt><trkpt lat="45.643867106154744" lon="10.616154998126383"><ele>81.0</ele><time>2026-03-29T15:21:34.999Z</time></trkpt><trkpt lat="45.64375033751519" lon="10.615991803250823"><ele>81.0</ele><time>2026-03-29T15:21:35.999Z</time></trkpt><trkpt lat="45.64361036706541" lon="10.615789649496291"><ele>81.0</ele><time>2026-03-29T15:21:36.999Z</time></trkpt><trkpt lat="45.643470557595265" lon="10.615589606055712"><ele>81.0</ele><time>2026-03-29T15:21:37.999Z</time></trkpt><trkpt lat="45.64335315104119" lon="10.615425169561917"><ele>81.0</ele><time>2026-03-29T15:21:38.999Z</time></trkpt><trkpt lat="45.64325030987381" lon="10.615279736042499"><ele>81.0</ele><time>2026-03-29T15:21:39.999Z</time></trkpt><trkpt lat="45.643155193697694" lon="10.615144940710321"><ele>81.0</ele><time>2026-03-29T15:21:40.999Z</time></trkpt><trkpt lat="45.643071359307086" lon="10.615025822254276"><ele>81.0</ele><time>2026-03-29T15:21:41.999Z</time></trkpt><trkpt lat="45.64300014552875" lon="10.614924531411809"><ele>81.0</ele><time>2026-03-29T15:21:42.999Z</time></trkpt><trkpt lat="45.642940686870034" lon="10.614839962389835"><ele>81.0</ele><time>2026-03-29T15:21:43.999Z</time></trkpt><trkpt lat="45.642884136247304" lon="10.614757750455539"><ele>81.0</ele><time>2026-03-29T15:21:44.999Z</time></trkpt><trkpt lat="45.642825231967585" lon="10.614672040353948"><ele>81.0</ele><time>2026-03-29T15:21:45.999Z</time></trkpt><trkpt lat="45.64276835398194" lon="10.614586508883178"><ele>81.0</ele><time>2026-03-29T15:21:46.999Z</time></trkpt><trkpt lat="45.64271287991096" lon="10.61449465695523"><ele>81.0</ele><time>2026-03-29T15:21:47.999Z</time></trkpt><trkpt lat="45.64265743782955" lon="10.614395847944518"><ele>81.0</ele><time>2026-03-29T15:21:48.999Z</time></trkpt><trkpt lat="45.642598641343675" lon="10.614285584244568"><ele>81.0</ele><time>2026-03-29T15:21:49.999Z</time></trkpt><trkpt lat="45.64254247231607" lon="10.61417135619417"><ele>80.83333333333333</ele><time>2026-03-29T15:21:50.999Z</time></trkpt><trkpt lat="45.642495472386386" lon="10.61406491283031"><ele>80.66666666666667</ele><time>2026-03-29T15:21:51.999Z</time></trkpt><trkpt lat="45.642460331876585" lon="10.61398087038107"><ele>80.5</ele><time>2026-03-29T15:21:52.999Z</time></trkpt><trkpt lat="45.64240861097203" lon="10.61386350933319"><ele>80.33333333333334</ele><time>2026-03-29T15:21:54.999Z</time></trkpt><trkpt lat="45.642360740311496" lon="10.613801729909161"><ele>80.16666666666667</ele><time>2026-03-29T15:21:56.999Z</time></trkpt><trkpt lat="45.64230512578092" lon="10.61370259576024"><ele>80.0</ele><time>2026-03-29T15:21:59.999Z</time></trkpt><trkpt lat="45.64226195362548" lon="10.613593934215004"><ele>80.4</ele><time>2026-03-29T15:22:02.999Z</time></trkpt><trkpt lat="45.642229339400856" lon="10.613475327145997"><ele>80.8</ele><time>2026-03-29T15:22:04.999Z</time></trkpt><trkpt lat="45.64219401575022" lon="10.613318605877508"><ele>81.19999999999999</ele><time>2026-03-29T15:22:06.999Z</time></trkpt><trkpt lat="45.642172932579804" lon="10.613228890733534"><ele>81.6</ele><time>2026-03-29T15:22:07.999Z</time></trkpt><trkpt lat="45.64216928695016" lon="10.613133625795859"><ele>82.0</ele><time>2026-03-29T15:22:08.999Z</time></trkpt><trkpt lat="45.642109758225835" lon="10.61299438843556"><ele>82.0</ele><time>2026-03-29T15:22:10.999Z</time></trkpt><trkpt lat="45.6420601515163" lon="10.61284866232188"><ele>82.0</ele><time>2026-03-29T15:22:13Z</time></trkpt><trkpt lat="45.642016970993275" lon="10.612664476144737"><ele>82.0</ele><time>2026-03-29T15:22:15Z</time></trkpt><trkpt lat="45.641987012973935" lon="10.612566258745465"><ele>82.0</ele><time>2026-03-29T15:22:16Z</time></trkpt><trkpt lat="45.64195401319078" lon="10.612463743974955"><ele>82.0</ele><time>2026-03-29T15:22:17Z</time></trkpt><trkpt lat="45.641908123550195" lon="10.612396811842633"><ele>81.8</ele><time>2026-03-29T15:22:18Z</time></trkpt><trkpt lat="45.64184991760606" lon="10.612227190948055"><ele>81.6</ele><time>2026-03-29T15:22:20Z</time></trkpt><trkpt lat="45.641812088568706" lon="10.612127547185892"><ele>81.39999999999999</ele><time>2026-03-29T15:22:21Z</time></trkpt><trkpt lat="45.64180187804276" lon="10.612001922247899"><ele>81.19999999999999</ele><time>2026-03-29T15:22:22Z</time></trkpt><trkpt lat="45.6417720934662" lon="10.611910820835178"><ele>81.0</ele><time>2026-03-29T15:22:23Z</time></trkpt><trkpt lat="45.6417214252938" lon="10.6117558437365"><ele>81.5</ele><time>2026-03-29T15:22:25Z</time></trkpt><trkpt lat="45.641670822008734" lon="10.611601064856865"><ele>82.0</ele><time>2026-03-29T15:22:27Z</time></trkpt><trkpt lat="45.641636735806664" lon="10.611496806130104"><ele>82.5</ele><time>2026-03-29T15:22:28Z</time></trkpt><trkpt lat="45.64160376375303" lon="10.611395955723612"><ele>83.0</ele><time>2026-03-29T15:22:29Z</time></trkpt><trkpt lat="45.64157219553883" lon="10.611299396442995"><ele>83.5</ele><time>2026-03-29T15:22:30Z</time></trkpt><trkpt lat="45.64152608907087" lon="10.611220702005578"><ele>84.0</ele><time>2026-03-29T15:22:31Z</time></trkpt><trkpt lat="45.6414641924437" lon="10.611053136071602"><ele>84.80000000000001</ele><time>2026-03-29T15:22:33Z</time></trkpt><trkpt lat="45.6414234899307" lon="10.610937914137889"><ele>85.60000000000001</ele><time>2026-03-29T15:22:34Z</time></trkpt><trkpt lat="45.641386943332655" lon="10.61082800115573"><ele>86.4</ele><time>2026-03-29T15:22:35Z</time></trkpt><trkpt lat="45.64134913600757" lon="10.610721577221527"><ele>87.2</ele><time>2026-03-29T15:22:36Z</time></trkpt><trkpt lat="45.641305022171196" lon="10.610599490712428"><ele>88.0</ele><time>2026-03-29T15:22:37Z</time></trkpt><trkpt lat="45.641265877814654" lon="10.61046484648337"><ele>88.0</ele><time>2026-03-29T15:22:38Z</time></trkpt><trkpt lat="45.64122305580123" lon="10.610321298184573"><ele>88.0</ele><time>2026-03-29T15:22:39Z</time></trkpt><trkpt lat="45.64121968136168" lon="10.610191383030322"><ele>88.0</ele><time>2026-03-29T15:22:40Z</time></trkpt><trkpt lat="45.64118877399079" lon="10.610086913465075"><ele>88.0</ele><time>2026-03-29T15:22:41Z</time></trkpt><trkpt lat="45.64114898279611" lon="10.609957678749542"><ele>88.0</ele><time>2026-03-29T15:22:42Z</time></trkpt><trkpt lat="45.641115485537114" lon="10.609850498507761"><ele>86.4</ele><time>2026-03-29T15:22:43Z</time></trkpt><trkpt lat="45.64107706072654" lon="10.60972962318489"><ele>84.80000000000001</ele><time>2026-03-29T15:22:44Z</time></trkpt><trkpt lat="45.64102699004878" lon="10.609573589785025"><ele>83.2</ele><time>2026-03-29T15:22:45Z</time></trkpt><trkpt lat="45.64096231710288" lon="10.60941906018722"><ele>81.6</ele><time>2026-03-29T15:22:46Z</time></trkpt><trkpt lat="45.64092450428693" lon="10.609292658425796"><ele>80.0</ele><time>2026-03-29T15:22:47Z</time></trkpt><trkpt lat="45.64089285293995" lon="10.60919783903121"><ele>80.0</ele><time>2026-03-29T15:22:48Z</time></trkpt><trkpt lat="45.64086185482984" lon="10.609072885746208"><ele>80.0</ele><time>2026-03-29T15:22:50Z</time></trkpt><trkpt lat="45.64083455506767" lon="10.608984638606007"><ele>80.0</ele><time>2026-03-29T15:22:52Z</time></trkpt><trkpt lat="45.64082938194589" lon="10.608873321724746"><ele>80.0</ele><time>2026-03-29T15:22:54Z</time></trkpt><trkpt lat="45.640820482347515" lon="10.608776098152958"><ele>80.0</ele><time>2026-03-29T15:22:55Z</time></trkpt><trkpt lat="45.640790270156" lon="10.608674499417583"><ele>80.0</ele><time>2026-03-29T15:22:56Z</time></trkpt><trkpt lat="45.64072879290028" lon="10.608585781180224"><ele>81.0</ele><time>2026-03-29T15:22:57Z</time></trkpt><trkpt lat="45.64063470024903" lon="10.608530198281274"><ele>82.0</ele><time>2026-03-29T15:22:58Z</time></trkpt><trkpt lat="45.640536044548725" lon="10.608434650446807"><ele>83.0</ele><time>2026-03-29T15:22:59Z</time></trkpt><trkpt lat="45.64041054662941" lon="10.608333883178334"><ele>84.0</ele><time>2026-03-29T15:23:00Z</time></trkpt><trkpt lat="45.64027095000665" lon="10.608261962894568"><ele>84.0</ele><time>2026-03-29T15:23:01Z</time></trkpt><trkpt lat="45.64013051071804" lon="10.608166029410217"><ele>84.0</ele><time>2026-03-29T15:23:02Z</time></trkpt><trkpt lat="45.63999434307883" lon="10.6080754689627"><ele>84.0</ele><time>2026-03-29T15:23:03Z</time></trkpt><trkpt lat="45.63984858245403" lon="10.608007327314752"><ele>84.0</ele><time>2026-03-29T15:23:04Z</time></trkpt><trkpt lat="45.63969756692821" lon="10.60794251864554"><ele>84.0</ele><time>2026-03-29T15:23:05Z</time></trkpt><trkpt lat="45.639546505039505" lon="10.607875937487032"><ele>84.0</ele><time>2026-03-29T15:23:06Z</time></trkpt><trkpt lat="45.63941264218443" lon="10.607816381651071"><ele>83.5</ele><time>2026-03-29T15:23:07Z</time></trkpt><trkpt lat="45.639286488446416" lon="10.6077610312398"><ele>83.0</ele><time>2026-03-29T15:23:08Z</time></trkpt><trkpt lat="45.639163689124025" lon="10.607702814032374"><ele>82.5</ele><time>2026-03-29T15:23:09Z</time></trkpt><trkpt lat="45.63903851100172" lon="10.60763510738236"><ele>82.0</ele><time>2026-03-29T15:23:10Z</time></trkpt><trkpt lat="45.638907801890255" lon="10.60757328115386"><ele>82.0</ele><time>2026-03-29T15:23:11Z</time></trkpt><trkpt lat="45.63877612614915" lon="10.607513853832028"><ele>82.0</ele><time>2026-03-29T15:23:12Z</time></trkpt><trkpt lat="45.63864186897302" lon="10.60745099364179"><ele>82.0</ele><time>2026-03-29T15:23:13Z</time></trkpt><trkpt lat="45.63850329334104" lon="10.607388211717437"><ele>82.0</ele><time>2026-03-29T15:23:14Z</time></trkpt><trkpt lat="45.638364922958" lon="10.607316842809016"><ele>81.0</ele><time>2026-03-29T15:23:15Z</time></trkpt><trkpt lat="45.63822234660075" lon="10.607236761211224"><ele>80.0</ele><time>2026-03-29T15:23:16Z</time></trkpt><trkpt lat="45.63808472930498" lon="10.60713261994454"><ele>79.0</ele><time>2026-03-29T15:23:16.999Z</time></trkpt><trkpt lat="45.63796720470276" lon="10.607014745531057"><ele>79.0</ele><time>2026-03-29T15:23:17.999Z</time></trkpt><trkpt lat="45.63787758779204" lon="10.606873021055865"><ele>79.0</ele><time>2026-03-29T15:23:18.999Z</time></trkpt><trkpt lat="45.63779064479516" lon="10.606755368879568"><ele>79.0</ele><time>2026-03-29T15:23:19.999Z</time></trkpt><trkpt lat="45.63770279134703" lon="10.606650865580391"><ele>79.0</ele><time>2026-03-29T15:23:20.999Z</time></trkpt><trkpt lat="45.63762424707315" lon="10.606539506680528"><ele>78.60000000000001</ele><time>2026-03-29T15:23:21.999Z</time></trkpt><trkpt lat="45.63754302311621" lon="10.606424436297514"><ele>78.2</ele><time>2026-03-29T15:23:22.999Z</time></trkpt><trkpt lat="45.63746395236698" lon="10.606310711116203"><ele>77.80000000000001</ele><time>2026-03-29T15:23:23.999Z</time></trkpt><trkpt lat="45.63739428120925" lon="10.60620406386479"><ele>77.4</ele><time>2026-03-29T15:23:24.999Z</time></trkpt><trkpt lat="45.637323383683956" lon="10.606102928452573"><ele>77.0</ele><time>2026-03-29T15:23:25.999Z</time></trkpt><trkpt lat="45.63726592063444" lon="10.60601106480807"><ele>76.66666666666667</ele><time>2026-03-29T15:23:26.999Z</time></trkpt><trkpt lat="45.63721306386065" lon="10.605927999993048"><ele>76.33333333333334</ele><time>2026-03-29T15:23:27.999Z</time></trkpt><trkpt lat="45.63717155170478" lon="10.60584729270443"><ele>76.0</ele><time>2026-03-29T15:23:28.999Z</time></trkpt><trkpt lat="45.63711193314472" lon="10.605732376446262"><ele>75.66666666666667</ele><time>2026-03-29T15:23:30.999Z</time></trkpt><trkpt lat="45.63708558152265" lon="10.605644517268622"><ele>75.33333333333333</ele><time>2026-03-29T15:23:33.999Z</time></trkpt><trkpt lat="45.63703989927037" lon="10.605558879750795"><ele>75.0</ele><time>2026-03-29T15:23:35.999Z</time></trkpt><trkpt lat="45.63698207191364" lon="10.605456280782596"><ele>74.8</ele><time>2026-03-29T15:23:37.999Z</time></trkpt><trkpt lat="45.636914526213275" lon="10.605394194583777"><ele>74.6</ele><time>2026-03-29T15:23:39.999Z</time></trkpt><trkpt lat="45.63687665677365" lon="10.605273420298465"><ele>74.4</ele><time>2026-03-29T15:23:42.999Z</time></trkpt><trkpt lat="45.63684215201653" lon="10.605152401796518"><ele>74.2</ele><time>2026-03-29T15:23:44.999Z</time></trkpt><trkpt lat="45.636800522161494" lon="10.605057505516598"><ele>74.0</ele><time>2026-03-29T15:23:46.999Z</time></trkpt><trkpt lat="45.63670502028591" lon="10.604934360073765"><ele>73.8</ele><time>2026-03-29T15:23:48.999Z</time></trkpt><trkpt lat="45.6366503236761" lon="10.604851431963167"><ele>73.60000000000001</ele><time>2026-03-29T15:23:49.999Z</time></trkpt><trkpt lat="45.63659473943725" lon="10.604757234508703"><ele>73.4</ele><time>2026-03-29T15:23:50.999Z</time></trkpt><trkpt lat="45.63653483842271" lon="10.604651305411942"><ele>73.2</ele><time>2026-03-29T15:23:51.999Z</time></trkpt><trkpt lat="45.63649984122879" lon="10.604514116774888"><ele>73.0</ele><time>2026-03-29T15:23:52.999Z</time></trkpt><trkpt lat="45.63644030383945" lon="10.604398374424122"><ele>73.4</ele><time>2026-03-29T15:23:53.999Z</time></trkpt><trkpt lat="45.636374012183595" lon="10.60427065325026"><ele>73.8</ele><time>2026-03-29T15:23:54.999Z</time></trkpt><trkpt lat="45.636307571294054" lon="10.604143305080557"><ele>74.2</ele><time>2026-03-29T15:23:55.999Z</time></trkpt><trkpt lat="45.636255220976764" lon="10.604042964258415"><ele>74.6</ele><time>2026-03-29T15:23:56.999Z</time></trkpt><trkpt lat="45.63620836727173" lon="10.603953158936548"><ele>75.0</ele><time>2026-03-29T15:23:57.999Z</time></trkpt><trkpt lat="45.636160815541864" lon="10.603862015759102"><ele>74.25</ele><time>2026-03-29T15:23:58.999Z</time></trkpt><trkpt lat="45.63611286431435" lon="10.603770106820892"><ele>73.5</ele><time>2026-03-29T15:23:59.999Z</time></trkpt><trkpt lat="45.6360492733161" lon="10.603648216394184"><ele>72.75</ele><time>2026-03-29T15:24:00.999Z</time></trkpt><trkpt lat="45.63596834109386" lon="10.603492368598635"><ele>72.0</ele><time>2026-03-29T15:24:01.999Z</time></trkpt><trkpt lat="45.635867007394424" lon="10.603297531627545"><ele>71.75</ele><time>2026-03-29T15:24:02.999Z</time></trkpt><trkpt lat="45.635782767418696" lon="10.603135558915257"><ele>71.5</ele><time>2026-03-29T15:24:03.999Z</time></trkpt><trkpt lat="45.635687279074986" lon="10.603009911337494"><ele>71.25</ele><time>2026-03-29T15:24:04.999Z</time></trkpt><trkpt lat="45.63561119422888" lon="10.602859990269911"><ele>71.0</ele><time>2026-03-29T15:24:05.999Z</time></trkpt><trkpt lat="45.63554025716135" lon="10.602709031890114"><ele>71.0</ele><time>2026-03-29T15:24:06.999Z</time></trkpt><trkpt lat="45.635473434309304" lon="10.602584184962048"><ele>71.0</ele><time>2026-03-29T15:24:07.999Z</time></trkpt><trkpt lat="45.635413936413016" lon="10.602465274415666"><ele>71.0</ele><time>2026-03-29T15:24:08.999Z</time></trkpt><trkpt lat="45.63535731814443" lon="10.602354239691184"><ele>71.0</ele><time>2026-03-29T15:24:09.999Z</time></trkpt><trkpt lat="45.635301893177484" lon="10.602244568878634"><ele>71.0</ele><time>2026-03-29T15:24:10.999Z</time></trkpt><trkpt lat="45.63524219521755" lon="10.602133453480032"><ele>70.6</ele><time>2026-03-29T15:24:11.999Z</time></trkpt><trkpt lat="45.63518528395731" lon="10.602012377548947"><ele>70.19999999999999</ele><time>2026-03-29T15:24:12.999Z</time></trkpt><trkpt lat="45.63513025527973" lon="10.601901270674952"><ele>69.80000000000001</ele><time>2026-03-29T15:24:13.999Z</time></trkpt><trkpt lat="45.63507926649061" lon="10.601801084115628"><ele>69.4</ele><time>2026-03-29T15:24:14.999Z</time></trkpt><trkpt lat="45.635030702851274" lon="10.601703370703882"><ele>69.0</ele><time>2026-03-29T15:24:15.999Z</time></trkpt><trkpt lat="45.6349820306505" lon="10.601591749166754"><ele>69.0</ele><time>2026-03-29T15:24:16.999Z</time></trkpt><trkpt lat="45.63495288422011" lon="10.601459023021906"><ele>69.0</ele><time>2026-03-29T15:24:18Z</time></trkpt><trkpt lat="45.634920977758235" lon="10.601324940228249"><ele>69.0</ele><time>2026-03-29T15:24:19Z</time></trkpt><trkpt lat="45.634909069960656" lon="10.601184728333049"><ele>69.0</ele><time>2026-03-29T15:24:20Z</time></trkpt><trkpt lat="45.63490049875344" lon="10.601034041772651"><ele>69.0</ele><time>2026-03-29T15:24:21Z</time></trkpt><trkpt lat="45.634918220963414" lon="10.600890682419474"><ele>69.16666666666667</ele><time>2026-03-29T15:24:22Z</time></trkpt><trkpt lat="45.634940095879685" lon="10.600763684656586"><ele>69.33333333333333</ele><time>2026-03-29T15:24:23Z</time></trkpt><trkpt lat="45.63496843895293" lon="10.60065752258521"><ele>69.5</ele><time>2026-03-29T15:24:24Z</time></trkpt><trkpt lat="45.634987555650206" lon="10.600566968545673"><ele>69.66666666666666</ele><time>2026-03-29T15:24:25Z</time></trkpt><trkpt lat="45.63502497505112" lon="10.60044828420116"><ele>69.83333333333333</ele><time>2026-03-29T15:24:27Z</time></trkpt><trkpt lat="45.635067550189106" lon="10.600325580233715"><ele>70.0</ele><time>2026-03-29T15:24:29Z</time></trkpt><trkpt lat="45.63511608760814" lon="10.600231823628471"><ele>70.4</ele><time>2026-03-29T15:24:32Z</time></trkpt><trkpt lat="45.63515452918455" lon="10.600122144664494"><ele>70.8</ele><time>2026-03-29T15:24:34Z</time></trkpt><trkpt lat="45.635207862886546" lon="10.599976473336625"><ele>71.2</ele><time>2026-03-29T15:24:36Z</time></trkpt><trkpt lat="45.63527292326151" lon="10.599820380296473"><ele>71.6</ele><time>2026-03-29T15:24:38Z</time></trkpt><trkpt lat="45.63533310876484" lon="10.59967984795328"><ele>72.0</ele><time>2026-03-29T15:24:40Z</time></trkpt><trkpt lat="45.63536888690192" lon="10.59959993795898"><ele>72.0</ele><time>2026-03-29T15:24:42Z</time></trkpt><trkpt lat="45.635414009400286" lon="10.599533350323146"><ele>72.0</ele><time>2026-03-29T15:24:46Z</time></trkpt><trkpt lat="45.6353116427324" lon="10.599428098102507"><ele>72.0</ele><time>2026-03-29T15:24:49Z</time></trkpt><trkpt lat="45.635219237691615" lon="10.599467899736169"><ele>70.0</ele><time>2026-03-29T15:24:51Z</time></trkpt><trkpt lat="45.63519067310615" lon="10.599556759299734"><ele>73.0</ele><time>2026-03-29T15:24:53Z</time></trkpt></trkseg><trkseg><trkpt lat="45.63513765036336" lon="10.599585846419156"><ele>73.0</ele><time>2026-03-29T16:02:36.999Z</time></trkpt><trkpt lat="45.63518698012547" lon="10.599698603235366"><ele>73.0</ele><time>2026-03-29T16:02:38.999Z</time></trkpt><trkpt lat="45.63527872262265" lon="10.599718335566804"><ele>73.0</ele><time>2026-03-29T16:02:42Z</time></trkpt><trkpt lat="45.63533303312147" lon="10.599660234422139"><ele>73.0</ele><time>2026-03-29T16:02:43Z</time></trkpt><trkpt lat="45.635389381988404" lon="10.599563886381645"><ele>73.0</ele><time>2026-03-29T16:02:44Z</time></trkpt><trkpt lat="45.63543616922447" lon="10.599487264415894"><ele>73.0</ele><time>2026-03-29T16:02:45Z</time></trkpt><trkpt lat="45.63549199520551" lon="10.599381106562578"><ele>72.83333333333333</ele><time>2026-03-29T16:02:47Z</time></trkpt><trkpt lat="45.63555751196311" lon="10.599262467284506"><ele>72.66666666666666</ele><time>2026-03-29T16:02:49Z</time></trkpt><trkpt lat="45.635593204887904" lon="10.599185571078053"><ele>72.5</ele><time>2026-03-29T16:02:50Z</time></trkpt><trkpt lat="45.63562709424073" lon="10.59908934318482"><ele>72.33333333333333</ele><time>2026-03-29T16:02:51Z</time></trkpt><trkpt lat="45.635667002381396" lon="10.598979170588601"><ele>72.16666666666667</ele><time>2026-03-29T16:02:52Z</time></trkpt><trkpt lat="45.63569924050151" lon="10.598854689498085"><ele>72.0</ele><time>2026-03-29T16:02:53Z</time></trkpt><trkpt lat="45.63571971524254" lon="10.598707617744825"><ele>72.5</ele><time>2026-03-29T16:02:54Z</time></trkpt><trkpt lat="45.63573683610996" lon="10.598553355053614"><ele>73.0</ele><time>2026-03-29T16:02:55Z</time></trkpt><trkpt lat="45.63574073376377" lon="10.598393223524655"><ele>73.5</ele><time>2026-03-29T16:02:56Z</time></trkpt><trkpt lat="45.63573547402454" lon="10.598229004546466"><ele>74.0</ele><time>2026-03-29T16:02:57Z</time></trkpt><trkpt lat="45.63572749072299" lon="10.59805250943844"><ele>74.0</ele><time>2026-03-29T16:02:58Z</time></trkpt><trkpt lat="45.63571863067211" lon="10.597871655980015"><ele>74.0</ele><time>2026-03-29T16:02:59Z</time></trkpt><trkpt lat="45.635701124712874" lon="10.597701760555239"><ele>74.0</ele><time>2026-03-29T16:03:00Z</time></trkpt><trkpt lat="45.63567892379204" lon="10.5975336868464"><ele>74.0</ele><time>2026-03-29T16:03:01Z</time></trkpt><trkpt lat="45.63564038095541" lon="10.59735840093979"><ele>75.25</ele><time>2026-03-29T16:03:02Z</time></trkpt><trkpt lat="45.63559079222871" lon="10.597186718969306"><ele>76.5</ele><time>2026-03-29T16:03:03Z</time></trkpt><trkpt lat="45.635528970941394" lon="10.597024913588406"><ele>77.75</ele><time>2026-03-29T16:03:04Z</time></trkpt><trkpt lat="45.635449466659594" lon="10.59684778507945"><ele>79.0</ele><time>2026-03-29T16:03:05Z</time></trkpt><trkpt lat="45.63536507870264" lon="10.596666320874053"><ele>78.66666666666666</ele><time>2026-03-29T16:03:06Z</time></trkpt><trkpt lat="45.635272753284895" lon="10.596476073242412"><ele>78.33333333333333</ele><time>2026-03-29T16:03:07Z</time></trkpt><trkpt lat="45.63518519517712" lon="10.596288324959358"><ele>78.0</ele><time>2026-03-29T16:03:08Z</time></trkpt><trkpt lat="45.63509517414412" lon="10.596093695062677"><ele>78.0</ele><time>2026-03-29T16:03:09Z</time></trkpt><trkpt lat="45.6350086447174" lon="10.595895599791339"><ele>78.0</ele><time>2026-03-29T16:03:10Z</time></trkpt><trkpt lat="45.63493252021469" lon="10.595693953715655"><ele>78.0</ele><time>2026-03-29T16:03:11Z</time></trkpt><trkpt lat="45.63485375624955" lon="10.595500929765382"><ele>85.25</ele><time>2026-03-29T16:03:12Z</time></trkpt><trkpt lat="45.63478774412842" lon="10.595321847296184"><ele>92.5</ele><time>2026-03-29T16:03:13Z</time></trkpt><trkpt lat="45.634724623167614" lon="10.595158512905737"><ele>99.75</ele><time>2026-03-29T16:03:14Z</time></trkpt><trkpt lat="45.63465970968174" lon="10.595003583671543"><ele>107.0</ele><time>2026-03-29T16:03:15Z</time></trkpt><trkpt lat="45.6345936730563" lon="10.594853636241027"><ele>107.0</ele><time>2026-03-29T16:03:16Z</time></trkpt><trkpt lat="45.63452156590847" lon="10.59470535792499"><ele>107.0</ele><time>2026-03-29T16:03:17Z</time></trkpt><trkpt lat="45.63444697457363" lon="10.594555742178715"><ele>107.0</ele><time>2026-03-29T16:03:18Z</time></trkpt><trkpt lat="45.63436594243486" lon="10.594400847324893"><ele>107.0</ele><time>2026-03-29T16:03:19Z</time></trkpt><trkpt lat="45.634286609364494" lon="10.594243265654567"><ele>104.25</ele><time>2026-03-29T16:03:20Z</time></trkpt><trkpt lat="45.63420658306366" lon="10.594082093175325"><ele>101.5</ele><time>2026-03-29T16:03:21Z</time></trkpt><trkpt lat="45.63412657605039" lon="10.593927082751978"><ele>98.75</ele><time>2026-03-29T16:03:22Z</time></trkpt><trkpt lat="45.63404353268975" lon="10.59376465594623"><ele>96.0</ele><time>2026-03-29T16:03:23Z</time></trkpt><trkpt lat="45.63395753918642" lon="10.593601067726294"><ele>96.0</ele><time>2026-03-29T16:03:24Z</time></trkpt><trkpt lat="45.63386663067907" lon="10.59343226854912"><ele>96.0</ele><time>2026-03-29T16:03:25Z</time></trkpt><trkpt lat="45.63377300619741" lon="10.593250439812556"><ele>96.0</ele><time>2026-03-29T16:03:26Z</time></trkpt><trkpt lat="45.63367680041636" lon="10.593072903779285"><ele>89.0</ele><time>2026-03-29T16:03:27Z</time></trkpt><trkpt lat="45.63358255722498" lon="10.592885636447237"><ele>82.0</ele><time>2026-03-29T16:03:28Z</time></trkpt><trkpt lat="45.633490657807755" lon="10.592688330908922"><ele>75.0</ele><time>2026-03-29T16:03:29Z</time></trkpt><trkpt lat="45.63338790684575" lon="10.592499787810008"><ele>75.0</ele><time>2026-03-29T16:03:30Z</time></trkpt><trkpt lat="45.633282823854834" lon="10.592307976758011"><ele>75.0</ele><time>2026-03-29T16:03:31Z</time></trkpt><trkpt lat="45.63316339813691" lon="10.59212628738382"><ele>75.0</ele><time>2026-03-29T16:03:32Z</time></trkpt><trkpt lat="45.633052045084455" lon="10.591977906600075"><ele>74.5</ele><time>2026-03-29T16:03:33Z</time></trkpt><trkpt lat="45.63293686202557" lon="10.591851895111024"><ele>74.0</ele><time>2026-03-29T16:03:34Z</time></trkpt><trkpt lat="45.63281940292541" lon="10.591736844994468"><ele>73.5</ele><time>2026-03-29T16:03:35Z</time></trkpt><trkpt lat="45.63269897518652" lon="10.591611704570688"><ele>73.0</ele><time>2026-03-29T16:03:36Z</time></trkpt><trkpt lat="45.63257858579927" lon="10.591484318183236"><ele>73.0</ele><time>2026-03-29T16:03:37Z</time></trkpt><trkpt lat="45.632471335393696" lon="10.591317944867509"><ele>73.0</ele><time>2026-03-29T16:03:38Z</time></trkpt><trkpt lat="45.63237954810174" lon="10.591111346106926"><ele>73.0</ele><time>2026-03-29T16:03:39Z</time></trkpt><trkpt lat="45.63228961017025" lon="10.59089580936764"><ele>79.0</ele><time>2026-03-29T16:03:40Z</time></trkpt><trkpt lat="45.63219783980887" lon="10.590666750924528"><ele>85.0</ele><time>2026-03-29T16:03:41Z</time></trkpt><trkpt lat="45.632098196832146" lon="10.59044015259799"><ele>91.0</ele><time>2026-03-29T16:03:42Z</time></trkpt><trkpt lat="45.63199231108172" lon="10.59021335208864"><ele>89.33333333333333</ele><time>2026-03-29T16:03:43Z</time></trkpt><trkpt lat="45.63187551862785" lon="10.589984270795448"><ele>87.66666666666667</ele><time>2026-03-29T16:03:44Z</time></trkpt><trkpt lat="45.631746981544616" lon="10.58971784703397"><ele>86.0</ele><time>2026-03-29T16:03:45Z</time></trkpt><trkpt lat="45.63158875731891" lon="10.589440861898163"><ele>86.0</ele><time>2026-03-29T16:03:46Z</time></trkpt><trkpt lat="45.63143033428842" lon="10.589167175670973"><ele>86.0</ele><time>2026-03-29T16:03:47Z</time></trkpt><trkpt lat="45.63128370989787" lon="10.588930227637341"><ele>86.0</ele><time>2026-03-29T16:03:48Z</time></trkpt><trkpt lat="45.63115316313378" lon="10.588714022102762"><ele>86.0</ele><time>2026-03-29T16:03:49Z</time></trkpt><trkpt lat="45.631028253459476" lon="10.588514535793632"><ele>86.0</ele><time>2026-03-29T16:03:50Z</time></trkpt><trkpt lat="45.630904806092936" lon="10.588323352200774"><ele>82.66666666666667</ele><time>2026-03-29T16:03:51Z</time></trkpt><trkpt lat="45.63077963772529" lon="10.588143689427936"><ele>79.33333333333333</ele><time>2026-03-29T16:03:52Z</time></trkpt><trkpt lat="45.6306555651298" lon="10.587978876460319"><ele>76.0</ele><time>2026-03-29T16:03:52.999Z</time></trkpt><trkpt lat="45.630533584590175" lon="10.587809462057248"><ele>77.33333333333333</ele><time>2026-03-29T16:03:53.999Z</time></trkpt><trkpt lat="45.63041555241964" lon="10.587638245863218"><ele>78.66666666666667</ele><time>2026-03-29T16:03:54.999Z</time></trkpt><trkpt lat="45.63030432267665" lon="10.587471200158848"><ele>80.0</ele><time>2026-03-29T16:03:55.999Z</time></trkpt><trkpt lat="45.63019759607102" lon="10.5873230564098"><ele>80.0</ele><time>2026-03-29T16:03:56.999Z</time></trkpt><trkpt lat="45.6300912836247" lon="10.587185561802666"><ele>80.0</ele><time>2026-03-29T16:03:57.999Z</time></trkpt><trkpt lat="45.629995145066324" lon="10.587067481837261"><ele>80.0</ele><time>2026-03-29T16:03:58.999Z</time></trkpt><trkpt lat="45.62990515498297" lon="10.58696522686288"><ele>80.0</ele><time>2026-03-29T16:03:59.999Z</time></trkpt><trkpt lat="45.62980728992404" lon="10.586862435759176"><ele>79.25</ele><time>2026-03-29T16:04:00.999Z</time></trkpt><trkpt lat="45.62970750946011" lon="10.586770219582839"><ele>78.5</ele><time>2026-03-29T16:04:01.999Z</time></trkpt><trkpt lat="45.62960006449477" lon="10.586701817006988"><ele>77.75</ele><time>2026-03-29T16:04:02.999Z</time></trkpt><trkpt lat="45.62949148769949" lon="10.58664849623653"><ele>77.0</ele><time>2026-03-29T16:04:03.999Z</time></trkpt><trkpt lat="45.62937318819552" lon="10.586608158077953"><ele>77.0</ele><time>2026-03-29T16:04:04.999Z</time></trkpt><trkpt lat="45.62924128032969" lon="10.58657898181282"><ele>77.0</ele><time>2026-03-29T16:04:05.999Z</time></trkpt><trkpt lat="45.629097754002245" lon="10.586567010037328"><ele>77.0</ele><time>2026-03-29T16:04:06.999Z</time></trkpt><trkpt lat="45.628953565298204" lon="10.586574823495981"><ele>77.0</ele><time>2026-03-29T16:04:07.999Z</time></trkpt><trkpt lat="45.62881471201953" lon="10.586590087777504"><ele>77.0</ele><time>2026-03-29T16:04:08.999Z</time></trkpt><trkpt lat="45.628691995163784" lon="10.586595758953004"><ele>77.0</ele><time>2026-03-29T16:04:09.999Z</time></trkpt><trkpt lat="45.628561219385375" lon="10.586606618112173"><ele>77.0</ele><time>2026-03-29T16:04:10.999Z</time></trkpt><trkpt lat="45.62843138959865" lon="10.586612351392231"><ele>77.0</ele><time>2026-03-29T16:04:11.999Z</time></trkpt><trkpt lat="45.6283013981436" lon="10.58662199661566"><ele>76.5</ele><time>2026-03-29T16:04:12.999Z</time></trkpt><trkpt lat="45.62817335948593" lon="10.586629793848639"><ele>76.0</ele><time>2026-03-29T16:04:13.999Z</time></trkpt><trkpt lat="45.62805902844949" lon="10.586631446068015"><ele>75.5</ele><time>2026-03-29T16:04:14.999Z</time></trkpt><trkpt lat="45.62794663997991" lon="10.586638069516761"><ele>75.0</ele><time>2026-03-29T16:04:15.999Z</time></trkpt><trkpt lat="45.6278262612993" lon="10.586601505695182"><ele>75.25</ele><time>2026-03-29T16:04:16.999Z</time></trkpt><trkpt lat="45.62771770998293" lon="10.586561757939348"><ele>75.5</ele><time>2026-03-29T16:04:17.999Z</time></trkpt><trkpt lat="45.62761363570031" lon="10.586484912217362"><ele>75.75</ele><time>2026-03-29T16:04:18.999Z</time></trkpt><trkpt lat="45.627507768367856" lon="10.586390704666504"><ele>76.0</ele><time>2026-03-29T16:04:19.999Z</time></trkpt><trkpt lat="45.62738975477829" lon="10.586296902384237"><ele>76.0</ele><time>2026-03-29T16:04:20.999Z</time></trkpt><trkpt lat="45.627272109652964" lon="10.586183671972291"><ele>76.0</ele><time>2026-03-29T16:04:21.999Z</time></trkpt><trkpt lat="45.627150275003345" lon="10.58606268781553"><ele>76.0</ele><time>2026-03-29T16:04:22.999Z</time></trkpt><trkpt lat="45.62701911646069" lon="10.58594079050459"><ele>76.0</ele><time>2026-03-29T16:04:23.999Z</time></trkpt><trkpt lat="45.62689371198128" lon="10.585817365788014"><ele>76.5</ele><time>2026-03-29T16:04:24.999Z</time></trkpt><trkpt lat="45.626781897332336" lon="10.585726967027153"><ele>77.0</ele><time>2026-03-29T16:04:25.999Z</time></trkpt><trkpt lat="45.62668339719678" lon="10.585633327198856"><ele>77.5</ele><time>2026-03-29T16:04:26.999Z</time></trkpt><trkpt lat="45.62658441826967" lon="10.585546480579145"><ele>78.0</ele><time>2026-03-29T16:04:27.999Z</time></trkpt><trkpt lat="45.626485461091825" lon="10.585455126211423"><ele>78.25</ele><time>2026-03-29T16:04:28.999Z</time></trkpt><trkpt lat="45.62640593658281" lon="10.585332737532944"><ele>78.5</ele><time>2026-03-29T16:04:29.999Z</time></trkpt><trkpt lat="45.626330751709055" lon="10.585195297771923"><ele>78.75</ele><time>2026-03-29T16:04:30.999Z</time></trkpt><trkpt lat="45.62625823760815" lon="10.585053451309166"><ele>79.0</ele><time>2026-03-29T16:04:31.999Z</time></trkpt><trkpt lat="45.62617302623291" lon="10.584908155054604"><ele>77.75</ele><time>2026-03-29T16:04:32.999Z</time></trkpt><trkpt lat="45.62610984979871" lon="10.58476662973251"><ele>76.5</ele><time>2026-03-29T16:04:33.999Z</time></trkpt><trkpt lat="45.62607185183312" lon="10.58460569833034"><ele>75.25</ele><time>2026-03-29T16:04:34.999Z</time></trkpt><trkpt lat="45.62603974322059" lon="10.584431440166634"><ele>74.0</ele><time>2026-03-29T16:04:35.999Z</time></trkpt><trkpt lat="45.62602864093698" lon="10.584253285886033"><ele>74.0</ele><time>2026-03-29T16:04:36.999Z</time></trkpt><trkpt lat="45.62603872500685" lon="10.584069873418354"><ele>74.0</ele><time>2026-03-29T16:04:37.999Z</time></trkpt><trkpt lat="45.626063488982325" lon="10.58388334572659"><ele>74.0</ele><time>2026-03-29T16:04:38.999Z</time></trkpt><trkpt lat="45.62608872387581" lon="10.583692654148889"><ele>74.0</ele><time>2026-03-29T16:04:39.999Z</time></trkpt><trkpt lat="45.62611409165427" lon="10.583502117345136"><ele>73.60000000000001</ele><time>2026-03-29T16:04:40.999Z</time></trkpt><trkpt lat="45.62611986777344" lon="10.583339845613319"><ele>73.2</ele><time>2026-03-29T16:04:41.999Z</time></trkpt><trkpt lat="45.6261529161928" lon="10.583203852336649"><ele>72.80000000000001</ele><time>2026-03-29T16:04:42.999Z</time></trkpt><trkpt lat="45.626168054460834" lon="10.58307829610116"><ele>72.4</ele><time>2026-03-29T16:04:43.999Z</time></trkpt><trkpt lat="45.62616790625444" lon="10.582951601460017"><ele>72.0</ele><time>2026-03-29T16:04:44.999Z</time></trkpt><trkpt lat="45.62618627934886" lon="10.582845822377257"><ele>74.6</ele><time>2026-03-29T16:04:45.999Z</time></trkpt><trkpt lat="45.62619303899125" lon="10.582734550670443"><ele>77.2</ele><time>2026-03-29T16:04:47Z</time></trkpt><trkpt lat="45.626198660259774" lon="10.582606747142448"><ele>79.8</ele><time>2026-03-29T16:04:48Z</time></trkpt><trkpt lat="45.62620258178389" lon="10.58247214460342"><ele>82.4</ele><time>2026-03-29T16:04:49Z</time></trkpt><trkpt lat="45.62620209966503" lon="10.582329167545725"><ele>85.0</ele><time>2026-03-29T16:04:50Z</time></trkpt><trkpt lat="45.62620001941731" lon="10.582175348351502"><ele>85.0</ele><time>2026-03-29T16:04:51Z</time></trkpt><trkpt lat="45.626197978698144" lon="10.582015165020968"><ele>85.0</ele><time>2026-03-29T16:04:52Z</time></trkpt><trkpt lat="45.62619616923008" lon="10.581843357058696"><ele>85.0</ele><time>2026-03-29T16:04:53Z</time></trkpt><trkpt lat="45.62618948498174" lon="10.58166146212434"><ele>85.0</ele><time>2026-03-29T16:04:54Z</time></trkpt><trkpt lat="45.62618700829974" lon="10.581474206069785"><ele>85.0</ele><time>2026-03-29T16:04:55Z</time></trkpt><trkpt lat="45.62618465747169" lon="10.581281887113294"><ele>85.0</ele><time>2026-03-29T16:04:56Z</time></trkpt><trkpt lat="45.62618406733482" lon="10.581117558016283"><ele>85.0</ele><time>2026-03-29T16:04:57Z</time></trkpt><trkpt lat="45.626179580465575" lon="10.58095513515685"><ele>85.0</ele><time>2026-03-29T16:04:58Z</time></trkpt><trkpt lat="45.62618369110004" lon="10.580775517723133"><ele>85.0</ele><time>2026-03-29T16:04:59Z</time></trkpt><trkpt lat="45.62618711717317" lon="10.58060061610855"><ele>85.0</ele><time>2026-03-29T16:05:00Z</time></trkpt><trkpt lat="45.626188734475335" lon="10.580413859300204"><ele>85.0</ele><time>2026-03-29T16:05:01Z</time></trkpt><trkpt lat="45.62618974080268" lon="10.580232858449321"><ele>85.0</ele><time>2026-03-29T16:05:02Z</time></trkpt><trkpt lat="45.62619143604938" lon="10.580075987781305"><ele>85.75</ele><time>2026-03-29T16:05:03Z</time></trkpt><trkpt lat="45.626187112079585" lon="10.579923124467099"><ele>86.5</ele><time>2026-03-29T16:05:04Z</time></trkpt><trkpt lat="45.626184562038596" lon="10.579759256325694"><ele>87.25</ele><time>2026-03-29T16:05:05Z</time></trkpt><trkpt lat="45.62618097271505" lon="10.579581817597946"><ele>88.0</ele><time>2026-03-29T16:05:06Z</time></trkpt><trkpt lat="45.62617422007846" lon="10.579405512381047"><ele>88.0</ele><time>2026-03-29T16:05:07Z</time></trkpt><trkpt lat="45.626167459328464" lon="10.579227636515753"><ele>88.0</ele><time>2026-03-29T16:05:08Z</time></trkpt><trkpt lat="45.62615436434881" lon="10.579049084536269"><ele>88.0</ele><time>2026-03-29T16:05:09Z</time></trkpt><trkpt lat="45.62614166239682" lon="10.578869799211787"><ele>88.0</ele><time>2026-03-29T16:05:10Z</time></trkpt><trkpt lat="45.62612689851056" lon="10.578687904263647"><ele>84.5</ele><time>2026-03-29T16:05:11Z</time></trkpt><trkpt lat="45.62610697568857" lon="10.578512694883523"><ele>81.0</ele><time>2026-03-29T16:05:12Z</time></trkpt><trkpt lat="45.62608474092002" lon="10.57834117559202"><ele>77.5</ele><time>2026-03-29T16:05:13Z</time></trkpt><trkpt lat="45.6260654357314" lon="10.578167224205647"><ele>74.0</ele><time>2026-03-29T16:05:14Z</time></trkpt><trkpt lat="45.62604410891206" lon="10.577988682844534"><ele>75.0</ele><time>2026-03-29T16:05:15Z</time></trkpt><trkpt lat="45.626021732246286" lon="10.577805144595562"><ele>76.0</ele><time>2026-03-29T16:05:16Z</time></trkpt><trkpt lat="45.625992958143776" lon="10.577619776058748"><ele>77.0</ele><time>2026-03-29T16:05:17Z</time></trkpt><trkpt lat="45.625972901492425" lon="10.577430744171199"><ele>78.0</ele><time>2026-03-29T16:05:18Z</time></trkpt><trkpt lat="45.62594258381038" lon="10.577248704565681"><ele>78.0</ele><time>2026-03-29T16:05:19Z</time></trkpt><trkpt lat="45.625909963267304" lon="10.577090662171495"><ele>78.0</ele><time>2026-03-29T16:05:20Z</time></trkpt><trkpt lat="45.625879167539075" lon="10.576950396956953"><ele>78.0</ele><time>2026-03-29T16:05:21Z</time></trkpt><trkpt lat="45.62584702581528" lon="10.576809274168497"><ele>78.0</ele><time>2026-03-29T16:05:22Z</time></trkpt><trkpt lat="45.625811846290176" lon="10.576672967239892"><ele>78.0</ele><time>2026-03-29T16:05:23Z</time></trkpt><trkpt lat="45.6257854068909" lon="10.576533643762158"><ele>78.6</ele><time>2026-03-29T16:05:24Z</time></trkpt><trkpt lat="45.62575365615037" lon="10.57639243698904"><ele>79.19999999999999</ele><time>2026-03-29T16:05:25Z</time></trkpt><trkpt lat="45.625718496206254" lon="10.576247362287443"><ele>79.8</ele><time>2026-03-29T16:05:26Z</time></trkpt><trkpt lat="45.625680051515886" lon="10.576093700157427"><ele>80.39999999999999</ele><time>2026-03-29T16:05:27Z</time></trkpt><trkpt lat="45.62563998198163" lon="10.575929655009595"><ele>81.0</ele><time>2026-03-29T16:05:28Z</time></trkpt><trkpt lat="45.62559879813159" lon="10.575761984319797"><ele>82.5</ele><time>2026-03-29T16:05:29Z</time></trkpt><trkpt lat="45.62554996797778" lon="10.575583075990064"><ele>84.0</ele><time>2026-03-29T16:05:30Z</time></trkpt><trkpt lat="45.62549590452607" lon="10.575404169404521"><ele>85.5</ele><time>2026-03-29T16:05:31Z</time></trkpt><trkpt lat="45.62543821259215" lon="10.575205166906533"><ele>87.0</ele><time>2026-03-29T16:05:32Z</time></trkpt><trkpt lat="45.62536066000123" lon="10.57499813666781"><ele>85.33333333333333</ele><time>2026-03-29T16:05:33Z</time></trkpt><trkpt lat="45.62526958469632" lon="10.574777751243793"><ele>83.66666666666666</ele><time>2026-03-29T16:05:34Z</time></trkpt><trkpt lat="45.62516276887037" lon="10.57455429814195"><ele>82.0</ele><time>2026-03-29T16:05:35Z</time></trkpt><trkpt lat="45.62504187241411" lon="10.574342753050194"><ele>82.0</ele><time>2026-03-29T16:05:36Z</time></trkpt><trkpt lat="45.62489652062603" lon="10.574132898204866"><ele>82.0</ele><time>2026-03-29T16:05:37Z</time></trkpt><trkpt lat="45.62473995969238" lon="10.573938848641287"><ele>82.0</ele><time>2026-03-29T16:05:38Z</time></trkpt><trkpt lat="45.624592224072885" lon="10.57377607843147"><ele>80.33333333333333</ele><time>2026-03-29T16:05:39Z</time></trkpt><trkpt lat="45.62446190064268" lon="10.573619269954994"><ele>78.66666666666667</ele><time>2026-03-29T16:05:40Z</time></trkpt><trkpt lat="45.62434978162514" lon="10.573459767097015"><ele>77.0</ele><time>2026-03-29T16:05:41Z</time></trkpt><trkpt lat="45.6242485413834" lon="10.573286322518905"><ele>77.0</ele><time>2026-03-29T16:05:42Z</time></trkpt><trkpt lat="45.62416334436565" lon="10.57309579696078"><ele>77.0</ele><time>2026-03-29T16:05:43Z</time></trkpt><trkpt lat="45.62408282691779" lon="10.572907304044007"><ele>77.0</ele><time>2026-03-29T16:05:44Z</time></trkpt><trkpt lat="45.62402031742428" lon="10.572697779338807"><ele>78.66666666666667</ele><time>2026-03-29T16:05:45Z</time></trkpt><trkpt lat="45.623952985006504" lon="10.572486645896214"><ele>80.33333333333333</ele><time>2026-03-29T16:05:46Z</time></trkpt><trkpt lat="45.623887089386365" lon="10.572270930940986"><ele>82.0</ele><time>2026-03-29T16:05:47Z</time></trkpt><trkpt lat="45.62382260550241" lon="10.572050051681243"><ele>83.33333333333333</ele><time>2026-03-29T16:05:48Z</time></trkpt><trkpt lat="45.62374335053166" lon="10.571828633519623"><ele>84.66666666666667</ele><time>2026-03-29T16:05:49Z</time></trkpt><trkpt lat="45.62366207689548" lon="10.571614036676522"><ele>86.0</ele><time>2026-03-29T16:05:50Z</time></trkpt><trkpt lat="45.62357431069261" lon="10.57142113650968"><ele>84.33333333333334</ele><time>2026-03-29T16:05:51Z</time></trkpt><trkpt lat="45.6234795724752" lon="10.571251613093523"><ele>82.66666666666667</ele><time>2026-03-29T16:05:52Z</time></trkpt><trkpt lat="45.62336639853778" lon="10.571088792234228"><ele>81.0</ele><time>2026-03-29T16:05:53Z</time></trkpt><trkpt lat="45.62324590353399" lon="10.570931850182827"><ele>81.0</ele><time>2026-03-29T16:05:54Z</time></trkpt><trkpt lat="45.62312918940421" lon="10.570815512846462"><ele>81.0</ele><time>2026-03-29T16:05:54.999Z</time></trkpt><trkpt lat="45.62301209159406" lon="10.570700757766513"><ele>81.0</ele><time>2026-03-29T16:05:55.999Z</time></trkpt><trkpt lat="45.62289779430766" lon="10.570582998789964"><ele>81.0</ele><time>2026-03-29T16:05:56.999Z</time></trkpt><trkpt lat="45.62278047300988" lon="10.570452505664992"><ele>79.0</ele><time>2026-03-29T16:05:57.999Z</time></trkpt><trkpt lat="45.6226766102999" lon="10.570284646799399"><ele>77.0</ele><time>2026-03-29T16:05:58.999Z</time></trkpt><trkpt lat="45.62257389332674" lon="10.570108256648263"><ele>75.0</ele><time>2026-03-29T16:05:59.999Z</time></trkpt><trkpt lat="45.62248180254647" lon="10.569949012284077"><ele>75.0</ele><time>2026-03-29T16:06:00.999Z</time></trkpt><trkpt lat="45.62238723852784" lon="10.569782617338163"><ele>75.0</ele><time>2026-03-29T16:06:01.999Z</time></trkpt><trkpt lat="45.622292894222134" lon="10.56961010229226"><ele>75.0</ele><time>2026-03-29T16:06:02.999Z</time></trkpt><trkpt lat="45.62220299766416" lon="10.569409597827493"><ele>73.0</ele><time>2026-03-29T16:06:03.999Z</time></trkpt><trkpt lat="45.622120403074874" lon="10.569195822719212"><ele>71.0</ele><time>2026-03-29T16:06:04.999Z</time></trkpt><trkpt lat="45.622037135869846" lon="10.568966085058388"><ele>69.0</ele><time>2026-03-29T16:06:05.999Z</time></trkpt><trkpt lat="45.62195249633704" lon="10.568748316136206"><ele>71.33333333333333</ele><time>2026-03-29T16:06:06.999Z</time></trkpt><trkpt lat="45.62186599573375" lon="10.568526345782871"><ele>73.66666666666666</ele><time>2026-03-29T16:06:07.999Z</time></trkpt><trkpt lat="45.62175791918618" lon="10.568320520799972"><ele>76.0</ele><time>2026-03-29T16:06:08.999Z</time></trkpt><trkpt lat="45.62164023107318" lon="10.568122660828758"><ele>76.0</ele><time>2026-03-29T16:06:09.999Z</time></trkpt><trkpt lat="45.62153186032784" lon="10.567920788062837"><ele>76.0</ele><time>2026-03-29T16:06:10.999Z</time></trkpt><trkpt lat="45.621410195721815" lon="10.567733230682713"><ele>76.0</ele><time>2026-03-29T16:06:11.999Z</time></trkpt><trkpt lat="45.62129388011316" lon="10.567531942384111"><ele>75.66666666666666</ele><time>2026-03-29T16:06:12.999Z</time></trkpt><trkpt lat="45.62118024700109" lon="10.56733783227302"><ele>75.33333333333333</ele><time>2026-03-29T16:06:13.999Z</time></trkpt><trkpt lat="45.62105677240179" lon="10.567142525842293"><ele>75.0</ele><time>2026-03-29T16:06:14.999Z</time></trkpt><trkpt lat="45.62093303140554" lon="10.566951468972503"><ele>75.0</ele><time>2026-03-29T16:06:15.999Z</time></trkpt><trkpt lat="45.620796604745195" lon="10.566767169564113"><ele>75.0</ele><time>2026-03-29T16:06:16.999Z</time></trkpt><trkpt lat="45.620668074430576" lon="10.566565918653385"><ele>75.0</ele><time>2026-03-29T16:06:17.999Z</time></trkpt><trkpt lat="45.620537238160864" lon="10.56637274079196"><ele>76.66666666666667</ele><time>2026-03-29T16:06:18.999Z</time></trkpt><trkpt lat="45.62040584088932" lon="10.566182747883161"><ele>78.33333333333334</ele><time>2026-03-29T16:06:19.999Z</time></trkpt><trkpt lat="45.62026523806999" lon="10.5660042490267"><ele>80.0</ele><time>2026-03-29T16:06:20.999Z</time></trkpt><trkpt lat="45.62013765954049" lon="10.565807051464617"><ele>78.33333333333334</ele><time>2026-03-29T16:06:21.999Z</time></trkpt><trkpt lat="45.61999888440241" lon="10.565605524413455"><ele>76.66666666666667</ele><time>2026-03-29T16:06:22.999Z</time></trkpt><trkpt lat="45.61987022611112" lon="10.565428754734254"><ele>75.0</ele><time>2026-03-29T16:06:23.999Z</time></trkpt><trkpt lat="45.61975109241494" lon="10.56525096777138"><ele>75.0</ele><time>2026-03-29T16:06:24.999Z</time></trkpt><trkpt lat="45.61963431625777" lon="10.565082007704609"><ele>75.0</ele><time>2026-03-29T16:06:25.999Z</time></trkpt><trkpt lat="45.61952018533331" lon="10.56492443709689"><ele>75.0</ele><time>2026-03-29T16:06:26.999Z</time></trkpt><trkpt lat="45.61944024169796" lon="10.564745840578961"><ele>74.33333333333333</ele><time>2026-03-29T16:06:27.999Z</time></trkpt><trkpt lat="45.61936289495277" lon="10.564555662649653"><ele>73.66666666666666</ele><time>2026-03-29T16:06:28.999Z</time></trkpt><trkpt lat="45.619297149312736" lon="10.56434951452693"><ele>73.0</ele><time>2026-03-29T16:06:29.999Z</time></trkpt><trkpt lat="45.619239022598904" lon="10.564160631406446"><ele>73.0</ele><time>2026-03-29T16:06:30.999Z</time></trkpt><trkpt lat="45.619193257706236" lon="10.564011918056062"><ele>73.0</ele><time>2026-03-29T16:06:31.999Z</time></trkpt><trkpt lat="45.61915438926913" lon="10.563883515588273"><ele>73.0</ele><time>2026-03-29T16:06:32.999Z</time></trkpt><trkpt lat="45.61911913165268" lon="10.563764976501268"><ele>73.0</ele><time>2026-03-29T16:06:33.999Z</time></trkpt><trkpt lat="45.619087513075186" lon="10.563658672139647"><ele>73.0</ele><time>2026-03-29T16:06:34.999Z</time></trkpt><trkpt lat="45.61905393601459" lon="10.563545783300087"><ele>73.6</ele><time>2026-03-29T16:06:35.999Z</time></trkpt><trkpt lat="45.619018458329286" lon="10.563422660367968"><ele>74.19999999999999</ele><time>2026-03-29T16:06:36.999Z</time></trkpt><trkpt lat="45.618978835259945" lon="10.563284670772799"><ele>74.8</ele><time>2026-03-29T16:06:37.999Z</time></trkpt><trkpt lat="45.618937901235434" lon="10.56314098681274"><ele>75.39999999999999</ele><time>2026-03-29T16:06:38.999Z</time></trkpt><trkpt lat="45.618894375811074" lon="10.562982621542998"><ele>76.0</ele><time>2026-03-29T16:06:39.999Z</time></trkpt><trkpt lat="45.61885535400854" lon="10.562823841908566"><ele>76.8</ele><time>2026-03-29T16:06:40.999Z</time></trkpt><trkpt lat="45.61881347267445" lon="10.562655915069394"><ele>77.6</ele><time>2026-03-29T16:06:41.999Z</time></trkpt><trkpt lat="45.61878317559161" lon="10.562514703310876"><ele>78.4</ele><time>2026-03-29T16:06:42.999Z</time></trkpt><trkpt lat="45.61875888257159" lon="10.56238446696434"><ele>79.2</ele><time>2026-03-29T16:06:43.999Z</time></trkpt><trkpt lat="45.61873551503633" lon="10.562255851211681"><ele>80.0</ele><time>2026-03-29T16:06:44.999Z</time></trkpt><trkpt lat="45.61870750867761" lon="10.562113709595465"><ele>80.16666666666667</ele><time>2026-03-29T16:06:45.999Z</time></trkpt><trkpt lat="45.61868216466513" lon="10.56199737625587"><ele>80.33333333333334</ele><time>2026-03-29T16:06:46.999Z</time></trkpt><trkpt lat="45.61866282670373" lon="10.561901206264464"><ele>80.5</ele><time>2026-03-29T16:06:47.999Z</time></trkpt><trkpt lat="45.618649318397246" lon="10.561790003453801"><ele>80.66666666666667</ele><time>2026-03-29T16:06:48.999Z</time></trkpt><trkpt lat="45.61862750990425" lon="10.561676770304626"><ele>80.83333333333333</ele><time>2026-03-29T16:06:49.999Z</time></trkpt><trkpt lat="45.61861065757524" lon="10.561589270255327"><ele>81.0</ele><time>2026-03-29T16:06:50.999Z</time></trkpt><trkpt lat="45.6185904368663" lon="10.561484281161048"><ele>79.66666666666667</ele><time>2026-03-29T16:06:51.999Z</time></trkpt><trkpt lat="45.61856964068318" lon="10.561376304089752"><ele>78.33333333333333</ele><time>2026-03-29T16:06:53Z</time></trkpt><trkpt lat="45.61855150075797" lon="10.561282118622382"><ele>77.0</ele><time>2026-03-29T16:06:54Z</time></trkpt><trkpt lat="45.618532430211324" lon="10.561183101346387"><ele>75.66666666666666</ele><time>2026-03-29T16:06:55Z</time></trkpt><trkpt lat="45.618513079770395" lon="10.561082630823606"><ele>74.33333333333333</ele><time>2026-03-29T16:06:56Z</time></trkpt><trkpt lat="45.618490970804665" lon="10.560969310816207"><ele>73.0</ele><time>2026-03-29T16:06:57Z</time></trkpt><trkpt lat="45.61846425341035" lon="10.560832590951048"><ele>73.0</ele><time>2026-03-29T16:06:58Z</time></trkpt><trkpt lat="45.61840817824474" lon="10.560701897345027"><ele>73.0</ele><time>2026-03-29T16:06:59Z</time></trkpt><trkpt lat="45.61837324165548" lon="10.56056339790629"><ele>73.0</ele><time>2026-03-29T16:07:00Z</time></trkpt><trkpt lat="45.61835962453577" lon="10.56044309790801"><ele>73.0</ele><time>2026-03-29T16:07:01Z</time></trkpt><trkpt lat="45.61833766183749" lon="10.560353197994877"><ele>73.0</ele><time>2026-03-29T16:07:02Z</time></trkpt><trkpt lat="45.618318642603555" lon="10.560255839784672"><ele>73.0</ele><time>2026-03-29T16:07:03Z</time></trkpt><trkpt lat="45.61830149305908" lon="10.56015403210228"><ele>73.2</ele><time>2026-03-29T16:07:04Z</time></trkpt><trkpt lat="45.61830390931921" lon="10.560006077992027"><ele>73.4</ele><time>2026-03-29T16:07:05Z</time></trkpt><trkpt lat="45.61827509396262" lon="10.559858815284043"><ele>73.60000000000001</ele><time>2026-03-29T16:07:06Z</time></trkpt><trkpt lat="45.61824632253763" lon="10.559710617417615"><ele>73.8</ele><time>2026-03-29T16:07:07Z</time></trkpt><trkpt lat="45.61821860109756" lon="10.559563028971967"><ele>74.0</ele><time>2026-03-29T16:07:08Z</time></trkpt><trkpt lat="45.61819841239936" lon="10.559455544703418"><ele>74.4</ele><time>2026-03-29T16:07:09Z</time></trkpt><trkpt lat="45.61818179843111" lon="10.559367092103933"><ele>74.80000000000001</ele><time>2026-03-29T16:07:10Z</time></trkpt><trkpt lat="45.618159944661606" lon="10.559259038508742"><ele>75.19999999999999</ele><time>2026-03-29T16:07:12Z</time></trkpt><trkpt lat="45.61812210751167" lon="10.559132916180271"><ele>75.6</ele><time>2026-03-29T16:07:26Z</time></trkpt><trkpt lat="45.61808976976269" lon="10.558958082443882"><ele>76.0</ele><time>2026-03-29T16:07:28Z</time></trkpt><trkpt lat="45.618068499276546" lon="10.558839377887699"><ele>77.0</ele><time>2026-03-29T16:07:29Z</time></trkpt><trkpt lat="45.61804268150635" lon="10.558698312985335"><ele>78.0</ele><time>2026-03-29T16:07:30Z</time></trkpt><trkpt lat="45.618015088472426" lon="10.55856671812986"><ele>79.0</ele><time>2026-03-29T16:07:31Z</time></trkpt><trkpt lat="45.617981649794594" lon="10.5584259692658"><ele>80.0</ele><time>2026-03-29T16:07:32Z</time></trkpt><trkpt lat="45.61795756692761" lon="10.558291703866889"><ele>81.0</ele><time>2026-03-29T16:07:33Z</time></trkpt><trkpt lat="45.6179068360837" lon="10.558187059807063"><ele>81.0</ele><time>2026-03-29T16:07:34Z</time></trkpt><trkpt lat="45.617842334375496" lon="10.558075940545631"><ele>81.0</ele><time>2026-03-29T16:07:35Z</time></trkpt><trkpt lat="45.617777659718186" lon="10.557954999866013"><ele>81.0</ele><time>2026-03-29T16:07:36Z</time></trkpt><trkpt lat="45.61770934980663" lon="10.557822731014351"><ele>81.0</ele><time>2026-03-29T16:07:37Z</time></trkpt><trkpt lat="45.61762642925153" lon="10.557695060847221"><ele>81.0</ele><time>2026-03-29T16:07:38Z</time></trkpt><trkpt lat="45.617563385865814" lon="10.557535051925198"><ele>80.75</ele><time>2026-03-29T16:07:39Z</time></trkpt><trkpt lat="45.617478915932026" lon="10.557377415507396"><ele>80.5</ele><time>2026-03-29T16:07:40Z</time></trkpt><trkpt lat="45.617393414491694" lon="10.55721210412743"><ele>80.25</ele><time>2026-03-29T16:07:41Z</time></trkpt><trkpt lat="45.61730784449507" lon="10.557040787938117"><ele>80.0</ele><time>2026-03-29T16:07:42Z</time></trkpt><trkpt lat="45.617213180422155" lon="10.556890326522048"><ele>80.0</ele><time>2026-03-29T16:07:43Z</time></trkpt><trkpt lat="45.61713304966892" lon="10.556729506221872"><ele>80.0</ele><time>2026-03-29T16:07:44Z</time></trkpt><trkpt lat="45.61704470954029" lon="10.55658492443344"><ele>80.0</ele><time>2026-03-29T16:07:45Z</time></trkpt><trkpt lat="45.6169678457095" lon="10.556431015913228"><ele>80.0</ele><time>2026-03-29T16:07:46Z</time></trkpt><trkpt lat="45.61687872521375" lon="10.556289056149424"><ele>79.25</ele><time>2026-03-29T16:07:47Z</time></trkpt><trkpt lat="45.6168049125923" lon="10.556139239219652"><ele>78.5</ele><time>2026-03-29T16:07:48Z</time></trkpt><trkpt lat="45.616730951962126" lon="10.55598492921402"><ele>77.75</ele><time>2026-03-29T16:07:49Z</time></trkpt><trkpt lat="45.61664340940619" lon="10.555847523554801"><ele>77.0</ele><time>2026-03-29T16:07:50Z</time></trkpt><trkpt lat="45.616567783046385" lon="10.55569131095393"><ele>77.0</ele><time>2026-03-29T16:07:51Z</time></trkpt><trkpt lat="45.61649722004204" lon="10.555544723034556"><ele>77.0</ele><time>2026-03-29T16:07:52Z</time></trkpt><trkpt lat="45.616431915382265" lon="10.555415218552888"><ele>77.0</ele><time>2026-03-29T16:07:53Z</time></trkpt><trkpt lat="45.61637347515499" lon="10.555279951948966"><ele>77.0</ele><time>2026-03-29T16:07:54Z</time></trkpt><trkpt lat="45.61630249516855" lon="10.555151430884559"><ele>77.0</ele><time>2026-03-29T16:07:55Z</time></trkpt><trkpt lat="45.616238125665895" lon="10.555013830139023"><ele>77.0</ele><time>2026-03-29T16:07:56Z</time></trkpt><trkpt lat="45.61617676633548" lon="10.554876381471171"><ele>77.0</ele><time>2026-03-29T16:07:57Z</time></trkpt><trkpt lat="45.61610807203274" lon="10.55473908598647"><ele>77.0</ele><time>2026-03-29T16:07:58Z</time></trkpt><trkpt lat="45.616038716726806" lon="10.554599600969174"><ele>78.0</ele><time>2026-03-29T16:07:59Z</time></trkpt><trkpt lat="45.61597181793" lon="10.55446359014291"><ele>79.0</ele><time>2026-03-29T16:08:00Z</time></trkpt><trkpt lat="45.61590006343241" lon="10.554322761261083"><ele>80.0</ele><time>2026-03-29T16:08:01Z</time></trkpt><trkpt lat="45.615835508898904" lon="10.554171626398288"><ele>81.0</ele><time>2026-03-29T16:08:02Z</time></trkpt><trkpt lat="45.61576091308869" lon="10.554023209605294"><ele>81.0</ele><time>2026-03-29T16:08:03Z</time></trkpt><trkpt lat="45.615700079463764" lon="10.553872619754975"><ele>81.0</ele><time>2026-03-29T16:08:04Z</time></trkpt><trkpt lat="45.615638729452264" lon="10.5537438959556"><ele>81.0</ele><time>2026-03-29T16:08:05Z</time></trkpt><trkpt lat="45.6155805874134" lon="10.553611613876134"><ele>81.0</ele><time>2026-03-29T16:08:06Z</time></trkpt><trkpt lat="45.615515468491694" lon="10.55346458533626"><ele>81.19999999999999</ele><time>2026-03-29T16:08:07Z</time></trkpt><trkpt lat="45.615454616661914" lon="10.553315651917401"><ele>81.39999999999999</ele><time>2026-03-29T16:08:08Z</time></trkpt><trkpt lat="45.61539895073951" lon="10.55319164396729"><ele>81.6</ele><time>2026-03-29T16:08:09Z</time></trkpt><trkpt lat="45.61534327934201" lon="10.553058692238617"><ele>81.8</ele><time>2026-03-29T16:08:10Z</time></trkpt><trkpt lat="45.61529058988489" lon="10.552924561603321"><ele>82.0</ele><time>2026-03-29T16:08:10.999Z</time></trkpt><trkpt lat="45.615228739006305" lon="10.55278930785987"><ele>80.5</ele><time>2026-03-29T16:08:11.999Z</time></trkpt><trkpt lat="45.61517297617858" lon="10.552636342993411"><ele>79.0</ele><time>2026-03-29T16:08:12.999Z</time></trkpt><trkpt lat="45.615111419506974" lon="10.55249457748239"><ele>77.5</ele><time>2026-03-29T16:08:13.999Z</time></trkpt><trkpt lat="45.61505039810606" lon="10.552348850674473"><ele>76.0</ele><time>2026-03-29T16:08:14.999Z</time></trkpt><trkpt lat="45.61499033799425" lon="10.552202509478274"><ele>76.0</ele><time>2026-03-29T16:08:15.999Z</time></trkpt><trkpt lat="45.6149287136715" lon="10.552055890167033"><ele>76.0</ele><time>2026-03-29T16:08:16.999Z</time></trkpt><trkpt lat="45.614866006790905" lon="10.551909861383804"><ele>76.0</ele><time>2026-03-29T16:08:17.999Z</time></trkpt><trkpt lat="45.61480258512445" lon="10.551759591445705"><ele>76.0</ele><time>2026-03-29T16:08:18.999Z</time></trkpt><trkpt lat="45.61474753542023" lon="10.55160151811997"><ele>76.25</ele><time>2026-03-29T16:08:19.999Z</time></trkpt><trkpt lat="45.614689477775904" lon="10.551445885482996"><ele>76.5</ele><time>2026-03-29T16:08:20.999Z</time></trkpt><trkpt lat="45.614626366044085" lon="10.5512924751985"><ele>76.75</ele><time>2026-03-29T16:08:21.999Z</time></trkpt><trkpt lat="45.61456556456399" lon="10.551136572928991"><ele>77.0</ele><time>2026-03-29T16:08:22.999Z</time></trkpt><trkpt lat="45.61450725191142" lon="10.55097311366248"><ele>76.0</ele><time>2026-03-29T16:08:23.999Z</time></trkpt><trkpt lat="45.614459654405245" lon="10.550807193065571"><ele>75.0</ele><time>2026-03-29T16:08:24.999Z</time></trkpt><trkpt lat="45.61440889256778" lon="10.550641899441162"><ele>74.0</ele><time>2026-03-29T16:08:25.999Z</time></trkpt><trkpt lat="45.61436841927389" lon="10.550468749039977"><ele>73.0</ele><time>2026-03-29T16:08:26.999Z</time></trkpt><trkpt lat="45.61433064758487" lon="10.550295433482514"><ele>73.0</ele><time>2026-03-29T16:08:27.999Z</time></trkpt><trkpt lat="45.61430175994905" lon="10.550113280105126"><ele>73.0</ele><time>2026-03-29T16:08:28.999Z</time></trkpt><trkpt lat="45.61427059999502" lon="10.549926477240142"><ele>73.0</ele><time>2026-03-29T16:08:29.999Z</time></trkpt><trkpt lat="45.61423589862214" lon="10.549734641427426"><ele>73.0</ele><time>2026-03-29T16:08:30.999Z</time></trkpt><trkpt lat="45.61419581769509" lon="10.54954039578213"><ele>73.0</ele><time>2026-03-29T16:08:31.999Z</time></trkpt><trkpt lat="45.61415719847681" lon="10.549341870046508"><ele>73.0</ele><time>2026-03-29T16:08:32.999Z</time></trkpt><trkpt lat="45.61412092357735" lon="10.549132740097813"><ele>73.0</ele><time>2026-03-29T16:08:33.999Z</time></trkpt><trkpt lat="45.61407931180255" lon="10.548922093888017"><ele>73.0</ele><time>2026-03-29T16:08:34.999Z</time></trkpt><trkpt lat="45.61404219520386" lon="10.548706982454322"><ele>73.5</ele><time>2026-03-29T16:08:35.999Z</time></trkpt><trkpt lat="45.61400300335072" lon="10.54849402137616"><ele>74.0</ele><time>2026-03-29T16:08:36.999Z</time></trkpt><trkpt lat="45.61396997170109" lon="10.548305027488166"><ele>74.5</ele><time>2026-03-29T16:08:37.999Z</time></trkpt><trkpt lat="45.61393491225522" lon="10.548113644527092"><ele>75.0</ele><time>2026-03-29T16:08:38.999Z</time></trkpt><trkpt lat="45.61389936862786" lon="10.547922304881244"><ele>76.33333333333333</ele><time>2026-03-29T16:08:39.999Z</time></trkpt><trkpt lat="45.613858773790874" lon="10.547715087212184"><ele>77.66666666666666</ele><time>2026-03-29T16:08:40.999Z</time></trkpt><trkpt lat="45.61380922681334" lon="10.54748234280055"><ele>79.0</ele><time>2026-03-29T16:08:41.999Z</time></trkpt><trkpt lat="45.61376223018188" lon="10.547234644503911"><ele>79.66666666666666</ele><time>2026-03-29T16:08:42.999Z</time></trkpt><trkpt lat="45.61373006072171" lon="10.546970180901003"><ele>80.33333333333333</ele><time>2026-03-29T16:08:43.999Z</time></trkpt><trkpt lat="45.61367160459696" lon="10.546682458110274"><ele>81.0</ele><time>2026-03-29T16:08:44.999Z</time></trkpt><trkpt lat="45.6136018494464" lon="10.54634420066352"><ele>79.33333333333333</ele><time>2026-03-29T16:08:45.999Z</time></trkpt><trkpt lat="45.61354332398809" lon="10.546055789891241"><ele>77.66666666666666</ele><time>2026-03-29T16:08:46.999Z</time></trkpt><trkpt lat="45.61347837957907" lon="10.54581333468962"><ele>76.0</ele><time>2026-03-29T16:08:47.999Z</time></trkpt><trkpt lat="45.6134450504383" lon="10.545580023358319"><ele>79.0</ele><time>2026-03-29T16:08:48.999Z</time></trkpt><trkpt lat="45.61338721464765" lon="10.545329984399542"><ele>82.0</ele><time>2026-03-29T16:08:49.999Z</time></trkpt><trkpt lat="45.61327675796207" lon="10.545045675106786"><ele>85.0</ele><time>2026-03-29T16:08:50.999Z</time></trkpt><trkpt lat="45.61319827105649" lon="10.544793665924221"><ele>85.0</ele><time>2026-03-29T16:08:51.999Z</time></trkpt><trkpt lat="45.61311497028138" lon="10.54458858300519"><ele>85.0</ele><time>2026-03-29T16:08:52.999Z</time></trkpt><trkpt lat="45.613039446925285" lon="10.544380625506607"><ele>85.0</ele><time>2026-03-29T16:08:53.999Z</time></trkpt><trkpt lat="45.612967878021664" lon="10.544195597128986"><ele>82.25</ele><time>2026-03-29T16:08:54.999Z</time></trkpt><trkpt lat="45.61290234501563" lon="10.544014983624491"><ele>79.5</ele><time>2026-03-29T16:08:55.999Z</time></trkpt><trkpt lat="45.61284394356669" lon="10.543833406040727"><ele>76.75</ele><time>2026-03-29T16:08:56.999Z</time></trkpt><trkpt lat="45.612790592314596" lon="10.543647036012555"><ele>74.0</ele><time>2026-03-29T16:08:57.999Z</time></trkpt><trkpt lat="45.61274933404658" lon="10.543441471731214"><ele>74.0</ele><time>2026-03-29T16:08:59Z</time></trkpt><trkpt lat="45.61271682233535" lon="10.543224480079083"><ele>74.0</ele><time>2026-03-29T16:09:00Z</time></trkpt><trkpt lat="45.61267899680169" lon="10.5429991408609"><ele>74.0</ele><time>2026-03-29T16:09:01Z</time></trkpt><trkpt lat="45.612637718351586" lon="10.54277220735358"><ele>75.66666666666667</ele><time>2026-03-29T16:09:02Z</time></trkpt><trkpt lat="45.61258688877659" lon="10.542543004533226"><ele>77.33333333333333</ele><time>2026-03-29T16:09:03Z</time></trkpt><trkpt lat="45.6125224122725" lon="10.542307591131749"><ele>79.0</ele><time>2026-03-29T16:09:04Z</time></trkpt><trkpt lat="45.612448595648544" lon="10.542075748251602"><ele>81.0</ele><time>2026-03-29T16:09:05Z</time></trkpt><trkpt lat="45.61237235301289" lon="10.541856911333078"><ele>83.0</ele><time>2026-03-29T16:09:06Z</time></trkpt><trkpt lat="45.61229397370265" lon="10.541636771496371"><ele>85.0</ele><time>2026-03-29T16:09:07Z</time></trkpt><trkpt lat="45.61220943502561" lon="10.541414192477102"><ele>82.33333333333333</ele><time>2026-03-29T16:09:08Z</time></trkpt><trkpt lat="45.61212388564727" lon="10.54118937416472"><ele>79.66666666666667</ele><time>2026-03-29T16:09:09Z</time></trkpt><trkpt lat="45.612039475866304" lon="10.54095526782489"><ele>77.0</ele><time>2026-03-29T16:09:10Z</time></trkpt><trkpt lat="45.61194828130583" lon="10.540726409220246"><ele>77.0</ele><time>2026-03-29T16:09:11Z</time></trkpt><trkpt lat="45.61185604219035" lon="10.540486404521435"><ele>77.0</ele><time>2026-03-29T16:09:12Z</time></trkpt><trkpt lat="45.61176794236288" lon="10.540249162008763"><ele>77.0</ele><time>2026-03-29T16:09:13Z</time></trkpt><trkpt lat="45.61169133629269" lon="10.54002714044693"><ele>80.0</ele><time>2026-03-29T16:09:14Z</time></trkpt><trkpt lat="45.61162039884032" lon="10.539823113030042"><ele>83.0</ele><time>2026-03-29T16:09:15Z</time></trkpt><trkpt lat="45.61154469918896" lon="10.53961089424007"><ele>86.0</ele><time>2026-03-29T16:09:16Z</time></trkpt><trkpt lat="45.61146524164818" lon="10.539408199465347"><ele>88.33333333333334</ele><time>2026-03-29T16:09:17Z</time></trkpt><trkpt lat="45.61138105742364" lon="10.539202795401684"><ele>90.66666666666667</ele><time>2026-03-29T16:09:18Z</time></trkpt><trkpt lat="45.6113033536408" lon="10.538995146031858"><ele>93.0</ele><time>2026-03-29T16:09:19Z</time></trkpt><trkpt lat="45.611222502163876" lon="10.538790784616335"><ele>90.0</ele><time>2026-03-29T16:09:20Z</time></trkpt><trkpt lat="45.611144212881726" lon="10.538583922647685"><ele>87.0</ele><time>2026-03-29T16:09:21Z</time></trkpt><trkpt lat="45.61106611876357" lon="10.538381243991264"><ele>84.0</ele><time>2026-03-29T16:09:22Z</time></trkpt><trkpt lat="45.61099032691478" lon="10.538176424288105"><ele>84.0</ele><time>2026-03-29T16:09:23Z</time></trkpt><trkpt lat="45.6109198646697" lon="10.53798878363372"><ele>84.0</ele><time>2026-03-29T16:09:24Z</time></trkpt><trkpt lat="45.61088624436999" lon="10.537806388229946"><ele>84.0</ele><time>2026-03-29T16:09:25Z</time></trkpt><trkpt lat="45.61084873033013" lon="10.537645636767609"><ele>84.0</ele><time>2026-03-29T16:09:26Z</time></trkpt><trkpt lat="45.61080545556141" lon="10.537503414438397"><ele>85.5</ele><time>2026-03-29T16:09:27Z</time></trkpt><trkpt lat="45.61079338958298" lon="10.537374308333108"><ele>87.0</ele><time>2026-03-29T16:09:28Z</time></trkpt><trkpt lat="45.610779471481514" lon="10.537266384805228"><ele>88.5</ele><time>2026-03-29T16:09:29Z</time></trkpt><trkpt lat="45.61077595757035" lon="10.537168255053768"><ele>90.0</ele><time>2026-03-29T16:09:30Z</time></trkpt><trkpt lat="45.61079459023837" lon="10.53699725184905"><ele>91.5</ele><time>2026-03-29T16:09:32Z</time></trkpt><trkpt lat="45.6108077259179" lon="10.536898813752627"><ele>93.0</ele><time>2026-03-29T16:09:33Z</time></trkpt><trkpt lat="45.61081671947351" lon="10.53679106482112"><ele>94.5</ele><time>2026-03-29T16:09:34Z</time></trkpt><trkpt lat="45.61082162931861" lon="10.536678390812133"><ele>96.0</ele><time>2026-03-29T16:09:35Z</time></trkpt><trkpt lat="45.61080444190147" lon="10.536562192685695"><ele>97.5</ele><time>2026-03-29T16:09:36Z</time></trkpt><trkpt lat="45.61078717122054" lon="10.536447875793666"><ele>99.0</ele><time>2026-03-29T16:09:37Z</time></trkpt><trkpt lat="45.61074906134668" lon="10.536334906501851"><ele>100.5</ele><time>2026-03-29T16:09:38Z</time></trkpt><trkpt lat="45.61068847368609" lon="10.536208670278272"><ele>102.0</ele><time>2026-03-29T16:09:39Z</time></trkpt><trkpt lat="45.61062174397929" lon="10.536079379255073"><ele>105.75</ele><time>2026-03-29T16:09:40Z</time></trkpt><trkpt lat="45.61055154344399" lon="10.535939808850792"><ele>109.5</ele><time>2026-03-29T16:09:41Z</time></trkpt><trkpt lat="45.61048097886191" lon="10.535800083321462"><ele>113.25</ele><time>2026-03-29T16:09:42Z</time></trkpt><trkpt lat="45.61040958994071" lon="10.535648351274121"><ele>117.0</ele><time>2026-03-29T16:09:43Z</time></trkpt><trkpt lat="45.61033956783645" lon="10.535487154399895"><ele>112.25</ele><time>2026-03-29T16:09:44Z</time></trkpt><trkpt lat="45.61027878144197" lon="10.535310000687538"><ele>107.5</ele><time>2026-03-29T16:09:45Z</time></trkpt><trkpt lat="45.61021118420466" lon="10.535140317925878"><ele>102.75</ele><time>2026-03-29T16:09:46Z</time></trkpt><trkpt lat="45.61015297213744" lon="10.53496545533498"><ele>98.0</ele><time>2026-03-29T16:09:47Z</time></trkpt><trkpt lat="45.61010001549176" lon="10.534805606231581"><ele>98.0</ele><time>2026-03-29T16:09:48Z</time></trkpt><trkpt lat="45.61004099958564" lon="10.53467273827331"><ele>98.0</ele><time>2026-03-29T16:09:49Z</time></trkpt><trkpt lat="45.60996713005363" lon="10.534571159999539"><ele>98.0</ele><time>2026-03-29T16:09:50Z</time></trkpt><trkpt lat="45.609891136099044" lon="10.534482473674572"><ele>98.0</ele><time>2026-03-29T16:09:51Z</time></trkpt><trkpt lat="45.60982494424429" lon="10.534388518431626"><ele>98.0</ele><time>2026-03-29T16:09:52Z</time></trkpt><trkpt lat="45.60976307121713" lon="10.534298043972708"><ele>101.60000000000001</ele><time>2026-03-29T16:09:53Z</time></trkpt><trkpt lat="45.609708695423215" lon="10.534207628892393"><ele>105.2</ele><time>2026-03-29T16:09:54Z</time></trkpt><trkpt lat="45.609656874962404" lon="10.534108457966488"><ele>108.8</ele><time>2026-03-29T16:09:55Z</time></trkpt><trkpt lat="45.60961244649223" lon="10.533983289891607"><ele>112.4</ele><time>2026-03-29T16:09:56Z</time></trkpt><trkpt lat="45.609573425960406" lon="10.53383354486031"><ele>116.0</ele><time>2026-03-29T16:09:57Z</time></trkpt><trkpt lat="45.609542473064316" lon="10.533670059263809"><ele>118.19999999999999</ele><time>2026-03-29T16:09:58Z</time></trkpt><trkpt lat="45.60951694961994" lon="10.533495941392113"><ele>120.39999999999999</ele><time>2026-03-29T16:09:59Z</time></trkpt><trkpt lat="45.609508084868814" lon="10.533333391262197"><ele>122.6</ele><time>2026-03-29T16:10:00Z</time></trkpt><trkpt lat="45.60950388672542" lon="10.533189181763955"><ele>124.8</ele><time>2026-03-29T16:10:01Z</time></trkpt><trkpt lat="45.60950494772759" lon="10.533043110827032"><ele>127.0</ele><time>2026-03-29T16:10:02Z</time></trkpt><trkpt lat="45.60951306446049" lon="10.532896760592307"><ele>126.0</ele><time>2026-03-29T16:10:03Z</time></trkpt><trkpt lat="45.609559310628605" lon="10.532766151804267"><ele>124.99999999999999</ele><time>2026-03-29T16:10:04Z</time></trkpt><trkpt lat="45.60960575613009" lon="10.532632027947662"><ele>123.99999999999999</ele><time>2026-03-29T16:10:05Z</time></trkpt><trkpt lat="45.60966572097802" lon="10.532485943254665"><ele>123.0</ele><time>2026-03-29T16:10:06Z</time></trkpt><trkpt lat="45.60971920196307" lon="10.53232795648464"><ele>122.0</ele><time>2026-03-29T16:10:07Z</time></trkpt><trkpt lat="45.60977844139748" lon="10.532181628437392"><ele>121.39999999999999</ele><time>2026-03-29T16:10:08Z</time></trkpt><trkpt lat="45.60982054923213" lon="10.532049377188374"><ele>120.79999999999998</ele><time>2026-03-29T16:10:09Z</time></trkpt><trkpt lat="45.60985142791751" lon="10.53191096775342"><ele>120.2</ele><time>2026-03-29T16:10:10Z</time></trkpt><trkpt lat="45.609855693322366" lon="10.531760402156774"><ele>119.6</ele><time>2026-03-29T16:10:11Z</time></trkpt><trkpt lat="45.60983463460259" lon="10.53161315805889"><ele>119.0</ele><time>2026-03-29T16:10:12Z</time></trkpt><trkpt lat="45.60978895578326" lon="10.5314733956984"><ele>119.0</ele><time>2026-03-29T16:10:13Z</time></trkpt><trkpt lat="45.609722655611186" lon="10.53132260029895"><ele>119.0</ele><time>2026-03-29T16:10:14Z</time></trkpt><trkpt lat="45.60964194035653" lon="10.531169434766653"><ele>119.0</ele><time>2026-03-29T16:10:15Z</time></trkpt><trkpt lat="45.60955935650984" lon="10.53099920061563"><ele>119.0</ele><time>2026-03-29T16:10:16Z</time></trkpt><trkpt lat="45.60947760504782" lon="10.530825560502677"><ele>118.0</ele><time>2026-03-29T16:10:17Z</time></trkpt><trkpt lat="45.60939342049003" lon="10.530643971376405"><ele>117.0</ele><time>2026-03-29T16:10:18Z</time></trkpt><trkpt lat="45.609323325154875" lon="10.53046770885549"><ele>116.0</ele><time>2026-03-29T16:10:19Z</time></trkpt><trkpt lat="45.609257394239826" lon="10.530306453099952"><ele>115.0</ele><time>2026-03-29T16:10:20Z</time></trkpt><trkpt lat="45.60919529305682" lon="10.530142444414327"><ele>115.0</ele><time>2026-03-29T16:10:21Z</time></trkpt><trkpt lat="45.60913520685237" lon="10.529971480178451"><ele>115.0</ele><time>2026-03-29T16:10:22Z</time></trkpt><trkpt lat="45.609072821389944" lon="10.529805363937065"><ele>115.0</ele><time>2026-03-29T16:10:23Z</time></trkpt><trkpt lat="45.609015944161406" lon="10.5296339444175"><ele>115.0</ele><time>2026-03-29T16:10:24Z</time></trkpt><trkpt lat="45.608965746538644" lon="10.529465787186343"><ele>117.75</ele><time>2026-03-29T16:10:25Z</time></trkpt><trkpt lat="45.608926674283474" lon="10.529314257996003"><ele>120.5</ele><time>2026-03-29T16:10:26Z</time></trkpt><trkpt lat="45.60889086743388" lon="10.529149231759133"><ele>123.25</ele><time>2026-03-29T16:10:27Z</time></trkpt><trkpt lat="45.608861798512635" lon="10.528974362929336"><ele>126.0</ele><time>2026-03-29T16:10:28Z</time></trkpt><trkpt lat="45.608840236782086" lon="10.528784749269875"><ele>127.66666666666666</ele><time>2026-03-29T16:10:29Z</time></trkpt><trkpt lat="45.60881764650762" lon="10.528579833579425"><ele>129.33333333333331</ele><time>2026-03-29T16:10:30Z</time></trkpt><trkpt lat="45.60879778345949" lon="10.528362207641313"><ele>131.0</ele><time>2026-03-29T16:10:31Z</time></trkpt><trkpt lat="45.60877654255972" lon="10.528138654498658"><ele>131.0</ele><time>2026-03-29T16:10:32Z</time></trkpt><trkpt lat="45.60875001976545" lon="10.52791031291985"><ele>131.0</ele><time>2026-03-29T16:10:32.999Z</time></trkpt><trkpt lat="45.60872494536291" lon="10.5276753202739"><ele>131.0</ele><time>2026-03-29T16:10:33.999Z</time></trkpt><trkpt lat="45.60870266497024" lon="10.527449726883562"><ele>131.5</ele><time>2026-03-29T16:10:34.999Z</time></trkpt><trkpt lat="45.60868319364512" lon="10.527245293841963"><ele>132.0</ele><time>2026-03-29T16:10:35.999Z</time></trkpt><trkpt lat="45.608665758014354" lon="10.52705459998651"><ele>132.5</ele><time>2026-03-29T16:10:36.999Z</time></trkpt><trkpt lat="45.60865511941894" lon="10.526879920832739"><ele>133.0</ele><time>2026-03-29T16:10:37.999Z</time></trkpt><trkpt lat="45.60864738192848" lon="10.526698835097404"><ele>125.5</ele><time>2026-03-29T16:10:38.999Z</time></trkpt><trkpt lat="45.60863708764685" lon="10.526510183023287"><ele>118.0</ele><time>2026-03-29T16:10:39.999Z</time></trkpt><trkpt lat="45.60863352597409" lon="10.526316946881874"><ele>110.5</ele><time>2026-03-29T16:10:40.999Z</time></trkpt><trkpt lat="45.60863047451831" lon="10.526116895786023"><ele>103.0</ele><time>2026-03-29T16:10:41.999Z</time></trkpt><trkpt lat="45.608634421507254" lon="10.525935808504215"><ele>102.5</ele><time>2026-03-29T16:10:42.999Z</time></trkpt><trkpt lat="45.60864287817965" lon="10.525759859298773"><ele>102.0</ele><time>2026-03-29T16:10:43.999Z</time></trkpt><trkpt lat="45.60866477433902" lon="10.525576234864518"><ele>101.5</ele><time>2026-03-29T16:10:44.999Z</time></trkpt><trkpt lat="45.60867303104552" lon="10.525386262571617"><ele>101.0</ele><time>2026-03-29T16:10:45.999Z</time></trkpt><trkpt lat="45.60868276249326" lon="10.525194525720242"><ele>109.0</ele><time>2026-03-29T16:10:46.999Z</time></trkpt><trkpt lat="45.60869195691618" lon="10.524988595089726"><ele>117.0</ele><time>2026-03-29T16:10:47.999Z</time></trkpt><trkpt lat="45.6087060749201" lon="10.524776133870377"><ele>125.0</ele><time>2026-03-29T16:10:48.999Z</time></trkpt><trkpt lat="45.608716440344054" lon="10.524563920932444"><ele>133.0</ele><time>2026-03-29T16:10:49.999Z</time></trkpt><trkpt lat="45.60874038134859" lon="10.524304419853038"><ele>133.0</ele><time>2026-03-29T16:10:50.999Z</time></trkpt><trkpt lat="45.60875732510575" lon="10.52400905607567"><ele>133.0</ele><time>2026-03-29T16:10:51.999Z</time></trkpt><trkpt lat="45.60876167010016" lon="10.52377651789615"><ele>133.0</ele><time>2026-03-29T16:10:52.999Z</time></trkpt><trkpt lat="45.60877624408076" lon="10.523572792867338"><ele>132.4</ele><time>2026-03-29T16:10:53.999Z</time></trkpt><trkpt lat="45.60877287672447" lon="10.523394131110921"><ele>131.8</ele><time>2026-03-29T16:10:54.999Z</time></trkpt><trkpt lat="45.60875774582733" lon="10.523238463779883"><ele>131.2</ele><time>2026-03-29T16:10:55.999Z</time></trkpt><trkpt lat="45.60873381148287" lon="10.523097218344097"><ele>130.6</ele><time>2026-03-29T16:10:56.999Z</time></trkpt><trkpt lat="45.60868573565598" lon="10.522956573547857"><ele>130.0</ele><time>2026-03-29T16:10:57.999Z</time></trkpt><trkpt lat="45.608643222168475" lon="10.522805344641892"><ele>124.6</ele><time>2026-03-29T16:10:58.999Z</time></trkpt><trkpt lat="45.60859773697412" lon="10.522655167216676"><ele>119.2</ele><time>2026-03-29T16:10:59.999Z</time></trkpt><trkpt lat="45.608562258192016" lon="10.52251991112785"><ele>113.80000000000001</ele><time>2026-03-29T16:11:00.999Z</time></trkpt><trkpt lat="45.608539605627094" lon="10.52237895188352"><ele>108.4</ele><time>2026-03-29T16:11:01.999Z</time></trkpt><trkpt lat="45.60852584175403" lon="10.522235971671705"><ele>103.0</ele><time>2026-03-29T16:11:02.999Z</time></trkpt><trkpt lat="45.608531211674645" lon="10.522090220909563"><ele>101.5</ele><time>2026-03-29T16:11:03.999Z</time></trkpt><trkpt lat="45.608552431672194" lon="10.521945942910731"><ele>100.0</ele><time>2026-03-29T16:11:05Z</time></trkpt><trkpt lat="45.60859657843567" lon="10.521810572849601"><ele>98.5</ele><time>2026-03-29T16:11:06Z</time></trkpt><trkpt lat="45.60867387701889" lon="10.521683871426019"><ele>97.0</ele><time>2026-03-29T16:11:07Z</time></trkpt><trkpt lat="45.60875750561134" lon="10.521537276666734"><ele>99.25</ele><time>2026-03-29T16:11:08Z</time></trkpt><trkpt lat="45.6088417647554" lon="10.521378600329916"><ele>101.5</ele><time>2026-03-29T16:11:09Z</time></trkpt><trkpt lat="45.60894286037942" lon="10.521240770832113"><ele>103.75</ele><time>2026-03-29T16:11:10Z</time></trkpt><trkpt lat="45.609038947186335" lon="10.521088329451967"><ele>106.0</ele><time>2026-03-29T16:11:11Z</time></trkpt><trkpt lat="45.609137940559265" lon="10.520955104251197"><ele>106.0</ele><time>2026-03-29T16:11:12Z</time></trkpt><trkpt lat="45.609249508053075" lon="10.52083221902651"><ele>106.0</ele><time>2026-03-29T16:11:13Z</time></trkpt><trkpt lat="45.60937954711936" lon="10.520642931578127"><ele>106.0</ele><time>2026-03-29T16:11:14Z</time></trkpt><trkpt lat="45.60953349557212" lon="10.520410617922838"><ele>108.5</ele><time>2026-03-29T16:11:15Z</time></trkpt><trkpt lat="45.60968156638572" lon="10.520164164099727"><ele>111.0</ele><time>2026-03-29T16:11:16Z</time></trkpt><trkpt lat="45.60983546335728" lon="10.519897393495723"><ele>111.0</ele><time>2026-03-29T16:11:17Z</time></trkpt><trkpt lat="45.60996878031158" lon="10.519620836601186"><ele>111.0</ele><time>2026-03-29T16:11:18Z</time></trkpt><trkpt lat="45.61007135104614" lon="10.519368207064637"><ele>111.0</ele><time>2026-03-29T16:11:19Z</time></trkpt><trkpt lat="45.6101558755228" lon="10.519126624352868"><ele>110.0</ele><time>2026-03-29T16:11:20Z</time></trkpt><trkpt lat="45.61022495674634" lon="10.518901180204825"><ele>109.0</ele><time>2026-03-29T16:11:21Z</time></trkpt><trkpt lat="45.61028338040577" lon="10.518673693837064"><ele>108.0</ele><time>2026-03-29T16:11:22Z</time></trkpt><trkpt lat="45.61032892089161" lon="10.518479647920534"><ele>110.5</ele><time>2026-03-29T16:11:23Z</time></trkpt><trkpt lat="45.61036935078573" lon="10.518305697197592"><ele>113.0</ele><time>2026-03-29T16:11:24Z</time></trkpt><trkpt lat="45.61040405497528" lon="10.518114350397939"><ele>115.5</ele><time>2026-03-29T16:11:25Z</time></trkpt><trkpt lat="45.61044328555379" lon="10.517912923910428"><ele>118.0</ele><time>2026-03-29T16:11:26Z</time></trkpt><trkpt lat="45.61048459055944" lon="10.517720682125933"><ele>118.66666666666667</ele><time>2026-03-29T16:11:27Z</time></trkpt><trkpt lat="45.61052660690721" lon="10.517526573295925"><ele>119.33333333333334</ele><time>2026-03-29T16:11:28Z</time></trkpt><trkpt lat="45.610571231019776" lon="10.51732257461178"><ele>120.0</ele><time>2026-03-29T16:11:29Z</time></trkpt><trkpt lat="45.61061762701467" lon="10.51708438498842"><ele>118.0</ele><time>2026-03-29T16:11:30Z</time></trkpt><trkpt lat="45.61068867926125" lon="10.516794753761555"><ele>116.0</ele><time>2026-03-29T16:11:31Z</time></trkpt><trkpt lat="45.61075287202449" lon="10.516447475215587"><ele>114.0</ele><time>2026-03-29T16:11:32Z</time></trkpt><trkpt lat="45.61084744058532" lon="10.516082062079777"><ele>112.0</ele><time>2026-03-29T16:11:33Z</time></trkpt><trkpt lat="45.61092801072833" lon="10.515710947032579"><ele>110.5</ele><time>2026-03-29T16:11:34Z</time></trkpt><trkpt lat="45.61100121238827" lon="10.515382578715993"><ele>109.0</ele><time>2026-03-29T16:11:35Z</time></trkpt><trkpt lat="45.61106674135957" lon="10.515089666327754"><ele>109.0</ele><time>2026-03-29T16:11:36Z</time></trkpt><trkpt lat="45.61113551753841" lon="10.514797018004014"><ele>109.0</ele><time>2026-03-29T16:11:37Z</time></trkpt><trkpt lat="45.61120257637577" lon="10.51449688423329"><ele>109.0</ele><time>2026-03-29T16:11:38Z</time></trkpt><trkpt lat="45.61125952652429" lon="10.514216765647449"><ele>111.33333333333334</ele><time>2026-03-29T16:11:39Z</time></trkpt><trkpt lat="45.61131515753246" lon="10.513956478058196"><ele>113.66666666666666</ele><time>2026-03-29T16:11:40Z</time></trkpt><trkpt lat="45.61137131255399" lon="10.513697394027124"><ele>116.0</ele><time>2026-03-29T16:11:41Z</time></trkpt><trkpt lat="45.61142656464803" lon="10.513438143590044"><ele>116.0</ele><time>2026-03-29T16:11:42Z</time></trkpt><trkpt lat="45.61148361591207" lon="10.513173332315777"><ele>116.0</ele><time>2026-03-29T16:11:43Z</time></trkpt><trkpt lat="45.61153968194935" lon="10.512907673599823"><ele>116.0</ele><time>2026-03-29T16:11:44Z</time></trkpt><trkpt lat="45.61159377501494" lon="10.512664996060147"><ele>115.66666666666666</ele><time>2026-03-29T16:11:45Z</time></trkpt><trkpt lat="45.611648438390446" lon="10.51243699761327"><ele>115.33333333333334</ele><time>2026-03-29T16:11:46Z</time></trkpt><trkpt lat="45.6116995687188" lon="10.51220839200196"><ele>115.0</ele><time>2026-03-29T16:11:47Z</time></trkpt><trkpt lat="45.61174881191622" lon="10.511977489250347"><ele>114.25</ele><time>2026-03-29T16:11:48Z</time></trkpt><trkpt lat="45.61179213289291" lon="10.51176215966274"><ele>113.5</ele><time>2026-03-29T16:11:49Z</time></trkpt><trkpt lat="45.611834832729535" lon="10.51156236137634"><ele>112.75</ele><time>2026-03-29T16:11:50Z</time></trkpt><trkpt lat="45.61186629720287" lon="10.511381259621816"><ele>112.0</ele><time>2026-03-29T16:11:51Z</time></trkpt><trkpt lat="45.61188877572143" lon="10.511213387850326"><ele>111.50000000000001</ele><time>2026-03-29T16:11:52Z</time></trkpt><trkpt lat="45.611906780482904" lon="10.511065182292823"><ele>111.0</ele><time>2026-03-29T16:11:53Z</time></trkpt><trkpt lat="45.611918756744394" lon="10.51093626509874"><ele>110.5</ele><time>2026-03-29T16:11:54Z</time></trkpt><trkpt lat="45.61192212922784" lon="10.510834993824957"><ele>110.0</ele><time>2026-03-29T16:11:55Z</time></trkpt><trkpt lat="45.61192701565618" lon="10.51071902058213"><ele>109.50000000000001</ele><time>2026-03-29T16:11:57Z</time></trkpt><trkpt lat="45.61195270082432" lon="10.510633080061478"><ele>109.0</ele><time>2026-03-29T16:12:00Z</time></trkpt><trkpt lat="45.61198601931326" lon="10.510503853418008"><ele>109.50000000000001</ele><time>2026-03-29T16:12:03Z</time></trkpt><trkpt lat="45.61201781475585" lon="10.510417740244936"><ele>110.0</ele><time>2026-03-29T16:12:04Z</time></trkpt><trkpt lat="45.61204774871913" lon="10.510329355955376"><ele>110.5</ele><time>2026-03-29T16:12:05Z</time></trkpt><trkpt lat="45.612050414734455" lon="10.510157791620978"><ele>111.0</ele><time>2026-03-29T16:12:07Z</time></trkpt><trkpt lat="45.61201871688188" lon="10.510072755270585"><ele>111.50000000000001</ele><time>2026-03-29T16:12:08Z</time></trkpt><trkpt lat="45.611969703861334" lon="10.509986164244742"><ele>112.0</ele><time>2026-03-29T16:12:09Z</time></trkpt><trkpt lat="45.61191532306496" lon="10.509896031892833"><ele>112.0</ele><time>2026-03-29T16:12:10Z</time></trkpt><trkpt lat="45.61186013075842" lon="10.509791396764918"><ele>111.99999999999999</ele><time>2026-03-29T16:12:11Z</time></trkpt><trkpt lat="45.61179902932872" lon="10.50969535267299"><ele>111.99999999999999</ele><time>2026-03-29T16:12:12Z</time></trkpt><trkpt lat="45.61176634759195" lon="10.509547505520993"><ele>112.0</ele><time>2026-03-29T16:12:13Z</time></trkpt><trkpt lat="45.611718567799954" lon="10.509408703041476"><ele>112.0</ele><time>2026-03-29T16:12:14Z</time></trkpt><trkpt lat="45.6116635637622" lon="10.509251535587072"><ele>113.25</ele><time>2026-03-29T16:12:15Z</time></trkpt><trkpt lat="45.61160445608747" lon="10.509096661515832"><ele>114.5</ele><time>2026-03-29T16:12:16Z</time></trkpt><trkpt lat="45.61153880267815" lon="10.50893387753943"><ele>115.75</ele><time>2026-03-29T16:12:17Z</time></trkpt><trkpt lat="45.61147510292095" lon="10.508760851327466"><ele>117.0</ele><time>2026-03-29T16:12:18Z</time></trkpt><trkpt lat="45.61140987207677" lon="10.508608441708624"><ele>119.0</ele><time>2026-03-29T16:12:19Z</time></trkpt><trkpt lat="45.6113432612756" lon="10.508455639716779"><ele>121.0</ele><time>2026-03-29T16:12:20Z</time></trkpt><trkpt lat="45.61126659720828" lon="10.50827778284572"><ele>123.0</ele><time>2026-03-29T16:12:21Z</time></trkpt><trkpt lat="45.611171651613475" lon="10.508050757323128"><ele>119.66666666666666</ele><time>2026-03-29T16:12:22Z</time></trkpt><trkpt lat="45.611068628959366" lon="10.507791495355685"><ele>116.33333333333333</ele><time>2026-03-29T16:12:23Z</time></trkpt><trkpt lat="45.61098540228709" lon="10.507555209676537"><ele>113.0</ele><time>2026-03-29T16:12:24Z</time></trkpt><trkpt lat="45.610907891559044" lon="10.507363607280794"><ele>113.0</ele><time>2026-03-29T16:12:25Z</time></trkpt><trkpt lat="45.61082695322124" lon="10.507176449889545"><ele>113.0</ele><time>2026-03-29T16:12:26Z</time></trkpt><trkpt lat="45.61075676370524" lon="10.507022664552277"><ele>113.0</ele><time>2026-03-29T16:12:27Z</time></trkpt><trkpt lat="45.61069417369412" lon="10.506864355905485"><ele>113.0</ele><time>2026-03-29T16:12:28Z</time></trkpt><trkpt lat="45.61062876503556" lon="10.506695295194648"><ele>116.5</ele><time>2026-03-29T16:12:29Z</time></trkpt><trkpt lat="45.61056917980378" lon="10.506524017636508"><ele>120.0</ele><time>2026-03-29T16:12:30Z</time></trkpt><trkpt lat="45.610509606451245" lon="10.50634700620288"><ele>123.5</ele><time>2026-03-29T16:12:31Z</time></trkpt><trkpt lat="45.610468009505404" lon="10.506147333115912"><ele>127.0</ele><time>2026-03-29T16:12:32Z</time></trkpt><trkpt lat="45.610433123073356" lon="10.505935846133621"><ele>130.0</ele><time>2026-03-29T16:12:33Z</time></trkpt><trkpt lat="45.610410668604125" lon="10.505746596206503"><ele>133.0</ele><time>2026-03-29T16:12:34Z</time></trkpt><trkpt lat="45.610420486189774" lon="10.505555713137717"><ele>136.0</ele><time>2026-03-29T16:12:34.999Z</time></trkpt><trkpt lat="45.61042382437614" lon="10.505364457029971"><ele>139.0</ele><time>2026-03-29T16:12:35.999Z</time></trkpt><trkpt lat="45.610439340481875" lon="10.505171887039936"><ele>139.66666666666669</ele><time>2026-03-29T16:12:36.999Z</time></trkpt><trkpt lat="45.610465117544464" lon="10.504965629078791"><ele>140.33333333333334</ele><time>2026-03-29T16:12:37.999Z</time></trkpt><trkpt lat="45.61049643222062" lon="10.504733186986334"><ele>141.0</ele><time>2026-03-29T16:12:38.999Z</time></trkpt><trkpt lat="45.61052952190904" lon="10.504494805371005"><ele>137.75</ele><time>2026-03-29T16:12:39.999Z</time></trkpt><trkpt lat="45.61055965767093" lon="10.504272667652852"><ele>134.5</ele><time>2026-03-29T16:12:40.999Z</time></trkpt><trkpt lat="45.61058731044102" lon="10.504073309590618"><ele>131.25</ele><time>2026-03-29T16:12:41.999Z</time></trkpt><trkpt lat="45.610597890738504" lon="10.503888226393311"><ele>128.0</ele><time>2026-03-29T16:12:42.999Z</time></trkpt><trkpt lat="45.61062704583567" lon="10.503711824996218"><ele>125.80000000000001</ele><time>2026-03-29T16:12:43.999Z</time></trkpt><trkpt lat="45.61065012884447" lon="10.503549700526252"><ele>123.60000000000001</ele><time>2026-03-29T16:12:44.999Z</time></trkpt><trkpt lat="45.610665933014744" lon="10.50344842370049"><ele>121.39999999999999</ele><time>2026-03-29T16:12:45.999Z</time></trkpt><trkpt lat="45.61068862637611" lon="10.50329775612014"><ele>119.19999999999999</ele><time>2026-03-29T16:12:47.999Z</time></trkpt><trkpt lat="45.61071162544878" lon="10.503171520448687"><ele>117.0</ele><time>2026-03-29T16:12:49.999Z</time></trkpt><trkpt lat="45.61073427933379" lon="10.503015066688157"><ele>117.0</ele><time>2026-03-29T16:12:51.999Z</time></trkpt><trkpt lat="45.61074426104637" lon="10.502919419302831"><ele>117.0</ele><time>2026-03-29T16:12:52.999Z</time></trkpt><trkpt lat="45.61075631888406" lon="10.502820064939897"><ele>117.0</ele><time>2026-03-29T16:12:53.999Z</time></trkpt><trkpt lat="45.61077002497709" lon="10.502712982471609"><ele>117.0</ele><time>2026-03-29T16:12:54.999Z</time></trkpt><trkpt lat="45.610781877754505" lon="10.50261760868446"><ele>117.0</ele><time>2026-03-29T16:12:55.999Z</time></trkpt><trkpt lat="45.61080340473251" lon="10.502439095806615"><ele>117.0</ele><time>2026-03-29T16:12:57.999Z</time></trkpt><trkpt lat="45.61081305722447" lon="10.502337269701293"><ele>118.6</ele><time>2026-03-29T16:12:58.999Z</time></trkpt><trkpt lat="45.61081498031458" lon="10.502228025839196"><ele>120.19999999999999</ele><time>2026-03-29T16:12:59.999Z</time></trkpt><trkpt lat="45.61081447963588" lon="10.502116851297538"><ele>121.8</ele><time>2026-03-29T16:13:00.999Z</time></trkpt><trkpt lat="45.61080260758894" lon="10.502000598646607"><ele>123.4</ele><time>2026-03-29T16:13:01.999Z</time></trkpt><trkpt lat="45.6107852239039" lon="10.501857079932359"><ele>125.0</ele><time>2026-03-29T16:13:02.999Z</time></trkpt><trkpt lat="45.610769370706436" lon="10.501685474628676"><ele>126.83333333333333</ele><time>2026-03-29T16:13:03.999Z</time></trkpt><trkpt lat="45.61075114645793" lon="10.501518229702898"><ele>128.66666666666666</ele><time>2026-03-29T16:13:04.999Z</time></trkpt><trkpt lat="45.61073325374448" lon="10.501402354707253"><ele>130.5</ele><time>2026-03-29T16:13:05.999Z</time></trkpt><trkpt lat="45.61072021205526" lon="10.501294401567229"><ele>132.33333333333334</ele><time>2026-03-29T16:13:06.999Z</time></trkpt><trkpt lat="45.61071536335126" lon="10.50118860658219"><ele>134.16666666666669</ele><time>2026-03-29T16:13:07.999Z</time></trkpt><trkpt lat="45.6107253359645" lon="10.501065613155037"><ele>136.0</ele><time>2026-03-29T16:13:08.999Z</time></trkpt><trkpt lat="45.61074563489136" lon="10.500905118743669"><ele>136.8</ele><time>2026-03-29T16:13:09.999Z</time></trkpt><trkpt lat="45.61076496061294" lon="10.50077098324019"><ele>137.6</ele><time>2026-03-29T16:13:11Z</time></trkpt><trkpt lat="45.61075725378236" lon="10.50064899171577"><ele>138.4</ele><time>2026-03-29T16:13:12Z</time></trkpt><trkpt lat="45.61071835819115" lon="10.500515044673032"><ele>139.2</ele><time>2026-03-29T16:13:13Z</time></trkpt><trkpt lat="45.61064411720234" lon="10.500405001328929"><ele>140.0</ele><time>2026-03-29T16:13:14Z</time></trkpt><trkpt lat="45.61054769679857" lon="10.500312757786306"><ele>140.5</ele><time>2026-03-29T16:13:15Z</time></trkpt><trkpt lat="45.61044725921715" lon="10.500218886353242"><ele>141.0</ele><time>2026-03-29T16:13:16Z</time></trkpt><trkpt lat="45.61035781229389" lon="10.500102519239428"><ele>141.5</ele><time>2026-03-29T16:13:17Z</time></trkpt><trkpt lat="45.61027678086217" lon="10.499964595026281"><ele>142.0</ele><time>2026-03-29T16:13:18Z</time></trkpt><trkpt lat="45.610211019772706" lon="10.499818823860606"><ele>142.0</ele><time>2026-03-29T16:13:19Z</time></trkpt><trkpt lat="45.61015695481092" lon="10.499672901143137"><ele>142.0</ele><time>2026-03-29T16:13:20Z</time></trkpt><trkpt lat="45.610117882614894" lon="10.499555591647818"><ele>142.0</ele><time>2026-03-29T16:13:21Z</time></trkpt><trkpt lat="45.610085791822826" lon="10.499455175640215"><ele>142.0</ele><time>2026-03-29T16:13:22Z</time></trkpt><trkpt lat="45.610057879046266" lon="10.499369964354187"><ele>142.0</ele><time>2026-03-29T16:13:23Z</time></trkpt><trkpt lat="45.610024083860964" lon="10.499272349145228"><ele>142.0</ele><time>2026-03-29T16:13:24Z</time></trkpt><trkpt lat="45.609992305871565" lon="10.499139687101387"><ele>144.0</ele><time>2026-03-29T16:13:25Z</time></trkpt><trkpt lat="45.60994910410953" lon="10.499000515052384"><ele>146.0</ele><time>2026-03-29T16:13:26Z</time></trkpt><trkpt lat="45.60989798143177" lon="10.498832614920788"><ele>148.0</ele><time>2026-03-29T16:13:27Z</time></trkpt><trkpt lat="45.60984150516277" lon="10.498641162644226"><ele>150.0</ele><time>2026-03-29T16:13:28Z</time></trkpt><trkpt lat="45.60978489735456" lon="10.498480829387884"><ele>150.8</ele><time>2026-03-29T16:13:29Z</time></trkpt><trkpt lat="45.6097537070229" lon="10.49834585969732"><ele>151.6</ele><time>2026-03-29T16:13:30Z</time></trkpt><trkpt lat="45.60973342583314" lon="10.498217854142057"><ele>152.4</ele><time>2026-03-29T16:13:31Z</time></trkpt><trkpt lat="45.60971791788974" lon="10.498088708027373"><ele>153.2</ele><time>2026-03-29T16:13:32Z</time></trkpt><trkpt lat="45.60969975926831" lon="10.497954034100847"><ele>154.0</ele><time>2026-03-29T16:13:33Z</time></trkpt><trkpt lat="45.609689932671266" lon="10.497844380203691"><ele>154.8</ele><time>2026-03-29T16:13:34Z</time></trkpt><trkpt lat="45.609686676909725" lon="10.497736024967134"><ele>155.60000000000002</ele><time>2026-03-29T16:13:35Z</time></trkpt><trkpt lat="45.60968332353963" lon="10.49761272164182"><ele>156.4</ele><time>2026-03-29T16:13:36Z</time></trkpt><trkpt lat="45.60968444858525" lon="10.497475546242633"><ele>157.20000000000002</ele><time>2026-03-29T16:13:37Z</time></trkpt><trkpt lat="45.60968744152316" lon="10.497327988971616"><ele>158.0</ele><time>2026-03-29T16:13:38Z</time></trkpt><trkpt lat="45.60970011792728" lon="10.497173807656226"><ele>158.75</ele><time>2026-03-29T16:13:39Z</time></trkpt><trkpt lat="45.609730146943534" lon="10.497011276590122"><ele>159.5</ele><time>2026-03-29T16:13:40Z</time></trkpt><trkpt lat="45.60975946194804" lon="10.496841930516492"><ele>160.25</ele><time>2026-03-29T16:13:41Z</time></trkpt><trkpt lat="45.60979022820944" lon="10.4966740164342"><ele>161.0</ele><time>2026-03-29T16:13:42Z</time></trkpt><trkpt lat="45.60982394113759" lon="10.496520179219548"><ele>161.0</ele><time>2026-03-29T16:13:43Z</time></trkpt><trkpt lat="45.609864525076034" lon="10.496364937808764"><ele>161.0</ele><time>2026-03-29T16:13:44Z</time></trkpt><trkpt lat="45.60989702030103" lon="10.496202808192098"><ele>161.0</ele><time>2026-03-29T16:13:45Z</time></trkpt><trkpt lat="45.60992890768147" lon="10.49604361701943"><ele>161.0</ele><time>2026-03-29T16:13:46Z</time></trkpt><trkpt lat="45.60996249794312" lon="10.495885742951954"><ele>161.0</ele><time>2026-03-29T16:13:47Z</time></trkpt><trkpt lat="45.60999412333114" lon="10.49572655313964"><ele>161.0</ele><time>2026-03-29T16:13:48Z</time></trkpt><trkpt lat="45.61002582371609" lon="10.495569923956149"><ele>161.0</ele><time>2026-03-29T16:13:49Z</time></trkpt><trkpt lat="45.61006130697811" lon="10.495413605247139"><ele>161.0</ele><time>2026-03-29T16:13:50Z</time></trkpt><trkpt lat="45.610094988805265" lon="10.495259478740856"><ele>160.60000000000002</ele><time>2026-03-29T16:13:51Z</time></trkpt><trkpt lat="45.61012874161102" lon="10.495108444659518"><ele>160.20000000000002</ele><time>2026-03-29T16:13:52Z</time></trkpt><trkpt lat="45.61016283561381" lon="10.494961304179375"><ele>159.8</ele><time>2026-03-29T16:13:53Z</time></trkpt><trkpt lat="45.61021496749792" lon="10.494819603331402"><ele>159.4</ele><time>2026-03-29T16:13:54Z</time></trkpt><trkpt lat="45.610266334774444" lon="10.494674350104575"><ele>159.0</ele><time>2026-03-29T16:13:55Z</time></trkpt><trkpt lat="45.61032872096956" lon="10.494528281422118"><ele>162.0</ele><time>2026-03-29T16:13:56Z</time></trkpt><trkpt lat="45.61039174417307" lon="10.494384034669757"><ele>165.0</ele><time>2026-03-29T16:13:57Z</time></trkpt><trkpt lat="45.61047461841488" lon="10.49421129434581"><ele>168.0</ele><time>2026-03-29T16:13:58Z</time></trkpt><trkpt lat="45.61056574978249" lon="10.494001392497726"><ele>171.0</ele><time>2026-03-29T16:13:59Z</time></trkpt><trkpt lat="45.61066422855848" lon="10.493774637676527"><ele>171.66666666666666</ele><time>2026-03-29T16:14:00Z</time></trkpt><trkpt lat="45.6107599750459" lon="10.493521908351891"><ele>172.33333333333331</ele><time>2026-03-29T16:14:01Z</time></trkpt><trkpt lat="45.61086689362399" lon="10.493280806306888"><ele>173.0</ele><time>2026-03-29T16:14:02Z</time></trkpt><trkpt lat="45.6109584802082" lon="10.493061189216007"><ele>173.33333333333331</ele><time>2026-03-29T16:14:03Z</time></trkpt><trkpt lat="45.61104895747711" lon="10.492848249161266"><ele>173.66666666666666</ele><time>2026-03-29T16:14:04Z</time></trkpt><trkpt lat="45.61114948002819" lon="10.492657818209082"><ele>174.0</ele><time>2026-03-29T16:14:05Z</time></trkpt><trkpt lat="45.61124911648832" lon="10.492427129705623"><ele>175.33333333333334</ele><time>2026-03-29T16:14:06Z</time></trkpt><trkpt lat="45.611347016317055" lon="10.492200462216404"><ele>176.66666666666669</ele><time>2026-03-29T16:14:07Z</time></trkpt><trkpt lat="45.61142498239575" lon="10.491984136509936"><ele>178.0</ele><time>2026-03-29T16:14:08Z</time></trkpt><trkpt lat="45.611506974782635" lon="10.49180829075825"><ele>178.0</ele><time>2026-03-29T16:14:09Z</time></trkpt><trkpt lat="45.611582941254454" lon="10.49163451223938"><ele>178.0</ele><time>2026-03-29T16:14:10Z</time></trkpt><trkpt lat="45.611650631986485" lon="10.491478733354612"><ele>178.0</ele><time>2026-03-29T16:14:11Z</time></trkpt><trkpt lat="45.61172149232204" lon="10.491297099514515"><ele>178.0</ele><time>2026-03-29T16:14:12Z</time></trkpt><trkpt lat="45.61180025562174" lon="10.491113714419054"><ele>178.0</ele><time>2026-03-29T16:14:13Z</time></trkpt><trkpt lat="45.61186552388559" lon="10.49097527011462"><ele>178.0</ele><time>2026-03-29T16:14:14Z</time></trkpt><trkpt lat="45.61191985136456" lon="10.490857492531866"><ele>178.0</ele><time>2026-03-29T16:14:15Z</time></trkpt><trkpt lat="45.6119625029875" lon="10.490755580902244"><ele>178.0</ele><time>2026-03-29T16:14:16Z</time></trkpt><trkpt lat="45.61201976005388" lon="10.490637321248963"><ele>178.0</ele><time>2026-03-29T16:14:17Z</time></trkpt><trkpt lat="45.61208330375648" lon="10.490472346271352"><ele>184.66666666666669</ele><time>2026-03-29T16:14:18Z</time></trkpt><trkpt lat="45.6121641791324" lon="10.490270972289519"><ele>191.33333333333334</ele><time>2026-03-29T16:14:19Z</time></trkpt><trkpt lat="45.612257877124705" lon="10.49005999141812"><ele>198.0</ele><time>2026-03-29T16:14:20Z</time></trkpt><trkpt lat="45.612315772982726" lon="10.48988471017669"><ele>198.0</ele><time>2026-03-29T16:14:21Z</time></trkpt><trkpt lat="45.61235337634681" lon="10.489698032330105"><ele>198.0</ele><time>2026-03-29T16:14:22Z</time></trkpt><trkpt lat="45.612377076017786" lon="10.489532636849253"><ele>198.0</ele><time>2026-03-29T16:14:23Z</time></trkpt><trkpt lat="45.61239864819208" lon="10.489385763809516"><ele>198.0</ele><time>2026-03-29T16:14:24Z</time></trkpt><trkpt lat="45.6124129261898" lon="10.489223623566142"><ele>198.33333333333331</ele><time>2026-03-29T16:14:25Z</time></trkpt><trkpt lat="45.61241024749714" lon="10.489045755394137"><ele>198.66666666666666</ele><time>2026-03-29T16:14:26Z</time></trkpt><trkpt lat="45.61239173268929" lon="10.488819080316615"><ele>199.0</ele><time>2026-03-29T16:14:27Z</time></trkpt><trkpt lat="45.6123721636563" lon="10.488558316141276"><ele>199.66666666666666</ele><time>2026-03-29T16:14:28Z</time></trkpt><trkpt lat="45.6123531448218" lon="10.488331816538357"><ele>200.33333333333331</ele><time>2026-03-29T16:14:29Z</time></trkpt><trkpt lat="45.612329509159025" lon="10.488111986791166"><ele>201.0</ele><time>2026-03-29T16:14:30Z</time></trkpt><trkpt lat="45.61230917014549" lon="10.487905207251798"><ele>201.25</ele><time>2026-03-29T16:14:31Z</time></trkpt><trkpt lat="45.61228570796109" lon="10.48769726151565"><ele>201.5</ele><time>2026-03-29T16:14:32Z</time></trkpt><trkpt lat="45.612266059951104" lon="10.487489222624594"><ele>201.75</ele><time>2026-03-29T16:14:33Z</time></trkpt><trkpt lat="45.61224691987133" lon="10.487280370271188"><ele>202.0</ele><time>2026-03-29T16:14:34Z</time></trkpt><trkpt lat="45.61226316338255" lon="10.487063228098092"><ele>202.75</ele><time>2026-03-29T16:14:34.999Z</time></trkpt><trkpt lat="45.612248840643886" lon="10.486847955500725"><ele>203.5</ele><time>2026-03-29T16:14:35.999Z</time></trkpt><trkpt lat="45.61223577133941" lon="10.48665152194611"><ele>204.25</ele><time>2026-03-29T16:14:36.999Z</time></trkpt><trkpt lat="45.6121981819713" lon="10.486464153219494"><ele>205.0</ele><time>2026-03-29T16:14:37.999Z</time></trkpt><trkpt lat="45.61217937948877" lon="10.486272012239255"><ele>206.0</ele><time>2026-03-29T16:14:38.999Z</time></trkpt><trkpt lat="45.6121536599791" lon="10.486078322403479"><ele>207.0</ele><time>2026-03-29T16:14:39.999Z</time></trkpt><trkpt lat="45.61213033017104" lon="10.485883680097695"><ele>208.0</ele><time>2026-03-29T16:14:40.999Z</time></trkpt><trkpt lat="45.612106665352954" lon="10.485686379984664"><ele>209.0</ele><time>2026-03-29T16:14:42.014Z</time></trkpt><trkpt lat="45.611874099402804" lon="10.483726844002367"><ele>212.25</ele><time>2026-03-29T16:14:54.904Z</time></trkpt><trkpt lat="45.61186097848026" lon="10.483621564864933"><ele>215.5</ele><time>2026-03-29T16:14:55.723Z</time></trkpt><trkpt lat="45.61184473498146" lon="10.483486137826967"><ele>218.75</ele><time>2026-03-29T16:14:56.939Z</time></trkpt><trkpt lat="45.611799207883884" lon="10.483106506237048"><ele>222.0</ele><time>2026-03-29T16:15:00.642Z</time></trkpt><trkpt lat="45.61175681997585" lon="10.482753038017911"><ele>224.5</ele><time>2026-03-29T16:15:04.553Z</time></trkpt><trkpt lat="45.61173256912682" lon="10.482550811358971"><ele>227.0</ele><time>2026-03-29T16:15:07.043Z</time></trkpt><trkpt lat="45.60490975105356" lon="10.46749726032629"><ele>227.66666666666669</ele><time>2026-03-29T16:16:19.999Z</time></trkpt><trkpt lat="45.60489932229567" lon="10.467273843753768"><ele>228.33333333333331</ele><time>2026-03-29T16:16:20.999Z</time></trkpt><trkpt lat="45.604877661333006" lon="10.467055104641625"><ele>229.0</ele><time>2026-03-29T16:16:21.999Z</time></trkpt><trkpt lat="45.604843738650025" lon="10.466831964507305"><ele>227.0</ele><time>2026-03-29T16:16:22.999Z</time></trkpt><trkpt lat="45.60479177408978" lon="10.466603647752917"><ele>225.0</ele><time>2026-03-29T16:16:23.999Z</time></trkpt><trkpt lat="45.604715596133616" lon="10.466371082950232"><ele>223.0</ele><time>2026-03-29T16:16:24.999Z</time></trkpt><trkpt lat="45.60462041482727" lon="10.466154981764113"><ele>222.33333333333331</ele><time>2026-03-29T16:16:26Z</time></trkpt><trkpt lat="45.60450050812135" lon="10.465938642871635"><ele>221.66666666666669</ele><time>2026-03-29T16:16:27Z</time></trkpt><trkpt lat="45.60436325190801" lon="10.46573319482944"><ele>221.0</ele><time>2026-03-29T16:16:28Z</time></trkpt><trkpt lat="45.60422535442678" lon="10.46554640858501"><ele>220.33333333333334</ele><time>2026-03-29T16:16:29Z</time></trkpt><trkpt lat="45.604091677341785" lon="10.465381485748052"><ele>219.66666666666669</ele><time>2026-03-29T16:16:30Z</time></trkpt><trkpt lat="45.603955688385085" lon="10.465217608537666"><ele>219.0</ele><time>2026-03-29T16:16:31Z</time></trkpt><trkpt lat="45.60382262083478" lon="10.465049755591034"><ele>219.0</ele><time>2026-03-29T16:16:32Z</time></trkpt><trkpt lat="45.603690382106706" lon="10.464879492163655"><ele>219.0</ele><time>2026-03-29T16:16:33Z</time></trkpt><trkpt lat="45.60356001792457" lon="10.464707969489545"><ele>219.0</ele><time>2026-03-29T16:16:34Z</time></trkpt><trkpt lat="45.60342393612502" lon="10.46453024686234"><ele>222.0</ele><time>2026-03-29T16:16:35Z</time></trkpt><trkpt lat="45.60328215294119" lon="10.464348781105315"><ele>225.0</ele><time>2026-03-29T16:16:36Z</time></trkpt><trkpt lat="45.60313876697593" lon="10.4641546244672"><ele>228.0</ele><time>2026-03-29T16:16:37Z</time></trkpt><trkpt lat="45.6029775571235" lon="10.463941492165242"><ele>234.0</ele><time>2026-03-29T16:16:38Z</time></trkpt><trkpt lat="45.60280693658991" lon="10.463714397723667"><ele>240.0</ele><time>2026-03-29T16:16:39Z</time></trkpt><trkpt lat="45.60263689081998" lon="10.463482976460378"><ele>240.0</ele><time>2026-03-29T16:16:40Z</time></trkpt><trkpt lat="45.602470628980456" lon="10.463257833368365"><ele>240.0</ele><time>2026-03-29T16:16:41Z</time></trkpt><trkpt lat="45.60230079414379" lon="10.463031256655137"><ele>239.5</ele><time>2026-03-29T16:16:42Z</time></trkpt><trkpt lat="45.60210598168108" lon="10.462738586433602"><ele>239.0</ele><time>2026-03-29T16:16:43Z</time></trkpt><trkpt lat="45.6018843677053" lon="10.462470995545466"><ele>239.0</ele><time>2026-03-29T16:16:44Z</time></trkpt><trkpt lat="45.6017100927555" lon="10.462246355743337"><ele>239.0</ele><time>2026-03-29T16:16:45Z</time></trkpt><trkpt lat="45.60154866796964" lon="10.462060030493536"><ele>239.0</ele><time>2026-03-29T16:16:46Z</time></trkpt><trkpt lat="45.60137050496185" lon="10.461893317618193"><ele>239.33333333333334</ele><time>2026-03-29T16:16:47Z</time></trkpt><trkpt lat="45.60119579213818" lon="10.461732828411302"><ele>239.66666666666669</ele><time>2026-03-29T16:16:48Z</time></trkpt><trkpt lat="45.6010228799689" lon="10.461576941887309"><ele>240.0</ele><time>2026-03-29T16:16:49Z</time></trkpt><trkpt lat="45.600848508532316" lon="10.461429188545475"><ele>240.0</ele><time>2026-03-29T16:16:50Z</time></trkpt><trkpt lat="45.600660452651304" lon="10.46130022589801"><ele>240.0</ele><time>2026-03-29T16:16:51Z</time></trkpt><trkpt lat="45.60046978230037" lon="10.46118230623454"><ele>240.0</ele><time>2026-03-29T16:16:52Z</time></trkpt><trkpt lat="45.60027355871898" lon="10.461061491736949"><ele>236.66666666666669</ele><time>2026-03-29T16:16:53Z</time></trkpt><trkpt lat="45.60007262774685" lon="10.460963396118439"><ele>233.33333333333334</ele><time>2026-03-29T16:16:54Z</time></trkpt><trkpt lat="45.59987141799831" lon="10.460868945107086"><ele>230.0</ele><time>2026-03-29T16:16:55Z</time></trkpt><trkpt lat="45.59966678201716" lon="10.460787464003078"><ele>233.0</ele><time>2026-03-29T16:16:56Z</time></trkpt><trkpt lat="45.59947891813265" lon="10.460731137148953"><ele>236.0</ele><time>2026-03-29T16:16:57Z</time></trkpt><trkpt lat="45.59929933748812" lon="10.46069589904116"><ele>239.0</ele><time>2026-03-29T16:16:58Z</time></trkpt><trkpt lat="45.599120620230956" lon="10.460662254540843"><ele>239.0</ele><time>2026-03-29T16:16:59Z</time></trkpt><trkpt lat="45.59894626763065" lon="10.46063309140438"><ele>239.0</ele><time>2026-03-29T16:17:00Z</time></trkpt><trkpt lat="45.598782539181094" lon="10.460609543362875"><ele>239.0</ele><time>2026-03-29T16:17:01Z</time></trkpt><trkpt lat="45.5986355947741" lon="10.460590376971478"><ele>239.25</ele><time>2026-03-29T16:17:02Z</time></trkpt><trkpt lat="45.598499718099326" lon="10.460573452651778"><ele>239.5</ele><time>2026-03-29T16:17:03Z</time></trkpt><trkpt lat="45.59836926665823" lon="10.460554167915854"><ele>239.75</ele><time>2026-03-29T16:17:04Z</time></trkpt><trkpt lat="45.59823469690195" lon="10.46053328240479"><ele>240.0</ele><time>2026-03-29T16:17:05Z</time></trkpt><trkpt lat="45.59809800192851" lon="10.460514613739234"><ele>240.0</ele><time>2026-03-29T16:17:06Z</time></trkpt><trkpt lat="45.597954668076795" lon="10.460491578163495"><ele>240.0</ele><time>2026-03-29T16:17:07Z</time></trkpt><trkpt lat="45.59780890033594" lon="10.46047242433383"><ele>240.0</ele><time>2026-03-29T16:17:08Z</time></trkpt><trkpt lat="45.59765647688387" lon="10.46044906241121"><ele>240.0</ele><time>2026-03-29T16:17:09Z</time></trkpt><trkpt lat="45.59749870760006" lon="10.46042336081084"><ele>236.66666666666669</ele><time>2026-03-29T16:17:10Z</time></trkpt><trkpt lat="45.597343771139315" lon="10.460394867613024"><ele>233.33333333333334</ele><time>2026-03-29T16:17:11Z</time></trkpt><trkpt lat="45.59718641643159" lon="10.460370609025084"><ele>230.0</ele><time>2026-03-29T16:17:12Z</time></trkpt><trkpt lat="45.59703063025795" lon="10.460343309478151"><ele>231.0</ele><time>2026-03-29T16:17:13Z</time></trkpt><trkpt lat="45.59688164329631" lon="10.46032119694862"><ele>232.0</ele><time>2026-03-29T16:17:14Z</time></trkpt><trkpt lat="45.596727353639416" lon="10.460301031492717"><ele>233.0</ele><time>2026-03-29T16:17:15Z</time></trkpt><trkpt lat="45.59656841763275" lon="10.46027680753199"><ele>233.0</ele><time>2026-03-29T16:17:16Z</time></trkpt><trkpt lat="45.59640248588239" lon="10.460270919920498"><ele>233.0</ele><time>2026-03-29T16:17:17Z</time></trkpt><trkpt lat="45.59624235494448" lon="10.46023143101465"><ele>233.0</ele><time>2026-03-29T16:17:18Z</time></trkpt><trkpt lat="45.59609092317022" lon="10.460207906137672"><ele>247.0</ele><time>2026-03-29T16:17:19.016Z</time></trkpt><trkpt lat="45.5940499110572" lon="10.459908898929562"><ele>247.0</ele><time>2026-03-29T16:17:33Z</time></trkpt><trkpt lat="45.59388216999252" lon="10.459877940111125"><ele>247.0</ele><time>2026-03-29T16:17:34Z</time></trkpt><trkpt lat="45.593727814480644" lon="10.459853310429954"><ele>247.0</ele><time>2026-03-29T16:17:35Z</time></trkpt><trkpt lat="45.59358094604214" lon="10.459816181487549"><ele>246.5</ele><time>2026-03-29T16:17:36Z</time></trkpt><trkpt lat="45.593458923402146" lon="10.459774563639805"><ele>246.0</ele><time>2026-03-29T16:17:37Z</time></trkpt><trkpt lat="45.593339765032795" lon="10.459726438123557"><ele>245.5</ele><time>2026-03-29T16:17:38Z</time></trkpt><trkpt lat="45.593200652998014" lon="10.459665052283015"><ele>245.0</ele><time>2026-03-29T16:17:39Z</time></trkpt><trkpt lat="45.59307789233288" lon="10.459606701515337"><ele>244.0</ele><time>2026-03-29T16:17:40Z</time></trkpt><trkpt lat="45.59294543348304" lon="10.459533951014283"><ele>243.0</ele><time>2026-03-29T16:17:40.999Z</time></trkpt><trkpt lat="45.59280662313185" lon="10.459458821602981"><ele>242.0</ele><time>2026-03-29T16:17:41.999Z</time></trkpt><trkpt lat="45.59264136975185" lon="10.459336689329561"><ele>242.0</ele><time>2026-03-29T16:17:42.999Z</time></trkpt><trkpt lat="45.59244283160141" lon="10.459197026859552"><ele>242.0</ele><time>2026-03-29T16:17:43.999Z</time></trkpt><trkpt lat="45.59223569102646" lon="10.459045489276974"><ele>242.0</ele><time>2026-03-29T16:17:44.999Z</time></trkpt><trkpt lat="45.59205277167191" lon="10.458925553783866"><ele>242.0</ele><time>2026-03-29T16:17:45.999Z</time></trkpt><trkpt lat="45.59190402691611" lon="10.458780833740368"><ele>242.0</ele><time>2026-03-29T16:17:46.999Z</time></trkpt><trkpt lat="45.59175843198582" lon="10.458665358410572"><ele>241.66666666666669</ele><time>2026-03-29T16:17:47.999Z</time></trkpt><trkpt lat="45.591617871835254" lon="10.458579994093078"><ele>241.33333333333331</ele><time>2026-03-29T16:17:48.999Z</time></trkpt><trkpt lat="45.591488488873765" lon="10.458451524413201"><ele>241.0</ele><time>2026-03-29T16:17:49.999Z</time></trkpt><trkpt lat="45.59134164616113" lon="10.458359170092427"><ele>241.0</ele><time>2026-03-29T16:17:50.999Z</time></trkpt><trkpt lat="45.59118695029393" lon="10.458241770004296"><ele>241.0</ele><time>2026-03-29T16:17:51.999Z</time></trkpt><trkpt lat="45.59104752111736" lon="10.458106137120618"><ele>241.0</ele><time>2026-03-29T16:17:52.999Z</time></trkpt><trkpt lat="45.59093127623009" lon="10.458008579768611"><ele>282.0</ele><time>2026-03-29T16:17:54.015Z</time></trkpt><trkpt lat="45.5884463024338" lon="10.456071937501072"><ele>279.0</ele><time>2026-03-29T16:17:58.989Z</time></trkpt><trkpt lat="45.58773826919744" lon="10.455513030478764"><ele>244.0</ele><time>2026-03-29T16:17:59.988Z</time></trkpt><trkpt lat="45.58985365750382" lon="10.457175048993196"><ele>244.0</ele><time>2026-03-29T16:18:00.999Z</time></trkpt><trkpt lat="45.58972788697791" lon="10.457077316211487"><ele>244.0</ele><time>2026-03-29T16:18:01.999Z</time></trkpt><trkpt lat="45.58958802789779" lon="10.456964670979868"><ele>244.0</ele><time>2026-03-29T16:18:02.999Z</time></trkpt><trkpt lat="45.58944231940417" lon="10.456846797100145"><ele>249.0</ele><time>2026-03-29T16:18:04.018Z</time></trkpt><trkpt lat="45.58695653418127" lon="10.454895860278201"><ele>255.0</ele><time>2026-03-29T16:18:08.987Z</time></trkpt><trkpt lat="45.586250334249804" lon="10.45433820223535"><ele>275.0</ele><time>2026-03-29T16:18:09.984Z</time></trkpt><trkpt lat="45.58724820529589" lon="10.45510710404849"><ele>239.0</ele><time>2026-03-29T16:18:26.436Z</time></trkpt><trkpt lat="45.5855678583345" lon="10.453785685468796"><ele>239.0</ele><time>2026-03-29T16:18:29.999Z</time></trkpt><trkpt lat="45.58542849664809" lon="10.453650801519471"><ele>239.0</ele><time>2026-03-29T16:18:30.999Z</time></trkpt><trkpt lat="45.58528796127212" lon="10.453550231948517"><ele>239.0</ele><time>2026-03-29T16:18:31.999Z</time></trkpt><trkpt lat="45.58515130573731" lon="10.453444545521533"><ele>234.0</ele><time>2026-03-29T16:18:32.999Z</time></trkpt><trkpt lat="45.58500781576828" lon="10.45332303320545"><ele>229.0</ele><time>2026-03-29T16:18:33.999Z</time></trkpt><trkpt lat="45.58486837927938" lon="10.453176583396338"><ele>224.0</ele><time>2026-03-29T16:18:34.999Z</time></trkpt><trkpt lat="45.58473827288064" lon="10.453053771125054"><ele>224.0</ele><time>2026-03-29T16:18:36Z</time></trkpt><trkpt lat="45.584609807633875" lon="10.452915995805567"><ele>224.0</ele><time>2026-03-29T16:18:37Z</time></trkpt><trkpt lat="45.584482602609555" lon="10.452764854986913"><ele>224.0</ele><time>2026-03-29T16:18:38Z</time></trkpt><trkpt lat="45.584362748886015" lon="10.452604370736555"><ele>224.0</ele><time>2026-03-29T16:18:39Z</time></trkpt><trkpt lat="45.58423721145214" lon="10.4524394472728"><ele>224.0</ele><time>2026-03-29T16:18:40Z</time></trkpt><trkpt lat="45.58411532081745" lon="10.452262582858792"><ele>224.0</ele><time>2026-03-29T16:18:41Z</time></trkpt><trkpt lat="45.58398471160444" lon="10.45206976842587"><ele>223.0</ele><time>2026-03-29T16:18:42Z</time></trkpt><trkpt lat="45.58386225053105" lon="10.451849703480054"><ele>222.0</ele><time>2026-03-29T16:18:43Z</time></trkpt><trkpt lat="45.583724461515374" lon="10.45163722479867"><ele>221.0</ele><time>2026-03-29T16:18:44Z</time></trkpt><trkpt lat="45.58357874210276" lon="10.451432349345813"><ele>219.0</ele><time>2026-03-29T16:18:45Z</time></trkpt><trkpt lat="45.583446436446046" lon="10.451230463822597"><ele>217.0</ele><time>2026-03-29T16:18:46Z</time></trkpt><trkpt lat="45.58332317680382" lon="10.451042188875137"><ele>215.0</ele><time>2026-03-29T16:18:47Z</time></trkpt><trkpt lat="45.583216121713775" lon="10.45087698835291"><ele>215.0</ele><time>2026-03-29T16:18:48Z</time></trkpt><trkpt lat="45.58310828470265" lon="10.450712408620795"><ele>215.0</ele><time>2026-03-29T16:18:49Z</time></trkpt><trkpt lat="45.58300999757915" lon="10.45055258420937"><ele>215.0</ele><time>2026-03-29T16:18:50Z</time></trkpt><trkpt lat="45.58291025137922" lon="10.450395573287159"><ele>216.0</ele><time>2026-03-29T16:18:51Z</time></trkpt><trkpt lat="45.582804022440726" lon="10.450234498710586"><ele>217.0</ele><time>2026-03-29T16:18:52Z</time></trkpt><trkpt lat="45.58269514359312" lon="10.450073459233646"><ele>218.0</ele><time>2026-03-29T16:18:53Z</time></trkpt><trkpt lat="45.58257790146534" lon="10.44990234664711"><ele>218.0</ele><time>2026-03-29T16:18:54Z</time></trkpt><trkpt lat="45.582456341415906" lon="10.449730611251143"><ele>218.0</ele><time>2026-03-29T16:18:55Z</time></trkpt><trkpt lat="45.58232656026375" lon="10.4495605365828"><ele>218.0</ele><time>2026-03-29T16:18:56Z</time></trkpt><trkpt lat="45.58219020888701" lon="10.449406921230706"><ele>217.0</ele><time>2026-03-29T16:18:57Z</time></trkpt><trkpt lat="45.582054013567756" lon="10.449266549179159"><ele>216.0</ele><time>2026-03-29T16:18:58Z</time></trkpt><trkpt lat="45.5819033377839" lon="10.449121402817685"><ele>215.0</ele><time>2026-03-29T16:18:59Z</time></trkpt><trkpt lat="45.58175776454292" lon="10.448984085877322"><ele>215.0</ele><time>2026-03-29T16:19:00Z</time></trkpt><trkpt lat="45.581601148466" lon="10.448874031353167"><ele>215.0</ele><time>2026-03-29T16:19:01Z</time></trkpt><trkpt lat="45.581460400570265" lon="10.448768201490854"><ele>215.0</ele><time>2026-03-29T16:19:02Z</time></trkpt><trkpt lat="45.581312800890274" lon="10.448649768508345"><ele>214.0</ele><time>2026-03-29T16:19:03Z</time></trkpt><trkpt lat="45.58115998660694" lon="10.448528491768771"><ele>213.0</ele><time>2026-03-29T16:19:04Z</time></trkpt><trkpt lat="45.58098905160151" lon="10.448360717751166"><ele>212.0</ele><time>2026-03-29T16:19:05Z</time></trkpt><trkpt lat="45.58077948078329" lon="10.44818888513091"><ele>212.0</ele><time>2026-03-29T16:19:06Z</time></trkpt><trkpt lat="45.58055288101329" lon="10.44800331578109"><ele>212.0</ele><time>2026-03-29T16:19:07Z</time></trkpt><trkpt lat="45.58031860731907" lon="10.4478110368476"><ele>209.0</ele><time>2026-03-29T16:19:08Z</time></trkpt><trkpt lat="45.58010808490228" lon="10.447660349236072"><ele>206.0</ele><time>2026-03-29T16:19:09Z</time></trkpt><trkpt lat="45.57990596408901" lon="10.4474918396898"><ele>206.0</ele><time>2026-03-29T16:19:10Z</time></trkpt><trkpt lat="45.579701609278935" lon="10.447329117410726"><ele>206.0</ele><time>2026-03-29T16:19:11Z</time></trkpt><trkpt lat="45.57950091805664" lon="10.447163285190848"><ele>205.66666666666669</ele><time>2026-03-29T16:19:12Z</time></trkpt><trkpt lat="45.57931735798794" lon="10.447011292732137"><ele>205.33333333333331</ele><time>2026-03-29T16:19:13Z</time></trkpt><trkpt lat="45.579150362505004" lon="10.446871970293262"><ele>205.0</ele><time>2026-03-29T16:19:14Z</time></trkpt><trkpt lat="45.57899543168096" lon="10.446745464705183"><ele>205.0</ele><time>2026-03-29T16:19:15Z</time></trkpt><trkpt lat="45.578837141316434" lon="10.446609302363473"><ele>205.0</ele><time>2026-03-29T16:19:16Z</time></trkpt><trkpt lat="45.578658373335344" lon="10.446465438217055"><ele>205.0</ele><time>2026-03-29T16:19:17Z</time></trkpt><trkpt lat="45.5784746402313" lon="10.446293270310774"><ele>205.0</ele><time>2026-03-29T16:19:18Z</time></trkpt><trkpt lat="45.5782816553652" lon="10.446135316169205"><ele>205.0</ele><time>2026-03-29T16:19:19Z</time></trkpt><trkpt lat="45.57807906144427" lon="10.445986326855474"><ele>205.0</ele><time>2026-03-29T16:19:20Z</time></trkpt><trkpt lat="45.5778767202088" lon="10.445822471415873"><ele>205.0</ele><time>2026-03-29T16:19:21Z</time></trkpt><trkpt lat="45.57768282249545" lon="10.44565917216055"><ele>204.33333333333331</ele><time>2026-03-29T16:19:22Z</time></trkpt><trkpt lat="45.57750948527586" lon="10.445512367497733"><ele>203.66666666666669</ele><time>2026-03-29T16:19:23Z</time></trkpt><trkpt lat="45.57734103610564" lon="10.445381144751863"><ele>203.0</ele><time>2026-03-29T16:19:24Z</time></trkpt><trkpt lat="45.577163961636955" lon="10.445241745105271"><ele>203.0</ele><time>2026-03-29T16:19:25Z</time></trkpt><trkpt lat="45.5769937215674" lon="10.44507556904436"><ele>203.0</ele><time>2026-03-29T16:19:26Z</time></trkpt><trkpt lat="45.57681150318197" lon="10.444945807304796"><ele>203.0</ele><time>2026-03-29T16:19:27Z</time></trkpt><trkpt lat="45.576653980641886" lon="10.444808150772754"><ele>203.0</ele><time>2026-03-29T16:19:28Z</time></trkpt><trkpt lat="45.57649575165913" lon="10.44467230576996"><ele>203.0</ele><time>2026-03-29T16:19:29Z</time></trkpt><trkpt lat="45.576330589160406" lon="10.444533084852303"><ele>203.0</ele><time>2026-03-29T16:19:30Z</time></trkpt><trkpt lat="45.57615641303052" lon="10.444393865797267"><ele>202.66666666666669</ele><time>2026-03-29T16:19:31Z</time></trkpt><trkpt lat="45.57598014574934" lon="10.444257708929403"><ele>202.33333333333331</ele><time>2026-03-29T16:19:32Z</time></trkpt><trkpt lat="45.575805134734175" lon="10.444114214706499"><ele>202.0</ele><time>2026-03-29T16:19:33Z</time></trkpt><trkpt lat="45.5756291084646" lon="10.443955062704683"><ele>202.0</ele><time>2026-03-29T16:19:34Z</time></trkpt><trkpt lat="45.57545911890087" lon="10.443817436628374"><ele>202.0</ele><time>2026-03-29T16:19:35Z</time></trkpt><trkpt lat="45.575303392682216" lon="10.443689868985041"><ele>202.0</ele><time>2026-03-29T16:19:36Z</time></trkpt><trkpt lat="45.575148736312" lon="10.443567076960882"><ele>201.0</ele><time>2026-03-29T16:19:37Z</time></trkpt><trkpt lat="45.574995945727956" lon="10.443440237006385"><ele>200.0</ele><time>2026-03-29T16:19:38Z</time></trkpt><trkpt lat="45.574849285851975" lon="10.443316853016231"><ele>199.0</ele><time>2026-03-29T16:19:39Z</time></trkpt><trkpt lat="45.57470089208879" lon="10.443192469111278"><ele>199.0</ele><time>2026-03-29T16:19:40Z</time></trkpt><trkpt lat="45.574546727263446" lon="10.443066080818621"><ele>199.0</ele><time>2026-03-29T16:19:41Z</time></trkpt><trkpt lat="45.57439252526853" lon="10.442937109958637"><ele>199.0</ele><time>2026-03-29T16:19:42Z</time></trkpt><trkpt lat="45.574236339225806" lon="10.442810999290302"><ele>196.66666666666666</ele><time>2026-03-29T16:19:43Z</time></trkpt><trkpt lat="45.57409297097139" lon="10.442697568239845"><ele>194.33333333333331</ele><time>2026-03-29T16:19:44Z</time></trkpt><trkpt lat="45.57395411837352" lon="10.442588504864075"><ele>192.0</ele><time>2026-03-29T16:19:45Z</time></trkpt><trkpt lat="45.5738197970974" lon="10.442479181331125"><ele>192.0</ele><time>2026-03-29T16:19:46Z</time></trkpt><trkpt lat="45.573684963347795" lon="10.442366675376315"><ele>192.0</ele><time>2026-03-29T16:19:47Z</time></trkpt><trkpt lat="45.573539118810125" lon="10.442254148261446"><ele>192.0</ele><time>2026-03-29T16:19:47.999Z</time></trkpt><trkpt lat="45.57338959195297" lon="10.442145741358082"><ele>192.0</ele><time>2026-03-29T16:19:48.999Z</time></trkpt><trkpt lat="45.57323434627166" lon="10.442046300936735"><ele>192.0</ele><time>2026-03-29T16:19:49.999Z</time></trkpt><trkpt lat="45.573076388552664" lon="10.441958206284585"><ele>192.0</ele><time>2026-03-29T16:19:50.999Z</time></trkpt><trkpt lat="45.57292491619255" lon="10.441884297981046"><ele>192.0</ele><time>2026-03-29T16:19:51.999Z</time></trkpt><trkpt lat="45.572767193891934" lon="10.441811175181277"><ele>192.0</ele><time>2026-03-29T16:19:52.999Z</time></trkpt><trkpt lat="45.57260522661061" lon="10.44175081336464"><ele>192.0</ele><time>2026-03-29T16:19:53.999Z</time></trkpt><trkpt lat="45.57244494477992" lon="10.441694725797783"><ele>192.0</ele><time>2026-03-29T16:19:54.999Z</time></trkpt><trkpt lat="45.57228071293109" lon="10.441645338455196"><ele>192.0</ele><time>2026-03-29T16:19:55.999Z</time></trkpt><trkpt lat="45.57210251860348" lon="10.441605177358833"><ele>192.0</ele><time>2026-03-29T16:19:56.999Z</time></trkpt><trkpt lat="45.571895682928016" lon="10.441577209860649"><ele>193.0</ele><time>2026-03-29T16:19:57.999Z</time></trkpt><trkpt lat="45.57165691037483" lon="10.44156342347629"><ele>194.0</ele><time>2026-03-29T16:19:58.999Z</time></trkpt><trkpt lat="45.57139930108034" lon="10.441549187568656"><ele>194.5</ele><time>2026-03-29T16:19:59.999Z</time></trkpt><trkpt lat="45.57113169616369" lon="10.441552226248122"><ele>195.0</ele><time>2026-03-29T16:20:00.999Z</time></trkpt><trkpt lat="45.57085350345533" lon="10.441592990084818"><ele>195.0</ele><time>2026-03-29T16:20:01.999Z</time></trkpt><trkpt lat="45.57057151667379" lon="10.441662539176495"><ele>195.0</ele><time>2026-03-29T16:20:02.999Z</time></trkpt><trkpt lat="45.5703279059456" lon="10.44174041320133"><ele>194.5</ele><time>2026-03-29T16:20:03.999Z</time></trkpt><trkpt lat="45.5701017474176" lon="10.441803705604295"><ele>194.0</ele><time>2026-03-29T16:20:04.999Z</time></trkpt><trkpt lat="45.56988384206718" lon="10.44187434653195"><ele>194.0</ele><time>2026-03-29T16:20:05.999Z</time></trkpt><trkpt lat="45.569669032613696" lon="10.441935514627415"><ele>194.0</ele><time>2026-03-29T16:20:06.999Z</time></trkpt><trkpt lat="45.56946429386434" lon="10.441995929254176"><ele>194.0</ele><time>2026-03-29T16:20:07.999Z</time></trkpt><trkpt lat="45.56923855398925" lon="10.442035059926907"><ele>194.0</ele><time>2026-03-29T16:20:08.999Z</time></trkpt><trkpt lat="45.5690178309188" lon="10.442077067903073"><ele>194.0</ele><time>2026-03-29T16:20:09.999Z</time></trkpt><trkpt lat="45.56881945511773" lon="10.442107538294724"><ele>194.0</ele><time>2026-03-29T16:20:10.999Z</time></trkpt><trkpt lat="45.568619221462676" lon="10.442129321478529"><ele>193.0</ele><time>2026-03-29T16:20:11.999Z</time></trkpt><trkpt lat="45.5684250093255" lon="10.442144188894348"><ele>192.0</ele><time>2026-03-29T16:20:12.999Z</time></trkpt><trkpt lat="45.56822147889785" lon="10.4421492016802"><ele>191.0</ele><time>2026-03-29T16:20:13.999Z</time></trkpt><trkpt lat="45.56799313108308" lon="10.442144498538907"><ele>190.5</ele><time>2026-03-29T16:20:14.999Z</time></trkpt><trkpt lat="45.56774376825349" lon="10.442132784062123"><ele>190.0</ele><time>2026-03-29T16:20:15.999Z</time></trkpt><trkpt lat="45.56748184417736" lon="10.442131631271787"><ele>190.5</ele><time>2026-03-29T16:20:16.999Z</time></trkpt><trkpt lat="45.5672556600453" lon="10.442099712840228"><ele>191.0</ele><time>2026-03-29T16:20:17.999Z</time></trkpt><trkpt lat="45.56703246349541" lon="10.442081908870918"><ele>191.33333333333331</ele><time>2026-03-29T16:20:18.999Z</time></trkpt><trkpt lat="45.566808708461835" lon="10.442066166092845"><ele>191.66666666666666</ele><time>2026-03-29T16:20:19.999Z</time></trkpt><trkpt lat="45.56660322145142" lon="10.44204575827584"><ele>192.0</ele><time>2026-03-29T16:20:20.999Z</time></trkpt><trkpt lat="45.56641301306639" lon="10.442025537532636"><ele>192.0</ele><time>2026-03-29T16:20:21.999Z</time></trkpt><trkpt lat="45.56622599558558" lon="10.442012409440398"><ele>192.0</ele><time>2026-03-29T16:20:22.999Z</time></trkpt><trkpt lat="45.56604142422718" lon="10.441999584807723"><ele>192.0</ele><time>2026-03-29T16:20:23.999Z</time></trkpt><trkpt lat="45.56585710300458" lon="10.441983594193234"><ele>192.0</ele><time>2026-03-29T16:20:24.999Z</time></trkpt><trkpt lat="45.565675280506035" lon="10.441963859774296"><ele>192.0</ele><time>2026-03-29T16:20:25.999Z</time></trkpt><trkpt lat="45.56549934694476" lon="10.441944113516108"><ele>192.0</ele><time>2026-03-29T16:20:26.999Z</time></trkpt><trkpt lat="45.56532236379903" lon="10.441910345964754"><ele>191.66666666666666</ele><time>2026-03-29T16:20:27.999Z</time></trkpt><trkpt lat="45.565141373489304" lon="10.441867519233325"><ele>191.33333333333331</ele><time>2026-03-29T16:20:28.999Z</time></trkpt><trkpt lat="45.56495491011646" lon="10.441815424615633"><ele>191.0</ele><time>2026-03-29T16:20:29.999Z</time></trkpt><trkpt lat="45.564771255600725" lon="10.441724463068349"><ele>191.0</ele><time>2026-03-29T16:20:30.999Z</time></trkpt><trkpt lat="45.564586305724546" lon="10.44166858466682"><ele>191.0</ele><time>2026-03-29T16:20:31.999Z</time></trkpt><trkpt lat="45.56440429975211" lon="10.44157634511512"><ele>191.0</ele><time>2026-03-29T16:20:32.999Z</time></trkpt><trkpt lat="45.56423028703264" lon="10.441449526985302"><ele>191.0</ele><time>2026-03-29T16:20:33.999Z</time></trkpt><trkpt lat="45.56404828366279" lon="10.441330105607786"><ele>191.0</ele><time>2026-03-29T16:20:34.999Z</time></trkpt><trkpt lat="45.56386634599384" lon="10.441198181052114"><ele>191.0</ele><time>2026-03-29T16:20:35.999Z</time></trkpt><trkpt lat="45.56368206654767" lon="10.441043794722498"><ele>190.5</ele><time>2026-03-29T16:20:36.999Z</time></trkpt><trkpt lat="45.563483915212686" lon="10.44085679018722"><ele>190.0</ele><time>2026-03-29T16:20:37.999Z</time></trkpt><trkpt lat="45.56327483411378" lon="10.44064403207613"><ele>190.0</ele><time>2026-03-29T16:20:38.999Z</time></trkpt><trkpt lat="45.5630575566105" lon="10.440412258176465"><ele>190.0</ele><time>2026-03-29T16:20:39.999Z</time></trkpt><trkpt lat="45.562817727870346" lon="10.440185264906429"><ele>190.0</ele><time>2026-03-29T16:20:40.999Z</time></trkpt><trkpt lat="45.56257766036097" lon="10.439930398983865"><ele>190.0</ele><time>2026-03-29T16:20:42Z</time></trkpt><trkpt lat="45.56236833455732" lon="10.43969346400351"><ele>190.5</ele><time>2026-03-29T16:20:43Z</time></trkpt><trkpt lat="45.56218249669128" lon="10.43949235093403"><ele>191.0</ele><time>2026-03-29T16:20:44Z</time></trkpt><trkpt lat="45.56198248602724" lon="10.439285769187046"><ele>191.0</ele><time>2026-03-29T16:20:45Z</time></trkpt><trkpt lat="45.56178842271505" lon="10.439080612203469"><ele>191.0</ele><time>2026-03-29T16:20:46Z</time></trkpt><trkpt lat="45.56160988531311" lon="10.438892711099593"><ele>191.0</ele><time>2026-03-29T16:20:47Z</time></trkpt><trkpt lat="45.56144327270262" lon="10.43871508017818"><ele>191.0</ele><time>2026-03-29T16:20:48Z</time></trkpt><trkpt lat="45.56128198471521" lon="10.438543733810947"><ele>191.0</ele><time>2026-03-29T16:20:49Z</time></trkpt><trkpt lat="45.56112357118051" lon="10.43838021445195"><ele>191.0</ele><time>2026-03-29T16:20:50Z</time></trkpt><trkpt lat="45.560966763920355" lon="10.438220098130817"><ele>191.0</ele><time>2026-03-29T16:20:51Z</time></trkpt><trkpt lat="45.56081635500374" lon="10.4380567161653"><ele>191.0</ele><time>2026-03-29T16:20:52Z</time></trkpt><trkpt lat="45.56066448164981" lon="10.43790263504822"><ele>190.66666666666666</ele><time>2026-03-29T16:20:53Z</time></trkpt><trkpt lat="45.56051491113544" lon="10.43774607229444"><ele>190.33333333333334</ele><time>2026-03-29T16:20:54Z</time></trkpt><trkpt lat="45.56036370732804" lon="10.437590219068936"><ele>190.0</ele><time>2026-03-29T16:20:55Z</time></trkpt><trkpt lat="45.5602040609889" lon="10.437433057532132"><ele>190.0</ele><time>2026-03-29T16:20:56Z</time></trkpt><trkpt lat="45.560042004595125" lon="10.437287686502112"><ele>190.0</ele><time>2026-03-29T16:20:57Z</time></trkpt><trkpt lat="45.559878496378204" lon="10.437146755266644"><ele>190.0</ele><time>2026-03-29T16:20:58Z</time></trkpt><trkpt lat="45.559714655620056" lon="10.437000407286954"><ele>190.0</ele><time>2026-03-29T16:20:59Z</time></trkpt><trkpt lat="45.55955531899935" lon="10.436860617450812"><ele>190.0</ele><time>2026-03-29T16:21:00Z</time></trkpt><trkpt lat="45.559402292291885" lon="10.43673340369343"><ele>190.0</ele><time>2026-03-29T16:21:01Z</time></trkpt><trkpt lat="45.55924606185457" lon="10.436607185596932"><ele>190.0</ele><time>2026-03-29T16:21:02Z</time></trkpt><trkpt lat="45.55908722358101" lon="10.436482018745414"><ele>190.0</ele><time>2026-03-29T16:21:03Z</time></trkpt><trkpt lat="45.55891313499742" lon="10.436353633899579"><ele>190.0</ele><time>2026-03-29T16:21:04Z</time></trkpt><trkpt lat="45.55874157316518" lon="10.436224790083827"><ele>190.0</ele><time>2026-03-29T16:21:05Z</time></trkpt><trkpt lat="45.55855918054817" lon="10.43609664667587"><ele>190.0</ele><time>2026-03-29T16:21:06Z</time></trkpt><trkpt lat="45.55837434123536" lon="10.435964980835461"><ele>190.0</ele><time>2026-03-29T16:21:07Z</time></trkpt><trkpt lat="45.558185263458824" lon="10.435834835118113"><ele>190.0</ele><time>2026-03-29T16:21:08Z</time></trkpt><trkpt lat="45.55798939826094" lon="10.435701692773637"><ele>190.0</ele><time>2026-03-29T16:21:09Z</time></trkpt><trkpt lat="45.5577964978293" lon="10.435571237856072"><ele>190.0</ele><time>2026-03-29T16:21:10Z</time></trkpt><trkpt lat="45.55761815006497" lon="10.435455115475524"><ele>190.0</ele><time>2026-03-29T16:21:11Z</time></trkpt><trkpt lat="45.5574332296887" lon="10.435339540404051"><ele>190.0</ele><time>2026-03-29T16:21:12Z</time></trkpt><trkpt lat="45.55724869532649" lon="10.435222952507772"><ele>190.0</ele><time>2026-03-29T16:21:13Z</time></trkpt><trkpt lat="45.55706172185469" lon="10.435102048894352"><ele>189.33333333333334</ele><time>2026-03-29T16:21:14Z</time></trkpt><trkpt lat="45.556871677205415" lon="10.434987035031211"><ele>188.66666666666666</ele><time>2026-03-29T16:21:15Z</time></trkpt><trkpt lat="45.55668720445254" lon="10.434872302035345"><ele>188.0</ele><time>2026-03-29T16:21:16Z</time></trkpt><trkpt lat="45.556506474779724" lon="10.434755902149643"><ele>189.0</ele><time>2026-03-29T16:21:17Z</time></trkpt><trkpt lat="45.55630467079089" lon="10.43460657985099"><ele>190.0</ele><time>2026-03-29T16:21:18Z</time></trkpt><trkpt lat="45.556075809161435" lon="10.434460327942565"><ele>191.5</ele><time>2026-03-29T16:21:19Z</time></trkpt><trkpt lat="45.555833899059934" lon="10.434305737620425"><ele>193.0</ele><time>2026-03-29T16:21:20Z</time></trkpt><trkpt lat="45.555618884317774" lon="10.434180280222833"><ele>193.0</ele><time>2026-03-29T16:21:21Z</time></trkpt><trkpt lat="45.55541825553278" lon="10.434051021897988"><ele>193.0</ele><time>2026-03-29T16:21:22Z</time></trkpt><trkpt lat="45.55522589630131" lon="10.433922673814156"><ele>193.0</ele><time>2026-03-29T16:21:23Z</time></trkpt><trkpt lat="45.55504315930627" lon="10.43380441167944"><ele>191.66666666666666</ele><time>2026-03-29T16:21:24Z</time></trkpt><trkpt lat="45.55485530723168" lon="10.433682557565124"><ele>190.33333333333331</ele><time>2026-03-29T16:21:25Z</time></trkpt><trkpt lat="45.55467674664019" lon="10.43356594613392"><ele>189.0</ele><time>2026-03-29T16:21:26Z</time></trkpt><trkpt lat="45.554497016751924" lon="10.433451463143205"><ele>189.0</ele><time>2026-03-29T16:21:27Z</time></trkpt><trkpt lat="45.55432708196824" lon="10.433344846195215"><ele>189.0</ele><time>2026-03-29T16:21:28Z</time></trkpt><trkpt lat="45.55416870986166" lon="10.433241952904629"><ele>189.0</ele><time>2026-03-29T16:21:29Z</time></trkpt><trkpt lat="45.55400081669338" lon="10.43314113743154"><ele>189.0</ele><time>2026-03-29T16:21:30Z</time></trkpt><trkpt lat="45.55383275680603" lon="10.433050031009188"><ele>189.0</ele><time>2026-03-29T16:21:31Z</time></trkpt><trkpt lat="45.55365285597833" lon="10.432967099235942"><ele>189.0</ele><time>2026-03-29T16:21:32Z</time></trkpt><trkpt lat="45.553464503178844" lon="10.432880342738658"><ele>189.33333333333334</ele><time>2026-03-29T16:21:33Z</time></trkpt><trkpt lat="45.553271309824055" lon="10.432797526608251"><ele>189.66666666666669</ele><time>2026-03-29T16:21:34Z</time></trkpt><trkpt lat="45.5530719931871" lon="10.432716872191945"><ele>190.0</ele><time>2026-03-29T16:21:35Z</time></trkpt><trkpt lat="45.552870400369585" lon="10.432633273080253"><ele>190.0</ele><time>2026-03-29T16:21:36Z</time></trkpt><trkpt lat="45.55266811054635" lon="10.432543498034706"><ele>190.0</ele><time>2026-03-29T16:21:37Z</time></trkpt><trkpt lat="45.55246573497479" lon="10.432447610487364"><ele>190.0</ele><time>2026-03-29T16:21:38Z</time></trkpt><trkpt lat="45.5522660116786" lon="10.43234324693661"><ele>190.0</ele><time>2026-03-29T16:21:39Z</time></trkpt><trkpt lat="45.55206571398261" lon="10.432238173008992"><ele>190.0</ele><time>2026-03-29T16:21:40Z</time></trkpt><trkpt lat="45.55187120112813" lon="10.432132404752899"><ele>190.0</ele><time>2026-03-29T16:21:41Z</time></trkpt><trkpt lat="45.55168917060454" lon="10.432028920000526"><ele>190.66666666666669</ele><time>2026-03-29T16:21:42Z</time></trkpt><trkpt lat="45.551507941388614" lon="10.431923071230917"><ele>191.33333333333334</ele><time>2026-03-29T16:21:43Z</time></trkpt><trkpt lat="45.551327141846656" lon="10.431815705864214"><ele>192.0</ele><time>2026-03-29T16:21:44Z</time></trkpt><trkpt lat="45.55114663351539" lon="10.431707709060626"><ele>192.0</ele><time>2026-03-29T16:21:45Z</time></trkpt><trkpt lat="45.55097322989097" lon="10.43158984575121"><ele>192.0</ele><time>2026-03-29T16:21:46Z</time></trkpt><trkpt lat="45.55080145430661" lon="10.43147998296505"><ele>192.0</ele><time>2026-03-29T16:21:47Z</time></trkpt><trkpt lat="45.55063569020721" lon="10.431358453401677"><ele>191.66666666666666</ele><time>2026-03-29T16:21:48Z</time></trkpt><trkpt lat="45.550467338387875" lon="10.431239260014362"><ele>191.33333333333331</ele><time>2026-03-29T16:21:49Z</time></trkpt><trkpt lat="45.5503041158522" lon="10.43112075089966"><ele>191.0</ele><time>2026-03-29T16:21:49.999Z</time></trkpt><trkpt lat="45.55013995188459" lon="10.430993936733778"><ele>190.33333333333331</ele><time>2026-03-29T16:21:50.999Z</time></trkpt><trkpt lat="45.5499764561196" lon="10.4308631233002"><ele>189.66666666666666</ele><time>2026-03-29T16:21:51.999Z</time></trkpt><trkpt lat="45.54981556322062" lon="10.430739581143497"><ele>189.0</ele><time>2026-03-29T16:21:52.999Z</time></trkpt><trkpt lat="45.54965226713025" lon="10.43061556162346"><ele>188.66666666666666</ele><time>2026-03-29T16:21:53.999Z</time></trkpt><trkpt lat="45.54948667497543" lon="10.430489201322969"><ele>188.33333333333331</ele><time>2026-03-29T16:21:54.999Z</time></trkpt><trkpt lat="45.549323105238464" lon="10.430364972500872"><ele>188.0</ele><time>2026-03-29T16:21:55.999Z</time></trkpt><trkpt lat="45.549159307700556" lon="10.430240791158841"><ele>188.0</ele><time>2026-03-29T16:21:56.999Z</time></trkpt><trkpt lat="45.54899380077204" lon="10.430116731058103"><ele>188.0</ele><time>2026-03-29T16:21:57.999Z</time></trkpt><trkpt lat="45.548830954031004" lon="10.42999573807948"><ele>188.0</ele><time>2026-03-29T16:21:58.999Z</time></trkpt><trkpt lat="45.54866960420462" lon="10.429871140348126"><ele>188.0</ele><time>2026-03-29T16:21:59.999Z</time></trkpt><trkpt lat="45.54850585784013" lon="10.429746223940457"><ele>188.0</ele><time>2026-03-29T16:22:00.999Z</time></trkpt><trkpt lat="45.54834088801446" lon="10.42962240376932"><ele>188.0</ele><time>2026-03-29T16:22:01.999Z</time></trkpt><trkpt lat="45.54817496337311" lon="10.429493083012355"><ele>188.0</ele><time>2026-03-29T16:22:02.999Z</time></trkpt><trkpt lat="45.54800901438312" lon="10.429367824957259"><ele>188.0</ele><time>2026-03-29T16:22:03.999Z</time></trkpt><trkpt lat="45.54784339046808" lon="10.429242538646793"><ele>188.0</ele><time>2026-03-29T16:22:04.999Z</time></trkpt><trkpt lat="45.54768069660869" lon="10.429115847682379"><ele>188.0</ele><time>2026-03-29T16:22:05.999Z</time></trkpt><trkpt lat="45.54754475737095" lon="10.428955430938917"><ele>188.0</ele><time>2026-03-29T16:22:06.999Z</time></trkpt><trkpt lat="45.547396702974034" lon="10.428807359241166"><ele>188.0</ele><time>2026-03-29T16:22:07.999Z</time></trkpt><trkpt lat="45.54724613702138" lon="10.428656570467801"><ele>185.0</ele><time>2026-03-29T16:22:09.017Z</time></trkpt><trkpt lat="45.54496044975001" lon="10.42628979029793"><ele>185.0</ele><time>2026-03-29T16:22:13.986Z</time></trkpt><trkpt lat="45.54461575388852" lon="10.42593881064641"><ele>185.0</ele><time>2026-03-29T16:22:27.563Z</time></trkpt><trkpt lat="45.544745984430826" lon="10.426053341070327"><ele>185.0</ele><time>2026-03-29T16:22:30.019Z</time></trkpt><trkpt lat="45.544679613876816" lon="10.42597558402584"><ele>185.0</ele><time>2026-03-29T16:22:30.999Z</time></trkpt><trkpt lat="45.54459148572189" lon="10.425865889655642"><ele>185.0</ele><time>2026-03-29T16:22:31.999Z</time></trkpt><trkpt lat="45.54449364432737" lon="10.425747039368797"><ele>185.0</ele><time>2026-03-29T16:22:32.999Z</time></trkpt><trkpt lat="45.54439061734295" lon="10.425626626077227"><ele>185.0</ele><time>2026-03-29T16:22:33.999Z</time></trkpt><trkpt lat="45.54428705397464" lon="10.425510407545156"><ele>185.0</ele><time>2026-03-29T16:22:34.999Z</time></trkpt><trkpt lat="45.54418226802312" lon="10.425385317003936"><ele>185.0</ele><time>2026-03-29T16:22:35.999Z</time></trkpt><trkpt lat="45.54409075006965" lon="10.425270801988335"><ele>185.0</ele><time>2026-03-29T16:22:36.999Z</time></trkpt><trkpt lat="45.54400228322191" lon="10.425168496578333"><ele>185.0</ele><time>2026-03-29T16:22:37.999Z</time></trkpt><trkpt lat="45.543913095927806" lon="10.425074528509173"><ele>185.0</ele><time>2026-03-29T16:22:38.999Z</time></trkpt><trkpt lat="45.54382672865378" lon="10.424978200594479"><ele>185.0</ele><time>2026-03-29T16:22:39.999Z</time></trkpt><trkpt lat="45.54374583931662" lon="10.424873571679631"><ele>185.0</ele><time>2026-03-29T16:22:40.999Z</time></trkpt><trkpt lat="45.543663171829" lon="10.424774389162897"><ele>185.0</ele><time>2026-03-29T16:22:41.999Z</time></trkpt><trkpt lat="45.54357855024617" lon="10.424678782983017"><ele>184.4</ele><time>2026-03-29T16:22:42.999Z</time></trkpt><trkpt lat="45.543496120032344" lon="10.424583651993766"><ele>183.8</ele><time>2026-03-29T16:22:43.999Z</time></trkpt><trkpt lat="45.54341890094217" lon="10.424490351917186"><ele>183.2</ele><time>2026-03-29T16:22:44.999Z</time></trkpt><trkpt lat="45.543347859108216" lon="10.424405652665184"><ele>182.6</ele><time>2026-03-29T16:22:45.999Z</time></trkpt><trkpt lat="45.54327389542621" lon="10.424323606762941"><ele>182.0</ele><time>2026-03-29T16:22:46.999Z</time></trkpt><trkpt lat="45.54320094426749" lon="10.424242020094132"><ele>182.0</ele><time>2026-03-29T16:22:48Z</time></trkpt><trkpt lat="45.543123823131324" lon="10.424142876385421"><ele>182.0</ele><time>2026-03-29T16:22:49Z</time></trkpt><trkpt lat="45.54303667604885" lon="10.424035765925678"><ele>182.0</ele><time>2026-03-29T16:22:50Z</time></trkpt><trkpt lat="45.54294787927286" lon="10.42392175612218"><ele>182.0</ele><time>2026-03-29T16:22:51Z</time></trkpt><trkpt lat="45.54285280962672" lon="10.423805310875437"><ele>182.5</ele><time>2026-03-29T16:22:52Z</time></trkpt><trkpt lat="45.542749947950924" lon="10.423688804522039"><ele>183.0</ele><time>2026-03-29T16:22:53Z</time></trkpt><trkpt lat="45.54264169513451" lon="10.423560284767937"><ele>183.5</ele><time>2026-03-29T16:22:54Z</time></trkpt><trkpt lat="45.5425338010735" lon="10.423432207197104"><ele>184.0</ele><time>2026-03-29T16:22:55Z</time></trkpt><trkpt lat="45.54242513624394" lon="10.423296645887099"><ele>184.0</ele><time>2026-03-29T16:22:56Z</time></trkpt><trkpt lat="45.54231164020344" lon="10.423164576557467"><ele>184.0</ele><time>2026-03-29T16:22:57Z</time></trkpt><trkpt lat="45.54219812039353" lon="10.42302834847716"><ele>184.0</ele><time>2026-03-29T16:22:58Z</time></trkpt><trkpt lat="45.542082204742336" lon="10.422889762323486"><ele>184.0</ele><time>2026-03-29T16:22:59Z</time></trkpt><trkpt lat="45.541968525562154" lon="10.422748760471107"><ele>183.66666666666669</ele><time>2026-03-29T16:23:00Z</time></trkpt><trkpt lat="45.541851859335466" lon="10.422614385364026"><ele>183.33333333333334</ele><time>2026-03-29T16:23:01Z</time></trkpt><trkpt lat="45.54173486230264" lon="10.42247414887077"><ele>183.0</ele><time>2026-03-29T16:23:02Z</time></trkpt><trkpt lat="45.54161571451499" lon="10.422333445004288"><ele>183.0</ele><time>2026-03-29T16:23:03Z</time></trkpt><trkpt lat="45.54151452898089" lon="10.422206767666573"><ele>183.0</ele><time>2026-03-29T16:23:04Z</time></trkpt><trkpt lat="45.54141406063531" lon="10.422084073320953"><ele>183.0</ele><time>2026-03-29T16:23:05Z</time></trkpt><trkpt lat="45.541309682710335" lon="10.421960337881234"><ele>183.0</ele><time>2026-03-29T16:23:06Z</time></trkpt><trkpt lat="45.541211150478276" lon="10.421833929946665"><ele>183.75</ele><time>2026-03-29T16:23:07Z</time></trkpt><trkpt lat="45.541111850176215" lon="10.421713556093298"><ele>184.5</ele><time>2026-03-29T16:23:08Z</time></trkpt><trkpt lat="45.541019890974724" lon="10.42159755553967"><ele>185.25</ele><time>2026-03-29T16:23:09Z</time></trkpt><trkpt lat="45.5409288309478" lon="10.42148257680355"><ele>186.0</ele><time>2026-03-29T16:23:10Z</time></trkpt><trkpt lat="45.54083182722127" lon="10.421362278947429"><ele>185.5</ele><time>2026-03-29T16:23:11Z</time></trkpt><trkpt lat="45.540730277173765" lon="10.421241362230544"><ele>185.0</ele><time>2026-03-29T16:23:12Z</time></trkpt><trkpt lat="45.54062465067781" lon="10.42111816265035"><ele>184.5</ele><time>2026-03-29T16:23:13Z</time></trkpt><trkpt lat="45.540514027685056" lon="10.420989497940345"><ele>184.0</ele><time>2026-03-29T16:23:14Z</time></trkpt><trkpt lat="45.54040487422069" lon="10.420851372465213"><ele>183.75</ele><time>2026-03-29T16:23:15Z</time></trkpt><trkpt lat="45.540295382213294" lon="10.420717076790798"><ele>183.5</ele><time>2026-03-29T16:23:16Z</time></trkpt><trkpt lat="45.54018361141077" lon="10.420581035393493"><ele>183.25</ele><time>2026-03-29T16:23:17Z</time></trkpt><trkpt lat="45.54006865366365" lon="10.420441567024119"><ele>183.0</ele><time>2026-03-29T16:23:18Z</time></trkpt><trkpt lat="45.539955925065634" lon="10.42030531044754"><ele>182.66666666666666</ele><time>2026-03-29T16:23:19Z</time></trkpt><trkpt lat="45.539843070475634" lon="10.420171539131415"><ele>182.33333333333331</ele><time>2026-03-29T16:23:20Z</time></trkpt><trkpt lat="45.53972677826442" lon="10.420022294137285"><ele>182.0</ele><time>2026-03-29T16:23:21Z</time></trkpt><trkpt lat="45.53961047362045" lon="10.41987148066405"><ele>182.33333333333331</ele><time>2026-03-29T16:23:22Z</time></trkpt><trkpt lat="45.53948957933733" lon="10.419706086070477"><ele>182.66666666666666</ele><time>2026-03-29T16:23:23Z</time></trkpt><trkpt lat="45.539365928772064" lon="10.41953225654201"><ele>183.0</ele><time>2026-03-29T16:23:24Z</time></trkpt><trkpt lat="45.53923901542621" lon="10.41934834046481"><ele>183.33333333333334</ele><time>2026-03-29T16:23:25Z</time></trkpt><trkpt lat="45.53912031203924" lon="10.419167538108326"><ele>183.66666666666669</ele><time>2026-03-29T16:23:26Z</time></trkpt><trkpt lat="45.53899833585667" lon="10.41898660562673"><ele>184.0</ele><time>2026-03-29T16:23:27Z</time></trkpt><trkpt lat="45.53887724730616" lon="10.418804214904764"><ele>183.33333333333334</ele><time>2026-03-29T16:23:28Z</time></trkpt><trkpt lat="45.53875747973828" lon="10.418615455109725"><ele>182.66666666666666</ele><time>2026-03-29T16:23:29Z</time></trkpt><trkpt lat="45.53863412393765" lon="10.418423414298696"><ele>182.0</ele><time>2026-03-29T16:23:30Z</time></trkpt><trkpt lat="45.53850833754642" lon="10.418235658788475"><ele>181.66666666666666</ele><time>2026-03-29T16:23:31Z</time></trkpt><trkpt lat="45.53839063769112" lon="10.418054764661639"><ele>181.33333333333334</ele><time>2026-03-29T16:23:32Z</time></trkpt><trkpt lat="45.53827606016742" lon="10.417886299311776"><ele>181.0</ele><time>2026-03-29T16:23:33Z</time></trkpt><trkpt lat="45.53815614645749" lon="10.417709218760063"><ele>181.0</ele><time>2026-03-29T16:23:34Z</time></trkpt><trkpt lat="45.5380372973158" lon="10.417518421259864"><ele>181.0</ele><time>2026-03-29T16:23:35Z</time></trkpt><trkpt lat="45.53791745036482" lon="10.417315473536714"><ele>181.0</ele><time>2026-03-29T16:23:36Z</time></trkpt><trkpt lat="45.537807578361836" lon="10.417142617835301"><ele>181.5</ele><time>2026-03-29T16:23:37Z</time></trkpt><trkpt lat="45.537708852419186" lon="10.4169805147872"><ele>182.0</ele><time>2026-03-29T16:23:38Z</time></trkpt><trkpt lat="45.5376137314" lon="10.416828418979078"><ele>182.5</ele><time>2026-03-29T16:23:39Z</time></trkpt><trkpt lat="45.53753025745683" lon="10.416684794222375"><ele>183.0</ele><time>2026-03-29T16:23:40Z</time></trkpt><trkpt lat="45.537455781587205" lon="10.416543291445198"><ele>183.0</ele><time>2026-03-29T16:23:41Z</time></trkpt><trkpt lat="45.537385023949035" lon="10.416428458662473"><ele>183.0</ele><time>2026-03-29T16:23:42Z</time></trkpt><trkpt lat="45.537325824720966" lon="10.416307343014056"><ele>183.0</ele><time>2026-03-29T16:23:43Z</time></trkpt><trkpt lat="45.537269473987884" lon="10.41618402153918"><ele>183.0</ele><time>2026-03-29T16:23:44Z</time></trkpt><trkpt lat="45.53721952233902" lon="10.416051313309161"><ele>183.0</ele><time>2026-03-29T16:23:45Z</time></trkpt><trkpt lat="45.53717242036822" lon="10.415909297236553"><ele>182.8</ele><time>2026-03-29T16:23:46Z</time></trkpt><trkpt lat="45.537130774398385" lon="10.415772539516238"><ele>182.60000000000002</ele><time>2026-03-29T16:23:47Z</time></trkpt><trkpt lat="45.537093667657956" lon="10.41564953979382"><ele>182.39999999999998</ele><time>2026-03-29T16:23:48Z</time></trkpt><trkpt lat="45.537063871027605" lon="10.415529563669459"><ele>182.2</ele><time>2026-03-29T16:23:49Z</time></trkpt><trkpt lat="45.53703416542416" lon="10.415392509426649"><ele>182.0</ele><time>2026-03-29T16:23:50Z</time></trkpt><trkpt lat="45.537007942471625" lon="10.415233387987637"><ele>181.75</ele><time>2026-03-29T16:23:51Z</time></trkpt><trkpt lat="45.53698260726262" lon="10.415068705857385"><ele>181.5</ele><time>2026-03-29T16:23:52Z</time></trkpt><trkpt lat="45.53695943308396" lon="10.414896196747728"><ele>181.25</ele><time>2026-03-29T16:23:53Z</time></trkpt><trkpt lat="45.536941762724084" lon="10.414712201701422"><ele>181.0</ele><time>2026-03-29T16:23:54Z</time></trkpt><trkpt lat="45.53692666376511" lon="10.414524066699434"><ele>181.0</ele><time>2026-03-29T16:23:55Z</time></trkpt><trkpt lat="45.53691086342975" lon="10.414329118607242"><ele>181.0</ele><time>2026-03-29T16:23:55.999Z</time></trkpt><trkpt lat="45.53689639637423" lon="10.414130500471696"><ele>181.0</ele><time>2026-03-29T16:23:56.999Z</time></trkpt><trkpt lat="45.536877440149894" lon="10.413920648865538"><ele>181.0</ele><time>2026-03-29T16:23:57.999Z</time></trkpt><trkpt lat="45.5368574569091" lon="10.41371039750401"><ele>181.0</ele><time>2026-03-29T16:23:58.999Z</time></trkpt><trkpt lat="45.53684142516824" lon="10.413515506015523"><ele>181.0</ele><time>2026-03-29T16:23:59.999Z</time></trkpt><trkpt lat="45.536824678614025" lon="10.413337846807773"><ele>181.0</ele><time>2026-03-29T16:24:00.999Z</time></trkpt><trkpt lat="45.53679952314241" lon="10.413158244585015"><ele>181.0</ele><time>2026-03-29T16:24:01.999Z</time></trkpt><trkpt lat="45.536782063627825" lon="10.412976375901478"><ele>180.75</ele><time>2026-03-29T16:24:02.999Z</time></trkpt><trkpt lat="45.53676454538146" lon="10.41279242133387"><ele>180.5</ele><time>2026-03-29T16:24:03.999Z</time></trkpt><trkpt lat="45.536745438353265" lon="10.412606443494926"><ele>180.25</ele><time>2026-03-29T16:24:04.999Z</time></trkpt><trkpt lat="45.536718896198124" lon="10.412418825808064"><ele>180.0</ele><time>2026-03-29T16:24:05.999Z</time></trkpt><trkpt lat="45.53669019699819" lon="10.41222879599631"><ele>179.5</ele><time>2026-03-29T16:24:06.999Z</time></trkpt><trkpt lat="45.536658408142586" lon="10.412040232676429"><ele>179.0</ele><time>2026-03-29T16:24:07.999Z</time></trkpt><trkpt lat="45.536621911082065" lon="10.41185496308267"><ele>178.5</ele><time>2026-03-29T16:24:08.999Z</time></trkpt><trkpt lat="45.53658092648652" lon="10.411666817916869"><ele>178.0</ele><time>2026-03-29T16:24:09.999Z</time></trkpt><trkpt lat="45.53653618858572" lon="10.411484245815396"><ele>178.0</ele><time>2026-03-29T16:24:10.999Z</time></trkpt><trkpt lat="45.53649105264322" lon="10.41129706956235"><ele>178.0</ele><time>2026-03-29T16:24:11.999Z</time></trkpt><trkpt lat="45.53643796573851" lon="10.4111117599424"><ele>178.0</ele><time>2026-03-29T16:24:12.999Z</time></trkpt><trkpt lat="45.53638395606156" lon="10.410930716168426"><ele>178.0</ele><time>2026-03-29T16:24:13.999Z</time></trkpt><trkpt lat="45.53632634824855" lon="10.41074857795102"><ele>178.0</ele><time>2026-03-29T16:24:14.999Z</time></trkpt><trkpt lat="45.53626655444023" lon="10.410567217620846"><ele>178.0</ele><time>2026-03-29T16:24:15.999Z</time></trkpt><trkpt lat="45.53620430732313" lon="10.410384219730286"><ele>178.0</ele><time>2026-03-29T16:24:16.999Z</time></trkpt><trkpt lat="45.53613446713877" lon="10.410218762226924"><ele>178.0</ele><time>2026-03-29T16:24:17.999Z</time></trkpt><trkpt lat="45.53605587613255" lon="10.41003524793076"><ele>178.0</ele><time>2026-03-29T16:24:18.999Z</time></trkpt><trkpt lat="45.535975126871215" lon="10.409850283459102"><ele>178.0</ele><time>2026-03-29T16:24:19.999Z</time></trkpt><trkpt lat="45.53588920883256" lon="10.409661147101634"><ele>178.0</ele><time>2026-03-29T16:24:20.999Z</time></trkpt><trkpt lat="45.53580957456819" lon="10.40947382803628"><ele>178.0</ele><time>2026-03-29T16:24:21.999Z</time></trkpt><trkpt lat="45.53572496657714" lon="10.409284635895364"><ele>178.0</ele><time>2026-03-29T16:24:22.999Z</time></trkpt><trkpt lat="45.535640895940006" lon="10.409097875770032"><ele>178.0</ele><time>2026-03-29T16:24:23.999Z</time></trkpt><trkpt lat="45.53555841413874" lon="10.40891242717967"><ele>178.0</ele><time>2026-03-29T16:24:24.999Z</time></trkpt><trkpt lat="45.53547918601354" lon="10.408725907517905"><ele>178.0</ele><time>2026-03-29T16:24:25.999Z</time></trkpt><trkpt lat="45.53540191524685" lon="10.408534112844052"><ele>178.0</ele><time>2026-03-29T16:24:26.999Z</time></trkpt><trkpt lat="45.53532300767307" lon="10.408349576444275"><ele>177.75</ele><time>2026-03-29T16:24:27.999Z</time></trkpt><trkpt lat="45.53523871948395" lon="10.408174072321673"><ele>177.5</ele><time>2026-03-29T16:24:28.999Z</time></trkpt><trkpt lat="45.535162924419716" lon="10.407999457150614"><ele>177.25</ele><time>2026-03-29T16:24:29.999Z</time></trkpt><trkpt lat="45.53508633095948" lon="10.407826822628335"><ele>177.0</ele><time>2026-03-29T16:24:30.999Z</time></trkpt><trkpt lat="45.535007952927735" lon="10.407654552347047"><ele>177.0</ele><time>2026-03-29T16:24:31.999Z</time></trkpt><trkpt lat="45.53493532017153" lon="10.407491283053174"><ele>177.0</ele><time>2026-03-29T16:24:32.999Z</time></trkpt><trkpt lat="45.5348755825778" lon="10.407345292876371"><ele>177.0</ele><time>2026-03-29T16:24:33.999Z</time></trkpt><trkpt lat="45.534816735681794" lon="10.407205526644434"><ele>177.0</ele><time>2026-03-29T16:24:34.999Z</time></trkpt><trkpt lat="45.5347600372848" lon="10.407060947235761"><ele>177.0</ele><time>2026-03-29T16:24:35.999Z</time></trkpt><trkpt lat="45.534711269107135" lon="10.406923304792938"><ele>177.0</ele><time>2026-03-29T16:24:36.999Z</time></trkpt><trkpt lat="45.53466564880128" lon="10.406798809096315"><ele>177.0</ele><time>2026-03-29T16:24:37.999Z</time></trkpt><trkpt lat="45.53461778146707" lon="10.406664224048571"><ele>177.0</ele><time>2026-03-29T16:24:38.999Z</time></trkpt><trkpt lat="45.53456635764773" lon="10.406521754894554"><ele>177.0</ele><time>2026-03-29T16:24:39.999Z</time></trkpt><trkpt lat="45.534512995959574" lon="10.406374764368886"><ele>176.8</ele><time>2026-03-29T16:24:40.999Z</time></trkpt><trkpt lat="45.53446317344833" lon="10.406242914449841"><ele>176.6</ele><time>2026-03-29T16:24:41.999Z</time></trkpt><trkpt lat="45.53441131602483" lon="10.406129528782246"><ele>176.4</ele><time>2026-03-29T16:24:42.999Z</time></trkpt><trkpt lat="45.53436409303938" lon="10.406006447280028"><ele>176.20000000000002</ele><time>2026-03-29T16:24:43.999Z</time></trkpt><trkpt lat="45.53431352659812" lon="10.405876920652872"><ele>176.0</ele><time>2026-03-29T16:24:44.999Z</time></trkpt><trkpt lat="45.53425739543605" lon="10.405738830308218"><ele>176.0</ele><time>2026-03-29T16:24:45.999Z</time></trkpt><trkpt lat="45.53419656884788" lon="10.40557844129322"><ele>176.0</ele><time>2026-03-29T16:24:46.999Z</time></trkpt><trkpt lat="45.53413470316864" lon="10.405405091559157"><ele>176.0</ele><time>2026-03-29T16:24:47.999Z</time></trkpt><trkpt lat="45.534070269123994" lon="10.40521432136836"><ele>176.0</ele><time>2026-03-29T16:24:48.999Z</time></trkpt><trkpt lat="45.53400248801621" lon="10.405021834750857"><ele>176.0</ele><time>2026-03-29T16:24:49.999Z</time></trkpt><trkpt lat="45.53393017902453" lon="10.404835831426428"><ele>176.0</ele><time>2026-03-29T16:24:50.999Z</time></trkpt><trkpt lat="45.533856929366884" lon="10.40465169366742"><ele>176.0</ele><time>2026-03-29T16:24:51.999Z</time></trkpt><trkpt lat="45.53378792650593" lon="10.404461326703974"><ele>176.0</ele><time>2026-03-29T16:24:52.999Z</time></trkpt><trkpt lat="45.53371865517881" lon="10.404258787630756"><ele>175.75</ele><time>2026-03-29T16:24:54Z</time></trkpt><trkpt lat="45.53364650776845" lon="10.404061536651925"><ele>175.5</ele><time>2026-03-29T16:24:55Z</time></trkpt><trkpt lat="45.5335785844068" lon="10.40387846519596"><ele>175.25</ele><time>2026-03-29T16:24:56Z</time></trkpt><trkpt lat="45.533513613463796" lon="10.403704508481983"><ele>175.0</ele><time>2026-03-29T16:24:57Z</time></trkpt><trkpt lat="45.533448166171034" lon="10.403522140805114"><ele>175.0</ele><time>2026-03-29T16:24:58Z</time></trkpt><trkpt lat="45.533378505428686" lon="10.403340768271109"><ele>175.0</ele><time>2026-03-29T16:24:59Z</time></trkpt><trkpt lat="45.53331007023398" lon="10.403154539584214"><ele>175.0</ele><time>2026-03-29T16:25:00Z</time></trkpt><trkpt lat="45.533231934033395" lon="10.40296611157725"><ele>175.0</ele><time>2026-03-29T16:25:01Z</time></trkpt><trkpt lat="45.533151929103944" lon="10.402762084750757"><ele>174.66666666666669</ele><time>2026-03-29T16:25:02Z</time></trkpt><trkpt lat="45.53307424248969" lon="10.402540206680847"><ele>174.33333333333334</ele><time>2026-03-29T16:25:03Z</time></trkpt><trkpt lat="45.532992651747925" lon="10.402304261850993"><ele>174.0</ele><time>2026-03-29T16:25:04Z</time></trkpt><trkpt lat="45.53290443064425" lon="10.402062697422107"><ele>174.33333333333334</ele><time>2026-03-29T16:25:05Z</time></trkpt><trkpt lat="45.53281868163741" lon="10.40183324362044"><ele>174.66666666666669</ele><time>2026-03-29T16:25:06Z</time></trkpt><trkpt lat="45.532733025145895" lon="10.401606924371265"><ele>175.0</ele><time>2026-03-29T16:25:07Z</time></trkpt><trkpt lat="45.532646621765544" lon="10.401375840006722"><ele>174.0</ele><time>2026-03-29T16:25:08Z</time></trkpt><trkpt lat="45.5325667042262" lon="10.401150022511853"><ele>173.0</ele><time>2026-03-29T16:25:09Z</time></trkpt><trkpt lat="45.5324873971472" lon="10.40093321017872"><ele>172.0</ele><time>2026-03-29T16:25:10Z</time></trkpt><trkpt lat="45.53240655914493" lon="10.400716718534776"><ele>172.0</ele><time>2026-03-29T16:25:11Z</time></trkpt><trkpt lat="45.53232775019314" lon="10.40050594522573"><ele>172.0</ele><time>2026-03-29T16:25:12Z</time></trkpt><trkpt lat="45.532248692917975" lon="10.400285076532972"><ele>172.0</ele><time>2026-03-29T16:25:13Z</time></trkpt><trkpt lat="45.53216800121555" lon="10.40005538448504"><ele>172.33333333333334</ele><time>2026-03-29T16:25:14Z</time></trkpt><trkpt lat="45.53208760748524" lon="10.399817452801784"><ele>172.66666666666666</ele><time>2026-03-29T16:25:15Z</time></trkpt><trkpt lat="45.53200494172088" lon="10.399581710339394"><ele>173.0</ele><time>2026-03-29T16:25:16Z</time></trkpt><trkpt lat="45.53192658866914" lon="10.399367070448342"><ele>173.0</ele><time>2026-03-29T16:25:17Z</time></trkpt><trkpt lat="45.531856712446306" lon="10.399167210669399"><ele>173.0</ele><time>2026-03-29T16:25:18Z</time></trkpt><trkpt lat="45.531786394228625" lon="10.398965761014027"><ele>173.0</ele><time>2026-03-29T16:25:19Z</time></trkpt><trkpt lat="45.53171757630645" lon="10.398773251145474"><ele>173.33333333333331</ele><time>2026-03-29T16:25:20Z</time></trkpt><trkpt lat="45.531645476401266" lon="10.39856818450929"><ele>173.66666666666666</ele><time>2026-03-29T16:25:21Z</time></trkpt><trkpt lat="45.531574138394916" lon="10.398364243840184"><ele>174.0</ele><time>2026-03-29T16:25:22Z</time></trkpt><trkpt lat="45.53150644054944" lon="10.398162619134943"><ele>173.33333333333334</ele><time>2026-03-29T16:25:23Z</time></trkpt><trkpt lat="45.53143472044094" lon="10.397959785300673"><ele>172.66666666666669</ele><time>2026-03-29T16:25:24Z</time></trkpt><trkpt lat="45.53136263356893" lon="10.39775980313545"><ele>172.0</ele><time>2026-03-29T16:25:25Z</time></trkpt><trkpt lat="45.53129218795997" lon="10.397556018199753"><ele>172.33333333333334</ele><time>2026-03-29T16:25:26Z</time></trkpt><trkpt lat="45.53122086064631" lon="10.397356817319297"><ele>172.66666666666666</ele><time>2026-03-29T16:25:27Z</time></trkpt><trkpt lat="45.53114888171057" lon="10.397162553318477"><ele>173.0</ele><time>2026-03-29T16:25:28Z</time></trkpt><trkpt lat="45.53107787661105" lon="10.396959174503486"><ele>173.0</ele><time>2026-03-29T16:25:29Z</time></trkpt><trkpt lat="45.53100517282485" lon="10.396750842485892"><ele>173.0</ele><time>2026-03-29T16:25:30Z</time></trkpt><trkpt lat="45.530930982968364" lon="10.39654296189562"><ele>173.0</ele><time>2026-03-29T16:25:31Z</time></trkpt><trkpt lat="45.53085542745004" lon="10.396332044193954"><ele>172.66666666666666</ele><time>2026-03-29T16:25:32Z</time></trkpt><trkpt lat="45.530779084749746" lon="10.396116912690768"><ele>172.33333333333334</ele><time>2026-03-29T16:25:33Z</time></trkpt><trkpt lat="45.53070090841071" lon="10.395896491546203"><ele>172.0</ele><time>2026-03-29T16:25:34Z</time></trkpt><trkpt lat="45.5306216829202" lon="10.395673209662222"><ele>172.33333333333334</ele><time>2026-03-29T16:25:35Z</time></trkpt><trkpt lat="45.53054443922585" lon="10.395455900620107"><ele>172.66666666666666</ele><time>2026-03-29T16:25:36Z</time></trkpt><trkpt lat="45.53046590948451" lon="10.39524292078979"><ele>173.0</ele><time>2026-03-29T16:25:37Z</time></trkpt><trkpt lat="45.53038318299308" lon="10.39503359734382"><ele>171.66666666666666</ele><time>2026-03-29T16:25:38Z</time></trkpt><trkpt lat="45.53030539155744" lon="10.39482325546629"><ele>170.33333333333334</ele><time>2026-03-29T16:25:39Z</time></trkpt><trkpt lat="45.530225306877874" lon="10.394612493782333"><ele>169.0</ele><time>2026-03-29T16:25:40Z</time></trkpt><trkpt lat="45.530147171852114" lon="10.394393728848463"><ele>169.0</ele><time>2026-03-29T16:25:41Z</time></trkpt><trkpt lat="45.5300711070309" lon="10.394164085533241"><ele>169.0</ele><time>2026-03-29T16:25:42Z</time></trkpt><trkpt lat="45.529992908877425" lon="10.393934810071197"><ele>169.0</ele><time>2026-03-29T16:25:43Z</time></trkpt><trkpt lat="45.529912372555955" lon="10.393708781690966"><ele>169.33333333333334</ele><time>2026-03-29T16:25:44Z</time></trkpt><trkpt lat="45.52983011551595" lon="10.393474893931442"><ele>169.66666666666666</ele><time>2026-03-29T16:25:45Z</time></trkpt><trkpt lat="45.52974579116841" lon="10.393236564486678"><ele>170.0</ele><time>2026-03-29T16:25:46Z</time></trkpt><trkpt lat="45.52966260907169" lon="10.39299776321417"><ele>170.0</ele><time>2026-03-29T16:25:47Z</time></trkpt><trkpt lat="45.52957758851532" lon="10.392749301801185"><ele>170.0</ele><time>2026-03-29T16:25:48Z</time></trkpt><trkpt lat="45.529490132347014" lon="10.392504134336225"><ele>170.0</ele><time>2026-03-29T16:25:49Z</time></trkpt><trkpt lat="45.52940149545797" lon="10.392250036431218"><ele>170.0</ele><time>2026-03-29T16:25:50Z</time></trkpt><trkpt lat="45.52931425143864" lon="10.39199896914661"><ele>170.0</ele><time>2026-03-29T16:25:51Z</time></trkpt><trkpt lat="45.529232088103875" lon="10.391752306435867"><ele>170.0</ele><time>2026-03-29T16:25:52Z</time></trkpt><trkpt lat="45.529155063623286" lon="10.391532897858172"><ele>169.0</ele><time>2026-03-29T16:25:53Z</time></trkpt><trkpt lat="45.529078738537365" lon="10.391313236822215"><ele>168.0</ele><time>2026-03-29T16:25:54Z</time></trkpt><trkpt lat="45.52900519693413" lon="10.391092562503035"><ele>167.0</ele><time>2026-03-29T16:25:55Z</time></trkpt><trkpt lat="45.528927590363594" lon="10.39086751134465"><ele>167.0</ele><time>2026-03-29T16:25:56Z</time></trkpt><trkpt lat="45.52884465606787" lon="10.390632403417412"><ele>167.0</ele><time>2026-03-29T16:25:57Z</time></trkpt><trkpt lat="45.528755632262595" lon="10.390376519842395"><ele>167.0</ele><time>2026-03-29T16:25:58Z</time></trkpt><trkpt lat="45.52866595392998" lon="10.390097701959341"><ele>167.33333333333331</ele><time>2026-03-29T16:25:59Z</time></trkpt><trkpt lat="45.52857351660746" lon="10.389810522273537"><ele>167.66666666666666</ele><time>2026-03-29T16:26:00Z</time></trkpt><trkpt lat="45.528486104555384" lon="10.389550447629135"><ele>168.0</ele><time>2026-03-29T16:26:01Z</time></trkpt><trkpt lat="45.52840887817334" lon="10.389312698595853"><ele>168.0</ele><time>2026-03-29T16:26:02Z</time></trkpt><trkpt lat="45.52833441182968" lon="10.38908096596234"><ele>168.0</ele><time>2026-03-29T16:26:03Z</time></trkpt><trkpt lat="45.528256280446215" lon="10.3888535241042"><ele>168.0</ele><time>2026-03-29T16:26:03.999Z</time></trkpt><trkpt lat="45.52818207589433" lon="10.388627591979372"><ele>167.66666666666666</ele><time>2026-03-29T16:26:04.999Z</time></trkpt><trkpt lat="45.52810996014225" lon="10.388394508052766"><ele>167.33333333333331</ele><time>2026-03-29T16:26:05.999Z</time></trkpt><trkpt lat="45.528038320359414" lon="10.388164221985884"><ele>167.0</ele><time>2026-03-29T16:26:06.999Z</time></trkpt><trkpt lat="45.527957939742336" lon="10.38791397677223"><ele>166.33333333333331</ele><time>2026-03-29T16:26:07.999Z</time></trkpt><trkpt lat="45.52787829588431" lon="10.387639270022936"><ele>165.66666666666666</ele><time>2026-03-29T16:26:08.999Z</time></trkpt><trkpt lat="45.527802837918564" lon="10.387379741533335"><ele>165.0</ele><time>2026-03-29T16:26:09.999Z</time></trkpt><trkpt lat="45.52773003378451" lon="10.38714504683929"><ele>165.0</ele><time>2026-03-29T16:26:10.999Z</time></trkpt><trkpt lat="45.52765312531484" lon="10.386910029900415"><ele>165.0</ele><time>2026-03-29T16:26:11.999Z</time></trkpt><trkpt lat="45.527581404078376" lon="10.386673465302685"><ele>165.0</ele><time>2026-03-29T16:26:12.999Z</time></trkpt><trkpt lat="45.52751139543264" lon="10.386436153914012"><ele>165.0</ele><time>2026-03-29T16:26:13.999Z</time></trkpt><trkpt lat="45.52743940432682" lon="10.386204786095082"><ele>165.0</ele><time>2026-03-29T16:26:14.999Z</time></trkpt><trkpt lat="45.52736317121871" lon="10.385972700798979"><ele>165.0</ele><time>2026-03-29T16:26:15.999Z</time></trkpt><trkpt lat="45.52728956483357" lon="10.385740165685004"><ele>165.66666666666666</ele><time>2026-03-29T16:26:16.999Z</time></trkpt><trkpt lat="45.5272126276386" lon="10.385506802527203"><ele>166.33333333333331</ele><time>2026-03-29T16:26:17.999Z</time></trkpt><trkpt lat="45.52715114365997" lon="10.385258520536059"><ele>167.0</ele><time>2026-03-29T16:26:18.999Z</time></trkpt><trkpt lat="45.52706703659621" lon="10.38502819256566"><ele>167.33333333333331</ele><time>2026-03-29T16:26:19.999Z</time></trkpt><trkpt lat="45.526999151407814" lon="10.384791706557518"><ele>167.66666666666666</ele><time>2026-03-29T16:26:20.999Z</time></trkpt><trkpt lat="45.52692732528757" lon="10.384556147007252"><ele>168.0</ele><time>2026-03-29T16:26:21.999Z</time></trkpt><trkpt lat="45.526856059467136" lon="10.384320289760366"><ele>168.0</ele><time>2026-03-29T16:26:22.999Z</time></trkpt><trkpt lat="45.52678501131971" lon="10.384087137028349"><ele>168.0</ele><time>2026-03-29T16:26:23.999Z</time></trkpt><trkpt lat="45.52671190583725" lon="10.383854938036379"><ele>168.0</ele><time>2026-03-29T16:26:24.999Z</time></trkpt><trkpt lat="45.52663397150106" lon="10.383619568571504"><ele>167.33333333333334</ele><time>2026-03-29T16:26:25.999Z</time></trkpt><trkpt lat="45.52656002583104" lon="10.383382528023441"><ele>166.66666666666669</ele><time>2026-03-29T16:26:26.999Z</time></trkpt><trkpt lat="45.52648671599539" lon="10.383138969794675"><ele>166.0</ele><time>2026-03-29T16:26:27.999Z</time></trkpt><trkpt lat="45.526416188985344" lon="10.382918160160413"><ele>166.0</ele><time>2026-03-29T16:26:28.999Z</time></trkpt><trkpt lat="45.5263473362362" lon="10.382710283147503"><ele>166.0</ele><time>2026-03-29T16:26:29.999Z</time></trkpt><trkpt lat="45.5262833232813" lon="10.382520757907143"><ele>166.0</ele><time>2026-03-29T16:26:30.999Z</time></trkpt><trkpt lat="45.52619749120922" lon="10.382313348259972"><ele>165.66666666666669</ele><time>2026-03-29T16:26:31.999Z</time></trkpt><trkpt lat="45.526110801957685" lon="10.38210914739297"><ele>165.33333333333334</ele><time>2026-03-29T16:26:32.999Z</time></trkpt><trkpt lat="45.52602902012895" lon="10.381909206439301"><ele>165.0</ele><time>2026-03-29T16:26:33.999Z</time></trkpt><trkpt lat="45.52593947407845" lon="10.381717878929487"><ele>165.0</ele><time>2026-03-29T16:26:34.999Z</time></trkpt><trkpt lat="45.525850635917514" lon="10.381524174069945"><ele>165.0</ele><time>2026-03-29T16:26:35.999Z</time></trkpt><trkpt lat="45.525761827494755" lon="10.381333432248521"><ele>165.0</ele><time>2026-03-29T16:26:36.999Z</time></trkpt><trkpt lat="45.525670947131886" lon="10.38113052442781"><ele>164.66666666666666</ele><time>2026-03-29T16:26:37.999Z</time></trkpt><trkpt lat="45.525570490977564" lon="10.38091632722015"><ele>164.33333333333331</ele><time>2026-03-29T16:26:38.999Z</time></trkpt><trkpt lat="45.52546398763221" lon="10.380694970201121"><ele>164.0</ele><time>2026-03-29T16:26:39.999Z</time></trkpt><trkpt lat="45.5253609454598" lon="10.380459073944964"><ele>163.33333333333331</ele><time>2026-03-29T16:26:40.999Z</time></trkpt><trkpt lat="45.525257852490824" lon="10.380220728788032"><ele>162.66666666666666</ele><time>2026-03-29T16:26:41.999Z</time></trkpt><trkpt lat="45.52516585554734" lon="10.380010912591557"><ele>162.0</ele><time>2026-03-29T16:26:42.999Z</time></trkpt><trkpt lat="45.52506377126093" lon="10.379801209079304"><ele>162.33333333333334</ele><time>2026-03-29T16:26:43.999Z</time></trkpt><trkpt lat="45.524961771990995" lon="10.379563821342753"><ele>162.66666666666669</ele><time>2026-03-29T16:26:44.999Z</time></trkpt><trkpt lat="45.52485470261371" lon="10.379318169176338"><ele>163.0</ele><time>2026-03-29T16:26:45.999Z</time></trkpt><trkpt lat="45.52474170310072" lon="10.379065364971256"><ele>163.0</ele><time>2026-03-29T16:26:46.999Z</time></trkpt><trkpt lat="45.52462377194717" lon="10.37881628608572"><ele>163.0</ele><time>2026-03-29T16:26:47.999Z</time></trkpt><trkpt lat="45.52451727071373" lon="10.378577733170566"><ele>163.0</ele><time>2026-03-29T16:26:48.999Z</time></trkpt><trkpt lat="45.524424350081354" lon="10.378355599963276"><ele>162.33333333333334</ele><time>2026-03-29T16:26:49.999Z</time></trkpt><trkpt lat="45.52432694034377" lon="10.378137207231433"><ele>161.66666666666666</ele><time>2026-03-29T16:26:50.999Z</time></trkpt><trkpt lat="45.524227625106526" lon="10.377925227064923"><ele>161.0</ele><time>2026-03-29T16:26:51.999Z</time></trkpt><trkpt lat="45.52413230950733" lon="10.377711688962458"><ele>161.0</ele><time>2026-03-29T16:26:52.999Z</time></trkpt><trkpt lat="45.524042394135506" lon="10.377491129241475"><ele>161.0</ele><time>2026-03-29T16:26:53.999Z</time></trkpt><trkpt lat="45.52395023384078" lon="10.377275934540872"><ele>161.0</ele><time>2026-03-29T16:26:54.999Z</time></trkpt><trkpt lat="45.5238469757745" lon="10.377065045829163"><ele>161.0</ele><time>2026-03-29T16:26:55.999Z</time></trkpt><trkpt lat="45.52375798640285" lon="10.37686392899817"><ele>161.0</ele><time>2026-03-29T16:26:56.999Z</time></trkpt><trkpt lat="45.52367351685141" lon="10.376667470090586"><ele>161.0</ele><time>2026-03-29T16:26:57.999Z</time></trkpt><trkpt lat="45.523587135307544" lon="10.37646743729122"><ele>161.66666666666666</ele><time>2026-03-29T16:26:58.999Z</time></trkpt><trkpt lat="45.52349643573042" lon="10.37626529177865"><ele>162.33333333333334</ele><time>2026-03-29T16:27:00Z</time></trkpt><trkpt lat="45.52340856092339" lon="10.376061429019423"><ele>163.0</ele><time>2026-03-29T16:27:01Z</time></trkpt><trkpt lat="45.52331557664074" lon="10.375854811465206"><ele>163.0</ele><time>2026-03-29T16:27:02Z</time></trkpt><trkpt lat="45.523222892293425" lon="10.375643298343585"><ele>163.0</ele><time>2026-03-29T16:27:03Z</time></trkpt><trkpt lat="45.52312958954763" lon="10.375429251466429"><ele>163.0</ele><time>2026-03-29T16:27:04Z</time></trkpt><trkpt lat="45.52303474985515" lon="10.375211658294454"><ele>163.0</ele><time>2026-03-29T16:27:05Z</time></trkpt><trkpt lat="45.52293482353198" lon="10.374991037033928"><ele>163.0</ele><time>2026-03-29T16:27:06Z</time></trkpt><trkpt lat="45.52284796596086" lon="10.374781809379773"><ele>163.0</ele><time>2026-03-29T16:27:07Z</time></trkpt><trkpt lat="45.522762280627106" lon="10.374585359832913"><ele>162.33333333333334</ele><time>2026-03-29T16:27:08Z</time></trkpt><trkpt lat="45.52267170477178" lon="10.374388156057966"><ele>161.66666666666666</ele><time>2026-03-29T16:27:09Z</time></trkpt><trkpt lat="45.52258229111454" lon="10.374190414313222"><ele>161.0</ele><time>2026-03-29T16:27:10Z</time></trkpt><trkpt lat="45.522481574617494" lon="10.37399091105172"><ele>161.33333333333331</ele><time>2026-03-29T16:27:11Z</time></trkpt><trkpt lat="45.5223750748755" lon="10.373815876013625"><ele>161.66666666666666</ele><time>2026-03-29T16:27:12Z</time></trkpt><trkpt lat="45.52226768050979" lon="10.373649908620798"><ele>162.0</ele><time>2026-03-29T16:27:13Z</time></trkpt><trkpt lat="45.522157520465385" lon="10.373483666828944"><ele>162.0</ele><time>2026-03-29T16:27:14Z</time></trkpt><trkpt lat="45.522045027653334" lon="10.373313345532058"><ele>162.0</ele><time>2026-03-29T16:27:15Z</time></trkpt><trkpt lat="45.521927946812575" lon="10.373141946289206"><ele>162.0</ele><time>2026-03-29T16:27:16Z</time></trkpt><trkpt lat="45.5218173536099" lon="10.372962617032897"><ele>161.0</ele><time>2026-03-29T16:27:17Z</time></trkpt><trkpt lat="45.52170479757365" lon="10.372777680065612"><ele>160.0</ele><time>2026-03-29T16:27:18Z</time></trkpt><trkpt lat="45.521586077062054" lon="10.372595962440544"><ele>159.0</ele><time>2026-03-29T16:27:19Z</time></trkpt><trkpt lat="45.52147099061023" lon="10.372410994248595"><ele>159.0</ele><time>2026-03-29T16:27:20Z</time></trkpt><trkpt lat="45.521354259733975" lon="10.372224518241092"><ele>159.0</ele><time>2026-03-29T16:27:21Z</time></trkpt><trkpt lat="45.52123988897056" lon="10.372039969269489"><ele>159.0</ele><time>2026-03-29T16:27:22Z</time></trkpt><trkpt lat="45.52112299282078" lon="10.371857890245199"><ele>159.0</ele><time>2026-03-29T16:27:23Z</time></trkpt><trkpt lat="45.521007329250075" lon="10.371678579054242"><ele>159.0</ele><time>2026-03-29T16:27:24Z</time></trkpt><trkpt lat="45.52088851842355" lon="10.371503034767027"><ele>159.0</ele><time>2026-03-29T16:27:25Z</time></trkpt><trkpt lat="45.52078392641046" lon="10.371334183156307"><ele>159.0</ele><time>2026-03-29T16:27:26Z</time></trkpt><trkpt lat="45.52068174738237" lon="10.371179537962075"><ele>159.0</ele><time>2026-03-29T16:27:27Z</time></trkpt><trkpt lat="45.520583618675836" lon="10.371026647583937"><ele>159.0</ele><time>2026-03-29T16:27:28Z</time></trkpt><trkpt lat="45.52048638515761" lon="10.370879631775239"><ele>159.0</ele><time>2026-03-29T16:27:29Z</time></trkpt><trkpt lat="45.52040134981958" lon="10.370743583874592"><ele>158.75</ele><time>2026-03-29T16:27:30Z</time></trkpt><trkpt lat="45.52030946539967" lon="10.370607064523158"><ele>158.5</ele><time>2026-03-29T16:27:31Z</time></trkpt><trkpt lat="45.52021513652171" lon="10.370456806932973"><ele>158.25</ele><time>2026-03-29T16:27:32Z</time></trkpt><trkpt lat="45.52012197327093" lon="10.370301734235776"><ele>158.0</ele><time>2026-03-29T16:27:33Z</time></trkpt><trkpt lat="45.520027020725685" lon="10.37014498342798"><ele>157.75</ele><time>2026-03-29T16:27:34Z</time></trkpt><trkpt lat="45.51993059720524" lon="10.369994992123635"><ele>157.5</ele><time>2026-03-29T16:27:35Z</time></trkpt><trkpt lat="45.519839043095324" lon="10.369854024871836"><ele>157.25</ele><time>2026-03-29T16:27:36Z</time></trkpt><trkpt lat="45.519740374443096" lon="10.369708969258154"><ele>157.0</ele><time>2026-03-29T16:27:37Z</time></trkpt><trkpt lat="45.51964010922077" lon="10.369553886927633"><ele>157.66666666666669</ele><time>2026-03-29T16:27:38Z</time></trkpt><trkpt lat="45.519537097166484" lon="10.369387764660994"><ele>158.33333333333334</ele><time>2026-03-29T16:27:39Z</time></trkpt><trkpt lat="45.51942194832191" lon="10.369215279371028"><ele>159.0</ele><time>2026-03-29T16:27:40Z</time></trkpt><trkpt lat="45.51930508284289" lon="10.369030635424744"><ele>158.66666666666666</ele><time>2026-03-29T16:27:41Z</time></trkpt><trkpt lat="45.519181437364594" lon="10.368842097927626"><ele>158.33333333333331</ele><time>2026-03-29T16:27:42Z</time></trkpt><trkpt lat="45.51907339011121" lon="10.368670382137287"><ele>158.0</ele><time>2026-03-29T16:27:43Z</time></trkpt><trkpt lat="45.51897302170699" lon="10.368522607909828"><ele>158.0</ele><time>2026-03-29T16:27:44Z</time></trkpt><trkpt lat="45.518869596553074" lon="10.368376958987986"><ele>158.0</ele><time>2026-03-29T16:27:45Z</time></trkpt><trkpt lat="45.51875490061182" lon="10.36821629602854"><ele>158.0</ele><time>2026-03-29T16:27:46Z</time></trkpt><trkpt lat="45.51863162288293" lon="10.36804377763949"><ele>157.66666666666666</ele><time>2026-03-29T16:27:47Z</time></trkpt><trkpt lat="45.518506228586034" lon="10.367883721979517"><ele>157.33333333333334</ele><time>2026-03-29T16:27:48Z</time></trkpt><trkpt lat="45.51838776695978" lon="10.367736648600454"><ele>157.0</ele><time>2026-03-29T16:27:49Z</time></trkpt><trkpt lat="45.51825429667345" lon="10.367589180082154"><ele>157.0</ele><time>2026-03-29T16:27:50Z</time></trkpt><trkpt lat="45.51810329986751" lon="10.367418866612434"><ele>157.0</ele><time>2026-03-29T16:27:51Z</time></trkpt><trkpt lat="45.51793961145038" lon="10.367230966412015"><ele>157.0</ele><time>2026-03-29T16:27:52Z</time></trkpt><trkpt lat="45.517783470049594" lon="10.367064444384718"><ele>157.0</ele><time>2026-03-29T16:27:53Z</time></trkpt><trkpt lat="45.51762525603406" lon="10.366919569366766"><ele>157.0</ele><time>2026-03-29T16:27:54Z</time></trkpt><trkpt lat="45.51747022393913" lon="10.36676055647109"><ele>157.0</ele><time>2026-03-29T16:27:55Z</time></trkpt><trkpt lat="45.517312760388585" lon="10.366605730704594"><ele>157.0</ele><time>2026-03-29T16:27:56Z</time></trkpt><trkpt lat="45.517156125430674" lon="10.366457271050008"><ele>157.0</ele><time>2026-03-29T16:27:57Z</time></trkpt><trkpt lat="45.51701617694517" lon="10.366316965238376"><ele>157.0</ele><time>2026-03-29T16:27:58Z</time></trkpt><trkpt lat="45.516876478062" lon="10.366178362220621"><ele>157.0</ele><time>2026-03-29T16:27:59Z</time></trkpt><trkpt lat="45.516736990555025" lon="10.366041287205453"><ele>157.0</ele><time>2026-03-29T16:28:00Z</time></trkpt><trkpt lat="45.51659987491707" lon="10.36590738672415"><ele>157.0</ele><time>2026-03-29T16:28:01Z</time></trkpt><trkpt lat="45.51646736246262" lon="10.365773975774236"><ele>157.0</ele><time>2026-03-29T16:28:02Z</time></trkpt><trkpt lat="45.51633649556103" lon="10.36563518061167"><ele>157.0</ele><time>2026-03-29T16:28:03Z</time></trkpt><trkpt lat="45.51620238359664" lon="10.365500218414981"><ele>157.0</ele><time>2026-03-29T16:28:04Z</time></trkpt><trkpt lat="45.51606927258084" lon="10.365365493515773"><ele>157.0</ele><time>2026-03-29T16:28:05Z</time></trkpt><trkpt lat="45.51593793369401" lon="10.365229067661339"><ele>157.0</ele><time>2026-03-29T16:28:05.999Z</time></trkpt><trkpt lat="45.515806653151685" lon="10.365095026847989"><ele>157.0</ele><time>2026-03-29T16:28:06.999Z</time></trkpt><trkpt lat="45.515668678858034" lon="10.364960876765855"><ele>157.0</ele><time>2026-03-29T16:28:07.999Z</time></trkpt><trkpt lat="45.5155353300465" lon="10.364832920003774"><ele>157.0</ele><time>2026-03-29T16:28:08.999Z</time></trkpt><trkpt lat="45.51540422781135" lon="10.364701427846637"><ele>157.0</ele><time>2026-03-29T16:28:09.999Z</time></trkpt><trkpt lat="45.51528305447384" lon="10.364581948884549"><ele>156.75</ele><time>2026-03-29T16:28:10.999Z</time></trkpt><trkpt lat="45.51517495069882" lon="10.364468723193175"><ele>156.5</ele><time>2026-03-29T16:28:11.999Z</time></trkpt><trkpt lat="45.51507640065034" lon="10.364371313910619"><ele>156.25</ele><time>2026-03-29T16:28:12.999Z</time></trkpt><trkpt lat="45.51498336869236" lon="10.36427345277138"><ele>156.0</ele><time>2026-03-29T16:28:13.999Z</time></trkpt><trkpt lat="45.514891340857346" lon="10.364167957766208"><ele>156.0</ele><time>2026-03-29T16:28:14.999Z</time></trkpt><trkpt lat="45.514793970677786" lon="10.364062111922244"><ele>156.0</ele><time>2026-03-29T16:28:15.999Z</time></trkpt><trkpt lat="45.51470381385615" lon="10.363945335794305"><ele>156.0</ele><time>2026-03-29T16:28:16.999Z</time></trkpt><trkpt lat="45.514615985905145" lon="10.363826147579974"><ele>156.0</ele><time>2026-03-29T16:28:17.999Z</time></trkpt><trkpt lat="45.51453188590975" lon="10.363705790689732"><ele>155.8</ele><time>2026-03-29T16:28:18.999Z</time></trkpt><trkpt lat="45.51444802458216" lon="10.363587179863679"><ele>155.6</ele><time>2026-03-29T16:28:19.999Z</time></trkpt><trkpt lat="45.51437047090114" lon="10.36345521768151"><ele>155.4</ele><time>2026-03-29T16:28:20.999Z</time></trkpt><trkpt lat="45.51430556740882" lon="10.36333750172485"><ele>155.2</ele><time>2026-03-29T16:28:21.999Z</time></trkpt><trkpt lat="45.51425585658999" lon="10.363221571567047"><ele>155.0</ele><time>2026-03-29T16:28:22.999Z</time></trkpt><trkpt lat="45.5142068294891" lon="10.363120373847497"><ele>155.4</ele><time>2026-03-29T16:28:23.999Z</time></trkpt><trkpt lat="45.514162912176666" lon="10.363025574846839"><ele>155.8</ele><time>2026-03-29T16:28:24.999Z</time></trkpt><trkpt lat="45.5141249478834" lon="10.362920459785384"><ele>156.2</ele><time>2026-03-29T16:28:25.999Z</time></trkpt><trkpt lat="45.51407883126387" lon="10.362817250764708"><ele>156.6</ele><time>2026-03-29T16:28:26.999Z</time></trkpt><trkpt lat="45.514030997381816" lon="10.362695733991396"><ele>157.0</ele><time>2026-03-29T16:28:27.999Z</time></trkpt><trkpt lat="45.51398215071697" lon="10.362560756065754"><ele>157.0</ele><time>2026-03-29T16:28:28.999Z</time></trkpt><trkpt lat="45.513942910791364" lon="10.362443186440382"><ele>157.0</ele><time>2026-03-29T16:28:29.999Z</time></trkpt><trkpt lat="45.513912764466305" lon="10.362334743143778"><ele>157.0</ele><time>2026-03-29T16:28:30.999Z</time></trkpt><trkpt lat="45.513885551211416" lon="10.362234736393392"><ele>157.0</ele><time>2026-03-29T16:28:31.999Z</time></trkpt><trkpt lat="45.51383849283258" lon="10.362067801389903"><ele>157.0</ele><time>2026-03-29T16:28:33.999Z</time></trkpt><trkpt lat="45.51380989272904" lon="10.361954818747638"><ele>157.2</ele><time>2026-03-29T16:28:34.999Z</time></trkpt><trkpt lat="45.51378532960966" lon="10.361828079161732"><ele>157.39999999999998</ele><time>2026-03-29T16:28:35.999Z</time></trkpt><trkpt lat="45.51376132263991" lon="10.361688470477091"><ele>157.60000000000002</ele><time>2026-03-29T16:28:36.999Z</time></trkpt><trkpt lat="45.513744315147726" lon="10.361543336480182"><ele>157.8</ele><time>2026-03-29T16:28:37.999Z</time></trkpt><trkpt lat="45.513727120254245" lon="10.361401599894391"><ele>158.0</ele><time>2026-03-29T16:28:38.999Z</time></trkpt><trkpt lat="45.51371415526367" lon="10.3612978080705"><ele>157.0</ele><time>2026-03-29T16:28:39.999Z</time></trkpt><trkpt lat="45.513692630491974" lon="10.361131397187544"><ele>156.0</ele><time>2026-03-29T16:28:41.999Z</time></trkpt><trkpt lat="45.5136873186071" lon="10.36103157097545"><ele>155.0</ele><time>2026-03-29T16:28:42.999Z</time></trkpt><trkpt lat="45.51367899672211" lon="10.360908815077698"><ele>154.0</ele><time>2026-03-29T16:28:43.999Z</time></trkpt><trkpt lat="45.513664050629316" lon="10.360771928374948"><ele>153.0</ele><time>2026-03-29T16:28:44.999Z</time></trkpt><trkpt lat="45.51364887600272" lon="10.360620951371915"><ele>152.5</ele><time>2026-03-29T16:28:45.999Z</time></trkpt><trkpt lat="45.51362978110525" lon="10.360460769946199"><ele>152.0</ele><time>2026-03-29T16:28:46.999Z</time></trkpt><trkpt lat="45.51361248214432" lon="10.360291126963451"><ele>151.5</ele><time>2026-03-29T16:28:47.999Z</time></trkpt><trkpt lat="45.51359580947691" lon="10.360113198449218"><ele>151.0</ele><time>2026-03-29T16:28:48.999Z</time></trkpt><trkpt lat="45.513575783250324" lon="10.359934367793231"><ele>151.0</ele><time>2026-03-29T16:28:49.999Z</time></trkpt><trkpt lat="45.51355516689924" lon="10.359752578972579"><ele>151.0</ele><time>2026-03-29T16:28:50.999Z</time></trkpt><trkpt lat="45.513536586632355" lon="10.359558891326486"><ele>151.0</ele><time>2026-03-29T16:28:51.999Z</time></trkpt><trkpt lat="45.513517549130555" lon="10.359369437881297"><ele>151.0</ele><time>2026-03-29T16:28:52.999Z</time></trkpt><trkpt lat="45.513501933132304" lon="10.359185414332336"><ele>151.5</ele><time>2026-03-29T16:28:53.999Z</time></trkpt><trkpt lat="45.513481057176136" lon="10.358998932117881"><ele>152.0</ele><time>2026-03-29T16:28:54.999Z</time></trkpt><trkpt lat="45.51346134329077" lon="10.358802047528124"><ele>152.5</ele><time>2026-03-29T16:28:55.999Z</time></trkpt><trkpt lat="45.51343842127257" lon="10.358605317419372"><ele>153.0</ele><time>2026-03-29T16:28:56.999Z</time></trkpt><trkpt lat="45.51342151523838" lon="10.35841951528844"><ele>153.0</ele><time>2026-03-29T16:28:57.999Z</time></trkpt><trkpt lat="45.513407954878765" lon="10.358255139527028"><ele>153.0</ele><time>2026-03-29T16:28:58.999Z</time></trkpt><trkpt lat="45.513393414260875" lon="10.35811341444536"><ele>153.0</ele><time>2026-03-29T16:28:59.999Z</time></trkpt><trkpt lat="45.513379607647295" lon="10.35798011155093"><ele>153.0</ele><time>2026-03-29T16:29:00.999Z</time></trkpt><trkpt lat="45.51336711661774" lon="10.35784096664127"><ele>153.0</ele><time>2026-03-29T16:29:01.999Z</time></trkpt><trkpt lat="45.51335291076008" lon="10.357700346171418"><ele>153.0</ele><time>2026-03-29T16:29:02.999Z</time></trkpt><trkpt lat="45.51334135301723" lon="10.357578410620581"><ele>153.0</ele><time>2026-03-29T16:29:03.999Z</time></trkpt><trkpt lat="45.513331763928385" lon="10.357468400053069"><ele>153.0</ele><time>2026-03-29T16:29:04.999Z</time></trkpt><trkpt lat="45.513317654034445" lon="10.357342294727951"><ele>153.0</ele><time>2026-03-29T16:29:06Z</time></trkpt><trkpt lat="45.51329857752713" lon="10.357192075727088"><ele>153.0</ele><time>2026-03-29T16:29:07Z</time></trkpt><trkpt lat="45.51328256562669" lon="10.357007061752848"><ele>153.0</ele><time>2026-03-29T16:29:08Z</time></trkpt><trkpt lat="45.51326588123559" lon="10.356813094848468"><ele>153.0</ele><time>2026-03-29T16:29:09Z</time></trkpt><trkpt lat="45.51324626428963" lon="10.356602418541545"><ele>153.0</ele><time>2026-03-29T16:29:10Z</time></trkpt><trkpt lat="45.51322784557642" lon="10.356420752263448"><ele>153.0</ele><time>2026-03-29T16:29:11Z</time></trkpt><trkpt lat="45.51320588891277" lon="10.35625896990079"><ele>153.0</ele><time>2026-03-29T16:29:12Z</time></trkpt><trkpt lat="45.51318601916776" lon="10.356110069896022"><ele>153.0</ele><time>2026-03-29T16:29:13Z</time></trkpt><trkpt lat="45.51317007332238" lon="10.355966966077577"><ele>153.0</ele><time>2026-03-29T16:29:14Z</time></trkpt><trkpt lat="45.513150786198686" lon="10.35582385136117"><ele>153.0</ele><time>2026-03-29T16:29:15Z</time></trkpt><trkpt lat="45.51313145532261" lon="10.35568165593522"><ele>153.0</ele><time>2026-03-29T16:29:16Z</time></trkpt><trkpt lat="45.51311162117226" lon="10.355535412509258"><ele>153.4</ele><time>2026-03-29T16:29:17Z</time></trkpt><trkpt lat="45.513089640150056" lon="10.355382555359947"><ele>153.8</ele><time>2026-03-29T16:29:18Z</time></trkpt><trkpt lat="45.5130631823691" lon="10.355227098118116"><ele>154.2</ele><time>2026-03-29T16:29:19Z</time></trkpt><trkpt lat="45.513043100469" lon="10.355065876576045"><ele>154.6</ele><time>2026-03-29T16:29:20Z</time></trkpt><trkpt lat="45.51301703090545" lon="10.354908860735513"><ele>155.0</ele><time>2026-03-29T16:29:21Z</time></trkpt><trkpt lat="45.5129877841195" lon="10.354744653052514"><ele>154.5</ele><time>2026-03-29T16:29:22Z</time></trkpt><trkpt lat="45.51295690721626" lon="10.354564704074688"><ele>154.0</ele><time>2026-03-29T16:29:23Z</time></trkpt><trkpt lat="45.512927626017316" lon="10.354372921238696"><ele>153.5</ele><time>2026-03-29T16:29:24Z</time></trkpt><trkpt lat="45.5128915702033" lon="10.354179067995716"><ele>153.0</ele><time>2026-03-29T16:29:25Z</time></trkpt><trkpt lat="45.512864075942026" lon="10.354001300581304"><ele>152.75</ele><time>2026-03-29T16:29:26Z</time></trkpt><trkpt lat="45.51284040671388" lon="10.35381554892576"><ele>152.5</ele><time>2026-03-29T16:29:27Z</time></trkpt><trkpt lat="45.512811424739674" lon="10.353621978384137"><ele>152.25</ele><time>2026-03-29T16:29:28Z</time></trkpt><trkpt lat="45.51278422769906" lon="10.353429057547118"><ele>152.0</ele><time>2026-03-29T16:29:29Z</time></trkpt><trkpt lat="45.512757127425274" lon="10.35322563183812"><ele>152.0</ele><time>2026-03-29T16:29:30Z</time></trkpt><trkpt lat="45.51272736657574" lon="10.35302287247016"><ele>152.0</ele><time>2026-03-29T16:29:31Z</time></trkpt><trkpt lat="45.51269446019615" lon="10.35281460191698"><ele>152.0</ele><time>2026-03-29T16:29:32Z</time></trkpt><trkpt lat="45.51266389965519" lon="10.352602848935671"><ele>152.0</ele><time>2026-03-29T16:29:33Z</time></trkpt><trkpt lat="45.51263263775555" lon="10.352386261778163"><ele>152.25</ele><time>2026-03-29T16:29:34Z</time></trkpt><trkpt lat="45.512603764191205" lon="10.352178124501481"><ele>152.5</ele><time>2026-03-29T16:29:35Z</time></trkpt><trkpt lat="45.512570682789736" lon="10.351975836552397"><ele>152.75</ele><time>2026-03-29T16:29:36Z</time></trkpt><trkpt lat="45.512536475378866" lon="10.351761571727554"><ele>153.0</ele><time>2026-03-29T16:29:37Z</time></trkpt><trkpt lat="45.51250131734609" lon="10.351538831400719"><ele>153.33333333333334</ele><time>2026-03-29T16:29:38Z</time></trkpt><trkpt lat="45.51247024544734" lon="10.351314279910115"><ele>153.66666666666669</ele><time>2026-03-29T16:29:39Z</time></trkpt><trkpt lat="45.51243834306827" lon="10.351079876990811"><ele>154.0</ele><time>2026-03-29T16:29:40Z</time></trkpt><trkpt lat="45.512405730612926" lon="10.350845167316463"><ele>154.0</ele><time>2026-03-29T16:29:41Z</time></trkpt><trkpt lat="45.51236696393064" lon="10.350606931552996"><ele>154.0</ele><time>2026-03-29T16:29:42Z</time></trkpt><trkpt lat="45.51233356628264" lon="10.35036377881779"><ele>154.0</ele><time>2026-03-29T16:29:43Z</time></trkpt><trkpt lat="45.51229962073464" lon="10.350155861833366"><ele>153.33333333333334</ele><time>2026-03-29T16:29:44Z</time></trkpt><trkpt lat="45.51226467718589" lon="10.349949122525976"><ele>152.66666666666666</ele><time>2026-03-29T16:29:45Z</time></trkpt><trkpt lat="45.512222028120846" lon="10.34973745522148"><ele>152.0</ele><time>2026-03-29T16:29:46Z</time></trkpt><trkpt lat="45.512178837316114" lon="10.349524062765472"><ele>152.0</ele><time>2026-03-29T16:29:47Z</time></trkpt><trkpt lat="45.512135444520254" lon="10.349312691642476"><ele>152.0</ele><time>2026-03-29T16:29:48Z</time></trkpt><trkpt lat="45.51208737066988" lon="10.349098627047733"><ele>152.0</ele><time>2026-03-29T16:29:49Z</time></trkpt><trkpt lat="45.51203335507837" lon="10.348883869011333"><ele>151.0</ele><time>2026-03-29T16:29:50Z</time></trkpt><trkpt lat="45.51197842409884" lon="10.348661447111349"><ele>150.0</ele><time>2026-03-29T16:29:51Z</time></trkpt><trkpt lat="45.511924412191675" lon="10.348433676145591"><ele>149.0</ele><time>2026-03-29T16:29:52Z</time></trkpt><trkpt lat="45.51186287749405" lon="10.348213049625487"><ele>150.0</ele><time>2026-03-29T16:29:53Z</time></trkpt><trkpt lat="45.51179369143601" lon="10.34799387518296"><ele>151.0</ele><time>2026-03-29T16:29:54Z</time></trkpt><trkpt lat="45.5117229280538" lon="10.347778362047439"><ele>152.0</ele><time>2026-03-29T16:29:55Z</time></trkpt><trkpt lat="45.51165621197341" lon="10.347568463939101"><ele>152.0</ele><time>2026-03-29T16:29:56Z</time></trkpt><trkpt lat="45.51158861547815" lon="10.347357071946021"><ele>152.0</ele><time>2026-03-29T16:29:57Z</time></trkpt><trkpt lat="45.511515462504484" lon="10.347152557071311"><ele>152.0</ele><time>2026-03-29T16:29:58Z</time></trkpt><trkpt lat="45.51144300203979" lon="10.346952292448718"><ele>152.25</ele><time>2026-03-29T16:29:59Z</time></trkpt><trkpt lat="45.51137189190318" lon="10.346758679062118"><ele>152.5</ele><time>2026-03-29T16:30:00Z</time></trkpt><trkpt lat="45.51130335502814" lon="10.346581733246994"><ele>152.75</ele><time>2026-03-29T16:30:01Z</time></trkpt><trkpt lat="45.511235078042034" lon="10.346410009218303"><ele>153.0</ele><time>2026-03-29T16:30:02Z</time></trkpt><trkpt lat="45.511171892320334" lon="10.34625107620242"><ele>152.25</ele><time>2026-03-29T16:30:03Z</time></trkpt><trkpt lat="45.51111243683611" lon="10.346106399861686"><ele>151.5</ele><time>2026-03-29T16:30:04Z</time></trkpt><trkpt lat="45.5110549838404" lon="10.345956842121675"><ele>150.75</ele><time>2026-03-29T16:30:05Z</time></trkpt><trkpt lat="45.51099308343369" lon="10.345805141462344"><ele>150.0</ele><time>2026-03-29T16:30:06Z</time></trkpt><trkpt lat="45.5109257942981" lon="10.345645245382004"><ele>150.25</ele><time>2026-03-29T16:30:07Z</time></trkpt><trkpt lat="45.5108593060355" lon="10.345479385364232"><ele>150.5</ele><time>2026-03-29T16:30:08Z</time></trkpt><trkpt lat="45.51079375343104" lon="10.345317567992861"><ele>150.75</ele><time>2026-03-29T16:30:09Z</time></trkpt><trkpt lat="45.510727126616544" lon="10.345163442372371"><ele>151.0</ele><time>2026-03-29T16:30:10Z</time></trkpt><trkpt lat="45.51066651990755" lon="10.345009534701381"><ele>151.0</ele><time>2026-03-29T16:30:11Z</time></trkpt><trkpt lat="45.510602111232444" lon="10.3448637445529"><ele>151.0</ele><time>2026-03-29T16:30:12Z</time></trkpt><trkpt lat="45.51054231292025" lon="10.344713701452562"><ele>151.0</ele><time>2026-03-29T16:30:13Z</time></trkpt><trkpt lat="45.51048529361915" lon="10.344567702891005"><ele>151.0</ele><time>2026-03-29T16:30:14Z</time></trkpt><trkpt lat="45.5104340723782" lon="10.344440657062554"><ele>151.0</ele><time>2026-03-29T16:30:15Z</time></trkpt><trkpt lat="45.51038355516024" lon="10.344317609704229"><ele>151.0</ele><time>2026-03-29T16:30:16Z</time></trkpt><trkpt lat="45.51033316034485" lon="10.344183079767717"><ele>151.0</ele><time>2026-03-29T16:30:17Z</time></trkpt><trkpt lat="45.51028418592233" lon="10.344060591525151"><ele>151.0</ele><time>2026-03-29T16:30:17.999Z</time></trkpt><trkpt lat="45.5102354669626" lon="10.34395993609092"><ele>151.0</ele><time>2026-03-29T16:30:18.999Z</time></trkpt><trkpt lat="45.51019702143312" lon="10.343865739157618"><ele>150.8</ele><time>2026-03-29T16:30:19.999Z</time></trkpt><trkpt lat="45.51017061609644" lon="10.343774989203864"><ele>150.6</ele><time>2026-03-29T16:30:20.999Z</time></trkpt><trkpt lat="45.510099714907504" lon="10.343609393276445"><ele>150.4</ele><time>2026-03-29T16:30:22.999Z</time></trkpt><trkpt lat="45.51004791614174" lon="10.34347392778445"><ele>150.2</ele><time>2026-03-29T16:30:23.999Z</time></trkpt><trkpt lat="45.50997601355699" lon="10.343315788737632"><ele>150.0</ele><time>2026-03-29T16:30:24.999Z</time></trkpt><trkpt lat="45.50990308928382" lon="10.343145770617651"><ele>150.0</ele><time>2026-03-29T16:30:25.999Z</time></trkpt><trkpt lat="45.509832854605044" lon="10.34297670101594"><ele>150.0</ele><time>2026-03-29T16:30:26.999Z</time></trkpt><trkpt lat="45.50974578692085" lon="10.342808981038733"><ele>150.0</ele><time>2026-03-29T16:30:27.999Z</time></trkpt><trkpt lat="45.509654832462175" lon="10.342636129582125"><ele>150.0</ele><time>2026-03-29T16:30:28.999Z</time></trkpt><trkpt lat="45.50955595175897" lon="10.342456587008778"><ele>150.0</ele><time>2026-03-29T16:30:29.999Z</time></trkpt><trkpt lat="45.50944588113794" lon="10.342265864459735"><ele>150.0</ele><time>2026-03-29T16:30:30.999Z</time></trkpt><trkpt lat="45.50932257522648" lon="10.342066773232704"><ele>150.0</ele><time>2026-03-29T16:30:31.999Z</time></trkpt><trkpt lat="45.509191814561575" lon="10.341869937415991"><ele>149.33333333333334</ele><time>2026-03-29T16:30:32.999Z</time></trkpt><trkpt lat="45.50905218312236" lon="10.34168148864076"><ele>148.66666666666669</ele><time>2026-03-29T16:30:33.999Z</time></trkpt><trkpt lat="45.50892681929731" lon="10.341520982841246"><ele>148.0</ele><time>2026-03-29T16:30:34.999Z</time></trkpt><trkpt lat="45.50880107627283" lon="10.341382589910815"><ele>147.25</ele><time>2026-03-29T16:30:35.999Z</time></trkpt><trkpt lat="45.50868630530083" lon="10.34125314405608"><ele>146.5</ele><time>2026-03-29T16:30:36.999Z</time></trkpt><trkpt lat="45.5085821449875" lon="10.341136820830569"><ele>145.75</ele><time>2026-03-29T16:30:37.999Z</time></trkpt><trkpt lat="45.50848935421461" lon="10.341027930807321"><ele>145.0</ele><time>2026-03-29T16:30:38.999Z</time></trkpt><trkpt lat="45.508397841479805" lon="10.34094003676288"><ele>145.0</ele><time>2026-03-29T16:30:39.999Z</time></trkpt><trkpt lat="45.50830009616786" lon="10.340840856215856"><ele>145.0</ele><time>2026-03-29T16:30:40.999Z</time></trkpt><trkpt lat="45.50820064464663" lon="10.340738265030284"><ele>145.0</ele><time>2026-03-29T16:30:41.999Z</time></trkpt><trkpt lat="45.508098536194076" lon="10.340642889963933"><ele>145.0</ele><time>2026-03-29T16:30:42.999Z</time></trkpt><trkpt lat="45.50799492325011" lon="10.340547210270556"><ele>146.2</ele><time>2026-03-29T16:30:43.999Z</time></trkpt><trkpt lat="45.50790499319134" lon="10.340456284603828"><ele>147.4</ele><time>2026-03-29T16:30:44.999Z</time></trkpt><trkpt lat="45.507816402019586" lon="10.340374109995077"><ele>148.6</ele><time>2026-03-29T16:30:45.999Z</time></trkpt><trkpt lat="45.507720168931904" lon="10.340285436331971"><ele>149.8</ele><time>2026-03-29T16:30:46.999Z</time></trkpt><trkpt lat="45.507622836626254" lon="10.340197509597417"><ele>151.0</ele><time>2026-03-29T16:30:47.999Z</time></trkpt><trkpt lat="45.50752316077082" lon="10.340105415712227"><ele>151.0</ele><time>2026-03-29T16:30:48.999Z</time></trkpt><trkpt lat="45.50741799161873" lon="10.340009972169886"><ele>151.0</ele><time>2026-03-29T16:30:49.999Z</time></trkpt><trkpt lat="45.507303863384635" lon="10.339903988128059"><ele>151.0</ele><time>2026-03-29T16:30:50.999Z</time></trkpt><trkpt lat="45.50717943023806" lon="10.339784304670673"><ele>151.0</ele><time>2026-03-29T16:30:51.999Z</time></trkpt><trkpt lat="45.50705348882728" lon="10.339640912165537"><ele>150.0</ele><time>2026-03-29T16:30:52.999Z</time></trkpt><trkpt lat="45.50694651399476" lon="10.33951004377726"><ele>149.0</ele><time>2026-03-29T16:30:53.999Z</time></trkpt><trkpt lat="45.50684663533051" lon="10.339410887772704"><ele>148.0</ele><time>2026-03-29T16:30:54.999Z</time></trkpt><trkpt lat="45.50674855283684" lon="10.339324361665847"><ele>147.0</ele><time>2026-03-29T16:30:55.999Z</time></trkpt><trkpt lat="45.50664796104202" lon="10.339225583274022"><ele>147.0</ele><time>2026-03-29T16:30:56.999Z</time></trkpt><trkpt lat="45.506547360489634" lon="10.339109680334401"><ele>147.0</ele><time>2026-03-29T16:30:57.999Z</time></trkpt><trkpt lat="45.50645125649185" lon="10.338986480579948"><ele>147.0</ele><time>2026-03-29T16:30:58.999Z</time></trkpt><trkpt lat="45.50635216939086" lon="10.338856279537753"><ele>147.0</ele><time>2026-03-29T16:30:59.999Z</time></trkpt><trkpt lat="45.50625093737481" lon="10.338723810649892"><ele>147.25</ele><time>2026-03-29T16:31:00.999Z</time></trkpt><trkpt lat="45.50615200391313" lon="10.338597904272712"><ele>147.5</ele><time>2026-03-29T16:31:01.999Z</time></trkpt><trkpt lat="45.506066510659295" lon="10.338488188243156"><ele>147.75</ele><time>2026-03-29T16:31:02.999Z</time></trkpt><trkpt lat="45.50599080195993" lon="10.33838821999777"><ele>148.0</ele><time>2026-03-29T16:31:03.999Z</time></trkpt><trkpt lat="45.50591142389831" lon="10.338290797290961"><ele>148.0</ele><time>2026-03-29T16:31:04.999Z</time></trkpt><trkpt lat="45.50583520633976" lon="10.338196006594815"><ele>148.0</ele><time>2026-03-29T16:31:05.999Z</time></trkpt><trkpt lat="45.50576160071787" lon="10.338106520617863"><ele>148.0</ele><time>2026-03-29T16:31:06.999Z</time></trkpt><trkpt lat="45.50569377774615" lon="10.338025320911951"><ele>148.0</ele><time>2026-03-29T16:31:07.999Z</time></trkpt><trkpt lat="45.50562202723867" lon="10.337949560871442"><ele>148.0</ele><time>2026-03-29T16:31:08.999Z</time></trkpt><trkpt lat="45.5055497848354" lon="10.337868524626632"><ele>148.0</ele><time>2026-03-29T16:31:09.999Z</time></trkpt><trkpt lat="45.505479477436424" lon="10.337792838836053"><ele>148.0</ele><time>2026-03-29T16:31:10.999Z</time></trkpt><trkpt lat="45.50541723808526" lon="10.337731929664912"><ele>148.0</ele><time>2026-03-29T16:31:12Z</time></trkpt><trkpt lat="45.50536638099021" lon="10.337676084071482"><ele>148.0</ele><time>2026-03-29T16:31:13Z</time></trkpt><trkpt lat="45.50528733142226" lon="10.337580123277704"><ele>148.0</ele><time>2026-03-29T16:31:15Z</time></trkpt><trkpt lat="45.50525537697747" lon="10.337481267130924"><ele>148.0</ele><time>2026-03-29T16:31:17Z</time></trkpt><trkpt lat="45.505238810809615" lon="10.337378170798512"><ele>148.0</ele><time>2026-03-29T16:31:20Z</time></trkpt><trkpt lat="45.50522898142022" lon="10.337264053975106"><ele>148.0</ele><time>2026-03-29T16:31:22Z</time></trkpt><trkpt lat="45.50523542907106" lon="10.337095523971263"><ele>148.0</ele><time>2026-03-29T16:31:24Z</time></trkpt><trkpt lat="45.50521449673534" lon="10.336937922017427"><ele>148.0</ele><time>2026-03-29T16:31:26Z</time></trkpt><trkpt lat="45.5051427850086" lon="10.336926481988748"><ele>148.0</ele><time>2026-03-29T16:31:27Z</time></trkpt><trkpt lat="45.5050299488716" lon="10.33693839162934"><ele>147.8</ele><time>2026-03-29T16:31:29Z</time></trkpt><trkpt lat="45.50494680576159" lon="10.33698172974341"><ele>147.60000000000002</ele><time>2026-03-29T16:31:30Z</time></trkpt><trkpt lat="45.50484242502994" lon="10.337021678838845"><ele>147.39999999999998</ele><time>2026-03-29T16:31:31Z</time></trkpt><trkpt lat="45.50473819640185" lon="10.33704240369561"><ele>147.2</ele><time>2026-03-29T16:31:32Z</time></trkpt><trkpt lat="45.504630009380456" lon="10.337022536665518"><ele>147.0</ele><time>2026-03-29T16:31:33Z</time></trkpt><trkpt lat="45.504515944697836" lon="10.336963469195934"><ele>146.75</ele><time>2026-03-29T16:31:34Z</time></trkpt><trkpt lat="45.504403682959556" lon="10.336881981592944"><ele>146.5</ele><time>2026-03-29T16:31:35Z</time></trkpt><trkpt lat="45.504279783551375" lon="10.336786457375611"><ele>146.25</ele><time>2026-03-29T16:31:36Z</time></trkpt><trkpt lat="45.50413817731803" lon="10.336681621735963"><ele>146.0</ele><time>2026-03-29T16:31:37Z</time></trkpt><trkpt lat="45.50400005529842" lon="10.336584685105196"><ele>146.0</ele><time>2026-03-29T16:31:38Z</time></trkpt><trkpt lat="45.50388625315399" lon="10.336500241560456"><ele>146.0</ele><time>2026-03-29T16:31:39Z</time></trkpt><trkpt lat="45.503777326348754" lon="10.336424425062818"><ele>146.0</ele><time>2026-03-29T16:31:40Z</time></trkpt><trkpt lat="45.50367633711832" lon="10.336351081077114"><ele>146.0</ele><time>2026-03-29T16:31:41Z</time></trkpt><trkpt lat="45.503581633078184" lon="10.336290438010977"><ele>146.0</ele><time>2026-03-29T16:31:42Z</time></trkpt><trkpt lat="45.50349975982386" lon="10.33623299533834"><ele>146.0</ele><time>2026-03-29T16:31:43Z</time></trkpt><trkpt lat="45.503430425862334" lon="10.336178384962933"><ele>146.0</ele><time>2026-03-29T16:31:44Z</time></trkpt><trkpt lat="45.503372731695656" lon="10.336132697812953"><ele>146.0</ele><time>2026-03-29T16:31:45Z</time></trkpt><trkpt lat="45.50327240852121" lon="10.336078239775896"><ele>146.0</ele><time>2026-03-29T16:31:47Z</time></trkpt><trkpt lat="45.50317070484008" lon="10.33600561941646"><ele>146.0</ele><time>2026-03-29T16:31:49Z</time></trkpt><trkpt lat="45.50310662047723" lon="10.335944163597445"><ele>146.0</ele><time>2026-03-29T16:31:50Z</time></trkpt><trkpt lat="45.50303554757422" lon="10.335874119853777"><ele>146.0</ele><time>2026-03-29T16:31:51Z</time></trkpt><trkpt lat="45.502960958506485" lon="10.335787154259943"><ele>146.0</ele><time>2026-03-29T16:31:52Z</time></trkpt><trkpt lat="45.50289466302308" lon="10.335716355460633"><ele>146.0</ele><time>2026-03-29T16:31:53Z</time></trkpt><trkpt lat="45.50283841746741" lon="10.335657228260477"><ele>146.0</ele><time>2026-03-29T16:31:54Z</time></trkpt><trkpt lat="45.50278049500872" lon="10.335600272533783"><ele>145.8</ele><time>2026-03-29T16:31:55Z</time></trkpt><trkpt lat="45.502705387699294" lon="10.335540895122312"><ele>145.6</ele><time>2026-03-29T16:31:56Z</time></trkpt><trkpt lat="45.50261855515869" lon="10.335479354821047"><ele>145.4</ele><time>2026-03-29T16:31:57Z</time></trkpt><trkpt lat="45.502524110155996" lon="10.335393622278216"><ele>145.2</ele><time>2026-03-29T16:31:58Z</time></trkpt><trkpt lat="45.50241824145002" lon="10.335286110158089"><ele>145.0</ele><time>2026-03-29T16:31:59Z</time></trkpt><trkpt lat="45.50231221135972" lon="10.33518855930972"><ele>145.0</ele><time>2026-03-29T16:32:00Z</time></trkpt><trkpt lat="45.502225582681895" lon="10.335089417197347"><ele>145.0</ele><time>2026-03-29T16:32:01Z</time></trkpt><trkpt lat="45.50212276969778" lon="10.334992541807244"><ele>145.0</ele><time>2026-03-29T16:32:02Z</time></trkpt><trkpt lat="45.50201217694083" lon="10.334889626941607"><ele>145.0</ele><time>2026-03-29T16:32:03Z</time></trkpt><trkpt lat="45.5018984435234" lon="10.334779419080553"><ele>144.5</ele><time>2026-03-29T16:32:04Z</time></trkpt><trkpt lat="45.501784537895816" lon="10.334667894303665"><ele>144.0</ele><time>2026-03-29T16:32:05Z</time></trkpt><trkpt lat="45.501668265090544" lon="10.33456206813233"><ele>143.5</ele><time>2026-03-29T16:32:06Z</time></trkpt><trkpt lat="45.50154812933283" lon="10.334444584834854"><ele>143.0</ele><time>2026-03-29T16:32:07Z</time></trkpt><trkpt lat="45.501431384207045" lon="10.334322486531041"><ele>143.0</ele><time>2026-03-29T16:32:08Z</time></trkpt><trkpt lat="45.501304881664836" lon="10.334192072078219"><ele>143.0</ele><time>2026-03-29T16:32:09Z</time></trkpt><trkpt lat="45.50117921451089" lon="10.334058133324664"><ele>143.0</ele><time>2026-03-29T16:32:10Z</time></trkpt><trkpt lat="45.50104953318663" lon="10.333927558481063"><ele>143.33333333333331</ele><time>2026-03-29T16:32:11Z</time></trkpt><trkpt lat="45.500920525332134" lon="10.333790184964851"><ele>143.66666666666666</ele><time>2026-03-29T16:32:12Z</time></trkpt><trkpt lat="45.50079572698782" lon="10.3336491730343"><ele>144.0</ele><time>2026-03-29T16:32:13Z</time></trkpt><trkpt lat="45.50067217247467" lon="10.33350871540361"><ele>144.0</ele><time>2026-03-29T16:32:14Z</time></trkpt><trkpt lat="45.500553007598015" lon="10.333372128754279"><ele>144.0</ele><time>2026-03-29T16:32:15Z</time></trkpt><trkpt lat="45.50043133252786" lon="10.333236068507297"><ele>144.0</ele><time>2026-03-29T16:32:16Z</time></trkpt><trkpt lat="45.50030558277199" lon="10.333086939701518"><ele>144.0</ele><time>2026-03-29T16:32:17Z</time></trkpt><trkpt lat="45.50017860899436" lon="10.332931078357367"><ele>144.0</ele><time>2026-03-29T16:32:18Z</time></trkpt><trkpt lat="45.500045311772176" lon="10.332768235946455"><ele>144.0</ele><time>2026-03-29T16:32:18.999Z</time></trkpt><trkpt lat="45.49991287919943" lon="10.332599224902573"><ele>144.0</ele><time>2026-03-29T16:32:19.999Z</time></trkpt><trkpt lat="45.49978131242711" lon="10.332436944356598"><ele>144.0</ele><time>2026-03-29T16:32:20.999Z</time></trkpt><trkpt lat="45.499643414626306" lon="10.332277058749732"><ele>144.0</ele><time>2026-03-29T16:32:21.999Z</time></trkpt><trkpt lat="45.49950887360762" lon="10.332108630468477"><ele>143.66666666666666</ele><time>2026-03-29T16:32:22.999Z</time></trkpt><trkpt lat="45.49936791749633" lon="10.331928368087834"><ele>143.33333333333331</ele><time>2026-03-29T16:32:23.999Z</time></trkpt><trkpt lat="45.49922561045475" lon="10.331751014397053"><ele>143.0</ele><time>2026-03-29T16:32:24.999Z</time></trkpt><trkpt lat="45.49908225990702" lon="10.331578032156184"><ele>143.0</ele><time>2026-03-29T16:32:25.999Z</time></trkpt><trkpt lat="45.49894115977587" lon="10.331403313777951"><ele>143.0</ele><time>2026-03-29T16:32:26.999Z</time></trkpt><trkpt lat="45.498803477567435" lon="10.331234535638949"><ele>143.0</ele><time>2026-03-29T16:32:27.999Z</time></trkpt><trkpt lat="45.49865247957798" lon="10.331047463543724"><ele>143.33333333333331</ele><time>2026-03-29T16:32:28.999Z</time></trkpt><trkpt lat="45.498494006161906" lon="10.330855019288846"><ele>143.66666666666666</ele><time>2026-03-29T16:32:29.999Z</time></trkpt><trkpt lat="45.49834261204458" lon="10.330666102163368"><ele>144.0</ele><time>2026-03-29T16:32:30.999Z</time></trkpt><trkpt lat="45.498208074500205" lon="10.330493993972857"><ele>143.66666666666666</ele><time>2026-03-29T16:32:31.999Z</time></trkpt><trkpt lat="45.49807848310903" lon="10.330333104209764"><ele>143.33333333333331</ele><time>2026-03-29T16:32:32.999Z</time></trkpt><trkpt lat="45.49794781785627" lon="10.33017997142737"><ele>143.0</ele><time>2026-03-29T16:32:33.999Z</time></trkpt><trkpt lat="45.497823295404444" lon="10.330028056859597"><ele>143.0</ele><time>2026-03-29T16:32:34.999Z</time></trkpt><trkpt lat="45.497700799011525" lon="10.329876131347984"><ele>143.0</ele><time>2026-03-29T16:32:35.999Z</time></trkpt><trkpt lat="45.49758707204904" lon="10.329718071363285"><ele>143.0</ele><time>2026-03-29T16:32:36.999Z</time></trkpt><trkpt lat="45.497473610528424" lon="10.329550743652916"><ele>142.33333333333331</ele><time>2026-03-29T16:32:37.999Z</time></trkpt><trkpt lat="45.49736475451911" lon="10.329372196026933"><ele>141.66666666666666</ele><time>2026-03-29T16:32:38.999Z</time></trkpt><trkpt lat="45.49725551984269" lon="10.329183685795453"><ele>141.0</ele><time>2026-03-29T16:32:39.999Z</time></trkpt><trkpt lat="45.4971542669787" lon="10.328997162588584"><ele>142.0</ele><time>2026-03-29T16:32:40.999Z</time></trkpt><trkpt lat="45.49706425785145" lon="10.328826978552836"><ele>143.0</ele><time>2026-03-29T16:32:41.999Z</time></trkpt><trkpt lat="45.49697991119371" lon="10.328653492019559"><ele>144.0</ele><time>2026-03-29T16:32:42.999Z</time></trkpt><trkpt lat="45.4969023327258" lon="10.328481378903874"><ele>145.0</ele><time>2026-03-29T16:32:43.999Z</time></trkpt><trkpt lat="45.49683912643522" lon="10.328324426558869"><ele>145.0</ele><time>2026-03-29T16:32:44.999Z</time></trkpt><trkpt lat="45.49677891201948" lon="10.328169832888609"><ele>145.0</ele><time>2026-03-29T16:32:45.999Z</time></trkpt><trkpt lat="45.496729137552435" lon="10.328007485349993"><ele>145.0</ele><time>2026-03-29T16:32:46.999Z</time></trkpt><trkpt lat="45.49667591378602" lon="10.3278457262604"><ele>145.0</ele><time>2026-03-29T16:32:47.999Z</time></trkpt><trkpt lat="45.49662723068678" lon="10.327684452349171"><ele>144.75</ele><time>2026-03-29T16:32:48.999Z</time></trkpt><trkpt lat="45.49658313204003" lon="10.327521821282502"><ele>144.5</ele><time>2026-03-29T16:32:49.999Z</time></trkpt><trkpt lat="45.49654495705927" lon="10.327357781240632"><ele>144.25</ele><time>2026-03-29T16:32:50.999Z</time></trkpt><trkpt lat="45.49650568343926" lon="10.3271926768509"><ele>144.0</ele><time>2026-03-29T16:32:51.999Z</time></trkpt><trkpt lat="45.49647132995416" lon="10.327023986021272"><ele>143.5</ele><time>2026-03-29T16:32:52.999Z</time></trkpt><trkpt lat="45.49643983424735" lon="10.326858747954857"><ele>143.0</ele><time>2026-03-29T16:32:53.999Z</time></trkpt><trkpt lat="45.49641475590918" lon="10.32669165968564"><ele>142.5</ele><time>2026-03-29T16:32:54.999Z</time></trkpt><trkpt lat="45.49638636066639" lon="10.326524383856913"><ele>142.0</ele><time>2026-03-29T16:32:55.999Z</time></trkpt><trkpt lat="45.496361717682426" lon="10.326357960062058"><ele>142.0</ele><time>2026-03-29T16:32:56.999Z</time></trkpt><trkpt lat="45.496342663377405" lon="10.326183828426753"><ele>142.0</ele><time>2026-03-29T16:32:57.999Z</time></trkpt><trkpt lat="45.49632749451023" lon="10.326010156921907"><ele>142.0</ele><time>2026-03-29T16:32:58.999Z</time></trkpt><trkpt lat="45.49631551329228" lon="10.325836361173819"><ele>142.0</ele><time>2026-03-29T16:32:59.999Z</time></trkpt><trkpt lat="45.49630621784482" lon="10.325657503911959"><ele>142.0</ele><time>2026-03-29T16:33:00.999Z</time></trkpt><trkpt lat="45.496302576154484" lon="10.325473069508401"><ele>142.0</ele><time>2026-03-29T16:33:01.999Z</time></trkpt><trkpt lat="45.49629614736045" lon="10.325288782463693"><ele>142.0</ele><time>2026-03-29T16:33:02.999Z</time></trkpt><trkpt lat="45.49629595801844" lon="10.325093605101191"><ele>142.0</ele><time>2026-03-29T16:33:03.999Z</time></trkpt><trkpt lat="45.496296742716304" lon="10.324899840733142"><ele>142.25</ele><time>2026-03-29T16:33:04.999Z</time></trkpt><trkpt lat="45.49629797215423" lon="10.324709525175706"><ele>142.5</ele><time>2026-03-29T16:33:05.999Z</time></trkpt><trkpt lat="45.49629868822049" lon="10.324516081680786"><ele>142.75</ele><time>2026-03-29T16:33:06.999Z</time></trkpt><trkpt lat="45.49629564011705" lon="10.324321065475601"><ele>143.0</ele><time>2026-03-29T16:33:07.999Z</time></trkpt><trkpt lat="45.496296656891715" lon="10.324132884482248"><ele>143.0</ele><time>2026-03-29T16:33:08.999Z</time></trkpt><trkpt lat="45.49629708302113" lon="10.323943582964562"><ele>143.0</ele><time>2026-03-29T16:33:09.999Z</time></trkpt><trkpt lat="45.49630222136801" lon="10.323747561143344"><ele>143.0</ele><time>2026-03-29T16:33:10.999Z</time></trkpt><trkpt lat="45.49630171500129" lon="10.323553971631304"><ele>143.0</ele><time>2026-03-29T16:33:11.999Z</time></trkpt><trkpt lat="45.496303398429056" lon="10.323355969986196"><ele>143.25</ele><time>2026-03-29T16:33:12.999Z</time></trkpt><trkpt lat="45.49630185126736" lon="10.323150791739002"><ele>143.5</ele><time>2026-03-29T16:33:13.999Z</time></trkpt><trkpt lat="45.496297321579235" lon="10.322949309205494"><ele>143.75</ele><time>2026-03-29T16:33:14.999Z</time></trkpt><trkpt lat="45.496287097175106" lon="10.322741335525306"><ele>144.0</ele><time>2026-03-29T16:33:15.999Z</time></trkpt><trkpt lat="45.49627087244313" lon="10.32252732001806"><ele>142.66666666666666</ele><time>2026-03-29T16:33:16.999Z</time></trkpt><trkpt lat="45.49624290864622" lon="10.322316039753867"><ele>141.33333333333331</ele><time>2026-03-29T16:33:18Z</time></trkpt><trkpt lat="45.49620289767835" lon="10.322108546951954"><ele>140.0</ele><time>2026-03-29T16:33:19Z</time></trkpt><trkpt lat="45.49615361401587" lon="10.321887291076933"><ele>140.0</ele><time>2026-03-29T16:33:20Z</time></trkpt><trkpt lat="45.49609377508255" lon="10.321664623875225"><ele>140.0</ele><time>2026-03-29T16:33:21Z</time></trkpt><trkpt lat="45.49603265297581" lon="10.321442775624543"><ele>140.0</ele><time>2026-03-29T16:33:22Z</time></trkpt><trkpt lat="45.495960539725495" lon="10.321222192162553"><ele>140.0</ele><time>2026-03-29T16:33:23Z</time></trkpt><trkpt lat="45.49588004837219" lon="10.321005710003204"><ele>140.0</ele><time>2026-03-29T16:33:24Z</time></trkpt><trkpt lat="45.49579471597387" lon="10.320804042957738"><ele>140.0</ele><time>2026-03-29T16:33:25Z</time></trkpt><trkpt lat="45.49569886621842" lon="10.320618875460806"><ele>140.33333333333331</ele><time>2026-03-29T16:33:26Z</time></trkpt><trkpt lat="45.49559951218956" lon="10.320430389878364"><ele>140.66666666666666</ele><time>2026-03-29T16:33:27Z</time></trkpt><trkpt lat="45.49549325993022" lon="10.320252087903677"><ele>141.0</ele><time>2026-03-29T16:33:28Z</time></trkpt><trkpt lat="45.495387684826966" lon="10.3200781631091"><ele>141.0</ele><time>2026-03-29T16:33:29Z</time></trkpt><trkpt lat="45.4952747163514" lon="10.319910438444172"><ele>141.0</ele><time>2026-03-29T16:33:30Z</time></trkpt><trkpt lat="45.49516130933816" lon="10.319756313983758"><ele>141.0</ele><time>2026-03-29T16:33:31Z</time></trkpt><trkpt lat="45.49504556306943" lon="10.319610784745226"><ele>140.75</ele><time>2026-03-29T16:33:32Z</time></trkpt><trkpt lat="45.49492052490802" lon="10.31948247345488"><ele>140.5</ele><time>2026-03-29T16:33:33Z</time></trkpt><trkpt lat="45.49479972450746" lon="10.319355710135493"><ele>140.25</ele><time>2026-03-29T16:33:34Z</time></trkpt><trkpt lat="45.4946880692058" lon="10.319243937407293"><ele>140.0</ele><time>2026-03-29T16:33:35Z</time></trkpt><trkpt lat="45.49457649485023" lon="10.319132068408761"><ele>140.25</ele><time>2026-03-29T16:33:36Z</time></trkpt><trkpt lat="45.49446291367426" lon="10.319013181533467"><ele>140.5</ele><time>2026-03-29T16:33:37Z</time></trkpt><trkpt lat="45.494364851195115" lon="10.318915380993431"><ele>140.75</ele><time>2026-03-29T16:33:38Z</time></trkpt><trkpt lat="45.49425964695741" lon="10.318818533836476"><ele>141.0</ele><time>2026-03-29T16:33:39Z</time></trkpt><trkpt lat="45.49414718818003" lon="10.318721293486433"><ele>141.0</ele><time>2026-03-29T16:33:40Z</time></trkpt><trkpt lat="45.49402721369161" lon="10.318635646365143"><ele>141.0</ele><time>2026-03-29T16:33:41Z</time></trkpt><trkpt lat="45.493898985483206" lon="10.318550091195995"><ele>141.0</ele><time>2026-03-29T16:33:42Z</time></trkpt><trkpt lat="45.493759087153634" lon="10.31846741092284"><ele>141.0</ele><time>2026-03-29T16:33:43Z</time></trkpt><trkpt lat="45.49361236604801" lon="10.318408120464285"><ele>140.33333333333334</ele><time>2026-03-29T16:33:44Z</time></trkpt><trkpt lat="45.493452845707594" lon="10.318366273840695"><ele>139.66666666666669</ele><time>2026-03-29T16:33:45Z</time></trkpt><trkpt lat="45.49329297381036" lon="10.318342578666936"><ele>139.0</ele><time>2026-03-29T16:33:46Z</time></trkpt><trkpt lat="45.49312870287337" lon="10.318340818760502"><ele>139.0</ele><time>2026-03-29T16:33:47Z</time></trkpt><trkpt lat="45.49295876880699" lon="10.318354639534732"><ele>139.0</ele><time>2026-03-29T16:33:48Z</time></trkpt><trkpt lat="45.49279216930965" lon="10.318367747107615"><ele>139.0</ele><time>2026-03-29T16:33:49Z</time></trkpt><trkpt lat="45.492633591115" lon="10.318376825503316"><ele>139.0</ele><time>2026-03-29T16:33:50Z</time></trkpt><trkpt lat="45.49247216182252" lon="10.31838116795633"><ele>139.0</ele><time>2026-03-29T16:33:51Z</time></trkpt><trkpt lat="45.49231414776361" lon="10.318384548949448"><ele>139.0</ele><time>2026-03-29T16:33:52Z</time></trkpt><trkpt lat="45.492169364218135" lon="10.318385616463756"><ele>138.33333333333334</ele><time>2026-03-29T16:33:53Z</time></trkpt><trkpt lat="45.49202008740703" lon="10.31838726180013"><ele>137.66666666666666</ele><time>2026-03-29T16:33:54Z</time></trkpt><trkpt lat="45.49185789806947" lon="10.318389018182714"><ele>137.0</ele><time>2026-03-29T16:33:55Z</time></trkpt><trkpt lat="45.491686701300694" lon="10.318390057493819"><ele>137.0</ele><time>2026-03-29T16:33:56Z</time></trkpt><trkpt lat="45.491512129794245" lon="10.318393581408344"><ele>137.0</ele><time>2026-03-29T16:33:57Z</time></trkpt><trkpt lat="45.491333805866944" lon="10.318398230523693"><ele>137.0</ele><time>2026-03-29T16:33:58Z</time></trkpt><trkpt lat="45.49115034932559" lon="10.318399235175056"><ele>137.33333333333331</ele><time>2026-03-29T16:33:59Z</time></trkpt><trkpt lat="45.4909772407955" lon="10.318398198813586"><ele>137.66666666666666</ele><time>2026-03-29T16:34:00Z</time></trkpt><trkpt lat="45.490814888617905" lon="10.318400689752664"><ele>138.0</ele><time>2026-03-29T16:34:01Z</time></trkpt><trkpt lat="45.49065326160294" lon="10.318402704044066"><ele>138.0</ele><time>2026-03-29T16:34:02Z</time></trkpt><trkpt lat="45.490492277221755" lon="10.318408790423893"><ele>138.0</ele><time>2026-03-29T16:34:03Z</time></trkpt><trkpt lat="45.49033258342364" lon="10.318412761766028"><ele>138.0</ele><time>2026-03-29T16:34:04Z</time></trkpt><trkpt lat="45.49017439366888" lon="10.318414047282712"><ele>138.0</ele><time>2026-03-29T16:34:05Z</time></trkpt><trkpt lat="45.49001353125576" lon="10.31841697567835"><ele>138.0</ele><time>2026-03-29T16:34:06Z</time></trkpt><trkpt lat="45.489856171521794" lon="10.318423879590272"><ele>138.0</ele><time>2026-03-29T16:34:07Z</time></trkpt><trkpt lat="45.48969126668138" lon="10.318426372428874"><ele>137.0</ele><time>2026-03-29T16:34:08Z</time></trkpt><trkpt lat="45.48952124328483" lon="10.318426963599027"><ele>136.0</ele><time>2026-03-29T16:34:09Z</time></trkpt><trkpt lat="45.48935096759069" lon="10.318430415502638"><ele>135.0</ele><time>2026-03-29T16:34:10Z</time></trkpt><trkpt lat="45.489178417357984" lon="10.31842955290644"><ele>135.0</ele><time>2026-03-29T16:34:11Z</time></trkpt><trkpt lat="45.489024331509725" lon="10.318428071147643"><ele>135.0</ele><time>2026-03-29T16:34:12Z</time></trkpt><trkpt lat="45.488872462219156" lon="10.318426479143788"><ele>135.0</ele><time>2026-03-29T16:34:13Z</time></trkpt><trkpt lat="45.48871799175318" lon="10.31842957052084"><ele>136.0</ele><time>2026-03-29T16:34:14Z</time></trkpt><trkpt lat="45.488562884537345" lon="10.318433855440288"><ele>137.0</ele><time>2026-03-29T16:34:15Z</time></trkpt><trkpt lat="45.48840316132513" lon="10.318435771231526"><ele>138.0</ele><time>2026-03-29T16:34:16Z</time></trkpt><trkpt lat="45.48824116196406" lon="10.318436957408878"><ele>138.0</ele><time>2026-03-29T16:34:17Z</time></trkpt><trkpt lat="45.488083450672754" lon="10.31842223266001"><ele>138.0</ele><time>2026-03-29T16:34:18Z</time></trkpt><trkpt lat="45.48792126172652" lon="10.31841204421693"><ele>138.0</ele><time>2026-03-29T16:34:19Z</time></trkpt><trkpt lat="45.48778381781019" lon="10.318409932195978"><ele>137.5</ele><time>2026-03-29T16:34:20Z</time></trkpt><trkpt lat="45.48765213614026" lon="10.318411606138213"><ele>137.0</ele><time>2026-03-29T16:34:21Z</time></trkpt><trkpt lat="45.48751799310865" lon="10.318407311522513"><ele>136.5</ele><time>2026-03-29T16:34:22Z</time></trkpt><trkpt lat="45.48737928979928" lon="10.318406550455355"><ele>136.0</ele><time>2026-03-29T16:34:23Z</time></trkpt><trkpt lat="45.48723653175856" lon="10.318410765615912"><ele>136.0</ele><time>2026-03-29T16:34:24Z</time></trkpt><trkpt lat="45.487104069907204" lon="10.318412627005532"><ele>136.0</ele><time>2026-03-29T16:34:25Z</time></trkpt><trkpt lat="45.48698307113934" lon="10.318414897848402"><ele>136.0</ele><time>2026-03-29T16:34:26Z</time></trkpt><trkpt lat="45.48686554588477" lon="10.318415354607405"><ele>136.0</ele><time>2026-03-29T16:34:27Z</time></trkpt><trkpt lat="45.48675294470787" lon="10.318413630446777"><ele>135.83333333333334</ele><time>2026-03-29T16:34:28Z</time></trkpt><trkpt lat="45.48664498145046" lon="10.318410168981565"><ele>135.66666666666669</ele><time>2026-03-29T16:34:29Z</time></trkpt><trkpt lat="45.48655552007133" lon="10.318404521341908"><ele>135.5</ele><time>2026-03-29T16:34:29.999Z</time></trkpt><trkpt lat="45.48648156598779" lon="10.318391484052254"><ele>135.33333333333334</ele><time>2026-03-29T16:34:30.999Z</time></trkpt><trkpt lat="45.48640176439816" lon="10.318362761992974"><ele>135.16666666666666</ele><time>2026-03-29T16:34:31.999Z</time></trkpt><trkpt lat="45.48631648013602" lon="10.318305867190908"><ele>135.0</ele><time>2026-03-29T16:34:32.999Z</time></trkpt><trkpt lat="45.48623908723396" lon="10.318213684071411"><ele>135.0</ele><time>2026-03-29T16:34:33.999Z</time></trkpt><trkpt lat="45.48617973949187" lon="10.318093287231347"><ele>135.0</ele><time>2026-03-29T16:34:34.999Z</time></trkpt><trkpt lat="45.486142678654176" lon="10.317952841457913"><ele>135.0</ele><time>2026-03-29T16:34:35.999Z</time></trkpt><trkpt lat="45.48611960586227" lon="10.317807912098312"><ele>135.0</ele><time>2026-03-29T16:34:36.999Z</time></trkpt><trkpt lat="45.486112925817835" lon="10.31766961222293"><ele>135.0</ele><time>2026-03-29T16:34:37.999Z</time></trkpt><trkpt lat="45.48610979007772" lon="10.317533744356416"><ele>135.0</ele><time>2026-03-29T16:34:38.999Z</time></trkpt><trkpt lat="45.48609225962997" lon="10.317409132875229"><ele>135.0</ele><time>2026-03-29T16:34:39.999Z</time></trkpt><trkpt lat="45.486067236184454" lon="10.317298963772354"><ele>135.0</ele><time>2026-03-29T16:34:40.999Z</time></trkpt><trkpt lat="45.486011429263776" lon="10.317208083715116"><ele>135.0</ele><time>2026-03-29T16:34:41.999Z</time></trkpt><trkpt lat="45.485949279792564" lon="10.317119485030718"><ele>135.0</ele><time>2026-03-29T16:34:42.999Z</time></trkpt><trkpt lat="45.48587347393522" lon="10.317039312813959"><ele>135.0</ele><time>2026-03-29T16:34:43.999Z</time></trkpt><trkpt lat="45.485794771210315" lon="10.31698091723601"><ele>135.0</ele><time>2026-03-29T16:34:44.999Z</time></trkpt><trkpt lat="45.485709825175164" lon="10.316944296159782"><ele>135.0</ele><time>2026-03-29T16:34:45.999Z</time></trkpt><trkpt lat="45.485621468127604" lon="10.31692429434852"><ele>135.0</ele><time>2026-03-29T16:34:46.999Z</time></trkpt><trkpt lat="45.485534699026545" lon="10.31692902568949"><ele>135.0</ele><time>2026-03-29T16:34:47.999Z</time></trkpt><trkpt lat="45.48544299769427" lon="10.316930594221217"><ele>135.0</ele><time>2026-03-29T16:34:48.999Z</time></trkpt><trkpt lat="45.48535680476332" lon="10.31698173558822"><ele>135.0</ele><time>2026-03-29T16:34:49.999Z</time></trkpt><trkpt lat="45.48526542914547" lon="10.317045800693789"><ele>135.0</ele><time>2026-03-29T16:34:50.999Z</time></trkpt><trkpt lat="45.48518544533744" lon="10.317130677158957"><ele>135.0</ele><time>2026-03-29T16:34:51.999Z</time></trkpt><trkpt lat="45.48511888208244" lon="10.317237682793898"><ele>135.0</ele><time>2026-03-29T16:34:52.999Z</time></trkpt><trkpt lat="45.485064525990666" lon="10.317376204022557"><ele>135.0</ele><time>2026-03-29T16:34:53.999Z</time></trkpt><trkpt lat="45.48502445523364" lon="10.317527892779959"><ele>135.25</ele><time>2026-03-29T16:34:54.999Z</time></trkpt><trkpt lat="45.48499607252782" lon="10.317714312123682"><ele>135.5</ele><time>2026-03-29T16:34:55.999Z</time></trkpt><trkpt lat="45.48496639284108" lon="10.317905708516607"><ele>135.75</ele><time>2026-03-29T16:34:56.999Z</time></trkpt><trkpt lat="45.48492374934769" lon="10.31809668478114"><ele>136.0</ele><time>2026-03-29T16:34:57.999Z</time></trkpt><trkpt lat="45.48487920248573" lon="10.318294304059986"><ele>136.0</ele><time>2026-03-29T16:34:58.999Z</time></trkpt><trkpt lat="45.48483550392996" lon="10.318487721321482"><ele>136.0</ele><time>2026-03-29T16:34:59.999Z</time></trkpt><trkpt lat="45.48479678933042" lon="10.318679127714816"><ele>136.0</ele><time>2026-03-29T16:35:00.999Z</time></trkpt><trkpt lat="45.4847526111086" lon="10.318883680278901"><ele>136.0</ele><time>2026-03-29T16:35:01.999Z</time></trkpt><trkpt lat="45.48471480835218" lon="10.319055677123977"><ele>135.8</ele><time>2026-03-29T16:35:02.999Z</time></trkpt><trkpt lat="45.48468062213715" lon="10.319200163456932"><ele>135.6</ele><time>2026-03-29T16:35:03.999Z</time></trkpt><trkpt lat="45.48465218622291" lon="10.319335711993396"><ele>135.4</ele><time>2026-03-29T16:35:04.999Z</time></trkpt><trkpt lat="45.48462346853878" lon="10.319468808036033"><ele>135.2</ele><time>2026-03-29T16:35:05.999Z</time></trkpt><trkpt lat="45.48459635193509" lon="10.319586585460392"><ele>135.0</ele><time>2026-03-29T16:35:06.999Z</time></trkpt><trkpt lat="45.484571804838296" lon="10.319678810136047"><ele>135.0</ele><time>2026-03-29T16:35:07.999Z</time></trkpt><trkpt lat="45.48454137558316" lon="10.319759239623947"><ele>135.0</ele><time>2026-03-29T16:35:08.999Z</time></trkpt><trkpt lat="45.4844904413447" lon="10.31982603749107"><ele>135.0</ele><time>2026-03-29T16:35:09.999Z</time></trkpt><trkpt lat="45.484430904501416" lon="10.31986298064267"><ele>135.0</ele><time>2026-03-29T16:35:10.999Z</time></trkpt><trkpt lat="45.484361916606346" lon="10.31990261136827"><ele>135.0</ele><time>2026-03-29T16:35:11.999Z</time></trkpt><trkpt lat="45.48427872692591" lon="10.31993698430044"><ele>135.0</ele><time>2026-03-29T16:35:12.999Z</time></trkpt><trkpt lat="45.4841948215812" lon="10.319991025374623"><ele>135.0</ele><time>2026-03-29T16:35:13.999Z</time></trkpt><trkpt lat="45.48412006679001" lon="10.32007277223456"><ele>135.0</ele><time>2026-03-29T16:35:14.999Z</time></trkpt><trkpt lat="45.48406611135827" lon="10.320185871755227"><ele>135.0</ele><time>2026-03-29T16:35:15.999Z</time></trkpt><trkpt lat="45.48403589838129" lon="10.320311042549328"><ele>135.0</ele><time>2026-03-29T16:35:16.999Z</time></trkpt><trkpt lat="45.48401910704491" lon="10.320437486477415"><ele>135.0</ele><time>2026-03-29T16:35:17.999Z</time></trkpt><trkpt lat="45.484003139058615" lon="10.320562956476502"><ele>135.0</ele><time>2026-03-29T16:35:18.999Z</time></trkpt><trkpt lat="45.48399892454777" lon="10.320688579870456"><ele>135.0</ele><time>2026-03-29T16:35:19.999Z</time></trkpt><trkpt lat="45.48400731168974" lon="10.32081804398901"><ele>135.0</ele><time>2026-03-29T16:35:20.999Z</time></trkpt><trkpt lat="45.48402013416007" lon="10.320919168812653"><ele>135.0</ele><time>2026-03-29T16:35:21.999Z</time></trkpt><trkpt lat="45.48403681151162" lon="10.321014472818286"><ele>135.0</ele><time>2026-03-29T16:35:22.999Z</time></trkpt><trkpt lat="45.48406061413556" lon="10.321116916488434"><ele>135.0</ele><time>2026-03-29T16:35:24Z</time></trkpt><trkpt lat="45.48407518153047" lon="10.321234204371487"><ele>135.0</ele><time>2026-03-29T16:35:25Z</time></trkpt><trkpt lat="45.48409727452055" lon="10.321358067305974"><ele>135.0</ele><time>2026-03-29T16:35:26Z</time></trkpt><trkpt lat="45.484089825455435" lon="10.321485482909159"><ele>135.0</ele><time>2026-03-29T16:35:27Z</time></trkpt><trkpt lat="45.484071167090306" lon="10.321606798755699"><ele>135.0</ele><time>2026-03-29T16:35:28Z</time></trkpt><trkpt lat="45.48405125831061" lon="10.321719751218994"><ele>135.0</ele><time>2026-03-29T16:35:29Z</time></trkpt><trkpt lat="45.48403580180906" lon="10.321807915711322"><ele>135.0</ele><time>2026-03-29T16:35:30Z</time></trkpt><trkpt lat="45.4839900448513" lon="10.321975460041859"><ele>135.0</ele><time>2026-03-29T16:35:32Z</time></trkpt><trkpt lat="45.483952941309205" lon="10.322072010983183"><ele>135.0</ele><time>2026-03-29T16:35:33Z</time></trkpt><trkpt lat="45.483947448783354" lon="10.322181900320954"><ele>135.0</ele><time>2026-03-29T16:35:34Z</time></trkpt><trkpt lat="45.48391761439263" lon="10.322330832729689"><ele>135.0</ele><time>2026-03-29T16:35:36Z</time></trkpt><trkpt lat="45.48389731701979" lon="10.322421470568933"><ele>135.0</ele><time>2026-03-29T16:35:38Z</time></trkpt><trkpt lat="45.48383310677326" lon="10.322461825922652"><ele>135.0</ele><time>2026-03-29T16:35:45Z</time></trkpt><trkpt lat="45.48379400121113" lon="10.322536585985002"><ele>135.0</ele><time>2026-03-29T16:36:05Z</time></trkpt><trkpt lat="45.48374876376246" lon="10.322685562666047"><ele>135.0</ele><time>2026-03-29T16:36:14Z</time></trkpt><trkpt lat="45.48372578986107" lon="10.322795978639347"><ele>135.0</ele><time>2026-03-29T16:36:15Z</time></trkpt><trkpt lat="45.48370968784145" lon="10.32289863707636"><ele>135.0</ele><time>2026-03-29T16:36:16Z</time></trkpt><trkpt lat="45.4837625172" lon="10.323016901542674"><ele>135.0</ele><time>2026-03-29T16:36:17Z</time></trkpt><trkpt lat="45.48374210968912" lon="10.323108462378501"><ele>135.0</ele><time>2026-03-29T16:36:18Z</time></trkpt><trkpt lat="45.4837183946743" lon="10.323216374210944"><ele>135.0</ele><time>2026-03-29T16:36:19Z</time></trkpt><trkpt lat="45.48369109378011" lon="10.32334060324605"><ele>135.0</ele><time>2026-03-29T16:36:20Z</time></trkpt><trkpt lat="45.483661258442304" lon="10.32347636487669"><ele>135.0</ele><time>2026-03-29T16:36:21Z</time></trkpt><trkpt lat="45.483625792170166" lon="10.323637749855468"><ele>135.0</ele><time>2026-03-29T16:36:21.999Z</time></trkpt><trkpt lat="45.48358063790431" lon="10.323839613840741"><ele>135.0</ele><time>2026-03-29T16:36:22.999Z</time></trkpt><trkpt lat="45.48355987673975" lon="10.324060261321977"><ele>135.0</ele><time>2026-03-29T16:36:23.999Z</time></trkpt><trkpt lat="45.48341977349091" lon="10.324246679600712"><ele>135.0</ele><time>2026-03-29T16:36:24.999Z</time></trkpt><trkpt lat="45.48336527531389" lon="10.32443405971785"><ele>135.0</ele><time>2026-03-29T16:36:25.999Z</time></trkpt><trkpt lat="45.483291915624804" lon="10.324598700524925"><ele>135.0</ele><time>2026-03-29T16:36:26.999Z</time></trkpt><trkpt lat="45.483199620040814" lon="10.324712821229202"><ele>135.0</ele><time>2026-03-29T16:36:27.999Z</time></trkpt><trkpt lat="45.48308112302666" lon="10.324801311761213"><ele>135.0</ele><time>2026-03-29T16:36:28.999Z</time></trkpt><trkpt lat="45.48294095113103" lon="10.324871381201309"><ele>135.0</ele><time>2026-03-29T16:36:29.999Z</time></trkpt><trkpt lat="45.482789776887365" lon="10.324901236760438"><ele>135.0</ele><time>2026-03-29T16:36:30.999Z</time></trkpt><trkpt lat="45.48263745698824" lon="10.32485269527545"><ele>135.0</ele><time>2026-03-29T16:36:31.999Z</time></trkpt><trkpt lat="45.482510737862775" lon="10.32478802815525"><ele>135.0</ele><time>2026-03-29T16:36:32.999Z</time></trkpt><trkpt lat="45.48238382255133" lon="10.32470929779449"><ele>135.0</ele><time>2026-03-29T16:36:33.999Z</time></trkpt><trkpt lat="45.48227157933966" lon="10.324579406971166"><ele>135.0</ele><time>2026-03-29T16:36:34.999Z</time></trkpt><trkpt lat="45.48220057339641" lon="10.324415393208566"><ele>135.0</ele><time>2026-03-29T16:36:35.999Z</time></trkpt><trkpt lat="45.48214836707295" lon="10.324258838389742"><ele>135.0</ele><time>2026-03-29T16:36:36.999Z</time></trkpt><trkpt lat="45.48212493520057" lon="10.324073155408326"><ele>135.0</ele><time>2026-03-29T16:36:37.999Z</time></trkpt><trkpt lat="45.482096216403534" lon="10.323869499812822"><ele>135.0</ele><time>2026-03-29T16:36:38.999Z</time></trkpt><trkpt lat="45.4821282627637" lon="10.323642225559738"><ele>135.0</ele><time>2026-03-29T16:36:39.999Z</time></trkpt><trkpt lat="45.48214449639737" lon="10.323406593695863"><ele>135.0</ele><time>2026-03-29T16:36:40.999Z</time></trkpt><trkpt lat="45.48219801903698" lon="10.323151830039262"><ele>135.0</ele><time>2026-03-29T16:36:41.999Z</time></trkpt><trkpt lat="45.482260947861654" lon="10.3228397134744"><ele>135.0</ele><time>2026-03-29T16:36:42.999Z</time></trkpt><trkpt lat="45.48233031286832" lon="10.32250462490781"><ele>134.0</ele><time>2026-03-29T16:36:43.999Z</time></trkpt><trkpt lat="45.482408370064334" lon="10.322154555926533"><ele>133.0</ele><time>2026-03-29T16:36:44.999Z</time></trkpt><trkpt lat="45.48248762425101" lon="10.321812292544871"><ele>133.0</ele><time>2026-03-29T16:36:45.999Z</time></trkpt><trkpt lat="45.482560763854536" lon="10.321504737377241"><ele>133.0</ele><time>2026-03-29T16:36:46.999Z</time></trkpt><trkpt lat="45.48262708135191" lon="10.321193467613519"><ele>134.0</ele><time>2026-03-29T16:36:47.999Z</time></trkpt><trkpt lat="45.48269282683712" lon="10.320883187861643"><ele>135.0</ele><time>2026-03-29T16:36:48.999Z</time></trkpt><trkpt lat="45.48276104368692" lon="10.32058091945398"><ele>135.0</ele><time>2026-03-29T16:36:49.999Z</time></trkpt><trkpt lat="45.482827088805216" lon="10.320296191574382"><ele>135.0</ele><time>2026-03-29T16:36:50.999Z</time></trkpt><trkpt lat="45.482895496003906" lon="10.320005319448027"><ele>135.0</ele><time>2026-03-29T16:36:51.999Z</time></trkpt><trkpt lat="45.48296360765945" lon="10.319715138702492"><ele>135.33333333333334</ele><time>2026-03-29T16:36:52.999Z</time></trkpt><trkpt lat="45.48302476528335" lon="10.319441248358649"><ele>135.66666666666669</ele><time>2026-03-29T16:36:53.999Z</time></trkpt><trkpt lat="45.48308327513135" lon="10.319165252850363"><ele>136.0</ele><time>2026-03-29T16:36:54.999Z</time></trkpt><trkpt lat="45.483146995929644" lon="10.318885022924627"><ele>136.33333333333334</ele><time>2026-03-29T16:36:55.999Z</time></trkpt><trkpt lat="45.483213209261045" lon="10.318606702856796"><ele>136.66666666666666</ele><time>2026-03-29T16:36:56.999Z</time></trkpt><trkpt lat="45.48327301675554" lon="10.318319958050452"><ele>137.0</ele><time>2026-03-29T16:36:57.999Z</time></trkpt><trkpt lat="45.48333779895561" lon="10.318039974897053"><ele>136.0</ele><time>2026-03-29T16:36:58.999Z</time></trkpt><trkpt lat="45.483395840218016" lon="10.317740981669862"><ele>135.0</ele><time>2026-03-29T16:36:59.999Z</time></trkpt><trkpt lat="45.483450797499884" lon="10.317424442040457"><ele>134.0</ele><time>2026-03-29T16:37:00.999Z</time></trkpt><trkpt lat="45.48351865055825" lon="10.317113994236564"><ele>134.0</ele><time>2026-03-29T16:37:01.999Z</time></trkpt><trkpt lat="45.483589795558885" lon="10.316794737349273"><ele>134.0</ele><time>2026-03-29T16:37:02.999Z</time></trkpt><trkpt lat="45.483652910517414" lon="10.316460917219958"><ele>134.0</ele><time>2026-03-29T16:37:03.999Z</time></trkpt><trkpt lat="45.48373393042279" lon="10.316131151952977"><ele>134.0</ele><time>2026-03-29T16:37:04.999Z</time></trkpt><trkpt lat="45.48381163844888" lon="10.315797242847491"><ele>135.5</ele><time>2026-03-29T16:37:05.999Z</time></trkpt><trkpt lat="45.483889157783054" lon="10.315452374588551"><ele>137.0</ele><time>2026-03-29T16:37:06.999Z</time></trkpt><trkpt lat="45.483966374701886" lon="10.315107309514122"><ele>137.0</ele><time>2026-03-29T16:37:07.999Z</time></trkpt><trkpt lat="45.48404941558474" lon="10.314765909418822"><ele>137.0</ele><time>2026-03-29T16:37:08.999Z</time></trkpt><trkpt lat="45.48413432675138" lon="10.314430287309188"><ele>136.5</ele><time>2026-03-29T16:37:09.999Z</time></trkpt><trkpt lat="45.484219832968705" lon="10.314094154235065"><ele>136.0</ele><time>2026-03-29T16:37:10.999Z</time></trkpt><trkpt lat="45.48431125952059" lon="10.31376534501151"><ele>135.5</ele><time>2026-03-29T16:37:11.999Z</time></trkpt><trkpt lat="45.48440335047069" lon="10.313443422443074"><ele>135.0</ele><time>2026-03-29T16:37:12.999Z</time></trkpt><trkpt lat="45.48448885727928" lon="10.313121790471593"><ele>134.5</ele><time>2026-03-29T16:37:13.999Z</time></trkpt><trkpt lat="45.484568345555054" lon="10.31280575492568"><ele>134.0</ele><time>2026-03-29T16:37:14.999Z</time></trkpt><trkpt lat="45.48464678871836" lon="10.312489300694605"><ele>135.0</ele><time>2026-03-29T16:37:15.999Z</time></trkpt><trkpt lat="45.484725062610565" lon="10.31217051995253"><ele>136.0</ele><time>2026-03-29T16:37:16.999Z</time></trkpt><trkpt lat="45.48480602668881" lon="10.311851946626529"><ele>136.0</ele><time>2026-03-29T16:37:17.999Z</time></trkpt><trkpt lat="45.48489177964244" lon="10.311529489793038"><ele>136.0</ele><time>2026-03-29T16:37:18.999Z</time></trkpt><trkpt lat="45.48497075726452" lon="10.311208295144755"><ele>136.0</ele><time>2026-03-29T16:37:19.999Z</time></trkpt><trkpt lat="45.485053820033556" lon="10.310884975502894"><ele>136.0</ele><time>2026-03-29T16:37:20.999Z</time></trkpt><trkpt lat="45.48513177891552" lon="10.310556374110961"><ele>136.0</ele><time>2026-03-29T16:37:21.999Z</time></trkpt><trkpt lat="45.4852088044393" lon="10.3102325188562"><ele>136.0</ele><time>2026-03-29T16:37:22.999Z</time></trkpt><trkpt lat="45.485288722559474" lon="10.30990269694146"><ele>135.5</ele><time>2026-03-29T16:37:23.999Z</time></trkpt><trkpt lat="45.48537822618268" lon="10.309571723700621"><ele>135.0</ele><time>2026-03-29T16:37:24.999Z</time></trkpt><trkpt lat="45.48545995294743" lon="10.309240926374752"><ele>134.5</ele><time>2026-03-29T16:37:25.999Z</time></trkpt><trkpt lat="45.48554130312751" lon="10.308907076688484"><ele>134.0</ele><time>2026-03-29T16:37:26.999Z</time></trkpt><trkpt lat="45.485625097036014" lon="10.308577985620007"><ele>134.0</ele><time>2026-03-29T16:37:27.999Z</time></trkpt><trkpt lat="45.48570906563043" lon="10.308255743949273"><ele>134.0</ele><time>2026-03-29T16:37:28.999Z</time></trkpt><trkpt lat="45.485792750291196" lon="10.307925799315349"><ele>133.5</ele><time>2026-03-29T16:37:30Z</time></trkpt><trkpt lat="45.4858742581294" lon="10.307609317923923"><ele>133.0</ele><time>2026-03-29T16:37:31Z</time></trkpt><trkpt lat="45.48595353416399" lon="10.307289003115507"><ele>132.5</ele><time>2026-03-29T16:37:32Z</time></trkpt><trkpt lat="45.48603123805203" lon="10.306969773533632"><ele>132.0</ele><time>2026-03-29T16:37:33Z</time></trkpt><trkpt lat="45.486112731647566" lon="10.306647748980014"><ele>132.0</ele><time>2026-03-29T16:37:34Z</time></trkpt><trkpt lat="45.48619281433961" lon="10.306319139669192"><ele>132.0</ele><time>2026-03-29T16:37:35Z</time></trkpt><trkpt lat="45.48627476862541" lon="10.30599349164591"><ele>132.0</ele><time>2026-03-29T16:37:36Z</time></trkpt><trkpt lat="45.48635907960849" lon="10.305663999620217"><ele>132.0</ele><time>2026-03-29T16:37:37Z</time></trkpt><trkpt lat="45.48644109694959" lon="10.305340885603254"><ele>132.5</ele><time>2026-03-29T16:37:38Z</time></trkpt><trkpt lat="45.48651669089152" lon="10.305014887098736"><ele>133.0</ele><time>2026-03-29T16:37:39Z</time></trkpt><trkpt lat="45.48659781272621" lon="10.304691289340145"><ele>133.0</ele><time>2026-03-29T16:37:40Z</time></trkpt><trkpt lat="45.48668230843978" lon="10.304370169843574"><ele>133.0</ele><time>2026-03-29T16:37:41Z</time></trkpt><trkpt lat="45.486765575753616" lon="10.304037864055665"><ele>132.5</ele><time>2026-03-29T16:37:42Z</time></trkpt><trkpt lat="45.486849157632996" lon="10.303711379109027"><ele>132.0</ele><time>2026-03-29T16:37:43Z</time></trkpt><trkpt lat="45.48693155612617" lon="10.303383343734737"><ele>132.0</ele><time>2026-03-29T16:37:44Z</time></trkpt><trkpt lat="45.48701370041516" lon="10.303054108391974"><ele>132.0</ele><time>2026-03-29T16:37:45Z</time></trkpt><trkpt lat="45.48709673400966" lon="10.302723211741053"><ele>132.0</ele><time>2026-03-29T16:37:46Z</time></trkpt><trkpt lat="45.48717782067294" lon="10.302387452099822"><ele>132.0</ele><time>2026-03-29T16:37:47Z</time></trkpt><trkpt lat="45.487257649904485" lon="10.30205728973933"><ele>132.5</ele><time>2026-03-29T16:37:48Z</time></trkpt><trkpt lat="45.48734355141754" lon="10.301725158055913"><ele>133.0</ele><time>2026-03-29T16:37:49Z</time></trkpt><trkpt lat="45.48742513931322" lon="10.301390678431915"><ele>132.0</ele><time>2026-03-29T16:37:50Z</time></trkpt><trkpt lat="45.48750812926077" lon="10.301058798881751"><ele>131.0</ele><time>2026-03-29T16:37:51Z</time></trkpt><trkpt lat="45.48758961472707" lon="10.300729803507044"><ele>131.0</ele><time>2026-03-29T16:37:52Z</time></trkpt><trkpt lat="45.48767374162088" lon="10.300400644124753"><ele>131.0</ele><time>2026-03-29T16:37:53Z</time></trkpt><trkpt lat="45.487757960616" lon="10.300067238341597"><ele>132.0</ele><time>2026-03-29T16:37:54Z</time></trkpt><trkpt lat="45.4878442257716" lon="10.299734429928366"><ele>133.0</ele><time>2026-03-29T16:37:55Z</time></trkpt><trkpt lat="45.4879251168321" lon="10.299397535079065"><ele>132.0</ele><time>2026-03-29T16:37:56Z</time></trkpt><trkpt lat="45.48801162265362" lon="10.299056059158033"><ele>131.0</ele><time>2026-03-29T16:37:57Z</time></trkpt><trkpt lat="45.48809750400408" lon="10.298717723504483"><ele>131.0</ele><time>2026-03-29T16:37:58Z</time></trkpt><trkpt lat="45.488182093942136" lon="10.298381562434663"><ele>131.0</ele><time>2026-03-29T16:37:59Z</time></trkpt><trkpt lat="45.48826496483578" lon="10.298050582337696"><ele>130.0</ele><time>2026-03-29T16:38:00Z</time></trkpt><trkpt lat="45.48834637768049" lon="10.297719189785857"><ele>129.0</ele><time>2026-03-29T16:38:01Z</time></trkpt><trkpt lat="45.488427660527954" lon="10.297390603032737"><ele>130.0</ele><time>2026-03-29T16:38:02Z</time></trkpt><trkpt lat="45.488511082625685" lon="10.297059193630563"><ele>131.0</ele><time>2026-03-29T16:38:03Z</time></trkpt><trkpt lat="45.48859103590636" lon="10.296736309301183"><ele>130.5</ele><time>2026-03-29T16:38:04Z</time></trkpt><trkpt lat="45.488668012129885" lon="10.296407110670943"><ele>130.0</ele><time>2026-03-29T16:38:05Z</time></trkpt><trkpt lat="45.488753373999444" lon="10.296083770483834"><ele>130.0</ele><time>2026-03-29T16:38:06Z</time></trkpt><trkpt lat="45.48883564296848" lon="10.295751045319964"><ele>130.0</ele><time>2026-03-29T16:38:07Z</time></trkpt><trkpt lat="45.48892164756715" lon="10.295418860747377"><ele>130.0</ele><time>2026-03-29T16:38:08Z</time></trkpt><trkpt lat="45.489008541381" lon="10.295078010376482"><ele>130.0</ele><time>2026-03-29T16:38:09Z</time></trkpt><trkpt lat="45.48909327561246" lon="10.29473647612336"><ele>130.0</ele><time>2026-03-29T16:38:10Z</time></trkpt><trkpt lat="45.48917074734634" lon="10.294408942946019"><ele>130.0</ele><time>2026-03-29T16:38:11Z</time></trkpt><trkpt lat="45.48925200442229" lon="10.294085923963612"><ele>130.5</ele><time>2026-03-29T16:38:12Z</time></trkpt><trkpt lat="45.489325082191534" lon="10.293782954234409"><ele>131.0</ele><time>2026-03-29T16:38:13Z</time></trkpt><trkpt lat="45.48939955890139" lon="10.293468527028699"><ele>131.0</ele><time>2026-03-29T16:38:14Z</time></trkpt><trkpt lat="45.489472736288356" lon="10.293140468664825"><ele>131.0</ele><time>2026-03-29T16:38:15Z</time></trkpt><trkpt lat="45.48955283540332" lon="10.292785419958463"><ele>130.0</ele><time>2026-03-29T16:38:16Z</time></trkpt><trkpt lat="45.48964396849913" lon="10.292409073666118"><ele>129.0</ele><time>2026-03-29T16:38:17Z</time></trkpt><trkpt lat="45.489741594411434" lon="10.292011052029217"><ele>129.0</ele><time>2026-03-29T16:38:18Z</time></trkpt><trkpt lat="45.48984021085089" lon="10.291590118508879"><ele>129.0</ele><time>2026-03-29T16:38:19Z</time></trkpt><trkpt lat="45.489952626471656" lon="10.291162551134235"><ele>129.0</ele><time>2026-03-29T16:38:20Z</time></trkpt><trkpt lat="45.49008165853965" lon="10.290735076088472"><ele>129.0</ele><time>2026-03-29T16:38:21Z</time></trkpt><trkpt lat="45.49022220227612" lon="10.29030284526408"><ele>129.5</ele><time>2026-03-29T16:38:22Z</time></trkpt><trkpt lat="45.4903651973665" lon="10.289860378764159"><ele>130.0</ele><time>2026-03-29T16:38:23Z</time></trkpt><trkpt lat="45.49049776915651" lon="10.289456130227787"><ele>129.0</ele><time>2026-03-29T16:38:24Z</time></trkpt><trkpt lat="45.490627500995686" lon="10.28905955690108"><ele>128.0</ele><time>2026-03-29T16:38:25Z</time></trkpt><trkpt lat="45.49075630177549" lon="10.288675229934773"><ele>128.0</ele><time>2026-03-29T16:38:26Z</time></trkpt><trkpt lat="45.49087071750439" lon="10.288330900882825"><ele>128.0</ele><time>2026-03-29T16:38:27Z</time></trkpt><trkpt lat="45.490983301131635" lon="10.287990179382872"><ele>128.5</ele><time>2026-03-29T16:38:28Z</time></trkpt><trkpt lat="45.491090642408665" lon="10.287647723607035"><ele>129.0</ele><time>2026-03-29T16:38:29Z</time></trkpt><trkpt lat="45.49119947644446" lon="10.287315754796932"><ele>128.0</ele><time>2026-03-29T16:38:30Z</time></trkpt><trkpt lat="45.49130829883256" lon="10.286984339952456"><ele>127.0</ele><time>2026-03-29T16:38:31Z</time></trkpt><trkpt lat="45.491414572963976" lon="10.286658252623303"><ele>127.0</ele><time>2026-03-29T16:38:32Z</time></trkpt><trkpt lat="45.49151979371922" lon="10.286330598482483"><ele>127.0</ele><time>2026-03-29T16:38:33Z</time></trkpt><trkpt lat="45.49162714133799" lon="10.286006607967265"><ele>127.0</ele><time>2026-03-29T16:38:34Z</time></trkpt><trkpt lat="45.49173549051198" lon="10.285689989680792"><ele>127.0</ele><time>2026-03-29T16:38:35Z</time></trkpt><trkpt lat="45.49184334150763" lon="10.285365705442326"><ele>127.5</ele><time>2026-03-29T16:38:36Z</time></trkpt><trkpt lat="45.49195018804374" lon="10.285044048410255"><ele>128.0</ele><time>2026-03-29T16:38:37Z</time></trkpt><trkpt lat="45.4920503620939" lon="10.284728058608067"><ele>129.5</ele><time>2026-03-29T16:38:38Z</time></trkpt><trkpt lat="45.492150732105195" lon="10.284413021326053"><ele>131.0</ele><time>2026-03-29T16:38:39Z</time></trkpt><trkpt lat="45.492251604185476" lon="10.284099982692789"><ele>129.0</ele><time>2026-03-29T16:38:40Z</time></trkpt><trkpt lat="45.492349746861564" lon="10.283794587913833"><ele>127.0</ele><time>2026-03-29T16:38:41Z</time></trkpt><trkpt lat="45.49244344761174" lon="10.283486867627472"><ele>127.0</ele><time>2026-03-29T16:38:41.999Z</time></trkpt><trkpt lat="45.49253816328163" lon="10.283184137506062"><ele>127.0</ele><time>2026-03-29T16:38:42.999Z</time></trkpt><trkpt lat="45.492637571078646" lon="10.282885949305632"><ele>127.0</ele><time>2026-03-29T16:38:43.999Z</time></trkpt><trkpt lat="45.49273661663433" lon="10.282582989933514"><ele>127.0</ele><time>2026-03-29T16:38:44.999Z</time></trkpt><trkpt lat="45.492836086975856" lon="10.282283091032962"><ele>128.5</ele><time>2026-03-29T16:38:45.999Z</time></trkpt><trkpt lat="45.49293269660703" lon="10.28198524269206"><ele>130.0</ele><time>2026-03-29T16:38:46.999Z</time></trkpt><trkpt lat="45.49302807455104" lon="10.281686310341842"><ele>129.5</ele><time>2026-03-29T16:38:47.999Z</time></trkpt><trkpt lat="45.493126469903665" lon="10.281387987153474"><ele>129.0</ele><time>2026-03-29T16:38:48.999Z</time></trkpt><trkpt lat="45.49322301571844" lon="10.281085628877387"><ele>129.0</ele><time>2026-03-29T16:38:49.999Z</time></trkpt><trkpt lat="45.49332359780485" lon="10.280784593361004"><ele>129.0</ele><time>2026-03-29T16:38:50.999Z</time></trkpt><trkpt lat="45.4934208159837" lon="10.28047590660708"><ele>129.0</ele><time>2026-03-29T16:38:51.999Z</time></trkpt><trkpt lat="45.493519549715565" lon="10.280174853635035"><ele>129.0</ele><time>2026-03-29T16:38:52.999Z</time></trkpt><trkpt lat="45.49361875302961" lon="10.279870891337314"><ele>128.5</ele><time>2026-03-29T16:38:53.999Z</time></trkpt><trkpt lat="45.49372109167721" lon="10.279564847867436"><ele>128.0</ele><time>2026-03-29T16:38:54.999Z</time></trkpt><trkpt lat="45.4938192811068" lon="10.279261536326134"><ele>128.0</ele><time>2026-03-29T16:38:55.999Z</time></trkpt><trkpt lat="45.493917712382164" lon="10.27895477716998"><ele>128.0</ele><time>2026-03-29T16:38:56.999Z</time></trkpt><trkpt lat="45.49401928335983" lon="10.278649404413244"><ele>128.0</ele><time>2026-03-29T16:38:57.999Z</time></trkpt><trkpt lat="45.49411962609609" lon="10.278344533115575"><ele>128.0</ele><time>2026-03-29T16:38:58.999Z</time></trkpt><trkpt lat="45.49421883056423" lon="10.278045498732933"><ele>128.5</ele><time>2026-03-29T16:38:59.999Z</time></trkpt><trkpt lat="45.494318736921606" lon="10.277744098098646"><ele>129.0</ele><time>2026-03-29T16:39:00.999Z</time></trkpt><trkpt lat="45.494412506504176" lon="10.277438725421714"><ele>128.5</ele><time>2026-03-29T16:39:01.999Z</time></trkpt><trkpt lat="45.49451231894687" lon="10.277137955576553"><ele>128.0</ele><time>2026-03-29T16:39:02.999Z</time></trkpt><trkpt lat="45.49461653823788" lon="10.276837031444717"><ele>128.0</ele><time>2026-03-29T16:39:03.999Z</time></trkpt><trkpt lat="45.49471732714702" lon="10.27653497437507"><ele>128.0</ele><time>2026-03-29T16:39:04.999Z</time></trkpt><trkpt lat="45.49482066725193" lon="10.276227463930859"><ele>128.0</ele><time>2026-03-29T16:39:05.999Z</time></trkpt><trkpt lat="45.494922286383485" lon="10.27591666828366"><ele>128.0</ele><time>2026-03-29T16:39:06.999Z</time></trkpt><trkpt lat="45.495026610014115" lon="10.275603421656673"><ele>128.0</ele><time>2026-03-29T16:39:07.999Z</time></trkpt><trkpt lat="45.49512475641014" lon="10.275284185118604"><ele>128.0</ele><time>2026-03-29T16:39:08.999Z</time></trkpt><trkpt lat="45.495225516479856" lon="10.274969273269665"><ele>127.5</ele><time>2026-03-29T16:39:09.999Z</time></trkpt><trkpt lat="45.49532513494562" lon="10.274652177810227"><ele>127.0</ele><time>2026-03-29T16:39:10.999Z</time></trkpt><trkpt lat="45.495420353358476" lon="10.274325113905245"><ele>127.0</ele><time>2026-03-29T16:39:11.999Z</time></trkpt><trkpt lat="45.49551030418404" lon="10.273995615120914"><ele>127.0</ele><time>2026-03-29T16:39:12.999Z</time></trkpt><trkpt lat="45.49559980669374" lon="10.273669673590948"><ele>127.0</ele><time>2026-03-29T16:39:13.999Z</time></trkpt><trkpt lat="45.4956947850582" lon="10.273342416118089"><ele>127.0</ele><time>2026-03-29T16:39:14.999Z</time></trkpt><trkpt lat="45.495788375883755" lon="10.273025236183736"><ele>126.0</ele><time>2026-03-29T16:39:15.999Z</time></trkpt><trkpt lat="45.49588115508122" lon="10.272705327784365"><ele>125.0</ele><time>2026-03-29T16:39:16.999Z</time></trkpt><trkpt lat="45.495990696508066" lon="10.272399116026426"><ele>124.5</ele><time>2026-03-29T16:39:17.999Z</time></trkpt><trkpt lat="45.49605920556219" lon="10.272067415213526"><ele>124.0</ele><time>2026-03-29T16:39:18.999Z</time></trkpt><trkpt lat="45.496144451304836" lon="10.27175672168487"><ele>124.0</ele><time>2026-03-29T16:39:19.999Z</time></trkpt><trkpt lat="45.49623046515793" lon="10.271444303085095"><ele>124.0</ele><time>2026-03-29T16:39:20.999Z</time></trkpt><trkpt lat="45.49632014386695" lon="10.271126887064398"><ele>124.5</ele><time>2026-03-29T16:39:21.999Z</time></trkpt><trkpt lat="45.49640971324542" lon="10.270811035185824"><ele>125.0</ele><time>2026-03-29T16:39:22.999Z</time></trkpt><trkpt lat="45.49649997247822" lon="10.270490879207033"><ele>125.0</ele><time>2026-03-29T16:39:23.999Z</time></trkpt><trkpt lat="45.49658889674785" lon="10.270169729772197"><ele>125.0</ele><time>2026-03-29T16:39:24.999Z</time></trkpt><trkpt lat="45.496676627718756" lon="10.26984656350168"><ele>123.5</ele><time>2026-03-29T16:39:25.999Z</time></trkpt><trkpt lat="45.49675952090502" lon="10.269516053658544"><ele>122.0</ele><time>2026-03-29T16:39:26.999Z</time></trkpt><trkpt lat="45.496842492681026" lon="10.269175217121665"><ele>124.0</ele><time>2026-03-29T16:39:27.999Z</time></trkpt><trkpt lat="45.49693021641683" lon="10.268832349306612"><ele>126.0</ele><time>2026-03-29T16:39:28.999Z</time></trkpt><trkpt lat="45.49702594537485" lon="10.268480325724333"><ele>124.5</ele><time>2026-03-29T16:39:29.999Z</time></trkpt><trkpt lat="45.497125775058215" lon="10.268134041798396"><ele>123.0</ele><time>2026-03-29T16:39:30.999Z</time></trkpt><trkpt lat="45.49721779691078" lon="10.26778657983061"><ele>123.0</ele><time>2026-03-29T16:39:31.999Z</time></trkpt><trkpt lat="45.49731378028483" lon="10.267425189890856"><ele>123.0</ele><time>2026-03-29T16:39:32.999Z</time></trkpt><trkpt lat="45.497412998967356" lon="10.267073296748032"><ele>122.5</ele><time>2026-03-29T16:39:33.999Z</time></trkpt><trkpt lat="45.49751809059103" lon="10.26671243423769"><ele>122.0</ele><time>2026-03-29T16:39:34.999Z</time></trkpt><trkpt lat="45.49762794475627" lon="10.266343125991266"><ele>121.0</ele><time>2026-03-29T16:39:36Z</time></trkpt><trkpt lat="45.49773388456133" lon="10.265976535076934"><ele>120.0</ele><time>2026-03-29T16:39:37Z</time></trkpt><trkpt lat="45.49784089608744" lon="10.26560622785038"><ele>121.5</ele><time>2026-03-29T16:39:38Z</time></trkpt><trkpt lat="45.49794907673459" lon="10.265234863128724"><ele>123.0</ele><time>2026-03-29T16:39:39Z</time></trkpt><trkpt lat="45.49805233588424" lon="10.264862059497984"><ele>121.5</ele><time>2026-03-29T16:39:40Z</time></trkpt><trkpt lat="45.49815263485667" lon="10.264484945835992"><ele>120.0</ele><time>2026-03-29T16:39:41Z</time></trkpt><trkpt lat="45.4982515932801" lon="10.264117717597074"><ele>120.0</ele><time>2026-03-29T16:39:42Z</time></trkpt><trkpt lat="45.498349926952486" lon="10.26375193533905"><ele>120.0</ele><time>2026-03-29T16:39:43Z</time></trkpt><trkpt lat="45.4984548306334" lon="10.263378911621624"><ele>119.0</ele><time>2026-03-29T16:39:44Z</time></trkpt><trkpt lat="45.498563370386805" lon="10.26300140069579"><ele>118.0</ele><time>2026-03-29T16:39:45Z</time></trkpt><trkpt lat="45.49867197751825" lon="10.262620810354846"><ele>118.5</ele><time>2026-03-29T16:39:46Z</time></trkpt><trkpt lat="45.498779965292336" lon="10.262231016148986"><ele>119.0</ele><time>2026-03-29T16:39:47Z</time></trkpt><trkpt lat="45.49889611774036" lon="10.26183840326851"><ele>119.0</ele><time>2026-03-29T16:39:48Z</time></trkpt><trkpt lat="45.49901751819532" lon="10.261418109674928"><ele>119.0</ele><time>2026-03-29T16:39:49Z</time></trkpt><trkpt lat="45.49914986815487" lon="10.260989281871685"><ele>119.5</ele><time>2026-03-29T16:39:50Z</time></trkpt><trkpt lat="45.49929609739803" lon="10.260556142950266"><ele>120.0</ele><time>2026-03-29T16:39:51Z</time></trkpt><trkpt lat="45.4994136797977" lon="10.260146237458445"><ele>119.5</ele><time>2026-03-29T16:39:52Z</time></trkpt><trkpt lat="45.499518300918325" lon="10.259779343523013"><ele>119.0</ele><time>2026-03-29T16:39:53Z</time></trkpt><trkpt lat="45.49960962198366" lon="10.259435034600914"><ele>119.0</ele><time>2026-03-29T16:39:54Z</time></trkpt><trkpt lat="45.49969981668031" lon="10.259090872224242"><ele>119.0</ele><time>2026-03-29T16:39:55Z</time></trkpt><trkpt lat="45.49979454269988" lon="10.258754809758095"><ele>120.5</ele><time>2026-03-29T16:39:56Z</time></trkpt><trkpt lat="45.49989042508869" lon="10.258421643643919"><ele>122.0</ele><time>2026-03-29T16:39:57Z</time></trkpt><trkpt lat="45.4999890873651" lon="10.258093455031302"><ele>122.0</ele><time>2026-03-29T16:39:58Z</time></trkpt><trkpt lat="45.50008234660922" lon="10.257766252442181"><ele>122.0</ele><time>2026-03-29T16:39:59Z</time></trkpt><trkpt lat="45.500178726948015" lon="10.257440718991218"><ele>121.0</ele><time>2026-03-29T16:40:00Z</time></trkpt><trkpt lat="45.500273457417556" lon="10.257123432491573"><ele>120.0</ele><time>2026-03-29T16:40:01Z</time></trkpt><trkpt lat="45.50036396066373" lon="10.256799768928925"><ele>119.5</ele><time>2026-03-29T16:40:02Z</time></trkpt><trkpt lat="45.500452767661166" lon="10.256481198643135"><ele>119.0</ele><time>2026-03-29T16:40:03Z</time></trkpt><trkpt lat="45.50054355253079" lon="10.25615793003828"><ele>119.0</ele><time>2026-03-29T16:40:04Z</time></trkpt><trkpt lat="45.50063463561504" lon="10.255833543778891"><ele>119.0</ele><time>2026-03-29T16:40:05Z</time></trkpt><trkpt lat="45.50072634916414" lon="10.255506305570641"><ele>118.5</ele><time>2026-03-29T16:40:06Z</time></trkpt><trkpt lat="45.50081926196737" lon="10.255179959073729"><ele>118.0</ele><time>2026-03-29T16:40:07Z</time></trkpt><trkpt lat="45.500907007616796" lon="10.254851188764597"><ele>117.5</ele><time>2026-03-29T16:40:08Z</time></trkpt><trkpt lat="45.50100376321829" lon="10.254526521212712"><ele>117.0</ele><time>2026-03-29T16:40:09Z</time></trkpt><trkpt lat="45.50109284666328" lon="10.25419783902253"><ele>116.5</ele><time>2026-03-29T16:40:10Z</time></trkpt><trkpt lat="45.50118520515288" lon="10.253871083643089"><ele>116.0</ele><time>2026-03-29T16:40:11Z</time></trkpt><trkpt lat="45.5012792410848" lon="10.253543285794144"><ele>116.5</ele><time>2026-03-29T16:40:12Z</time></trkpt><trkpt lat="45.5013714938827" lon="10.253218345322255"><ele>117.0</ele><time>2026-03-29T16:40:13Z</time></trkpt><trkpt lat="45.50146077881743" lon="10.252904813094577"><ele>117.0</ele><time>2026-03-29T16:40:14Z</time></trkpt><trkpt lat="45.50154661036376" lon="10.252588438168448"><ele>117.0</ele><time>2026-03-29T16:40:15Z</time></trkpt><trkpt lat="45.50163616140247" lon="10.25226581540006"><ele>117.0</ele><time>2026-03-29T16:40:16Z</time></trkpt><trkpt lat="45.50172507079341" lon="10.251942780464965"><ele>117.0</ele><time>2026-03-29T16:40:17Z</time></trkpt><trkpt lat="45.501813097177845" lon="10.251627333853268"><ele>117.0</ele><time>2026-03-29T16:40:18Z</time></trkpt><trkpt lat="45.50190434546473" lon="10.25131706952253"><ele>117.0</ele><time>2026-03-29T16:40:19Z</time></trkpt><trkpt lat="45.501989400443556" lon="10.25101191361278"><ele>117.0</ele><time>2026-03-29T16:40:20Z</time></trkpt><trkpt lat="45.502073796885774" lon="10.250703223148857"><ele>117.0</ele><time>2026-03-29T16:40:21Z</time></trkpt><trkpt lat="45.50216283932896" lon="10.250399705441614"><ele>117.5</ele><time>2026-03-29T16:40:22Z</time></trkpt><trkpt lat="45.50225064663731" lon="10.250099683639226"><ele>118.0</ele><time>2026-03-29T16:40:23Z</time></trkpt><trkpt lat="45.50233209614941" lon="10.249803387026079"><ele>118.0</ele><time>2026-03-29T16:40:24Z</time></trkpt><trkpt lat="45.50241166154579" lon="10.249497263575366"><ele>118.0</ele><time>2026-03-29T16:40:25Z</time></trkpt><trkpt lat="45.50248766777041" lon="10.24918753287909"><ele>117.0</ele><time>2026-03-29T16:40:26Z</time></trkpt><trkpt lat="45.50255885640118" lon="10.248866502371103"><ele>116.0</ele><time>2026-03-29T16:40:27Z</time></trkpt><trkpt lat="45.50262597668748" lon="10.248547743833544"><ele>116.0</ele><time>2026-03-29T16:40:28Z</time></trkpt><trkpt lat="45.50270132060377" lon="10.24823365874426"><ele>116.0</ele><time>2026-03-29T16:40:29Z</time></trkpt><trkpt lat="45.502769199589885" lon="10.247922010816358"><ele>116.0</ele><time>2026-03-29T16:40:30Z</time></trkpt><trkpt lat="45.50283739289888" lon="10.247607648230277"><ele>116.0</ele><time>2026-03-29T16:40:31Z</time></trkpt><trkpt lat="45.50290694726468" lon="10.247292984739623"><ele>118.0</ele><time>2026-03-29T16:40:32Z</time></trkpt><trkpt lat="45.5029765284538" lon="10.246972619492832"><ele>120.0</ele><time>2026-03-29T16:40:33Z</time></trkpt><trkpt lat="45.50305005698704" lon="10.246655179952397"><ele>119.5</ele><time>2026-03-29T16:40:34Z</time></trkpt><trkpt lat="45.50312337521926" lon="10.246343196376952"><ele>119.0</ele><time>2026-03-29T16:40:35Z</time></trkpt><trkpt lat="45.50319502165781" lon="10.246018005469042"><ele>119.0</ele><time>2026-03-29T16:40:36Z</time></trkpt><trkpt lat="45.50326606045974" lon="10.245697705695118"><ele>119.0</ele><time>2026-03-29T16:40:37Z</time></trkpt><trkpt lat="45.503340179311685" lon="10.245374540901162"><ele>119.0</ele><time>2026-03-29T16:40:38Z</time></trkpt><trkpt lat="45.50341488018821" lon="10.245054113756071"><ele>119.0</ele><time>2026-03-29T16:40:39Z</time></trkpt><trkpt lat="45.50349111982841" lon="10.244730520042546"><ele>119.0</ele><time>2026-03-29T16:40:40Z</time></trkpt><trkpt lat="45.503564419812506" lon="10.244398539345298"><ele>119.0</ele><time>2026-03-29T16:40:41Z</time></trkpt><trkpt lat="45.50363575836678" lon="10.244064087580648"><ele>119.0</ele><time>2026-03-29T16:40:42Z</time></trkpt><trkpt lat="45.503710701409624" lon="10.243731511001275"><ele>119.0</ele><time>2026-03-29T16:40:43Z</time></trkpt><trkpt lat="45.503784155212706" lon="10.243399939779078"><ele>117.0</ele><time>2026-03-29T16:40:44Z</time></trkpt><trkpt lat="45.50385994301162" lon="10.243072437800278"><ele>115.0</ele><time>2026-03-29T16:40:45Z</time></trkpt><trkpt lat="45.503930182010514" lon="10.242749929210534"><ele>115.0</ele><time>2026-03-29T16:40:46Z</time></trkpt><trkpt lat="45.50400394789497" lon="10.242427648089357"><ele>115.0</ele><time>2026-03-29T16:40:46.999Z</time></trkpt><trkpt lat="45.50407439028687" lon="10.242116334671415"><ele>115.0</ele><time>2026-03-29T16:40:47.999Z</time></trkpt><trkpt lat="45.50414756135092" lon="10.241800174610423"><ele>115.0</ele><time>2026-03-29T16:40:48.999Z</time></trkpt><trkpt lat="45.50421986947459" lon="10.241482602949764"><ele>117.0</ele><time>2026-03-29T16:40:49.999Z</time></trkpt><trkpt lat="45.50429537621866" lon="10.241170226988249"><ele>119.0</ele><time>2026-03-29T16:40:50.999Z</time></trkpt><trkpt lat="45.5043633519322" lon="10.24084724276895"><ele>119.5</ele><time>2026-03-29T16:40:51.999Z</time></trkpt><trkpt lat="45.50443745244773" lon="10.24053406531406"><ele>120.0</ele><time>2026-03-29T16:40:52.999Z</time></trkpt><trkpt lat="45.504515333452176" lon="10.240212090912417"><ele>120.5</ele><time>2026-03-29T16:40:53.999Z</time></trkpt><trkpt lat="45.50458729575999" lon="10.239889853736587"><ele>121.0</ele><time>2026-03-29T16:40:54.999Z</time></trkpt><trkpt lat="45.504656926982776" lon="10.23956268795202"><ele>121.5</ele><time>2026-03-29T16:40:55.999Z</time></trkpt><trkpt lat="45.50473400615076" lon="10.239245714167184"><ele>122.0</ele><time>2026-03-29T16:40:56.999Z</time></trkpt><trkpt lat="45.504803771025784" lon="10.23892461814001"><ele>120.0</ele><time>2026-03-29T16:40:57.999Z</time></trkpt><trkpt lat="45.50488044524158" lon="10.238606957630447"><ele>118.0</ele><time>2026-03-29T16:40:58.999Z</time></trkpt><trkpt lat="45.50495714130333" lon="10.238283167554522"><ele>116.5</ele><time>2026-03-29T16:40:59.999Z</time></trkpt><trkpt lat="45.5050302846516" lon="10.237956871956793"><ele>115.0</ele><time>2026-03-29T16:41:00.999Z</time></trkpt><trkpt lat="45.505103213429344" lon="10.237634100328998"><ele>115.0</ele><time>2026-03-29T16:41:01.999Z</time></trkpt><trkpt lat="45.50517779726069" lon="10.237306595562222"><ele>115.0</ele><time>2026-03-29T16:41:02.999Z</time></trkpt><trkpt lat="45.50525551308341" lon="10.23698094612523"><ele>115.5</ele><time>2026-03-29T16:41:03.999Z</time></trkpt><trkpt lat="45.505334667408476" lon="10.236656065275415"><ele>116.0</ele><time>2026-03-29T16:41:04.999Z</time></trkpt><trkpt lat="45.50540707523865" lon="10.23633205071865"><ele>115.0</ele><time>2026-03-29T16:41:05.999Z</time></trkpt><trkpt lat="45.50548180700766" lon="10.236007844226714"><ele>114.0</ele><time>2026-03-29T16:41:06.999Z</time></trkpt><trkpt lat="45.50555168035561" lon="10.235685463970366"><ele>113.5</ele><time>2026-03-29T16:41:07.999Z</time></trkpt><trkpt lat="45.505621192550386" lon="10.235359301945186"><ele>113.0</ele><time>2026-03-29T16:41:08.999Z</time></trkpt><trkpt lat="45.5056963002647" lon="10.235027960994397"><ele>113.5</ele><time>2026-03-29T16:41:09.999Z</time></trkpt><trkpt lat="45.505769230350545" lon="10.234702530072203"><ele>114.0</ele><time>2026-03-29T16:41:10.999Z</time></trkpt><trkpt lat="45.50583919455161" lon="10.234377084944313"><ele>114.0</ele><time>2026-03-29T16:41:11.999Z</time></trkpt><trkpt lat="45.50590651474959" lon="10.234050645781911"><ele>114.0</ele><time>2026-03-29T16:41:12.999Z</time></trkpt><trkpt lat="45.50596880756639" lon="10.233727929923965"><ele>114.0</ele><time>2026-03-29T16:41:13.999Z</time></trkpt><trkpt lat="45.506025196278465" lon="10.233400152738136"><ele>114.0</ele><time>2026-03-29T16:41:14.999Z</time></trkpt><trkpt lat="45.506078849766986" lon="10.233066463175353"><ele>113.0</ele><time>2026-03-29T16:41:15.999Z</time></trkpt><trkpt lat="45.50612976484396" lon="10.232730502642065"><ele>112.0</ele><time>2026-03-29T16:41:16.999Z</time></trkpt><trkpt lat="45.50617830403062" lon="10.232396305917517"><ele>113.0</ele><time>2026-03-29T16:41:17.999Z</time></trkpt><trkpt lat="45.50621908168214" lon="10.232058646346003"><ele>114.0</ele><time>2026-03-29T16:41:18.999Z</time></trkpt><trkpt lat="45.50626540291162" lon="10.231717087500039"><ele>114.0</ele><time>2026-03-29T16:41:19.999Z</time></trkpt><trkpt lat="45.50631317231658" lon="10.231373542314094"><ele>114.0</ele><time>2026-03-29T16:41:20.999Z</time></trkpt><trkpt lat="45.50635890674209" lon="10.231019228269824"><ele>114.0</ele><time>2026-03-29T16:41:21.999Z</time></trkpt><trkpt lat="45.50640217238117" lon="10.230669483030288"><ele>114.0</ele><time>2026-03-29T16:41:22.999Z</time></trkpt><trkpt lat="45.506442690381334" lon="10.230330606880264"><ele>114.5</ele><time>2026-03-29T16:41:23.999Z</time></trkpt><trkpt lat="45.50648595870313" lon="10.229991138705131"><ele>115.0</ele><time>2026-03-29T16:41:24.999Z</time></trkpt><trkpt lat="45.50652929128477" lon="10.22964715394549"><ele>114.0</ele><time>2026-03-29T16:41:25.999Z</time></trkpt><trkpt lat="45.506576731633665" lon="10.229303226597933"><ele>113.0</ele><time>2026-03-29T16:41:26.999Z</time></trkpt><trkpt lat="45.50662069075108" lon="10.228949661159216"><ele>112.5</ele><time>2026-03-29T16:41:27.999Z</time></trkpt><trkpt lat="45.5066687060956" lon="10.228600888158999"><ele>112.0</ele><time>2026-03-29T16:41:28.999Z</time></trkpt><trkpt lat="45.506717665913634" lon="10.228254873472792"><ele>111.5</ele><time>2026-03-29T16:41:29.999Z</time></trkpt><trkpt lat="45.506767173293106" lon="10.22791165927422"><ele>111.0</ele><time>2026-03-29T16:41:30.999Z</time></trkpt><trkpt lat="45.50682300081614" lon="10.227567284148812"><ele>112.5</ele><time>2026-03-29T16:41:31.999Z</time></trkpt><trkpt lat="45.50688764107417" lon="10.22723242484275"><ele>114.0</ele><time>2026-03-29T16:41:32.999Z</time></trkpt><trkpt lat="45.506950261468084" lon="10.226900560404966"><ele>114.0</ele><time>2026-03-29T16:41:33.999Z</time></trkpt><trkpt lat="45.507021411940705" lon="10.226566810070466"><ele>114.0</ele><time>2026-03-29T16:41:34.999Z</time></trkpt><trkpt lat="45.50708871991523" lon="10.226232507981013"><ele>115.0</ele><time>2026-03-29T16:41:35.999Z</time></trkpt><trkpt lat="45.50716322162256" lon="10.225898416304457"><ele>116.0</ele><time>2026-03-29T16:41:36.999Z</time></trkpt><trkpt lat="45.5072364706958" lon="10.225564925685571"><ele>117.5</ele><time>2026-03-29T16:41:37.999Z</time></trkpt><trkpt lat="45.507314541031405" lon="10.22523914028998"><ele>119.0</ele><time>2026-03-29T16:41:38.999Z</time></trkpt><trkpt lat="45.50739808358257" lon="10.224916757024602"><ele>120.0</ele><time>2026-03-29T16:41:39.999Z</time></trkpt><trkpt lat="45.50748248795372" lon="10.224590601533599"><ele>121.0</ele><time>2026-03-29T16:41:40.999Z</time></trkpt><trkpt lat="45.50757098291355" lon="10.224263241872688"><ele>120.5</ele><time>2026-03-29T16:41:42Z</time></trkpt><trkpt lat="45.50766608428387" lon="10.22394073249459"><ele>120.0</ele><time>2026-03-29T16:41:43Z</time></trkpt><trkpt lat="45.50776510196613" lon="10.223619116225105"><ele>120.0</ele><time>2026-03-29T16:41:44Z</time></trkpt><trkpt lat="45.5078705501697" lon="10.223304515522864"><ele>120.0</ele><time>2026-03-29T16:41:45Z</time></trkpt><trkpt lat="45.507983050650346" lon="10.222996518579341"><ele>118.0</ele><time>2026-03-29T16:41:46Z</time></trkpt><trkpt lat="45.50809266532769" lon="10.222688296373258"><ele>116.0</ele><time>2026-03-29T16:41:47Z</time></trkpt><trkpt lat="45.50820121704605" lon="10.222376913671933"><ele>116.5</ele><time>2026-03-29T16:41:48Z</time></trkpt><trkpt lat="45.50831592245566" lon="10.222062977896751"><ele>117.0</ele><time>2026-03-29T16:41:49Z</time></trkpt><trkpt lat="45.50843890439536" lon="10.221749677070544"><ele>117.5</ele><time>2026-03-29T16:41:50Z</time></trkpt><trkpt lat="45.508561086548234" lon="10.22142589435471"><ele>118.0</ele><time>2026-03-29T16:41:51Z</time></trkpt><trkpt lat="45.508693146911824" lon="10.221106187992412"><ele>117.5</ele><time>2026-03-29T16:41:52Z</time></trkpt><trkpt lat="45.508826903784886" lon="10.220788235398954"><ele>117.0</ele><time>2026-03-29T16:41:53Z</time></trkpt><trkpt lat="45.50895289867695" lon="10.22049254000895"><ele>117.0</ele><time>2026-03-29T16:41:54Z</time></trkpt><trkpt lat="45.50908009896476" lon="10.220200714308852"><ele>117.0</ele><time>2026-03-29T16:41:55Z</time></trkpt><trkpt lat="45.509211867491246" lon="10.219907913929422"><ele>117.0</ele><time>2026-03-29T16:41:56Z</time></trkpt><trkpt lat="45.50934613715741" lon="10.219619389686073"><ele>117.0</ele><time>2026-03-29T16:41:57Z</time></trkpt><trkpt lat="45.50947847311526" lon="10.219335183189036"><ele>117.5</ele><time>2026-03-29T16:41:58Z</time></trkpt><trkpt lat="45.50961175746033" lon="10.219048143908074"><ele>118.0</ele><time>2026-03-29T16:41:59Z</time></trkpt><trkpt lat="45.5097426086021" lon="10.21875521063515"><ele>119.0</ele><time>2026-03-29T16:42:00Z</time></trkpt><trkpt lat="45.50987827942126" lon="10.218467250067132"><ele>120.0</ele><time>2026-03-29T16:42:01Z</time></trkpt><trkpt lat="45.51000859408751" lon="10.218184860034219"><ele>120.0</ele><time>2026-03-29T16:42:02Z</time></trkpt><trkpt lat="45.51014119186977" lon="10.217901112793669"><ele>120.0</ele><time>2026-03-29T16:42:03Z</time></trkpt><trkpt lat="45.51027536373677" lon="10.217614197875978"><ele>120.0</ele><time>2026-03-29T16:42:04Z</time></trkpt><trkpt lat="45.51041287955588" lon="10.217318610480604"><ele>120.0</ele><time>2026-03-29T16:42:05Z</time></trkpt><trkpt lat="45.51054957949519" lon="10.217021796213219"><ele>120.0</ele><time>2026-03-29T16:42:06Z</time></trkpt><trkpt lat="45.51068342232001" lon="10.216726636884257"><ele>120.0</ele><time>2026-03-29T16:42:07Z</time></trkpt><trkpt lat="45.510817829270515" lon="10.216427947560874"><ele>119.5</ele><time>2026-03-29T16:42:08Z</time></trkpt><trkpt lat="45.51096000457769" lon="10.21612623502049"><ele>119.0</ele><time>2026-03-29T16:42:09Z</time></trkpt><trkpt lat="45.51109981542206" lon="10.215823651364415"><ele>120.0</ele><time>2026-03-29T16:42:10Z</time></trkpt><trkpt lat="45.51124268694019" lon="10.215521798056917"><ele>121.0</ele><time>2026-03-29T16:42:11Z</time></trkpt><trkpt lat="45.5113863843427" lon="10.215215242548398"><ele>121.0</ele><time>2026-03-29T16:42:12Z</time></trkpt><trkpt lat="45.51152973986773" lon="10.214899344432705"><ele>121.0</ele><time>2026-03-29T16:42:13Z</time></trkpt><trkpt lat="45.51167236130112" lon="10.21458527985915"><ele>119.5</ele><time>2026-03-29T16:42:14Z</time></trkpt><trkpt lat="45.5118173804913" lon="10.214272663063484"><ele>118.0</ele><time>2026-03-29T16:42:15Z</time></trkpt><trkpt lat="45.51195934515778" lon="10.213963119247506"><ele>118.5</ele><time>2026-03-29T16:42:16Z</time></trkpt><trkpt lat="45.512098916177" lon="10.213652586318826"><ele>119.0</ele><time>2026-03-29T16:42:17Z</time></trkpt><trkpt lat="45.51223739511462" lon="10.21334472928501"><ele>120.0</ele><time>2026-03-29T16:42:18Z</time></trkpt><trkpt lat="45.51237826595425" lon="10.213039299820082"><ele>121.0</ele><time>2026-03-29T16:42:19Z</time></trkpt><trkpt lat="45.51252337955378" lon="10.21273090390892"><ele>121.0</ele><time>2026-03-29T16:42:20Z</time></trkpt><trkpt lat="45.51266467245252" lon="10.212423127224653"><ele>121.0</ele><time>2026-03-29T16:42:21Z</time></trkpt><trkpt lat="45.512809497606156" lon="10.212105026395996"><ele>121.0</ele><time>2026-03-29T16:42:22Z</time></trkpt><trkpt lat="45.51295453927751" lon="10.211786043492044"><ele>121.0</ele><time>2026-03-29T16:42:23Z</time></trkpt><trkpt lat="45.51309771073658" lon="10.21146784526815"><ele>121.0</ele><time>2026-03-29T16:42:24Z</time></trkpt><trkpt lat="45.513244057058145" lon="10.21113718364905"><ele>121.0</ele><time>2026-03-29T16:42:25Z</time></trkpt><trkpt lat="45.51339427682452" lon="10.210814616566509"><ele>123.0</ele><time>2026-03-29T16:42:26Z</time></trkpt><trkpt lat="45.513543120440104" lon="10.210481179117552"><ele>125.0</ele><time>2026-03-29T16:42:27Z</time></trkpt><trkpt lat="45.513701176296685" lon="10.210157680146486"><ele>122.5</ele><time>2026-03-29T16:42:28Z</time></trkpt><trkpt lat="45.513859177007255" lon="10.209835227852015"><ele>120.0</ele><time>2026-03-29T16:42:29Z</time></trkpt><trkpt lat="45.514018156748435" lon="10.209505097513128"><ele>119.5</ele><time>2026-03-29T16:42:30Z</time></trkpt><trkpt lat="45.514171871697854" lon="10.209166229557917"><ele>119.0</ele><time>2026-03-29T16:42:31Z</time></trkpt><trkpt lat="45.51433053890104" lon="10.20881492884563"><ele>119.0</ele><time>2026-03-29T16:42:32Z</time></trkpt><trkpt lat="45.51448701687707" lon="10.208475949846248"><ele>119.0</ele><time>2026-03-29T16:42:33Z</time></trkpt><trkpt lat="45.514632624217604" lon="10.208158962254997"><ele>119.0</ele><time>2026-03-29T16:42:34Z</time></trkpt><trkpt lat="45.514759806817054" lon="10.207837679025877"><ele>119.0</ele><time>2026-03-29T16:42:35Z</time></trkpt><trkpt lat="45.51491654511996" lon="10.207522207535403"><ele>120.5</ele><time>2026-03-29T16:42:36Z</time></trkpt><trkpt lat="45.5150636371334" lon="10.207205869889037"><ele>122.0</ele><time>2026-03-29T16:42:37Z</time></trkpt><trkpt lat="45.515212303467834" lon="10.20688790183696"><ele>122.0</ele><time>2026-03-29T16:42:38Z</time></trkpt><trkpt lat="45.51536045855704" lon="10.20657572152679"><ele>122.0</ele><time>2026-03-29T16:42:39Z</time></trkpt><trkpt lat="45.51550509289858" lon="10.206256672406571"><ele>121.5</ele><time>2026-03-29T16:42:40Z</time></trkpt><trkpt lat="45.51565497415142" lon="10.205936018335343"><ele>121.0</ele><time>2026-03-29T16:42:41Z</time></trkpt><trkpt lat="45.51580616418101" lon="10.205607134525392"><ele>121.0</ele><time>2026-03-29T16:42:42Z</time></trkpt><trkpt lat="45.515963008141185" lon="10.205272298902917"><ele>121.0</ele><time>2026-03-29T16:42:43Z</time></trkpt><trkpt lat="45.51611479782039" lon="10.20494277824805"><ele>121.0</ele><time>2026-03-29T16:42:44Z</time></trkpt><trkpt lat="45.51626619375418" lon="10.204617016072579"><ele>121.0</ele><time>2026-03-29T16:42:45Z</time></trkpt><trkpt lat="45.51640640953344" lon="10.204285879223635"><ele>121.0</ele><time>2026-03-29T16:42:46Z</time></trkpt><trkpt lat="45.51655639344435" lon="10.203964192996056"><ele>121.0</ele><time>2026-03-29T16:42:47Z</time></trkpt><trkpt lat="45.516707082487606" lon="10.203642576145223"><ele>121.0</ele><time>2026-03-29T16:42:48Z</time></trkpt><trkpt lat="45.51685799831883" lon="10.203322119707023"><ele>121.0</ele><time>2026-03-29T16:42:49Z</time></trkpt><trkpt lat="45.51700229077309" lon="10.203003210850145"><ele>121.0</ele><time>2026-03-29T16:42:50Z</time></trkpt><trkpt lat="45.51715110271503" lon="10.202680255506138"><ele>121.0</ele><time>2026-03-29T16:42:50.999Z</time></trkpt><trkpt lat="45.51729877885029" lon="10.202350720897043"><ele>121.0</ele><time>2026-03-29T16:42:51.999Z</time></trkpt><trkpt lat="45.51744594745858" lon="10.202031010132579"><ele>121.0</ele><time>2026-03-29T16:42:52.999Z</time></trkpt><trkpt lat="45.51758717050696" lon="10.201710951847621"><ele>121.0</ele><time>2026-03-29T16:42:53.999Z</time></trkpt><trkpt lat="45.5177329931948" lon="10.2013911696522"><ele>121.0</ele><time>2026-03-29T16:42:54.999Z</time></trkpt><trkpt lat="45.51787856053545" lon="10.201069318831324"><ele>121.5</ele><time>2026-03-29T16:42:55.999Z</time></trkpt><trkpt lat="45.518011319552" lon="10.200737229665844"><ele>122.0</ele><time>2026-03-29T16:42:56.999Z</time></trkpt><trkpt lat="45.51814068383882" lon="10.200403284740464"><ele>122.0</ele><time>2026-03-29T16:42:57.999Z</time></trkpt><trkpt lat="45.51825368534413" lon="10.200058069885234"><ele>122.0</ele><time>2026-03-29T16:42:58.999Z</time></trkpt><trkpt lat="45.518366499764184" lon="10.199706305977289"><ele>122.0</ele><time>2026-03-29T16:42:59.999Z</time></trkpt><trkpt lat="45.518471085497445" lon="10.199339235591493"><ele>122.0</ele><time>2026-03-29T16:43:00.999Z</time></trkpt><trkpt lat="45.51856719604629" lon="10.198970362934062"><ele>122.0</ele><time>2026-03-29T16:43:01.999Z</time></trkpt><trkpt lat="45.51866134290456" lon="10.198591370770767"><ele>122.0</ele><time>2026-03-29T16:43:02.999Z</time></trkpt><trkpt lat="45.51873770468727" lon="10.198197315816083"><ele>122.5</ele><time>2026-03-29T16:43:03.999Z</time></trkpt><trkpt lat="45.51880930336303" lon="10.197815998803007"><ele>123.0</ele><time>2026-03-29T16:43:04.999Z</time></trkpt><trkpt lat="45.51886895578481" lon="10.197461569832248"><ele>123.5</ele><time>2026-03-29T16:43:05.999Z</time></trkpt><trkpt lat="45.51891933467054" lon="10.197101012998885"><ele>124.0</ele><time>2026-03-29T16:43:06.999Z</time></trkpt><trkpt lat="45.51896416091819" lon="10.196741349566778"><ele>123.0</ele><time>2026-03-29T16:43:07.999Z</time></trkpt><trkpt lat="45.519005786723895" lon="10.19637876565029"><ele>122.0</ele><time>2026-03-29T16:43:08.999Z</time></trkpt><trkpt lat="45.5190437852073" lon="10.196018921359048"><ele>122.0</ele><time>2026-03-29T16:43:09.999Z</time></trkpt><trkpt lat="45.51908846115874" lon="10.195654553596208"><ele>122.0</ele><time>2026-03-29T16:43:10.999Z</time></trkpt><trkpt lat="45.519120244015774" lon="10.195291838168371"><ele>122.0</ele><time>2026-03-29T16:43:11.999Z</time></trkpt><trkpt lat="45.51915519403754" lon="10.194935281733041"><ele>122.0</ele><time>2026-03-29T16:43:12.999Z</time></trkpt><trkpt lat="45.51919296804115" lon="10.194583915878914"><ele>122.5</ele><time>2026-03-29T16:43:13.999Z</time></trkpt><trkpt lat="45.51923084443521" lon="10.194235980318862"><ele>123.0</ele><time>2026-03-29T16:43:14.999Z</time></trkpt><trkpt lat="45.519267845615126" lon="10.19388550793439"><ele>123.0</ele><time>2026-03-29T16:43:15.999Z</time></trkpt><trkpt lat="45.51931212925264" lon="10.193535052337754"><ele>123.0</ele><time>2026-03-29T16:43:16.999Z</time></trkpt><trkpt lat="45.51935104615933" lon="10.193183775037255"><ele>122.5</ele><time>2026-03-29T16:43:17.999Z</time></trkpt><trkpt lat="45.51939047888231" lon="10.192833328717558"><ele>122.0</ele><time>2026-03-29T16:43:18.999Z</time></trkpt><trkpt lat="45.51943110404496" lon="10.192485154055515"><ele>122.5</ele><time>2026-03-29T16:43:19.999Z</time></trkpt><trkpt lat="45.5194711905979" lon="10.192141714604851"><ele>123.0</ele><time>2026-03-29T16:43:20.999Z</time></trkpt><trkpt lat="45.51951008188198" lon="10.191802511276276"><ele>123.0</ele><time>2026-03-29T16:43:21.999Z</time></trkpt><trkpt lat="45.51954789016021" lon="10.191465751748018"><ele>123.0</ele><time>2026-03-29T16:43:22.999Z</time></trkpt><trkpt lat="45.51958477085688" lon="10.19112651232911"><ele>123.0</ele><time>2026-03-29T16:43:23.999Z</time></trkpt><trkpt lat="45.5196198447084" lon="10.190793645010508"><ele>123.0</ele><time>2026-03-29T16:43:24.999Z</time></trkpt><trkpt lat="45.51966420962779" lon="10.190468182422654"><ele>123.0</ele><time>2026-03-29T16:43:25.999Z</time></trkpt><trkpt lat="45.51970048907609" lon="10.19011677943731"><ele>123.0</ele><time>2026-03-29T16:43:26.999Z</time></trkpt><trkpt lat="45.51973303653831" lon="10.189773947721914"><ele>122.0</ele><time>2026-03-29T16:43:27.999Z</time></trkpt><trkpt lat="45.51976175955507" lon="10.18943064353335"><ele>121.0</ele><time>2026-03-29T16:43:28.999Z</time></trkpt><trkpt lat="45.51978078671693" lon="10.18904380676404"><ele>121.5</ele><time>2026-03-29T16:43:29.999Z</time></trkpt><trkpt lat="45.51981493794631" lon="10.188658297414248"><ele>122.0</ele><time>2026-03-29T16:43:30.999Z</time></trkpt><trkpt lat="45.51985253028377" lon="10.188306271246432"><ele>122.5</ele><time>2026-03-29T16:43:31.999Z</time></trkpt><trkpt lat="45.51988905377915" lon="10.187979140960351"><ele>123.0</ele><time>2026-03-29T16:43:32.999Z</time></trkpt><trkpt lat="45.51992902738535" lon="10.187642216166257"><ele>122.5</ele><time>2026-03-29T16:43:33.999Z</time></trkpt><trkpt lat="45.51996920062746" lon="10.187318917830277"><ele>122.0</ele><time>2026-03-29T16:43:34.999Z</time></trkpt><trkpt lat="45.520009658417095" lon="10.187000584940886"><ele>122.0</ele><time>2026-03-29T16:43:35.999Z</time></trkpt><trkpt lat="45.520048205446066" lon="10.186683629459171"><ele>122.0</ele><time>2026-03-29T16:43:36.999Z</time></trkpt><trkpt lat="45.52008177308636" lon="10.186349774121421"><ele>122.0</ele><time>2026-03-29T16:43:37.999Z</time></trkpt><trkpt lat="45.52011686872831" lon="10.186022470979538"><ele>122.0</ele><time>2026-03-29T16:43:38.999Z</time></trkpt><trkpt lat="45.52016013145828" lon="10.18568832022813"><ele>122.5</ele><time>2026-03-29T16:43:39.999Z</time></trkpt><trkpt lat="45.52021857629208" lon="10.185342827701636"><ele>123.0</ele><time>2026-03-29T16:43:40.999Z</time></trkpt><trkpt lat="45.520276083334586" lon="10.184964799535775"><ele>122.5</ele><time>2026-03-29T16:43:41.999Z</time></trkpt><trkpt lat="45.52032086289758" lon="10.18456223181649"><ele>122.0</ele><time>2026-03-29T16:43:42.999Z</time></trkpt><trkpt lat="45.520367211428784" lon="10.184131651801088"><ele>123.5</ele><time>2026-03-29T16:43:43.999Z</time></trkpt><trkpt lat="45.520418257048945" lon="10.18370633337584"><ele>125.0</ele><time>2026-03-29T16:43:44.999Z</time></trkpt><trkpt lat="45.52046186416473" lon="10.183328315875839"><ele>124.5</ele><time>2026-03-29T16:43:45.999Z</time></trkpt><trkpt lat="45.52050168826082" lon="10.182949953757502"><ele>124.0</ele><time>2026-03-29T16:43:46.999Z</time></trkpt><trkpt lat="45.52054678402787" lon="10.182572621976806"><ele>123.0</ele><time>2026-03-29T16:43:48Z</time></trkpt><trkpt lat="45.52058795908959" lon="10.182194999519885"><ele>122.0</ele><time>2026-03-29T16:43:49Z</time></trkpt><trkpt lat="45.520629417851936" lon="10.181816564721304"><ele>120.5</ele><time>2026-03-29T16:43:50Z</time></trkpt><trkpt lat="45.520675899615725" lon="10.181435632895063"><ele>119.0</ele><time>2026-03-29T16:43:51Z</time></trkpt><trkpt lat="45.52071862095911" lon="10.181061498829285"><ele>119.0</ele><time>2026-03-29T16:43:52Z</time></trkpt><trkpt lat="45.5207578263784" lon="10.18071201304308"><ele>119.0</ele><time>2026-03-29T16:43:53Z</time></trkpt><trkpt lat="45.52079795035618" lon="10.180365473991277"><ele>120.0</ele><time>2026-03-29T16:43:54Z</time></trkpt><trkpt lat="45.52083882168241" lon="10.180003200163373"><ele>121.0</ele><time>2026-03-29T16:43:55Z</time></trkpt><trkpt lat="45.52087914576759" lon="10.17964656818106"><ele>120.5</ele><time>2026-03-29T16:43:56Z</time></trkpt><trkpt lat="45.52092152447841" lon="10.179292644169816"><ele>120.0</ele><time>2026-03-29T16:43:57Z</time></trkpt><trkpt lat="45.5209636915603" lon="10.178939499359021"><ele>120.0</ele><time>2026-03-29T16:43:58Z</time></trkpt><trkpt lat="45.52100541034561" lon="10.17859652862743"><ele>120.0</ele><time>2026-03-29T16:43:59Z</time></trkpt><trkpt lat="45.52104374184038" lon="10.178244367284028"><ele>119.0</ele><time>2026-03-29T16:44:00Z</time></trkpt><trkpt lat="45.52109408883716" lon="10.177903183672118"><ele>118.0</ele><time>2026-03-29T16:44:01Z</time></trkpt><trkpt lat="45.52114992072772" lon="10.177568943061667"><ele>119.0</ele><time>2026-03-29T16:44:02Z</time></trkpt><trkpt lat="45.521207920161885" lon="10.17722967123615"><ele>120.0</ele><time>2026-03-29T16:44:03Z</time></trkpt><trkpt lat="45.52127192317971" lon="10.176892231207477"><ele>121.0</ele><time>2026-03-29T16:44:04Z</time></trkpt><trkpt lat="45.52133900221178" lon="10.176566708312613"><ele>122.0</ele><time>2026-03-29T16:44:05Z</time></trkpt><trkpt lat="45.52140723722991" lon="10.176255282019072"><ele>122.0</ele><time>2026-03-29T16:44:06Z</time></trkpt><trkpt lat="45.52147535627351" lon="10.175936899181766"><ele>122.0</ele><time>2026-03-29T16:44:07Z</time></trkpt><trkpt lat="45.52154754978159" lon="10.175627164490056"><ele>121.5</ele><time>2026-03-29T16:44:08Z</time></trkpt><trkpt lat="45.52162788390068" lon="10.17530738926631"><ele>121.0</ele><time>2026-03-29T16:44:09Z</time></trkpt><trkpt lat="45.52170891818356" lon="10.174974333640412"><ele>121.5</ele><time>2026-03-29T16:44:10Z</time></trkpt><trkpt lat="45.52179163126822" lon="10.174648044153205"><ele>122.0</ele><time>2026-03-29T16:44:11Z</time></trkpt><trkpt lat="45.52188279655979" lon="10.174322490826109"><ele>123.0</ele><time>2026-03-29T16:44:12Z</time></trkpt><trkpt lat="45.52196972259179" lon="10.173999954722452"><ele>124.0</ele><time>2026-03-29T16:44:13Z</time></trkpt><trkpt lat="45.52206407776809" lon="10.17368463923113"><ele>124.0</ele><time>2026-03-29T16:44:14Z</time></trkpt><trkpt lat="45.5221605725483" lon="10.173371205159507"><ele>124.0</ele><time>2026-03-29T16:44:15Z</time></trkpt><trkpt lat="45.52226075922846" lon="10.173058276562195"><ele>120.5</ele><time>2026-03-29T16:44:16Z</time></trkpt><trkpt lat="45.52235982669534" lon="10.172730517215156"><ele>117.0</ele><time>2026-03-29T16:44:17Z</time></trkpt><trkpt lat="45.52246792560546" lon="10.172425331880891"><ele>117.0</ele><time>2026-03-29T16:44:18Z</time></trkpt><trkpt lat="45.52257605728914" lon="10.1721090963422"><ele>117.0</ele><time>2026-03-29T16:44:19Z</time></trkpt><trkpt lat="45.5226931752368" lon="10.171792657406566"><ele>117.5</ele><time>2026-03-29T16:44:20Z</time></trkpt><trkpt lat="45.52281318637066" lon="10.171483983436957"><ele>118.0</ele><time>2026-03-29T16:44:21Z</time></trkpt><trkpt lat="45.52292372628083" lon="10.171191577992913"><ele>119.5</ele><time>2026-03-29T16:44:22Z</time></trkpt><trkpt lat="45.52303495731861" lon="10.170905738197465"><ele>121.0</ele><time>2026-03-29T16:44:23Z</time></trkpt><trkpt lat="45.52314976328751" lon="10.170619748023116"><ele>121.5</ele><time>2026-03-29T16:44:24Z</time></trkpt><trkpt lat="45.52326790509705" lon="10.170339239811703"><ele>122.0</ele><time>2026-03-29T16:44:25Z</time></trkpt><trkpt lat="45.523386207210116" lon="10.170051556902159"><ele>120.5</ele><time>2026-03-29T16:44:26Z</time></trkpt><trkpt lat="45.523509788099794" lon="10.16976001103487"><ele>119.0</ele><time>2026-03-29T16:44:27Z</time></trkpt><trkpt lat="45.52364302678907" lon="10.169454344266873"><ele>120.0</ele><time>2026-03-29T16:44:28Z</time></trkpt><trkpt lat="45.52378381496802" lon="10.169136807512215"><ele>121.0</ele><time>2026-03-29T16:44:29Z</time></trkpt><trkpt lat="45.52392931344881" lon="10.168818531540417"><ele>121.5</ele><time>2026-03-29T16:44:30Z</time></trkpt><trkpt lat="45.524073923327016" lon="10.168495323571088"><ele>122.0</ele><time>2026-03-29T16:44:31Z</time></trkpt><trkpt lat="45.524203226605394" lon="10.168187754138183"><ele>123.0</ele><time>2026-03-29T16:44:32Z</time></trkpt><trkpt lat="45.52432816745002" lon="10.167896703903178"><ele>124.0</ele><time>2026-03-29T16:44:33Z</time></trkpt><trkpt lat="45.524453371365986" lon="10.167604372742721"><ele>124.0</ele><time>2026-03-29T16:44:34Z</time></trkpt><trkpt lat="45.52457967337179" lon="10.167314222510102"><ele>124.0</ele><time>2026-03-29T16:44:35Z</time></trkpt><trkpt lat="45.52470515625206" lon="10.167023976086845"><ele>124.0</ele><time>2026-03-29T16:44:36Z</time></trkpt><trkpt lat="45.52483212004777" lon="10.166740018365335"><ele>124.0</ele><time>2026-03-29T16:44:37Z</time></trkpt><trkpt lat="45.52495718843625" lon="10.166440950698687"><ele>123.5</ele><time>2026-03-29T16:44:38Z</time></trkpt><trkpt lat="45.52509101065968" lon="10.166113749253459"><ele>123.0</ele><time>2026-03-29T16:44:39Z</time></trkpt><trkpt lat="45.52523077321586" lon="10.165782459173654"><ele>122.5</ele><time>2026-03-29T16:44:40Z</time></trkpt><trkpt lat="45.52537887674829" lon="10.165445966655188"><ele>122.0</ele><time>2026-03-29T16:44:41Z</time></trkpt><trkpt lat="45.52552838469021" lon="10.165111704610347"><ele>122.5</ele><time>2026-03-29T16:44:42Z</time></trkpt><trkpt lat="45.52567253647465" lon="10.164772580184673"><ele>123.0</ele><time>2026-03-29T16:44:43Z</time></trkpt><trkpt lat="45.52582019649989" lon="10.164437496160854"><ele>123.0</ele><time>2026-03-29T16:44:44Z</time></trkpt><trkpt lat="45.52597375184771" lon="10.164095249671677"><ele>123.0</ele><time>2026-03-29T16:44:45Z</time></trkpt><trkpt lat="45.526128336455216" lon="10.163756624998394"><ele>123.0</ele><time>2026-03-29T16:44:46Z</time></trkpt><trkpt lat="45.52627864671928" lon="10.16342301098453"><ele>123.0</ele><time>2026-03-29T16:44:47Z</time></trkpt><trkpt lat="45.52642954666643" lon="10.163095380751084"><ele>123.0</ele><time>2026-03-29T16:44:48Z</time></trkpt><trkpt lat="45.526576560358855" lon="10.162788266863856"><ele>123.0</ele><time>2026-03-29T16:44:49Z</time></trkpt><trkpt lat="45.52671960206019" lon="10.16249248595012"><ele>122.5</ele><time>2026-03-29T16:44:50Z</time></trkpt><trkpt lat="45.52686192326497" lon="10.162202290963526"><ele>122.0</ele><time>2026-03-29T16:44:51Z</time></trkpt><trkpt lat="45.52700097614949" lon="10.161910495050135"><ele>122.0</ele><time>2026-03-29T16:44:52Z</time></trkpt><trkpt lat="45.52713501690023" lon="10.161616842684944"><ele>122.0</ele><time>2026-03-29T16:44:52.999Z</time></trkpt><trkpt lat="45.52727912826904" lon="10.161325080474983"><ele>122.0</ele><time>2026-03-29T16:44:53.999Z</time></trkpt><trkpt lat="45.527429776535385" lon="10.161005136522274"><ele>122.0</ele><time>2026-03-29T16:44:54.999Z</time></trkpt><trkpt lat="45.52759373638944" lon="10.16066291626461"><ele>121.5</ele><time>2026-03-29T16:44:55.999Z</time></trkpt><trkpt lat="45.52776415135377" lon="10.160306132357096"><ele>121.0</ele><time>2026-03-29T16:44:56.999Z</time></trkpt><trkpt lat="45.52794137958473" lon="10.159938186359478"><ele>121.5</ele><time>2026-03-29T16:44:57.999Z</time></trkpt><trkpt lat="45.52812007991741" lon="10.159556736337507"><ele>122.0</ele><time>2026-03-29T16:44:58.999Z</time></trkpt><trkpt lat="45.52830144158322" lon="10.159146990694046"><ele>122.5</ele><time>2026-03-29T16:44:59.999Z</time></trkpt><trkpt lat="45.52848879344299" lon="10.158735762965769"><ele>123.0</ele><time>2026-03-29T16:45:00.999Z</time></trkpt><trkpt lat="45.528685547103144" lon="10.158307212115835"><ele>123.0</ele><time>2026-03-29T16:45:01.999Z</time></trkpt><trkpt lat="45.52888370462238" lon="10.157876449211075"><ele>123.0</ele><time>2026-03-29T16:45:02.999Z</time></trkpt><trkpt lat="45.529065718380785" lon="10.157487967922272"><ele>123.0</ele><time>2026-03-29T16:45:03.999Z</time></trkpt><trkpt lat="45.529228507344655" lon="10.157123785504202"><ele>123.0</ele><time>2026-03-29T16:45:04.999Z</time></trkpt><trkpt lat="45.52937958679343" lon="10.156784019209706"><ele>123.5</ele><time>2026-03-29T16:45:05.999Z</time></trkpt><trkpt lat="45.529531472353725" lon="10.156452194480945"><ele>124.0</ele><time>2026-03-29T16:45:06.999Z</time></trkpt><trkpt lat="45.52968507915927" lon="10.15611991449474"><ele>124.0</ele><time>2026-03-29T16:45:07.999Z</time></trkpt><trkpt lat="45.529830637116355" lon="10.15577874714786"><ele>124.0</ele><time>2026-03-29T16:45:08.999Z</time></trkpt><trkpt lat="45.529983476593536" lon="10.155442196458289"><ele>124.5</ele><time>2026-03-29T16:45:09.999Z</time></trkpt><trkpt lat="45.530138430766435" lon="10.155106563849325"><ele>125.0</ele><time>2026-03-29T16:45:10.999Z</time></trkpt><trkpt lat="45.53028882729288" lon="10.154766001551732"><ele>125.0</ele><time>2026-03-29T16:45:11.999Z</time></trkpt><trkpt lat="45.53043276095566" lon="10.15442692733927"><ele>125.0</ele><time>2026-03-29T16:45:12.999Z</time></trkpt><trkpt lat="45.530582856841846" lon="10.154089223670189"><ele>124.0</ele><time>2026-03-29T16:45:13.999Z</time></trkpt><trkpt lat="45.53073309868564" lon="10.153753917201776"><ele>123.0</ele><time>2026-03-29T16:45:14.999Z</time></trkpt><trkpt lat="45.53088054378663" lon="10.153429140400007"><ele>122.5</ele><time>2026-03-29T16:45:15.999Z</time></trkpt><trkpt lat="45.531022622035984" lon="10.153105348532858"><ele>122.0</ele><time>2026-03-29T16:45:16.999Z</time></trkpt><trkpt lat="45.531161422081745" lon="10.152792112737528"><ele>122.0</ele><time>2026-03-29T16:45:17.999Z</time></trkpt><trkpt lat="45.531297884678985" lon="10.152480329485794"><ele>122.0</ele><time>2026-03-29T16:45:18.999Z</time></trkpt><trkpt lat="45.531433139491995" lon="10.152172072040576"><ele>121.0</ele><time>2026-03-29T16:45:19.999Z</time></trkpt><trkpt lat="45.53157311511649" lon="10.151860523728391"><ele>120.0</ele><time>2026-03-29T16:45:20.999Z</time></trkpt><trkpt lat="45.53172044523092" lon="10.15154550720284"><ele>120.5</ele><time>2026-03-29T16:45:21.999Z</time></trkpt><trkpt lat="45.53186999765904" lon="10.151226074456748"><ele>121.0</ele><time>2026-03-29T16:45:22.999Z</time></trkpt><trkpt lat="45.532015062389924" lon="10.150907069478537"><ele>121.0</ele><time>2026-03-29T16:45:23.999Z</time></trkpt><trkpt lat="45.53216167317378" lon="10.150592773759847"><ele>121.0</ele><time>2026-03-29T16:45:24.999Z</time></trkpt><trkpt lat="45.53230513399602" lon="10.150281279681654"><ele>121.0</ele><time>2026-03-29T16:45:25.999Z</time></trkpt><trkpt lat="45.53244439014008" lon="10.149966667894603"><ele>121.0</ele><time>2026-03-29T16:45:26.999Z</time></trkpt><trkpt lat="45.53258612599315" lon="10.14965181488856"><ele>120.5</ele><time>2026-03-29T16:45:27.999Z</time></trkpt><trkpt lat="45.532722724676866" lon="10.149331965738213"><ele>120.0</ele><time>2026-03-29T16:45:28.999Z</time></trkpt><trkpt lat="45.53286366357477" lon="10.149016412797453"><ele>120.5</ele><time>2026-03-29T16:45:29.999Z</time></trkpt><trkpt lat="45.533004517347955" lon="10.148694044257075"><ele>121.0</ele><time>2026-03-29T16:45:30.999Z</time></trkpt><trkpt lat="45.533147019323714" lon="10.148365320391408"><ele>120.5</ele><time>2026-03-29T16:45:31.999Z</time></trkpt><trkpt lat="45.53329077338561" lon="10.148037143021632"><ele>120.0</ele><time>2026-03-29T16:45:32.999Z</time></trkpt><trkpt lat="45.5334416410203" lon="10.14770589510524"><ele>120.0</ele><time>2026-03-29T16:45:33.999Z</time></trkpt><trkpt lat="45.5335910693317" lon="10.147379538667547"><ele>120.0</ele><time>2026-03-29T16:45:34.999Z</time></trkpt><trkpt lat="45.53373974360157" lon="10.147062759157627"><ele>120.5</ele><time>2026-03-29T16:45:35.999Z</time></trkpt><trkpt lat="45.53388635670987" lon="10.146748423284052"><ele>121.0</ele><time>2026-03-29T16:45:36.999Z</time></trkpt><trkpt lat="45.53403272809638" lon="10.146434617091462"><ele>121.0</ele><time>2026-03-29T16:45:37.999Z</time></trkpt><trkpt lat="45.53417823541555" lon="10.14612124259018"><ele>121.0</ele><time>2026-03-29T16:45:38.999Z</time></trkpt><trkpt lat="45.53432286655808" lon="10.145808589627977"><ele>121.0</ele><time>2026-03-29T16:45:39.999Z</time></trkpt><trkpt lat="45.53446732184024" lon="10.145500072231115"><ele>121.0</ele><time>2026-03-29T16:45:40.999Z</time></trkpt><trkpt lat="45.53461472670349" lon="10.145186736274255"><ele>120.5</ele><time>2026-03-29T16:45:41.999Z</time></trkpt><trkpt lat="45.53476061043772" lon="10.144871632798079"><ele>120.0</ele><time>2026-03-29T16:45:42.999Z</time></trkpt><trkpt lat="45.534908526205264" lon="10.14456434351515"><ele>120.0</ele><time>2026-03-29T16:45:43.999Z</time></trkpt><trkpt lat="45.5350656515601" lon="10.14425190325912"><ele>120.0</ele><time>2026-03-29T16:45:44.999Z</time></trkpt><trkpt lat="45.53521369408886" lon="10.143936342623832"><ele>119.5</ele><time>2026-03-29T16:45:45.999Z</time></trkpt><trkpt lat="45.53536470088578" lon="10.143614851860686"><ele>119.0</ele><time>2026-03-29T16:45:46.999Z</time></trkpt><trkpt lat="45.535520190750375" lon="10.143290011685572"><ele>119.5</ele><time>2026-03-29T16:45:47.999Z</time></trkpt><trkpt lat="45.53567825886583" lon="10.142967544941925"><ele>120.0</ele><time>2026-03-29T16:45:48.999Z</time></trkpt><trkpt lat="45.53583974311706" lon="10.142639890133006"><ele>119.0</ele><time>2026-03-29T16:45:49.999Z</time></trkpt><trkpt lat="45.53600169558408" lon="10.142304769623289"><ele>118.0</ele><time>2026-03-29T16:45:50.999Z</time></trkpt><trkpt lat="45.53616017628077" lon="10.141976748764517"><ele>118.0</ele><time>2026-03-29T16:45:51.999Z</time></trkpt><trkpt lat="45.536320314851515" lon="10.141662627241933"><ele>118.0</ele><time>2026-03-29T16:45:52.999Z</time></trkpt><trkpt lat="45.536474269920916" lon="10.141356001101514"><ele>118.0</ele><time>2026-03-29T16:45:54Z</time></trkpt><trkpt lat="45.53662643203326" lon="10.14105627442423"><ele>118.0</ele><time>2026-03-29T16:45:55Z</time></trkpt><trkpt lat="45.536773125611354" lon="10.140749214219952"><ele>118.5</ele><time>2026-03-29T16:45:56Z</time></trkpt><trkpt lat="45.53692769222159" lon="10.14043360106108"><ele>119.0</ele><time>2026-03-29T16:45:57Z</time></trkpt><trkpt lat="45.53708453988009" lon="10.140111152086149"><ele>118.5</ele><time>2026-03-29T16:45:58Z</time></trkpt><trkpt lat="45.53724525239447" lon="10.139774017891764"><ele>118.0</ele><time>2026-03-29T16:45:59Z</time></trkpt><trkpt lat="45.53740911602499" lon="10.139438881742036"><ele>118.0</ele><time>2026-03-29T16:46:00Z</time></trkpt><trkpt lat="45.537581100631705" lon="10.139103652577916"><ele>118.0</ele><time>2026-03-29T16:46:01Z</time></trkpt><trkpt lat="45.53774625902158" lon="10.138767682193906"><ele>118.5</ele><time>2026-03-29T16:46:02Z</time></trkpt><trkpt lat="45.537909803246414" lon="10.138429965997029"><ele>119.0</ele><time>2026-03-29T16:46:03Z</time></trkpt><trkpt lat="45.538086831898006" lon="10.13808308607502"><ele>119.0</ele><time>2026-03-29T16:46:04Z</time></trkpt><trkpt lat="45.5382657091267" lon="10.137715565179349"><ele>119.0</ele><time>2026-03-29T16:46:05Z</time></trkpt><trkpt lat="45.53844382635618" lon="10.137326407231221"><ele>120.0</ele><time>2026-03-29T16:46:06Z</time></trkpt><trkpt lat="45.53861650949638" lon="10.136982604287416"><ele>121.0</ele><time>2026-03-29T16:46:07Z</time></trkpt><trkpt lat="45.53879235696592" lon="10.136635804605596"><ele>121.5</ele><time>2026-03-29T16:46:08Z</time></trkpt><trkpt lat="45.538967199517316" lon="10.13628909788888"><ele>122.0</ele><time>2026-03-29T16:46:09Z</time></trkpt><trkpt lat="45.53912440821055" lon="10.135973421105174"><ele>122.5</ele><time>2026-03-29T16:46:10Z</time></trkpt><trkpt lat="45.53928257299876" lon="10.135645959104323"><ele>123.0</ele><time>2026-03-29T16:46:11Z</time></trkpt><trkpt lat="45.539437945776974" lon="10.135324465831596"><ele>122.5</ele><time>2026-03-29T16:46:12Z</time></trkpt><trkpt lat="45.53959244231431" lon="10.13501139625647"><ele>122.0</ele><time>2026-03-29T16:46:13Z</time></trkpt><trkpt lat="45.539748911307214" lon="10.134699920483357"><ele>121.5</ele><time>2026-03-29T16:46:14Z</time></trkpt><trkpt lat="45.53989946328228" lon="10.134392397414775"><ele>121.0</ele><time>2026-03-29T16:46:15Z</time></trkpt><trkpt lat="45.54005066648133" lon="10.134079310978345"><ele>121.0</ele><time>2026-03-29T16:46:16Z</time></trkpt><trkpt lat="45.5401976642291" lon="10.13377532661748"><ele>121.0</ele><time>2026-03-29T16:46:17Z</time></trkpt><trkpt lat="45.54034328483695" lon="10.133470655593161"><ele>122.0</ele><time>2026-03-29T16:46:18Z</time></trkpt><trkpt lat="45.54049545590178" lon="10.133167811904539"><ele>123.0</ele><time>2026-03-29T16:46:19Z</time></trkpt><trkpt lat="45.54064749657827" lon="10.132857641129732"><ele>123.0</ele><time>2026-03-29T16:46:20Z</time></trkpt><trkpt lat="45.54080162592245" lon="10.13254594064353"><ele>123.0</ele><time>2026-03-29T16:46:21Z</time></trkpt><trkpt lat="45.54095122325086" lon="10.13224076298528"><ele>123.0</ele><time>2026-03-29T16:46:22Z</time></trkpt><trkpt lat="45.54110167549067" lon="10.13193669093979"><ele>123.0</ele><time>2026-03-29T16:46:23Z</time></trkpt><trkpt lat="45.54125307729563" lon="10.131625403441012"><ele>122.0</ele><time>2026-03-29T16:46:24Z</time></trkpt><trkpt lat="45.54140277142165" lon="10.131315980249958"><ele>121.0</ele><time>2026-03-29T16:46:25Z</time></trkpt><trkpt lat="45.54155198847636" lon="10.131008981392185"><ele>122.0</ele><time>2026-03-29T16:46:26Z</time></trkpt><trkpt lat="45.541703093902086" lon="10.130701784860273"><ele>123.0</ele><time>2026-03-29T16:46:27Z</time></trkpt><trkpt lat="45.54185104009764" lon="10.130412395098244"><ele>123.0</ele><time>2026-03-29T16:46:28Z</time></trkpt><trkpt lat="45.54199983823464" lon="10.13013403222032"><ele>123.0</ele><time>2026-03-29T16:46:29Z</time></trkpt><trkpt lat="45.542150385927805" lon="10.129843118952259"><ele>123.0</ele><time>2026-03-29T16:46:30Z</time></trkpt><trkpt lat="45.54231430053861" lon="10.129540512823496"><ele>123.0</ele><time>2026-03-29T16:46:31Z</time></trkpt><trkpt lat="45.542474549734735" lon="10.129224058735549"><ele>122.5</ele><time>2026-03-29T16:46:32Z</time></trkpt><trkpt lat="45.542626856993174" lon="10.128911388035828"><ele>122.0</ele><time>2026-03-29T16:46:33Z</time></trkpt><trkpt lat="45.54277821301602" lon="10.12860508494101"><ele>122.5</ele><time>2026-03-29T16:46:34Z</time></trkpt><trkpt lat="45.54293730958516" lon="10.128296369068147"><ele>123.0</ele><time>2026-03-29T16:46:35Z</time></trkpt><trkpt lat="45.54309497564375" lon="10.12797425623229"><ele>123.5</ele><time>2026-03-29T16:46:36Z</time></trkpt><trkpt lat="45.543252141112724" lon="10.127646719396282"><ele>124.0</ele><time>2026-03-29T16:46:37Z</time></trkpt><trkpt lat="45.54341205358498" lon="10.12732655520867"><ele>125.0</ele><time>2026-03-29T16:46:38Z</time></trkpt><trkpt lat="45.5435663202026" lon="10.127010467337671"><ele>126.0</ele><time>2026-03-29T16:46:39Z</time></trkpt><trkpt lat="45.54371912869149" lon="10.126687499564516"><ele>124.5</ele><time>2026-03-29T16:46:40Z</time></trkpt><trkpt lat="45.54386801334167" lon="10.126366273208816"><ele>123.0</ele><time>2026-03-29T16:46:41Z</time></trkpt><trkpt lat="45.54401951470835" lon="10.126034586586135"><ele>123.5</ele><time>2026-03-29T16:46:42Z</time></trkpt><trkpt lat="45.54417151469596" lon="10.125714439148506"><ele>124.0</ele><time>2026-03-29T16:46:43Z</time></trkpt><trkpt lat="45.54432759534367" lon="10.125379325056253"><ele>124.0</ele><time>2026-03-29T16:46:44Z</time></trkpt><trkpt lat="45.54448273639715" lon="10.125046381846987"><ele>124.0</ele><time>2026-03-29T16:46:45Z</time></trkpt><trkpt lat="45.544637638294695" lon="10.124719758383911"><ele>125.0</ele><time>2026-03-29T16:46:46Z</time></trkpt><trkpt lat="45.54479199041379" lon="10.124401957505333"><ele>126.0</ele><time>2026-03-29T16:46:47Z</time></trkpt><trkpt lat="45.54493872122993" lon="10.12408172129931"><ele>125.5</ele><time>2026-03-29T16:46:48Z</time></trkpt><trkpt lat="45.545087594329345" lon="10.123768513806954"><ele>125.0</ele><time>2026-03-29T16:46:49Z</time></trkpt><trkpt lat="45.545228265285274" lon="10.123459078240915"><ele>126.0</ele><time>2026-03-29T16:46:50Z</time></trkpt><trkpt lat="45.54537144626906" lon="10.123147437168798"><ele>127.0</ele><time>2026-03-29T16:46:51Z</time></trkpt><trkpt lat="45.54551333772485" lon="10.1228345943905"><ele>127.0</ele><time>2026-03-29T16:46:52Z</time></trkpt><trkpt lat="45.54566426440989" lon="10.122524994863904"><ele>127.0</ele><time>2026-03-29T16:46:53Z</time></trkpt><trkpt lat="45.54580478306336" lon="10.122208002111647"><ele>127.0</ele><time>2026-03-29T16:46:54Z</time></trkpt><trkpt lat="45.545946518702976" lon="10.121883452865488"><ele>127.0</ele><time>2026-03-29T16:46:55Z</time></trkpt><trkpt lat="45.54609188759901" lon="10.121561385117326"><ele>127.5</ele><time>2026-03-29T16:46:56Z</time></trkpt><trkpt lat="45.546236202243655" lon="10.121238903469063"><ele>128.0</ele><time>2026-03-29T16:46:57Z</time></trkpt><trkpt lat="45.546380549819624" lon="10.12092001143173"><ele>129.0</ele><time>2026-03-29T16:46:58Z</time></trkpt><trkpt lat="45.54652881689055" lon="10.120601515515533"><ele>130.0</ele><time>2026-03-29T16:46:59Z</time></trkpt><trkpt lat="45.546672262178554" lon="10.120290182832695"><ele>130.0</ele><time>2026-03-29T16:47:00Z</time></trkpt><trkpt lat="45.54682090463703" lon="10.119982610606547"><ele>130.0</ele><time>2026-03-29T16:47:01Z</time></trkpt><trkpt lat="45.54697069266416" lon="10.119673543606941"><ele>130.0</ele><time>2026-03-29T16:47:01.999Z</time></trkpt><trkpt lat="45.547122856121376" lon="10.119369573254762"><ele>130.0</ele><time>2026-03-29T16:47:02.999Z</time></trkpt><trkpt lat="45.54727439911737" lon="10.119069455286448"><ele>132.0</ele><time>2026-03-29T16:47:03.999Z</time></trkpt><trkpt lat="45.54742380711934" lon="10.118767636967497"><ele>134.0</ele><time>2026-03-29T16:47:04.999Z</time></trkpt><trkpt lat="45.547571618777006" lon="10.118465678037031"><ele>133.5</ele><time>2026-03-29T16:47:05.999Z</time></trkpt><trkpt lat="45.547718988580684" lon="10.118171872499625"><ele>133.0</ele><time>2026-03-29T16:47:06.999Z</time></trkpt><trkpt lat="45.547868464314845" lon="10.117890257674754"><ele>133.5</ele><time>2026-03-29T16:47:07.999Z</time></trkpt><trkpt lat="45.54801848775754" lon="10.117603782236733"><ele>134.0</ele><time>2026-03-29T16:47:08.999Z</time></trkpt><trkpt lat="45.548161918850376" lon="10.117321433817427"><ele>134.0</ele><time>2026-03-29T16:47:09.999Z</time></trkpt><trkpt lat="45.54831117638798" lon="10.117037781545037"><ele>134.0</ele><time>2026-03-29T16:47:10.999Z</time></trkpt><trkpt lat="45.54845174950535" lon="10.116754258773375"><ele>134.0</ele><time>2026-03-29T16:47:11.999Z</time></trkpt><trkpt lat="45.548597153271544" lon="10.116468529349973"><ele>134.0</ele><time>2026-03-29T16:47:12.999Z</time></trkpt><trkpt lat="45.548747290811086" lon="10.116182135714032"><ele>134.0</ele><time>2026-03-29T16:47:13.999Z</time></trkpt><trkpt lat="45.548895986418835" lon="10.115900123538397"><ele>134.0</ele><time>2026-03-29T16:47:14.999Z</time></trkpt><trkpt lat="45.549043439558304" lon="10.115618916625545"><ele>134.0</ele><time>2026-03-29T16:47:15.999Z</time></trkpt><trkpt lat="45.54918799916633" lon="10.115339124333508"><ele>134.0</ele><time>2026-03-29T16:47:16.999Z</time></trkpt><trkpt lat="45.54933677040357" lon="10.115052980499248"><ele>134.0</ele><time>2026-03-29T16:47:17.999Z</time></trkpt><trkpt lat="45.54948434935349" lon="10.114767821069307"><ele>134.0</ele><time>2026-03-29T16:47:18.999Z</time></trkpt><trkpt lat="45.54962806663406" lon="10.114478817474517"><ele>134.0</ele><time>2026-03-29T16:47:19.999Z</time></trkpt><trkpt lat="45.54977877725649" lon="10.114187180698217"><ele>134.0</ele><time>2026-03-29T16:47:20.999Z</time></trkpt><trkpt lat="45.54992622590868" lon="10.113896730784367"><ele>134.5</ele><time>2026-03-29T16:47:21.999Z</time></trkpt><trkpt lat="45.55007438131335" lon="10.113597065149477"><ele>135.0</ele><time>2026-03-29T16:47:22.999Z</time></trkpt><trkpt lat="45.55022463948372" lon="10.113298120041497"><ele>134.5</ele><time>2026-03-29T16:47:23.999Z</time></trkpt><trkpt lat="45.55038915219014" lon="10.11297123065288"><ele>134.0</ele><time>2026-03-29T16:47:24.999Z</time></trkpt><trkpt lat="45.5505454020472" lon="10.112666656727717"><ele>134.0</ele><time>2026-03-29T16:47:25.999Z</time></trkpt><trkpt lat="45.550689556055595" lon="10.112386575015055"><ele>134.0</ele><time>2026-03-29T16:47:26.999Z</time></trkpt><trkpt lat="45.55083480019455" lon="10.112107157108788"><ele>134.0</ele><time>2026-03-29T16:47:27.999Z</time></trkpt><trkpt lat="45.550977510390425" lon="10.111825797199817"><ele>134.0</ele><time>2026-03-29T16:47:28.999Z</time></trkpt><trkpt lat="45.5511202569161" lon="10.11153503920207"><ele>135.0</ele><time>2026-03-29T16:47:29.999Z</time></trkpt><trkpt lat="45.55126974643429" lon="10.111251845631413"><ele>136.0</ele><time>2026-03-29T16:47:30.999Z</time></trkpt><trkpt lat="45.551420883871046" lon="10.110960321064898"><ele>136.0</ele><time>2026-03-29T16:47:31.999Z</time></trkpt><trkpt lat="45.551570361754855" lon="10.11066839238965"><ele>136.0</ele><time>2026-03-29T16:47:32.999Z</time></trkpt><trkpt lat="45.55172649187639" lon="10.110375724744864"><ele>136.0</ele><time>2026-03-29T16:47:33.999Z</time></trkpt><trkpt lat="45.551878425783606" lon="10.11007716311639"><ele>136.0</ele><time>2026-03-29T16:47:34.999Z</time></trkpt><trkpt lat="45.55202756889871" lon="10.109781128479808"><ele>137.5</ele><time>2026-03-29T16:47:35.999Z</time></trkpt><trkpt lat="45.552178060334185" lon="10.109473965317333"><ele>139.0</ele><time>2026-03-29T16:47:36.999Z</time></trkpt><trkpt lat="45.55233535375645" lon="10.10917433505045"><ele>138.5</ele><time>2026-03-29T16:47:37.999Z</time></trkpt><trkpt lat="45.55248984617264" lon="10.108867691642585"><ele>138.0</ele><time>2026-03-29T16:47:38.999Z</time></trkpt><trkpt lat="45.55265050650162" lon="10.108556739216185"><ele>138.0</ele><time>2026-03-29T16:47:39.999Z</time></trkpt><trkpt lat="45.55281241452882" lon="10.108249632778966"><ele>138.0</ele><time>2026-03-29T16:47:40.999Z</time></trkpt><trkpt lat="45.55297336282274" lon="10.107936279143306"><ele>137.5</ele><time>2026-03-29T16:47:41.999Z</time></trkpt><trkpt lat="45.5531307237729" lon="10.107626782269826"><ele>137.0</ele><time>2026-03-29T16:47:42.999Z</time></trkpt><trkpt lat="45.55329009862904" lon="10.107319257454753"><ele>137.0</ele><time>2026-03-29T16:47:43.999Z</time></trkpt><trkpt lat="45.553445784111254" lon="10.107014923174711"><ele>137.0</ele><time>2026-03-29T16:47:44.999Z</time></trkpt><trkpt lat="45.55360678055638" lon="10.106697083902121"><ele>137.5</ele><time>2026-03-29T16:47:45.999Z</time></trkpt><trkpt lat="45.5537625431044" lon="10.106392986846386"><ele>138.0</ele><time>2026-03-29T16:47:46.999Z</time></trkpt><trkpt lat="45.55390430136504" lon="10.10610457084002"><ele>138.0</ele><time>2026-03-29T16:47:47.999Z</time></trkpt><trkpt lat="45.55404371799618" lon="10.105806860737621"><ele>138.0</ele><time>2026-03-29T16:47:48.999Z</time></trkpt><trkpt lat="45.5541884863372" lon="10.105504045197689"><ele>138.0</ele><time>2026-03-29T16:47:49.999Z</time></trkpt><trkpt lat="45.55433674695305" lon="10.10520257582457"><ele>138.0</ele><time>2026-03-29T16:47:50.999Z</time></trkpt><trkpt lat="45.554483738502086" lon="10.104894053971112"><ele>138.5</ele><time>2026-03-29T16:47:51.999Z</time></trkpt><trkpt lat="45.554634273934084" lon="10.104592633796141"><ele>139.0</ele><time>2026-03-29T16:47:52.999Z</time></trkpt><trkpt lat="45.55478376106486" lon="10.10428873819398"><ele>139.0</ele><time>2026-03-29T16:47:53.999Z</time></trkpt><trkpt lat="45.55493123900926" lon="10.10397678489435"><ele>139.0</ele><time>2026-03-29T16:47:54.999Z</time></trkpt><trkpt lat="45.55508035839244" lon="10.103664147485171"><ele>139.0</ele><time>2026-03-29T16:47:55.999Z</time></trkpt><trkpt lat="45.555231506830964" lon="10.103355529054555"><ele>139.0</ele><time>2026-03-29T16:47:56.999Z</time></trkpt><trkpt lat="45.55537742260092" lon="10.103043976419647"><ele>139.0</ele><time>2026-03-29T16:47:57.999Z</time></trkpt><trkpt lat="45.55552767450621" lon="10.102727249521731"><ele>139.0</ele><time>2026-03-29T16:47:58.999Z</time></trkpt><trkpt lat="45.555675663242404" lon="10.102411932874126"><ele>138.0</ele><time>2026-03-29T16:48:00Z</time></trkpt><trkpt lat="45.555830167083144" lon="10.102100338762941"><ele>137.0</ele><time>2026-03-29T16:48:01Z</time></trkpt><trkpt lat="45.55597743269413" lon="10.101789407108035"><ele>137.0</ele><time>2026-03-29T16:48:02Z</time></trkpt><trkpt lat="45.55612214691867" lon="10.10148520570641"><ele>137.0</ele><time>2026-03-29T16:48:03Z</time></trkpt><trkpt lat="45.55626423656599" lon="10.101181174620082"><ele>138.0</ele><time>2026-03-29T16:48:04Z</time></trkpt><trkpt lat="45.55641308059675" lon="10.100886142955735"><ele>139.0</ele><time>2026-03-29T16:48:05Z</time></trkpt><trkpt lat="45.5565560504835" lon="10.10058616231252"><ele>140.0</ele><time>2026-03-29T16:48:06Z</time></trkpt><trkpt lat="45.55670026072191" lon="10.100279764951875"><ele>141.0</ele><time>2026-03-29T16:48:07Z</time></trkpt><trkpt lat="45.55685274712694" lon="10.09996612032871"><ele>141.5</ele><time>2026-03-29T16:48:08Z</time></trkpt><trkpt lat="45.55700193064854" lon="10.099659722616627"><ele>142.0</ele><time>2026-03-29T16:48:09Z</time></trkpt><trkpt lat="45.557149491971515" lon="10.099348530300215"><ele>141.5</ele><time>2026-03-29T16:48:10Z</time></trkpt><trkpt lat="45.55729794761816" lon="10.099029839023732"><ele>141.0</ele><time>2026-03-29T16:48:11Z</time></trkpt><trkpt lat="45.55744787946721" lon="10.098712176014315"><ele>141.0</ele><time>2026-03-29T16:48:12Z</time></trkpt><trkpt lat="45.5575991441888" lon="10.098391515674278"><ele>141.0</ele><time>2026-03-29T16:48:13Z</time></trkpt><trkpt lat="45.55775264597761" lon="10.098071432874754"><ele>142.0</ele><time>2026-03-29T16:48:14Z</time></trkpt><trkpt lat="45.55790614373053" lon="10.09775201670763"><ele>143.0</ele><time>2026-03-29T16:48:15Z</time></trkpt><trkpt lat="45.55806504149091" lon="10.097432618412398"><ele>142.5</ele><time>2026-03-29T16:48:16Z</time></trkpt><trkpt lat="45.558225148464324" lon="10.097113846949679"><ele>142.0</ele><time>2026-03-29T16:48:17Z</time></trkpt><trkpt lat="45.55838241550183" lon="10.0967880630438"><ele>143.0</ele><time>2026-03-29T16:48:18Z</time></trkpt><trkpt lat="45.55854284883585" lon="10.096458216480313"><ele>144.0</ele><time>2026-03-29T16:48:19Z</time></trkpt><trkpt lat="45.55870387296975" lon="10.096132413543886"><ele>144.5</ele><time>2026-03-29T16:48:20Z</time></trkpt><trkpt lat="45.55886441345219" lon="10.095806566459883"><ele>145.0</ele><time>2026-03-29T16:48:21Z</time></trkpt><trkpt lat="45.55902187823659" lon="10.095485822008994"><ele>145.0</ele><time>2026-03-29T16:48:22Z</time></trkpt><trkpt lat="45.5591755254826" lon="10.095164866070963"><ele>145.0</ele><time>2026-03-29T16:48:23Z</time></trkpt><trkpt lat="45.55932776125354" lon="10.094839099762403"><ele>145.0</ele><time>2026-03-29T16:48:24Z</time></trkpt><trkpt lat="45.55948075228108" lon="10.094518016651817"><ele>145.0</ele><time>2026-03-29T16:48:25Z</time></trkpt><trkpt lat="45.55962761709921" lon="10.094194512178234"><ele>144.5</ele><time>2026-03-29T16:48:26Z</time></trkpt><trkpt lat="45.55977531613736" lon="10.093877975642295"><ele>144.0</ele><time>2026-03-29T16:48:27Z</time></trkpt><trkpt lat="45.559913117689874" lon="10.093566537321392"><ele>144.5</ele><time>2026-03-29T16:48:28Z</time></trkpt><trkpt lat="45.56004912574931" lon="10.093251586932475"><ele>145.0</ele><time>2026-03-29T16:48:29Z</time></trkpt><trkpt lat="45.5601823636904" lon="10.09293811267818"><ele>145.0</ele><time>2026-03-29T16:48:30Z</time></trkpt><trkpt lat="45.56030762361698" lon="10.092629102239806"><ele>145.0</ele><time>2026-03-29T16:48:31Z</time></trkpt><trkpt lat="45.5604299677606" lon="10.092318693106384"><ele>146.0</ele><time>2026-03-29T16:48:32Z</time></trkpt><trkpt lat="45.56055320149557" lon="10.092004589548106"><ele>147.0</ele><time>2026-03-29T16:48:33Z</time></trkpt><trkpt lat="45.56067244989614" lon="10.091692585918311"><ele>147.5</ele><time>2026-03-29T16:48:34Z</time></trkpt><trkpt lat="45.560792757958694" lon="10.091376787437126"><ele>148.0</ele><time>2026-03-29T16:48:35Z</time></trkpt><trkpt lat="45.5609072993181" lon="10.091062683041487"><ele>148.0</ele><time>2026-03-29T16:48:36Z</time></trkpt><trkpt lat="45.561020444391204" lon="10.09074320208631"><ele>148.0</ele><time>2026-03-29T16:48:37Z</time></trkpt><trkpt lat="45.56113462369703" lon="10.090424133227552"><ele>149.0</ele><time>2026-03-29T16:48:38Z</time></trkpt><trkpt lat="45.56123770849662" lon="10.090101126934291"><ele>150.0</ele><time>2026-03-29T16:48:39Z</time></trkpt><trkpt lat="45.561344892908515" lon="10.089793186886562"><ele>150.5</ele><time>2026-03-29T16:48:40Z</time></trkpt><trkpt lat="45.561449130455685" lon="10.089485001662883"><ele>151.0</ele><time>2026-03-29T16:48:41Z</time></trkpt><trkpt lat="45.561548481764056" lon="10.08917536917902"><ele>151.5</ele><time>2026-03-29T16:48:42Z</time></trkpt><trkpt lat="45.56164822450695" lon="10.08886510049608"><ele>152.0</ele><time>2026-03-29T16:48:43Z</time></trkpt><trkpt lat="45.56174558133584" lon="10.088539836439201"><ele>152.0</ele><time>2026-03-29T16:48:44Z</time></trkpt><trkpt lat="45.561846412254674" lon="10.08820630076246"><ele>152.0</ele><time>2026-03-29T16:48:45Z</time></trkpt><trkpt lat="45.56194735720958" lon="10.087870800894072"><ele>152.0</ele><time>2026-03-29T16:48:46Z</time></trkpt><trkpt lat="45.56204264667167" lon="10.087536201300663"><ele>152.0</ele><time>2026-03-29T16:48:47Z</time></trkpt><trkpt lat="45.56213054029573" lon="10.08719470434463"><ele>152.0</ele><time>2026-03-29T16:48:48Z</time></trkpt><trkpt lat="45.5622235446459" lon="10.086851592106017"><ele>152.0</ele><time>2026-03-29T16:48:49Z</time></trkpt><trkpt lat="45.562320060780976" lon="10.08650697912086"><ele>151.0</ele><time>2026-03-29T16:48:50Z</time></trkpt><trkpt lat="45.56240738179767" lon="10.086154723947875"><ele>150.0</ele><time>2026-03-29T16:48:51Z</time></trkpt><trkpt lat="45.56249432993175" lon="10.085793635633983"><ele>152.0</ele><time>2026-03-29T16:48:52Z</time></trkpt><trkpt lat="45.562576674639864" lon="10.085435936392576"><ele>154.0</ele><time>2026-03-29T16:48:53Z</time></trkpt><trkpt lat="45.562658076905706" lon="10.085077483146094"><ele>155.0</ele><time>2026-03-29T16:48:54Z</time></trkpt><trkpt lat="45.56273632918103" lon="10.084721658726014"><ele>156.0</ele><time>2026-03-29T16:48:55Z</time></trkpt><trkpt lat="45.56281600654935" lon="10.084369020036956"><ele>156.5</ele><time>2026-03-29T16:48:56Z</time></trkpt><trkpt lat="45.562889307992" lon="10.084012280567455"><ele>157.0</ele><time>2026-03-29T16:48:57Z</time></trkpt><trkpt lat="45.56296077028405" lon="10.08364648620142"><ele>157.0</ele><time>2026-03-29T16:48:58Z</time></trkpt><trkpt lat="45.563022847467245" lon="10.083279865402172"><ele>157.0</ele><time>2026-03-29T16:48:59Z</time></trkpt><trkpt lat="45.563091498826196" lon="10.08291188987624"><ele>157.5</ele><time>2026-03-29T16:49:00Z</time></trkpt><trkpt lat="45.56315651670388" lon="10.082550733139199"><ele>158.0</ele><time>2026-03-29T16:49:01Z</time></trkpt><trkpt lat="45.56322330259226" lon="10.08218819893846"><ele>157.0</ele><time>2026-03-29T16:49:02Z</time></trkpt><trkpt lat="45.56328544449838" lon="10.081826204269776"><ele>156.0</ele><time>2026-03-29T16:49:03Z</time></trkpt><trkpt lat="45.563352924967624" lon="10.081466317392438"><ele>155.5</ele><time>2026-03-29T16:49:04Z</time></trkpt><trkpt lat="45.56342178606387" lon="10.081105041878759"><ele>155.0</ele><time>2026-03-29T16:49:05Z</time></trkpt><trkpt lat="45.56349321214728" lon="10.08072772504133"><ele>155.0</ele><time>2026-03-29T16:49:06Z</time></trkpt><trkpt lat="45.5635613346571" lon="10.080352188715057"><ele>155.0</ele><time>2026-03-29T16:49:07Z</time></trkpt><trkpt lat="45.563631760247716" lon="10.07997972122454"><ele>156.5</ele><time>2026-03-29T16:49:08Z</time></trkpt><trkpt lat="45.563697911205615" lon="10.079609896342651"><ele>158.0</ele><time>2026-03-29T16:49:09Z</time></trkpt><trkpt lat="45.563766643349055" lon="10.079243362368532"><ele>158.5</ele><time>2026-03-29T16:49:10Z</time></trkpt><trkpt lat="45.563837058917834" lon="10.078879850483041"><ele>159.0</ele><time>2026-03-29T16:49:11Z</time></trkpt><trkpt lat="45.56390565824459" lon="10.078501651194077"><ele>159.5</ele><time>2026-03-29T16:49:11.999Z</time></trkpt><trkpt lat="45.56397142032625" lon="10.07811332158948"><ele>160.0</ele><time>2026-03-29T16:49:12.999Z</time></trkpt><trkpt lat="45.564039677178" lon="10.077745019281743"><ele>160.0</ele><time>2026-03-29T16:49:13.999Z</time></trkpt><trkpt lat="45.56411074891424" lon="10.077360739976434"><ele>160.0</ele><time>2026-03-29T16:49:14.999Z</time></trkpt><trkpt lat="45.56417665411571" lon="10.076990617288597"><ele>160.0</ele><time>2026-03-29T16:49:15.999Z</time></trkpt><trkpt lat="45.56424193214578" lon="10.076642695443821"><ele>160.0</ele><time>2026-03-29T16:49:16.999Z</time></trkpt><trkpt lat="45.56431279191282" lon="10.076286995330088"><ele>159.5</ele><time>2026-03-29T16:49:17.999Z</time></trkpt><trkpt lat="45.56438424532875" lon="10.075916706515752"><ele>159.0</ele><time>2026-03-29T16:49:18.999Z</time></trkpt><trkpt lat="45.5644528194778" lon="10.07554511725516"><ele>159.0</ele><time>2026-03-29T16:49:19.999Z</time></trkpt><trkpt lat="45.56452246134849" lon="10.075170054928103"><ele>159.0</ele><time>2026-03-29T16:49:20.999Z</time></trkpt><trkpt lat="45.56459636045315" lon="10.074796467568959"><ele>159.5</ele><time>2026-03-29T16:49:21.999Z</time></trkpt><trkpt lat="45.564667168244405" lon="10.074419288207569"><ele>160.0</ele><time>2026-03-29T16:49:22.999Z</time></trkpt><trkpt lat="45.564735774874435" lon="10.074044744113053"><ele>160.0</ele><time>2026-03-29T16:49:23.999Z</time></trkpt><trkpt lat="45.56480668714073" lon="10.073672034217239"><ele>160.0</ele><time>2026-03-29T16:49:24.999Z</time></trkpt><trkpt lat="45.56488138412219" lon="10.073298341137477"><ele>160.5</ele><time>2026-03-29T16:49:25.999Z</time></trkpt><trkpt lat="45.56495304848573" lon="10.072928932769482"><ele>161.0</ele><time>2026-03-29T16:49:26.999Z</time></trkpt><trkpt lat="45.56502190756106" lon="10.072550341466682"><ele>161.5</ele><time>2026-03-29T16:49:27.999Z</time></trkpt><trkpt lat="45.565089160636326" lon="10.072172406690147"><ele>162.0</ele><time>2026-03-29T16:49:28.999Z</time></trkpt><trkpt lat="45.56515149526168" lon="10.0717994129901"><ele>162.0</ele><time>2026-03-29T16:49:29.999Z</time></trkpt><trkpt lat="45.56521600745364" lon="10.071425662956871"><ele>162.0</ele><time>2026-03-29T16:49:30.999Z</time></trkpt><trkpt lat="45.56528855746209" lon="10.071056999106448"><ele>162.0</ele><time>2026-03-29T16:49:31.999Z</time></trkpt><trkpt lat="45.5653584151693" lon="10.070688266349478"><ele>162.0</ele><time>2026-03-29T16:49:32.999Z</time></trkpt><trkpt lat="45.56542434634305" lon="10.07031876418322"><ele>163.0</ele><time>2026-03-29T16:49:33.999Z</time></trkpt><trkpt lat="45.5654920935605" lon="10.069951330109102"><ele>164.0</ele><time>2026-03-29T16:49:34.999Z</time></trkpt><trkpt lat="45.56555512721458" lon="10.069585974038976"><ele>164.0</ele><time>2026-03-29T16:49:35.999Z</time></trkpt><trkpt lat="45.5656283769007" lon="10.069221290746404"><ele>164.0</ele><time>2026-03-29T16:49:36.999Z</time></trkpt><trkpt lat="45.56569188235522" lon="10.068865362503892"><ele>163.5</ele><time>2026-03-29T16:49:37.999Z</time></trkpt><trkpt lat="45.56575671553349" lon="10.068519777854677"><ele>163.0</ele><time>2026-03-29T16:49:38.999Z</time></trkpt><trkpt lat="45.565825422378346" lon="10.068167386198532"><ele>163.0</ele><time>2026-03-29T16:49:39.999Z</time></trkpt><trkpt lat="45.56589160638864" lon="10.06782805307526"><ele>163.0</ele><time>2026-03-29T16:49:40.999Z</time></trkpt><trkpt lat="45.56595148049699" lon="10.067515231379396"><ele>162.66666666666669</ele><time>2026-03-29T16:49:41.999Z</time></trkpt><trkpt lat="45.56601012478269" lon="10.067211605837526"><ele>162.33333333333334</ele><time>2026-03-29T16:49:42.999Z</time></trkpt><trkpt lat="45.566067511889294" lon="10.066899715567375"><ele>162.0</ele><time>2026-03-29T16:49:43.999Z</time></trkpt><trkpt lat="45.566125906174946" lon="10.066585418098526"><ele>163.0</ele><time>2026-03-29T16:49:44.999Z</time></trkpt><trkpt lat="45.56618049044896" lon="10.066273887529354"><ele>164.0</ele><time>2026-03-29T16:49:45.999Z</time></trkpt><trkpt lat="45.56623314648141" lon="10.065976017728467"><ele>165.0</ele><time>2026-03-29T16:49:46.999Z</time></trkpt><trkpt lat="45.5662836660731" lon="10.065681166746403"><ele>165.33333333333334</ele><time>2026-03-29T16:49:47.999Z</time></trkpt><trkpt lat="45.56633917882167" lon="10.065380312061329"><ele>165.66666666666669</ele><time>2026-03-29T16:49:48.999Z</time></trkpt><trkpt lat="45.56639823903346" lon="10.06508014926327"><ele>166.0</ele><time>2026-03-29T16:49:49.999Z</time></trkpt><trkpt lat="45.566452412721894" lon="10.064766406993868"><ele>165.33333333333334</ele><time>2026-03-29T16:49:50.999Z</time></trkpt><trkpt lat="45.56650692599999" lon="10.064462058579775"><ele>164.66666666666666</ele><time>2026-03-29T16:49:51.999Z</time></trkpt><trkpt lat="45.56655974677619" lon="10.06414651042951"><ele>164.0</ele><time>2026-03-29T16:49:52.999Z</time></trkpt><trkpt lat="45.56661379769539" lon="10.063849772599372"><ele>164.0</ele><time>2026-03-29T16:49:53.999Z</time></trkpt><trkpt lat="45.56666585099022" lon="10.06356531397846"><ele>164.0</ele><time>2026-03-29T16:49:54.999Z</time></trkpt><trkpt lat="45.5667160014709" lon="10.063281898630944"><ele>164.0</ele><time>2026-03-29T16:49:55.999Z</time></trkpt><trkpt lat="45.56675540333036" lon="10.06298827914838"><ele>164.0</ele><time>2026-03-29T16:49:56.999Z</time></trkpt><trkpt lat="45.566795956868674" lon="10.062682529018536"><ele>164.0</ele><time>2026-03-29T16:49:57.999Z</time></trkpt><trkpt lat="45.56686005572711" lon="10.062367530600026"><ele>164.0</ele><time>2026-03-29T16:49:58.999Z</time></trkpt><trkpt lat="45.56691957746516" lon="10.062031528260803"><ele>164.5</ele><time>2026-03-29T16:49:59.999Z</time></trkpt><trkpt lat="45.56697940448174" lon="10.061689093675986"><ele>165.0</ele><time>2026-03-29T16:50:00.999Z</time></trkpt><trkpt lat="45.56706994611955" lon="10.061337261068108"><ele>165.5</ele><time>2026-03-29T16:50:01.999Z</time></trkpt><trkpt lat="45.567156250480885" lon="10.060995246452293"><ele>166.0</ele><time>2026-03-29T16:50:02.999Z</time></trkpt><trkpt lat="45.567205885829544" lon="10.060672748703768"><ele>166.0</ele><time>2026-03-29T16:50:03.999Z</time></trkpt><trkpt lat="45.56724809477033" lon="10.060367941755674"><ele>166.0</ele><time>2026-03-29T16:50:04.999Z</time></trkpt><trkpt lat="45.56729198915271" lon="10.060050111947351"><ele>166.0</ele><time>2026-03-29T16:50:06Z</time></trkpt><trkpt lat="45.567344374350725" lon="10.059702858238099"><ele>165.5</ele><time>2026-03-29T16:50:07Z</time></trkpt><trkpt lat="45.56741942035212" lon="10.059345490838208"><ele>165.0</ele><time>2026-03-29T16:50:08Z</time></trkpt><trkpt lat="45.56748014711523" lon="10.059011790492983"><ele>166.5</ele><time>2026-03-29T16:50:09Z</time></trkpt><trkpt lat="45.56753990998401" lon="10.058681365370134"><ele>168.0</ele><time>2026-03-29T16:50:10Z</time></trkpt><trkpt lat="45.56760157528306" lon="10.058355416177472"><ele>167.5</ele><time>2026-03-29T16:50:11Z</time></trkpt><trkpt lat="45.567660573578905" lon="10.058036021477482"><ele>167.0</ele><time>2026-03-29T16:50:12Z</time></trkpt><trkpt lat="45.56771840041256" lon="10.057710432452385"><ele>166.5</ele><time>2026-03-29T16:50:13Z</time></trkpt><trkpt lat="45.567780144095885" lon="10.05737357930647"><ele>166.0</ele><time>2026-03-29T16:50:14Z</time></trkpt><trkpt lat="45.56783621488453" lon="10.057028490929282"><ele>166.5</ele><time>2026-03-29T16:50:15Z</time></trkpt><trkpt lat="45.56789417308601" lon="10.056683897008696"><ele>167.0</ele><time>2026-03-29T16:50:16Z</time></trkpt><trkpt lat="45.567957767254335" lon="10.056348140547247"><ele>167.0</ele><time>2026-03-29T16:50:17Z</time></trkpt><trkpt lat="45.56801932797967" lon="10.05602880041187"><ele>167.0</ele><time>2026-03-29T16:50:18Z</time></trkpt><trkpt lat="45.568079016807246" lon="10.055698097229087"><ele>168.5</ele><time>2026-03-29T16:50:19Z</time></trkpt><trkpt lat="45.5681451141629" lon="10.05535931631434"><ele>170.0</ele><time>2026-03-29T16:50:20Z</time></trkpt><trkpt lat="45.5682132841538" lon="10.055015037866385"><ele>169.5</ele><time>2026-03-29T16:50:21Z</time></trkpt><trkpt lat="45.568294250208574" lon="10.054641090942297"><ele>169.0</ele><time>2026-03-29T16:50:22Z</time></trkpt><trkpt lat="45.56838964379582" lon="10.054243093559432"><ele>169.0</ele><time>2026-03-29T16:50:23Z</time></trkpt><trkpt lat="45.56847253384516" lon="10.053816764582484"><ele>169.0</ele><time>2026-03-29T16:50:24Z</time></trkpt><trkpt lat="45.56855196895357" lon="10.053373832324171"><ele>169.5</ele><time>2026-03-29T16:50:25Z</time></trkpt><trkpt lat="45.56862741987779" lon="10.052946526770695"><ele>170.0</ele><time>2026-03-29T16:50:26Z</time></trkpt><trkpt lat="45.568697956706046" lon="10.052557495622807"><ele>171.0</ele><time>2026-03-29T16:50:27Z</time></trkpt><trkpt lat="45.56875516737924" lon="10.052170885603715"><ele>172.0</ele><time>2026-03-29T16:50:28Z</time></trkpt><trkpt lat="45.56883217136724" lon="10.051791570694732"><ele>171.5</ele><time>2026-03-29T16:50:29Z</time></trkpt><trkpt lat="45.56890331716585" lon="10.051416685945654"><ele>171.0</ele><time>2026-03-29T16:50:30Z</time></trkpt><trkpt lat="45.56897474858955" lon="10.051041607761713"><ele>171.0</ele><time>2026-03-29T16:50:31Z</time></trkpt><trkpt lat="45.569044328035716" lon="10.050664623537193"><ele>171.0</ele><time>2026-03-29T16:50:32Z</time></trkpt><trkpt lat="45.569115485067535" lon="10.050285831608301"><ele>171.0</ele><time>2026-03-29T16:50:33Z</time></trkpt><trkpt lat="45.5691889945893" lon="10.049914645252086"><ele>171.0</ele><time>2026-03-29T16:50:34Z</time></trkpt><trkpt lat="45.56925291785829" lon="10.049540427589505"><ele>171.0</ele><time>2026-03-29T16:50:35Z</time></trkpt><trkpt lat="45.56931237593524" lon="10.049159355601722"><ele>171.0</ele><time>2026-03-29T16:50:36Z</time></trkpt><trkpt lat="45.569367632330476" lon="10.048780052816085"><ele>171.5</ele><time>2026-03-29T16:50:37Z</time></trkpt><trkpt lat="45.56942672112765" lon="10.048406891184062"><ele>172.0</ele><time>2026-03-29T16:50:38Z</time></trkpt><trkpt lat="45.56949456533468" lon="10.048031390948813"><ele>172.5</ele><time>2026-03-29T16:50:39Z</time></trkpt><trkpt lat="45.56956280933763" lon="10.04765194692214"><ele>173.0</ele><time>2026-03-29T16:50:40Z</time></trkpt><trkpt lat="45.56962980613135" lon="10.047278554569548"><ele>173.5</ele><time>2026-03-29T16:50:41Z</time></trkpt><trkpt lat="45.569697469553766" lon="10.046905168283084"><ele>174.0</ele><time>2026-03-29T16:50:42Z</time></trkpt><trkpt lat="45.569763726947365" lon="10.046539605937149"><ele>173.0</ele><time>2026-03-29T16:50:43Z</time></trkpt><trkpt lat="45.569834642620414" lon="10.046183906765524"><ele>172.0</ele><time>2026-03-29T16:50:44Z</time></trkpt><trkpt lat="45.569908346127264" lon="10.04581775750285"><ele>172.0</ele><time>2026-03-29T16:50:45Z</time></trkpt><trkpt lat="45.56996813235172" lon="10.045443857070095"><ele>172.0</ele><time>2026-03-29T16:50:46Z</time></trkpt><trkpt lat="45.57003985046659" lon="10.045060481173701"><ele>172.5</ele><time>2026-03-29T16:50:47Z</time></trkpt><trkpt lat="45.57011286047793" lon="10.044673612492733"><ele>173.0</ele><time>2026-03-29T16:50:48Z</time></trkpt><trkpt lat="45.57017383508531" lon="10.044302494471543"><ele>172.5</ele><time>2026-03-29T16:50:49Z</time></trkpt><trkpt lat="45.57024003930168" lon="10.0439517577171"><ele>172.0</ele><time>2026-03-29T16:50:50Z</time></trkpt><trkpt lat="45.57031045163785" lon="10.043596793774814"><ele>173.5</ele><time>2026-03-29T16:50:51Z</time></trkpt><trkpt lat="45.57037825532719" lon="10.04323571199847"><ele>175.0</ele><time>2026-03-29T16:50:52Z</time></trkpt><trkpt lat="45.570445858422296" lon="10.042881336828533"><ele>175.0</ele><time>2026-03-29T16:50:53Z</time></trkpt><trkpt lat="45.570512157759666" lon="10.042521753155407"><ele>175.0</ele><time>2026-03-29T16:50:54Z</time></trkpt><trkpt lat="45.570575442869504" lon="10.042161364605898"><ele>175.0</ele><time>2026-03-29T16:50:55Z</time></trkpt><trkpt lat="45.570641441462236" lon="10.041810402460765"><ele>175.0</ele><time>2026-03-29T16:50:56Z</time></trkpt><trkpt lat="45.57070486260458" lon="10.041459470719085"><ele>175.0</ele><time>2026-03-29T16:50:57Z</time></trkpt><trkpt lat="45.57076535217129" lon="10.041113916883152"><ele>175.0</ele><time>2026-03-29T16:50:58Z</time></trkpt><trkpt lat="45.57082609883675" lon="10.040791404413207"><ele>175.5</ele><time>2026-03-29T16:50:59Z</time></trkpt><trkpt lat="45.57088691612535" lon="10.04046930878032"><ele>176.0</ele><time>2026-03-29T16:51:00Z</time></trkpt><trkpt lat="45.57094768638001" lon="10.04015269863464"><ele>176.0</ele><time>2026-03-29T16:51:01Z</time></trkpt><trkpt lat="45.5710055028077" lon="10.039834653003563"><ele>176.0</ele><time>2026-03-29T16:51:02Z</time></trkpt><trkpt lat="45.57106368526747" lon="10.039522563355881"><ele>176.0</ele><time>2026-03-29T16:51:03Z</time></trkpt><trkpt lat="45.571118957788556" lon="10.039227335764972"><ele>176.0</ele><time>2026-03-29T16:51:04Z</time></trkpt><trkpt lat="45.57118106672978" lon="10.03892199047734"><ele>176.0</ele><time>2026-03-29T16:51:05Z</time></trkpt><trkpt lat="45.571260296989806" lon="10.038611434140325"><ele>176.0</ele><time>2026-03-29T16:51:06Z</time></trkpt><trkpt lat="45.57133702653576" lon="10.038277412369258"><ele>176.0</ele><time>2026-03-29T16:51:07Z</time></trkpt><trkpt lat="45.57140773743081" lon="10.037925961916194"><ele>176.0</ele><time>2026-03-29T16:51:08Z</time></trkpt><trkpt lat="45.5714723436704" lon="10.037560276426579"><ele>176.0</ele><time>2026-03-29T16:51:09Z</time></trkpt><trkpt lat="45.57153432830416" lon="10.037194831599106"><ele>176.0</ele><time>2026-03-29T16:51:10Z</time></trkpt><trkpt lat="45.57160000030143" lon="10.036823884126374"><ele>176.0</ele><time>2026-03-29T16:51:11Z</time></trkpt><trkpt lat="45.57166683284406" lon="10.036458734949987"><ele>175.0</ele><time>2026-03-29T16:51:12Z</time></trkpt><trkpt lat="45.571732805398085" lon="10.03611704848511"><ele>174.0</ele><time>2026-03-29T16:51:13Z</time></trkpt><trkpt lat="45.57179517644188" lon="10.035772127276473"><ele>174.0</ele><time>2026-03-29T16:51:14Z</time></trkpt><trkpt lat="45.57185505079566" lon="10.035423432626711"><ele>174.0</ele><time>2026-03-29T16:51:15Z</time></trkpt><trkpt lat="45.57191895692038" lon="10.03506993072803"><ele>174.5</ele><time>2026-03-29T16:51:16Z</time></trkpt><trkpt lat="45.571980807288185" lon="10.03471556469472"><ele>175.0</ele><time>2026-03-29T16:51:16.999Z</time></trkpt><trkpt lat="45.57204546190661" lon="10.034357494852927"><ele>175.5</ele><time>2026-03-29T16:51:17.999Z</time></trkpt><trkpt lat="45.5721130893988" lon="10.034009292023454"><ele>176.0</ele><time>2026-03-29T16:51:18.999Z</time></trkpt><trkpt lat="45.57217296593349" lon="10.0336730574367"><ele>176.0</ele><time>2026-03-29T16:51:19.999Z</time></trkpt><trkpt lat="45.57223622843584" lon="10.03332884233868"><ele>176.0</ele><time>2026-03-29T16:51:20.999Z</time></trkpt><trkpt lat="45.572303712321535" lon="10.032977241603202"><ele>176.0</ele><time>2026-03-29T16:51:21.999Z</time></trkpt><trkpt lat="45.572372715933724" lon="10.032619370197809"><ele>176.0</ele><time>2026-03-29T16:51:22.999Z</time></trkpt><trkpt lat="45.57244108048986" lon="10.032264753746592"><ele>176.0</ele><time>2026-03-29T16:51:23.999Z</time></trkpt><trkpt lat="45.572508041087296" lon="10.031907804945916"><ele>176.0</ele><time>2026-03-29T16:51:24.999Z</time></trkpt><trkpt lat="45.57257383023437" lon="10.03154963091282"><ele>177.0</ele><time>2026-03-29T16:51:25.999Z</time></trkpt><trkpt lat="45.572636219867405" lon="10.031185940032138"><ele>178.0</ele><time>2026-03-29T16:51:26.999Z</time></trkpt><trkpt lat="45.57269486319772" lon="10.030828911776771"><ele>178.5</ele><time>2026-03-29T16:51:27.999Z</time></trkpt><trkpt lat="45.57275573250643" lon="10.030474858930813"><ele>179.0</ele><time>2026-03-29T16:51:28.999Z</time></trkpt><trkpt lat="45.57280586338117" lon="10.030097102621413"><ele>178.0</ele><time>2026-03-29T16:51:29.999Z</time></trkpt><trkpt lat="45.572868254534065" lon="10.029691886928699"><ele>177.0</ele><time>2026-03-29T16:51:30.999Z</time></trkpt><trkpt lat="45.5729405801127" lon="10.029333240082105"><ele>177.0</ele><time>2026-03-29T16:51:31.999Z</time></trkpt><trkpt lat="45.573014530847374" lon="10.028969394228762"><ele>177.0</ele><time>2026-03-29T16:51:32.999Z</time></trkpt><trkpt lat="45.573096836422664" lon="10.028597677298144"><ele>177.0</ele><time>2026-03-29T16:51:33.999Z</time></trkpt><trkpt lat="45.573192182937476" lon="10.028251416429796"><ele>177.0</ele><time>2026-03-29T16:51:34.999Z</time></trkpt><trkpt lat="45.5732732148423" lon="10.027899745776363"><ele>177.0</ele><time>2026-03-29T16:51:35.999Z</time></trkpt><trkpt lat="45.57332672270564" lon="10.027518903928952"><ele>177.0</ele><time>2026-03-29T16:51:36.999Z</time></trkpt><trkpt lat="45.57338449749044" lon="10.027135598938056"><ele>177.5</ele><time>2026-03-29T16:51:37.999Z</time></trkpt><trkpt lat="45.573446197437725" lon="10.026761145666368"><ele>178.0</ele><time>2026-03-29T16:51:38.999Z</time></trkpt><trkpt lat="45.573508934864826" lon="10.02640051760539"><ele>178.0</ele><time>2026-03-29T16:51:39.999Z</time></trkpt><trkpt lat="45.57357492394703" lon="10.026044480639946"><ele>178.0</ele><time>2026-03-29T16:51:40.999Z</time></trkpt><trkpt lat="45.573640106258395" lon="10.02569006751138"><ele>178.5</ele><time>2026-03-29T16:51:41.999Z</time></trkpt><trkpt lat="45.573705640034646" lon="10.025331437960434"><ele>179.0</ele><time>2026-03-29T16:51:42.999Z</time></trkpt><trkpt lat="45.573774035205574" lon="10.024977655501726"><ele>179.0</ele><time>2026-03-29T16:51:43.999Z</time></trkpt><trkpt lat="45.573841716389104" lon="10.024617827516856"><ele>179.0</ele><time>2026-03-29T16:51:44.999Z</time></trkpt><trkpt lat="45.573906372220314" lon="10.024258225764525"><ele>179.0</ele><time>2026-03-29T16:51:45.999Z</time></trkpt><trkpt lat="45.57397024077858" lon="10.023899075378376"><ele>179.0</ele><time>2026-03-29T16:51:46.999Z</time></trkpt><trkpt lat="45.57403766915276" lon="10.023536352983484"><ele>178.5</ele><time>2026-03-29T16:51:47.999Z</time></trkpt><trkpt lat="45.574104851787965" lon="10.023174673309896"><ele>178.0</ele><time>2026-03-29T16:51:48.999Z</time></trkpt><trkpt lat="45.574166056253596" lon="10.022795176654657"><ele>178.0</ele><time>2026-03-29T16:51:49.999Z</time></trkpt><trkpt lat="45.57421957545904" lon="10.022387838912854"><ele>178.0</ele><time>2026-03-29T16:51:50.999Z</time></trkpt><trkpt lat="45.574287586801866" lon="10.021995141708464"><ele>178.5</ele><time>2026-03-29T16:51:51.999Z</time></trkpt><trkpt lat="45.574357171528625" lon="10.021640009903674"><ele>179.0</ele><time>2026-03-29T16:51:52.999Z</time></trkpt><trkpt lat="45.57442335135814" lon="10.021282499062828"><ele>179.0</ele><time>2026-03-29T16:51:53.999Z</time></trkpt><trkpt lat="45.57449244928126" lon="10.020932795817798"><ele>179.0</ele><time>2026-03-29T16:51:54.999Z</time></trkpt><trkpt lat="45.57456431220384" lon="10.020595600200949"><ele>179.0</ele><time>2026-03-29T16:51:55.999Z</time></trkpt><trkpt lat="45.57464171809349" lon="10.02025594438512"><ele>179.0</ele><time>2026-03-29T16:51:56.999Z</time></trkpt><trkpt lat="45.574735757676706" lon="10.019907555913589"><ele>179.0</ele><time>2026-03-29T16:51:57.999Z</time></trkpt><trkpt lat="45.57482989930224" lon="10.019573030855694"><ele>179.0</ele><time>2026-03-29T16:51:58.999Z</time></trkpt><trkpt lat="45.57490115454578" lon="10.019229120285944"><ele>179.0</ele><time>2026-03-29T16:51:59.999Z</time></trkpt><trkpt lat="45.57497007284888" lon="10.018881623144766"><ele>179.0</ele><time>2026-03-29T16:52:00.999Z</time></trkpt><trkpt lat="45.57503837804151" lon="10.018535163568751"><ele>179.0</ele><time>2026-03-29T16:52:01.999Z</time></trkpt><trkpt lat="45.57510635454238" lon="10.018183160240131"><ele>179.0</ele><time>2026-03-29T16:52:02.999Z</time></trkpt><trkpt lat="45.57518095748312" lon="10.017833289818254"><ele>179.5</ele><time>2026-03-29T16:52:03.999Z</time></trkpt><trkpt lat="45.57525387328904" lon="10.01748226613026"><ele>180.0</ele><time>2026-03-29T16:52:04.999Z</time></trkpt><trkpt lat="45.57532794069088" lon="10.017125211571667"><ele>180.5</ele><time>2026-03-29T16:52:05.999Z</time></trkpt><trkpt lat="45.57539861263884" lon="10.016773100464814"><ele>181.0</ele><time>2026-03-29T16:52:06.999Z</time></trkpt><trkpt lat="45.575456828473335" lon="10.016402681379681"><ele>181.0</ele><time>2026-03-29T16:52:07.999Z</time></trkpt><trkpt lat="45.57552731423267" lon="10.016014729796083"><ele>181.0</ele><time>2026-03-29T16:52:08.999Z</time></trkpt><trkpt lat="45.57560712601035" lon="10.015611827167875"><ele>181.0</ele><time>2026-03-29T16:52:09.999Z</time></trkpt><trkpt lat="45.575669478128276" lon="10.015212368502645"><ele>181.0</ele><time>2026-03-29T16:52:10.999Z</time></trkpt><trkpt lat="45.57574261445056" lon="10.014856677754796"><ele>180.5</ele><time>2026-03-29T16:52:12Z</time></trkpt><trkpt lat="45.57580669476244" lon="10.014514397291586"><ele>180.0</ele><time>2026-03-29T16:52:13Z</time></trkpt><trkpt lat="45.57586664472526" lon="10.014166839479433"><ele>179.5</ele><time>2026-03-29T16:52:14Z</time></trkpt><trkpt lat="45.57592976473269" lon="10.013827628158005"><ele>179.0</ele><time>2026-03-29T16:52:15Z</time></trkpt><trkpt lat="45.57598898367585" lon="10.013492662049448"><ele>179.5</ele><time>2026-03-29T16:52:16Z</time></trkpt><trkpt lat="45.57605310894753" lon="10.013154711998355"><ele>180.0</ele><time>2026-03-29T16:52:17Z</time></trkpt><trkpt lat="45.57611944681135" lon="10.012831599184974"><ele>180.0</ele><time>2026-03-29T16:52:18Z</time></trkpt><trkpt lat="45.57617443720749" lon="10.012513251919524"><ele>180.0</ele><time>2026-03-29T16:52:19Z</time></trkpt><trkpt lat="45.57623167518392" lon="10.012193890809227"><ele>180.5</ele><time>2026-03-29T16:52:20Z</time></trkpt><trkpt lat="45.57629133526311" lon="10.011874957064075"><ele>181.0</ele><time>2026-03-29T16:52:21Z</time></trkpt><trkpt lat="45.57634995823419" lon="10.011543993821226"><ele>182.0</ele><time>2026-03-29T16:52:22Z</time></trkpt><trkpt lat="45.57640678684159" lon="10.01121181092923"><ele>183.0</ele><time>2026-03-29T16:52:23Z</time></trkpt><trkpt lat="45.57647198630812" lon="10.010879608429448"><ele>184.0</ele><time>2026-03-29T16:52:24Z</time></trkpt><trkpt lat="45.576534613441" lon="10.010549217880012"><ele>185.0</ele><time>2026-03-29T16:52:25Z</time></trkpt><trkpt lat="45.57659481781085" lon="10.010224327162343"><ele>184.5</ele><time>2026-03-29T16:52:26Z</time></trkpt><trkpt lat="45.57665598367006" lon="10.009902562115856"><ele>184.0</ele><time>2026-03-29T16:52:27Z</time></trkpt><trkpt lat="45.57671333728476" lon="10.009580858900799"><ele>184.0</ele><time>2026-03-29T16:52:28Z</time></trkpt><trkpt lat="45.57676858087589" lon="10.009262510677662"><ele>184.0</ele><time>2026-03-29T16:52:29Z</time></trkpt><trkpt lat="45.57682591059144" lon="10.008942423887914"><ele>183.5</ele><time>2026-03-29T16:52:30Z</time></trkpt><trkpt lat="45.576884157707966" lon="10.00861666421253"><ele>183.0</ele><time>2026-03-29T16:52:31Z</time></trkpt><trkpt lat="45.57694118816013" lon="10.008298701583213"><ele>182.0</ele><time>2026-03-29T16:52:32Z</time></trkpt><trkpt lat="45.5770069004593" lon="10.007981577324719"><ele>181.0</ele><time>2026-03-29T16:52:33Z</time></trkpt><trkpt lat="45.57706588855301" lon="10.0076591290024"><ele>183.0</ele><time>2026-03-29T16:52:34Z</time></trkpt><trkpt lat="45.57712264162842" lon="10.007340615611598"><ele>185.0</ele><time>2026-03-29T16:52:35Z</time></trkpt><trkpt lat="45.577177528954785" lon="10.00702030477677"><ele>185.0</ele><time>2026-03-29T16:52:36Z</time></trkpt><trkpt lat="45.57723746119938" lon="10.0067036223801"><ele>185.0</ele><time>2026-03-29T16:52:37Z</time></trkpt><trkpt lat="45.577296254506145" lon="10.00638827739428"><ele>185.0</ele><time>2026-03-29T16:52:38Z</time></trkpt><trkpt lat="45.57735684515455" lon="10.006068524492786"><ele>185.0</ele><time>2026-03-29T16:52:39Z</time></trkpt><trkpt lat="45.57742400973576" lon="10.00574059831389"><ele>185.0</ele><time>2026-03-29T16:52:40Z</time></trkpt><trkpt lat="45.57748851549983" lon="10.005411133359951"><ele>185.0</ele><time>2026-03-29T16:52:41Z</time></trkpt><trkpt lat="45.577565603282" lon="10.005075101423188"><ele>186.0</ele><time>2026-03-29T16:52:42Z</time></trkpt><trkpt lat="45.57765058259402" lon="10.004715520004895"><ele>187.0</ele><time>2026-03-29T16:52:43Z</time></trkpt><trkpt lat="45.57772457920497" lon="10.004331669572053"><ele>186.5</ele><time>2026-03-29T16:52:44Z</time></trkpt><trkpt lat="45.577796068418024" lon="10.003922802871589"><ele>186.0</ele><time>2026-03-29T16:52:45Z</time></trkpt><trkpt lat="45.577857690409694" lon="10.003489426076014"><ele>187.0</ele><time>2026-03-29T16:52:46Z</time></trkpt><trkpt lat="45.57791206829749" lon="10.003074712014605"><ele>188.0</ele><time>2026-03-29T16:52:47Z</time></trkpt><trkpt lat="45.577991775986916" lon="10.00269103366567"><ele>188.5</ele><time>2026-03-29T16:52:48Z</time></trkpt><trkpt lat="45.578071557371594" lon="10.002306318982397"><ele>189.0</ele><time>2026-03-29T16:52:49Z</time></trkpt><trkpt lat="45.57814061189377" lon="10.001929290344147"><ele>189.0</ele><time>2026-03-29T16:52:50Z</time></trkpt><trkpt lat="45.5782083962748" lon="10.001553611108777"><ele>189.0</ele><time>2026-03-29T16:52:51Z</time></trkpt><trkpt lat="45.57827361747636" lon="10.001189494715815"><ele>189.0</ele><time>2026-03-29T16:52:52Z</time></trkpt><trkpt lat="45.578340974274084" lon="10.000834072771346"><ele>189.0</ele><time>2026-03-29T16:52:53Z</time></trkpt><trkpt lat="45.57840243229152" lon="10.000487074777697"><ele>189.5</ele><time>2026-03-29T16:52:54Z</time></trkpt><trkpt lat="45.5784617802429" lon="10.000147428257899"><ele>190.0</ele><time>2026-03-29T16:52:55Z</time></trkpt><trkpt lat="45.57851796837376" lon="9.99981533962498"><ele>190.0</ele><time>2026-03-29T16:52:56Z</time></trkpt><trkpt lat="45.57857939270792" lon="9.999488597027858"><ele>190.0</ele><time>2026-03-29T16:52:57Z</time></trkpt><trkpt lat="45.578643640555484" lon="9.999154271612001"><ele>191.0</ele><time>2026-03-29T16:52:58Z</time></trkpt><trkpt lat="45.5787046777842" lon="9.99881017654476"><ele>192.0</ele><time>2026-03-29T16:52:59Z</time></trkpt><trkpt lat="45.57876671314918" lon="9.998467507890412"><ele>192.5</ele><time>2026-03-29T16:53:00Z</time></trkpt><trkpt lat="45.57883758608788" lon="9.998122228536216"><ele>193.0</ele><time>2026-03-29T16:53:01Z</time></trkpt><trkpt lat="45.578905172834695" lon="9.997773200646353"><ele>193.5</ele><time>2026-03-29T16:53:02Z</time></trkpt><trkpt lat="45.57897160174947" lon="9.997413455099402"><ele>194.0</ele><time>2026-03-29T16:53:03Z</time></trkpt><trkpt lat="45.579037123368444" lon="9.997037772042853"><ele>194.0</ele><time>2026-03-29T16:53:04Z</time></trkpt><trkpt lat="45.579106597466975" lon="9.996663493590388"><ele>194.0</ele><time>2026-03-29T16:53:05Z</time></trkpt><trkpt lat="45.57917808866242" lon="9.996288197704716"><ele>194.0</ele><time>2026-03-29T16:53:06Z</time></trkpt><trkpt lat="45.57924894071024" lon="9.995905895448038"><ele>194.0</ele><time>2026-03-29T16:53:07Z</time></trkpt><trkpt lat="45.57931583658043" lon="9.995516900235941"><ele>194.5</ele><time>2026-03-29T16:53:08Z</time></trkpt><trkpt lat="45.57938161026202" lon="9.995121896040947"><ele>195.0</ele><time>2026-03-29T16:53:09Z</time></trkpt><trkpt lat="45.57945307693072" lon="9.99473259421627"><ele>196.5</ele><time>2026-03-29T16:53:10Z</time></trkpt><trkpt lat="45.57952381061335" lon="9.994341854269848"><ele>198.0</ele><time>2026-03-29T16:53:11Z</time></trkpt><trkpt lat="45.579593335338174" lon="9.993950917912"><ele>198.0</ele><time>2026-03-29T16:53:12Z</time></trkpt><trkpt lat="45.57966277521678" lon="9.99356834714956"><ele>198.0</ele><time>2026-03-29T16:53:13Z</time></trkpt><trkpt lat="45.57973617486118" lon="9.993192041304905"><ele>198.0</ele><time>2026-03-29T16:53:14Z</time></trkpt><trkpt lat="45.57981557734159" lon="9.99282817618206"><ele>198.0</ele><time>2026-03-29T16:53:15Z</time></trkpt><trkpt lat="45.57989924166392" lon="9.99247521766202"><ele>198.0</ele><time>2026-03-29T16:53:16Z</time></trkpt><trkpt lat="45.57998787233882" lon="9.99212422468546"><ele>198.0</ele><time>2026-03-29T16:53:17Z</time></trkpt><trkpt lat="45.58008296235127" lon="9.991781158953927"><ele>198.5</ele><time>2026-03-29T16:53:18Z</time></trkpt><trkpt lat="45.58018083358018" lon="9.99144374517155"><ele>199.0</ele><time>2026-03-29T16:53:19Z</time></trkpt><trkpt lat="45.580278592929275" lon="9.991102056919937"><ele>199.5</ele><time>2026-03-29T16:53:20Z</time></trkpt><trkpt lat="45.58037768973972" lon="9.990755546376773"><ele>200.0</ele><time>2026-03-29T16:53:21Z</time></trkpt><trkpt lat="45.580479740756786" lon="9.990413322076742"><ele>200.0</ele><time>2026-03-29T16:53:22Z</time></trkpt><trkpt lat="45.58058928972772" lon="9.99006673198364"><ele>200.0</ele><time>2026-03-29T16:53:23Z</time></trkpt><trkpt lat="45.58070211198647" lon="9.98971877863767"><ele>200.5</ele><time>2026-03-29T16:53:24Z</time></trkpt><trkpt lat="45.58082365722598" lon="9.98937862810514"><ele>201.0</ele><time>2026-03-29T16:53:24.999Z</time></trkpt><trkpt lat="45.58095253882644" lon="9.989039283345868"><ele>202.5</ele><time>2026-03-29T16:53:25.999Z</time></trkpt><trkpt lat="45.58108359119184" lon="9.988689848639218"><ele>204.0</ele><time>2026-03-29T16:53:26.999Z</time></trkpt><trkpt lat="45.58121822960485" lon="9.988342900443275"><ele>205.5</ele><time>2026-03-29T16:53:27.999Z</time></trkpt><trkpt lat="45.5813540140732" lon="9.987998367180673"><ele>207.0</ele><time>2026-03-29T16:53:28.999Z</time></trkpt><trkpt lat="45.58149587185007" lon="9.987659010771269"><ele>205.5</ele><time>2026-03-29T16:53:29.999Z</time></trkpt><trkpt lat="45.58163918665824" lon="9.987324025671521"><ele>204.0</ele><time>2026-03-29T16:53:30.999Z</time></trkpt><trkpt lat="45.58178478345912" lon="9.986991335159743"><ele>204.0</ele><time>2026-03-29T16:53:31.999Z</time></trkpt><trkpt lat="45.5819325208564" lon="9.986670966991099"><ele>204.0</ele><time>2026-03-29T16:53:32.999Z</time></trkpt><trkpt lat="45.582083160092395" lon="9.986353196759529"><ele>204.0</ele><time>2026-03-29T16:53:33.999Z</time></trkpt><trkpt lat="45.58223802445079" lon="9.986039835414461"><ele>204.0</ele><time>2026-03-29T16:53:34.999Z</time></trkpt><trkpt lat="45.58239607743727" lon="9.98573150776791"><ele>202.5</ele><time>2026-03-29T16:53:35.999Z</time></trkpt><trkpt lat="45.58255488992888" lon="9.98542347817632"><ele>201.0</ele><time>2026-03-29T16:53:36.999Z</time></trkpt><trkpt lat="45.582711147721746" lon="9.985123004077366"><ele>201.0</ele><time>2026-03-29T16:53:37.999Z</time></trkpt><trkpt lat="45.58287102316567" lon="9.984830690881665"><ele>201.0</ele><time>2026-03-29T16:53:38.999Z</time></trkpt><trkpt lat="45.58303563305713" lon="9.984536059181412"><ele>201.0</ele><time>2026-03-29T16:53:39.999Z</time></trkpt><trkpt lat="45.58320186084041" lon="9.984242061740241"><ele>201.0</ele><time>2026-03-29T16:53:40.999Z</time></trkpt><trkpt lat="45.58337284153343" lon="9.98394591555516"><ele>201.0</ele><time>2026-03-29T16:53:41.999Z</time></trkpt><trkpt lat="45.583546206353034" lon="9.983655506354646"><ele>201.0</ele><time>2026-03-29T16:53:42.999Z</time></trkpt><trkpt lat="45.583716734384794" lon="9.983358212976123"><ele>202.0</ele><time>2026-03-29T16:53:43.999Z</time></trkpt><trkpt lat="45.58388576805044" lon="9.983063681459333"><ele>203.0</ele><time>2026-03-29T16:53:44.999Z</time></trkpt><trkpt lat="45.58405386286863" lon="9.982775720525323"><ele>202.5</ele><time>2026-03-29T16:53:45.999Z</time></trkpt><trkpt lat="45.58422268486404" lon="9.982487041477112"><ele>202.0</ele><time>2026-03-29T16:53:46.999Z</time></trkpt><trkpt lat="45.584388629523886" lon="9.982204261863785"><ele>202.5</ele><time>2026-03-29T16:53:47.999Z</time></trkpt><trkpt lat="45.58455193864406" lon="9.981920154922385"><ele>203.0</ele><time>2026-03-29T16:53:48.999Z</time></trkpt><trkpt lat="45.58471492211432" lon="9.981638757709371"><ele>203.0</ele><time>2026-03-29T16:53:49.999Z</time></trkpt><trkpt lat="45.58487732400641" lon="9.981359112109566"><ele>203.0</ele><time>2026-03-29T16:53:50.999Z</time></trkpt><trkpt lat="45.58503663177387" lon="9.98108397786901"><ele>202.5</ele><time>2026-03-29T16:53:51.999Z</time></trkpt><trkpt lat="45.58519666843616" lon="9.980809462075936"><ele>202.0</ele><time>2026-03-29T16:53:52.999Z</time></trkpt><trkpt lat="45.585357388482436" lon="9.980536050653402"><ele>203.5</ele><time>2026-03-29T16:53:53.999Z</time></trkpt><trkpt lat="45.585515045001216" lon="9.980263654897705"><ele>205.0</ele><time>2026-03-29T16:53:54.999Z</time></trkpt><trkpt lat="45.58567441239939" lon="9.979989518098535"><ele>205.5</ele><time>2026-03-29T16:53:55.999Z</time></trkpt><trkpt lat="45.585833455659355" lon="9.9797141192844"><ele>206.0</ele><time>2026-03-29T16:53:56.999Z</time></trkpt><trkpt lat="45.585994684568696" lon="9.979436557029857"><ele>206.5</ele><time>2026-03-29T16:53:57.999Z</time></trkpt><trkpt lat="45.586159157630505" lon="9.9791637933819"><ele>207.0</ele><time>2026-03-29T16:53:58.999Z</time></trkpt><trkpt lat="45.58632602266412" lon="9.978894856657586"><ele>207.0</ele><time>2026-03-29T16:53:59.999Z</time></trkpt><trkpt lat="45.58649741006375" lon="9.978623628297376"><ele>207.0</ele><time>2026-03-29T16:54:00.999Z</time></trkpt><trkpt lat="45.58666736882408" lon="9.978347025802329"><ele>207.5</ele><time>2026-03-29T16:54:01.999Z</time></trkpt><trkpt lat="45.58683474344439" lon="9.978062817386945"><ele>208.0</ele><time>2026-03-29T16:54:02.999Z</time></trkpt><trkpt lat="45.586995889466266" lon="9.977777635684516"><ele>207.5</ele><time>2026-03-29T16:54:03.999Z</time></trkpt><trkpt lat="45.58715213546531" lon="9.977495386769231"><ele>207.0</ele><time>2026-03-29T16:54:04.999Z</time></trkpt><trkpt lat="45.58730758028278" lon="9.977216338319003"><ele>207.0</ele><time>2026-03-29T16:54:05.999Z</time></trkpt><trkpt lat="45.58746676558848" lon="9.976945160839424"><ele>207.0</ele><time>2026-03-29T16:54:06.999Z</time></trkpt><trkpt lat="45.587623831539794" lon="9.976673545589339"><ele>207.0</ele><time>2026-03-29T16:54:07.999Z</time></trkpt><trkpt lat="45.58777761159653" lon="9.976390905486017"><ele>207.0</ele><time>2026-03-29T16:54:08.999Z</time></trkpt><trkpt lat="45.58792768554343" lon="9.97611028645111"><ele>208.5</ele><time>2026-03-29T16:54:09.999Z</time></trkpt><trkpt lat="45.588076710293834" lon="9.975831102516883"><ele>210.0</ele><time>2026-03-29T16:54:10.999Z</time></trkpt><trkpt lat="45.58822987432639" lon="9.975558672113275"><ele>210.0</ele><time>2026-03-29T16:54:11.999Z</time></trkpt><trkpt lat="45.588379859056786" lon="9.975296432931717"><ele>210.0</ele><time>2026-03-29T16:54:12.999Z</time></trkpt><trkpt lat="45.58852886247097" lon="9.975038869584221"><ele>210.5</ele><time>2026-03-29T16:54:13.999Z</time></trkpt><trkpt lat="45.58867745190306" lon="9.974781723190821"><ele>211.0</ele><time>2026-03-29T16:54:14.999Z</time></trkpt><trkpt lat="45.588824018853664" lon="9.974527632519658"><ele>211.0</ele><time>2026-03-29T16:54:15.999Z</time></trkpt><trkpt lat="45.588968853276675" lon="9.974275239292338"><ele>211.0</ele><time>2026-03-29T16:54:16.999Z</time></trkpt><trkpt lat="45.58911460868045" lon="9.97402175782111"><ele>210.5</ele><time>2026-03-29T16:54:18Z</time></trkpt><trkpt lat="45.58926417378593" lon="9.973767837815176"><ele>210.0</ele><time>2026-03-29T16:54:19Z</time></trkpt><trkpt lat="45.5894137812571" lon="9.973512239123476"><ele>211.0</ele><time>2026-03-29T16:54:20Z</time></trkpt><trkpt lat="45.58956189188746" lon="9.973256508192225"><ele>212.0</ele><time>2026-03-29T16:54:21Z</time></trkpt><trkpt lat="45.58971097109479" lon="9.97299451898334"><ele>212.0</ele><time>2026-03-29T16:54:22Z</time></trkpt><trkpt lat="45.58985984947406" lon="9.972733869689128"><ele>212.0</ele><time>2026-03-29T16:54:23Z</time></trkpt><trkpt lat="45.59000842484899" lon="9.972470693429328"><ele>212.5</ele><time>2026-03-29T16:54:24Z</time></trkpt><trkpt lat="45.59016031450495" lon="9.972207718356113"><ele>213.0</ele><time>2026-03-29T16:54:25Z</time></trkpt><trkpt lat="45.59031126383704" lon="9.971947839022306"><ele>213.0</ele><time>2026-03-29T16:54:26Z</time></trkpt><trkpt lat="45.59046349272326" lon="9.971693982040518"><ele>213.0</ele><time>2026-03-29T16:54:27Z</time></trkpt><trkpt lat="45.59061691652282" lon="9.971436132391517"><ele>212.5</ele><time>2026-03-29T16:54:28Z</time></trkpt><trkpt lat="45.590768094958555" lon="9.971170570939007"><ele>212.0</ele><time>2026-03-29T16:54:29Z</time></trkpt><trkpt lat="45.59091907070434" lon="9.970904403444207"><ele>211.5</ele><time>2026-03-29T16:54:30Z</time></trkpt><trkpt lat="45.59107153157615" lon="9.970642372986411"><ele>211.0</ele><time>2026-03-29T16:54:31Z</time></trkpt><trkpt lat="45.59122989968911" lon="9.970385473411536"><ele>211.5</ele><time>2026-03-29T16:54:32Z</time></trkpt><trkpt lat="45.591402834631445" lon="9.970113183404052"><ele>212.0</ele><time>2026-03-29T16:54:33Z</time></trkpt><trkpt lat="45.59157946871819" lon="9.969815421092271"><ele>212.0</ele><time>2026-03-29T16:54:34Z</time></trkpt><trkpt lat="45.59176006112174" lon="9.969506389973136"><ele>212.0</ele><time>2026-03-29T16:54:35Z</time></trkpt><trkpt lat="45.591952020454" lon="9.969169027729572"><ele>213.0</ele><time>2026-03-29T16:54:36Z</time></trkpt><trkpt lat="45.592139219033946" lon="9.96881060451024"><ele>214.0</ele><time>2026-03-29T16:54:37Z</time></trkpt><trkpt lat="45.59231133035806" lon="9.968490148528902"><ele>213.0</ele><time>2026-03-29T16:54:38Z</time></trkpt><trkpt lat="45.5924934661449" lon="9.968182160875134"><ele>212.0</ele><time>2026-03-29T16:54:39Z</time></trkpt><trkpt lat="45.592674105847074" lon="9.967869856113563"><ele>212.5</ele><time>2026-03-29T16:54:40Z</time></trkpt><trkpt lat="45.5928476226082" lon="9.967567559196075"><ele>213.0</ele><time>2026-03-29T16:54:41Z</time></trkpt><trkpt lat="45.593020591581045" lon="9.967263653389367"><ele>213.0</ele><time>2026-03-29T16:54:42Z</time></trkpt><trkpt lat="45.59320310764194" lon="9.96696590558289"><ele>213.0</ele><time>2026-03-29T16:54:43Z</time></trkpt><trkpt lat="45.59338612889625" lon="9.966668378466679"><ele>213.5</ele><time>2026-03-29T16:54:44Z</time></trkpt><trkpt lat="45.593566242949585" lon="9.966359478270718"><ele>214.0</ele><time>2026-03-29T16:54:45Z</time></trkpt><trkpt lat="45.59374034066954" lon="9.966053400706263"><ele>214.5</ele><time>2026-03-29T16:54:46Z</time></trkpt><trkpt lat="45.59391772063343" lon="9.96573625890509"><ele>215.0</ele><time>2026-03-29T16:54:47Z</time></trkpt><trkpt lat="45.59408433086199" lon="9.965444093863335"><ele>215.0</ele><time>2026-03-29T16:54:48Z</time></trkpt><trkpt lat="45.59425174495191" lon="9.965157180608408"><ele>215.0</ele><time>2026-03-29T16:54:49Z</time></trkpt><trkpt lat="45.59441201350896" lon="9.964864631845517"><ele>215.5</ele><time>2026-03-29T16:54:50Z</time></trkpt><trkpt lat="45.594569394746216" lon="9.964579883599075"><ele>216.0</ele><time>2026-03-29T16:54:51Z</time></trkpt><trkpt lat="45.594734263515036" lon="9.964298630644654"><ele>215.5</ele><time>2026-03-29T16:54:52Z</time></trkpt><trkpt lat="45.594897888072" lon="9.964008645852967"><ele>215.0</ele><time>2026-03-29T16:54:53Z</time></trkpt><trkpt lat="45.595058327719954" lon="9.963709406427293"><ele>215.0</ele><time>2026-03-29T16:54:54Z</time></trkpt><trkpt lat="45.59522298617706" lon="9.963407460795409"><ele>215.0</ele><time>2026-03-29T16:54:55Z</time></trkpt><trkpt lat="45.59539303539952" lon="9.963110174860438"><ele>214.5</ele><time>2026-03-29T16:54:56Z</time></trkpt><trkpt lat="45.595564410136895" lon="9.962808100547417"><ele>214.0</ele><time>2026-03-29T16:54:57Z</time></trkpt><trkpt lat="45.595741030527435" lon="9.962501625715618"><ele>213.0</ele><time>2026-03-29T16:54:58Z</time></trkpt><trkpt lat="45.595917088178574" lon="9.962194203008556"><ele>212.0</ele><time>2026-03-29T16:54:59Z</time></trkpt><trkpt lat="45.59609233710936" lon="9.961894447646136"><ele>213.0</ele><time>2026-03-29T16:55:00Z</time></trkpt><trkpt lat="45.59627376896892" lon="9.961592361274718"><ele>214.0</ele><time>2026-03-29T16:55:01Z</time></trkpt><trkpt lat="45.59645144573684" lon="9.961291288479547"><ele>214.0</ele><time>2026-03-29T16:55:02Z</time></trkpt><trkpt lat="45.596623352366066" lon="9.960989799722906"><ele>214.0</ele><time>2026-03-29T16:55:03Z</time></trkpt><trkpt lat="45.5967926648822" lon="9.960685268343328"><ele>213.5</ele><time>2026-03-29T16:55:04Z</time></trkpt><trkpt lat="45.59696625360684" lon="9.960383909331654"><ele>213.0</ele><time>2026-03-29T16:55:05Z</time></trkpt><trkpt lat="45.59713817376391" lon="9.960077249812159"><ele>212.5</ele><time>2026-03-29T16:55:06Z</time></trkpt><trkpt lat="45.59731218377621" lon="9.959772168028849"><ele>212.0</ele><time>2026-03-29T16:55:07Z</time></trkpt><trkpt lat="45.59748806576151" lon="9.959467845026856"><ele>211.0</ele><time>2026-03-29T16:55:08Z</time></trkpt><trkpt lat="45.59766467489904" lon="9.959165583119319"><ele>210.0</ele><time>2026-03-29T16:55:09Z</time></trkpt><trkpt lat="45.59783936536577" lon="9.958860301252539"><ele>210.0</ele><time>2026-03-29T16:55:10Z</time></trkpt><trkpt lat="45.59801344426644" lon="9.958560910436805"><ele>210.0</ele><time>2026-03-29T16:55:11Z</time></trkpt><trkpt lat="45.598187006871136" lon="9.958263878472213"><ele>210.5</ele><time>2026-03-29T16:55:12Z</time></trkpt><trkpt lat="45.5983615970533" lon="9.957967714909353"><ele>211.0</ele><time>2026-03-29T16:55:13Z</time></trkpt><trkpt lat="45.59853256979727" lon="9.95767163893024"><ele>210.0</ele><time>2026-03-29T16:55:14Z</time></trkpt><trkpt lat="45.598705237964175" lon="9.957373660103974"><ele>209.0</ele><time>2026-03-29T16:55:15Z</time></trkpt><trkpt lat="45.598880467566794" lon="9.957074690730973"><ele>209.0</ele><time>2026-03-29T16:55:16Z</time></trkpt><trkpt lat="45.599055211367805" lon="9.956772933241783"><ele>209.0</ele><time>2026-03-29T16:55:17Z</time></trkpt><trkpt lat="45.59923351736854" lon="9.956467511817863"><ele>209.0</ele><time>2026-03-29T16:55:18Z</time></trkpt><trkpt lat="45.5994058390627" lon="9.956158671258102"><ele>209.0</ele><time>2026-03-29T16:55:19Z</time></trkpt><trkpt lat="45.599587303990354" lon="9.955850661032976"><ele>209.0</ele><time>2026-03-29T16:55:20Z</time></trkpt><trkpt lat="45.59976889212686" lon="9.95554152179589"><ele>209.0</ele><time>2026-03-29T16:55:21Z</time></trkpt><trkpt lat="45.59994789087994" lon="9.955231290463496"><ele>209.5</ele><time>2026-03-29T16:55:22Z</time></trkpt><trkpt lat="45.60012760019562" lon="9.954921629803694"><ele>210.0</ele><time>2026-03-29T16:55:23Z</time></trkpt><trkpt lat="45.60030939938976" lon="9.95461103344172"><ele>209.5</ele><time>2026-03-29T16:55:24Z</time></trkpt><trkpt lat="45.600493260511364" lon="9.954294347895733"><ele>209.0</ele><time>2026-03-29T16:55:25Z</time></trkpt><trkpt lat="45.60067660629817" lon="9.953978163519983"><ele>208.5</ele><time>2026-03-29T16:55:26Z</time></trkpt><trkpt lat="45.60085597756229" lon="9.953661450941208"><ele>208.0</ele><time>2026-03-29T16:55:26.999Z</time></trkpt><trkpt lat="45.60103979159896" lon="9.95334376207223"><ele>209.5</ele><time>2026-03-29T16:55:27.999Z</time></trkpt><trkpt lat="45.6012235491558" lon="9.953031178753472"><ele>211.0</ele><time>2026-03-29T16:55:28.999Z</time></trkpt><trkpt lat="45.60140617335162" lon="9.952715190659424"><ele>210.0</ele><time>2026-03-29T16:55:29.999Z</time></trkpt><trkpt lat="45.60160052200374" lon="9.952381814462383"><ele>209.0</ele><time>2026-03-29T16:55:30.999Z</time></trkpt><trkpt lat="45.60179600513537" lon="9.95202990077736"><ele>210.0</ele><time>2026-03-29T16:55:31.999Z</time></trkpt><trkpt lat="45.6020065450439" lon="9.951662850100455"><ele>211.0</ele><time>2026-03-29T16:55:32.999Z</time></trkpt><trkpt lat="45.60222092304736" lon="9.951290461091107"><ele>211.0</ele><time>2026-03-29T16:55:33.999Z</time></trkpt><trkpt lat="45.60244651647005" lon="9.95089945449899"><ele>211.0</ele><time>2026-03-29T16:55:34.999Z</time></trkpt><trkpt lat="45.602672711599986" lon="9.95050193728397"><ele>211.0</ele><time>2026-03-29T16:55:35.999Z</time></trkpt><trkpt lat="45.60290272501345" lon="9.950099666863695"><ele>211.0</ele><time>2026-03-29T16:55:36.999Z</time></trkpt><trkpt lat="45.60314090689049" lon="9.949687827785793"><ele>212.0</ele><time>2026-03-29T16:55:37.999Z</time></trkpt><trkpt lat="45.60338081821495" lon="9.949269958276057"><ele>213.0</ele><time>2026-03-29T16:55:38.999Z</time></trkpt><trkpt lat="45.60359374399071" lon="9.948889979755283"><ele>213.0</ele><time>2026-03-29T16:55:39.999Z</time></trkpt><trkpt lat="45.60379498657908" lon="9.948538335714668"><ele>213.0</ele><time>2026-03-29T16:55:40.999Z</time></trkpt><trkpt lat="45.603999681869546" lon="9.94819730109376"><ele>211.5</ele><time>2026-03-29T16:55:41.999Z</time></trkpt><trkpt lat="45.60419201435373" lon="9.947862521761763"><ele>210.0</ele><time>2026-03-29T16:55:42.999Z</time></trkpt><trkpt lat="45.60438591261174" lon="9.947526830325302"><ele>208.0</ele><time>2026-03-29T16:55:43.999Z</time></trkpt><trkpt lat="45.60457182910567" lon="9.94719929439071"><ele>206.0</ele><time>2026-03-29T16:55:44.999Z</time></trkpt><trkpt lat="45.6047620618753" lon="9.946874470280902"><ele>205.0</ele><time>2026-03-29T16:55:45.999Z</time></trkpt><trkpt lat="45.60494640399268" lon="9.94654263524758"><ele>204.0</ele><time>2026-03-29T16:55:46.999Z</time></trkpt><trkpt lat="45.60513739762085" lon="9.946201844955334"><ele>205.0</ele><time>2026-03-29T16:55:47.999Z</time></trkpt><trkpt lat="45.605330844261644" lon="9.945864276300174"><ele>206.0</ele><time>2026-03-29T16:55:48.999Z</time></trkpt><trkpt lat="45.605524654624695" lon="9.9455300975069"><ele>206.0</ele><time>2026-03-29T16:55:49.999Z</time></trkpt><trkpt lat="45.60572066128977" lon="9.945200848693728"><ele>206.0</ele><time>2026-03-29T16:55:50.999Z</time></trkpt><trkpt lat="45.605913555598804" lon="9.944866127584113"><ele>206.0</ele><time>2026-03-29T16:55:51.999Z</time></trkpt><trkpt lat="45.606107903781705" lon="9.944535915447968"><ele>206.0</ele><time>2026-03-29T16:55:52.999Z</time></trkpt><trkpt lat="45.6062996876527" lon="9.944201202128184"><ele>206.5</ele><time>2026-03-29T16:55:53.999Z</time></trkpt><trkpt lat="45.606488572028994" lon="9.94386232426376"><ele>207.0</ele><time>2026-03-29T16:55:54.999Z</time></trkpt><trkpt lat="45.60668103821359" lon="9.943528916279616"><ele>207.0</ele><time>2026-03-29T16:55:55.999Z</time></trkpt><trkpt lat="45.606874119546966" lon="9.943185086721389"><ele>207.0</ele><time>2026-03-29T16:55:56.999Z</time></trkpt><trkpt lat="45.60707270909788" lon="9.942837216622424"><ele>206.0</ele><time>2026-03-29T16:55:57.999Z</time></trkpt><trkpt lat="45.60725623027353" lon="9.94252114966428"><ele>205.0</ele><time>2026-03-29T16:55:58.999Z</time></trkpt><trkpt lat="45.60743160847084" lon="9.942217601919626"><ele>205.0</ele><time>2026-03-29T16:55:59.999Z</time></trkpt><trkpt lat="45.60760692751441" lon="9.941907819513032"><ele>205.0</ele><time>2026-03-29T16:56:00.999Z</time></trkpt><trkpt lat="45.607785348821366" lon="9.941592691026413"><ele>205.5</ele><time>2026-03-29T16:56:01.999Z</time></trkpt><trkpt lat="45.60796541867982" lon="9.941277611934314"><ele>206.0</ele><time>2026-03-29T16:56:02.999Z</time></trkpt><trkpt lat="45.60815275181272" lon="9.940958369629929"><ele>205.0</ele><time>2026-03-29T16:56:03.999Z</time></trkpt><trkpt lat="45.608340693459304" lon="9.940636633402022"><ele>204.0</ele><time>2026-03-29T16:56:04.999Z</time></trkpt><trkpt lat="45.60852574146343" lon="9.940313710270448"><ele>204.0</ele><time>2026-03-29T16:56:05.999Z</time></trkpt><trkpt lat="45.608708599446175" lon="9.939990863791051"><ele>204.0</ele><time>2026-03-29T16:56:06.999Z</time></trkpt><trkpt lat="45.608886822729374" lon="9.939669391690561"><ele>204.0</ele><time>2026-03-29T16:56:07.999Z</time></trkpt><trkpt lat="45.60907050552938" lon="9.93935171638375"><ele>204.0</ele><time>2026-03-29T16:56:08.999Z</time></trkpt><trkpt lat="45.60925405629025" lon="9.93903253383405"><ele>204.0</ele><time>2026-03-29T16:56:09.999Z</time></trkpt><trkpt lat="45.60943978798216" lon="9.93871846607152"><ele>204.0</ele><time>2026-03-29T16:56:10.999Z</time></trkpt><trkpt lat="45.609623803636154" lon="9.93840783503459"><ele>204.0</ele><time>2026-03-29T16:56:11.999Z</time></trkpt><trkpt lat="45.609802226206085" lon="9.938099431426862"><ele>204.0</ele><time>2026-03-29T16:56:12.999Z</time></trkpt><trkpt lat="45.60997707549547" lon="9.937783912359997"><ele>203.5</ele><time>2026-03-29T16:56:13.999Z</time></trkpt><trkpt lat="45.61015887031332" lon="9.93746576389799"><ele>203.0</ele><time>2026-03-29T16:56:14.999Z</time></trkpt><trkpt lat="45.61034594166602" lon="9.93714559789218"><ele>203.0</ele><time>2026-03-29T16:56:15.999Z</time></trkpt><trkpt lat="45.610528007509856" lon="9.936828115618797"><ele>203.0</ele><time>2026-03-29T16:56:16.999Z</time></trkpt><trkpt lat="45.61069797712975" lon="9.936530375818855"><ele>202.0</ele><time>2026-03-29T16:56:17.999Z</time></trkpt><trkpt lat="45.610865764388" lon="9.936238701299239"><ele>201.0</ele><time>2026-03-29T16:56:18.999Z</time></trkpt><trkpt lat="45.61103328143677" lon="9.93594640678161"><ele>202.0</ele><time>2026-03-29T16:56:19.999Z</time></trkpt><trkpt lat="45.61120160048506" lon="9.935658086320666"><ele>203.0</ele><time>2026-03-29T16:56:20.999Z</time></trkpt><trkpt lat="45.611373884232655" lon="9.935370384878867"><ele>203.0</ele><time>2026-03-29T16:56:21.999Z</time></trkpt><trkpt lat="45.611541143556025" lon="9.935080166861287"><ele>203.0</ele><time>2026-03-29T16:56:22.999Z</time></trkpt><trkpt lat="45.611707813665774" lon="9.93479073328269"><ele>203.0</ele><time>2026-03-29T16:56:24Z</time></trkpt><trkpt lat="45.61187093107734" lon="9.934507406810562"><ele>203.0</ele><time>2026-03-29T16:56:25Z</time></trkpt><trkpt lat="45.612036243650394" lon="9.934223836715244"><ele>203.0</ele><time>2026-03-29T16:56:26Z</time></trkpt><trkpt lat="45.612204895635" lon="9.933935133598354"><ele>203.0</ele><time>2026-03-29T16:56:27Z</time></trkpt><trkpt lat="45.612376287471825" lon="9.933644792013164"><ele>202.5</ele><time>2026-03-29T16:56:28Z</time></trkpt><trkpt lat="45.61254898969781" lon="9.933347691101318"><ele>202.0</ele><time>2026-03-29T16:56:29Z</time></trkpt><trkpt lat="45.61271224077938" lon="9.93306397663341"><ele>202.5</ele><time>2026-03-29T16:56:30Z</time></trkpt><trkpt lat="45.612879832927945" lon="9.932791115616462"><ele>203.0</ele><time>2026-03-29T16:56:31Z</time></trkpt><trkpt lat="45.61305910355093" lon="9.932519582360142"><ele>203.0</ele><time>2026-03-29T16:56:32Z</time></trkpt><trkpt lat="45.61323193538538" lon="9.932240632075217"><ele>203.0</ele><time>2026-03-29T16:56:33Z</time></trkpt><trkpt lat="45.613397551568674" lon="9.931949593554837"><ele>201.0</ele><time>2026-03-29T16:56:34Z</time></trkpt><trkpt lat="45.6135628657778" lon="9.931663812631221"><ele>199.0</ele><time>2026-03-29T16:56:35Z</time></trkpt><trkpt lat="45.613725088778395" lon="9.93138183974742"><ele>199.0</ele><time>2026-03-29T16:56:36Z</time></trkpt><trkpt lat="45.6138853792833" lon="9.931106134757192"><ele>199.0</ele><time>2026-03-29T16:56:37Z</time></trkpt><trkpt lat="45.61405190198914" lon="9.930834683087179"><ele>199.0</ele><time>2026-03-29T16:56:38Z</time></trkpt><trkpt lat="45.61421308273211" lon="9.930560322117993"><ele>199.0</ele><time>2026-03-29T16:56:39Z</time></trkpt><trkpt lat="45.61437433876226" lon="9.93027713544668"><ele>198.0</ele><time>2026-03-29T16:56:40Z</time></trkpt><trkpt lat="45.614536047956584" lon="9.929990026703459"><ele>197.0</ele><time>2026-03-29T16:56:41Z</time></trkpt><trkpt lat="45.61469720614835" lon="9.929698810448516"><ele>197.0</ele><time>2026-03-29T16:56:42Z</time></trkpt><trkpt lat="45.614852587506554" lon="9.929413461707282"><ele>197.0</ele><time>2026-03-29T16:56:43Z</time></trkpt><trkpt lat="45.61500188325592" lon="9.929150637779658"><ele>197.5</ele><time>2026-03-29T16:56:44Z</time></trkpt><trkpt lat="45.61515681500167" lon="9.928875415930579"><ele>198.0</ele><time>2026-03-29T16:56:45Z</time></trkpt><trkpt lat="45.615312952522125" lon="9.928602567306573"><ele>197.0</ele><time>2026-03-29T16:56:46Z</time></trkpt><trkpt lat="45.61547226074944" lon="9.928318060691224"><ele>196.0</ele><time>2026-03-29T16:56:47Z</time></trkpt><trkpt lat="45.61563019628302" lon="9.928041286658518"><ele>196.0</ele><time>2026-03-29T16:56:48Z</time></trkpt><trkpt lat="45.61578815791458" lon="9.927765647739172"><ele>196.0</ele><time>2026-03-29T16:56:49Z</time></trkpt><trkpt lat="45.615938772459785" lon="9.927484794021726"><ele>196.0</ele><time>2026-03-29T16:56:50Z</time></trkpt><trkpt lat="45.61608907716511" lon="9.927200908772587"><ele>196.0</ele><time>2026-03-29T16:56:51Z</time></trkpt><trkpt lat="45.6162410709016" lon="9.926905200413383"><ele>196.0</ele><time>2026-03-29T16:56:52Z</time></trkpt><trkpt lat="45.61639341579579" lon="9.926599306383485"><ele>196.0</ele><time>2026-03-29T16:56:53Z</time></trkpt><trkpt lat="45.6165403780024" lon="9.92629413520124"><ele>196.0</ele><time>2026-03-29T16:56:54Z</time></trkpt><trkpt lat="45.61668469526901" lon="9.925984462114275"><ele>196.0</ele><time>2026-03-29T16:56:55Z</time></trkpt><trkpt lat="45.6168263523929" lon="9.925675367622132"><ele>196.5</ele><time>2026-03-29T16:56:56Z</time></trkpt><trkpt lat="45.61696857364461" lon="9.925368292743311"><ele>197.0</ele><time>2026-03-29T16:56:57Z</time></trkpt><trkpt lat="45.617105002271565" lon="9.925055663277366"><ele>197.5</ele><time>2026-03-29T16:56:58Z</time></trkpt><trkpt lat="45.6172419265235" lon="9.924740838188098"><ele>198.0</ele><time>2026-03-29T16:56:59Z</time></trkpt><trkpt lat="45.617374878581984" lon="9.924424217073996"><ele>197.5</ele><time>2026-03-29T16:57:00Z</time></trkpt><trkpt lat="45.617506773880535" lon="9.924107464688921"><ele>197.0</ele><time>2026-03-29T16:57:01Z</time></trkpt><trkpt lat="45.617639689293355" lon="9.923784888263944"><ele>197.0</ele><time>2026-03-29T16:57:02Z</time></trkpt><trkpt lat="45.617783389966135" lon="9.92346577285823"><ele>197.0</ele><time>2026-03-29T16:57:03Z</time></trkpt><trkpt lat="45.61790065438715" lon="9.923137277227381"><ele>197.5</ele><time>2026-03-29T16:57:04Z</time></trkpt><trkpt lat="45.61801998918979" lon="9.922807793455226"><ele>198.0</ele><time>2026-03-29T16:57:05Z</time></trkpt><trkpt lat="45.61813707721931" lon="9.922480157585483"><ele>198.0</ele><time>2026-03-29T16:57:06Z</time></trkpt><trkpt lat="45.618243582102636" lon="9.922151688426856"><ele>198.0</ele><time>2026-03-29T16:57:07Z</time></trkpt><trkpt lat="45.61835218041613" lon="9.921823612318102"><ele>196.5</ele><time>2026-03-29T16:57:08Z</time></trkpt><trkpt lat="45.61845292731371" lon="9.921490822777795"><ele>195.0</ele><time>2026-03-29T16:57:09Z</time></trkpt><trkpt lat="45.61855280139964" lon="9.921155531946235"><ele>195.0</ele><time>2026-03-29T16:57:10Z</time></trkpt><trkpt lat="45.61865007343308" lon="9.920811004072004"><ele>195.0</ele><time>2026-03-29T16:57:11Z</time></trkpt><trkpt lat="45.61874212235748" lon="9.920460852219856"><ele>195.0</ele><time>2026-03-29T16:57:12Z</time></trkpt><trkpt lat="45.618833422778806" lon="9.920098753482721"><ele>195.0</ele><time>2026-03-29T16:57:13Z</time></trkpt><trkpt lat="45.618924091584795" lon="9.919754384020074"><ele>196.0</ele><time>2026-03-29T16:57:14Z</time></trkpt><trkpt lat="45.61901174512339" lon="9.919411705016266"><ele>197.0</ele><time>2026-03-29T16:57:15Z</time></trkpt><trkpt lat="45.619102025678785" lon="9.91906993343534"><ele>197.5</ele><time>2026-03-29T16:57:16Z</time></trkpt><trkpt lat="45.61918833394924" lon="9.91872584014132"><ele>198.0</ele><time>2026-03-29T16:57:17Z</time></trkpt><trkpt lat="45.619274232562226" lon="9.918381858465613"><ele>198.0</ele><time>2026-03-29T16:57:18Z</time></trkpt><trkpt lat="45.619354699536416" lon="9.918039605778496"><ele>198.0</ele><time>2026-03-29T16:57:19Z</time></trkpt><trkpt lat="45.61942025067411" lon="9.917718256848326"><ele>198.0</ele><time>2026-03-29T16:57:20Z</time></trkpt><trkpt lat="45.619481966021716" lon="9.917421720052952"><ele>198.0</ele><time>2026-03-29T16:57:21Z</time></trkpt><trkpt lat="45.61953907443148" lon="9.917109584305686"><ele>198.0</ele><time>2026-03-29T16:57:22Z</time></trkpt><trkpt lat="45.619599789699066" lon="9.916769739992022"><ele>198.5</ele><time>2026-03-29T16:57:23Z</time></trkpt><trkpt lat="45.61967340351176" lon="9.916418281489317"><ele>199.0</ele><time>2026-03-29T16:57:24Z</time></trkpt><trkpt lat="45.61975208584068" lon="9.91605893645948"><ele>198.5</ele><time>2026-03-29T16:57:25Z</time></trkpt><trkpt lat="45.619837407986026" lon="9.915698417865885"><ele>198.0</ele><time>2026-03-29T16:57:26Z</time></trkpt><trkpt lat="45.61991827644754" lon="9.915340077675204"><ele>198.0</ele><time>2026-03-29T16:57:27Z</time></trkpt><trkpt lat="45.61999702251363" lon="9.91498436247495"><ele>198.0</ele><time>2026-03-29T16:57:28Z</time></trkpt><trkpt lat="45.62008419375386" lon="9.914613669693336"><ele>198.0</ele><time>2026-03-29T16:57:29Z</time></trkpt><trkpt lat="45.62016144080896" lon="9.914243407419695"><ele>198.0</ele><time>2026-03-29T16:57:30Z</time></trkpt><trkpt lat="45.620234834402375" lon="9.913883258888495"><ele>199.0</ele><time>2026-03-29T16:57:31Z</time></trkpt><trkpt lat="45.620302230481805" lon="9.913539565831485"><ele>200.0</ele><time>2026-03-29T16:57:31.999Z</time></trkpt><trkpt lat="45.620376163637054" lon="9.913189788860292"><ele>200.0</ele><time>2026-03-29T16:57:32.999Z</time></trkpt><trkpt lat="45.620461856510815" lon="9.912845554512892"><ele>200.0</ele><time>2026-03-29T16:57:33.999Z</time></trkpt><trkpt lat="45.62054379590104" lon="9.912500780864198"><ele>199.5</ele><time>2026-03-29T16:57:34.999Z</time></trkpt><trkpt lat="45.620616484587316" lon="9.912152444163842"><ele>199.0</ele><time>2026-03-29T16:57:35.999Z</time></trkpt><trkpt lat="45.62068859713092" lon="9.911809891223015"><ele>197.5</ele><time>2026-03-29T16:57:36.999Z</time></trkpt><trkpt lat="45.62075897212517" lon="9.911473143171863"><ele>196.0</ele><time>2026-03-29T16:57:37.999Z</time></trkpt><trkpt lat="45.62082009959285" lon="9.91114972855511"><ele>193.5</ele><time>2026-03-29T16:57:38.999Z</time></trkpt><trkpt lat="45.62088395067303" lon="9.910824453710177"><ele>191.0</ele><time>2026-03-29T16:57:39.999Z</time></trkpt><trkpt lat="45.620943007550395" lon="9.91049534788412"><ele>191.0</ele><time>2026-03-29T16:57:40.999Z</time></trkpt><trkpt lat="45.62099547829827" lon="9.910158433726385"><ele>191.0</ele><time>2026-03-29T16:57:41.999Z</time></trkpt><trkpt lat="45.62105672472083" lon="9.909807323305708"><ele>191.0</ele><time>2026-03-29T16:57:42.999Z</time></trkpt><trkpt lat="45.621126382593694" lon="9.90945370451664"><ele>191.0</ele><time>2026-03-29T16:57:43.999Z</time></trkpt><trkpt lat="45.621199530884496" lon="9.90910737193093"><ele>191.0</ele><time>2026-03-29T16:57:44.999Z</time></trkpt><trkpt lat="45.621289670079015" lon="9.908759713645823"><ele>191.0</ele><time>2026-03-29T16:57:45.999Z</time></trkpt><trkpt lat="45.62137137103454" lon="9.908407697533502"><ele>191.0</ele><time>2026-03-29T16:57:46.999Z</time></trkpt><trkpt lat="45.62144295589912" lon="9.90804909997434"><ele>191.0</ele><time>2026-03-29T16:57:47.999Z</time></trkpt><trkpt lat="45.62152060261967" lon="9.907693546135029"><ele>191.5</ele><time>2026-03-29T16:57:48.999Z</time></trkpt><trkpt lat="45.62160172319437" lon="9.90734662540023"><ele>192.0</ele><time>2026-03-29T16:57:49.999Z</time></trkpt><trkpt lat="45.62167891403168" lon="9.907000603046578"><ele>191.5</ele><time>2026-03-29T16:57:50.999Z</time></trkpt><trkpt lat="45.62175867598407" lon="9.906652286061126"><ele>191.0</ele><time>2026-03-29T16:57:51.999Z</time></trkpt><trkpt lat="45.62183790096793" lon="9.906307181309268"><ele>191.0</ele><time>2026-03-29T16:57:52.999Z</time></trkpt><trkpt lat="45.62191018489094" lon="9.905958456067887"><ele>191.0</ele><time>2026-03-29T16:57:53.999Z</time></trkpt><trkpt lat="45.621981400116944" lon="9.90561303497336"><ele>191.0</ele><time>2026-03-29T16:57:54.999Z</time></trkpt><trkpt lat="45.6220542021354" lon="9.905272755274419"><ele>191.0</ele><time>2026-03-29T16:57:55.999Z</time></trkpt><trkpt lat="45.62211893843683" lon="9.904932357357715"><ele>191.0</ele><time>2026-03-29T16:57:56.999Z</time></trkpt><trkpt lat="45.62218536798368" lon="9.90458696621613"><ele>191.0</ele><time>2026-03-29T16:57:57.999Z</time></trkpt><trkpt lat="45.6222467947623" lon="9.904231035423374"><ele>190.5</ele><time>2026-03-29T16:57:58.999Z</time></trkpt><trkpt lat="45.62231361648412" lon="9.90386217439135"><ele>190.0</ele><time>2026-03-29T16:57:59.999Z</time></trkpt><trkpt lat="45.622396808236914" lon="9.903486130724577"><ele>182.5</ele><time>2026-03-29T16:58:00.999Z</time></trkpt><trkpt lat="45.62247225658181" lon="9.90313902170498"><ele>175.0</ele><time>2026-03-29T16:58:01.999Z</time></trkpt><trkpt lat="45.62255170922433" lon="9.902790267464962"><ele>164.5</ele><time>2026-03-29T16:58:02.999Z</time></trkpt><trkpt lat="45.62265385655083" lon="9.902441686498078"><ele>154.0</ele><time>2026-03-29T16:58:03.999Z</time></trkpt><trkpt lat="45.622745638029706" lon="9.902076128210698"><ele>155.0</ele><time>2026-03-29T16:58:04.999Z</time></trkpt><trkpt lat="45.6228162780222" lon="9.901719026925884"><ele>156.0</ele><time>2026-03-29T16:58:05.999Z</time></trkpt><trkpt lat="45.62289063698173" lon="9.90136579207978"><ele>156.0</ele><time>2026-03-29T16:58:06.999Z</time></trkpt><trkpt lat="45.622966560378295" lon="9.901014343098568"><ele>156.0</ele><time>2026-03-29T16:58:07.999Z</time></trkpt><trkpt lat="45.623046572161094" lon="9.900659158562883"><ele>168.0</ele><time>2026-03-29T16:58:08.999Z</time></trkpt><trkpt lat="45.623124930020296" lon="9.900312922261909"><ele>180.0</ele><time>2026-03-29T16:58:09.999Z</time></trkpt><trkpt lat="45.623200909837685" lon="9.899954690782135"><ele>188.0</ele><time>2026-03-29T16:58:10.999Z</time></trkpt><trkpt lat="45.62327732930842" lon="9.899613058581059"><ele>196.0</ele><time>2026-03-29T16:58:11.999Z</time></trkpt><trkpt lat="45.62335988726309" lon="9.899255134614435"><ele>198.5</ele><time>2026-03-29T16:58:12.999Z</time></trkpt><trkpt lat="45.62343591702943" lon="9.898905805574625"><ele>201.0</ele><time>2026-03-29T16:58:13.999Z</time></trkpt><trkpt lat="45.62351578964073" lon="9.898561118351708"><ele>201.0</ele><time>2026-03-29T16:58:14.999Z</time></trkpt><trkpt lat="45.62359541558333" lon="9.898214917038764"><ele>201.0</ele><time>2026-03-29T16:58:15.999Z</time></trkpt><trkpt lat="45.623674289043876" lon="9.897863354084949"><ele>201.5</ele><time>2026-03-29T16:58:16.999Z</time></trkpt><trkpt lat="45.623749974438546" lon="9.897522758229103"><ele>202.0</ele><time>2026-03-29T16:58:17.999Z</time></trkpt><trkpt lat="45.623820306194624" lon="9.897176012953098"><ele>202.0</ele><time>2026-03-29T16:58:18.999Z</time></trkpt><trkpt lat="45.623888008191116" lon="9.896825956268646"><ele>202.0</ele><time>2026-03-29T16:58:19.999Z</time></trkpt><trkpt lat="45.623951027715854" lon="9.896463627384808"><ele>201.5</ele><time>2026-03-29T16:58:20.999Z</time></trkpt><trkpt lat="45.624022256973866" lon="9.896085769622527"><ele>201.0</ele><time>2026-03-29T16:58:21.999Z</time></trkpt><trkpt lat="45.62410796629123" lon="9.895725482919483"><ele>201.0</ele><time>2026-03-29T16:58:22.999Z</time></trkpt><trkpt lat="45.62418363322023" lon="9.895405367827074"><ele>201.0</ele><time>2026-03-29T16:58:23.999Z</time></trkpt><trkpt lat="45.62425693117961" lon="9.895091458630755"><ele>201.5</ele><time>2026-03-29T16:58:24.999Z</time></trkpt><trkpt lat="45.624330024683935" lon="9.894764830366073"><ele>202.0</ele><time>2026-03-29T16:58:25.999Z</time></trkpt><trkpt lat="45.62441126677006" lon="9.89443761095445"><ele>204.0</ele><time>2026-03-29T16:58:26.999Z</time></trkpt><trkpt lat="45.62449512403278" lon="9.894105052296503"><ele>206.0</ele><time>2026-03-29T16:58:27.999Z</time></trkpt><trkpt lat="45.62457929118677" lon="9.89377307235457"><ele>207.5</ele><time>2026-03-29T16:58:28.999Z</time></trkpt><trkpt lat="45.62468214802287" lon="9.89342119393778"><ele>209.0</ele><time>2026-03-29T16:58:30Z</time></trkpt><trkpt lat="45.62479312159608" lon="9.893046823241486"><ele>209.0</ele><time>2026-03-29T16:58:31Z</time></trkpt><trkpt lat="45.624893900458794" lon="9.892649689624168"><ele>209.0</ele><time>2026-03-29T16:58:32Z</time></trkpt><trkpt lat="45.624992432412846" lon="9.892225396938208"><ele>208.5</ele><time>2026-03-29T16:58:33Z</time></trkpt><trkpt lat="45.625083673736256" lon="9.891790229721412"><ele>208.0</ele><time>2026-03-29T16:58:34Z</time></trkpt><trkpt lat="45.62517615828727" lon="9.89136211057363"><ele>208.0</ele><time>2026-03-29T16:58:35Z</time></trkpt><trkpt lat="45.62527153903813" lon="9.890972689345437"><ele>208.0</ele><time>2026-03-29T16:58:36Z</time></trkpt><trkpt lat="45.625361566333595" lon="9.890587422906128"><ele>208.0</ele><time>2026-03-29T16:58:37Z</time></trkpt><trkpt lat="45.62544306723902" lon="9.890205393277645"><ele>208.0</ele><time>2026-03-29T16:58:38Z</time></trkpt><trkpt lat="45.62552810462512" lon="9.88982810708195"><ele>207.5</ele><time>2026-03-29T16:58:39Z</time></trkpt><trkpt lat="45.625607267068354" lon="9.88944981780201"><ele>207.0</ele><time>2026-03-29T16:58:40Z</time></trkpt><trkpt lat="45.62569280268596" lon="9.889069715862556"><ele>207.0</ele><time>2026-03-29T16:58:41Z</time></trkpt><trkpt lat="45.62578110018739" lon="9.888691184732869"><ele>207.0</ele><time>2026-03-29T16:58:42Z</time></trkpt><trkpt lat="45.625866761983204" lon="9.888315223283353"><ele>207.0</ele><time>2026-03-29T16:58:43Z</time></trkpt><trkpt lat="45.62596039339941" lon="9.887943295023275"><ele>207.0</ele><time>2026-03-29T16:58:44Z</time></trkpt><trkpt lat="45.62604930448567" lon="9.887574848312845"><ele>206.5</ele><time>2026-03-29T16:58:45Z</time></trkpt><trkpt lat="45.626140214866204" lon="9.887215706388703"><ele>206.0</ele><time>2026-03-29T16:58:46Z</time></trkpt><trkpt lat="45.62622668570569" lon="9.886841717296196"><ele>207.0</ele><time>2026-03-29T16:58:47Z</time></trkpt><trkpt lat="45.62631012198792" lon="9.886468681125308"><ele>208.0</ele><time>2026-03-29T16:58:48Z</time></trkpt><trkpt lat="45.62639041587082" lon="9.886092501683834"><ele>208.0</ele><time>2026-03-29T16:58:49Z</time></trkpt><trkpt lat="45.62647521626062" lon="9.885715451809885"><ele>208.0</ele><time>2026-03-29T16:58:50Z</time></trkpt><trkpt lat="45.62655910498633" lon="9.885340386742966"><ele>208.5</ele><time>2026-03-29T16:58:51Z</time></trkpt><trkpt lat="45.626639826742384" lon="9.884963122358736"><ele>209.0</ele><time>2026-03-29T16:58:52Z</time></trkpt><trkpt lat="45.626715888346446" lon="9.884587869342903"><ele>207.5</ele><time>2026-03-29T16:58:53Z</time></trkpt><trkpt lat="45.626792997252245" lon="9.88421061270131"><ele>206.0</ele><time>2026-03-29T16:58:54Z</time></trkpt><trkpt lat="45.626868555430356" lon="9.883836222094244"><ele>206.0</ele><time>2026-03-29T16:58:55Z</time></trkpt><trkpt lat="45.62695112635112" lon="9.883462469397127"><ele>206.0</ele><time>2026-03-29T16:58:56Z</time></trkpt><trkpt lat="45.62703251721122" lon="9.883097757815534"><ele>206.5</ele><time>2026-03-29T16:58:57Z</time></trkpt><trkpt lat="45.62711846165635" lon="9.882730531047153"><ele>207.0</ele><time>2026-03-29T16:58:58Z</time></trkpt><trkpt lat="45.62718974957714" lon="9.882356154928054"><ele>207.0</ele><time>2026-03-29T16:58:59Z</time></trkpt><trkpt lat="45.62725674149759" lon="9.881974991754381"><ele>207.0</ele><time>2026-03-29T16:59:00Z</time></trkpt><trkpt lat="45.627344408948815" lon="9.881599922455003"><ele>207.5</ele><time>2026-03-29T16:59:01Z</time></trkpt><trkpt lat="45.627424656132106" lon="9.881216206095667"><ele>208.0</ele><time>2026-03-29T16:59:02Z</time></trkpt><trkpt lat="45.627509278602005" lon="9.880833155990624"><ele>207.0</ele><time>2026-03-29T16:59:03Z</time></trkpt><trkpt lat="45.62759148255725" lon="9.880438167755997"><ele>206.0</ele><time>2026-03-29T16:59:04Z</time></trkpt><trkpt lat="45.62768012858605" lon="9.880023158131435"><ele>206.0</ele><time>2026-03-29T16:59:05Z</time></trkpt><trkpt lat="45.62777472844176" lon="9.879595098252857"><ele>206.0</ele><time>2026-03-29T16:59:06Z</time></trkpt><trkpt lat="45.62787242295096" lon="9.879164147754699"><ele>205.0</ele><time>2026-03-29T16:59:07Z</time></trkpt><trkpt lat="45.62795803505294" lon="9.878770874200919"><ele>204.0</ele><time>2026-03-29T16:59:08Z</time></trkpt><trkpt lat="45.628039550477894" lon="9.878382867133913"><ele>203.5</ele><time>2026-03-29T16:59:09Z</time></trkpt><trkpt lat="45.62811587894329" lon="9.878004295736735"><ele>203.0</ele><time>2026-03-29T16:59:10Z</time></trkpt><trkpt lat="45.62820332836699" lon="9.877631336053371"><ele>202.0</ele><time>2026-03-29T16:59:11Z</time></trkpt><trkpt lat="45.628285355552926" lon="9.877261960604173"><ele>201.0</ele><time>2026-03-29T16:59:12Z</time></trkpt><trkpt lat="45.62836273375786" lon="9.876897026212365"><ele>202.0</ele><time>2026-03-29T16:59:13Z</time></trkpt><trkpt lat="45.62844190090477" lon="9.876532709511087"><ele>203.0</ele><time>2026-03-29T16:59:14Z</time></trkpt><trkpt lat="45.62852615231772" lon="9.876178552688499"><ele>203.0</ele><time>2026-03-29T16:59:15Z</time></trkpt><trkpt lat="45.6286303900472" lon="9.87580687015732"><ele>203.0</ele><time>2026-03-29T16:59:16Z</time></trkpt><trkpt lat="45.62873751178325" lon="9.875401414256153"><ele>202.5</ele><time>2026-03-29T16:59:17Z</time></trkpt><trkpt lat="45.62883511189239" lon="9.874971367324928"><ele>202.0</ele><time>2026-03-29T16:59:18Z</time></trkpt><trkpt lat="45.62893595803689" lon="9.874524658120103"><ele>201.5</ele><time>2026-03-29T16:59:19Z</time></trkpt><trkpt lat="45.62902924349537" lon="9.874057753896551"><ele>201.0</ele><time>2026-03-29T16:59:20Z</time></trkpt><trkpt lat="45.62913327617875" lon="9.873577518210826"><ele>201.0</ele><time>2026-03-29T16:59:21Z</time></trkpt><trkpt lat="45.6292457794221" lon="9.873087062272766"><ele>201.0</ele><time>2026-03-29T16:59:22Z</time></trkpt><trkpt lat="45.62934306234127" lon="9.872638637473871"><ele>201.0</ele><time>2026-03-29T16:59:23Z</time></trkpt><trkpt lat="45.62943283841273" lon="9.872222011500785"><ele>201.0</ele><time>2026-03-29T16:59:24Z</time></trkpt><trkpt lat="45.629516159159884" lon="9.871778610981535"><ele>201.0</ele><time>2026-03-29T16:59:25Z</time></trkpt><trkpt lat="45.62960190032719" lon="9.87131254669304"><ele>201.0</ele><time>2026-03-29T16:59:26Z</time></trkpt><trkpt lat="45.62969023996494" lon="9.870884985307738"><ele>200.5</ele><time>2026-03-29T16:59:27Z</time></trkpt><trkpt lat="45.62977816316245" lon="9.870500047867075"><ele>200.0</ele><time>2026-03-29T16:59:28Z</time></trkpt><trkpt lat="45.62986015693419" lon="9.87013552829786"><ele>201.0</ele><time>2026-03-29T16:59:29Z</time></trkpt><trkpt lat="45.62994117833606" lon="9.869769538138103"><ele>202.0</ele><time>2026-03-29T16:59:30Z</time></trkpt><trkpt lat="45.63002177032426" lon="9.869407024136141"><ele>201.5</ele><time>2026-03-29T16:59:31Z</time></trkpt><trkpt lat="45.630105611876196" lon="9.869028433739969"><ele>201.0</ele><time>2026-03-29T16:59:32Z</time></trkpt><trkpt lat="45.63019096079143" lon="9.868643914391349"><ele>200.0</ele><time>2026-03-29T16:59:33Z</time></trkpt><trkpt lat="45.630275536993665" lon="9.868257713680391"><ele>199.0</ele><time>2026-03-29T16:59:34Z</time></trkpt><trkpt lat="45.63036367777736" lon="9.86786875420882"><ele>201.0</ele><time>2026-03-29T16:59:35Z</time></trkpt><trkpt lat="45.63045220106683" lon="9.867477847037444"><ele>203.0</ele><time>2026-03-29T16:59:36Z</time></trkpt><trkpt lat="45.630539250207015" lon="9.867077134357954"><ele>202.5</ele><time>2026-03-29T16:59:37Z</time></trkpt><trkpt lat="45.63062770885761" lon="9.866676937593779"><ele>202.0</ele><time>2026-03-29T16:59:38Z</time></trkpt><trkpt lat="45.630714908390964" lon="9.866274382872867"><ele>202.0</ele><time>2026-03-29T16:59:39Z</time></trkpt><trkpt lat="45.630801409280565" lon="9.8658701664277"><ele>202.0</ele><time>2026-03-29T16:59:39.999Z</time></trkpt><trkpt lat="45.6308879901605" lon="9.865468511206497"><ele>202.0</ele><time>2026-03-29T16:59:40.999Z</time></trkpt><trkpt lat="45.630974368810485" lon="9.865067806959946"><ele>202.0</ele><time>2026-03-29T16:59:41.999Z</time></trkpt><trkpt lat="45.63106086501521" lon="9.864661935736041"><ele>201.0</ele><time>2026-03-29T16:59:42.999Z</time></trkpt><trkpt lat="45.63114913457601" lon="9.86425320332119"><ele>200.0</ele><time>2026-03-29T16:59:43.999Z</time></trkpt><trkpt lat="45.63124756625289" lon="9.863828386224492"><ele>200.0</ele><time>2026-03-29T16:59:44.999Z</time></trkpt><trkpt lat="45.63135188978371" lon="9.863386916887665"><ele>200.0</ele><time>2026-03-29T16:59:45.999Z</time></trkpt><trkpt lat="45.631455497430494" lon="9.862932521201717"><ele>199.0</ele><time>2026-03-29T16:59:46.999Z</time></trkpt><trkpt lat="45.63155631178801" lon="9.862505573488333"><ele>198.0</ele><time>2026-03-29T16:59:47.999Z</time></trkpt><trkpt lat="45.63164842517817" lon="9.86211177148563"><ele>198.0</ele><time>2026-03-29T16:59:48.999Z</time></trkpt><trkpt lat="45.631738882148944" lon="9.861722847150395"><ele>198.0</ele><time>2026-03-29T16:59:49.999Z</time></trkpt><trkpt lat="45.63183349103708" lon="9.861345294536065"><ele>198.0</ele><time>2026-03-29T16:59:50.999Z</time></trkpt><trkpt lat="45.631931836979234" lon="9.860965919524158"><ele>198.0</ele><time>2026-03-29T16:59:51.999Z</time></trkpt><trkpt lat="45.63204621394625" lon="9.860584505147548"><ele>198.0</ele><time>2026-03-29T16:59:52.999Z</time></trkpt><trkpt lat="45.63216161963955" lon="9.860179995040758"><ele>198.0</ele><time>2026-03-29T16:59:53.999Z</time></trkpt><trkpt lat="45.632253703636614" lon="9.859776641016904"><ele>198.0</ele><time>2026-03-29T16:59:54.999Z</time></trkpt><trkpt lat="45.63233683382216" lon="9.859403848239467"><ele>198.0</ele><time>2026-03-29T16:59:55.999Z</time></trkpt><trkpt lat="45.632410167216804" lon="9.859059756879638"><ele>197.5</ele><time>2026-03-29T16:59:56.999Z</time></trkpt><trkpt lat="45.63248198030384" lon="9.858735657167857"><ele>197.0</ele><time>2026-03-29T16:59:57.999Z</time></trkpt><trkpt lat="45.63254736721788" lon="9.858433249971123"><ele>197.0</ele><time>2026-03-29T16:59:58.999Z</time></trkpt><trkpt lat="45.63260302224054" lon="9.858140109313712"><ele>197.0</ele><time>2026-03-29T16:59:59.999Z</time></trkpt><trkpt lat="45.632662301448846" lon="9.857877537577588"><ele>197.0</ele><time>2026-03-29T17:00:00.999Z</time></trkpt><trkpt lat="45.632729452997516" lon="9.857665825409017"><ele>196.5</ele><time>2026-03-29T17:00:01.999Z</time></trkpt><trkpt lat="45.632817321420106" lon="9.85751037168654"><ele>196.0</ele><time>2026-03-29T17:00:02.999Z</time></trkpt><trkpt lat="45.632926506258094" lon="9.857400516396206"><ele>195.5</ele><time>2026-03-29T17:00:03.999Z</time></trkpt><trkpt lat="45.633046658637504" lon="9.85735120366871"><ele>195.0</ele><time>2026-03-29T17:00:04.999Z</time></trkpt><trkpt lat="45.63316479377068" lon="9.857357111220932"><ele>195.0</ele><time>2026-03-29T17:00:05.999Z</time></trkpt><trkpt lat="45.63327898166345" lon="9.857410566051938"><ele>195.0</ele><time>2026-03-29T17:00:06.999Z</time></trkpt><trkpt lat="45.63339529690643" lon="9.857504507974268"><ele>195.0</ele><time>2026-03-29T17:00:07.999Z</time></trkpt><trkpt lat="45.633503346665314" lon="9.857499211759881"><ele>195.0</ele><time>2026-03-29T17:00:08.999Z</time></trkpt><trkpt lat="45.633604789457" lon="9.857508277056287"><ele>195.0</ele><time>2026-03-29T17:00:09.999Z</time></trkpt><trkpt lat="45.63369408816234" lon="9.85746993126909"><ele>195.0</ele><time>2026-03-29T17:00:10.999Z</time></trkpt><trkpt lat="45.63379385744097" lon="9.857455417767806"><ele>195.0</ele><time>2026-03-29T17:00:11.999Z</time></trkpt><trkpt lat="45.63388876056547" lon="9.857398568247513"><ele>195.0</ele><time>2026-03-29T17:00:12.999Z</time></trkpt><trkpt lat="45.633981901168006" lon="9.857320782418093"><ele>195.0</ele><time>2026-03-29T17:00:13.999Z</time></trkpt><trkpt lat="45.634048323737034" lon="9.857190286856268"><ele>195.0</ele><time>2026-03-29T17:00:14.999Z</time></trkpt><trkpt lat="45.63410727969281" lon="9.857072172991487"><ele>195.0</ele><time>2026-03-29T17:00:15.999Z</time></trkpt><trkpt lat="45.63415425734391" lon="9.856949841836846"><ele>195.0</ele><time>2026-03-29T17:00:16.999Z</time></trkpt><trkpt lat="45.63418584292278" lon="9.85681886500992"><ele>195.0</ele><time>2026-03-29T17:00:17.999Z</time></trkpt><trkpt lat="45.63420109994295" lon="9.856684208542413"><ele>195.0</ele><time>2026-03-29T17:00:18.999Z</time></trkpt><trkpt lat="45.63420752198006" lon="9.856546933088273"><ele>195.0</ele><time>2026-03-29T17:00:19.999Z</time></trkpt><trkpt lat="45.634193670295275" lon="9.856390973159469"><ele>195.0</ele><time>2026-03-29T17:00:20.999Z</time></trkpt><trkpt lat="45.634166197379535" lon="9.856229971654527"><ele>195.0</ele><time>2026-03-29T17:00:21.999Z</time></trkpt><trkpt lat="45.6341161404998" lon="9.856083538066525"><ele>195.0</ele><time>2026-03-29T17:00:22.999Z</time></trkpt><trkpt lat="45.63405846031976" lon="9.855936123341184"><ele>195.0</ele><time>2026-03-29T17:00:23.999Z</time></trkpt><trkpt lat="45.633985499124954" lon="9.855802694557765"><ele>195.0</ele><time>2026-03-29T17:00:24.999Z</time></trkpt><trkpt lat="45.63390880860924" lon="9.855694058674988"><ele>195.0</ele><time>2026-03-29T17:00:25.999Z</time></trkpt><trkpt lat="45.63383109251907" lon="9.855604921853473"><ele>195.0</ele><time>2026-03-29T17:00:26.999Z</time></trkpt><trkpt lat="45.63374632896535" lon="9.855531877856821"><ele>195.0</ele><time>2026-03-29T17:00:27.999Z</time></trkpt><trkpt lat="45.63365264370283" lon="9.855462367621502"><ele>195.5</ele><time>2026-03-29T17:00:28.999Z</time></trkpt><trkpt lat="45.633555510371146" lon="9.855385241532156"><ele>196.0</ele><time>2026-03-29T17:00:29.999Z</time></trkpt><trkpt lat="45.633436896540665" lon="9.855341734811937"><ele>196.5</ele><time>2026-03-29T17:00:30.999Z</time></trkpt><trkpt lat="45.633308361202204" lon="9.855297765647384"><ele>197.0</ele><time>2026-03-29T17:00:31.999Z</time></trkpt><trkpt lat="45.63317936741424" lon="9.855244998247306"><ele>197.0</ele><time>2026-03-29T17:00:32.999Z</time></trkpt><trkpt lat="45.6330527044003" lon="9.855193956021614"><ele>197.0</ele><time>2026-03-29T17:00:33.999Z</time></trkpt><trkpt lat="45.6329411004177" lon="9.855146122828344"><ele>197.0</ele><time>2026-03-29T17:00:34.999Z</time></trkpt><trkpt lat="45.63283106552251" lon="9.855099262900728"><ele>197.0</ele><time>2026-03-29T17:00:36Z</time></trkpt><trkpt lat="45.632725979554344" lon="9.855056551489005"><ele>196.39999999999998</ele><time>2026-03-29T17:00:37Z</time></trkpt><trkpt lat="45.632629869051165" lon="9.855011443076613"><ele>195.79999999999998</ele><time>2026-03-29T17:00:38Z</time></trkpt><trkpt lat="45.632534702886666" lon="9.854975336288788"><ele>195.2</ele><time>2026-03-29T17:00:39Z</time></trkpt><trkpt lat="45.63243339944426" lon="9.854987812606824"><ele>194.6</ele><time>2026-03-29T17:00:40Z</time></trkpt><trkpt lat="45.6323302398201" lon="9.854994312811492"><ele>194.0</ele><time>2026-03-29T17:00:41Z</time></trkpt><trkpt lat="45.6322247051641" lon="9.855026389428309"><ele>194.0</ele><time>2026-03-29T17:00:42Z</time></trkpt><trkpt lat="45.632115582980965" lon="9.855071545366435"><ele>194.0</ele><time>2026-03-29T17:00:43Z</time></trkpt><trkpt lat="45.632013909894866" lon="9.855138785002417"><ele>194.0</ele><time>2026-03-29T17:00:44Z</time></trkpt><trkpt lat="45.631912302397375" lon="9.855229738736874"><ele>194.0</ele><time>2026-03-29T17:00:45Z</time></trkpt><trkpt lat="45.63182251509246" lon="9.855334038527618"><ele>194.2</ele><time>2026-03-29T17:00:46Z</time></trkpt><trkpt lat="45.63174908229833" lon="9.855443323968595"><ele>194.39999999999998</ele><time>2026-03-29T17:00:47Z</time></trkpt><trkpt lat="45.631692430772496" lon="9.855555661785697"><ele>194.6</ele><time>2026-03-29T17:00:48Z</time></trkpt><trkpt lat="45.631646986956085" lon="9.85567222304765"><ele>194.8</ele><time>2026-03-29T17:00:49Z</time></trkpt><trkpt lat="45.631612919705276" lon="9.855791460874764"><ele>195.0</ele><time>2026-03-29T17:00:50Z</time></trkpt><trkpt lat="45.63158268257028" lon="9.855908372101897"><ele>195.0</ele><time>2026-03-29T17:00:51Z</time></trkpt><trkpt lat="45.63154959886141" lon="9.856017392230365"><ele>195.0</ele><time>2026-03-29T17:00:52Z</time></trkpt><trkpt lat="45.6315257618432" lon="9.856131521504993"><ele>195.0</ele><time>2026-03-29T17:00:53Z</time></trkpt><trkpt lat="45.631504632963015" lon="9.85623449884516"><ele>195.0</ele><time>2026-03-29T17:00:54Z</time></trkpt><trkpt lat="45.63148336513478" lon="9.856336099274566"><ele>195.0</ele><time>2026-03-29T17:00:55Z</time></trkpt><trkpt lat="45.631460433617825" lon="9.856435339096969"><ele>195.0</ele><time>2026-03-29T17:00:56Z</time></trkpt><trkpt lat="45.631440344320744" lon="9.856524674096672"><ele>195.0</ele><time>2026-03-29T17:00:57Z</time></trkpt><trkpt lat="45.63141651300235" lon="9.856621406590433"><ele>195.0</ele><time>2026-03-29T17:00:58Z</time></trkpt><trkpt lat="45.63140657192784" lon="9.856711553456188"><ele>195.0</ele><time>2026-03-29T17:00:59Z</time></trkpt><trkpt lat="45.63136896131896" lon="9.856872390092397"><ele>195.0</ele><time>2026-03-29T17:01:01Z</time></trkpt><trkpt lat="45.63134993830585" lon="9.856964322926565"><ele>195.0</ele><time>2026-03-29T17:01:02Z</time></trkpt><trkpt lat="45.63133000955567" lon="9.857060633139513"><ele>195.0</ele><time>2026-03-29T17:01:03Z</time></trkpt><trkpt lat="45.63130818945076" lon="9.857164182405374"><ele>194.66666666666669</ele><time>2026-03-29T17:01:04Z</time></trkpt><trkpt lat="45.63127771646549" lon="9.85731451464151"><ele>194.33333333333334</ele><time>2026-03-29T17:01:06Z</time></trkpt><trkpt lat="45.63125505235779" lon="9.857425740533388"><ele>194.0</ele><time>2026-03-29T17:01:08Z</time></trkpt><trkpt lat="45.63111525132454" lon="9.8577515974743"><ele>194.00000000000003</ele><time>2026-03-29T17:01:54.999Z</time></trkpt><trkpt lat="45.63107607064492" lon="9.857880602419954"><ele>194.0</ele><time>2026-03-29T17:01:55.999Z</time></trkpt><trkpt lat="45.63113172436725" lon="9.858000057646665"><ele>194.0</ele><time>2026-03-29T17:01:56.999Z</time></trkpt><trkpt lat="45.63104332333328" lon="9.858067916950747"><ele>194.0</ele><time>2026-03-29T17:01:57.999Z</time></trkpt><trkpt lat="45.63097458024752" lon="9.858072643740257"><ele>194.00000000000003</ele><time>2026-03-29T17:02:00.999Z</time></trkpt><trkpt lat="45.63100340611436" lon="9.85798925436004"><ele>194.0</ele><time>2026-03-29T17:03:45Z</time></trkpt><trkpt lat="45.630963433623414" lon="9.858080082850394"><ele>194.00000000000003</ele><time>2026-03-29T17:05:46Z</time></trkpt><trkpt lat="45.63089661029532" lon="9.858098427320094"><ele>194.0</ele><time>2026-03-29T17:05:48Z</time></trkpt><trkpt lat="45.630775698675876" lon="9.858164831558259"><ele>194.0</ele><time>2026-03-29T17:05:50Z</time></trkpt><trkpt lat="45.630731850221785" lon="9.858247158989474"><ele>194.0</ele><time>2026-03-29T17:05:51Z</time></trkpt><trkpt lat="45.63071387100804" lon="9.858342733215672"><ele>194.00000000000003</ele><time>2026-03-29T17:05:52Z</time></trkpt><trkpt lat="45.63071958614709" lon="9.858446525791635"><ele>194.0</ele><time>2026-03-29T17:05:53Z</time></trkpt><trkpt lat="45.63073454371202" lon="9.858563602658105"><ele>194.39999999999998</ele><time>2026-03-29T17:05:54Z</time></trkpt><trkpt lat="45.63075796711577" lon="9.858688947508004"><ele>194.8</ele><time>2026-03-29T17:05:55Z</time></trkpt><trkpt lat="45.630785747065445" lon="9.85882038340074"><ele>195.2</ele><time>2026-03-29T17:05:56Z</time></trkpt><trkpt lat="45.630827981769635" lon="9.858949547931108"><ele>195.60000000000002</ele><time>2026-03-29T17:05:57Z</time></trkpt><trkpt lat="45.63081570450584" lon="9.859114220623091"><ele>196.0</ele><time>2026-03-29T17:05:58Z</time></trkpt><trkpt lat="45.63082014529195" lon="9.859286053461537"><ele>196.25</ele><time>2026-03-29T17:05:58.999Z</time></trkpt><trkpt lat="45.63082493961342" lon="9.85946269639613"><ele>196.5</ele><time>2026-03-29T17:05:59.999Z</time></trkpt><trkpt lat="45.6308360128783" lon="9.859646731611761"><ele>196.75</ele><time>2026-03-29T17:06:00.999Z</time></trkpt><trkpt lat="45.63085061570326" lon="9.859835653629904"><ele>197.0</ele><time>2026-03-29T17:06:01.999Z</time></trkpt><trkpt lat="45.6308823828256" lon="9.860067714972653"><ele>197.0</ele><time>2026-03-29T17:06:02.999Z</time></trkpt><trkpt lat="45.63091973254801" lon="9.860275050816185"><ele>197.0</ele><time>2026-03-29T17:06:03.999Z</time></trkpt><trkpt lat="45.63094673659661" lon="9.860450300989418"><ele>197.0</ele><time>2026-03-29T17:06:04.999Z</time></trkpt><trkpt lat="45.63097686091292" lon="9.860609445697927"><ele>197.0</ele><time>2026-03-29T17:06:05.999Z</time></trkpt><trkpt lat="45.6310066470374" lon="9.86076168453209"><ele>197.0</ele><time>2026-03-29T17:06:06.999Z</time></trkpt><trkpt lat="45.63103617666921" lon="9.860918793952067"><ele>197.0</ele><time>2026-03-29T17:06:07.999Z</time></trkpt><trkpt lat="45.631074350192634" lon="9.861073161834762"><ele>197.0</ele><time>2026-03-29T17:06:08.999Z</time></trkpt><trkpt lat="45.63113310871199" lon="9.86121137033958"><ele>197.0</ele><time>2026-03-29T17:06:09.999Z</time></trkpt><trkpt lat="45.63120569100174" lon="9.86132980636636"><ele>197.25</ele><time>2026-03-29T17:06:10.999Z</time></trkpt><trkpt lat="45.63129579125001" lon="9.86143477165886"><ele>197.5</ele><time>2026-03-29T17:06:11.999Z</time></trkpt><trkpt lat="45.63140057833132" lon="9.861520915114909"><ele>197.75</ele><time>2026-03-29T17:06:12.999Z</time></trkpt><trkpt lat="45.631511689000305" lon="9.861591656071612"><ele>198.0</ele><time>2026-03-29T17:06:13.999Z</time></trkpt><trkpt lat="45.631627259973776" lon="9.861645179066908"><ele>198.0</ele><time>2026-03-29T17:06:14.999Z</time></trkpt><trkpt lat="45.63171705282118" lon="9.861706255683464"><ele>198.0</ele><time>2026-03-29T17:06:15.999Z</time></trkpt><trkpt lat="45.63181606850722" lon="9.861758132377187"><ele>198.0</ele><time>2026-03-29T17:06:16.999Z</time></trkpt><trkpt lat="45.63190224997369" lon="9.861803138779752"><ele>198.0</ele><time>2026-03-29T17:06:17.999Z</time></trkpt><trkpt lat="45.63198649605965" lon="9.861784738273306"><ele>198.0</ele><time>2026-03-29T17:06:18.999Z</time></trkpt><trkpt lat="45.63206303799406" lon="9.861805361257078"><ele>198.0</ele><time>2026-03-29T17:06:19.999Z</time></trkpt><trkpt lat="45.632152658599" lon="9.861867681905668"><ele>198.0</ele><time>2026-03-29T17:06:21.999Z</time></trkpt><trkpt lat="45.63224212607332" lon="9.861994979415032"><ele>198.0</ele><time>2026-03-29T17:06:23.999Z</time></trkpt><trkpt lat="45.63227524651951" lon="9.862078615796738"><ele>198.0</ele><time>2026-03-29T17:06:24.999Z</time></trkpt><trkpt lat="45.632313605364565" lon="9.862158809151763"><ele>198.0</ele><time>2026-03-29T17:06:25.999Z</time></trkpt><trkpt lat="45.632356537936715" lon="9.86223423903063"><ele>198.0</ele><time>2026-03-29T17:06:26.999Z</time></trkpt><trkpt lat="45.63241837022168" lon="9.862287879122386"><ele>198.0</ele><time>2026-03-29T17:06:27.999Z</time></trkpt><trkpt lat="45.632486934718436" lon="9.862311094384554"><ele>198.0</ele><time>2026-03-29T17:06:28.999Z</time></trkpt><trkpt lat="45.632560772826594" lon="9.86230397520267"><ele>198.0</ele><time>2026-03-29T17:06:29.999Z</time></trkpt><trkpt lat="45.63263264105636" lon="9.862268749429822"><ele>198.0</ele><time>2026-03-29T17:06:30.999Z</time></trkpt><trkpt lat="45.63269781694078" lon="9.862195853942183"><ele>198.0</ele><time>2026-03-29T17:06:31.999Z</time></trkpt><trkpt lat="45.63274746688269" lon="9.862086593139887"><ele>198.0</ele><time>2026-03-29T17:06:32.999Z</time></trkpt><trkpt lat="45.632760185187394" lon="9.861968283524329"><ele>198.0</ele><time>2026-03-29T17:06:33.999Z</time></trkpt><trkpt lat="45.63274580075021" lon="9.86187060752588"><ele>198.0</ele><time>2026-03-29T17:06:34.999Z</time></trkpt><trkpt lat="45.632721808596024" lon="9.861763720006328"><ele>198.0</ele><time>2026-03-29T17:06:35.999Z</time></trkpt><trkpt lat="45.63269660081478" lon="9.861651704771628"><ele>198.0</ele><time>2026-03-29T17:06:36.999Z</time></trkpt><trkpt lat="45.632646903514726" lon="9.861571651262942"><ele>198.0</ele><time>2026-03-29T17:06:37.999Z</time></trkpt><trkpt lat="45.6326819161835" lon="9.861419522936496"><ele>198.0</ele><time>2026-03-29T17:06:38.999Z</time></trkpt><trkpt lat="45.63270521855402" lon="9.861281214645112"><ele>197.5</ele><time>2026-03-29T17:06:39.999Z</time></trkpt><trkpt lat="45.63274538493284" lon="9.861135360726776"><ele>197.0</ele><time>2026-03-29T17:06:40.999Z</time></trkpt><trkpt lat="45.63280460660409" lon="9.86098427855657"><ele>196.5</ele><time>2026-03-29T17:06:41.999Z</time></trkpt><trkpt lat="45.632889108064475" lon="9.860841510959904"><ele>196.0</ele><time>2026-03-29T17:06:42.999Z</time></trkpt><trkpt lat="45.63296076253842" lon="9.860671831758882"><ele>196.0</ele><time>2026-03-29T17:06:43.999Z</time></trkpt><trkpt lat="45.63304574579091" lon="9.860522235045972"><ele>196.0</ele><time>2026-03-29T17:06:44.999Z</time></trkpt><trkpt lat="45.633125016872256" lon="9.860383124850829"><ele>196.0</ele><time>2026-03-29T17:06:45.999Z</time></trkpt><trkpt lat="45.63321724236185" lon="9.860248755332035"><ele>196.0</ele><time>2026-03-29T17:06:46.999Z</time></trkpt><trkpt lat="45.63331997574393" lon="9.860127650041386"><ele>195.75</ele><time>2026-03-29T17:06:47.999Z</time></trkpt><trkpt lat="45.63342277135053" lon="9.859994978064561"><ele>195.5</ele><time>2026-03-29T17:06:48.999Z</time></trkpt><trkpt lat="45.633521558415964" lon="9.85990322298353"><ele>195.25</ele><time>2026-03-29T17:06:49.999Z</time></trkpt><trkpt lat="45.63362235273427" lon="9.859792684673703"><ele>195.0</ele><time>2026-03-29T17:06:50.999Z</time></trkpt><trkpt lat="45.63373519712667" lon="9.859682679814794"><ele>196.0</ele><time>2026-03-29T17:06:51.999Z</time></trkpt><trkpt lat="45.63385591313486" lon="9.859543633986403"><ele>197.0</ele><time>2026-03-29T17:06:52.999Z</time></trkpt><trkpt lat="45.63399319394951" lon="9.859423238737712"><ele>198.0</ele><time>2026-03-29T17:06:54Z</time></trkpt><trkpt lat="45.634131477432526" lon="9.859303687649538"><ele>198.25</ele><time>2026-03-29T17:06:55Z</time></trkpt><trkpt lat="45.634253944678775" lon="9.859198779741481"><ele>198.5</ele><time>2026-03-29T17:06:56Z</time></trkpt><trkpt lat="45.63438510452457" lon="9.859088116156682"><ele>198.75</ele><time>2026-03-29T17:06:57Z</time></trkpt><trkpt lat="45.63451594668474" lon="9.858975172787321"><ele>199.0</ele><time>2026-03-29T17:06:58Z</time></trkpt><trkpt lat="45.63464993887888" lon="9.858856781781608"><ele>199.0</ele><time>2026-03-29T17:06:59Z</time></trkpt><trkpt lat="45.63478172962711" lon="9.858729002138777"><ele>199.0</ele><time>2026-03-29T17:07:00Z</time></trkpt><trkpt lat="45.63492310773231" lon="9.858594945658737"><ele>199.0</ele><time>2026-03-29T17:07:01Z</time></trkpt><trkpt lat="45.6350651641377" lon="9.85847220468483"><ele>198.66666666666666</ele><time>2026-03-29T17:07:02Z</time></trkpt><trkpt lat="45.635207825992076" lon="9.858341506424164"><ele>198.33333333333331</ele><time>2026-03-29T17:07:03Z</time></trkpt><trkpt lat="45.635349747335844" lon="9.858202101385002"><ele>198.0</ele><time>2026-03-29T17:07:04Z</time></trkpt><trkpt lat="45.635488822895844" lon="9.858048346094636"><ele>198.0</ele><time>2026-03-29T17:07:05Z</time></trkpt><trkpt lat="45.63562580868157" lon="9.857881314172205"><ele>198.0</ele><time>2026-03-29T17:07:06Z</time></trkpt><trkpt lat="45.63576265924161" lon="9.857702840973097"><ele>198.0</ele><time>2026-03-29T17:07:07Z</time></trkpt><trkpt lat="45.635892715097455" lon="9.85751434681487"><ele>197.66666666666669</ele><time>2026-03-29T17:07:08Z</time></trkpt><trkpt lat="45.63601729357349" lon="9.857312999607847"><ele>197.33333333333334</ele><time>2026-03-29T17:07:09Z</time></trkpt><trkpt lat="45.63612406555014" lon="9.857119839078191"><ele>197.0</ele><time>2026-03-29T17:07:10Z</time></trkpt><trkpt lat="45.63621869141342" lon="9.856939665341494"><ele>197.0</ele><time>2026-03-29T17:07:11Z</time></trkpt><trkpt lat="45.63630596802467" lon="9.856756509052614"><ele>197.0</ele><time>2026-03-29T17:07:12Z</time></trkpt><trkpt lat="45.63639301502407" lon="9.856564901115023"><ele>197.0</ele><time>2026-03-29T17:07:13Z</time></trkpt><trkpt lat="45.63648060789574" lon="9.856358813398211"><ele>197.0</ele><time>2026-03-29T17:07:14Z</time></trkpt><trkpt lat="45.63656862929285" lon="9.856145968390637"><ele>197.0</ele><time>2026-03-29T17:07:15Z</time></trkpt><trkpt lat="45.636651804718774" lon="9.85593108210809"><ele>197.0</ele><time>2026-03-29T17:07:16Z</time></trkpt><trkpt lat="45.63672315873036" lon="9.855735883170876"><ele>196.66666666666669</ele><time>2026-03-29T17:07:17Z</time></trkpt><trkpt lat="45.636796797154695" lon="9.855533606512326"><ele>196.33333333333331</ele><time>2026-03-29T17:07:18Z</time></trkpt><trkpt lat="45.63687036079385" lon="9.855322669336452"><ele>196.0</ele><time>2026-03-29T17:07:19Z</time></trkpt><trkpt lat="45.63694219443163" lon="9.855116951211107"><ele>195.33333333333331</ele><time>2026-03-29T17:07:20Z</time></trkpt><trkpt lat="45.637011593945275" lon="9.854902107149995"><ele>194.66666666666669</ele><time>2026-03-29T17:07:21Z</time></trkpt><trkpt lat="45.63707629011138" lon="9.854674830617643"><ele>194.0</ele><time>2026-03-29T17:07:22Z</time></trkpt><trkpt lat="45.63713669352445" lon="9.85443507800376"><ele>194.0</ele><time>2026-03-29T17:07:23Z</time></trkpt><trkpt lat="45.637183643307296" lon="9.854222921041544"><ele>194.0</ele><time>2026-03-29T17:07:24Z</time></trkpt><trkpt lat="45.637224102694745" lon="9.854017617986155"><ele>194.0</ele><time>2026-03-29T17:07:25Z</time></trkpt><trkpt lat="45.637255207790865" lon="9.853832140091447"><ele>194.0</ele><time>2026-03-29T17:07:26Z</time></trkpt><trkpt lat="45.63728223346318" lon="9.853656706849494"><ele>194.0</ele><time>2026-03-29T17:07:27Z</time></trkpt><trkpt lat="45.63731361611909" lon="9.853496685778447"><ele>194.0</ele><time>2026-03-29T17:07:28Z</time></trkpt><trkpt lat="45.63735841460099" lon="9.853356073310621"><ele>194.0</ele><time>2026-03-29T17:07:29Z</time></trkpt><trkpt lat="45.63742524814938" lon="9.853226968331217"><ele>194.0</ele><time>2026-03-29T17:07:30Z</time></trkpt><trkpt lat="45.63750789393067" lon="9.85311725150146"><ele>194.0</ele><time>2026-03-29T17:07:31Z</time></trkpt><trkpt lat="45.6376037052401" lon="9.85303290073677"><ele>194.25</ele><time>2026-03-29T17:07:32Z</time></trkpt><trkpt lat="45.63772680683146" lon="9.85299627377645"><ele>194.5</ele><time>2026-03-29T17:07:33Z</time></trkpt><trkpt lat="45.63785229605419" lon="9.852937328871784"><ele>194.75</ele><time>2026-03-29T17:07:34Z</time></trkpt><trkpt lat="45.637995282784374" lon="9.85299449924319"><ele>195.0</ele><time>2026-03-29T17:07:35Z</time></trkpt><trkpt lat="45.63816439934793" lon="9.853027104013881"><ele>195.66666666666669</ele><time>2026-03-29T17:07:36Z</time></trkpt><trkpt lat="45.63834800222188" lon="9.853062792941818"><ele>196.33333333333334</ele><time>2026-03-29T17:07:37Z</time></trkpt><trkpt lat="45.638533691578175" lon="9.853099036694434"><ele>197.0</ele><time>2026-03-29T17:07:38Z</time></trkpt><trkpt lat="45.63872881586424" lon="9.853137122000778"><ele>197.0</ele><time>2026-03-29T17:07:39Z</time></trkpt><trkpt lat="45.638928446855" lon="9.853153971962817"><ele>197.0</ele><time>2026-03-29T17:07:40Z</time></trkpt><trkpt lat="45.63912683918801" lon="9.853197298846622"><ele>197.0</ele><time>2026-03-29T17:07:41Z</time></trkpt><trkpt lat="45.63932996500806" lon="9.853239909607765"><ele>197.0</ele><time>2026-03-29T17:07:42Z</time></trkpt><trkpt lat="45.6395429372039" lon="9.853291152068623"><ele>197.0</ele><time>2026-03-29T17:07:43Z</time></trkpt><trkpt lat="45.639736751173196" lon="9.853343760980213"><ele>197.0</ele><time>2026-03-29T17:07:44Z</time></trkpt><trkpt lat="45.63989249714946" lon="9.853391569013619"><ele>197.0</ele><time>2026-03-29T17:07:45Z</time></trkpt><trkpt lat="45.640019892004" lon="9.853434961025517"><ele>197.0</ele><time>2026-03-29T17:07:46Z</time></trkpt><trkpt lat="45.64012145280089" lon="9.85349243664797"><ele>197.0</ele><time>2026-03-29T17:07:47Z</time></trkpt><trkpt lat="45.6401788151583" lon="9.85361058574418"><ele>197.0</ele><time>2026-03-29T17:07:48Z</time></trkpt><trkpt lat="45.64023142046087" lon="9.853716679257053"><ele>197.0</ele><time>2026-03-29T17:07:49Z</time></trkpt><trkpt lat="45.64026618934139" lon="9.853848018373537"><ele>197.2</ele><time>2026-03-29T17:07:50Z</time></trkpt><trkpt lat="45.64031864119381" lon="9.853945384289476"><ele>197.39999999999998</ele><time>2026-03-29T17:07:51Z</time></trkpt><trkpt lat="45.640410271341054" lon="9.853962831356444"><ele>197.60000000000002</ele><time>2026-03-29T17:07:52Z</time></trkpt><trkpt lat="45.64048934843458" lon="9.853924648129203"><ele>197.8</ele><time>2026-03-29T17:07:53Z</time></trkpt><trkpt lat="45.64056249999858" lon="9.853835868121111"><ele>198.0</ele><time>2026-03-29T17:07:54Z</time></trkpt><trkpt lat="45.64065329140415" lon="9.853746394960952"><ele>198.0</ele><time>2026-03-29T17:07:55Z</time></trkpt><trkpt lat="45.64075720597649" lon="9.853667621638781"><ele>198.0</ele><time>2026-03-29T17:07:56Z</time></trkpt><trkpt lat="45.64090260760874" lon="9.853777629211574"><ele>198.0</ele><time>2026-03-29T17:07:57Z</time></trkpt><trkpt lat="45.64103708236577" lon="9.853835071822187"><ele>198.0</ele><time>2026-03-29T17:07:58Z</time></trkpt><trkpt lat="45.64115813761813" lon="9.853889942312511"><ele>198.5</ele><time>2026-03-29T17:07:59Z</time></trkpt><trkpt lat="45.64128049131829" lon="9.853935865291703"><ele>199.0</ele><time>2026-03-29T17:08:00Z</time></trkpt><trkpt lat="45.641405017534154" lon="9.85399874541611"><ele>199.5</ele><time>2026-03-29T17:08:01Z</time></trkpt><trkpt lat="45.641530825472316" lon="9.854062208423326"><ele>200.0</ele><time>2026-03-29T17:08:02Z</time></trkpt><trkpt lat="45.64166279138191" lon="9.854128476778008"><ele>200.0</ele><time>2026-03-29T17:08:03Z</time></trkpt><trkpt lat="45.641799876566516" lon="9.85420160166426"><ele>200.0</ele><time>2026-03-29T17:08:03.999Z</time></trkpt><trkpt lat="45.6419556201803" lon="9.854277751258774"><ele>200.0</ele><time>2026-03-29T17:08:04.999Z</time></trkpt><trkpt lat="45.64210958997174" lon="9.854369306306726"><ele>199.66666666666669</ele><time>2026-03-29T17:08:05.999Z</time></trkpt><trkpt lat="45.64225680507786" lon="9.854484618791226"><ele>199.33333333333331</ele><time>2026-03-29T17:08:06.999Z</time></trkpt><trkpt lat="45.64240610477678" lon="9.854579533090025"><ele>199.0</ele><time>2026-03-29T17:08:07.999Z</time></trkpt><trkpt lat="45.64253577517441" lon="9.854667589696248"><ele>199.0</ele><time>2026-03-29T17:08:08.999Z</time></trkpt><trkpt lat="45.6426826668823" lon="9.854771278673065"><ele>199.0</ele><time>2026-03-29T17:08:09.999Z</time></trkpt><trkpt lat="45.64286344421032" lon="9.854920170104686"><ele>199.0</ele><time>2026-03-29T17:08:10.999Z</time></trkpt><trkpt lat="45.643072988889095" lon="9.855091299712912"><ele>199.5</ele><time>2026-03-29T17:08:11.999Z</time></trkpt><trkpt lat="45.64329391544584" lon="9.855273558209385"><ele>200.0</ele><time>2026-03-29T17:08:12.999Z</time></trkpt><trkpt lat="45.643535119283726" lon="9.855472373324602"><ele>200.5</ele><time>2026-03-29T17:08:13.999Z</time></trkpt><trkpt lat="45.643779280996995" lon="9.855674810364887"><ele>201.0</ele><time>2026-03-29T17:08:14.999Z</time></trkpt><trkpt lat="45.64401822904105" lon="9.855858252826838"><ele>201.5</ele><time>2026-03-29T17:08:15.999Z</time></trkpt><trkpt lat="45.644227532298395" lon="9.856028824343175"><ele>202.0</ele><time>2026-03-29T17:08:16.999Z</time></trkpt><trkpt lat="45.6444104722641" lon="9.856187194338192"><ele>202.25</ele><time>2026-03-29T17:08:17.999Z</time></trkpt><trkpt lat="45.64456103663065" lon="9.856310369420315"><ele>202.5</ele><time>2026-03-29T17:08:18.999Z</time></trkpt><trkpt lat="45.64468056880256" lon="9.85640783014356"><ele>202.75</ele><time>2026-03-29T17:08:19.999Z</time></trkpt><trkpt lat="45.64477825434436" lon="9.856491856562485"><ele>203.0</ele><time>2026-03-29T17:08:20.999Z</time></trkpt><trkpt lat="45.64486129465818" lon="9.856573220494615"><ele>203.0</ele><time>2026-03-29T17:08:21.999Z</time></trkpt><trkpt lat="45.64490849925486" lon="9.85669818444505"><ele>203.0</ele><time>2026-03-29T17:08:22.999Z</time></trkpt><trkpt lat="45.6449683930057" lon="9.856822339866955"><ele>203.0</ele><time>2026-03-29T17:08:23.999Z</time></trkpt><trkpt lat="45.64500504675218" lon="9.856966889202086"><ele>203.0</ele><time>2026-03-29T17:08:24.999Z</time></trkpt><trkpt lat="45.6450828739536" lon="9.857046142111587"><ele>203.0</ele><time>2026-03-29T17:08:25.999Z</time></trkpt><trkpt lat="45.64515985981002" lon="9.857082397254004"><ele>202.83333333333334</ele><time>2026-03-29T17:08:26.999Z</time></trkpt><trkpt lat="45.64524099414831" lon="9.857059137810461"><ele>202.66666666666669</ele><time>2026-03-29T17:08:27.999Z</time></trkpt><trkpt lat="45.645315936166675" lon="9.856994381225197"><ele>202.5</ele><time>2026-03-29T17:08:28.999Z</time></trkpt><trkpt lat="45.64536853498978" lon="9.856888287857352"><ele>202.33333333333331</ele><time>2026-03-29T17:08:29.999Z</time></trkpt><trkpt lat="45.64538552921697" lon="9.856774305298098"><ele>202.16666666666666</ele><time>2026-03-29T17:08:30.999Z</time></trkpt><trkpt lat="45.64536344449037" lon="9.856667555655816"><ele>202.0</ele><time>2026-03-29T17:08:31.999Z</time></trkpt><trkpt lat="45.6453446039323" lon="9.85654760960953"><ele>202.0</ele><time>2026-03-29T17:08:32.999Z</time></trkpt><trkpt lat="45.64541897818164" lon="9.856409035486527"><ele>202.0</ele><time>2026-03-29T17:08:33.999Z</time></trkpt><trkpt lat="45.64542987480012" lon="9.856264618948748"><ele>202.0</ele><time>2026-03-29T17:08:34.999Z</time></trkpt><trkpt lat="45.645539215522646" lon="9.856150959424827"><ele>202.0</ele><time>2026-03-29T17:08:35.999Z</time></trkpt><trkpt lat="45.645637135323696" lon="9.856015598543758"><ele>202.75</ele><time>2026-03-29T17:08:36.999Z</time></trkpt><trkpt lat="45.64572885747733" lon="9.855907207381799"><ele>203.5</ele><time>2026-03-29T17:08:37.999Z</time></trkpt><trkpt lat="45.64584144459007" lon="9.85580418647541"><ele>204.25</ele><time>2026-03-29T17:08:38.999Z</time></trkpt><trkpt lat="45.64594886225583" lon="9.855692997833414"><ele>205.0</ele><time>2026-03-29T17:08:39.999Z</time></trkpt><trkpt lat="45.64603908730102" lon="9.855583396349068"><ele>204.8</ele><time>2026-03-29T17:08:40.999Z</time></trkpt><trkpt lat="45.646136265747906" lon="9.855483470614772"><ele>204.6</ele><time>2026-03-29T17:08:41.999Z</time></trkpt><trkpt lat="45.64624144253706" lon="9.855414583932365"><ele>204.39999999999998</ele><time>2026-03-29T17:08:42.999Z</time></trkpt><trkpt lat="45.646319684335374" lon="9.855324763927186"><ele>204.2</ele><time>2026-03-29T17:08:43.999Z</time></trkpt><trkpt lat="45.646395605791454" lon="9.855265926602117"><ele>204.0</ele><time>2026-03-29T17:08:44.999Z</time></trkpt><trkpt lat="45.64646629840814" lon="9.855215824684835"><ele>204.0</ele><time>2026-03-29T17:08:45.999Z</time></trkpt><trkpt lat="45.64654979231757" lon="9.855168653903792"><ele>204.0</ele><time>2026-03-29T17:08:47.999Z</time></trkpt><trkpt lat="45.64662891006312" lon="9.85514074311289"><ele>204.0</ele><time>2026-03-29T17:08:58.999Z</time></trkpt><trkpt lat="45.64668756557934" lon="9.855096673076769"><ele>204.0</ele><time>2026-03-29T17:09:00Z</time></trkpt><trkpt lat="45.64677601918578" lon="9.855031897090779"><ele>204.0</ele><time>2026-03-29T17:09:01Z</time></trkpt><trkpt lat="45.646916931461966" lon="9.854943903009575"><ele>204.33333333333331</ele><time>2026-03-29T17:09:02Z</time></trkpt><trkpt lat="45.647057523274064" lon="9.854858783156896"><ele>204.66666666666666</ele><time>2026-03-29T17:09:03Z</time></trkpt><trkpt lat="45.647229230652115" lon="9.8547570412613"><ele>205.0</ele><time>2026-03-29T17:09:04Z</time></trkpt><trkpt lat="45.647426321844314" lon="9.854639171461528"><ele>205.0</ele><time>2026-03-29T17:09:05Z</time></trkpt><trkpt lat="45.647587816051654" lon="9.8545404000862"><ele>205.0</ele><time>2026-03-29T17:09:06Z</time></trkpt><trkpt lat="45.64772547018714" lon="9.854459182419461"><ele>205.0</ele><time>2026-03-29T17:09:07Z</time></trkpt><trkpt lat="45.647854252509724" lon="9.854407272671308"><ele>205.25</ele><time>2026-03-29T17:09:08Z</time></trkpt><trkpt lat="45.64796746135704" lon="9.854317329561757"><ele>205.5</ele><time>2026-03-29T17:09:09Z</time></trkpt><trkpt lat="45.64808651252252" lon="9.854247854442411"><ele>205.75</ele><time>2026-03-29T17:09:10Z</time></trkpt><trkpt lat="45.64820266503555" lon="9.854182613725946"><ele>206.0</ele><time>2026-03-29T17:09:11Z</time></trkpt><trkpt lat="45.648325599139575" lon="9.854102450290108"><ele>206.5</ele><time>2026-03-29T17:09:12Z</time></trkpt><trkpt lat="45.64845620610382" lon="9.854048641758439"><ele>207.0</ele><time>2026-03-29T17:09:13Z</time></trkpt><trkpt lat="45.64856756362303" lon="9.85398173491839"><ele>207.5</ele><time>2026-03-29T17:09:14Z</time></trkpt><trkpt lat="45.64867887906952" lon="9.853914853369721"><ele>208.0</ele><time>2026-03-29T17:09:15Z</time></trkpt><trkpt lat="45.64878232911488" lon="9.853828558998574"><ele>208.60000000000002</ele><time>2026-03-29T17:09:16Z</time></trkpt><trkpt lat="45.64888651903328" lon="9.853792001409062"><ele>209.20000000000002</ele><time>2026-03-29T17:09:17Z</time></trkpt><trkpt lat="45.64898118308405" lon="9.85373648026156"><ele>209.8</ele><time>2026-03-29T17:09:18Z</time></trkpt><trkpt lat="45.649051175707385" lon="9.853700042478964"><ele>210.4</ele><time>2026-03-29T17:09:19Z</time></trkpt><trkpt lat="45.64913195454264" lon="9.853693755665379"><ele>211.0</ele><time>2026-03-29T17:09:21Z</time></trkpt><trkpt lat="45.64920518933626" lon="9.853754968989998"><ele>211.0</ele><time>2026-03-29T17:09:23Z</time></trkpt><trkpt lat="45.64928490255893" lon="9.853659223377903"><ele>211.0</ele><time>2026-03-29T17:09:25Z</time></trkpt><trkpt lat="45.64931154096574" lon="9.853527259904737"><ele>211.0</ele><time>2026-03-29T17:09:26Z</time></trkpt><trkpt lat="45.64939098438926" lon="9.85344931577008"><ele>211.0</ele><time>2026-03-29T17:09:27Z</time></trkpt><trkpt lat="45.64950746401989" lon="9.853360295998042"><ele>211.0</ele><time>2026-03-29T17:09:28Z</time></trkpt><trkpt lat="45.649661206615505" lon="9.853233114856664"><ele>211.33333333333331</ele><time>2026-03-29T17:09:29Z</time></trkpt><trkpt lat="45.649834801218994" lon="9.853065929858124"><ele>211.66666666666669</ele><time>2026-03-29T17:09:30Z</time></trkpt><trkpt lat="45.65001635675268" lon="9.852866832946745"><ele>212.0</ele><time>2026-03-29T17:09:31Z</time></trkpt><trkpt lat="45.650162001478776" lon="9.852668202953625"><ele>211.66666666666669</ele><time>2026-03-29T17:09:32Z</time></trkpt><trkpt lat="45.650277121360574" lon="9.852475442945849"><ele>211.33333333333331</ele><time>2026-03-29T17:09:33Z</time></trkpt><trkpt lat="45.650381505403175" lon="9.85229378756744"><ele>211.0</ele><time>2026-03-29T17:09:34Z</time></trkpt><trkpt lat="45.65046764462249" lon="9.852095173978665"><ele>212.33333333333331</ele><time>2026-03-29T17:09:35Z</time></trkpt><trkpt lat="45.65053827571802" lon="9.851859449199477"><ele>213.66666666666669</ele><time>2026-03-29T17:09:36Z</time></trkpt><trkpt lat="45.650592761644226" lon="9.85161200934745"><ele>215.0</ele><time>2026-03-29T17:09:37Z</time></trkpt><trkpt lat="45.65063741048042" lon="9.851429671197733"><ele>215.4</ele><time>2026-03-29T17:09:38Z</time></trkpt><trkpt lat="45.65065344756567" lon="9.851277583212575"><ele>215.8</ele><time>2026-03-29T17:09:39Z</time></trkpt><trkpt lat="45.65066706981623" lon="9.851167041546876"><ele>216.2</ele><time>2026-03-29T17:09:40Z</time></trkpt><trkpt lat="45.650687259146984" lon="9.8510319660452"><ele>216.6</ele><time>2026-03-29T17:09:42Z</time></trkpt><trkpt lat="45.65072426500756" lon="9.850853898710538"><ele>217.0</ele><time>2026-03-29T17:10:04Z</time></trkpt><trkpt lat="45.65074794251447" lon="9.850694443729019"><ele>217.0</ele><time>2026-03-29T17:10:05Z</time></trkpt><trkpt lat="45.65076524989154" lon="9.85050575070556"><ele>217.0</ele><time>2026-03-29T17:10:06Z</time></trkpt><trkpt lat="45.650791585903626" lon="9.850284073343678"><ele>217.0</ele><time>2026-03-29T17:10:07Z</time></trkpt><trkpt lat="45.65081862359574" lon="9.850086448533402"><ele>217.0</ele><time>2026-03-29T17:10:07.999Z</time></trkpt><trkpt lat="45.65084523203667" lon="9.84992061536224"><ele>216.8</ele><time>2026-03-29T17:10:08.999Z</time></trkpt><trkpt lat="45.65086154420043" lon="9.849773989487314"><ele>216.6</ele><time>2026-03-29T17:10:09.999Z</time></trkpt><trkpt lat="45.65087624498851" lon="9.849659780552187"><ele>216.40000000000003</ele><time>2026-03-29T17:10:10.999Z</time></trkpt><trkpt lat="45.650909918501995" lon="9.849517792277952"><ele>216.20000000000002</ele><time>2026-03-29T17:10:12.999Z</time></trkpt><trkpt lat="45.65092872808746" lon="9.84942126349268"><ele>216.0</ele><time>2026-03-29T17:10:15.999Z</time></trkpt><trkpt lat="45.65080485722951" lon="9.84943745099724"><ele>216.0</ele><time>2026-03-29T17:10:18.999Z</time></trkpt></trkseg></trk></gpx>